<?xml version='1.0' encoding='UTF-8'?><gpx version="1.1" creator="JPX - https://github.com/jenetics/jpx" xmlns="http://www.topografix.com/GPX/1/1"><trk><trkseg><trkpt lat="45.537384089633655" lon="10.213036844634077"><ele>149.0</ele><time>2026-03-30T09:17:04.998Z</time></trkpt><trkpt lat="45.53744395059369" lon="10.213067700484356"><ele>149.0</ele><time>2026-03-30T09:17:10.999Z</time></trkpt><trkpt lat="45.53744715026197" lon="10.213174456431625"><ele>149.0</ele><time>2026-03-30T09:17:12.999Z</time></trkpt><trkpt lat="45.53743068393825" lon="10.213324705416838"><ele>149.0</ele><time>2026-03-30T09:17:14.999Z</time></trkpt><trkpt lat="45.537395212718266" lon="10.21345349338566"><ele>149.0</ele><time>2026-03-30T09:17:16.999Z</time></trkpt><trkpt lat="45.53738166586448" lon="10.213713663232728"><ele>149.33333333333331</ele><time>2026-03-30T09:17:20Z</time></trkpt><trkpt lat="45.53739938157051" lon="10.21383679051791"><ele>149.66666666666666</ele><time>2026-03-30T09:17:21Z</time></trkpt><trkpt lat="45.53739875074243" lon="10.213984017313868"><ele>150.0</ele><time>2026-03-30T09:17:22Z</time></trkpt><trkpt lat="45.53738610335476" lon="10.21410371008625"><ele>150.33333333333334</ele><time>2026-03-30T09:17:23Z</time></trkpt><trkpt lat="45.537337429699924" lon="10.21421032088948"><ele>150.66666666666669</ele><time>2026-03-30T09:17:24Z</time></trkpt><trkpt lat="45.53737615621371" lon="10.214305429662891"><ele>151.0</ele><time>2026-03-30T09:17:25Z</time></trkpt><trkpt lat="45.53734409896444" lon="10.214424052895772"><ele>150.2</ele><time>2026-03-30T09:17:26Z</time></trkpt><trkpt lat="45.53722785737149" lon="10.214418905909133"><ele>149.39999999999998</ele><time>2026-03-30T09:17:27Z</time></trkpt><trkpt lat="45.53720732678773" lon="10.214518758206173"><ele>148.6</ele><time>2026-03-30T09:17:28Z</time></trkpt><trkpt lat="45.537183576352135" lon="10.214625448201065"><ele>147.79999999999998</ele><time>2026-03-30T09:17:30Z</time></trkpt><trkpt lat="45.537134058340655" lon="10.214772367298172"><ele>147.0</ele><time>2026-03-30T09:17:32Z</time></trkpt><trkpt lat="45.53707930023052" lon="10.214887681101198"><ele>146.79999999999998</ele><time>2026-03-30T09:17:34Z</time></trkpt><trkpt lat="45.53705038063709" lon="10.214968219481662"><ele>146.6</ele><time>2026-03-30T09:17:36Z</time></trkpt><trkpt lat="45.53700768879275" lon="10.215048424940342"><ele>146.39999999999998</ele><time>2026-03-30T09:17:37Z</time></trkpt><trkpt lat="45.536918649875055" lon="10.21518366351261"><ele>146.2</ele><time>2026-03-30T09:17:38Z</time></trkpt><trkpt lat="45.5368289326968" lon="10.215313305809692"><ele>146.0</ele><time>2026-03-30T09:17:39Z</time></trkpt><trkpt lat="45.536765604471476" lon="10.215444678100482"><ele>146.0</ele><time>2026-03-30T09:17:40Z</time></trkpt><trkpt lat="45.536695195085706" lon="10.215551496467288"><ele>146.0</ele><time>2026-03-30T09:17:42Z</time></trkpt><trkpt lat="45.536632427514355" lon="10.215675768808563"><ele>146.0</ele><time>2026-03-30T09:17:44Z</time></trkpt><trkpt lat="45.536590894894545" lon="10.215744388813189"><ele>146.0</ele><time>2026-03-30T09:17:52Z</time></trkpt><trkpt lat="45.5359856510887" lon="10.215437570240681"><ele>146.0</ele><time>2026-03-30T09:17:57Z</time></trkpt><trkpt lat="45.53590840850914" lon="10.21537509493131"><ele>146.0</ele><time>2026-03-30T09:17:58Z</time></trkpt><trkpt lat="45.53581494189678" lon="10.2152827342614"><ele>146.0</ele><time>2026-03-30T09:17:59Z</time></trkpt><trkpt lat="45.53573958145449" lon="10.21525761968933"><ele>146.0</ele><time>2026-03-30T09:18:01Z</time></trkpt><trkpt lat="45.535601326998105" lon="10.215170539841125"><ele>146.0</ele><time>2026-03-30T09:18:02Z</time></trkpt><trkpt lat="45.53545462889554" lon="10.21507679709885"><ele>145.25</ele><time>2026-03-30T09:18:03Z</time></trkpt><trkpt lat="45.53533490246918" lon="10.215000289819121"><ele>144.5</ele><time>2026-03-30T09:18:04Z</time></trkpt><trkpt lat="45.53521696859326" lon="10.2149249279634"><ele>143.75</ele><time>2026-03-30T09:18:05Z</time></trkpt><trkpt lat="45.53510751581984" lon="10.214854985776515"><ele>143.0</ele><time>2026-03-30T09:18:06Z</time></trkpt><trkpt lat="45.53502905715458" lon="10.214804849189163"><ele>143.0</ele><time>2026-03-30T09:18:07Z</time></trkpt><trkpt lat="45.534929795880466" lon="10.214741844284605"><ele>143.0</ele><time>2026-03-30T09:18:08Z</time></trkpt><trkpt lat="45.534846416839265" lon="10.214691477032682"><ele>143.0</ele><time>2026-03-30T09:18:09Z</time></trkpt><trkpt lat="45.53490707997011" lon="10.214747681803342"><ele>143.0</ele><time>2026-03-30T09:18:14Z</time></trkpt><trkpt lat="45.535003247850916" lon="10.214812557995836"><ele>143.0</ele><time>2026-03-30T09:18:16Z</time></trkpt><trkpt lat="45.53493668398457" lon="10.21477178482127"><ele>143.0</ele><time>2026-03-30T09:18:21Z</time></trkpt><trkpt lat="45.53489076132617" lon="10.214696224886003"><ele>143.0</ele><time>2026-03-30T09:18:32.001Z</time></trkpt><trkpt lat="45.53493799681924" lon="10.21477461508197"><ele>143.0</ele><time>2026-03-30T09:18:46Z</time></trkpt><trkpt lat="45.53485031843541" lon="10.214722545821147"><ele>143.0</ele><time>2026-03-30T09:18:55Z</time></trkpt><trkpt lat="45.53475620959107" lon="10.214685072695517"><ele>143.0</ele><time>2026-03-30T09:18:56Z</time></trkpt><trkpt lat="45.53464371415332" lon="10.214628923168553"><ele>143.0</ele><time>2026-03-30T09:18:57Z</time></trkpt><trkpt lat="45.53457701297917" lon="10.214609538064103"><ele>143.0</ele><time>2026-03-30T09:18:58Z</time></trkpt><trkpt lat="45.534498967534" lon="10.21458183313576"><ele>143.0</ele><time>2026-03-30T09:18:59Z</time></trkpt><trkpt lat="45.53439002126476" lon="10.214525505402127"><ele>143.0</ele><time>2026-03-30T09:19:00.999Z</time></trkpt><trkpt lat="45.534304933515045" lon="10.214483415311081"><ele>143.0</ele><time>2026-03-30T09:19:02.999Z</time></trkpt><trkpt lat="45.53424330064588" lon="10.214667669902363"><ele>143.0</ele><time>2026-03-30T09:19:03.999Z</time></trkpt><trkpt lat="45.53420223863651" lon="10.214826904463536"><ele>143.0</ele><time>2026-03-30T09:19:04.999Z</time></trkpt><trkpt lat="45.53419527935209" lon="10.214972353443368"><ele>143.0</ele><time>2026-03-30T09:19:05.999Z</time></trkpt><trkpt lat="45.53416699225753" lon="10.215112545865555"><ele>143.0</ele><time>2026-03-30T09:19:06.999Z</time></trkpt><trkpt lat="45.534133705422065" lon="10.215264262262867"><ele>143.0</ele><time>2026-03-30T09:19:07.999Z</time></trkpt><trkpt lat="45.53408886599943" lon="10.215432761502838"><ele>143.0</ele><time>2026-03-30T09:19:08.999Z</time></trkpt><trkpt lat="45.53405630703284" lon="10.215605218232199"><ele>143.0</ele><time>2026-03-30T09:19:09.999Z</time></trkpt><trkpt lat="45.53402323692544" lon="10.215785431652753"><ele>143.0</ele><time>2026-03-30T09:19:10.999Z</time></trkpt><trkpt lat="45.53398609600181" lon="10.216002178560942"><ele>143.0</ele><time>2026-03-30T09:19:11.999Z</time></trkpt><trkpt lat="45.533926302804204" lon="10.216270725788167"><ele>143.66666666666666</ele><time>2026-03-30T09:19:12.999Z</time></trkpt><trkpt lat="45.53387221527689" lon="10.216530947616238"><ele>144.33333333333334</ele><time>2026-03-30T09:19:13.999Z</time></trkpt><trkpt lat="45.53382133357367" lon="10.216764333392693"><ele>145.0</ele><time>2026-03-30T09:19:14.999Z</time></trkpt><trkpt lat="45.533772831141654" lon="10.216972834362092"><ele>145.0</ele><time>2026-03-30T09:19:15.999Z</time></trkpt><trkpt lat="45.5337470114515" lon="10.217178419963814"><ele>145.0</ele><time>2026-03-30T09:19:16.999Z</time></trkpt><trkpt lat="45.533700271144674" lon="10.21734390402778"><ele>145.0</ele><time>2026-03-30T09:19:17.999Z</time></trkpt><trkpt lat="45.533671340856564" lon="10.217492630474677"><ele>145.0</ele><time>2026-03-30T09:19:18.999Z</time></trkpt><trkpt lat="45.53366570558555" lon="10.217601096250332"><ele>145.5</ele><time>2026-03-30T09:19:19.999Z</time></trkpt><trkpt lat="45.53364451676739" lon="10.21770439408222"><ele>146.0</ele><time>2026-03-30T09:20:13.998Z</time></trkpt><trkpt lat="45.533605448059284" lon="10.217879728538403"><ele>146.5</ele><time>2026-03-30T09:20:15.998Z</time></trkpt><trkpt lat="45.533436564586495" lon="10.217943455757938"><ele>147.0</ele><time>2026-03-30T09:20:17.998Z</time></trkpt><trkpt lat="45.533340279567206" lon="10.217880158680778"><ele>147.0</ele><time>2026-03-30T09:20:18.998Z</time></trkpt><trkpt lat="45.533212969088346" lon="10.217828640330243"><ele>147.0</ele><time>2026-03-30T09:20:19.998Z</time></trkpt><trkpt lat="45.533110996561156" lon="10.217798070733133"><ele>147.0</ele><time>2026-03-30T09:20:20.998Z</time></trkpt><trkpt lat="45.533033846286486" lon="10.21776835546484"><ele>147.0</ele><time>2026-03-30T09:20:21.998Z</time></trkpt><trkpt lat="45.53292654315911" lon="10.2177237117226"><ele>147.0</ele><time>2026-03-30T09:20:23.998Z</time></trkpt><trkpt lat="45.53286323718135" lon="10.217700118845945"><ele>146.2</ele><time>2026-03-30T09:20:26.998Z</time></trkpt><trkpt lat="45.53277149091879" lon="10.217683186731847"><ele>145.39999999999998</ele><time>2026-03-30T09:21:01Z</time></trkpt><trkpt lat="45.532699928315196" lon="10.217659741965168"><ele>144.60000000000002</ele><time>2026-03-30T09:21:02Z</time></trkpt><trkpt lat="45.5326225358844" lon="10.217628238868254"><ele>143.8</ele><time>2026-03-30T09:21:03Z</time></trkpt><trkpt lat="45.532523353857904" lon="10.217589728179409"><ele>143.0</ele><time>2026-03-30T09:21:04Z</time></trkpt><trkpt lat="45.532405162259344" lon="10.217544832197316"><ele>143.0</ele><time>2026-03-30T09:21:05Z</time></trkpt><trkpt lat="45.53227267973305" lon="10.217492788697271"><ele>143.0</ele><time>2026-03-30T09:21:06Z</time></trkpt><trkpt lat="45.53212941304202" lon="10.21743453707442"><ele>143.0</ele><time>2026-03-30T09:21:07Z</time></trkpt><trkpt lat="45.53195613098783" lon="10.217370907385707"><ele>141.66666666666666</ele><time>2026-03-30T09:21:08Z</time></trkpt><trkpt lat="45.531761251354396" lon="10.217297426712483"><ele>140.33333333333334</ele><time>2026-03-30T09:21:09Z</time></trkpt><trkpt lat="45.53154056867048" lon="10.217209742037674"><ele>139.0</ele><time>2026-03-30T09:21:10Z</time></trkpt><trkpt lat="45.5313075254037" lon="10.21711459660305"><ele>137.0</ele><time>2026-03-30T09:21:11Z</time></trkpt><trkpt lat="45.53107112150267" lon="10.217020380382786"><ele>135.0</ele><time>2026-03-30T09:21:12Z</time></trkpt><trkpt lat="45.53084682542953" lon="10.216934668401747"><ele>135.0</ele><time>2026-03-30T09:21:13Z</time></trkpt><trkpt lat="45.530631732007826" lon="10.21685370789044"><ele>135.0</ele><time>2026-03-30T09:21:14Z</time></trkpt><trkpt lat="45.53042633377611" lon="10.216781037192085"><ele>135.0</ele><time>2026-03-30T09:21:14.999Z</time></trkpt><trkpt lat="45.53018300321107" lon="10.216676099135155"><ele>135.66666666666666</ele><time>2026-03-30T09:21:15.999Z</time></trkpt><trkpt lat="45.529979385132314" lon="10.216596522941076"><ele>136.33333333333331</ele><time>2026-03-30T09:21:16.999Z</time></trkpt><trkpt lat="45.52978404468685" lon="10.216522246180752"><ele>137.0</ele><time>2026-03-30T09:21:17.999Z</time></trkpt><trkpt lat="45.52959806719747" lon="10.216447261212679"><ele>137.0</ele><time>2026-03-30T09:21:18.999Z</time></trkpt><trkpt lat="45.52941410760438" lon="10.216374221662472"><ele>137.0</ele><time>2026-03-30T09:21:19.999Z</time></trkpt><trkpt lat="45.529235714365754" lon="10.21630662477447"><ele>137.0</ele><time>2026-03-30T09:21:20.999Z</time></trkpt><trkpt lat="45.52906325972788" lon="10.216244171526872"><ele>137.0</ele><time>2026-03-30T09:21:21.999Z</time></trkpt><trkpt lat="45.52890201224597" lon="10.216183409710403"><ele>137.0</ele><time>2026-03-30T09:21:22.999Z</time></trkpt><trkpt lat="45.528749776619456" lon="10.216123292387158"><ele>137.0</ele><time>2026-03-30T09:21:23.999Z</time></trkpt><trkpt lat="45.52860674472219" lon="10.216066432369187"><ele>137.25</ele><time>2026-03-30T09:21:24.999Z</time></trkpt><trkpt lat="45.528473808749034" lon="10.216016592812597"><ele>137.5</ele><time>2026-03-30T09:21:25.999Z</time></trkpt><trkpt lat="45.52836295794569" lon="10.215971974805829"><ele>137.75</ele><time>2026-03-30T09:21:26.999Z</time></trkpt><trkpt lat="45.52826311292877" lon="10.2159290932641"><ele>138.0</ele><time>2026-03-30T09:21:27.999Z</time></trkpt><trkpt lat="45.528164222734645" lon="10.2158656715155"><ele>138.0</ele><time>2026-03-30T09:21:28.999Z</time></trkpt><trkpt lat="45.5280973032462" lon="10.215744007833832"><ele>138.0</ele><time>2026-03-30T09:21:29.999Z</time></trkpt><trkpt lat="45.52799889550406" lon="10.21564226617901"><ele>138.0</ele><time>2026-03-30T09:21:30.999Z</time></trkpt><trkpt lat="45.52784136097556" lon="10.215644024282524"><ele>138.0</ele><time>2026-03-30T09:21:31.999Z</time></trkpt><trkpt lat="45.52766875749642" lon="10.215584563658133"><ele>138.33333333333334</ele><time>2026-03-30T09:21:32.999Z</time></trkpt><trkpt lat="45.527468059882565" lon="10.215506417891138"><ele>138.66666666666669</ele><time>2026-03-30T09:21:33.999Z</time></trkpt><trkpt lat="45.52727005499648" lon="10.215406685788157"><ele>139.0</ele><time>2026-03-30T09:21:34.999Z</time></trkpt><trkpt lat="45.527095542312566" lon="10.215339018316042"><ele>138.66666666666669</ele><time>2026-03-30T09:21:35.999Z</time></trkpt><trkpt lat="45.526931736350406" lon="10.215294628423859"><ele>138.33333333333334</ele><time>2026-03-30T09:21:36.999Z</time></trkpt><trkpt lat="45.526777512609186" lon="10.215215313998325"><ele>138.0</ele><time>2026-03-30T09:21:37.999Z</time></trkpt><trkpt lat="45.526624694783365" lon="10.215154026565186"><ele>138.0</ele><time>2026-03-30T09:21:38.999Z</time></trkpt><trkpt lat="45.52648139705786" lon="10.215096170667703"><ele>138.0</ele><time>2026-03-30T09:21:39.999Z</time></trkpt><trkpt lat="45.52633968510307" lon="10.215038283146837"><ele>138.0</ele><time>2026-03-30T09:21:40.999Z</time></trkpt><trkpt lat="45.52621905817346" lon="10.214987639617561"><ele>138.0</ele><time>2026-03-30T09:21:41.999Z</time></trkpt><trkpt lat="45.52610204003595" lon="10.214944850699311"><ele>138.5</ele><time>2026-03-30T09:21:42.999Z</time></trkpt><trkpt lat="45.525997581573826" lon="10.214930904980589"><ele>139.0</ele><time>2026-03-30T09:21:43.999Z</time></trkpt><trkpt lat="45.525916030993606" lon="10.214891226615633"><ele>139.5</ele><time>2026-03-30T09:21:44.999Z</time></trkpt><trkpt lat="45.52582723089329" lon="10.214830099966278"><ele>140.0</ele><time>2026-03-30T09:21:46.999Z</time></trkpt><trkpt lat="45.525754324323586" lon="10.214757772092499"><ele>140.5</ele><time>2026-03-30T09:21:49.999Z</time></trkpt><trkpt lat="45.52570487090307" lon="10.214700513192849"><ele>141.0</ele><time>2026-03-30T09:21:50.999Z</time></trkpt><trkpt lat="45.52561288176951" lon="10.214590873203461"><ele>141.0</ele><time>2026-03-30T09:21:52.999Z</time></trkpt><trkpt lat="45.525491510566496" lon="10.214660537843338"><ele>141.0</ele><time>2026-03-30T09:21:54.999Z</time></trkpt><trkpt lat="45.5254309993145" lon="10.214803841980304"><ele>141.0</ele><time>2026-03-30T09:21:56.999Z</time></trkpt><trkpt lat="45.52541898017851" lon="10.214942421232868"><ele>141.0</ele><time>2026-03-30T09:21:57.999Z</time></trkpt><trkpt lat="45.525399998693295" lon="10.215130959303805"><ele>138.66666666666666</ele><time>2026-03-30T09:21:58.999Z</time></trkpt><trkpt lat="45.52534645557292" lon="10.215339141053137"><ele>136.33333333333331</ele><time>2026-03-30T09:21:59.999Z</time></trkpt><trkpt lat="45.52527653322198" lon="10.215582663510357"><ele>134.0</ele><time>2026-03-30T09:22:00.999Z</time></trkpt><trkpt lat="45.525208173215944" lon="10.215857928477021"><ele>134.0</ele><time>2026-03-30T09:22:01.999Z</time></trkpt><trkpt lat="45.52514154766699" lon="10.216155645267696"><ele>134.0</ele><time>2026-03-30T09:22:02.999Z</time></trkpt><trkpt lat="45.52507941295438" lon="10.216461204741334"><ele>134.0</ele><time>2026-03-30T09:22:03.999Z</time></trkpt><trkpt lat="45.52503064347928" lon="10.216767480656312"><ele>133.33333333333331</ele><time>2026-03-30T09:22:04.999Z</time></trkpt><trkpt lat="45.524979137981965" lon="10.217038172619196"><ele>132.66666666666666</ele><time>2026-03-30T09:22:05.999Z</time></trkpt><trkpt lat="45.52492725747994" lon="10.21729912707013"><ele>132.0</ele><time>2026-03-30T09:22:06.999Z</time></trkpt><trkpt lat="45.52487488767655" lon="10.217559944482032"><ele>132.0</ele><time>2026-03-30T09:22:07.999Z</time></trkpt><trkpt lat="45.52482544175183" lon="10.21781304440053"><ele>132.0</ele><time>2026-03-30T09:22:08.999Z</time></trkpt><trkpt lat="45.524769676422714" lon="10.218044990230245"><ele>132.0</ele><time>2026-03-30T09:22:09.999Z</time></trkpt><trkpt lat="45.52471768640887" lon="10.21826019549124"><ele>132.75</ele><time>2026-03-30T09:22:10.999Z</time></trkpt><trkpt lat="45.524676096030184" lon="10.218457152640957"><ele>133.5</ele><time>2026-03-30T09:22:11.999Z</time></trkpt><trkpt lat="45.52463985741709" lon="10.218633221933091"><ele>134.25</ele><time>2026-03-30T09:22:12.999Z</time></trkpt><trkpt lat="45.524605306447995" lon="10.218786861413726"><ele>135.0</ele><time>2026-03-30T09:22:13.999Z</time></trkpt><trkpt lat="45.524557907032154" lon="10.21890013673366"><ele>134.0</ele><time>2026-03-30T09:22:14.999Z</time></trkpt><trkpt lat="45.524490092491114" lon="10.218994935272864"><ele>133.0</ele><time>2026-03-30T09:22:15.999Z</time></trkpt><trkpt lat="45.524393251647325" lon="10.219064215675786"><ele>132.0</ele><time>2026-03-30T09:22:16.999Z</time></trkpt><trkpt lat="45.52428038747535" lon="10.21909280838856"><ele>131.0</ele><time>2026-03-30T09:22:17.999Z</time></trkpt><trkpt lat="45.52413730492545" lon="10.219072853518165"><ele>131.0</ele><time>2026-03-30T09:22:18.999Z</time></trkpt><trkpt lat="45.523961212263785" lon="10.219018234492214"><ele>131.0</ele><time>2026-03-30T09:22:19.999Z</time></trkpt><trkpt lat="45.523775413082106" lon="10.218939572610248"><ele>131.0</ele><time>2026-03-30T09:22:20.999Z</time></trkpt><trkpt lat="45.52359494702144" lon="10.218867522321109"><ele>130.66666666666666</ele><time>2026-03-30T09:22:21.999Z</time></trkpt><trkpt lat="45.523411813209435" lon="10.218795906430701"><ele>130.33333333333334</ele><time>2026-03-30T09:22:22.999Z</time></trkpt><trkpt lat="45.52321662526806" lon="10.218714939303315"><ele>130.0</ele><time>2026-03-30T09:22:23.999Z</time></trkpt><trkpt lat="45.52299255865024" lon="10.218627789313352"><ele>131.33333333333334</ele><time>2026-03-30T09:22:24.999Z</time></trkpt><trkpt lat="45.52277966346058" lon="10.218542463897265"><ele>132.66666666666666</ele><time>2026-03-30T09:22:25.999Z</time></trkpt><trkpt lat="45.52259561514239" lon="10.218455283801976"><ele>134.0</ele><time>2026-03-30T09:22:26.999Z</time></trkpt><trkpt lat="45.52241315150012" lon="10.218362300644154"><ele>134.0</ele><time>2026-03-30T09:22:27.999Z</time></trkpt><trkpt lat="45.52222584132691" lon="10.218258958496394"><ele>134.0</ele><time>2026-03-30T09:22:28.998Z</time></trkpt><trkpt lat="45.522035923156096" lon="10.21815716387966"><ele>134.0</ele><time>2026-03-30T09:22:29.998Z</time></trkpt><trkpt lat="45.52182614902044" lon="10.218038376480255"><ele>132.66666666666666</ele><time>2026-03-30T09:22:30.998Z</time></trkpt><trkpt lat="45.52162025343269" lon="10.217914633876578"><ele>131.33333333333334</ele><time>2026-03-30T09:22:31.998Z</time></trkpt><trkpt lat="45.52145427421364" lon="10.217817114795128"><ele>130.0</ele><time>2026-03-30T09:22:32.998Z</time></trkpt><trkpt lat="45.52129641417601" lon="10.217727410145436"><ele>129.5</ele><time>2026-03-30T09:22:33.998Z</time></trkpt><trkpt lat="45.521144395545186" lon="10.217653052849077"><ele>129.0</ele><time>2026-03-30T09:22:35Z</time></trkpt><trkpt lat="45.52100430496462" lon="10.217582377435921"><ele>128.5</ele><time>2026-03-30T09:22:36Z</time></trkpt><trkpt lat="45.52088000166756" lon="10.217518155959876"><ele>128.0</ele><time>2026-03-30T09:22:37Z</time></trkpt><trkpt lat="45.520769606192815" lon="10.217460491342699"><ele>128.0</ele><time>2026-03-30T09:22:38Z</time></trkpt><trkpt lat="45.52067583131661" lon="10.217410158803181"><ele>128.0</ele><time>2026-03-30T09:22:39Z</time></trkpt><trkpt lat="45.52059234884304" lon="10.21736805756344"><ele>128.0</ele><time>2026-03-30T09:22:40Z</time></trkpt><trkpt lat="45.5205149714863" lon="10.21734555430328"><ele>128.0</ele><time>2026-03-30T09:22:41Z</time></trkpt><trkpt lat="45.52040452314165" lon="10.217273772738148"><ele>128.0</ele><time>2026-03-30T09:22:43Z</time></trkpt><trkpt lat="45.520307854501254" lon="10.21721793531701"><ele>128.25</ele><time>2026-03-30T09:22:45Z</time></trkpt><trkpt lat="45.52021426581294" lon="10.217161159024116"><ele>128.5</ele><time>2026-03-30T09:22:47Z</time></trkpt><trkpt lat="45.520140373859256" lon="10.217090332601147"><ele>128.75</ele><time>2026-03-30T09:22:49Z</time></trkpt><trkpt lat="45.5200641978741" lon="10.216990845658435"><ele>129.0</ele><time>2026-03-30T09:22:51Z</time></trkpt><trkpt lat="45.51991118918348" lon="10.216925036259743"><ele>129.0</ele><time>2026-03-30T09:22:53Z</time></trkpt><trkpt lat="45.51977755580799" lon="10.216910750549669"><ele>129.0</ele><time>2026-03-30T09:22:54Z</time></trkpt><trkpt lat="45.51962530126029" lon="10.216862236012673"><ele>129.0</ele><time>2026-03-30T09:22:55Z</time></trkpt><trkpt lat="45.519466308811275" lon="10.2167801783824"><ele>129.0</ele><time>2026-03-30T09:22:56Z</time></trkpt><trkpt lat="45.51931044562359" lon="10.216673919485007"><ele>129.0</ele><time>2026-03-30T09:22:57Z</time></trkpt><trkpt lat="45.519140756711565" lon="10.216576442862243"><ele>129.0</ele><time>2026-03-30T09:22:58Z</time></trkpt><trkpt lat="45.51896156689972" lon="10.216475527749072"><ele>129.33333333333334</ele><time>2026-03-30T09:22:59Z</time></trkpt><trkpt lat="45.5187820226014" lon="10.216338335828405"><ele>129.66666666666669</ele><time>2026-03-30T09:23:00Z</time></trkpt><trkpt lat="45.51858577286156" lon="10.216193622071291"><ele>130.0</ele><time>2026-03-30T09:23:01Z</time></trkpt><trkpt lat="45.51838555768521" lon="10.216056826139102"><ele>129.0</ele><time>2026-03-30T09:23:02Z</time></trkpt><trkpt lat="45.518207152401025" lon="10.215917811400166"><ele>128.0</ele><time>2026-03-30T09:23:03Z</time></trkpt><trkpt lat="45.51803402603597" lon="10.21579164182982"><ele>127.0</ele><time>2026-03-30T09:23:04Z</time></trkpt><trkpt lat="45.517857053685475" lon="10.2156769676386"><ele>126.0</ele><time>2026-03-30T09:23:05Z</time></trkpt><trkpt lat="45.517676647663144" lon="10.215570585567653"><ele>125.0</ele><time>2026-03-30T09:23:06Z</time></trkpt><trkpt lat="45.51750850046524" lon="10.215473662798653"><ele>124.0</ele><time>2026-03-30T09:23:07Z</time></trkpt><trkpt lat="45.517326258594764" lon="10.215393995238502"><ele>124.0</ele><time>2026-03-30T09:23:08Z</time></trkpt><trkpt lat="45.51715029332502" lon="10.215324051063527"><ele>124.0</ele><time>2026-03-30T09:23:09Z</time></trkpt><trkpt lat="45.51698239312841" lon="10.215264279525616"><ele>124.0</ele><time>2026-03-30T09:23:10Z</time></trkpt><trkpt lat="45.51681966930239" lon="10.215219579003117"><ele>124.0</ele><time>2026-03-30T09:23:11Z</time></trkpt><trkpt lat="45.51667071607692" lon="10.215184014386242"><ele>124.0</ele><time>2026-03-30T09:23:12Z</time></trkpt><trkpt lat="45.5165198905089" lon="10.215153810923495"><ele>124.0</ele><time>2026-03-30T09:23:13Z</time></trkpt><trkpt lat="45.5163820479794" lon="10.21513697348153"><ele>124.0</ele><time>2026-03-30T09:23:14Z</time></trkpt><trkpt lat="45.516243668227716" lon="10.215118445380272"><ele>123.5</ele><time>2026-03-30T09:23:15Z</time></trkpt><trkpt lat="45.51612146148224" lon="10.215110908690113"><ele>123.0</ele><time>2026-03-30T09:23:16Z</time></trkpt><trkpt lat="45.516003800288075" lon="10.21510505980663"><ele>122.5</ele><time>2026-03-30T09:23:17Z</time></trkpt><trkpt lat="45.51589198100507" lon="10.215107137723018"><ele>122.0</ele><time>2026-03-30T09:23:18Z</time></trkpt><trkpt lat="45.51578584831591" lon="10.215115074266953"><ele>122.0</ele><time>2026-03-30T09:23:19Z</time></trkpt><trkpt lat="45.515685632108635" lon="10.215126726081973"><ele>121.99999999999999</ele><time>2026-03-30T09:23:20Z</time></trkpt><trkpt lat="45.51559378625478" lon="10.21514425460717"><ele>121.99999999999999</ele><time>2026-03-30T09:23:21Z</time></trkpt><trkpt lat="45.51550874392248" lon="10.215162517106158"><ele>122.0</ele><time>2026-03-30T09:23:22Z</time></trkpt><trkpt lat="45.51542729616215" lon="10.215151882970954"><ele>122.0</ele><time>2026-03-30T09:23:22.999Z</time></trkpt><trkpt lat="45.51533041071663" lon="10.215168725759272"><ele>122.25</ele><time>2026-03-30T09:23:23.999Z</time></trkpt><trkpt lat="45.51520138729402" lon="10.21519644538798"><ele>122.5</ele><time>2026-03-30T09:23:24.999Z</time></trkpt><trkpt lat="45.51505278847081" lon="10.215229067544554"><ele>122.75</ele><time>2026-03-30T09:23:25.999Z</time></trkpt><trkpt lat="45.51491268300721" lon="10.21526856470182"><ele>123.0</ele><time>2026-03-30T09:23:26.999Z</time></trkpt><trkpt lat="45.514728200151254" lon="10.215295117982663"><ele>124.0</ele><time>2026-03-30T09:23:27.999Z</time></trkpt><trkpt lat="45.51453622180017" lon="10.215395363392801"><ele>125.0</ele><time>2026-03-30T09:23:28.999Z</time></trkpt><trkpt lat="45.51429798615189" lon="10.21551148731793"><ele>125.0</ele><time>2026-03-30T09:23:29.999Z</time></trkpt><trkpt lat="45.51403170014427" lon="10.215625756146904"><ele>125.0</ele><time>2026-03-30T09:23:30.999Z</time></trkpt><trkpt lat="45.51380936722121" lon="10.215738192508331"><ele>124.0</ele><time>2026-03-30T09:23:31.999Z</time></trkpt><trkpt lat="45.51361495069315" lon="10.215829879809274"><ele>123.0</ele><time>2026-03-30T09:23:32.999Z</time></trkpt><trkpt lat="45.51344120013998" lon="10.215910021549277"><ele>122.0</ele><time>2026-03-30T09:23:33.999Z</time></trkpt><trkpt lat="45.51328313551912" lon="10.215974721658474"><ele>122.0</ele><time>2026-03-30T09:23:34.999Z</time></trkpt><trkpt lat="45.51314480313273" lon="10.216011282208878"><ele>122.0</ele><time>2026-03-30T09:23:35.999Z</time></trkpt><trkpt lat="45.51302430382299" lon="10.216001875862217"><ele>122.0</ele><time>2026-03-30T09:23:36.999Z</time></trkpt><trkpt lat="45.512921209035014" lon="10.215949854564883"><ele>122.0</ele><time>2026-03-30T09:23:37.999Z</time></trkpt><trkpt lat="45.51282338430895" lon="10.215859671050692"><ele>121.75</ele><time>2026-03-30T09:23:38.999Z</time></trkpt><trkpt lat="45.512759069761614" lon="10.215727105620815"><ele>121.5</ele><time>2026-03-30T09:23:39.999Z</time></trkpt><trkpt lat="45.51271890967005" lon="10.215576229821174"><ele>121.25</ele><time>2026-03-30T09:23:40.999Z</time></trkpt><trkpt lat="45.51263736042228" lon="10.21541224064356"><ele>121.0</ele><time>2026-03-30T09:23:41.999Z</time></trkpt><trkpt lat="45.51255378560846" lon="10.215276963346177"><ele>120.5</ele><time>2026-03-30T09:23:42.999Z</time></trkpt><trkpt lat="45.51244822598351" lon="10.215245180806258"><ele>120.0</ele><time>2026-03-30T09:23:43.999Z</time></trkpt><trkpt lat="45.51235102098505" lon="10.215226373177265"><ele>119.5</ele><time>2026-03-30T09:23:44.999Z</time></trkpt><trkpt lat="45.51225345599743" lon="10.215228969461426"><ele>119.0</ele><time>2026-03-30T09:23:45.999Z</time></trkpt><trkpt lat="45.5121109834926" lon="10.215060315620622"><ele>119.0</ele><time>2026-03-30T09:23:47.999Z</time></trkpt><trkpt lat="45.512041696326214" lon="10.215120309951844"><ele>119.0</ele><time>2026-03-30T09:23:48.999Z</time></trkpt><trkpt lat="45.51191318238432" lon="10.215929563770207"><ele>119.0</ele><time>2026-03-30T09:23:50.999Z</time></trkpt><trkpt lat="45.51186854878167" lon="10.216271488431852"><ele>119.0</ele><time>2026-03-30T09:23:51.999Z</time></trkpt><trkpt lat="45.511751060833454" lon="10.2165005673001"><ele>119.0</ele><time>2026-03-30T09:23:52.999Z</time></trkpt><trkpt lat="45.51169549647447" lon="10.216745985212071"><ele>119.0</ele><time>2026-03-30T09:23:53.999Z</time></trkpt><trkpt lat="45.51164758598023" lon="10.21696688057031"><ele>119.0</ele><time>2026-03-30T09:23:54.999Z</time></trkpt><trkpt lat="45.511639622551186" lon="10.217186671657652"><ele>119.0</ele><time>2026-03-30T09:23:55.999Z</time></trkpt><trkpt lat="45.51164512520276" lon="10.217429913562425"><ele>120.5</ele><time>2026-03-30T09:23:56.999Z</time></trkpt><trkpt lat="45.5116468066084" lon="10.217774602524266"><ele>122.0</ele><time>2026-03-30T09:23:57.999Z</time></trkpt><trkpt lat="45.511624212422326" lon="10.218107395639347"><ele>122.0</ele><time>2026-03-30T09:23:58.999Z</time></trkpt><trkpt lat="45.51159818549835" lon="10.218438112767096"><ele>122.0</ele><time>2026-03-30T09:23:59.999Z</time></trkpt><trkpt lat="45.51152110401247" lon="10.218795317860916"><ele>122.5</ele><time>2026-03-30T09:24:00.999Z</time></trkpt><trkpt lat="45.51144726025653" lon="10.219153292998996"><ele>123.0</ele><time>2026-03-30T09:24:01.999Z</time></trkpt><trkpt lat="45.511380248685015" lon="10.219535551839158"><ele>122.0</ele><time>2026-03-30T09:24:02.999Z</time></trkpt><trkpt lat="45.511318596899855" lon="10.219920995468556"><ele>121.0</ele><time>2026-03-30T09:24:03.999Z</time></trkpt><trkpt lat="45.51124142389598" lon="10.220305050226894"><ele>121.5</ele><time>2026-03-30T09:24:04.999Z</time></trkpt><trkpt lat="45.51114505717504" lon="10.220710805327549"><ele>122.0</ele><time>2026-03-30T09:24:05.999Z</time></trkpt><trkpt lat="45.51105963413112" lon="10.221082116420323"><ele>122.0</ele><time>2026-03-30T09:24:06.999Z</time></trkpt><trkpt lat="45.510997402237805" lon="10.221407146207893"><ele>122.0</ele><time>2026-03-30T09:24:07.999Z</time></trkpt><trkpt lat="45.510908013219144" lon="10.221766944943637"><ele>122.0</ele><time>2026-03-30T09:24:08.999Z</time></trkpt><trkpt lat="45.51083061220728" lon="10.22211649492734"><ele>122.0</ele><time>2026-03-30T09:24:09.999Z</time></trkpt><trkpt lat="45.510711725229534" lon="10.222469436161289"><ele>122.0</ele><time>2026-03-30T09:24:10.999Z</time></trkpt><trkpt lat="45.510629781739816" lon="10.222821998731503"><ele>122.0</ele><time>2026-03-30T09:24:11.999Z</time></trkpt><trkpt lat="45.51055116542076" lon="10.223169910038257"><ele>120.5</ele><time>2026-03-30T09:24:12.999Z</time></trkpt><trkpt lat="45.51048128682201" lon="10.223526732192859"><ele>119.0</ele><time>2026-03-30T09:24:13.999Z</time></trkpt><trkpt lat="45.51042044563303" lon="10.223885989921211"><ele>119.0</ele><time>2026-03-30T09:24:14.999Z</time></trkpt><trkpt lat="45.51037261039399" lon="10.224255053044859"><ele>119.0</ele><time>2026-03-30T09:24:15.999Z</time></trkpt><trkpt lat="45.51032772912394" lon="10.224619042907419"><ele>119.0</ele><time>2026-03-30T09:24:16.999Z</time></trkpt><trkpt lat="45.51028956336803" lon="10.22498178363405"><ele>119.0</ele><time>2026-03-30T09:24:17.999Z</time></trkpt><trkpt lat="45.51025341128376" lon="10.225347306059405"><ele>118.0</ele><time>2026-03-30T09:24:18.999Z</time></trkpt><trkpt lat="45.51022872015666" lon="10.225716907780093"><ele>117.0</ele><time>2026-03-30T09:24:19.999Z</time></trkpt><trkpt lat="45.510216456799185" lon="10.22608711265237"><ele>117.0</ele><time>2026-03-30T09:24:20.999Z</time></trkpt><trkpt lat="45.510212342653205" lon="10.226458425385534"><ele>117.0</ele><time>2026-03-30T09:24:21.999Z</time></trkpt><trkpt lat="45.51021098952039" lon="10.226832092037686"><ele>117.5</ele><time>2026-03-30T09:24:22.999Z</time></trkpt><trkpt lat="45.510209382345096" lon="10.22720406773216"><ele>118.0</ele><time>2026-03-30T09:24:23.999Z</time></trkpt><trkpt lat="45.51020566185558" lon="10.227575300586604"><ele>118.0</ele><time>2026-03-30T09:24:24.999Z</time></trkpt><trkpt lat="45.51019801710331" lon="10.227940817456325"><ele>118.0</ele><time>2026-03-30T09:24:25.999Z</time></trkpt><trkpt lat="45.51017917893899" lon="10.228305238770448"><ele>118.0</ele><time>2026-03-30T09:24:26.999Z</time></trkpt><trkpt lat="45.51015863181488" lon="10.228672403606978"><ele>118.0</ele><time>2026-03-30T09:24:27.999Z</time></trkpt><trkpt lat="45.510127844526515" lon="10.229035428148093"><ele>117.5</ele><time>2026-03-30T09:24:28.999Z</time></trkpt><trkpt lat="45.51009132100804" lon="10.22940313607031"><ele>117.0</ele><time>2026-03-30T09:24:29.999Z</time></trkpt><trkpt lat="45.510065574768184" lon="10.229769797851258"><ele>117.5</ele><time>2026-03-30T09:24:30.999Z</time></trkpt><trkpt lat="45.5100397521378" lon="10.230128300240645"><ele>118.0</ele><time>2026-03-30T09:24:31.999Z</time></trkpt><trkpt lat="45.51000971424465" lon="10.23050202203045"><ele>118.5</ele><time>2026-03-30T09:24:32.999Z</time></trkpt><trkpt lat="45.50998782087823" lon="10.230878153752602"><ele>119.0</ele><time>2026-03-30T09:24:33.999Z</time></trkpt><trkpt lat="45.50996327401515" lon="10.231254285576368"><ele>118.5</ele><time>2026-03-30T09:24:34.998Z</time></trkpt><trkpt lat="45.50993552333581" lon="10.231615027891548"><ele>118.0</ele><time>2026-03-30T09:24:35.998Z</time></trkpt><trkpt lat="45.50990553464514" lon="10.231989730781011"><ele>116.5</ele><time>2026-03-30T09:24:36.998Z</time></trkpt><trkpt lat="45.50987492931794" lon="10.232362170518595"><ele>115.0</ele><time>2026-03-30T09:24:37.998Z</time></trkpt><trkpt lat="45.50984971634942" lon="10.232727731809272"><ele>115.0</ele><time>2026-03-30T09:24:38.998Z</time></trkpt><trkpt lat="45.509817059700914" lon="10.233099227173897"><ele>115.0</ele><time>2026-03-30T09:24:39.998Z</time></trkpt><trkpt lat="45.509797597980885" lon="10.233463026495494"><ele>115.0</ele><time>2026-03-30T09:24:41Z</time></trkpt><trkpt lat="45.509771622580566" lon="10.233837855940015"><ele>115.0</ele><time>2026-03-30T09:24:42Z</time></trkpt><trkpt lat="45.50974618968513" lon="10.234208042176565"><ele>116.0</ele><time>2026-03-30T09:24:43Z</time></trkpt><trkpt lat="45.50972312175824" lon="10.234574071089899"><ele>117.0</ele><time>2026-03-30T09:24:44Z</time></trkpt><trkpt lat="45.509695122895266" lon="10.234939860985685"><ele>117.0</ele><time>2026-03-30T09:24:45Z</time></trkpt><trkpt lat="45.50966189225431" lon="10.235306391997389"><ele>117.0</ele><time>2026-03-30T09:24:46Z</time></trkpt><trkpt lat="45.50962709635336" lon="10.235677317274154"><ele>116.66666666666666</ele><time>2026-03-30T09:24:47Z</time></trkpt><trkpt lat="45.50956886936868" lon="10.236001139179631"><ele>116.33333333333333</ele><time>2026-03-30T09:24:48Z</time></trkpt><trkpt lat="45.509546225612205" lon="10.236266038891257"><ele>116.0</ele><time>2026-03-30T09:24:49Z</time></trkpt><trkpt lat="45.50956559487537" lon="10.236529489383146"><ele>116.0</ele><time>2026-03-30T09:24:50Z</time></trkpt><trkpt lat="45.50954803524986" lon="10.236749241022418"><ele>116.0</ele><time>2026-03-30T09:24:51Z</time></trkpt><trkpt lat="45.50951400540412" lon="10.236968344069597"><ele>116.0</ele><time>2026-03-30T09:24:52Z</time></trkpt><trkpt lat="45.50943251854867" lon="10.237259954700031"><ele>116.0</ele><time>2026-03-30T09:24:53Z</time></trkpt><trkpt lat="45.50938531023802" lon="10.237513452472673"><ele>116.0</ele><time>2026-03-30T09:24:54Z</time></trkpt><trkpt lat="45.50933918067171" lon="10.237773544451096"><ele>116.0</ele><time>2026-03-30T09:24:55Z</time></trkpt><trkpt lat="45.50927986580987" lon="10.238036357725651"><ele>115.0</ele><time>2026-03-30T09:24:56Z</time></trkpt><trkpt lat="45.50921733733375" lon="10.238302264553381"><ele>114.0</ele><time>2026-03-30T09:24:57Z</time></trkpt><trkpt lat="45.50914899415166" lon="10.238572867518242"><ele>113.0</ele><time>2026-03-30T09:24:58Z</time></trkpt><trkpt lat="45.509079676816576" lon="10.238840864070422"><ele>114.0</ele><time>2026-03-30T09:24:59Z</time></trkpt><trkpt lat="45.50900448531994" lon="10.23911047672476"><ele>115.0</ele><time>2026-03-30T09:25:00Z</time></trkpt><trkpt lat="45.508930325637614" lon="10.239382097250909"><ele>116.0</ele><time>2026-03-30T09:25:01Z</time></trkpt><trkpt lat="45.508849138067646" lon="10.239653993091027"><ele>116.66666666666666</ele><time>2026-03-30T09:25:02Z</time></trkpt><trkpt lat="45.5087671405917" lon="10.239929993640423"><ele>117.33333333333334</ele><time>2026-03-30T09:25:03Z</time></trkpt><trkpt lat="45.50867645108502" lon="10.240202328845255"><ele>118.0</ele><time>2026-03-30T09:25:04Z</time></trkpt><trkpt lat="45.5085836665106" lon="10.240474922681864"><ele>117.0</ele><time>2026-03-30T09:25:05Z</time></trkpt><trkpt lat="45.50848629078872" lon="10.240752860008152"><ele>116.0</ele><time>2026-03-30T09:25:06Z</time></trkpt><trkpt lat="45.50838252046087" lon="10.241021802919011"><ele>115.0</ele><time>2026-03-30T09:25:07Z</time></trkpt><trkpt lat="45.50827426423312" lon="10.241289515935636"><ele>115.66666666666667</ele><time>2026-03-30T09:25:08Z</time></trkpt><trkpt lat="45.50816312833088" lon="10.24154093863655"><ele>116.33333333333334</ele><time>2026-03-30T09:25:09Z</time></trkpt><trkpt lat="45.50804752766955" lon="10.241802271167627"><ele>117.0</ele><time>2026-03-30T09:25:10Z</time></trkpt><trkpt lat="45.50792889741191" lon="10.242058075003724"><ele>117.0</ele><time>2026-03-30T09:25:11Z</time></trkpt><trkpt lat="45.50780772679999" lon="10.24230768767264"><ele>117.0</ele><time>2026-03-30T09:25:12Z</time></trkpt><trkpt lat="45.50768678232467" lon="10.242556129990943"><ele>117.0</ele><time>2026-03-30T09:25:13Z</time></trkpt><trkpt lat="45.507563573824584" lon="10.242801101728924"><ele>117.0</ele><time>2026-03-30T09:25:14Z</time></trkpt><trkpt lat="45.50743835257828" lon="10.243043433738654"><ele>117.0</ele><time>2026-03-30T09:25:15Z</time></trkpt><trkpt lat="45.507300611687235" lon="10.24328566565685"><ele>117.0</ele><time>2026-03-30T09:25:16Z</time></trkpt><trkpt lat="45.507160674147926" lon="10.243513609760788"><ele>117.0</ele><time>2026-03-30T09:25:17Z</time></trkpt><trkpt lat="45.50702142231756" lon="10.243744752855145"><ele>117.0</ele><time>2026-03-30T09:25:18Z</time></trkpt><trkpt lat="45.50688123249853" lon="10.243971386033728"><ele>117.0</ele><time>2026-03-30T09:25:19Z</time></trkpt><trkpt lat="45.50673848267802" lon="10.244201585129792"><ele>117.0</ele><time>2026-03-30T09:25:20Z</time></trkpt><trkpt lat="45.50659700350274" lon="10.244431269173768"><ele>117.0</ele><time>2026-03-30T09:25:21Z</time></trkpt><trkpt lat="45.506454022181515" lon="10.244660207092124"><ele>117.0</ele><time>2026-03-30T09:25:22Z</time></trkpt><trkpt lat="45.50631724680522" lon="10.244887140569007"><ele>117.0</ele><time>2026-03-30T09:25:23Z</time></trkpt><trkpt lat="45.506173547229025" lon="10.245113061473717"><ele>117.0</ele><time>2026-03-30T09:25:24Z</time></trkpt><trkpt lat="45.50603745426886" lon="10.245341398565104"><ele>117.0</ele><time>2026-03-30T09:25:25Z</time></trkpt><trkpt lat="45.50589775633553" lon="10.245571829134553"><ele>118.0</ele><time>2026-03-30T09:25:26Z</time></trkpt><trkpt lat="45.50575589188104" lon="10.245803140316495"><ele>119.0</ele><time>2026-03-30T09:25:27Z</time></trkpt><trkpt lat="45.505614415959776" lon="10.246031664493024"><ele>120.0</ele><time>2026-03-30T09:25:28Z</time></trkpt><trkpt lat="45.50547271132943" lon="10.246263910604933"><ele>120.0</ele><time>2026-03-30T09:25:29Z</time></trkpt><trkpt lat="45.5053297801009" lon="10.246495094587292"><ele>120.0</ele><time>2026-03-30T09:25:30Z</time></trkpt><trkpt lat="45.50519275077187" lon="10.246726378809093"><ele>120.0</ele><time>2026-03-30T09:25:31Z</time></trkpt><trkpt lat="45.505053119202366" lon="10.24696726790841"><ele>120.0</ele><time>2026-03-30T09:25:31.999Z</time></trkpt><trkpt lat="45.50491742648278" lon="10.247201160737632"><ele>120.0</ele><time>2026-03-30T09:25:32.999Z</time></trkpt><trkpt lat="45.504780677308915" lon="10.24743762671696"><ele>120.0</ele><time>2026-03-30T09:25:33.999Z</time></trkpt><trkpt lat="45.50463820434433" lon="10.247666702657357"><ele>120.33333333333334</ele><time>2026-03-30T09:25:34.999Z</time></trkpt><trkpt lat="45.50449509678253" lon="10.24789584558072"><ele>120.66666666666667</ele><time>2026-03-30T09:25:35.999Z</time></trkpt><trkpt lat="45.50435387552905" lon="10.24812184003162"><ele>121.0</ele><time>2026-03-30T09:25:36.999Z</time></trkpt><trkpt lat="45.50420818656425" lon="10.248356897311059"><ele>121.0</ele><time>2026-03-30T09:25:37.999Z</time></trkpt><trkpt lat="45.50406692222376" lon="10.248583416637862"><ele>121.0</ele><time>2026-03-30T09:25:38.999Z</time></trkpt><trkpt lat="45.503925922191804" lon="10.248811367072385"><ele>121.0</ele><time>2026-03-30T09:25:39.999Z</time></trkpt><trkpt lat="45.5037836440182" lon="10.249038911965185"><ele>120.66666666666667</ele><time>2026-03-30T09:25:40.999Z</time></trkpt><trkpt lat="45.5036436792913" lon="10.249264373191279"><ele>120.33333333333334</ele><time>2026-03-30T09:25:41.999Z</time></trkpt><trkpt lat="45.50350110269373" lon="10.249494757430565"><ele>120.0</ele><time>2026-03-30T09:25:42.999Z</time></trkpt><trkpt lat="45.503356994327156" lon="10.24972250100738"><ele>120.33333333333334</ele><time>2026-03-30T09:25:43.999Z</time></trkpt><trkpt lat="45.503213816409925" lon="10.249950064562523"><ele>120.66666666666667</ele><time>2026-03-30T09:25:44.999Z</time></trkpt><trkpt lat="45.50307142628565" lon="10.250177722550244"><ele>121.0</ele><time>2026-03-30T09:25:45.999Z</time></trkpt><trkpt lat="45.50292864812977" lon="10.25040937553608"><ele>120.66666666666667</ele><time>2026-03-30T09:25:46.999Z</time></trkpt><trkpt lat="45.50279409971834" lon="10.250641964667377"><ele>120.33333333333334</ele><time>2026-03-30T09:25:47.999Z</time></trkpt><trkpt lat="45.50266314239947" lon="10.250883592865074"><ele>120.0</ele><time>2026-03-30T09:25:48.999Z</time></trkpt><trkpt lat="45.50253924088434" lon="10.251136667318896"><ele>120.0</ele><time>2026-03-30T09:25:49.999Z</time></trkpt><trkpt lat="45.50241943527741" lon="10.251396298831938"><ele>120.0</ele><time>2026-03-30T09:25:50.999Z</time></trkpt><trkpt lat="45.50230712051123" lon="10.251652164404154"><ele>120.0</ele><time>2026-03-30T09:25:51.999Z</time></trkpt><trkpt lat="45.50219926904994" lon="10.251913062721622"><ele>120.0</ele><time>2026-03-30T09:25:52.999Z</time></trkpt><trkpt lat="45.50209159761868" lon="10.252178333277188"><ele>120.0</ele><time>2026-03-30T09:25:53.999Z</time></trkpt><trkpt lat="45.50199583189758" lon="10.252444378156946"><ele>120.0</ele><time>2026-03-30T09:25:54.999Z</time></trkpt><trkpt lat="45.50190002514419" lon="10.25272082212314"><ele>120.0</ele><time>2026-03-30T09:25:55.999Z</time></trkpt><trkpt lat="45.50181347686332" lon="10.253000117089812"><ele>120.0</ele><time>2026-03-30T09:25:56.999Z</time></trkpt><trkpt lat="45.50173037571045" lon="10.25328163406767"><ele>120.0</ele><time>2026-03-30T09:25:57.999Z</time></trkpt><trkpt lat="45.501652883638286" lon="10.253565708841414"><ele>120.0</ele><time>2026-03-30T09:25:58.999Z</time></trkpt><trkpt lat="45.50158044124823" lon="10.253853957187406"><ele>120.0</ele><time>2026-03-30T09:25:59.999Z</time></trkpt><trkpt lat="45.50152101645912" lon="10.25414250686127"><ele>120.0</ele><time>2026-03-30T09:26:00.999Z</time></trkpt><trkpt lat="45.501463240211095" lon="10.254439435803036"><ele>120.33333333333334</ele><time>2026-03-30T09:26:01.999Z</time></trkpt><trkpt lat="45.50141164813709" lon="10.254734964824086"><ele>120.66666666666667</ele><time>2026-03-30T09:26:02.999Z</time></trkpt><trkpt lat="45.501366467220436" lon="10.255029910070965"><ele>121.0</ele><time>2026-03-30T09:26:03.999Z</time></trkpt><trkpt lat="45.50132754069258" lon="10.255331504457935"><ele>120.66666666666667</ele><time>2026-03-30T09:26:04.999Z</time></trkpt><trkpt lat="45.501297836517786" lon="10.25563525038694"><ele>120.33333333333334</ele><time>2026-03-30T09:26:05.999Z</time></trkpt><trkpt lat="45.50127382522521" lon="10.255936338228668"><ele>120.0</ele><time>2026-03-30T09:26:06.999Z</time></trkpt><trkpt lat="45.50125438163636" lon="10.256238173747915"><ele>120.66666666666666</ele><time>2026-03-30T09:26:07.999Z</time></trkpt><trkpt lat="45.50124005476441" lon="10.256544020701236"><ele>121.33333333333333</ele><time>2026-03-30T09:26:08.999Z</time></trkpt><trkpt lat="45.50122390948997" lon="10.256851581888323"><ele>122.0</ele><time>2026-03-30T09:26:09.999Z</time></trkpt><trkpt lat="45.50120969978468" lon="10.257153797527593"><ele>122.0</ele><time>2026-03-30T09:26:10.999Z</time></trkpt><trkpt lat="45.50119214672305" lon="10.257459256737722"><ele>122.0</ele><time>2026-03-30T09:26:11.999Z</time></trkpt><trkpt lat="45.50117500032266" lon="10.257761258539395"><ele>122.0</ele><time>2026-03-30T09:26:12.999Z</time></trkpt><trkpt lat="45.501157141458386" lon="10.258063753226134"><ele>121.66666666666666</ele><time>2026-03-30T09:26:13.999Z</time></trkpt><trkpt lat="45.50114123225173" lon="10.258364604833195"><ele>121.33333333333334</ele><time>2026-03-30T09:26:14.999Z</time></trkpt><trkpt lat="45.50112343080586" lon="10.258665789631467"><ele>121.0</ele><time>2026-03-30T09:26:15.999Z</time></trkpt><trkpt lat="45.5011040434797" lon="10.258966058470602"><ele>121.0</ele><time>2026-03-30T09:26:16.999Z</time></trkpt><trkpt lat="45.50108687576247" lon="10.259266512786281"><ele>121.0</ele><time>2026-03-30T09:26:17.999Z</time></trkpt><trkpt lat="45.50106849458298" lon="10.25957206898228"><ele>121.0</ele><time>2026-03-30T09:26:18.999Z</time></trkpt><trkpt lat="45.50105185387344" lon="10.259872906197401"><ele>121.0</ele><time>2026-03-30T09:26:19.999Z</time></trkpt><trkpt lat="45.50103393592534" lon="10.26017864512887"><ele>121.0</ele><time>2026-03-30T09:26:20.999Z</time></trkpt><trkpt lat="45.50101740896257" lon="10.260484841472799"><ele>121.0</ele><time>2026-03-30T09:26:21.999Z</time></trkpt><trkpt lat="45.50100007487388" lon="10.260785965606962"><ele>121.33333333333334</ele><time>2026-03-30T09:26:22.999Z</time></trkpt><trkpt lat="45.500981386695166" lon="10.261090567070836"><ele>121.66666666666666</ele><time>2026-03-30T09:26:23.999Z</time></trkpt><trkpt lat="45.500962354645864" lon="10.261401279629254"><ele>122.0</ele><time>2026-03-30T09:26:24.999Z</time></trkpt><trkpt lat="45.50094452917442" lon="10.261710181699751"><ele>122.33333333333333</ele><time>2026-03-30T09:26:25.999Z</time></trkpt><trkpt lat="45.500926549386584" lon="10.262011010926974"><ele>122.66666666666666</ele><time>2026-03-30T09:26:26.999Z</time></trkpt><trkpt lat="45.50090911670211" lon="10.262314694075366"><ele>123.0</ele><time>2026-03-30T09:26:27.999Z</time></trkpt><trkpt lat="45.500887984728706" lon="10.262622905505046"><ele>123.0</ele><time>2026-03-30T09:26:28.999Z</time></trkpt><trkpt lat="45.50086701541171" lon="10.262925784858483"><ele>123.0</ele><time>2026-03-30T09:26:29.999Z</time></trkpt><trkpt lat="45.50085066226045" lon="10.263237173390337"><ele>123.0</ele><time>2026-03-30T09:26:30.999Z</time></trkpt><trkpt lat="45.50083372064761" lon="10.263536842794581"><ele>123.0</ele><time>2026-03-30T09:26:31.999Z</time></trkpt><trkpt lat="45.50081718970635" lon="10.26384712538423"><ele>123.0</ele><time>2026-03-30T09:26:32.999Z</time></trkpt><trkpt lat="45.5008004169445" lon="10.264152261758769"><ele>123.0</ele><time>2026-03-30T09:26:33.999Z</time></trkpt><trkpt lat="45.50078428515806" lon="10.26445666197209"><ele>123.0</ele><time>2026-03-30T09:26:34.999Z</time></trkpt><trkpt lat="45.500765807886246" lon="10.264766454132916"><ele>123.0</ele><time>2026-03-30T09:26:35.999Z</time></trkpt><trkpt lat="45.500754114494804" lon="10.265064728283283"><ele>123.0</ele><time>2026-03-30T09:26:36.999Z</time></trkpt><trkpt lat="45.500737092255854" lon="10.265373148326775"><ele>122.66666666666666</ele><time>2026-03-30T09:26:37.999Z</time></trkpt><trkpt lat="45.50072028636516" lon="10.265681175490608"><ele>122.33333333333333</ele><time>2026-03-30T09:26:38.999Z</time></trkpt><trkpt lat="45.500708734108095" lon="10.265983294234081"><ele>122.0</ele><time>2026-03-30T09:26:39.999Z</time></trkpt><trkpt lat="45.50070027736486" lon="10.266285986279991"><ele>122.33333333333333</ele><time>2026-03-30T09:26:40.998Z</time></trkpt><trkpt lat="45.500695211505686" lon="10.266591721918072"><ele>122.66666666666666</ele><time>2026-03-30T09:26:41.998Z</time></trkpt><trkpt lat="45.50068935677574" lon="10.266897308193716"><ele>123.0</ele><time>2026-03-30T09:26:42.998Z</time></trkpt><trkpt lat="45.500687730799086" lon="10.267198920065205"><ele>123.0</ele><time>2026-03-30T09:26:43.998Z</time></trkpt><trkpt lat="45.500690830573205" lon="10.267508656555902"><ele>123.0</ele><time>2026-03-30T09:26:44.998Z</time></trkpt><trkpt lat="45.500702675776914" lon="10.267810069733482"><ele>123.0</ele><time>2026-03-30T09:26:45.998Z</time></trkpt><trkpt lat="45.50071164983088" lon="10.26811202211402"><ele>123.33333333333334</ele><time>2026-03-30T09:26:47Z</time></trkpt><trkpt lat="45.50072221352689" lon="10.26841432711264"><ele>123.66666666666667</ele><time>2026-03-30T09:26:48Z</time></trkpt><trkpt lat="45.500735689793615" lon="10.268713414907888"><ele>124.0</ele><time>2026-03-30T09:26:49Z</time></trkpt><trkpt lat="45.500749346609155" lon="10.269015015307673"><ele>124.66666666666667</ele><time>2026-03-30T09:26:50Z</time></trkpt><trkpt lat="45.500762332456084" lon="10.269319140459407"><ele>125.33333333333334</ele><time>2026-03-30T09:26:51Z</time></trkpt><trkpt lat="45.50077746774533" lon="10.269619012607606"><ele>126.0</ele><time>2026-03-30T09:26:52Z</time></trkpt><trkpt lat="45.50078035445394" lon="10.269924294882818"><ele>126.33333333333334</ele><time>2026-03-30T09:26:53Z</time></trkpt><trkpt lat="45.50079416847203" lon="10.270224640933378"><ele>126.66666666666667</ele><time>2026-03-30T09:26:54Z</time></trkpt><trkpt lat="45.500808577913205" lon="10.270528656578417"><ele>127.0</ele><time>2026-03-30T09:26:55Z</time></trkpt><trkpt lat="45.500823619391035" lon="10.270831470193201"><ele>127.0</ele><time>2026-03-30T09:26:56Z</time></trkpt><trkpt lat="45.500844501659664" lon="10.27113660943597"><ele>127.0</ele><time>2026-03-30T09:26:57Z</time></trkpt><trkpt lat="45.50086467482463" lon="10.271443454520888"><ele>127.0</ele><time>2026-03-30T09:26:58Z</time></trkpt><trkpt lat="45.50088078420555" lon="10.271744996431599"><ele>127.66666666666667</ele><time>2026-03-30T09:26:59Z</time></trkpt><trkpt lat="45.50089591146488" lon="10.272046802518583"><ele>128.33333333333334</ele><time>2026-03-30T09:27:00Z</time></trkpt><trkpt lat="45.500908413988206" lon="10.272351214788264"><ele>129.0</ele><time>2026-03-30T09:27:01Z</time></trkpt><trkpt lat="45.50091988441019" lon="10.272657724079055"><ele>129.0</ele><time>2026-03-30T09:27:02Z</time></trkpt><trkpt lat="45.500933895535645" lon="10.272964582341903"><ele>129.0</ele><time>2026-03-30T09:27:03Z</time></trkpt><trkpt lat="45.50094769157566" lon="10.273266523773456"><ele>129.0</ele><time>2026-03-30T09:27:04Z</time></trkpt><trkpt lat="45.50096515503715" lon="10.273571799461285"><ele>129.0</ele><time>2026-03-30T09:27:05Z</time></trkpt><trkpt lat="45.5009804870287" lon="10.27387499114619"><ele>129.0</ele><time>2026-03-30T09:27:06Z</time></trkpt><trkpt lat="45.500996618052774" lon="10.274177988941886"><ele>129.0</ele><time>2026-03-30T09:27:07Z</time></trkpt><trkpt lat="45.50101124687916" lon="10.27448350328035"><ele>128.66666666666666</ele><time>2026-03-30T09:27:08Z</time></trkpt><trkpt lat="45.501025306546346" lon="10.274789247206677"><ele>128.33333333333331</ele><time>2026-03-30T09:27:09Z</time></trkpt><trkpt lat="45.50104045451114" lon="10.275094843305274"><ele>128.0</ele><time>2026-03-30T09:27:10Z</time></trkpt><trkpt lat="45.501053315917815" lon="10.275402429443863"><ele>128.66666666666666</ele><time>2026-03-30T09:27:11Z</time></trkpt><trkpt lat="45.50106736883887" lon="10.275706606531113"><ele>129.33333333333334</ele><time>2026-03-30T09:27:12Z</time></trkpt><trkpt lat="45.5010846540873" lon="10.276009991130435"><ele>130.0</ele><time>2026-03-30T09:27:13Z</time></trkpt><trkpt lat="45.501100778854536" lon="10.276314808887665"><ele>130.0</ele><time>2026-03-30T09:27:14Z</time></trkpt><trkpt lat="45.50111456707615" lon="10.276619404350233"><ele>130.0</ele><time>2026-03-30T09:27:15Z</time></trkpt><trkpt lat="45.50113047716166" lon="10.27692409007187"><ele>130.0</ele><time>2026-03-30T09:27:16Z</time></trkpt><trkpt lat="45.50114577881899" lon="10.277226685709133"><ele>130.0</ele><time>2026-03-30T09:27:17Z</time></trkpt><trkpt lat="45.50115900346664" lon="10.277533671114016"><ele>130.0</ele><time>2026-03-30T09:27:18Z</time></trkpt><trkpt lat="45.50117167199294" lon="10.2778313599827"><ele>130.0</ele><time>2026-03-30T09:27:19Z</time></trkpt><trkpt lat="45.501185675472364" lon="10.278139636188062"><ele>130.0</ele><time>2026-03-30T09:27:20Z</time></trkpt><trkpt lat="45.50119982142041" lon="10.278443446757004"><ele>130.0</ele><time>2026-03-30T09:27:21Z</time></trkpt><trkpt lat="45.50120747380989" lon="10.278749876420754"><ele>130.0</ele><time>2026-03-30T09:27:22Z</time></trkpt><trkpt lat="45.50121289024103" lon="10.279055857550867"><ele>130.0</ele><time>2026-03-30T09:27:23Z</time></trkpt><trkpt lat="45.50120931494208" lon="10.279363925004478"><ele>130.0</ele><time>2026-03-30T09:27:24Z</time></trkpt><trkpt lat="45.50120532148617" lon="10.279670794938609"><ele>130.0</ele><time>2026-03-30T09:27:25Z</time></trkpt><trkpt lat="45.50119685172152" lon="10.27997432595845"><ele>130.0</ele><time>2026-03-30T09:27:26Z</time></trkpt><trkpt lat="45.50118307462886" lon="10.28027894263534"><ele>130.0</ele><time>2026-03-30T09:27:27Z</time></trkpt><trkpt lat="45.501167085302114" lon="10.280579918007986"><ele>130.0</ele><time>2026-03-30T09:27:28Z</time></trkpt><trkpt lat="45.501144821745335" lon="10.280887852506416"><ele>129.66666666666669</ele><time>2026-03-30T09:27:29Z</time></trkpt><trkpt lat="45.50112411881837" lon="10.281194644627872"><ele>129.33333333333334</ele><time>2026-03-30T09:27:30Z</time></trkpt><trkpt lat="45.50111181909101" lon="10.281494400480039"><ele>129.0</ele><time>2026-03-30T09:27:31Z</time></trkpt><trkpt lat="45.50109067880683" lon="10.281803719842703"><ele>129.0</ele><time>2026-03-30T09:27:32Z</time></trkpt><trkpt lat="45.50106733166083" lon="10.282104669007197"><ele>129.0</ele><time>2026-03-30T09:27:33Z</time></trkpt><trkpt lat="45.50103853295864" lon="10.282402686259092"><ele>129.0</ele><time>2026-03-30T09:27:34Z</time></trkpt><trkpt lat="45.50099306051421" lon="10.282705413444274"><ele>129.0</ele><time>2026-03-30T09:27:35Z</time></trkpt><trkpt lat="45.50095589120826" lon="10.283001927649932"><ele>129.0</ele><time>2026-03-30T09:27:36Z</time></trkpt><trkpt lat="45.50091266268498" lon="10.283303495701523"><ele>129.0</ele><time>2026-03-30T09:27:37Z</time></trkpt><trkpt lat="45.500875210368704" lon="10.283604661230806"><ele>129.66666666666666</ele><time>2026-03-30T09:27:38Z</time></trkpt><trkpt lat="45.50083717116695" lon="10.28390405842263"><ele>130.33333333333331</ele><time>2026-03-30T09:27:38.999Z</time></trkpt><trkpt lat="45.50080040582417" lon="10.284205003598546"><ele>131.0</ele><time>2026-03-30T09:27:39.999Z</time></trkpt><trkpt lat="45.5007624962341" lon="10.28450717108014"><ele>131.0</ele><time>2026-03-30T09:27:40.999Z</time></trkpt><trkpt lat="45.50072331539603" lon="10.284811385225058"><ele>131.0</ele><time>2026-03-30T09:27:41.999Z</time></trkpt><trkpt lat="45.50068809872457" lon="10.285108306488516"><ele>131.0</ele><time>2026-03-30T09:27:42.999Z</time></trkpt><trkpt lat="45.50065388663784" lon="10.285405210837148"><ele>131.33333333333331</ele><time>2026-03-30T09:27:43.999Z</time></trkpt><trkpt lat="45.50061484966024" lon="10.285711329694102"><ele>131.66666666666666</ele><time>2026-03-30T09:27:44.999Z</time></trkpt><trkpt lat="45.500583164067095" lon="10.286005755238904"><ele>132.0</ele><time>2026-03-30T09:27:45.999Z</time></trkpt><trkpt lat="45.50054294994658" lon="10.286314259658168"><ele>132.33333333333334</ele><time>2026-03-30T09:27:46.999Z</time></trkpt><trkpt lat="45.500506387979556" lon="10.286617934573155"><ele>132.66666666666669</ele><time>2026-03-30T09:27:47.999Z</time></trkpt><trkpt lat="45.50047146837918" lon="10.286909759669424"><ele>133.0</ele><time>2026-03-30T09:27:48.999Z</time></trkpt><trkpt lat="45.50043523269403" lon="10.287208437902834"><ele>133.0</ele><time>2026-03-30T09:27:49.999Z</time></trkpt><trkpt lat="45.500400147499526" lon="10.287504897801862"><ele>133.0</ele><time>2026-03-30T09:27:50.999Z</time></trkpt><trkpt lat="45.500356952552536" lon="10.28780644913809"><ele>133.0</ele><time>2026-03-30T09:27:51.999Z</time></trkpt><trkpt lat="45.50032136529824" lon="10.288104331816557"><ele>133.0</ele><time>2026-03-30T09:27:52.999Z</time></trkpt><trkpt lat="45.50028393374347" lon="10.28839763073614"><ele>133.0</ele><time>2026-03-30T09:27:53.999Z</time></trkpt><trkpt lat="45.50024947720502" lon="10.288703415124054"><ele>133.0</ele><time>2026-03-30T09:27:54.999Z</time></trkpt><trkpt lat="45.50021390890958" lon="10.289004239555888"><ele>133.33333333333334</ele><time>2026-03-30T09:27:55.999Z</time></trkpt><trkpt lat="45.500171934701235" lon="10.289307504590573"><ele>133.66666666666666</ele><time>2026-03-30T09:27:56.999Z</time></trkpt><trkpt lat="45.50013681681479" lon="10.28960817811803"><ele>134.0</ele><time>2026-03-30T09:27:57.999Z</time></trkpt><trkpt lat="45.500098322296395" lon="10.289909221302377"><ele>134.0</ele><time>2026-03-30T09:27:58.999Z</time></trkpt><trkpt lat="45.50006064454026" lon="10.290209391269673"><ele>134.0</ele><time>2026-03-30T09:27:59.999Z</time></trkpt><trkpt lat="45.50002356984216" lon="10.290507107235337"><ele>134.0</ele><time>2026-03-30T09:28:00.999Z</time></trkpt><trkpt lat="45.49998471524066" lon="10.290807234651975"><ele>134.33333333333331</ele><time>2026-03-30T09:28:01.999Z</time></trkpt><trkpt lat="45.49994964692145" lon="10.29110702713571"><ele>134.66666666666666</ele><time>2026-03-30T09:28:02.999Z</time></trkpt><trkpt lat="45.499904880194755" lon="10.29140464404241"><ele>135.0</ele><time>2026-03-30T09:28:03.999Z</time></trkpt><trkpt lat="45.49986935055451" lon="10.29170615884153"><ele>135.33333333333334</ele><time>2026-03-30T09:28:04.999Z</time></trkpt><trkpt lat="45.499832025847844" lon="10.292006993884572"><ele>135.66666666666669</ele><time>2026-03-30T09:28:05.999Z</time></trkpt><trkpt lat="45.49979295261147" lon="10.292307432475651"><ele>136.0</ele><time>2026-03-30T09:28:06.999Z</time></trkpt><trkpt lat="45.49975527064807" lon="10.292610118399441"><ele>136.0</ele><time>2026-03-30T09:28:07.999Z</time></trkpt><trkpt lat="45.49971429855495" lon="10.292912715909656"><ele>136.0</ele><time>2026-03-30T09:28:08.999Z</time></trkpt><trkpt lat="45.49968043958872" lon="10.293211256217424"><ele>136.0</ele><time>2026-03-30T09:28:09.999Z</time></trkpt><trkpt lat="45.49964089393593" lon="10.293513277057963"><ele>136.0</ele><time>2026-03-30T09:28:10.999Z</time></trkpt><trkpt lat="45.49960213810536" lon="10.293809374786802"><ele>136.0</ele><time>2026-03-30T09:28:11.999Z</time></trkpt><trkpt lat="45.49957147696775" lon="10.294106632291061"><ele>136.0</ele><time>2026-03-30T09:28:12.999Z</time></trkpt><trkpt lat="45.499535177580185" lon="10.294408333014578"><ele>136.0</ele><time>2026-03-30T09:28:13.999Z</time></trkpt><trkpt lat="45.499498009185174" lon="10.294709912435277"><ele>136.0</ele><time>2026-03-30T09:28:14.999Z</time></trkpt><trkpt lat="45.499457306826876" lon="10.295017656283841"><ele>136.0</ele><time>2026-03-30T09:28:15.999Z</time></trkpt><trkpt lat="45.49941735323125" lon="10.295326519543902"><ele>136.0</ele><time>2026-03-30T09:28:16.999Z</time></trkpt><trkpt lat="45.49937805325427" lon="10.29563864374994"><ele>136.0</ele><time>2026-03-30T09:28:17.999Z</time></trkpt><trkpt lat="45.49934263404375" lon="10.295954480434967"><ele>136.0</ele><time>2026-03-30T09:28:18.999Z</time></trkpt><trkpt lat="45.499307788336786" lon="10.29626656697665"><ele>136.0</ele><time>2026-03-30T09:28:19.999Z</time></trkpt><trkpt lat="45.49926947564543" lon="10.296578292384643"><ele>136.0</ele><time>2026-03-30T09:28:20.999Z</time></trkpt><trkpt lat="45.49923025887431" lon="10.29689161640938"><ele>136.0</ele><time>2026-03-30T09:28:21.999Z</time></trkpt><trkpt lat="45.49918982192893" lon="10.297201729966092"><ele>135.66666666666669</ele><time>2026-03-30T09:28:22.999Z</time></trkpt><trkpt lat="45.499155117220795" lon="10.297510941477896"><ele>135.33333333333334</ele><time>2026-03-30T09:28:23.999Z</time></trkpt><trkpt lat="45.49911314382542" lon="10.297823099711056"><ele>135.0</ele><time>2026-03-30T09:28:24.999Z</time></trkpt><trkpt lat="45.49906882518691" lon="10.298131350874002"><ele>135.66666666666666</ele><time>2026-03-30T09:28:25.999Z</time></trkpt><trkpt lat="45.49901513504297" lon="10.298441137299747"><ele>136.33333333333331</ele><time>2026-03-30T09:28:26.999Z</time></trkpt><trkpt lat="45.498962089022285" lon="10.298747556026427"><ele>137.0</ele><time>2026-03-30T09:28:27.999Z</time></trkpt><trkpt lat="45.49892130222363" lon="10.29905529546339"><ele>137.33333333333331</ele><time>2026-03-30T09:28:28.999Z</time></trkpt><trkpt lat="45.498887431179675" lon="10.299362751232158"><ele>137.66666666666666</ele><time>2026-03-30T09:28:29.999Z</time></trkpt><trkpt lat="45.49884856973706" lon="10.299675112460477"><ele>138.0</ele><time>2026-03-30T09:28:30.999Z</time></trkpt><trkpt lat="45.49881465667722" lon="10.299985041496058"><ele>137.0</ele><time>2026-03-30T09:28:31.999Z</time></trkpt><trkpt lat="45.49877320207447" lon="10.300296977729667"><ele>136.0</ele><time>2026-03-30T09:28:32.999Z</time></trkpt><trkpt lat="45.49873481243679" lon="10.300606648079077"><ele>135.0</ele><time>2026-03-30T09:28:33.999Z</time></trkpt><trkpt lat="45.49869440116845" lon="10.300915832867707"><ele>135.0</ele><time>2026-03-30T09:28:34.999Z</time></trkpt><trkpt lat="45.49865339667826" lon="10.301223911233887"><ele>135.0</ele><time>2026-03-30T09:28:35.999Z</time></trkpt><trkpt lat="45.49861679684037" lon="10.301534030796125"><ele>135.0</ele><time>2026-03-30T09:28:36.999Z</time></trkpt><trkpt lat="45.49857835979909" lon="10.301843911036036"><ele>135.0</ele><time>2026-03-30T09:28:37.999Z</time></trkpt><trkpt lat="45.49853814654745" lon="10.302153794619572"><ele>135.0</ele><time>2026-03-30T09:28:38.999Z</time></trkpt><trkpt lat="45.49849936945096" lon="10.302465185195498"><ele>135.0</ele><time>2026-03-30T09:28:39.999Z</time></trkpt><trkpt lat="45.4984579775441" lon="10.302777373249695"><ele>136.0</ele><time>2026-03-30T09:28:40.999Z</time></trkpt><trkpt lat="45.498417555319676" lon="10.303088620404282"><ele>137.0</ele><time>2026-03-30T09:28:41.999Z</time></trkpt><trkpt lat="45.498378293055204" lon="10.30340011635614"><ele>138.0</ele><time>2026-03-30T09:28:42.999Z</time></trkpt><trkpt lat="45.49833759581527" lon="10.303710077747404"><ele>138.0</ele><time>2026-03-30T09:28:43.999Z</time></trkpt><trkpt lat="45.498301913971666" lon="10.304023116078783"><ele>138.0</ele><time>2026-03-30T09:28:44.999Z</time></trkpt><trkpt lat="45.49826437022405" lon="10.30433184776387"><ele>138.0</ele><time>2026-03-30T09:28:45.999Z</time></trkpt><trkpt lat="45.49822889633552" lon="10.30464564605266"><ele>137.0</ele><time>2026-03-30T09:28:46.998Z</time></trkpt><trkpt lat="45.49818829642483" lon="10.304955841902489"><ele>136.0</ele><time>2026-03-30T09:28:47.998Z</time></trkpt><trkpt lat="45.498149641508746" lon="10.305264277980733"><ele>135.0</ele><time>2026-03-30T09:28:48.998Z</time></trkpt><trkpt lat="45.498109182661324" lon="10.305570313959747"><ele>135.66666666666666</ele><time>2026-03-30T09:28:49.998Z</time></trkpt><trkpt lat="45.49807094783938" lon="10.305879706567309"><ele>136.33333333333331</ele><time>2026-03-30T09:28:50.998Z</time></trkpt><trkpt lat="45.4980297422091" lon="10.306189509600255"><ele>137.0</ele><time>2026-03-30T09:28:51.998Z</time></trkpt><trkpt lat="45.497997871187536" lon="10.306499119432813"><ele>137.0</ele><time>2026-03-30T09:28:53Z</time></trkpt><trkpt lat="45.49795669101735" lon="10.306807071690212"><ele>137.0</ele><time>2026-03-30T09:28:54Z</time></trkpt><trkpt lat="45.497918012306236" lon="10.307119058836083"><ele>137.0</ele><time>2026-03-30T09:28:55Z</time></trkpt><trkpt lat="45.49788087284326" lon="10.307424624202698"><ele>137.0</ele><time>2026-03-30T09:28:56Z</time></trkpt><trkpt lat="45.497838134093975" lon="10.307751143554752"><ele>137.0</ele><time>2026-03-30T09:28:57Z</time></trkpt><trkpt lat="45.49780670127284" lon="10.308130839730023"><ele>138.0</ele><time>2026-03-30T09:28:58Z</time></trkpt><trkpt lat="45.49777049076863" lon="10.308534027808372"><ele>139.0</ele><time>2026-03-30T09:28:59Z</time></trkpt><trkpt lat="45.49773115989711" lon="10.308904191100844"><ele>138.5</ele><time>2026-03-30T09:29:00Z</time></trkpt><trkpt lat="45.497690544565735" lon="10.309237068582165"><ele>138.0</ele><time>2026-03-30T09:29:01Z</time></trkpt><trkpt lat="45.49765069606282" lon="10.309562991430594"><ele>137.0</ele><time>2026-03-30T09:29:02Z</time></trkpt><trkpt lat="45.497608622349134" lon="10.309885058529797"><ele>136.0</ele><time>2026-03-30T09:29:03Z</time></trkpt><trkpt lat="45.49756911791962" lon="10.310206320799896"><ele>136.0</ele><time>2026-03-30T09:29:04Z</time></trkpt><trkpt lat="45.49753026298222" lon="10.31052460562415"><ele>136.0</ele><time>2026-03-30T09:29:05Z</time></trkpt><trkpt lat="45.49748819457043" lon="10.310837616091298"><ele>136.66666666666669</ele><time>2026-03-30T09:29:06Z</time></trkpt><trkpt lat="45.49744709269721" lon="10.311147873202993"><ele>137.33333333333334</ele><time>2026-03-30T09:29:07Z</time></trkpt><trkpt lat="45.49740711864762" lon="10.311460370624799"><ele>138.0</ele><time>2026-03-30T09:29:08Z</time></trkpt><trkpt lat="45.49736713603305" lon="10.31177082272606"><ele>138.0</ele><time>2026-03-30T09:29:09Z</time></trkpt><trkpt lat="45.49732852317959" lon="10.312079329828785"><ele>138.0</ele><time>2026-03-30T09:29:10Z</time></trkpt><trkpt lat="45.49729377255844" lon="10.312398077520234"><ele>138.0</ele><time>2026-03-30T09:29:11Z</time></trkpt><trkpt lat="45.4972488957522" lon="10.312701379312214"><ele>138.0</ele><time>2026-03-30T09:29:12Z</time></trkpt><trkpt lat="45.497207784912696" lon="10.313014333525526"><ele>138.0</ele><time>2026-03-30T09:29:13Z</time></trkpt><trkpt lat="45.49716780770331" lon="10.313324035751323"><ele>138.0</ele><time>2026-03-30T09:29:14Z</time></trkpt><trkpt lat="45.49712647364938" lon="10.313621692178723"><ele>138.33333333333334</ele><time>2026-03-30T09:29:15Z</time></trkpt><trkpt lat="45.497091686231755" lon="10.313907221923253"><ele>138.66666666666669</ele><time>2026-03-30T09:29:16Z</time></trkpt><trkpt lat="45.497056037503654" lon="10.314177325237717"><ele>139.0</ele><time>2026-03-30T09:29:17Z</time></trkpt><trkpt lat="45.497022207930435" lon="10.314429972659418"><ele>139.0</ele><time>2026-03-30T09:29:18Z</time></trkpt><trkpt lat="45.4969883611607" lon="10.314666029063288"><ele>139.0</ele><time>2026-03-30T09:29:19Z</time></trkpt><trkpt lat="45.49696079798972" lon="10.314898956207877"><ele>139.0</ele><time>2026-03-30T09:29:20Z</time></trkpt><trkpt lat="45.49693249064011" lon="10.315128508272567"><ele>139.0</ele><time>2026-03-30T09:29:21Z</time></trkpt><trkpt lat="45.49690571570696" lon="10.315356851448797"><ele>139.0</ele><time>2026-03-30T09:29:22Z</time></trkpt><trkpt lat="45.4968735650614" lon="10.315583693464175"><ele>139.0</ele><time>2026-03-30T09:29:23Z</time></trkpt><trkpt lat="45.49683473511316" lon="10.315807113948328"><ele>138.33333333333334</ele><time>2026-03-30T09:29:24Z</time></trkpt><trkpt lat="45.49678540682058" lon="10.316031501318436"><ele>137.66666666666666</ele><time>2026-03-30T09:29:25Z</time></trkpt><trkpt lat="45.49672892189041" lon="10.316249088693217"><ele>137.0</ele><time>2026-03-30T09:29:26Z</time></trkpt><trkpt lat="45.49667000648635" lon="10.316485875926691"><ele>136.66666666666666</ele><time>2026-03-30T09:29:27Z</time></trkpt><trkpt lat="45.49659869136209" lon="10.316695990981655"><ele>136.33333333333334</ele><time>2026-03-30T09:29:28Z</time></trkpt><trkpt lat="45.49652301169148" lon="10.316905192384437"><ele>136.0</ele><time>2026-03-30T09:29:29Z</time></trkpt><trkpt lat="45.496442390622384" lon="10.3171152367209"><ele>136.33333333333334</ele><time>2026-03-30T09:29:30Z</time></trkpt><trkpt lat="45.49635596525441" lon="10.317346883446985"><ele>136.66666666666666</ele><time>2026-03-30T09:29:31Z</time></trkpt><trkpt lat="45.49626254303025" lon="10.317556148229041"><ele>137.0</ele><time>2026-03-30T09:29:32Z</time></trkpt><trkpt lat="45.496161911810255" lon="10.317755359494472"><ele>138.0</ele><time>2026-03-30T09:29:33Z</time></trkpt><trkpt lat="45.49605790668417" lon="10.317947722674605"><ele>139.0</ele><time>2026-03-30T09:29:34Z</time></trkpt><trkpt lat="45.49595039876722" lon="10.318140307576742"><ele>140.0</ele><time>2026-03-30T09:29:35Z</time></trkpt><trkpt lat="45.49583680522051" lon="10.318324585562534"><ele>140.0</ele><time>2026-03-30T09:29:36Z</time></trkpt><trkpt lat="45.495720837182326" lon="10.318505342566638"><ele>140.0</ele><time>2026-03-30T09:29:37Z</time></trkpt><trkpt lat="45.49560006304482" lon="10.318695345545798"><ele>140.0</ele><time>2026-03-30T09:29:38Z</time></trkpt><trkpt lat="45.49547014748477" lon="10.31887385165454"><ele>140.0</ele><time>2026-03-30T09:29:39Z</time></trkpt><trkpt lat="45.49533939858997" lon="10.319052510170762"><ele>140.0</ele><time>2026-03-30T09:29:40Z</time></trkpt><trkpt lat="45.49520746186169" lon="10.319228318039325"><ele>140.0</ele><time>2026-03-30T09:29:41Z</time></trkpt><trkpt lat="45.49507767401736" lon="10.31941083676439"><ele>140.0</ele><time>2026-03-30T09:29:42Z</time></trkpt><trkpt lat="45.494948303572734" lon="10.319590466982582"><ele>140.0</ele><time>2026-03-30T09:29:43Z</time></trkpt><trkpt lat="45.494830579098014" lon="10.319780432842661"><ele>140.0</ele><time>2026-03-30T09:29:44Z</time></trkpt><trkpt lat="45.494692006727796" lon="10.319956678133684"><ele>140.0</ele><time>2026-03-30T09:29:45Z</time></trkpt><trkpt lat="45.49455790597465" lon="10.320126742733253"><ele>140.0</ele><time>2026-03-30T09:29:45.999Z</time></trkpt><trkpt lat="45.49442305859325" lon="10.320303359721018"><ele>140.0</ele><time>2026-03-30T09:29:46.999Z</time></trkpt><trkpt lat="45.49429098078588" lon="10.320491032389926"><ele>140.33333333333331</ele><time>2026-03-30T09:29:47.999Z</time></trkpt><trkpt lat="45.49414443054506" lon="10.320694335505006"><ele>140.66666666666666</ele><time>2026-03-30T09:29:48.999Z</time></trkpt><trkpt lat="45.49399344460799" lon="10.320904413082841"><ele>141.0</ele><time>2026-03-30T09:29:49.999Z</time></trkpt><trkpt lat="45.49384101837089" lon="10.321116660351475"><ele>140.33333333333334</ele><time>2026-03-30T09:29:50.999Z</time></trkpt><trkpt lat="45.493690580822765" lon="10.321329287986588"><ele>139.66666666666669</ele><time>2026-03-30T09:29:51.999Z</time></trkpt><trkpt lat="45.49353848368198" lon="10.321546333137569"><ele>139.0</ele><time>2026-03-30T09:29:52.999Z</time></trkpt><trkpt lat="45.49338418690324" lon="10.321762792409874"><ele>139.0</ele><time>2026-03-30T09:29:53.999Z</time></trkpt><trkpt lat="45.493229370451886" lon="10.321979377844686"><ele>139.0</ele><time>2026-03-30T09:29:54.999Z</time></trkpt><trkpt lat="45.49307692522644" lon="10.32219286933974"><ele>139.0</ele><time>2026-03-30T09:29:55.999Z</time></trkpt><trkpt lat="45.49292817722957" lon="10.32241002589403"><ele>139.0</ele><time>2026-03-30T09:29:56.999Z</time></trkpt><trkpt lat="45.49276536383209" lon="10.322612363240179"><ele>139.0</ele><time>2026-03-30T09:29:57.999Z</time></trkpt><trkpt lat="45.49262097528141" lon="10.322839735660764"><ele>139.0</ele><time>2026-03-30T09:29:58.999Z</time></trkpt><trkpt lat="45.492462063553035" lon="10.323060206834418"><ele>139.0</ele><time>2026-03-30T09:29:59.999Z</time></trkpt><trkpt lat="45.49230600808705" lon="10.323276286768868"><ele>139.0</ele><time>2026-03-30T09:30:00.999Z</time></trkpt><trkpt lat="45.49215039645937" lon="10.323489191532525"><ele>139.0</ele><time>2026-03-30T09:30:01.999Z</time></trkpt><trkpt lat="45.49199265557216" lon="10.323705829489"><ele>138.66666666666669</ele><time>2026-03-30T09:30:02.999Z</time></trkpt><trkpt lat="45.49184026848848" lon="10.32392054766146"><ele>138.33333333333334</ele><time>2026-03-30T09:30:03.999Z</time></trkpt><trkpt lat="45.49168471847007" lon="10.32413806581105"><ele>138.0</ele><time>2026-03-30T09:30:04.999Z</time></trkpt><trkpt lat="45.49153043670862" lon="10.324352979201798"><ele>138.0</ele><time>2026-03-30T09:30:05.999Z</time></trkpt><trkpt lat="45.491374995658724" lon="10.324568921631519"><ele>138.0</ele><time>2026-03-30T09:30:06.999Z</time></trkpt><trkpt lat="45.49121805441986" lon="10.324781986126746"><ele>138.0</ele><time>2026-03-30T09:30:07.999Z</time></trkpt><trkpt lat="45.49106061615382" lon="10.324997454569406"><ele>138.0</ele><time>2026-03-30T09:30:08.999Z</time></trkpt><trkpt lat="45.490904928875594" lon="10.32521761339144"><ele>138.0</ele><time>2026-03-30T09:30:09.999Z</time></trkpt><trkpt lat="45.49075110555464" lon="10.325432260131732"><ele>138.0</ele><time>2026-03-30T09:30:10.999Z</time></trkpt><trkpt lat="45.4905966790174" lon="10.325646129627941"><ele>138.0</ele><time>2026-03-30T09:30:11.999Z</time></trkpt><trkpt lat="45.49044078886367" lon="10.325865039740114"><ele>138.0</ele><time>2026-03-30T09:30:12.999Z</time></trkpt><trkpt lat="45.49028530961468" lon="10.326079897852647"><ele>138.0</ele><time>2026-03-30T09:30:13.999Z</time></trkpt><trkpt lat="45.49012567513871" lon="10.326300660963417"><ele>138.33333333333334</ele><time>2026-03-30T09:30:14.999Z</time></trkpt><trkpt lat="45.489966491199084" lon="10.326521382829172"><ele>138.66666666666669</ele><time>2026-03-30T09:30:15.999Z</time></trkpt><trkpt lat="45.48980647394944" lon="10.326744557378667"><ele>139.0</ele><time>2026-03-30T09:30:16.999Z</time></trkpt><trkpt lat="45.48965050228753" lon="10.326965349043844"><ele>139.0</ele><time>2026-03-30T09:30:17.999Z</time></trkpt><trkpt lat="45.489493367806716" lon="10.327189289286526"><ele>139.0</ele><time>2026-03-30T09:30:18.999Z</time></trkpt><trkpt lat="45.4893343588194" lon="10.327410775533687"><ele>139.0</ele><time>2026-03-30T09:30:19.999Z</time></trkpt><trkpt lat="45.48917510418309" lon="10.327631904077784"><ele>138.66666666666669</ele><time>2026-03-30T09:30:20.999Z</time></trkpt><trkpt lat="45.48901646970823" lon="10.327853406764369"><ele>138.33333333333334</ele><time>2026-03-30T09:30:21.999Z</time></trkpt><trkpt lat="45.48885641382036" lon="10.328076083239473"><ele>138.0</ele><time>2026-03-30T09:30:22.999Z</time></trkpt><trkpt lat="45.48869982946962" lon="10.328293335871532"><ele>138.66666666666666</ele><time>2026-03-30T09:30:23.999Z</time></trkpt><trkpt lat="45.48855707015602" lon="10.328489685822161"><ele>139.33333333333331</ele><time>2026-03-30T09:30:24.999Z</time></trkpt><trkpt lat="45.48841755878734" lon="10.328684461629704"><ele>140.0</ele><time>2026-03-30T09:30:25.999Z</time></trkpt><trkpt lat="45.48828411130926" lon="10.328873086887743"><ele>139.33333333333331</ele><time>2026-03-30T09:30:26.999Z</time></trkpt><trkpt lat="45.488159305590074" lon="10.329052215117478"><ele>138.66666666666666</ele><time>2026-03-30T09:30:27.999Z</time></trkpt><trkpt lat="45.488034816643" lon="10.329229629784201"><ele>138.0</ele><time>2026-03-30T09:30:28.999Z</time></trkpt><trkpt lat="45.48791030888438" lon="10.329401676318401"><ele>138.0</ele><time>2026-03-30T09:30:29.999Z</time></trkpt><trkpt lat="45.487791751799605" lon="10.32956965468155"><ele>138.0</ele><time>2026-03-30T09:30:30.999Z</time></trkpt><trkpt lat="45.48767371553362" lon="10.329736758332153"><ele>138.0</ele><time>2026-03-30T09:30:31.999Z</time></trkpt><trkpt lat="45.4875570818584" lon="10.32989868557731"><ele>137.66666666666666</ele><time>2026-03-30T09:30:32.999Z</time></trkpt><trkpt lat="45.487434961181215" lon="10.330065259398344"><ele>137.33333333333331</ele><time>2026-03-30T09:30:33.999Z</time></trkpt><trkpt lat="45.48730372461397" lon="10.330218682954595"><ele>137.0</ele><time>2026-03-30T09:30:34.999Z</time></trkpt><trkpt lat="45.487194910543664" lon="10.330400101133568"><ele>137.0</ele><time>2026-03-30T09:30:35.999Z</time></trkpt><trkpt lat="45.48707438217051" lon="10.330569443992404"><ele>137.0</ele><time>2026-03-30T09:30:36.999Z</time></trkpt><trkpt lat="45.48695391266861" lon="10.330737173434974"><ele>137.0</ele><time>2026-03-30T09:30:37.999Z</time></trkpt><trkpt lat="45.486824599288546" lon="10.330884988569647"><ele>137.0</ele><time>2026-03-30T09:30:38.999Z</time></trkpt><trkpt lat="45.48671602848945" lon="10.3310623881212"><ele>137.0</ele><time>2026-03-30T09:30:39.999Z</time></trkpt><trkpt lat="45.4865990958492" lon="10.331228690406824"><ele>137.0</ele><time>2026-03-30T09:30:40.999Z</time></trkpt><trkpt lat="45.486478547174116" lon="10.331395473841967"><ele>137.0</ele><time>2026-03-30T09:30:41.999Z</time></trkpt><trkpt lat="45.4863438849096" lon="10.331553504039134"><ele>137.0</ele><time>2026-03-30T09:30:42.999Z</time></trkpt><trkpt lat="45.4862246888488" lon="10.3317192665251"><ele>137.0</ele><time>2026-03-30T09:30:43.999Z</time></trkpt><trkpt lat="45.48610641363186" lon="10.331883748418843"><ele>137.0</ele><time>2026-03-30T09:30:44.999Z</time></trkpt><trkpt lat="45.48598331120016" lon="10.332054943379399"><ele>137.0</ele><time>2026-03-30T09:30:45.999Z</time></trkpt><trkpt lat="45.485863741773656" lon="10.332221225092574"><ele>137.0</ele><time>2026-03-30T09:30:46.999Z</time></trkpt><trkpt lat="45.48575577157097" lon="10.332402357465748"><ele>137.0</ele><time>2026-03-30T09:30:47.999Z</time></trkpt><trkpt lat="45.48562927032133" lon="10.33254729770537"><ele>137.0</ele><time>2026-03-30T09:30:48.999Z</time></trkpt><trkpt lat="45.48551219492872" lon="10.332710111037988"><ele>137.0</ele><time>2026-03-30T09:30:49.999Z</time></trkpt><trkpt lat="45.48541324884947" lon="10.332878074619101"><ele>137.0</ele><time>2026-03-30T09:30:50.999Z</time></trkpt><trkpt lat="45.485291598084814" lon="10.333017836206741"><ele>137.0</ele><time>2026-03-30T09:30:51.998Z</time></trkpt><trkpt lat="45.48518223740146" lon="10.333170651403314"><ele>137.0</ele><time>2026-03-30T09:30:52.998Z</time></trkpt><trkpt lat="45.48507248868486" lon="10.333324008821707"><ele>136.66666666666666</ele><time>2026-03-30T09:30:53.998Z</time></trkpt><trkpt lat="45.48496713475841" lon="10.333471225158586"><ele>136.33333333333334</ele><time>2026-03-30T09:30:54.998Z</time></trkpt><trkpt lat="45.484856002411874" lon="10.333626516001033"><ele>136.0</ele><time>2026-03-30T09:30:55.998Z</time></trkpt><trkpt lat="45.484748789586696" lon="10.333776329881847"><ele>137.0</ele><time>2026-03-30T09:30:56.998Z</time></trkpt><trkpt lat="45.48463573750685" lon="10.333934303243897"><ele>138.0</ele><time>2026-03-30T09:30:57.998Z</time></trkpt><trkpt lat="45.484527377467245" lon="10.33408572018628"><ele>139.0</ele><time>2026-03-30T09:30:59Z</time></trkpt><trkpt lat="45.48441288846513" lon="10.334245701452767"><ele>139.33333333333334</ele><time>2026-03-30T09:31:00Z</time></trkpt><trkpt lat="45.48430128984232" lon="10.334401530551018"><ele>139.66666666666666</ele><time>2026-03-30T09:31:01Z</time></trkpt><trkpt lat="45.484185038320405" lon="10.334563385555473"><ele>140.0</ele><time>2026-03-30T09:31:02Z</time></trkpt><trkpt lat="45.484073336860845" lon="10.334718905618274"><ele>139.66666666666666</ele><time>2026-03-30T09:31:03Z</time></trkpt><trkpt lat="45.483955010156805" lon="10.334883649858808"><ele>139.33333333333334</ele><time>2026-03-30T09:31:04Z</time></trkpt><trkpt lat="45.483830604274786" lon="10.33505667262363"><ele>139.0</ele><time>2026-03-30T09:31:05Z</time></trkpt><trkpt lat="45.483732757417116" lon="10.335219650862284"><ele>139.0</ele><time>2026-03-30T09:31:06Z</time></trkpt><trkpt lat="45.483603937661876" lon="10.335371527689675"><ele>139.0</ele><time>2026-03-30T09:31:07Z</time></trkpt><trkpt lat="45.483483726481445" lon="10.335538509048222"><ele>139.0</ele><time>2026-03-30T09:31:08Z</time></trkpt><trkpt lat="45.48337107804822" lon="10.33569506751816"><ele>138.33333333333334</ele><time>2026-03-30T09:31:09Z</time></trkpt><trkpt lat="45.48325133955856" lon="10.335861593781019"><ele>137.66666666666666</ele><time>2026-03-30T09:31:10Z</time></trkpt><trkpt lat="45.483137964109666" lon="10.336019688293531"><ele>137.0</ele><time>2026-03-30T09:31:11Z</time></trkpt><trkpt lat="45.4830263421397" lon="10.336200766079548"><ele>137.0</ele><time>2026-03-30T09:31:12Z</time></trkpt><trkpt lat="45.482898084095666" lon="10.336354101444513"><ele>137.0</ele><time>2026-03-30T09:31:13Z</time></trkpt><trkpt lat="45.48278570199772" lon="10.336540000507629"><ele>137.0</ele><time>2026-03-30T09:31:14Z</time></trkpt><trkpt lat="45.482648708838774" lon="10.33670109631338"><ele>137.33333333333331</ele><time>2026-03-30T09:31:15Z</time></trkpt><trkpt lat="45.48252678797356" lon="10.336901019635034"><ele>137.66666666666666</ele><time>2026-03-30T09:31:16Z</time></trkpt><trkpt lat="45.4823982268091" lon="10.337070872636357"><ele>138.0</ele><time>2026-03-30T09:31:17Z</time></trkpt><trkpt lat="45.48227179685856" lon="10.337244740203715"><ele>138.0</ele><time>2026-03-30T09:31:18Z</time></trkpt><trkpt lat="45.48214832664243" lon="10.337414615953787"><ele>138.0</ele><time>2026-03-30T09:31:19Z</time></trkpt><trkpt lat="45.482036204568914" lon="10.337565642735779"><ele>138.0</ele><time>2026-03-30T09:31:20Z</time></trkpt><trkpt lat="45.48192828117234" lon="10.337714353922674"><ele>138.25</ele><time>2026-03-30T09:31:21Z</time></trkpt><trkpt lat="45.48183286166824" lon="10.3378610063129"><ele>138.5</ele><time>2026-03-30T09:31:22Z</time></trkpt><trkpt lat="45.48173691351892" lon="10.338000593775103"><ele>138.75</ele><time>2026-03-30T09:31:23Z</time></trkpt><trkpt lat="45.481636851798086" lon="10.338162881650886"><ele>139.0</ele><time>2026-03-30T09:31:24Z</time></trkpt><trkpt lat="45.48154514427847" lon="10.33832422085005"><ele>139.0</ele><time>2026-03-30T09:31:25Z</time></trkpt><trkpt lat="45.481452835189025" lon="10.3384850649588"><ele>139.0</ele><time>2026-03-30T09:31:26Z</time></trkpt><trkpt lat="45.48135408514036" lon="10.338664669296573"><ele>139.0</ele><time>2026-03-30T09:31:27Z</time></trkpt><trkpt lat="45.48125497842396" lon="10.338857965104815"><ele>139.0</ele><time>2026-03-30T09:31:28Z</time></trkpt><trkpt lat="45.48114812184785" lon="10.33906231471296"><ele>139.0</ele><time>2026-03-30T09:31:29Z</time></trkpt><trkpt lat="45.48103284177725" lon="10.339315222059552"><ele>139.0</ele><time>2026-03-30T09:31:30Z</time></trkpt><trkpt lat="45.48092996510059" lon="10.339563324316918"><ele>139.33333333333334</ele><time>2026-03-30T09:31:31Z</time></trkpt><trkpt lat="45.48082859710602" lon="10.339795626347533"><ele>139.66666666666666</ele><time>2026-03-30T09:31:32Z</time></trkpt><trkpt lat="45.48072759372117" lon="10.340043762750755"><ele>140.0</ele><time>2026-03-30T09:31:33Z</time></trkpt><trkpt lat="45.48062814399317" lon="10.340353896540448"><ele>140.0</ele><time>2026-03-30T09:31:34Z</time></trkpt><trkpt lat="45.48049385835877" lon="10.34071305862615"><ele>140.0</ele><time>2026-03-30T09:31:35Z</time></trkpt><trkpt lat="45.480367209644925" lon="10.34112544337579"><ele>139.0</ele><time>2026-03-30T09:31:36Z</time></trkpt><trkpt lat="45.480243863681785" lon="10.341563186820638"><ele>138.0</ele><time>2026-03-30T09:31:37Z</time></trkpt><trkpt lat="45.480103707557106" lon="10.341993686744544"><ele>139.5</ele><time>2026-03-30T09:31:38Z</time></trkpt><trkpt lat="45.479972558600224" lon="10.342450247522375"><ele>141.0</ele><time>2026-03-30T09:31:39Z</time></trkpt><trkpt lat="45.479833974235795" lon="10.342906774305634"><ele>141.0</ele><time>2026-03-30T09:31:40Z</time></trkpt><trkpt lat="45.47969491119225" lon="10.343384495200311"><ele>141.0</ele><time>2026-03-30T09:31:41Z</time></trkpt><trkpt lat="45.47955796834084" lon="10.343833886759125"><ele>140.0</ele><time>2026-03-30T09:31:42Z</time></trkpt><trkpt lat="45.47943647734179" lon="10.344240203083361"><ele>139.0</ele><time>2026-03-30T09:31:43Z</time></trkpt><trkpt lat="45.47932268471097" lon="10.344613712403737"><ele>139.0</ele><time>2026-03-30T09:31:44Z</time></trkpt><trkpt lat="45.47921620041002" lon="10.344972768035873"><ele>139.0</ele><time>2026-03-30T09:31:45Z</time></trkpt><trkpt lat="45.47912153478661" lon="10.345321860233112"><ele>138.0</ele><time>2026-03-30T09:31:46Z</time></trkpt><trkpt lat="45.479039551181906" lon="10.345671713538048"><ele>137.0</ele><time>2026-03-30T09:31:47Z</time></trkpt><trkpt lat="45.47898111957359" lon="10.345995482135718"><ele>137.0</ele><time>2026-03-30T09:31:48Z</time></trkpt><trkpt lat="45.47893486157936" lon="10.346309500030069"><ele>137.0</ele><time>2026-03-30T09:31:49Z</time></trkpt><trkpt lat="45.478897809046366" lon="10.346602564632137"><ele>137.0</ele><time>2026-03-30T09:31:49.999Z</time></trkpt><trkpt lat="45.4788698222269" lon="10.346888553713343"><ele>137.0</ele><time>2026-03-30T09:31:50.999Z</time></trkpt><trkpt lat="45.47884859889771" lon="10.347162785860673"><ele>137.0</ele><time>2026-03-30T09:31:51.999Z</time></trkpt><trkpt lat="45.47883402462082" lon="10.34743810134734"><ele>137.0</ele><time>2026-03-30T09:31:52.999Z</time></trkpt><trkpt lat="45.478822572458796" lon="10.347697757750963"><ele>137.33333333333331</ele><time>2026-03-30T09:31:53.999Z</time></trkpt><trkpt lat="45.47881988629494" lon="10.347960406625583"><ele>137.66666666666666</ele><time>2026-03-30T09:31:54.999Z</time></trkpt><trkpt lat="45.4788243634475" lon="10.348210091515186"><ele>138.0</ele><time>2026-03-30T09:31:55.999Z</time></trkpt><trkpt lat="45.47883392536515" lon="10.348476485763113"><ele>138.66666666666666</ele><time>2026-03-30T09:31:56.999Z</time></trkpt><trkpt lat="45.47884101428678" lon="10.348723390242807"><ele>139.33333333333331</ele><time>2026-03-30T09:31:57.999Z</time></trkpt><trkpt lat="45.47884753335636" lon="10.34898109712125"><ele>140.0</ele><time>2026-03-30T09:31:58.999Z</time></trkpt><trkpt lat="45.478854250265364" lon="10.349231551702605"><ele>140.0</ele><time>2026-03-30T09:31:59.999Z</time></trkpt><trkpt lat="45.478861435855585" lon="10.349481110317178"><ele>140.0</ele><time>2026-03-30T09:32:00.999Z</time></trkpt><trkpt lat="45.47886610298934" lon="10.349731795099503"><ele>140.0</ele><time>2026-03-30T09:32:01.999Z</time></trkpt><trkpt lat="45.47887483087884" lon="10.34998853583008"><ele>140.0</ele><time>2026-03-30T09:32:02.999Z</time></trkpt><trkpt lat="45.47888326983356" lon="10.350240640573475"><ele>140.0</ele><time>2026-03-30T09:32:03.999Z</time></trkpt><trkpt lat="45.47888611690162" lon="10.350479735517924"><ele>140.0</ele><time>2026-03-30T09:32:04.999Z</time></trkpt><trkpt lat="45.47888749350171" lon="10.350703861619511"><ele>140.33333333333331</ele><time>2026-03-30T09:32:05.999Z</time></trkpt><trkpt lat="45.47889137907236" lon="10.350925861659045"><ele>140.66666666666666</ele><time>2026-03-30T09:32:06.999Z</time></trkpt><trkpt lat="45.47889532334153" lon="10.351147256231908"><ele>141.0</ele><time>2026-03-30T09:32:07.999Z</time></trkpt><trkpt lat="45.47890277685411" lon="10.351373863467746"><ele>140.33333333333334</ele><time>2026-03-30T09:32:08.999Z</time></trkpt><trkpt lat="45.47890926405753" lon="10.351609885067484"><ele>139.66666666666669</ele><time>2026-03-30T09:32:09.999Z</time></trkpt><trkpt lat="45.478913028180045" lon="10.35181868034313"><ele>139.0</ele><time>2026-03-30T09:32:10.999Z</time></trkpt><trkpt lat="45.47892016332151" lon="10.352056120191795"><ele>138.66666666666669</ele><time>2026-03-30T09:32:11.999Z</time></trkpt><trkpt lat="45.47892718768557" lon="10.352274242919881"><ele>138.33333333333334</ele><time>2026-03-30T09:32:12.999Z</time></trkpt><trkpt lat="45.478930814185496" lon="10.352507456789244"><ele>138.0</ele><time>2026-03-30T09:32:13.999Z</time></trkpt><trkpt lat="45.478934897728436" lon="10.352737926589201"><ele>138.0</ele><time>2026-03-30T09:32:14.999Z</time></trkpt><trkpt lat="45.47894107029436" lon="10.352971479168009"><ele>138.0</ele><time>2026-03-30T09:32:15.999Z</time></trkpt><trkpt lat="45.47894694156043" lon="10.353193120829182"><ele>138.0</ele><time>2026-03-30T09:32:16.999Z</time></trkpt><trkpt lat="45.478951161016155" lon="10.353427733828529"><ele>138.33333333333334</ele><time>2026-03-30T09:32:17.999Z</time></trkpt><trkpt lat="45.47895673469294" lon="10.353654362880617"><ele>138.66666666666669</ele><time>2026-03-30T09:32:18.999Z</time></trkpt><trkpt lat="45.47896480369014" lon="10.353882775151563"><ele>139.0</ele><time>2026-03-30T09:32:19.999Z</time></trkpt><trkpt lat="45.47897329961611" lon="10.354106386605283"><ele>139.66666666666669</ele><time>2026-03-30T09:32:20.999Z</time></trkpt><trkpt lat="45.47897727121896" lon="10.354334550747657"><ele>140.33333333333334</ele><time>2026-03-30T09:32:21.999Z</time></trkpt><trkpt lat="45.478983190465385" lon="10.354562112085256"><ele>141.0</ele><time>2026-03-30T09:32:22.999Z</time></trkpt><trkpt lat="45.478987340996845" lon="10.354793913140865"><ele>141.33333333333334</ele><time>2026-03-30T09:32:23.999Z</time></trkpt><trkpt lat="45.47899243046829" lon="10.355030674541087"><ele>141.66666666666669</ele><time>2026-03-30T09:32:24.999Z</time></trkpt><trkpt lat="45.47899647457634" lon="10.355268651953084"><ele>142.0</ele><time>2026-03-30T09:32:25.999Z</time></trkpt><trkpt lat="45.47900530309961" lon="10.355500981292245"><ele>141.33333333333334</ele><time>2026-03-30T09:32:26.999Z</time></trkpt><trkpt lat="45.4790120561011" lon="10.35572989734422"><ele>140.66666666666666</ele><time>2026-03-30T09:32:27.999Z</time></trkpt><trkpt lat="45.479017278956775" lon="10.355961869534271"><ele>140.0</ele><time>2026-03-30T09:32:28.999Z</time></trkpt><trkpt lat="45.479023247561365" lon="10.356191766112133"><ele>140.0</ele><time>2026-03-30T09:32:29.999Z</time></trkpt><trkpt lat="45.479028927697016" lon="10.35643063835445"><ele>140.0</ele><time>2026-03-30T09:32:30.999Z</time></trkpt><trkpt lat="45.47903626201956" lon="10.356671378962362"><ele>140.0</ele><time>2026-03-30T09:32:31.999Z</time></trkpt><trkpt lat="45.479045167855645" lon="10.356919670732696"><ele>140.0</ele><time>2026-03-30T09:32:32.999Z</time></trkpt><trkpt lat="45.47905062236084" lon="10.357181188078124"><ele>140.0</ele><time>2026-03-30T09:32:33.999Z</time></trkpt><trkpt lat="45.47905576124037" lon="10.357447138313992"><ele>140.0</ele><time>2026-03-30T09:32:34.999Z</time></trkpt><trkpt lat="45.47908175907895" lon="10.35771160579754"><ele>140.0</ele><time>2026-03-30T09:32:35.999Z</time></trkpt><trkpt lat="45.479108994214805" lon="10.357968354694972"><ele>140.0</ele><time>2026-03-30T09:32:36.999Z</time></trkpt><trkpt lat="45.4791416078204" lon="10.358217810443268"><ele>140.0</ele><time>2026-03-30T09:32:37.999Z</time></trkpt><trkpt lat="45.479171220193024" lon="10.35844781933756"><ele>139.66666666666666</ele><time>2026-03-30T09:32:38.999Z</time></trkpt><trkpt lat="45.479175297851214" lon="10.358657632778646"><ele>139.33333333333334</ele><time>2026-03-30T09:32:39.999Z</time></trkpt><trkpt lat="45.479193410546124" lon="10.3588831793333"><ele>139.0</ele><time>2026-03-30T09:32:40.999Z</time></trkpt><trkpt lat="45.47922517081907" lon="10.35912046651128"><ele>139.0</ele><time>2026-03-30T09:32:41.999Z</time></trkpt><trkpt lat="45.47925987697101" lon="10.359353072501037"><ele>139.0</ele><time>2026-03-30T09:32:42.999Z</time></trkpt><trkpt lat="45.479295564007174" lon="10.359581258771968"><ele>139.0</ele><time>2026-03-30T09:32:43.999Z</time></trkpt><trkpt lat="45.47933472310211" lon="10.359803071796414"><ele>139.5</ele><time>2026-03-30T09:32:44.999Z</time></trkpt><trkpt lat="45.47937266315123" lon="10.36000792272959"><ele>140.0</ele><time>2026-03-30T09:32:45.999Z</time></trkpt><trkpt lat="45.479410616809425" lon="10.360196802251469"><ele>140.5</ele><time>2026-03-30T09:32:46.999Z</time></trkpt><trkpt lat="45.47944733017799" lon="10.360376692664042"><ele>141.0</ele><time>2026-03-30T09:32:47.999Z</time></trkpt><trkpt lat="45.47948905829566" lon="10.360549980480082"><ele>141.0</ele><time>2026-03-30T09:32:48.999Z</time></trkpt><trkpt lat="45.47952853555096" lon="10.360719496241591"><ele>141.0</ele><time>2026-03-30T09:32:49.999Z</time></trkpt><trkpt lat="45.47957159228151" lon="10.360892604138852"><ele>141.0</ele><time>2026-03-30T09:32:50.999Z</time></trkpt><trkpt lat="45.47961974712574" lon="10.361069796391677"><ele>141.0</ele><time>2026-03-30T09:32:51.999Z</time></trkpt><trkpt lat="45.47967121624766" lon="10.36125235102272"><ele>141.0</ele><time>2026-03-30T09:32:52.999Z</time></trkpt><trkpt lat="45.47972224271632" lon="10.361437608477607"><ele>141.0</ele><time>2026-03-30T09:32:53.999Z</time></trkpt><trkpt lat="45.47977426248166" lon="10.361620703071804"><ele>141.0</ele><time>2026-03-30T09:32:54.999Z</time></trkpt><trkpt lat="45.47982670077645" lon="10.361811764910017"><ele>141.0</ele><time>2026-03-30T09:32:55.998Z</time></trkpt><trkpt lat="45.47987131107078" lon="10.362001893995913"><ele>141.0</ele><time>2026-03-30T09:32:56.998Z</time></trkpt><trkpt lat="45.47990491780347" lon="10.362192227281726"><ele>141.0</ele><time>2026-03-30T09:32:57.998Z</time></trkpt><trkpt lat="45.4799347497551" lon="10.36239016434757"><ele>141.0</ele><time>2026-03-30T09:32:58.998Z</time></trkpt><trkpt lat="45.47997311404549" lon="10.362591437695475"><ele>141.0</ele><time>2026-03-30T09:32:59.998Z</time></trkpt><trkpt lat="45.48002006221819" lon="10.362800036808677"><ele>141.0</ele><time>2026-03-30T09:33:00.998Z</time></trkpt><trkpt lat="45.48007649037214" lon="10.363011998359989"><ele>141.0</ele><time>2026-03-30T09:33:01.998Z</time></trkpt><trkpt lat="45.48013104403441" lon="10.363201096695807"><ele>141.0</ele><time>2026-03-30T09:33:02.998Z</time></trkpt><trkpt lat="45.4801868186404" lon="10.363378677425372"><ele>141.0</ele><time>2026-03-30T09:33:03.998Z</time></trkpt><trkpt lat="45.48023663221354" lon="10.363542745448427"><ele>141.25</ele><time>2026-03-30T09:33:05Z</time></trkpt><trkpt lat="45.480285501475045" lon="10.363696861729208"><ele>141.5</ele><time>2026-03-30T09:33:06Z</time></trkpt><trkpt lat="45.48033731787911" lon="10.363842554448253"><ele>141.75</ele><time>2026-03-30T09:33:07Z</time></trkpt><trkpt lat="45.48044151830197" lon="10.363959848551643"><ele>142.0</ele><time>2026-03-30T09:33:08Z</time></trkpt><trkpt lat="45.480495087566545" lon="10.364122169752084"><ele>141.5</ele><time>2026-03-30T09:33:09Z</time></trkpt><trkpt lat="45.48055401657178" lon="10.36430238637601"><ele>141.0</ele><time>2026-03-30T09:33:10Z</time></trkpt><trkpt lat="45.48061842365917" lon="10.364496993326057"><ele>140.5</ele><time>2026-03-30T09:33:11Z</time></trkpt><trkpt lat="45.48068893131785" lon="10.36469137230847"><ele>140.0</ele><time>2026-03-30T09:33:12Z</time></trkpt><trkpt lat="45.48078184658126" lon="10.364873651695525"><ele>139.66666666666666</ele><time>2026-03-30T09:33:13Z</time></trkpt><trkpt lat="45.48087487908384" lon="10.36507638897414"><ele>139.33333333333334</ele><time>2026-03-30T09:33:14Z</time></trkpt><trkpt lat="45.48096558129369" lon="10.365286919549217"><ele>139.0</ele><time>2026-03-30T09:33:15Z</time></trkpt><trkpt lat="45.48104704872818" lon="10.365511596191261"><ele>139.33333333333334</ele><time>2026-03-30T09:33:16Z</time></trkpt><trkpt lat="45.48111937836118" lon="10.365729731473213"><ele>139.66666666666666</ele><time>2026-03-30T09:33:17Z</time></trkpt><trkpt lat="45.481186685444314" lon="10.36593421910483"><ele>140.0</ele><time>2026-03-30T09:33:18Z</time></trkpt><trkpt lat="45.48125577251481" lon="10.366139802626735"><ele>140.66666666666666</ele><time>2026-03-30T09:33:19Z</time></trkpt><trkpt lat="45.481325914842216" lon="10.366345329246698"><ele>141.33333333333334</ele><time>2026-03-30T09:33:20Z</time></trkpt><trkpt lat="45.48139571315547" lon="10.366554376616273"><ele>142.0</ele><time>2026-03-30T09:33:21Z</time></trkpt><trkpt lat="45.48146391983246" lon="10.366763145912076"><ele>142.0</ele><time>2026-03-30T09:33:22Z</time></trkpt><trkpt lat="45.48153023013033" lon="10.36696619335404"><ele>142.0</ele><time>2026-03-30T09:33:23Z</time></trkpt><trkpt lat="45.4815911096853" lon="10.367154833227449"><ele>142.0</ele><time>2026-03-30T09:33:24Z</time></trkpt><trkpt lat="45.48164720808934" lon="10.367333329809426"><ele>142.0</ele><time>2026-03-30T09:33:25Z</time></trkpt><trkpt lat="45.48170319011277" lon="10.367501367964584"><ele>142.0</ele><time>2026-03-30T09:33:26Z</time></trkpt><trkpt lat="45.481756405805974" lon="10.367667928554622"><ele>142.0</ele><time>2026-03-30T09:33:27Z</time></trkpt><trkpt lat="45.48181595745577" lon="10.367851737552442"><ele>142.0</ele><time>2026-03-30T09:33:28Z</time></trkpt><trkpt lat="45.48188301109758" lon="10.368054746202882"><ele>142.0</ele><time>2026-03-30T09:33:29Z</time></trkpt><trkpt lat="45.4819520158338" lon="10.368264073047497"><ele>142.33333333333334</ele><time>2026-03-30T09:33:30Z</time></trkpt><trkpt lat="45.48202902337607" lon="10.368486327053258"><ele>142.66666666666666</ele><time>2026-03-30T09:33:31Z</time></trkpt><trkpt lat="45.48210393659935" lon="10.368708412222363"><ele>143.0</ele><time>2026-03-30T09:33:32Z</time></trkpt><trkpt lat="45.48218132223277" lon="10.36894152144385"><ele>143.0</ele><time>2026-03-30T09:33:33Z</time></trkpt><trkpt lat="45.482256189113436" lon="10.369174409211508"><ele>143.0</ele><time>2026-03-30T09:33:34Z</time></trkpt><trkpt lat="45.482336189013" lon="10.369415479035492"><ele>143.0</ele><time>2026-03-30T09:33:35Z</time></trkpt><trkpt lat="45.48241777548061" lon="10.369656900500908"><ele>143.33333333333331</ele><time>2026-03-30T09:33:36Z</time></trkpt><trkpt lat="45.48249822503754" lon="10.36989430563635"><ele>143.66666666666666</ele><time>2026-03-30T09:33:37Z</time></trkpt><trkpt lat="45.48257351066268" lon="10.370136431721583"><ele>144.0</ele><time>2026-03-30T09:33:38Z</time></trkpt><trkpt lat="45.482655007096334" lon="10.370383134661125"><ele>143.33333333333334</ele><time>2026-03-30T09:33:39Z</time></trkpt><trkpt lat="45.48273512849429" lon="10.37062766763821"><ele>142.66666666666669</ele><time>2026-03-30T09:33:40Z</time></trkpt><trkpt lat="45.4828245123992" lon="10.37088739897142"><ele>142.0</ele><time>2026-03-30T09:33:41Z</time></trkpt><trkpt lat="45.48290383137187" lon="10.371134648554916"><ele>142.33333333333334</ele><time>2026-03-30T09:33:42Z</time></trkpt><trkpt lat="45.48298732275672" lon="10.371388400109762"><ele>142.66666666666666</ele><time>2026-03-30T09:33:43Z</time></trkpt><trkpt lat="45.48306897789159" lon="10.371634809504373"><ele>143.0</ele><time>2026-03-30T09:33:44Z</time></trkpt><trkpt lat="45.483162891304396" lon="10.371902397448318"><ele>143.5</ele><time>2026-03-30T09:33:45Z</time></trkpt><trkpt lat="45.48326296159295" lon="10.372218410465612"><ele>144.0</ele><time>2026-03-30T09:33:46Z</time></trkpt><trkpt lat="45.483371938880055" lon="10.37254948996513"><ele>144.0</ele><time>2026-03-30T09:33:47Z</time></trkpt><trkpt lat="45.4835034261724" lon="10.372905277914699"><ele>144.0</ele><time>2026-03-30T09:33:48Z</time></trkpt><trkpt lat="45.483615408444926" lon="10.373254548411984"><ele>144.0</ele><time>2026-03-30T09:33:49Z</time></trkpt><trkpt lat="45.483713183674766" lon="10.3735694043664"><ele>144.0</ele><time>2026-03-30T09:33:50Z</time></trkpt><trkpt lat="45.483804702409046" lon="10.373861685969768"><ele>144.0</ele><time>2026-03-30T09:33:51Z</time></trkpt><trkpt lat="45.48389383736587" lon="10.374137103258256"><ele>144.0</ele><time>2026-03-30T09:33:52Z</time></trkpt><trkpt lat="45.48397919890674" lon="10.374397682151537"><ele>144.0</ele><time>2026-03-30T09:33:53Z</time></trkpt><trkpt lat="45.48405843148084" lon="10.374636913056484"><ele>143.66666666666666</ele><time>2026-03-30T09:33:54Z</time></trkpt><trkpt lat="45.484122242517394" lon="10.374843614955482"><ele>143.33333333333331</ele><time>2026-03-30T09:33:55Z</time></trkpt><trkpt lat="45.484192306244275" lon="10.375052926964397"><ele>143.0</ele><time>2026-03-30T09:33:56Z</time></trkpt><trkpt lat="45.48426065246556" lon="10.375255940354913"><ele>143.0</ele><time>2026-03-30T09:33:57Z</time></trkpt><trkpt lat="45.48432508284874" lon="10.37545324129734"><ele>143.0</ele><time>2026-03-30T09:33:57.999Z</time></trkpt><trkpt lat="45.484387567027106" lon="10.375642238268817"><ele>143.0</ele><time>2026-03-30T09:33:58.999Z</time></trkpt><trkpt lat="45.48445111559062" lon="10.3758277234283"><ele>143.0</ele><time>2026-03-30T09:33:59.999Z</time></trkpt><trkpt lat="45.48450985902333" lon="10.376003806547088"><ele>143.0</ele><time>2026-03-30T09:34:00.999Z</time></trkpt><trkpt lat="45.4845688581519" lon="10.376183205827896"><ele>143.0</ele><time>2026-03-30T09:34:01.999Z</time></trkpt><trkpt lat="45.48462780793388" lon="10.376361954860364"><ele>143.0</ele><time>2026-03-30T09:34:02.999Z</time></trkpt><trkpt lat="45.48468886343124" lon="10.376553711359394"><ele>143.0</ele><time>2026-03-30T09:34:03.999Z</time></trkpt><trkpt lat="45.48475157402341" lon="10.376757402584397"><ele>143.0</ele><time>2026-03-30T09:34:04.999Z</time></trkpt><trkpt lat="45.48481701005978" lon="10.37696730884495"><ele>143.0</ele><time>2026-03-30T09:34:05.999Z</time></trkpt><trkpt lat="45.48487897951052" lon="10.377175477894477"><ele>143.0</ele><time>2026-03-30T09:34:06.999Z</time></trkpt><trkpt lat="45.48494127960899" lon="10.377380925661573"><ele>143.66666666666666</ele><time>2026-03-30T09:34:07.999Z</time></trkpt><trkpt lat="45.48499679369382" lon="10.377588358682713"><ele>144.33333333333334</ele><time>2026-03-30T09:34:08.999Z</time></trkpt><trkpt lat="45.485056348686335" lon="10.3777989836818"><ele>145.0</ele><time>2026-03-30T09:34:09.999Z</time></trkpt><trkpt lat="45.48511778925468" lon="10.37800862815998"><ele>145.33333333333334</ele><time>2026-03-30T09:34:10.999Z</time></trkpt><trkpt lat="45.48517752882227" lon="10.378225106366308"><ele>145.66666666666666</ele><time>2026-03-30T09:34:11.999Z</time></trkpt><trkpt lat="45.485232023489004" lon="10.378448796799074"><ele>146.0</ele><time>2026-03-30T09:34:12.999Z</time></trkpt><trkpt lat="45.48528190486413" lon="10.378681232811205"><ele>145.0</ele><time>2026-03-30T09:34:13.999Z</time></trkpt><trkpt lat="45.48532935484049" lon="10.378918624936714"><ele>144.0</ele><time>2026-03-30T09:34:14.999Z</time></trkpt><trkpt lat="45.48537274376061" lon="10.379160289203638"><ele>143.0</ele><time>2026-03-30T09:34:15.999Z</time></trkpt><trkpt lat="45.48541453428454" lon="10.379407897066129"><ele>142.66666666666666</ele><time>2026-03-30T09:34:16.999Z</time></trkpt><trkpt lat="45.485454495172704" lon="10.379665683111314"><ele>142.33333333333334</ele><time>2026-03-30T09:34:17.999Z</time></trkpt><trkpt lat="45.48548502725492" lon="10.379936193561083"><ele>142.0</ele><time>2026-03-30T09:34:18.999Z</time></trkpt><trkpt lat="45.48551396870456" lon="10.380224237685123"><ele>142.66666666666669</ele><time>2026-03-30T09:34:19.999Z</time></trkpt><trkpt lat="45.48553853815576" lon="10.380528369445095"><ele>143.33333333333334</ele><time>2026-03-30T09:34:20.999Z</time></trkpt><trkpt lat="45.48556316187762" lon="10.380833995031628"><ele>144.0</ele><time>2026-03-30T09:34:21.999Z</time></trkpt><trkpt lat="45.48557738747522" lon="10.381114858762258"><ele>144.33333333333334</ele><time>2026-03-30T09:34:22.999Z</time></trkpt><trkpt lat="45.48558999838093" lon="10.381409120293318"><ele>144.66666666666669</ele><time>2026-03-30T09:34:23.999Z</time></trkpt><trkpt lat="45.485587877667626" lon="10.381628106838912"><ele>145.0</ele><time>2026-03-30T09:34:24.999Z</time></trkpt><trkpt lat="45.48558611449057" lon="10.381885771225113"><ele>145.0</ele><time>2026-03-30T09:34:25.999Z</time></trkpt><trkpt lat="45.48557831752607" lon="10.38213374028877"><ele>145.0</ele><time>2026-03-30T09:34:26.999Z</time></trkpt><trkpt lat="45.485565311848504" lon="10.382379179257333"><ele>145.0</ele><time>2026-03-30T09:34:27.999Z</time></trkpt><trkpt lat="45.485546940695954" lon="10.38262563546694"><ele>145.0</ele><time>2026-03-30T09:34:28.999Z</time></trkpt><trkpt lat="45.4855257243706" lon="10.382872264445634"><ele>145.0</ele><time>2026-03-30T09:34:29.999Z</time></trkpt><trkpt lat="45.48550010284917" lon="10.38311795595815"><ele>145.0</ele><time>2026-03-30T09:34:30.999Z</time></trkpt><trkpt lat="45.48547041546977" lon="10.383371220962312"><ele>145.0</ele><time>2026-03-30T09:34:31.999Z</time></trkpt><trkpt lat="45.485440867404115" lon="10.383632238899692"><ele>145.0</ele><time>2026-03-30T09:34:32.999Z</time></trkpt><trkpt lat="45.4854066929157" lon="10.38388033857548"><ele>145.0</ele><time>2026-03-30T09:34:33.999Z</time></trkpt><trkpt lat="45.48536558757961" lon="10.38412906643335"><ele>145.0</ele><time>2026-03-30T09:34:34.999Z</time></trkpt><trkpt lat="45.48532023834171" lon="10.38437123974818"><ele>145.0</ele><time>2026-03-30T09:34:35.999Z</time></trkpt><trkpt lat="45.48527095228102" lon="10.384604273477622"><ele>145.0</ele><time>2026-03-30T09:34:36.999Z</time></trkpt><trkpt lat="45.485219370614494" lon="10.384835829793076"><ele>144.66666666666669</ele><time>2026-03-30T09:34:37.999Z</time></trkpt><trkpt lat="45.485151625093486" lon="10.38511038237987"><ele>144.33333333333334</ele><time>2026-03-30T09:34:38.999Z</time></trkpt><trkpt lat="45.48509111051384" lon="10.385361943318157"><ele>144.0</ele><time>2026-03-30T09:34:39.999Z</time></trkpt><trkpt lat="45.48500953839347" lon="10.385604551030681"><ele>144.0</ele><time>2026-03-30T09:34:40.999Z</time></trkpt><trkpt lat="45.48495262972527" lon="10.385842766158527"><ele>144.0</ele><time>2026-03-30T09:34:41.999Z</time></trkpt><trkpt lat="45.48488416245818" lon="10.386084246555132"><ele>144.0</ele><time>2026-03-30T09:34:42.999Z</time></trkpt><trkpt lat="45.4848171996327" lon="10.386320434257966"><ele>143.66666666666666</ele><time>2026-03-30T09:34:43.999Z</time></trkpt><trkpt lat="45.48474956821412" lon="10.386569743733592"><ele>143.33333333333331</ele><time>2026-03-30T09:34:44.999Z</time></trkpt><trkpt lat="45.484691323451045" lon="10.386775982082034"><ele>143.0</ele><time>2026-03-30T09:34:45.999Z</time></trkpt><trkpt lat="45.48462856198121" lon="10.386997272180901"><ele>143.0</ele><time>2026-03-30T09:34:46.999Z</time></trkpt><trkpt lat="45.48456622690374" lon="10.387219560638878"><ele>143.0</ele><time>2026-03-30T09:34:47.999Z</time></trkpt><trkpt lat="45.48450256927902" lon="10.387445179461823"><ele>143.0</ele><time>2026-03-30T09:34:48.999Z</time></trkpt><trkpt lat="45.48443766796808" lon="10.387671841908682"><ele>143.0</ele><time>2026-03-30T09:34:49.999Z</time></trkpt><trkpt lat="45.48437518913479" lon="10.387903551959633"><ele>143.0</ele><time>2026-03-30T09:34:50.999Z</time></trkpt><trkpt lat="45.484307651024196" lon="10.38813559482508"><ele>143.0</ele><time>2026-03-30T09:34:51.999Z</time></trkpt><trkpt lat="45.484240440227104" lon="10.388366766224676"><ele>143.0</ele><time>2026-03-30T09:34:52.999Z</time></trkpt><trkpt lat="45.48417459645581" lon="10.38859690621581"><ele>143.0</ele><time>2026-03-30T09:34:53.999Z</time></trkpt><trkpt lat="45.48410976394401" lon="10.388818760858948"><ele>143.0</ele><time>2026-03-30T09:34:54.999Z</time></trkpt><trkpt lat="45.484047597815234" lon="10.389039719405801"><ele>143.66666666666666</ele><time>2026-03-30T09:34:55.999Z</time></trkpt><trkpt lat="45.483986034111155" lon="10.389264677998995"><ele>144.33333333333334</ele><time>2026-03-30T09:34:56.999Z</time></trkpt><trkpt lat="45.483920783651584" lon="10.389490638714955"><ele>145.0</ele><time>2026-03-30T09:34:57.999Z</time></trkpt><trkpt lat="45.48385456683489" lon="10.389714481507236"><ele>145.0</ele><time>2026-03-30T09:34:58.999Z</time></trkpt><trkpt lat="45.48379196155817" lon="10.389939899773209"><ele>145.0</ele><time>2026-03-30T09:34:59.999Z</time></trkpt><trkpt lat="45.483728600841154" lon="10.390157364939455"><ele>145.0</ele><time>2026-03-30T09:35:00.999Z</time></trkpt><trkpt lat="45.48366786402746" lon="10.390378729858025"><ele>143.66666666666669</ele><time>2026-03-30T09:35:01.999Z</time></trkpt><trkpt lat="45.48360888957318" lon="10.390610751600791"><ele>142.33333333333334</ele><time>2026-03-30T09:35:02.998Z</time></trkpt><trkpt lat="45.48354977614453" lon="10.390840345060276"><ele>141.0</ele><time>2026-03-30T09:35:03.998Z</time></trkpt><trkpt lat="45.483487434015" lon="10.391062146277312"><ele>141.0</ele><time>2026-03-30T09:35:04.998Z</time></trkpt><trkpt lat="45.48342542526714" lon="10.391280699373953"><ele>141.0</ele><time>2026-03-30T09:35:05.998Z</time></trkpt><trkpt lat="45.48336617453214" lon="10.391502357603008"><ele>141.0</ele><time>2026-03-30T09:35:06.998Z</time></trkpt><trkpt lat="45.48330758678908" lon="10.391719647271549"><ele>141.33333333333334</ele><time>2026-03-30T09:35:07.998Z</time></trkpt><trkpt lat="45.483253918767105" lon="10.39194572839042"><ele>141.66666666666669</ele><time>2026-03-30T09:35:08.998Z</time></trkpt><trkpt lat="45.483193073374515" lon="10.392163153402814"><ele>142.0</ele><time>2026-03-30T09:35:09.998Z</time></trkpt><trkpt lat="45.483138173199414" lon="10.392389596587828"><ele>142.0</ele><time>2026-03-30T09:35:11Z</time></trkpt><trkpt lat="45.483079676193995" lon="10.392613650267297"><ele>142.0</ele><time>2026-03-30T09:35:12Z</time></trkpt><trkpt lat="45.483023058411874" lon="10.39285941828493"><ele>142.0</ele><time>2026-03-30T09:35:13Z</time></trkpt><trkpt lat="45.48295386549245" lon="10.393122395672961"><ele>142.0</ele><time>2026-03-30T09:35:14Z</time></trkpt><trkpt lat="45.48286336515038" lon="10.393424366499485"><ele>142.0</ele><time>2026-03-30T09:35:15Z</time></trkpt><trkpt lat="45.48277819698642" lon="10.393753951981601"><ele>140.0</ele><time>2026-03-30T09:35:16Z</time></trkpt><trkpt lat="45.48268445484684" lon="10.39411468911168"><ele>138.0</ele><time>2026-03-30T09:35:17Z</time></trkpt><trkpt lat="45.48259290490117" lon="10.394473714785889"><ele>137.5</ele><time>2026-03-30T09:35:18Z</time></trkpt><trkpt lat="45.48251559042544" lon="10.394832065339996"><ele>137.0</ele><time>2026-03-30T09:35:19Z</time></trkpt><trkpt lat="45.48242379723583" lon="10.395170431535954"><ele>137.0</ele><time>2026-03-30T09:35:20Z</time></trkpt><trkpt lat="45.482341519599274" lon="10.395491272364596"><ele>137.0</ele><time>2026-03-30T09:35:21Z</time></trkpt><trkpt lat="45.48226256633582" lon="10.3958121447349"><ele>137.0</ele><time>2026-03-30T09:35:22Z</time></trkpt><trkpt lat="45.48217583433639" lon="10.396099114390166"><ele>137.0</ele><time>2026-03-30T09:35:23Z</time></trkpt><trkpt lat="45.482112689811416" lon="10.396398291276041"><ele>137.0</ele><time>2026-03-30T09:35:24Z</time></trkpt><trkpt lat="45.482039285117416" lon="10.396676759521865"><ele>136.66666666666666</ele><time>2026-03-30T09:35:25Z</time></trkpt><trkpt lat="45.48196682757897" lon="10.39695649331156"><ele>136.33333333333334</ele><time>2026-03-30T09:35:26Z</time></trkpt><trkpt lat="45.48189700814214" lon="10.397229766155794"><ele>136.0</ele><time>2026-03-30T09:35:27Z</time></trkpt><trkpt lat="45.48182984606998" lon="10.397497628315207"><ele>136.0</ele><time>2026-03-30T09:35:28Z</time></trkpt><trkpt lat="45.48175923050315" lon="10.397774474630832"><ele>136.0</ele><time>2026-03-30T09:35:29Z</time></trkpt><trkpt lat="45.481695096594905" lon="10.39804529516223"><ele>136.0</ele><time>2026-03-30T09:35:30Z</time></trkpt><trkpt lat="45.48162699513864" lon="10.398309481095486"><ele>135.66666666666669</ele><time>2026-03-30T09:35:31Z</time></trkpt><trkpt lat="45.48155803314937" lon="10.398575101355918"><ele>135.33333333333334</ele><time>2026-03-30T09:35:32Z</time></trkpt><trkpt lat="45.48149248591059" lon="10.398829331431704"><ele>135.0</ele><time>2026-03-30T09:35:33Z</time></trkpt><trkpt lat="45.481428097422516" lon="10.399087347697051"><ele>135.0</ele><time>2026-03-30T09:35:34Z</time></trkpt><trkpt lat="45.48136134682088" lon="10.399338378022318"><ele>135.0</ele><time>2026-03-30T09:35:35Z</time></trkpt><trkpt lat="45.48129889153778" lon="10.39958826918122"><ele>135.0</ele><time>2026-03-30T09:35:36Z</time></trkpt><trkpt lat="45.48123490611236" lon="10.399840881066547"><ele>135.33333333333334</ele><time>2026-03-30T09:35:37Z</time></trkpt><trkpt lat="45.4811701583028" lon="10.400094886268006"><ele>135.66666666666669</ele><time>2026-03-30T09:35:38Z</time></trkpt><trkpt lat="45.48110946146441" lon="10.400340049413645"><ele>136.0</ele><time>2026-03-30T09:35:39Z</time></trkpt><trkpt lat="45.48104659689087" lon="10.400582199339489"><ele>136.0</ele><time>2026-03-30T09:35:40Z</time></trkpt><trkpt lat="45.48098183727746" lon="10.400829715063097"><ele>136.0</ele><time>2026-03-30T09:35:41Z</time></trkpt><trkpt lat="45.480922313894006" lon="10.401070000461427"><ele>136.0</ele><time>2026-03-30T09:35:42Z</time></trkpt><trkpt lat="45.48086169719768" lon="10.401312124330376"><ele>136.33333333333334</ele><time>2026-03-30T09:35:43Z</time></trkpt><trkpt lat="45.48079627625859" lon="10.401560337731397"><ele>136.66666666666666</ele><time>2026-03-30T09:35:44Z</time></trkpt><trkpt lat="45.480728716479206" lon="10.401819872432661"><ele>137.0</ele><time>2026-03-30T09:35:45Z</time></trkpt><trkpt lat="45.48066253137294" lon="10.40205920151965"><ele>137.0</ele><time>2026-03-30T09:35:46Z</time></trkpt><trkpt lat="45.48060026278358" lon="10.402305707438739"><ele>137.0</ele><time>2026-03-30T09:35:47Z</time></trkpt><trkpt lat="45.48053678141683" lon="10.40256036130076"><ele>137.0</ele><time>2026-03-30T09:35:48Z</time></trkpt><trkpt lat="45.48047498572482" lon="10.402816131235255"><ele>136.33333333333331</ele><time>2026-03-30T09:35:49Z</time></trkpt><trkpt lat="45.48041334769768" lon="10.403064824342268"><ele>135.66666666666666</ele><time>2026-03-30T09:35:50Z</time></trkpt><trkpt lat="45.4803501787736" lon="10.403321508816846"><ele>135.0</ele><time>2026-03-30T09:35:51Z</time></trkpt><trkpt lat="45.48029477984232" lon="10.403566674976496"><ele>135.0</ele><time>2026-03-30T09:35:52Z</time></trkpt><trkpt lat="45.4802448387706" lon="10.403813471036788"><ele>135.0</ele><time>2026-03-30T09:35:53Z</time></trkpt><trkpt lat="45.48020006368913" lon="10.404061320165678"><ele>135.0</ele><time>2026-03-30T09:35:54Z</time></trkpt><trkpt lat="45.48015372231405" lon="10.404315232536355"><ele>135.0</ele><time>2026-03-30T09:35:55Z</time></trkpt><trkpt lat="45.480092702041944" lon="10.404565479227362"><ele>135.0</ele><time>2026-03-30T09:35:56Z</time></trkpt><trkpt lat="45.48008534022295" lon="10.404839983971188"><ele>135.0</ele><time>2026-03-30T09:35:57Z</time></trkpt><trkpt lat="45.48005972650314" lon="10.405101594955042"><ele>134.66666666666666</ele><time>2026-03-30T09:35:58Z</time></trkpt><trkpt lat="45.48003951566368" lon="10.405369715874933"><ele>134.33333333333331</ele><time>2026-03-30T09:35:59Z</time></trkpt><trkpt lat="45.48002253052831" lon="10.405636208123555"><ele>134.0</ele><time>2026-03-30T09:36:00Z</time></trkpt><trkpt lat="45.480006927169455" lon="10.405908113673227"><ele>135.33333333333331</ele><time>2026-03-30T09:36:01Z</time></trkpt><trkpt lat="45.47999671044992" lon="10.406180994921796"><ele>136.66666666666666</ele><time>2026-03-30T09:36:02Z</time></trkpt><trkpt lat="45.47999083454357" lon="10.406460293136009"><ele>138.0</ele><time>2026-03-30T09:36:02.999Z</time></trkpt><trkpt lat="45.4799876209566" lon="10.406735275179797"><ele>140.0</ele><time>2026-03-30T09:36:03.999Z</time></trkpt><trkpt lat="45.47998611663771" lon="10.40700772490413"><ele>142.0</ele><time>2026-03-30T09:36:04.999Z</time></trkpt><trkpt lat="45.479986589551444" lon="10.407253308425924"><ele>144.0</ele><time>2026-03-30T09:36:05.999Z</time></trkpt><trkpt lat="45.479959326775436" lon="10.407525065840174"><ele>144.0</ele><time>2026-03-30T09:36:06.999Z</time></trkpt><trkpt lat="45.47995684379032" lon="10.40779778520156"><ele>144.0</ele><time>2026-03-30T09:36:07.999Z</time></trkpt><trkpt lat="45.479962025538946" lon="10.408080276994701"><ele>144.0</ele><time>2026-03-30T09:36:09.071Z</time></trkpt><trkpt lat="45.47996161848338" lon="10.408358168473464"><ele>143.66666666666666</ele><time>2026-03-30T09:36:10.07Z</time></trkpt><trkpt lat="45.47994971511394" lon="10.408631104506572"><ele>143.33333333333331</ele><time>2026-03-30T09:36:11.071Z</time></trkpt><trkpt lat="45.479833079195046" lon="10.408770788393698"><ele>143.0</ele><time>2026-03-30T09:36:12.069Z</time></trkpt><trkpt lat="45.47978791516885" lon="10.409004409927327"><ele>143.0</ele><time>2026-03-30T09:36:13.041Z</time></trkpt><trkpt lat="45.47976566677756" lon="10.409246435758934"><ele>143.0</ele><time>2026-03-30T09:36:14.034Z</time></trkpt><trkpt lat="45.47967717140821" lon="10.40946454396037"><ele>143.0</ele><time>2026-03-30T09:36:15.029Z</time></trkpt><trkpt lat="45.47974221193332" lon="10.409401597469552"><ele>143.0</ele><time>2026-03-30T09:36:16.026Z</time></trkpt><trkpt lat="45.47971566794057" lon="10.409571628471037"><ele>143.25</ele><time>2026-03-30T09:36:17.025Z</time></trkpt><trkpt lat="45.479688276849956" lon="10.409756377931572"><ele>143.5</ele><time>2026-03-30T09:36:18.027Z</time></trkpt><trkpt lat="45.479683526469906" lon="10.40989869751692"><ele>143.75</ele><time>2026-03-30T09:36:19.026Z</time></trkpt><trkpt lat="45.479658645605035" lon="10.410085503077772"><ele>144.0</ele><time>2026-03-30T09:36:20.026Z</time></trkpt><trkpt lat="45.481171276408624" lon="10.4223885597053"><ele>145.33333333333334</ele><time>2026-03-30T09:37:05.999Z</time></trkpt><trkpt lat="45.481107853897726" lon="10.422694346613278"><ele>146.66666666666669</ele><time>2026-03-30T09:37:06.998Z</time></trkpt><trkpt lat="45.4810345447344" lon="10.422994898863653"><ele>148.0</ele><time>2026-03-30T09:37:07.998Z</time></trkpt><trkpt lat="45.480898468714834" lon="10.423283838951967"><ele>148.0</ele><time>2026-03-30T09:37:08.998Z</time></trkpt><trkpt lat="45.48081084899811" lon="10.423583395381629"><ele>148.0</ele><time>2026-03-30T09:37:09.998Z</time></trkpt><trkpt lat="45.48071886110933" lon="10.423890747451992"><ele>148.0</ele><time>2026-03-30T09:37:10.998Z</time></trkpt><trkpt lat="45.48062639572762" lon="10.42419630193284"><ele>148.0</ele><time>2026-03-30T09:37:11.998Z</time></trkpt><trkpt lat="45.48053376389488" lon="10.424502406460759"><ele>147.5</ele><time>2026-03-30T09:37:12.998Z</time></trkpt><trkpt lat="45.48044143088833" lon="10.42480537729918"><ele>147.0</ele><time>2026-03-30T09:37:13.998Z</time></trkpt><trkpt lat="45.480349254702176" lon="10.425106312171296"><ele>146.5</ele><time>2026-03-30T09:37:14.998Z</time></trkpt><trkpt lat="45.480252696714075" lon="10.425419118043274"><ele>146.0</ele><time>2026-03-30T09:37:15.998Z</time></trkpt><trkpt lat="45.480156715248654" lon="10.42572684069683"><ele>145.0</ele><time>2026-03-30T09:37:17Z</time></trkpt><trkpt lat="45.48006293526632" lon="10.426027572356178"><ele>144.0</ele><time>2026-03-30T09:37:18Z</time></trkpt><trkpt lat="45.47996959594704" lon="10.426328526882054"><ele>143.0</ele><time>2026-03-30T09:37:19Z</time></trkpt><trkpt lat="45.47987945039315" lon="10.426622812923135"><ele>142.0</ele><time>2026-03-30T09:37:20Z</time></trkpt><trkpt lat="45.47978740149257" lon="10.426924048677082"><ele>142.0</ele><time>2026-03-30T09:37:21Z</time></trkpt><trkpt lat="45.479696489550584" lon="10.42722156367465"><ele>142.0</ele><time>2026-03-30T09:37:22Z</time></trkpt><trkpt lat="45.47960912533652" lon="10.427507468510859"><ele>142.0</ele><time>2026-03-30T09:37:23Z</time></trkpt><trkpt lat="45.479522219741334" lon="10.427791872487706"><ele>142.33333333333334</ele><time>2026-03-30T09:37:24Z</time></trkpt><trkpt lat="45.47943584542763" lon="10.428073895966445"><ele>142.66666666666666</ele><time>2026-03-30T09:37:25Z</time></trkpt><trkpt lat="45.47934879575551" lon="10.428358053199243"><ele>143.0</ele><time>2026-03-30T09:37:26Z</time></trkpt><trkpt lat="45.47926145926874" lon="10.428643146692062"><ele>142.66666666666666</ele><time>2026-03-30T09:37:27Z</time></trkpt><trkpt lat="45.47917403195003" lon="10.428927632352227"><ele>142.33333333333334</ele><time>2026-03-30T09:37:28Z</time></trkpt><trkpt lat="45.47908858771801" lon="10.429204270741407"><ele>142.0</ele><time>2026-03-30T09:37:29Z</time></trkpt><trkpt lat="45.47900495737752" lon="10.429474949885591"><ele>141.66666666666669</ele><time>2026-03-30T09:37:30Z</time></trkpt><trkpt lat="45.47891998111736" lon="10.429749902605126"><ele>141.33333333333334</ele><time>2026-03-30T09:37:31Z</time></trkpt><trkpt lat="45.47883749727902" lon="10.430016790738733"><ele>141.0</ele><time>2026-03-30T09:37:32Z</time></trkpt><trkpt lat="45.47875554440983" lon="10.43028196085252"><ele>141.33333333333334</ele><time>2026-03-30T09:37:33Z</time></trkpt><trkpt lat="45.47867474183144" lon="10.430544207398851"><ele>141.66666666666669</ele><time>2026-03-30T09:37:34Z</time></trkpt><trkpt lat="45.47859441231294" lon="10.430805059604321"><ele>142.0</ele><time>2026-03-30T09:37:35Z</time></trkpt><trkpt lat="45.47851292133046" lon="10.43106968340695"><ele>141.66666666666669</ele><time>2026-03-30T09:37:36Z</time></trkpt><trkpt lat="45.47843342844842" lon="10.431327818823313"><ele>141.33333333333334</ele><time>2026-03-30T09:37:37Z</time></trkpt><trkpt lat="45.47835678595321" lon="10.43157669824808"><ele>141.0</ele><time>2026-03-30T09:37:38Z</time></trkpt><trkpt lat="45.47827887607887" lon="10.431846405931763"><ele>141.0</ele><time>2026-03-30T09:37:39Z</time></trkpt><trkpt lat="45.478203814736794" lon="10.432094445277789"><ele>141.0</ele><time>2026-03-30T09:37:40Z</time></trkpt><trkpt lat="45.478127489607346" lon="10.43234601528145"><ele>141.0</ele><time>2026-03-30T09:37:41Z</time></trkpt><trkpt lat="45.47805001698561" lon="10.432598655373729"><ele>140.66666666666666</ele><time>2026-03-30T09:37:42Z</time></trkpt><trkpt lat="45.47796976249284" lon="10.43285530154731"><ele>140.33333333333331</ele><time>2026-03-30T09:37:43Z</time></trkpt><trkpt lat="45.47789081841245" lon="10.433112848169113"><ele>140.0</ele><time>2026-03-30T09:37:44Z</time></trkpt><trkpt lat="45.477808204312026" lon="10.433377008154839"><ele>140.66666666666666</ele><time>2026-03-30T09:37:45Z</time></trkpt><trkpt lat="45.47772444611648" lon="10.433644916173261"><ele>141.33333333333334</ele><time>2026-03-30T09:37:46Z</time></trkpt><trkpt lat="45.47764167003423" lon="10.433907009451081"><ele>142.0</ele><time>2026-03-30T09:37:47Z</time></trkpt><trkpt lat="45.47756216669021" lon="10.43417182452113"><ele>142.33333333333334</ele><time>2026-03-30T09:37:48Z</time></trkpt><trkpt lat="45.47748191311852" lon="10.43443872247348"><ele>142.66666666666666</ele><time>2026-03-30T09:37:49Z</time></trkpt><trkpt lat="45.47740118766696" lon="10.434694727709418"><ele>143.0</ele><time>2026-03-30T09:37:50Z</time></trkpt><trkpt lat="45.47732035217147" lon="10.434954185293352"><ele>143.0</ele><time>2026-03-30T09:37:51Z</time></trkpt><trkpt lat="45.4772431989214" lon="10.435204718477186"><ele>143.0</ele><time>2026-03-30T09:37:52Z</time></trkpt><trkpt lat="45.477166557994536" lon="10.435454903790292"><ele>143.0</ele><time>2026-03-30T09:37:53Z</time></trkpt><trkpt lat="45.47708996407797" lon="10.435708681761753"><ele>143.0</ele><time>2026-03-30T09:37:54Z</time></trkpt><trkpt lat="45.47701692836514" lon="10.43594803307843"><ele>143.0</ele><time>2026-03-30T09:37:55Z</time></trkpt><trkpt lat="45.47694033202087" lon="10.436200579065172"><ele>143.0</ele><time>2026-03-30T09:37:56Z</time></trkpt><trkpt lat="45.47686023470918" lon="10.436453621943903"><ele>143.0</ele><time>2026-03-30T09:37:57Z</time></trkpt><trkpt lat="45.476787236552035" lon="10.43669448133247"><ele>143.0</ele><time>2026-03-30T09:37:58Z</time></trkpt><trkpt lat="45.476702509073036" lon="10.436952281589887"><ele>143.0</ele><time>2026-03-30T09:37:59Z</time></trkpt><trkpt lat="45.47662519776814" lon="10.43720270642512"><ele>143.0</ele><time>2026-03-30T09:38:00Z</time></trkpt><trkpt lat="45.47655027213252" lon="10.437448981749599"><ele>143.0</ele><time>2026-03-30T09:38:01Z</time></trkpt><trkpt lat="45.47647271648906" lon="10.437708589678063"><ele>143.0</ele><time>2026-03-30T09:38:02Z</time></trkpt><trkpt lat="45.47639797071447" lon="10.437960881765633"><ele>143.0</ele><time>2026-03-30T09:38:03Z</time></trkpt><trkpt lat="45.476328223081374" lon="10.438199835306387"><ele>143.0</ele><time>2026-03-30T09:38:04Z</time></trkpt><trkpt lat="45.47625210052502" lon="10.438436242220055"><ele>143.0</ele><time>2026-03-30T09:38:05Z</time></trkpt><trkpt lat="45.47618266962208" lon="10.438663817299664"><ele>142.33333333333331</ele><time>2026-03-30T09:38:06Z</time></trkpt><trkpt lat="45.4761068990852" lon="10.438906538545195"><ele>141.66666666666666</ele><time>2026-03-30T09:38:07Z</time></trkpt><trkpt lat="45.47603985130006" lon="10.439141229500795"><ele>141.0</ele><time>2026-03-30T09:38:08Z</time></trkpt><trkpt lat="45.47597317233601" lon="10.439349982928249"><ele>141.0</ele><time>2026-03-30T09:38:09Z</time></trkpt><trkpt lat="45.47590308519973" lon="10.439559905032457"><ele>141.0</ele><time>2026-03-30T09:38:10Z</time></trkpt><trkpt lat="45.47584160896725" lon="10.439774721518559"><ele>141.0</ele><time>2026-03-30T09:38:10.999Z</time></trkpt><trkpt lat="45.4757823933921" lon="10.43997637336973"><ele>141.33333333333334</ele><time>2026-03-30T09:38:11.999Z</time></trkpt><trkpt lat="45.47572413086688" lon="10.44019401261953"><ele>141.66666666666669</ele><time>2026-03-30T09:38:12.999Z</time></trkpt><trkpt lat="45.47566036360975" lon="10.440416333861114"><ele>142.0</ele><time>2026-03-30T09:38:13.999Z</time></trkpt><trkpt lat="45.47559355616286" lon="10.440664747124394"><ele>142.33333333333334</ele><time>2026-03-30T09:38:14.999Z</time></trkpt><trkpt lat="45.47552599103081" lon="10.440896542793277"><ele>142.66666666666666</ele><time>2026-03-30T09:38:15.999Z</time></trkpt><trkpt lat="45.47545597847453" lon="10.44116119815716"><ele>143.0</ele><time>2026-03-30T09:38:16.999Z</time></trkpt><trkpt lat="45.4753865925014" lon="10.441415598477743"><ele>143.0</ele><time>2026-03-30T09:38:17.999Z</time></trkpt><trkpt lat="45.475322009152485" lon="10.441692046424619"><ele>143.0</ele><time>2026-03-30T09:38:18.999Z</time></trkpt><trkpt lat="45.47525002832314" lon="10.441963741641699"><ele>143.0</ele><time>2026-03-30T09:38:19.999Z</time></trkpt><trkpt lat="45.475178536602684" lon="10.442238382341733"><ele>143.33333333333331</ele><time>2026-03-30T09:38:20.999Z</time></trkpt><trkpt lat="45.475103398094106" lon="10.44251314668588"><ele>143.66666666666666</ele><time>2026-03-30T09:38:21.999Z</time></trkpt><trkpt lat="45.47502988296371" lon="10.44279785918352"><ele>144.0</ele><time>2026-03-30T09:38:22.999Z</time></trkpt><trkpt lat="45.47495680030124" lon="10.443072675828946"><ele>144.0</ele><time>2026-03-30T09:38:23.999Z</time></trkpt><trkpt lat="45.47488064479717" lon="10.443365292295953"><ele>144.0</ele><time>2026-03-30T09:38:24.999Z</time></trkpt><trkpt lat="45.47480161658564" lon="10.443657135235222"><ele>144.0</ele><time>2026-03-30T09:38:25.999Z</time></trkpt><trkpt lat="45.47472402734324" lon="10.443945026841474"><ele>144.0</ele><time>2026-03-30T09:38:26.999Z</time></trkpt><trkpt lat="45.4746457970484" lon="10.444231497367236"><ele>144.0</ele><time>2026-03-30T09:38:27.999Z</time></trkpt><trkpt lat="45.474567508731596" lon="10.444519193860337"><ele>144.0</ele><time>2026-03-30T09:38:28.999Z</time></trkpt><trkpt lat="45.47448231067532" lon="10.444836577371573"><ele>143.5</ele><time>2026-03-30T09:38:29.999Z</time></trkpt><trkpt lat="45.4743927044687" lon="10.445191703762418"><ele>143.0</ele><time>2026-03-30T09:38:30.999Z</time></trkpt><trkpt lat="45.47428981479405" lon="10.44558431940494"><ele>143.0</ele><time>2026-03-30T09:38:31.999Z</time></trkpt><trkpt lat="45.474183390362654" lon="10.44597704853614"><ele>143.0</ele><time>2026-03-30T09:38:32.999Z</time></trkpt><trkpt lat="45.474077247930865" lon="10.446364185032575"><ele>143.0</ele><time>2026-03-30T09:38:33.999Z</time></trkpt><trkpt lat="45.47397285312232" lon="10.446752772369418"><ele>143.0</ele><time>2026-03-30T09:38:34.999Z</time></trkpt><trkpt lat="45.473874595912854" lon="10.447121197553813"><ele>144.0</ele><time>2026-03-30T09:38:35.999Z</time></trkpt><trkpt lat="45.47377837038055" lon="10.447474108879174"><ele>145.0</ele><time>2026-03-30T09:38:36.999Z</time></trkpt><trkpt lat="45.47368010848919" lon="10.447819909700925"><ele>145.5</ele><time>2026-03-30T09:38:37.999Z</time></trkpt><trkpt lat="45.473582400423936" lon="10.448159683710339"><ele>146.0</ele><time>2026-03-30T09:38:38.999Z</time></trkpt><trkpt lat="45.4734920956848" lon="10.448498765810234"><ele>146.0</ele><time>2026-03-30T09:38:39.999Z</time></trkpt><trkpt lat="45.47340138344916" lon="10.448839063880415"><ele>146.0</ele><time>2026-03-30T09:38:40.999Z</time></trkpt><trkpt lat="45.47330871410275" lon="10.449173061041575"><ele>146.0</ele><time>2026-03-30T09:38:41.999Z</time></trkpt><trkpt lat="45.47321855672481" lon="10.449512506554534"><ele>146.0</ele><time>2026-03-30T09:38:42.999Z</time></trkpt><trkpt lat="45.47312517904399" lon="10.449864594377926"><ele>146.0</ele><time>2026-03-30T09:38:43.999Z</time></trkpt><trkpt lat="45.47302575438624" lon="10.450232817007203"><ele>146.0</ele><time>2026-03-30T09:38:44.999Z</time></trkpt><trkpt lat="45.47292896283651" lon="10.450586827854274"><ele>146.0</ele><time>2026-03-30T09:38:45.999Z</time></trkpt><trkpt lat="45.472834636664636" lon="10.450933960029355"><ele>146.0</ele><time>2026-03-30T09:38:46.999Z</time></trkpt><trkpt lat="45.47274299071938" lon="10.451268803908125"><ele>146.0</ele><time>2026-03-30T09:38:47.999Z</time></trkpt><trkpt lat="45.472654179939155" lon="10.451596223035459"><ele>146.0</ele><time>2026-03-30T09:38:48.999Z</time></trkpt><trkpt lat="45.47256808658848" lon="10.451917936827178"><ele>146.0</ele><time>2026-03-30T09:38:49.999Z</time></trkpt><trkpt lat="45.47248221842652" lon="10.452237230503973"><ele>146.0</ele><time>2026-03-30T09:38:50.999Z</time></trkpt><trkpt lat="45.4723988649291" lon="10.45255276406689"><ele>146.0</ele><time>2026-03-30T09:38:51.999Z</time></trkpt><trkpt lat="45.47231564263419" lon="10.452860837243088"><ele>146.0</ele><time>2026-03-30T09:38:52.999Z</time></trkpt><trkpt lat="45.47223152151811" lon="10.453170903450422"><ele>146.5</ele><time>2026-03-30T09:38:53.999Z</time></trkpt><trkpt lat="45.47215090864517" lon="10.453479106720051"><ele>147.0</ele><time>2026-03-30T09:38:54.999Z</time></trkpt><trkpt lat="45.472080098943366" lon="10.453790357754128"><ele>147.0</ele><time>2026-03-30T09:38:55.999Z</time></trkpt><trkpt lat="45.47201894516621" lon="10.45410287111255"><ele>147.0</ele><time>2026-03-30T09:38:56.999Z</time></trkpt><trkpt lat="45.47196468342464" lon="10.454413550402966"><ele>146.5</ele><time>2026-03-30T09:38:57.999Z</time></trkpt><trkpt lat="45.47191866391765" lon="10.454733789710874"><ele>146.0</ele><time>2026-03-30T09:38:58.999Z</time></trkpt><trkpt lat="45.47187838819899" lon="10.455047080778538"><ele>146.0</ele><time>2026-03-30T09:38:59.999Z</time></trkpt><trkpt lat="45.47184852357613" lon="10.455366279680268"><ele>146.0</ele><time>2026-03-30T09:39:00.999Z</time></trkpt><trkpt lat="45.47182605603582" lon="10.455682970438891"><ele>146.0</ele><time>2026-03-30T09:39:01.999Z</time></trkpt><trkpt lat="45.47181201678827" lon="10.45600817133307"><ele>147.5</ele><time>2026-03-30T09:39:02.999Z</time></trkpt><trkpt lat="45.471807611874596" lon="10.456333511188541"><ele>149.0</ele><time>2026-03-30T09:39:03.999Z</time></trkpt><trkpt lat="45.471811070676665" lon="10.456658854412712"><ele>149.0</ele><time>2026-03-30T09:39:04.999Z</time></trkpt><trkpt lat="45.471822544166635" lon="10.45697633592442"><ele>149.0</ele><time>2026-03-30T09:39:05.999Z</time></trkpt><trkpt lat="45.47184009052272" lon="10.457296248943726"><ele>149.0</ele><time>2026-03-30T09:39:06.999Z</time></trkpt><trkpt lat="45.47186613687672" lon="10.457612619814622"><ele>149.0</ele><time>2026-03-30T09:39:07.999Z</time></trkpt><trkpt lat="45.471897724272125" lon="10.457926284569671"><ele>149.0</ele><time>2026-03-30T09:39:08.999Z</time></trkpt><trkpt lat="45.4719385600658" lon="10.458238509523408"><ele>149.0</ele><time>2026-03-30T09:39:09.999Z</time></trkpt><trkpt lat="45.47198630058755" lon="10.458552830990596"><ele>149.0</ele><time>2026-03-30T09:39:10.999Z</time></trkpt><trkpt lat="45.47204482711897" lon="10.45886578735243"><ele>149.0</ele><time>2026-03-30T09:39:11.999Z</time></trkpt><trkpt lat="45.47210892498179" lon="10.459176907478106"><ele>150.0</ele><time>2026-03-30T09:39:12.999Z</time></trkpt><trkpt lat="45.47217680283297" lon="10.45948087255244"><ele>151.0</ele><time>2026-03-30T09:39:13.999Z</time></trkpt><trkpt lat="45.472248927836254" lon="10.459783207826655"><ele>152.0</ele><time>2026-03-30T09:39:14.999Z</time></trkpt><trkpt lat="45.47232403554621" lon="10.460086701340678"><ele>152.0</ele><time>2026-03-30T09:39:15.998Z</time></trkpt><trkpt lat="45.472401145627934" lon="10.460391284108926"><ele>152.0</ele><time>2026-03-30T09:39:16.998Z</time></trkpt><trkpt lat="45.47247881463479" lon="10.460693690556367"><ele>152.0</ele><time>2026-03-30T09:39:17.998Z</time></trkpt><trkpt lat="45.472554502325565" lon="10.46099493635085"><ele>152.0</ele><time>2026-03-30T09:39:18.998Z</time></trkpt><trkpt lat="45.47262884936133" lon="10.461296185803109"><ele>152.0</ele><time>2026-03-30T09:39:19.998Z</time></trkpt><trkpt lat="45.47270332069742" lon="10.461597029952786"><ele>152.0</ele><time>2026-03-30T09:39:20.998Z</time></trkpt><trkpt lat="45.47278056149928" lon="10.46190300906561"><ele>152.0</ele><time>2026-03-30T09:39:22Z</time></trkpt><trkpt lat="45.47285667401446" lon="10.4622040769875"><ele>152.0</ele><time>2026-03-30T09:39:23Z</time></trkpt><trkpt lat="45.472931069900355" lon="10.462503774013328"><ele>152.0</ele><time>2026-03-30T09:39:24Z</time></trkpt><trkpt lat="45.473006034577" lon="10.462807837570757"><ele>152.0</ele><time>2026-03-30T09:39:25Z</time></trkpt><trkpt lat="45.47308144252897" lon="10.463111573652014"><ele>153.5</ele><time>2026-03-30T09:39:26Z</time></trkpt><trkpt lat="45.473160351154604" lon="10.463420870860705"><ele>155.0</ele><time>2026-03-30T09:39:27Z</time></trkpt><trkpt lat="45.47323645600753" lon="10.46372059752073"><ele>155.5</ele><time>2026-03-30T09:39:28Z</time></trkpt><trkpt lat="45.473314057744716" lon="10.464025994886963"><ele>156.0</ele><time>2026-03-30T09:39:29Z</time></trkpt><trkpt lat="45.473390278462766" lon="10.464325954055555"><ele>156.33333333333334</ele><time>2026-03-30T09:39:30Z</time></trkpt><trkpt lat="45.47346582416566" lon="10.464628526197084"><ele>156.66666666666669</ele><time>2026-03-30T09:39:31Z</time></trkpt><trkpt lat="45.473538618082266" lon="10.464928799549304"><ele>157.0</ele><time>2026-03-30T09:39:32Z</time></trkpt><trkpt lat="45.47361276259696" lon="10.465230420878614"><ele>157.0</ele><time>2026-03-30T09:39:33Z</time></trkpt><trkpt lat="45.473688783064595" lon="10.465529701849585"><ele>157.0</ele><time>2026-03-30T09:39:34Z</time></trkpt><trkpt lat="45.47376310111207" lon="10.465827066197313"><ele>157.0</ele><time>2026-03-30T09:39:35Z</time></trkpt><trkpt lat="45.47383895202651" lon="10.466125755869223"><ele>157.66666666666669</ele><time>2026-03-30T09:39:36Z</time></trkpt><trkpt lat="45.4739144721503" lon="10.466424565572934"><ele>158.33333333333334</ele><time>2026-03-30T09:39:37Z</time></trkpt><trkpt lat="45.473988969472636" lon="10.466729519357715"><ele>159.0</ele><time>2026-03-30T09:39:38Z</time></trkpt><trkpt lat="45.474063918956276" lon="10.467023774940147"><ele>160.0</ele><time>2026-03-30T09:39:39Z</time></trkpt><trkpt lat="45.47413608741673" lon="10.467333556214696"><ele>161.0</ele><time>2026-03-30T09:39:40Z</time></trkpt><trkpt lat="45.47420357060772" lon="10.46763562093121"><ele>161.0</ele><time>2026-03-30T09:39:41Z</time></trkpt><trkpt lat="45.47426798588016" lon="10.467940694055173"><ele>161.0</ele><time>2026-03-30T09:39:42Z</time></trkpt><trkpt lat="45.47432620208985" lon="10.468252620514118"><ele>161.5</ele><time>2026-03-30T09:39:43Z</time></trkpt><trkpt lat="45.47437683487708" lon="10.468563289478201"><ele>162.0</ele><time>2026-03-30T09:39:44Z</time></trkpt><trkpt lat="45.47442293707031" lon="10.468879187099503"><ele>163.0</ele><time>2026-03-30T09:39:45Z</time></trkpt><trkpt lat="45.47446196624197" lon="10.469198205907995"><ele>164.0</ele><time>2026-03-30T09:39:46Z</time></trkpt><trkpt lat="45.474502419430415" lon="10.469512795036511"><ele>164.66666666666666</ele><time>2026-03-30T09:39:47Z</time></trkpt><trkpt lat="45.47454120207014" lon="10.469826899222726"><ele>165.33333333333334</ele><time>2026-03-30T09:39:48Z</time></trkpt><trkpt lat="45.47457524460869" lon="10.470143695769593"><ele>166.0</ele><time>2026-03-30T09:39:49Z</time></trkpt><trkpt lat="45.4746063560291" lon="10.470446252740937"><ele>167.33333333333334</ele><time>2026-03-30T09:39:50Z</time></trkpt><trkpt lat="45.47463136064001" lon="10.470722205291233"><ele>168.66666666666666</ele><time>2026-03-30T09:39:51Z</time></trkpt><trkpt lat="45.47466141245077" lon="10.47101396098637"><ele>170.0</ele><time>2026-03-30T09:39:52Z</time></trkpt><trkpt lat="45.47468902194596" lon="10.471287370792616"><ele>172.66666666666666</ele><time>2026-03-30T09:39:53Z</time></trkpt><trkpt lat="45.474717696821884" lon="10.471562861705891"><ele>175.33333333333334</ele><time>2026-03-30T09:39:54Z</time></trkpt><trkpt lat="45.47474089215987" lon="10.471827797756928"><ele>178.0</ele><time>2026-03-30T09:39:55Z</time></trkpt><trkpt lat="45.47476099686243" lon="10.472081042960525"><ele>180.33333333333334</ele><time>2026-03-30T09:39:56Z</time></trkpt><trkpt lat="45.47477945331228" lon="10.47232002113563"><ele>182.66666666666666</ele><time>2026-03-30T09:39:57Z</time></trkpt><trkpt lat="45.47480705987608" lon="10.472565096029982"><ele>185.0</ele><time>2026-03-30T09:39:58Z</time></trkpt><trkpt lat="45.47484031634304" lon="10.472822891313424"><ele>186.0</ele><time>2026-03-30T09:39:59Z</time></trkpt><trkpt lat="45.4748545448957" lon="10.473066191032844"><ele>187.0</ele><time>2026-03-30T09:40:00Z</time></trkpt><trkpt lat="45.47487210505839" lon="10.473313290860034"><ele>188.0</ele><time>2026-03-30T09:40:01Z</time></trkpt><trkpt lat="45.47496935702833" lon="10.473630291456187"><ele>188.0</ele><time>2026-03-30T09:40:02.07Z</time></trkpt><trkpt lat="45.47501569749672" lon="10.473885335302093"><ele>188.0</ele><time>2026-03-30T09:40:03.069Z</time></trkpt><trkpt lat="45.475047460411325" lon="10.474159474016647"><ele>188.0</ele><time>2026-03-30T09:40:04.064Z</time></trkpt><trkpt lat="45.47508943942358" lon="10.474423914395771"><ele>188.66666666666666</ele><time>2026-03-30T09:40:05.057Z</time></trkpt><trkpt lat="45.47510022311325" lon="10.474676832900654"><ele>189.33333333333334</ele><time>2026-03-30T09:40:06.046Z</time></trkpt><trkpt lat="45.47513230649993" lon="10.47496615151583"><ele>190.0</ele><time>2026-03-30T09:40:07.036Z</time></trkpt><trkpt lat="45.47517548797236" lon="10.475271546446074"><ele>191.0</ele><time>2026-03-30T09:40:08.029Z</time></trkpt><trkpt lat="45.47526167259953" lon="10.47557362344289"><ele>192.0</ele><time>2026-03-30T09:40:09.026Z</time></trkpt><trkpt lat="45.47531899590654" lon="10.475874527143494"><ele>193.0</ele><time>2026-03-30T09:40:10.027Z</time></trkpt><trkpt lat="45.47538131726051" lon="10.476186429927866"><ele>194.0</ele><time>2026-03-30T09:40:11.025Z</time></trkpt><trkpt lat="45.47522498930542" lon="10.476783406297189"><ele>195.0</ele><time>2026-03-30T09:40:12.024Z</time></trkpt><trkpt lat="45.475306349350504" lon="10.477211011920577"><ele>196.0</ele><time>2026-03-30T09:40:13.026Z</time></trkpt><trkpt lat="45.47536742831946" lon="10.477603348635734"><ele>197.0</ele><time>2026-03-30T09:40:14.026Z</time></trkpt><trkpt lat="45.470748601078206" lon="10.491709510226148"><ele>185.75</ele><time>2026-03-30T09:41:31.998Z</time></trkpt><trkpt lat="45.470649644931314" lon="10.491874589649935"><ele>174.5</ele><time>2026-03-30T09:41:32.998Z</time></trkpt><trkpt lat="45.470540571969586" lon="10.492032642134927"><ele>163.25</ele><time>2026-03-30T09:41:33.998Z</time></trkpt><trkpt lat="45.470441023737735" lon="10.492175683503724"><ele>152.0</ele><time>2026-03-30T09:41:34.998Z</time></trkpt><trkpt lat="45.470342159319515" lon="10.492306217993848"><ele>151.79999999999998</ele><time>2026-03-30T09:41:36Z</time></trkpt><trkpt lat="45.47025409967163" lon="10.492424267867046"><ele>151.6</ele><time>2026-03-30T09:41:37Z</time></trkpt><trkpt lat="45.47017700315284" lon="10.492531387594141"><ele>151.39999999999998</ele><time>2026-03-30T09:41:38Z</time></trkpt><trkpt lat="45.470091522743836" lon="10.49261663654955"><ele>151.2</ele><time>2026-03-30T09:41:39Z</time></trkpt><trkpt lat="45.47001177071514" lon="10.492725739370522"><ele>151.0</ele><time>2026-03-30T09:41:40Z</time></trkpt><trkpt lat="45.46991829333766" lon="10.492853618810402"><ele>151.33333333333334</ele><time>2026-03-30T09:41:41Z</time></trkpt><trkpt lat="45.46981996350308" lon="10.492988136533535"><ele>151.66666666666666</ele><time>2026-03-30T09:41:42Z</time></trkpt><trkpt lat="45.46970010548412" lon="10.493152105296618"><ele>152.0</ele><time>2026-03-30T09:41:43Z</time></trkpt><trkpt lat="45.46956091860027" lon="10.493341999163725"><ele>152.0</ele><time>2026-03-30T09:41:44Z</time></trkpt><trkpt lat="45.469435401822984" lon="10.493513051024072"><ele>152.0</ele><time>2026-03-30T09:41:45Z</time></trkpt><trkpt lat="45.46931117425811" lon="10.493682345956373"><ele>152.0</ele><time>2026-03-30T09:41:46Z</time></trkpt><trkpt lat="45.469179904067744" lon="10.493861238443161"><ele>151.66666666666666</ele><time>2026-03-30T09:41:47Z</time></trkpt><trkpt lat="45.46903668837002" lon="10.494062394246386"><ele>151.33333333333334</ele><time>2026-03-30T09:41:48Z</time></trkpt><trkpt lat="45.46888833623872" lon="10.49427454708607"><ele>151.0</ele><time>2026-03-30T09:41:49Z</time></trkpt><trkpt lat="45.468758029653976" lon="10.494470544903132"><ele>149.66666666666669</ele><time>2026-03-30T09:41:50Z</time></trkpt><trkpt lat="45.468644496257745" lon="10.494666793635492"><ele>148.33333333333334</ele><time>2026-03-30T09:41:51Z</time></trkpt><trkpt lat="45.46853630442013" lon="10.494835039695328"><ele>147.0</ele><time>2026-03-30T09:41:52Z</time></trkpt><trkpt lat="45.46843485491143" lon="10.495014463281198"><ele>147.0</ele><time>2026-03-30T09:41:53Z</time></trkpt><trkpt lat="45.46834252859043" lon="10.495199868841238"><ele>147.0</ele><time>2026-03-30T09:41:54Z</time></trkpt><trkpt lat="45.46825775958175" lon="10.49537861115986"><ele>147.0</ele><time>2026-03-30T09:41:55Z</time></trkpt><trkpt lat="45.46817740172337" lon="10.495562574288726"><ele>145.66666666666666</ele><time>2026-03-30T09:41:56Z</time></trkpt><trkpt lat="45.468103216564955" lon="10.49574782511295"><ele>144.33333333333331</ele><time>2026-03-30T09:41:57Z</time></trkpt><trkpt lat="45.46803419853647" lon="10.495936615885105"><ele>143.0</ele><time>2026-03-30T09:41:58Z</time></trkpt><trkpt lat="45.46796540545953" lon="10.496133794689328"><ele>144.66666666666666</ele><time>2026-03-30T09:41:59Z</time></trkpt><trkpt lat="45.46789473498174" lon="10.496330010635427"><ele>146.33333333333334</ele><time>2026-03-30T09:42:00Z</time></trkpt><trkpt lat="45.46782365537708" lon="10.496533188893697"><ele>148.0</ele><time>2026-03-30T09:42:01Z</time></trkpt><trkpt lat="45.467754425306296" lon="10.496735833731371"><ele>148.0</ele><time>2026-03-30T09:42:02Z</time></trkpt><trkpt lat="45.46768404514789" lon="10.496937116167494"><ele>148.0</ele><time>2026-03-30T09:42:03Z</time></trkpt><trkpt lat="45.467617414017376" lon="10.497149055934432"><ele>148.0</ele><time>2026-03-30T09:42:04Z</time></trkpt><trkpt lat="45.46754940367386" lon="10.497357673272814"><ele>147.0</ele><time>2026-03-30T09:42:05Z</time></trkpt><trkpt lat="45.46747907820655" lon="10.497577619588082"><ele>146.0</ele><time>2026-03-30T09:42:06Z</time></trkpt><trkpt lat="45.46740031860578" lon="10.497826405351645"><ele>145.0</ele><time>2026-03-30T09:42:07Z</time></trkpt><trkpt lat="45.46731826817192" lon="10.498093739440213"><ele>145.0</ele><time>2026-03-30T09:42:08Z</time></trkpt><trkpt lat="45.46720531020887" lon="10.498392274555746"><ele>145.0</ele><time>2026-03-30T09:42:09Z</time></trkpt><trkpt lat="45.46709800635639" lon="10.498718775211724"><ele>144.0</ele><time>2026-03-30T09:42:10Z</time></trkpt><trkpt lat="45.46699651761443" lon="10.499025144958686"><ele>143.0</ele><time>2026-03-30T09:42:11Z</time></trkpt><trkpt lat="45.46690905835958" lon="10.499330079398955"><ele>142.33333333333331</ele><time>2026-03-30T09:42:12Z</time></trkpt><trkpt lat="45.46681096157887" lon="10.499610261561951"><ele>141.66666666666666</ele><time>2026-03-30T09:42:13Z</time></trkpt><trkpt lat="45.466716127522865" lon="10.499885760849713"><ele>141.0</ele><time>2026-03-30T09:42:14Z</time></trkpt><trkpt lat="45.466625632871036" lon="10.500150639178004"><ele>141.0</ele><time>2026-03-30T09:42:15Z</time></trkpt><trkpt lat="45.46654021686761" lon="10.500388634692376"><ele>141.0</ele><time>2026-03-30T09:42:16Z</time></trkpt><trkpt lat="45.466453593714455" lon="10.500626340627738"><ele>141.0</ele><time>2026-03-30T09:42:17Z</time></trkpt><trkpt lat="45.46635664391598" lon="10.500857900759812"><ele>141.0</ele><time>2026-03-30T09:42:18Z</time></trkpt><trkpt lat="45.46624984144125" lon="10.501087883086873"><ele>141.0</ele><time>2026-03-30T09:42:19Z</time></trkpt><trkpt lat="45.466137724055045" lon="10.501306456356607"><ele>141.0</ele><time>2026-03-30T09:42:20Z</time></trkpt><trkpt lat="45.46601983120601" lon="10.501523799566915"><ele>141.0</ele><time>2026-03-30T09:42:21Z</time></trkpt><trkpt lat="45.465906036410296" lon="10.501718614681126"><ele>141.0</ele><time>2026-03-30T09:42:22Z</time></trkpt><trkpt lat="45.46576909681655" lon="10.501908221427321"><ele>141.0</ele><time>2026-03-30T09:42:23Z</time></trkpt><trkpt lat="45.465629308931305" lon="10.502135709098773"><ele>141.0</ele><time>2026-03-30T09:42:24Z</time></trkpt><trkpt lat="45.46548976110502" lon="10.50235584471036"><ele>141.0</ele><time>2026-03-30T09:42:25Z</time></trkpt><trkpt lat="45.465370496393774" lon="10.502578418704287"><ele>141.0</ele><time>2026-03-30T09:42:26Z</time></trkpt><trkpt lat="45.46523684789329" lon="10.502792425462548"><ele>141.66666666666666</ele><time>2026-03-30T09:42:27Z</time></trkpt><trkpt lat="45.465111273970244" lon="10.502991468287506"><ele>142.33333333333331</ele><time>2026-03-30T09:42:27.999Z</time></trkpt><trkpt lat="45.464987287899746" lon="10.503192062135739"><ele>143.0</ele><time>2026-03-30T09:42:28.999Z</time></trkpt><trkpt lat="45.4648558975283" lon="10.503363713711318"><ele>143.0</ele><time>2026-03-30T09:42:29.999Z</time></trkpt><trkpt lat="45.46474294093826" lon="10.503541569876452"><ele>143.0</ele><time>2026-03-30T09:42:30.999Z</time></trkpt><trkpt lat="45.46464098220967" lon="10.503737266088974"><ele>143.0</ele><time>2026-03-30T09:42:31.999Z</time></trkpt><trkpt lat="45.46452167883505" lon="10.503932340203898"><ele>144.66666666666666</ele><time>2026-03-30T09:42:32.999Z</time></trkpt><trkpt lat="45.46440758882878" lon="10.504113991493243"><ele>146.33333333333334</ele><time>2026-03-30T09:42:33.999Z</time></trkpt><trkpt lat="45.46428487603025" lon="10.504308161692366"><ele>148.0</ele><time>2026-03-30T09:42:34.999Z</time></trkpt><trkpt lat="45.464169740754826" lon="10.50449045264176"><ele>147.0</ele><time>2026-03-30T09:42:35.999Z</time></trkpt><trkpt lat="45.46405234944217" lon="10.50467344623813"><ele>146.0</ele><time>2026-03-30T09:42:36.999Z</time></trkpt><trkpt lat="45.463933901991055" lon="10.504861279116277"><ele>145.0</ele><time>2026-03-30T09:42:37.999Z</time></trkpt><trkpt lat="45.463818603338005" lon="10.50504586795461"><ele>146.66666666666669</ele><time>2026-03-30T09:42:38.999Z</time></trkpt><trkpt lat="45.46370968841689" lon="10.505218869250609"><ele>148.33333333333334</ele><time>2026-03-30T09:42:39.999Z</time></trkpt><trkpt lat="45.463598178822956" lon="10.505398394926903"><ele>150.0</ele><time>2026-03-30T09:42:40.999Z</time></trkpt><trkpt lat="45.463487867306846" lon="10.505577127262653"><ele>150.0</ele><time>2026-03-30T09:42:41.999Z</time></trkpt><trkpt lat="45.46337397202215" lon="10.505755278872265"><ele>150.0</ele><time>2026-03-30T09:42:42.999Z</time></trkpt><trkpt lat="45.46326084368415" lon="10.505934744731642"><ele>150.0</ele><time>2026-03-30T09:42:43.999Z</time></trkpt><trkpt lat="45.463150477956304" lon="10.506112240763782"><ele>149.66666666666666</ele><time>2026-03-30T09:42:44.999Z</time></trkpt><trkpt lat="45.46304041608852" lon="10.50628455362741"><ele>149.33333333333331</ele><time>2026-03-30T09:42:45.999Z</time></trkpt><trkpt lat="45.46292804299055" lon="10.506463223921205"><ele>149.0</ele><time>2026-03-30T09:42:46.999Z</time></trkpt><trkpt lat="45.46281824943296" lon="10.506639952129357"><ele>149.0</ele><time>2026-03-30T09:42:47.999Z</time></trkpt><trkpt lat="45.462711693757925" lon="10.506811765431822"><ele>149.0</ele><time>2026-03-30T09:42:48.999Z</time></trkpt><trkpt lat="45.462607034347606" lon="10.506983488548526"><ele>149.0</ele><time>2026-03-30T09:42:49.999Z</time></trkpt><trkpt lat="45.46250541430844" lon="10.507149481687957"><ele>149.0</ele><time>2026-03-30T09:42:50.999Z</time></trkpt><trkpt lat="45.4623960405383" lon="10.507324997366165"><ele>149.0</ele><time>2026-03-30T09:42:51.999Z</time></trkpt><trkpt lat="45.46228963470762" lon="10.507499779596447"><ele>149.0</ele><time>2026-03-30T09:42:52.999Z</time></trkpt><trkpt lat="45.46218831420004" lon="10.507661123144025"><ele>152.0</ele><time>2026-03-30T09:42:53.999Z</time></trkpt><trkpt lat="45.46208364674598" lon="10.507834891427349"><ele>155.0</ele><time>2026-03-30T09:42:54.999Z</time></trkpt><trkpt lat="45.46197414338835" lon="10.508014918848064"><ele>158.0</ele><time>2026-03-30T09:42:55.999Z</time></trkpt><trkpt lat="45.46185516185702" lon="10.508209238608634"><ele>158.0</ele><time>2026-03-30T09:42:56.999Z</time></trkpt><trkpt lat="45.46173595865924" lon="10.508400454524365"><ele>158.0</ele><time>2026-03-30T09:42:57.999Z</time></trkpt><trkpt lat="45.46162042740065" lon="10.508587673921104"><ele>158.0</ele><time>2026-03-30T09:42:58.999Z</time></trkpt><trkpt lat="45.46150093566894" lon="10.508788595064884"><ele>160.33333333333331</ele><time>2026-03-30T09:42:59.999Z</time></trkpt><trkpt lat="45.46138088193508" lon="10.508984449636646"><ele>162.66666666666666</ele><time>2026-03-30T09:43:00.999Z</time></trkpt><trkpt lat="45.46125721481054" lon="10.50918689147908"><ele>165.0</ele><time>2026-03-30T09:43:01.999Z</time></trkpt><trkpt lat="45.46113918985898" lon="10.50938668677212"><ele>160.0</ele><time>2026-03-30T09:43:02.999Z</time></trkpt><trkpt lat="45.46101468957542" lon="10.509593113027378"><ele>155.0</ele><time>2026-03-30T09:43:03.999Z</time></trkpt><trkpt lat="45.46089480813868" lon="10.50979039273128"><ele>150.0</ele><time>2026-03-30T09:43:04.999Z</time></trkpt><trkpt lat="45.46077237705994" lon="10.509997363122746"><ele>150.0</ele><time>2026-03-30T09:43:05.999Z</time></trkpt><trkpt lat="45.460661008107415" lon="10.510177532828648"><ele>150.0</ele><time>2026-03-30T09:43:06.999Z</time></trkpt><trkpt lat="45.46054753459186" lon="10.510363891135173"><ele>150.0</ele><time>2026-03-30T09:43:07.999Z</time></trkpt><trkpt lat="45.460430987712186" lon="10.510554274241727"><ele>148.66666666666666</ele><time>2026-03-30T09:43:08.999Z</time></trkpt><trkpt lat="45.4603161067399" lon="10.51073920681853"><ele>147.33333333333331</ele><time>2026-03-30T09:43:09.999Z</time></trkpt><trkpt lat="45.4602026285806" lon="10.510928760614144"><ele>146.0</ele><time>2026-03-30T09:43:10.999Z</time></trkpt><trkpt lat="45.460087867241" lon="10.511116862698714"><ele>144.33333333333331</ele><time>2026-03-30T09:43:11.999Z</time></trkpt><trkpt lat="45.459975949191126" lon="10.511297931302613"><ele>142.66666666666666</ele><time>2026-03-30T09:43:12.999Z</time></trkpt><trkpt lat="45.45986307403808" lon="10.511480128143925"><ele>141.0</ele><time>2026-03-30T09:43:13.999Z</time></trkpt><trkpt lat="45.45975294217331" lon="10.51166192447577"><ele>141.0</ele><time>2026-03-30T09:43:14.999Z</time></trkpt><trkpt lat="45.45964508460757" lon="10.511838121412444"><ele>141.0</ele><time>2026-03-30T09:43:15.999Z</time></trkpt><trkpt lat="45.45953217605567" lon="10.512019962145443"><ele>141.0</ele><time>2026-03-30T09:43:16.999Z</time></trkpt><trkpt lat="45.45942256238447" lon="10.512199944285113"><ele>140.0</ele><time>2026-03-30T09:43:17.999Z</time></trkpt><trkpt lat="45.45931420296148" lon="10.512380912368236"><ele>139.0</ele><time>2026-03-30T09:43:18.999Z</time></trkpt><trkpt lat="45.45920074104059" lon="10.512564199330187"><ele>138.0</ele><time>2026-03-30T09:43:19.999Z</time></trkpt><trkpt lat="45.4590881546142" lon="10.512751241351516"><ele>138.0</ele><time>2026-03-30T09:43:20.999Z</time></trkpt><trkpt lat="45.45897361000153" lon="10.512932010327093"><ele>138.0</ele><time>2026-03-30T09:43:21.999Z</time></trkpt><trkpt lat="45.45886449600243" lon="10.51312644940895"><ele>138.0</ele><time>2026-03-30T09:43:22.999Z</time></trkpt><trkpt lat="45.45875116852853" lon="10.513326238986517"><ele>138.0</ele><time>2026-03-30T09:43:23.999Z</time></trkpt><trkpt lat="45.45864865326479" lon="10.513527813806402"><ele>138.0</ele><time>2026-03-30T09:43:24.999Z</time></trkpt><trkpt lat="45.458544810882074" lon="10.51374865331693"><ele>138.0</ele><time>2026-03-30T09:43:25.999Z</time></trkpt><trkpt lat="45.45845413328206" lon="10.513976296837392"><ele>137.0</ele><time>2026-03-30T09:43:26.999Z</time></trkpt><trkpt lat="45.458377397918355" lon="10.514202855336876"><ele>136.0</ele><time>2026-03-30T09:43:27.999Z</time></trkpt><trkpt lat="45.458302557889624" lon="10.514440561312755"><ele>135.0</ele><time>2026-03-30T09:43:28.999Z</time></trkpt><trkpt lat="45.45823824660454" lon="10.514678382273246"><ele>135.0</ele><time>2026-03-30T09:43:29.999Z</time></trkpt><trkpt lat="45.45817850933431" lon="10.514944137553394"><ele>135.0</ele><time>2026-03-30T09:43:30.999Z</time></trkpt><trkpt lat="45.45812351134168" lon="10.51520113688406"><ele>135.0</ele><time>2026-03-30T09:43:31.999Z</time></trkpt><trkpt lat="45.4580802189376" lon="10.515451612821"><ele>134.66666666666666</ele><time>2026-03-30T09:43:32.998Z</time></trkpt><trkpt lat="45.45805053925407" lon="10.515723660563406"><ele>134.33333333333331</ele><time>2026-03-30T09:43:33.998Z</time></trkpt><trkpt lat="45.45803042455017" lon="10.515981882971605"><ele>134.0</ele><time>2026-03-30T09:43:34.998Z</time></trkpt><trkpt lat="45.45801251313536" lon="10.516244258761692"><ele>133.66666666666666</ele><time>2026-03-30T09:43:35.998Z</time></trkpt><trkpt lat="45.4579922005368" lon="10.516485088411905"><ele>133.33333333333334</ele><time>2026-03-30T09:43:36.998Z</time></trkpt><trkpt lat="45.45796963428481" lon="10.51673482607054"><ele>133.0</ele><time>2026-03-30T09:43:37.998Z</time></trkpt><trkpt lat="45.457952987651666" lon="10.516978674056398"><ele>135.0</ele><time>2026-03-30T09:43:38.998Z</time></trkpt><trkpt lat="45.45794739734538" lon="10.517225538316094"><ele>137.0</ele><time>2026-03-30T09:43:39.998Z</time></trkpt><trkpt lat="45.45794918608795" lon="10.517477875281635"><ele>139.0</ele><time>2026-03-30T09:43:41Z</time></trkpt><trkpt lat="45.45795149477293" lon="10.517732158301087"><ele>139.33333333333334</ele><time>2026-03-30T09:43:42Z</time></trkpt><trkpt lat="45.457950911853814" lon="10.517993490130035"><ele>139.66666666666666</ele><time>2026-03-30T09:43:43Z</time></trkpt><trkpt lat="45.45794489337263" lon="10.518258575453887"><ele>140.0</ele><time>2026-03-30T09:43:44Z</time></trkpt><trkpt lat="45.45793673667521" lon="10.518537832727601"><ele>137.33333333333331</ele><time>2026-03-30T09:43:45Z</time></trkpt><trkpt lat="45.457923995725224" lon="10.518804253171758"><ele>134.66666666666666</ele><time>2026-03-30T09:43:46Z</time></trkpt><trkpt lat="45.45791082775292" lon="10.519072550600246"><ele>132.0</ele><time>2026-03-30T09:43:47Z</time></trkpt><trkpt lat="45.45789669858535" lon="10.519346064756906"><ele>130.0</ele><time>2026-03-30T09:43:48Z</time></trkpt><trkpt lat="45.45788285001034" lon="10.51962519718273"><ele>128.0</ele><time>2026-03-30T09:43:49Z</time></trkpt><trkpt lat="45.45786835709539" lon="10.519917344570588"><ele>126.0</ele><time>2026-03-30T09:43:50Z</time></trkpt><trkpt lat="45.45785509000127" lon="10.520194860663413"><ele>125.66666666666666</ele><time>2026-03-30T09:43:51Z</time></trkpt><trkpt lat="45.45784193822279" lon="10.520478623665138"><ele>125.33333333333333</ele><time>2026-03-30T09:43:52Z</time></trkpt><trkpt lat="45.45782547297098" lon="10.520764243613824"><ele>125.0</ele><time>2026-03-30T09:43:53Z</time></trkpt><trkpt lat="45.45780195928856" lon="10.52105175020797"><ele>124.0</ele><time>2026-03-30T09:43:54Z</time></trkpt><trkpt lat="45.45776493434836" lon="10.521338498323805"><ele>123.0</ele><time>2026-03-30T09:43:55Z</time></trkpt><trkpt lat="45.45771317240133" lon="10.521625830646592"><ele>122.0</ele><time>2026-03-30T09:43:56Z</time></trkpt><trkpt lat="45.45764476073037" lon="10.521904282297443"><ele>121.66666666666666</ele><time>2026-03-30T09:43:57Z</time></trkpt><trkpt lat="45.45755525639208" lon="10.522178144778135"><ele>121.33333333333334</ele><time>2026-03-30T09:43:58Z</time></trkpt><trkpt lat="45.45745390766908" lon="10.522444896012257"><ele>121.0</ele><time>2026-03-30T09:43:59Z</time></trkpt><trkpt lat="45.45732718672446" lon="10.522707248482362"><ele>120.66666666666667</ele><time>2026-03-30T09:44:00Z</time></trkpt><trkpt lat="45.45719574665372" lon="10.522946738070173"><ele>120.33333333333334</ele><time>2026-03-30T09:44:01Z</time></trkpt><trkpt lat="45.45705918369613" lon="10.523164468548064"><ele>120.0</ele><time>2026-03-30T09:44:02Z</time></trkpt><trkpt lat="45.45690264568107" lon="10.523379940027818"><ele>120.0</ele><time>2026-03-30T09:44:03.071Z</time></trkpt><trkpt lat="45.45675895027588" lon="10.523567233069683"><ele>120.0</ele><time>2026-03-30T09:44:04.071Z</time></trkpt><trkpt lat="45.45659890516785" lon="10.523769188481221"><ele>120.0</ele><time>2026-03-30T09:44:05.066Z</time></trkpt><trkpt lat="45.45643248673914" lon="10.523979360640563"><ele>119.5</ele><time>2026-03-30T09:44:06.071Z</time></trkpt><trkpt lat="45.456232011836306" lon="10.524233758631548"><ele>119.0</ele><time>2026-03-30T09:44:07.064Z</time></trkpt><trkpt lat="45.4560222055877" lon="10.5245065673836"><ele>117.5</ele><time>2026-03-30T09:44:08.052Z</time></trkpt><trkpt lat="45.455795570706336" lon="10.524831749129854"><ele>116.0</ele><time>2026-03-30T09:44:09.039Z</time></trkpt><trkpt lat="45.455533286978714" lon="10.525482099396433"><ele>118.0</ele><time>2026-03-30T09:44:14Z</time></trkpt><trkpt lat="45.45543172876422" lon="10.525705592091784"><ele>120.0</ele><time>2026-03-30T09:44:15Z</time></trkpt><trkpt lat="45.45531674996593" lon="10.525858898021337"><ele>122.0</ele><time>2026-03-30T09:44:16Z</time></trkpt><trkpt lat="45.45523849297282" lon="10.526034642304818"><ele>122.33333333333333</ele><time>2026-03-30T09:44:17Z</time></trkpt><trkpt lat="45.4551505126499" lon="10.526280408473607"><ele>122.66666666666666</ele><time>2026-03-30T09:44:18Z</time></trkpt><trkpt lat="45.45504419438816" lon="10.526546277849187"><ele>123.0</ele><time>2026-03-30T09:44:19Z</time></trkpt><trkpt lat="45.45495910833893" lon="10.526796072690589"><ele>119.0</ele><time>2026-03-30T09:44:20Z</time></trkpt><trkpt lat="45.45364314939032" lon="10.530380229428415"><ele>117.66666666666666</ele><time>2026-03-30T09:44:35.027Z</time></trkpt><trkpt lat="45.45353916062249" lon="10.53055133958055"><ele>116.33333333333334</ele><time>2026-03-30T09:44:36.027Z</time></trkpt><trkpt lat="45.45344740127399" lon="10.530764656076096"><ele>115.0</ele><time>2026-03-30T09:44:37.03Z</time></trkpt><trkpt lat="45.45330723218775" lon="10.53110924740878"><ele>112.5</ele><time>2026-03-30T09:44:38.03Z</time></trkpt><trkpt lat="45.45318219407064" lon="10.53141908491295"><ele>110.0</ele><time>2026-03-30T09:44:39.031Z</time></trkpt><trkpt lat="45.45307793323651" lon="10.531684847323582"><ele>106.0</ele><time>2026-03-30T09:44:40.031Z</time></trkpt><trkpt lat="45.45291096357399" lon="10.532320964420343"><ele>106.0</ele><time>2026-03-30T09:44:40.999Z</time></trkpt><trkpt lat="45.452849837369506" lon="10.532579808077095"><ele>106.0</ele><time>2026-03-30T09:44:41.999Z</time></trkpt><trkpt lat="45.45277067553806" lon="10.5328534986984"><ele>106.0</ele><time>2026-03-30T09:44:42.999Z</time></trkpt><trkpt lat="45.45269549090904" lon="10.533130554088624"><ele>105.66666666666667</ele><time>2026-03-30T09:44:43.999Z</time></trkpt><trkpt lat="45.4526363619058" lon="10.533435653191164"><ele>105.33333333333334</ele><time>2026-03-30T09:44:44.999Z</time></trkpt><trkpt lat="45.45255583618214" lon="10.533730278029513"><ele>105.0</ele><time>2026-03-30T09:44:45.999Z</time></trkpt><trkpt lat="45.45248953176285" lon="10.533982941911082"><ele>104.0</ele><time>2026-03-30T09:44:46.999Z</time></trkpt><trkpt lat="45.45242658378102" lon="10.534304722354515"><ele>103.0</ele><time>2026-03-30T09:44:47.999Z</time></trkpt><trkpt lat="45.45235742538393" lon="10.534609474567182"><ele>102.0</ele><time>2026-03-30T09:44:48.999Z</time></trkpt><trkpt lat="45.452285578030875" lon="10.5348957214639"><ele>101.0</ele><time>2026-03-30T09:44:49.999Z</time></trkpt><trkpt lat="45.45222467701639" lon="10.535184435830569"><ele>100.0</ele><time>2026-03-30T09:44:50.999Z</time></trkpt><trkpt lat="45.45215828435426" lon="10.535474431397637"><ele>100.33333333333334</ele><time>2026-03-30T09:44:51.999Z</time></trkpt><trkpt lat="45.45209195519846" lon="10.53575804048197"><ele>100.66666666666666</ele><time>2026-03-30T09:44:52.999Z</time></trkpt><trkpt lat="45.45202512002071" lon="10.536044020680478"><ele>101.0</ele><time>2026-03-30T09:44:53.999Z</time></trkpt><trkpt lat="45.45196077031828" lon="10.536322488557408"><ele>101.0</ele><time>2026-03-30T09:44:54.999Z</time></trkpt><trkpt lat="45.451901610201176" lon="10.536590655072409"><ele>101.0</ele><time>2026-03-30T09:44:55.999Z</time></trkpt><trkpt lat="45.45184153922599" lon="10.536862286019005"><ele>101.0</ele><time>2026-03-30T09:44:56.999Z</time></trkpt><trkpt lat="45.45178063639794" lon="10.537125186852553"><ele>100.33333333333333</ele><time>2026-03-30T09:44:57.999Z</time></trkpt><trkpt lat="45.45170915127455" lon="10.537380411958676"><ele>99.66666666666666</ele><time>2026-03-30T09:44:58.999Z</time></trkpt><trkpt lat="45.451656789516896" lon="10.537662808393419"><ele>99.0</ele><time>2026-03-30T09:44:59.999Z</time></trkpt><trkpt lat="45.45159733227056" lon="10.537920808815487"><ele>98.33333333333334</ele><time>2026-03-30T09:45:00.999Z</time></trkpt><trkpt lat="45.45153610388906" lon="10.538212688066483"><ele>97.66666666666667</ele><time>2026-03-30T09:45:01.999Z</time></trkpt><trkpt lat="45.451471261581105" lon="10.538489810006846"><ele>97.0</ele><time>2026-03-30T09:45:02.999Z</time></trkpt><trkpt lat="45.45140713417323" lon="10.53877195047869"><ele>96.66666666666667</ele><time>2026-03-30T09:45:03.999Z</time></trkpt><trkpt lat="45.45133958132869" lon="10.539067437843277"><ele>96.33333333333334</ele><time>2026-03-30T09:45:04.999Z</time></trkpt><trkpt lat="45.45127081308811" lon="10.539358336290087"><ele>96.0</ele><time>2026-03-30T09:45:05.999Z</time></trkpt><trkpt lat="45.451203286890674" lon="10.539652535949438"><ele>96.0</ele><time>2026-03-30T09:45:06.999Z</time></trkpt><trkpt lat="45.451137280551656" lon="10.539933741332126"><ele>96.0</ele><time>2026-03-30T09:45:07.999Z</time></trkpt><trkpt lat="45.451070530999246" lon="10.540230442703802"><ele>96.0</ele><time>2026-03-30T09:45:08.999Z</time></trkpt><trkpt lat="45.451002555212575" lon="10.540521975668973"><ele>96.0</ele><time>2026-03-30T09:45:09.999Z</time></trkpt><trkpt lat="45.45093421830023" lon="10.540814490550412"><ele>96.0</ele><time>2026-03-30T09:45:10.999Z</time></trkpt><trkpt lat="45.450867902873654" lon="10.541096008291817"><ele>96.0</ele><time>2026-03-30T09:45:11.999Z</time></trkpt><trkpt lat="45.450801389681935" lon="10.541370968890266"><ele>95.66666666666667</ele><time>2026-03-30T09:45:12.999Z</time></trkpt><trkpt lat="45.45073726315417" lon="10.541646932339761"><ele>95.33333333333334</ele><time>2026-03-30T09:45:13.999Z</time></trkpt><trkpt lat="45.45067313363928" lon="10.541929079478864"><ele>95.0</ele><time>2026-03-30T09:45:14.999Z</time></trkpt><trkpt lat="45.450607170736575" lon="10.542217319459308"><ele>95.0</ele><time>2026-03-30T09:45:15.999Z</time></trkpt><trkpt lat="45.45054426915602" lon="10.542492130644124"><ele>95.0</ele><time>2026-03-30T09:45:16.999Z</time></trkpt><trkpt lat="45.4504786838068" lon="10.542770150917548"><ele>95.0</ele><time>2026-03-30T09:45:17.999Z</time></trkpt><trkpt lat="45.45041359645606" lon="10.543051085354822"><ele>95.0</ele><time>2026-03-30T09:45:18.999Z</time></trkpt><trkpt lat="45.450348124750434" lon="10.543332846862757"><ele>95.0</ele><time>2026-03-30T09:45:19.999Z</time></trkpt><trkpt lat="45.450281090710824" lon="10.54361187067254"><ele>95.0</ele><time>2026-03-30T09:45:20.999Z</time></trkpt><trkpt lat="45.45021359597328" lon="10.543898815377851"><ele>94.66666666666667</ele><time>2026-03-30T09:45:21.999Z</time></trkpt><trkpt lat="45.45014719990957" lon="10.544189873166344"><ele>94.33333333333333</ele><time>2026-03-30T09:45:22.999Z</time></trkpt><trkpt lat="45.45007888070524" lon="10.544478666658442"><ele>94.0</ele><time>2026-03-30T09:45:23.999Z</time></trkpt><trkpt lat="45.45001053493748" lon="10.544769345467106"><ele>93.66666666666666</ele><time>2026-03-30T09:45:24.999Z</time></trkpt><trkpt lat="45.4499427958164" lon="10.545059219365186"><ele>93.33333333333333</ele><time>2026-03-30T09:45:25.999Z</time></trkpt><trkpt lat="45.44987657229222" lon="10.545343767460789"><ele>93.0</ele><time>2026-03-30T09:45:26.999Z</time></trkpt><trkpt lat="45.44980875144836" lon="10.54564071331435"><ele>93.0</ele><time>2026-03-30T09:45:27.999Z</time></trkpt><trkpt lat="45.44973787237603" lon="10.545935366302178"><ele>93.0</ele><time>2026-03-30T09:45:28.999Z</time></trkpt><trkpt lat="45.44966815424212" lon="10.54623154314385"><ele>93.0</ele><time>2026-03-30T09:45:29.999Z</time></trkpt><trkpt lat="45.44959858653558" lon="10.546521113305449"><ele>92.33333333333333</ele><time>2026-03-30T09:45:30.999Z</time></trkpt><trkpt lat="45.44953649685375" lon="10.54679943249616"><ele>91.66666666666666</ele><time>2026-03-30T09:45:31.999Z</time></trkpt><trkpt lat="45.44947388026945" lon="10.547064934429805"><ele>91.0</ele><time>2026-03-30T09:45:32.999Z</time></trkpt><trkpt lat="45.44941350125262" lon="10.547324232710192"><ele>90.33333333333333</ele><time>2026-03-30T09:45:33.999Z</time></trkpt><trkpt lat="45.449356802914146" lon="10.547573725309194"><ele>89.66666666666667</ele><time>2026-03-30T09:45:34.999Z</time></trkpt><trkpt lat="45.44929987718654" lon="10.54781606087355"><ele>89.0</ele><time>2026-03-30T09:45:35.999Z</time></trkpt><trkpt lat="45.44924333263775" lon="10.548059019260709"><ele>89.0</ele><time>2026-03-30T09:45:36.999Z</time></trkpt><trkpt lat="45.44918844165353" lon="10.548295329738863"><ele>89.0</ele><time>2026-03-30T09:45:37.999Z</time></trkpt><trkpt lat="45.44913665562015" lon="10.548521814017063"><ele>89.0</ele><time>2026-03-30T09:45:38.999Z</time></trkpt><trkpt lat="45.44908480486221" lon="10.548745974177494"><ele>89.33333333333334</ele><time>2026-03-30T09:45:39.999Z</time></trkpt><trkpt lat="45.449031647394115" lon="10.548967285322934"><ele>89.66666666666667</ele><time>2026-03-30T09:45:40.999Z</time></trkpt><trkpt lat="45.448983280266404" lon="10.549177262864665"><ele>90.0</ele><time>2026-03-30T09:45:41.999Z</time></trkpt><trkpt lat="45.4489340258087" lon="10.549380261188412"><ele>89.75</ele><time>2026-03-30T09:45:42.998Z</time></trkpt><trkpt lat="45.44888881339361" lon="10.54957038195497"><ele>89.5</ele><time>2026-03-30T09:45:43.998Z</time></trkpt><trkpt lat="45.448848407099874" lon="10.549755988052521"><ele>89.25</ele><time>2026-03-30T09:45:44.998Z</time></trkpt><trkpt lat="45.44880555571414" lon="10.549931163346436"><ele>89.0</ele><time>2026-03-30T09:45:45.998Z</time></trkpt><trkpt lat="45.44876441943998" lon="10.550098859738034"><ele>89.0</ele><time>2026-03-30T09:45:47Z</time></trkpt><trkpt lat="45.44872451702407" lon="10.55026875639517"><ele>89.0</ele><time>2026-03-30T09:45:48Z</time></trkpt><trkpt lat="45.44868554592755" lon="10.550444733437965"><ele>89.0</ele><time>2026-03-30T09:45:49Z</time></trkpt><trkpt lat="45.448647265269145" lon="10.550618119486536"><ele>89.0</ele><time>2026-03-30T09:45:50Z</time></trkpt><trkpt lat="45.448606503002175" lon="10.550796222955556"><ele>89.0</ele><time>2026-03-30T09:45:51Z</time></trkpt><trkpt lat="45.448561626558195" lon="10.550975682240702"><ele>89.0</ele><time>2026-03-30T09:45:52Z</time></trkpt><trkpt lat="45.448515092792036" lon="10.551162479109436"><ele>89.0</ele><time>2026-03-30T09:45:53Z</time></trkpt><trkpt lat="45.448469311646534" lon="10.551354268988074"><ele>89.0</ele><time>2026-03-30T09:45:54Z</time></trkpt><trkpt lat="45.4484235990301" lon="10.551555725404512"><ele>89.0</ele><time>2026-03-30T09:45:55Z</time></trkpt><trkpt lat="45.4483718669027" lon="10.55175719783449"><ele>89.0</ele><time>2026-03-30T09:45:56Z</time></trkpt><trkpt lat="45.44832525841754" lon="10.551964879914554"><ele>89.0</ele><time>2026-03-30T09:45:57Z</time></trkpt><trkpt lat="45.448277521082154" lon="10.55217784910279"><ele>88.0</ele><time>2026-03-30T09:45:58Z</time></trkpt><trkpt lat="45.44822872454844" lon="10.552398084406276"><ele>87.0</ele><time>2026-03-30T09:45:59Z</time></trkpt><trkpt lat="45.44818350467347" lon="10.552620232197183"><ele>86.0</ele><time>2026-03-30T09:46:00Z</time></trkpt><trkpt lat="45.44813731844904" lon="10.552851437393052"><ele>86.66666666666667</ele><time>2026-03-30T09:46:01Z</time></trkpt><trkpt lat="45.44808935886821" lon="10.553072001118897"><ele>87.33333333333333</ele><time>2026-03-30T09:46:02Z</time></trkpt><trkpt lat="45.448038694474356" lon="10.55330780667049"><ele>88.0</ele><time>2026-03-30T09:46:03Z</time></trkpt><trkpt lat="45.44799283130047" lon="10.55353175359788"><ele>87.66666666666666</ele><time>2026-03-30T09:46:04Z</time></trkpt><trkpt lat="45.44794697313603" lon="10.553759106832434"><ele>87.33333333333333</ele><time>2026-03-30T09:46:05Z</time></trkpt><trkpt lat="45.44790133164985" lon="10.553987770380573"><ele>87.0</ele><time>2026-03-30T09:46:06Z</time></trkpt><trkpt lat="45.447856199535806" lon="10.554221966373989"><ele>87.0</ele><time>2026-03-30T09:46:07Z</time></trkpt><trkpt lat="45.44781267532846" lon="10.554454854010805"><ele>87.0</ele><time>2026-03-30T09:46:08Z</time></trkpt><trkpt lat="45.447772279097194" lon="10.554684956481553"><ele>87.0</ele><time>2026-03-30T09:46:09Z</time></trkpt><trkpt lat="45.44772753893849" lon="10.554922066519513"><ele>87.33333333333333</ele><time>2026-03-30T09:46:10Z</time></trkpt><trkpt lat="45.44768293581316" lon="10.555160632725766"><ele>87.66666666666666</ele><time>2026-03-30T09:46:11Z</time></trkpt><trkpt lat="45.44764010616234" lon="10.555403531463844"><ele>88.0</ele><time>2026-03-30T09:46:12Z</time></trkpt><trkpt lat="45.44759422259306" lon="10.555642467453323"><ele>88.0</ele><time>2026-03-30T09:46:13Z</time></trkpt><trkpt lat="45.447550897713356" lon="10.555882386219622"><ele>88.0</ele><time>2026-03-30T09:46:14Z</time></trkpt><trkpt lat="45.447502745808016" lon="10.556131767014824"><ele>88.0</ele><time>2026-03-30T09:46:15Z</time></trkpt><trkpt lat="45.44745458978724" lon="10.556371349109813"><ele>87.66666666666666</ele><time>2026-03-30T09:46:16Z</time></trkpt><trkpt lat="45.44741300868668" lon="10.556603686194626"><ele>87.33333333333333</ele><time>2026-03-30T09:46:17Z</time></trkpt><trkpt lat="45.44736824272533" lon="10.556842967547954"><ele>87.0</ele><time>2026-03-30T09:46:18Z</time></trkpt><trkpt lat="45.44733175031352" lon="10.557078555951383"><ele>87.66666666666667</ele><time>2026-03-30T09:46:19Z</time></trkpt><trkpt lat="45.44728914389006" lon="10.557320278018821"><ele>88.33333333333334</ele><time>2026-03-30T09:46:20Z</time></trkpt><trkpt lat="45.44724185526911" lon="10.557570779519104"><ele>89.0</ele><time>2026-03-30T09:46:21Z</time></trkpt><trkpt lat="45.44719631830429" lon="10.557818529486646"><ele>89.0</ele><time>2026-03-30T09:46:22Z</time></trkpt><trkpt lat="45.447156329242105" lon="10.558064040147725"><ele>89.0</ele><time>2026-03-30T09:46:23Z</time></trkpt><trkpt lat="45.44711052915364" lon="10.558316010969776"><ele>89.0</ele><time>2026-03-30T09:46:24Z</time></trkpt><trkpt lat="45.4470655737598" lon="10.55856722476436"><ele>88.66666666666667</ele><time>2026-03-30T09:46:25Z</time></trkpt><trkpt lat="45.4470215396266" lon="10.558800342879739"><ele>88.33333333333333</ele><time>2026-03-30T09:46:26Z</time></trkpt><trkpt lat="45.446980916985126" lon="10.559024399769918"><ele>88.0</ele><time>2026-03-30T09:46:27Z</time></trkpt><trkpt lat="45.44694018703592" lon="10.559250388267792"><ele>88.0</ele><time>2026-03-30T09:46:28Z</time></trkpt><trkpt lat="45.44690048845358" lon="10.559466984531289"><ele>88.0</ele><time>2026-03-30T09:46:29Z</time></trkpt><trkpt lat="45.4468607040629" lon="10.559687203841609"><ele>88.0</ele><time>2026-03-30T09:46:30Z</time></trkpt><trkpt lat="45.44681876321592" lon="10.559900403492305"><ele>88.0</ele><time>2026-03-30T09:46:31Z</time></trkpt><trkpt lat="45.4467860722869" lon="10.560111491264173"><ele>88.0</ele><time>2026-03-30T09:46:32Z</time></trkpt><trkpt lat="45.446744642619265" lon="10.560326084599389"><ele>88.0</ele><time>2026-03-30T09:46:33Z</time></trkpt><trkpt lat="45.44670704357248" lon="10.560534008226927"><ele>88.33333333333333</ele><time>2026-03-30T09:46:34Z</time></trkpt><trkpt lat="45.44666914453266" lon="10.560747010216279"><ele>88.66666666666667</ele><time>2026-03-30T09:46:35Z</time></trkpt><trkpt lat="45.44662930165746" lon="10.56096069628083"><ele>89.0</ele><time>2026-03-30T09:46:36Z</time></trkpt><trkpt lat="45.446591595638864" lon="10.561176992995218"><ele>88.66666666666667</ele><time>2026-03-30T09:46:36.999Z</time></trkpt><trkpt lat="45.44654858612874" lon="10.561396806060177"><ele>88.33333333333333</ele><time>2026-03-30T09:46:37.999Z</time></trkpt><trkpt lat="45.446511138596335" lon="10.561604193475056"><ele>88.0</ele><time>2026-03-30T09:46:38.999Z</time></trkpt><trkpt lat="45.44647456940235" lon="10.561803803222986"><ele>88.0</ele><time>2026-03-30T09:46:39.999Z</time></trkpt><trkpt lat="45.446437612685784" lon="10.5620120291038"><ele>88.0</ele><time>2026-03-30T09:46:40.999Z</time></trkpt><trkpt lat="45.44639934557024" lon="10.562222625090486"><ele>88.0</ele><time>2026-03-30T09:46:41.999Z</time></trkpt><trkpt lat="45.44635872100194" lon="10.5624383451302"><ele>88.0</ele><time>2026-03-30T09:46:42.999Z</time></trkpt><trkpt lat="45.446319411485675" lon="10.562642712539114"><ele>88.0</ele><time>2026-03-30T09:46:43.999Z</time></trkpt><trkpt lat="45.44628003342769" lon="10.562857730534827"><ele>88.0</ele><time>2026-03-30T09:46:44.999Z</time></trkpt><trkpt lat="45.44623913073084" lon="10.563081268458427"><ele>88.0</ele><time>2026-03-30T09:46:45.999Z</time></trkpt><trkpt lat="45.44620231746669" lon="10.563296558426673"><ele>88.0</ele><time>2026-03-30T09:46:46.999Z</time></trkpt><trkpt lat="45.44615793548379" lon="10.563517831591467"><ele>88.0</ele><time>2026-03-30T09:46:47.999Z</time></trkpt><trkpt lat="45.44611849442328" lon="10.563733888719735"><ele>88.0</ele><time>2026-03-30T09:46:48.999Z</time></trkpt><trkpt lat="45.446078619354445" lon="10.56394455882978"><ele>88.0</ele><time>2026-03-30T09:46:49.999Z</time></trkpt><trkpt lat="45.44603839356836" lon="10.564147954215736"><ele>88.0</ele><time>2026-03-30T09:46:50.999Z</time></trkpt><trkpt lat="45.44599815541081" lon="10.56433945527203"><ele>88.0</ele><time>2026-03-30T09:46:51.999Z</time></trkpt><trkpt lat="45.44595604060742" lon="10.564539169394466"><ele>88.0</ele><time>2026-03-30T09:46:52.999Z</time></trkpt><trkpt lat="45.445914322594994" lon="10.564740896543624"><ele>88.0</ele><time>2026-03-30T09:46:53.999Z</time></trkpt><trkpt lat="45.44587342109847" lon="10.564943336782031"><ele>88.0</ele><time>2026-03-30T09:46:54.999Z</time></trkpt><trkpt lat="45.44583517030664" lon="10.56514689922751"><ele>88.0</ele><time>2026-03-30T09:46:55.999Z</time></trkpt><trkpt lat="45.44579551244242" lon="10.56535410714439"><ele>87.5</ele><time>2026-03-30T09:46:56.999Z</time></trkpt><trkpt lat="45.44575152070957" lon="10.565556170179844"><ele>87.0</ele><time>2026-03-30T09:46:57.999Z</time></trkpt><trkpt lat="45.44570935473601" lon="10.565759526582806"><ele>86.5</ele><time>2026-03-30T09:46:58.999Z</time></trkpt><trkpt lat="45.44566664808726" lon="10.565959347533473"><ele>86.0</ele><time>2026-03-30T09:46:59.999Z</time></trkpt><trkpt lat="45.4456262871731" lon="10.56615992174082"><ele>85.33333333333334</ele><time>2026-03-30T09:47:00.999Z</time></trkpt><trkpt lat="45.44558525464092" lon="10.566367218656323"><ele>84.66666666666667</ele><time>2026-03-30T09:47:01.999Z</time></trkpt><trkpt lat="45.4455394681347" lon="10.566579847287853"><ele>84.0</ele><time>2026-03-30T09:47:02.999Z</time></trkpt><trkpt lat="45.445493490802605" lon="10.566781677462338"><ele>85.33333333333333</ele><time>2026-03-30T09:47:03.999Z</time></trkpt><trkpt lat="45.445448855000855" lon="10.566990163297827"><ele>86.66666666666666</ele><time>2026-03-30T09:47:04.999Z</time></trkpt><trkpt lat="45.44540506026573" lon="10.567191382865909"><ele>88.0</ele><time>2026-03-30T09:47:05.999Z</time></trkpt><trkpt lat="45.44535917523768" lon="10.567400990184646"><ele>88.0</ele><time>2026-03-30T09:47:06.999Z</time></trkpt><trkpt lat="45.44531384051117" lon="10.567617835636264"><ele>88.0</ele><time>2026-03-30T09:47:07.999Z</time></trkpt><trkpt lat="45.44526811737254" lon="10.567840977954589"><ele>88.0</ele><time>2026-03-30T09:47:08.999Z</time></trkpt><trkpt lat="45.445222129150984" lon="10.568065984164535"><ele>88.66666666666666</ele><time>2026-03-30T09:47:09.999Z</time></trkpt><trkpt lat="45.44517358441339" lon="10.56829702976771"><ele>89.33333333333333</ele><time>2026-03-30T09:47:10.999Z</time></trkpt><trkpt lat="45.44512486366027" lon="10.568557858974708"><ele>90.0</ele><time>2026-03-30T09:47:11.999Z</time></trkpt><trkpt lat="45.44507271626223" lon="10.568846823022213"><ele>90.33333333333333</ele><time>2026-03-30T09:47:12.999Z</time></trkpt><trkpt lat="45.4450177734172" lon="10.56915588710675"><ele>90.66666666666666</ele><time>2026-03-30T09:47:13.999Z</time></trkpt><trkpt lat="45.44497359254175" lon="10.569463478103588"><ele>91.0</ele><time>2026-03-30T09:47:14.999Z</time></trkpt><trkpt lat="45.4449250235939" lon="10.56982665645753"><ele>90.0</ele><time>2026-03-30T09:47:15.999Z</time></trkpt><trkpt lat="45.444879605670096" lon="10.570189085152155"><ele>89.0</ele><time>2026-03-30T09:47:16.999Z</time></trkpt><trkpt lat="45.444840757434946" lon="10.570520620824507"><ele>88.5</ele><time>2026-03-30T09:47:17.999Z</time></trkpt><trkpt lat="45.44481054467047" lon="10.570838333310295"><ele>88.0</ele><time>2026-03-30T09:47:18.999Z</time></trkpt><trkpt lat="45.44480121430442" lon="10.571161868019622"><ele>88.0</ele><time>2026-03-30T09:47:19.999Z</time></trkpt><trkpt lat="45.44479851288784" lon="10.571469361940311"><ele>88.0</ele><time>2026-03-30T09:47:20.999Z</time></trkpt><trkpt lat="45.4447997930937" lon="10.571776489543941"><ele>88.0</ele><time>2026-03-30T09:47:21.999Z</time></trkpt><trkpt lat="45.44480364821954" lon="10.572080944492098"><ele>88.0</ele><time>2026-03-30T09:47:22.999Z</time></trkpt><trkpt lat="45.44480981775218" lon="10.572385298839299"><ele>88.0</ele><time>2026-03-30T09:47:23.999Z</time></trkpt><trkpt lat="45.44482365628467" lon="10.572691440413658"><ele>88.0</ele><time>2026-03-30T09:47:24.999Z</time></trkpt><trkpt lat="45.4448392882884" lon="10.572997135926048"><ele>88.0</ele><time>2026-03-30T09:47:25.999Z</time></trkpt><trkpt lat="45.444856421946795" lon="10.573301421823494"><ele>88.0</ele><time>2026-03-30T09:47:26.999Z</time></trkpt><trkpt lat="45.444875518127695" lon="10.573615817016456"><ele>88.0</ele><time>2026-03-30T09:47:27.999Z</time></trkpt><trkpt lat="45.44489075139042" lon="10.57391086465986"><ele>88.0</ele><time>2026-03-30T09:47:28.999Z</time></trkpt><trkpt lat="45.44490633233159" lon="10.574219247648424"><ele>88.0</ele><time>2026-03-30T09:47:29.999Z</time></trkpt><trkpt lat="45.4449203725158" lon="10.574514696224327"><ele>88.0</ele><time>2026-03-30T09:47:30.999Z</time></trkpt><trkpt lat="45.44493852156484" lon="10.574814663195044"><ele>89.0</ele><time>2026-03-30T09:47:31.999Z</time></trkpt><trkpt lat="45.4449542753849" lon="10.575111053272789"><ele>90.0</ele><time>2026-03-30T09:47:32.999Z</time></trkpt><trkpt lat="45.44496832450589" lon="10.575403219031829"><ele>91.0</ele><time>2026-03-30T09:47:33.999Z</time></trkpt><trkpt lat="45.444982920268245" lon="10.575691882796669"><ele>91.33333333333333</ele><time>2026-03-30T09:47:34.999Z</time></trkpt><trkpt lat="45.44499752806514" lon="10.575971277846879"><ele>91.66666666666667</ele><time>2026-03-30T09:47:35.999Z</time></trkpt><trkpt lat="45.44501006283759" lon="10.576251172791812"><ele>92.0</ele><time>2026-03-30T09:47:36.999Z</time></trkpt><trkpt lat="45.44502461265589" lon="10.57651254162837"><ele>92.0</ele><time>2026-03-30T09:47:37.999Z</time></trkpt><trkpt lat="45.44503982911842" lon="10.576781174964713"><ele>92.0</ele><time>2026-03-30T09:47:38.999Z</time></trkpt><trkpt lat="45.44505315786661" lon="10.577031882773703"><ele>92.0</ele><time>2026-03-30T09:47:39.999Z</time></trkpt><trkpt lat="45.445062485990924" lon="10.57727732485416"><ele>91.0</ele><time>2026-03-30T09:47:40.999Z</time></trkpt><trkpt lat="45.44507440200792" lon="10.57751566239208"><ele>90.0</ele><time>2026-03-30T09:47:41.999Z</time></trkpt><trkpt lat="45.44507532144876" lon="10.577789314303566"><ele>89.0</ele><time>2026-03-30T09:47:42.999Z</time></trkpt><trkpt lat="45.44510099225389" lon="10.578036229364995"><ele>88.0</ele><time>2026-03-30T09:47:43.999Z</time></trkpt><trkpt lat="45.44511631100098" lon="10.578283321319741"><ele>87.0</ele><time>2026-03-30T09:47:44.999Z</time></trkpt><trkpt lat="45.44512973956408" lon="10.578543530862385"><ele>86.0</ele><time>2026-03-30T09:47:45.998Z</time></trkpt><trkpt lat="45.44514328160981" lon="10.578803470563921"><ele>86.0</ele><time>2026-03-30T09:47:46.998Z</time></trkpt><trkpt lat="45.44515889117651" lon="10.579056309542203"><ele>86.0</ele><time>2026-03-30T09:47:47.998Z</time></trkpt><trkpt lat="45.44517168782304" lon="10.579309719346103"><ele>86.0</ele><time>2026-03-30T09:47:48.998Z</time></trkpt><trkpt lat="45.445187735664724" lon="10.579566683943693"><ele>85.66666666666667</ele><time>2026-03-30T09:47:49.998Z</time></trkpt><trkpt lat="45.44520009779983" lon="10.579829849842355"><ele>85.33333333333333</ele><time>2026-03-30T09:47:50.998Z</time></trkpt><trkpt lat="45.445215477557355" lon="10.580097678257006"><ele>85.0</ele><time>2026-03-30T09:47:52Z</time></trkpt><trkpt lat="45.445226296223524" lon="10.580363961951068"><ele>85.0</ele><time>2026-03-30T09:47:53Z</time></trkpt><trkpt lat="45.445244015512856" lon="10.58062495927676"><ele>85.0</ele><time>2026-03-30T09:47:54Z</time></trkpt><trkpt lat="45.44525722981541" lon="10.580891091481625"><ele>85.0</ele><time>2026-03-30T09:47:55Z</time></trkpt><trkpt lat="45.44527023823204" lon="10.581154250996075"><ele>85.66666666666666</ele><time>2026-03-30T09:47:56Z</time></trkpt><trkpt lat="45.44528643461064" lon="10.581413440244361"><ele>86.33333333333333</ele><time>2026-03-30T09:47:57Z</time></trkpt><trkpt lat="45.4452966633525" lon="10.581672676119181"><ele>87.0</ele><time>2026-03-30T09:47:58Z</time></trkpt><trkpt lat="45.44530947574992" lon="10.58193261976213"><ele>87.0</ele><time>2026-03-30T09:47:59Z</time></trkpt><trkpt lat="45.44532037506549" lon="10.582198339981312"><ele>87.0</ele><time>2026-03-30T09:48:00Z</time></trkpt><trkpt lat="45.44532660365493" lon="10.582465759292841"><ele>87.0</ele><time>2026-03-30T09:48:01Z</time></trkpt><trkpt lat="45.445336820615864" lon="10.582732064467885"><ele>86.33333333333333</ele><time>2026-03-30T09:48:02Z</time></trkpt><trkpt lat="45.445344298571015" lon="10.582996074826822"><ele>85.66666666666666</ele><time>2026-03-30T09:48:03Z</time></trkpt><trkpt lat="45.445348984484696" lon="10.58325279047917"><ele>85.0</ele><time>2026-03-30T09:48:04Z</time></trkpt><trkpt lat="45.445349780700234" lon="10.583513407755072"><ele>84.66666666666666</ele><time>2026-03-30T09:48:05Z</time></trkpt><trkpt lat="45.44535263732338" lon="10.583801689098793"><ele>84.33333333333333</ele><time>2026-03-30T09:48:06Z</time></trkpt><trkpt lat="45.445356865022475" lon="10.584074449478747"><ele>84.0</ele><time>2026-03-30T09:48:07Z</time></trkpt><trkpt lat="45.44535853581257" lon="10.584328969497028"><ele>83.66666666666667</ele><time>2026-03-30T09:48:08Z</time></trkpt><trkpt lat="45.44536544419512" lon="10.584584952765661"><ele>83.33333333333334</ele><time>2026-03-30T09:48:09Z</time></trkpt><trkpt lat="45.445367567040904" lon="10.58483969549704"><ele>83.0</ele><time>2026-03-30T09:48:10Z</time></trkpt><trkpt lat="45.44536535375644" lon="10.585096770100126"><ele>83.33333333333334</ele><time>2026-03-30T09:48:11Z</time></trkpt><trkpt lat="45.4453617394379" lon="10.585351548351957"><ele>83.66666666666667</ele><time>2026-03-30T09:48:12Z</time></trkpt><trkpt lat="45.445358473286156" lon="10.585601522930036"><ele>84.0</ele><time>2026-03-30T09:48:13Z</time></trkpt><trkpt lat="45.44535175140169" lon="10.585850850808269"><ele>84.0</ele><time>2026-03-30T09:48:14Z</time></trkpt><trkpt lat="45.44535138799746" lon="10.586099273854769"><ele>84.0</ele><time>2026-03-30T09:48:15Z</time></trkpt><trkpt lat="45.44534732501055" lon="10.586346444231113"><ele>84.0</ele><time>2026-03-30T09:48:16Z</time></trkpt><trkpt lat="45.44533838935622" lon="10.586590719588353"><ele>84.33333333333333</ele><time>2026-03-30T09:48:17Z</time></trkpt><trkpt lat="45.44533143666961" lon="10.586840001005305"><ele>84.66666666666666</ele><time>2026-03-30T09:48:18Z</time></trkpt><trkpt lat="45.44532321593599" lon="10.587092383616389"><ele>85.0</ele><time>2026-03-30T09:48:19Z</time></trkpt><trkpt lat="45.44532077287913" lon="10.58734104582295"><ele>85.0</ele><time>2026-03-30T09:48:20Z</time></trkpt><trkpt lat="45.445313843481465" lon="10.587592423285018"><ele>85.0</ele><time>2026-03-30T09:48:21Z</time></trkpt><trkpt lat="45.44531354041333" lon="10.58785089055585"><ele>85.0</ele><time>2026-03-30T09:48:22Z</time></trkpt><trkpt lat="45.44530794642012" lon="10.588112917474135"><ele>84.33333333333333</ele><time>2026-03-30T09:48:23Z</time></trkpt><trkpt lat="45.445301211570765" lon="10.588376329784179"><ele>83.66666666666667</ele><time>2026-03-30T09:48:24Z</time></trkpt><trkpt lat="45.44529290469836" lon="10.588645895165206"><ele>83.0</ele><time>2026-03-30T09:48:25Z</time></trkpt><trkpt lat="45.44528841348454" lon="10.588917608248092"><ele>83.0</ele><time>2026-03-30T09:48:26Z</time></trkpt><trkpt lat="45.445278565194656" lon="10.589191898467432"><ele>83.0</ele><time>2026-03-30T09:48:27Z</time></trkpt><trkpt lat="45.445270384326854" lon="10.589470361786322"><ele>83.0</ele><time>2026-03-30T09:48:28Z</time></trkpt><trkpt lat="45.445263255857036" lon="10.5897524416317"><ele>83.0</ele><time>2026-03-30T09:48:29Z</time></trkpt><trkpt lat="45.445253101826516" lon="10.590031395270083"><ele>83.0</ele><time>2026-03-30T09:48:30Z</time></trkpt><trkpt lat="45.44523516703297" lon="10.590363343958998"><ele>83.0</ele><time>2026-03-30T09:48:31Z</time></trkpt><trkpt lat="45.44524685019634" lon="10.59070728022342"><ele>82.0</ele><time>2026-03-30T09:48:32Z</time></trkpt><trkpt lat="45.44522576916645" lon="10.591049956281616"><ele>81.0</ele><time>2026-03-30T09:48:33Z</time></trkpt><trkpt lat="45.445204572900835" lon="10.591373363323797"><ele>80.33333333333333</ele><time>2026-03-30T09:48:34Z</time></trkpt><trkpt lat="45.44518716717751" lon="10.591679753933207"><ele>79.66666666666666</ele><time>2026-03-30T09:48:35Z</time></trkpt><trkpt lat="45.445175310443325" lon="10.591971387055338"><ele>79.0</ele><time>2026-03-30T09:48:35.999Z</time></trkpt><trkpt lat="45.44516215010894" lon="10.592266129004852"><ele>79.0</ele><time>2026-03-30T09:48:36.999Z</time></trkpt><trkpt lat="45.4451411076169" lon="10.592547130251392"><ele>79.0</ele><time>2026-03-30T09:48:37.999Z</time></trkpt><trkpt lat="45.44511590064568" lon="10.592804678936467"><ele>79.0</ele><time>2026-03-30T09:48:38.999Z</time></trkpt><trkpt lat="45.44508801915383" lon="10.593042687175348"><ele>79.66666666666666</ele><time>2026-03-30T09:48:39.999Z</time></trkpt><trkpt lat="45.44506066085027" lon="10.593277161955818"><ele>80.33333333333333</ele><time>2026-03-30T09:48:40.999Z</time></trkpt><trkpt lat="45.445041110373985" lon="10.593518630491468"><ele>81.0</ele><time>2026-03-30T09:48:41.999Z</time></trkpt><trkpt lat="45.44502001122672" lon="10.593746001033537"><ele>81.0</ele><time>2026-03-30T09:48:42.999Z</time></trkpt><trkpt lat="45.44499715973801" lon="10.593963460892004"><ele>81.0</ele><time>2026-03-30T09:48:43.999Z</time></trkpt><trkpt lat="45.44497525726772" lon="10.594176084850046"><ele>81.0</ele><time>2026-03-30T09:48:44.999Z</time></trkpt><trkpt lat="45.444951868848385" lon="10.594366044416452"><ele>81.0</ele><time>2026-03-30T09:48:45.999Z</time></trkpt><trkpt lat="45.444933035600044" lon="10.594530192000347"><ele>80.83333333333333</ele><time>2026-03-30T09:48:46.999Z</time></trkpt><trkpt lat="45.444920976875004" lon="10.594642430541395"><ele>80.66666666666667</ele><time>2026-03-30T09:48:47.999Z</time></trkpt><trkpt lat="45.44491005409077" lon="10.594754042736827"><ele>80.5</ele><time>2026-03-30T09:48:49.999Z</time></trkpt><trkpt lat="45.44489456360587" lon="10.594871100354515"><ele>80.33333333333334</ele><time>2026-03-30T09:48:51.999Z</time></trkpt><trkpt lat="45.44487035342311" lon="10.594978659184228"><ele>80.16666666666667</ele><time>2026-03-30T09:48:52.999Z</time></trkpt><trkpt lat="45.44484642283858" lon="10.595100505459387"><ele>80.0</ele><time>2026-03-30T09:48:53.999Z</time></trkpt><trkpt lat="45.44476466669881" lon="10.595202751483303"><ele>80.0</ele><time>2026-03-30T09:48:54.999Z</time></trkpt><trkpt lat="45.444688344815056" lon="10.595282370135573"><ele>80.0</ele><time>2026-03-30T09:48:55.999Z</time></trkpt><trkpt lat="45.44460523861249" lon="10.595339428124491"><ele>80.0</ele><time>2026-03-30T09:48:56.999Z</time></trkpt><trkpt lat="45.44450003493076" lon="10.595374392722013"><ele>80.0</ele><time>2026-03-30T09:48:57.999Z</time></trkpt><trkpt lat="45.44439695203197" lon="10.595400262303912"><ele>80.0</ele><time>2026-03-30T09:48:58.999Z</time></trkpt><trkpt lat="45.444287392313306" lon="10.595442713881063"><ele>80.0</ele><time>2026-03-30T09:48:59.999Z</time></trkpt><trkpt lat="45.44417796733892" lon="10.595519742021517"><ele>80.0</ele><time>2026-03-30T09:49:00.999Z</time></trkpt><trkpt lat="45.44407469873069" lon="10.59561999319297"><ele>80.0</ele><time>2026-03-30T09:49:01.999Z</time></trkpt><trkpt lat="45.443977368030595" lon="10.595731817640448"><ele>80.0</ele><time>2026-03-30T09:49:02.999Z</time></trkpt><trkpt lat="45.443883191509094" lon="10.595861730112428"><ele>79.75</ele><time>2026-03-30T09:49:03.999Z</time></trkpt><trkpt lat="45.44379393917364" lon="10.596005025592541"><ele>79.5</ele><time>2026-03-30T09:49:04.999Z</time></trkpt><trkpt lat="45.44371277451874" lon="10.596144219564435"><ele>79.25</ele><time>2026-03-30T09:49:05.999Z</time></trkpt><trkpt lat="45.44363593103674" lon="10.59628692179329"><ele>79.0</ele><time>2026-03-30T09:49:06.999Z</time></trkpt><trkpt lat="45.443564516272595" lon="10.596425055340259"><ele>79.0</ele><time>2026-03-30T09:49:07.999Z</time></trkpt><trkpt lat="45.44349719850879" lon="10.596562625823848"><ele>79.0</ele><time>2026-03-30T09:49:08.999Z</time></trkpt><trkpt lat="45.44343135431403" lon="10.596712978555509"><ele>79.0</ele><time>2026-03-30T09:49:09.999Z</time></trkpt><trkpt lat="45.44336186605595" lon="10.596868985329955"><ele>79.0</ele><time>2026-03-30T09:49:10.999Z</time></trkpt><trkpt lat="45.44328732259824" lon="10.597028350338707"><ele>78.75</ele><time>2026-03-30T09:49:11.999Z</time></trkpt><trkpt lat="45.443210107030936" lon="10.597187478895714"><ele>78.5</ele><time>2026-03-30T09:49:12.999Z</time></trkpt><trkpt lat="45.443132782932516" lon="10.597357721115667"><ele>78.25</ele><time>2026-03-30T09:49:13.999Z</time></trkpt><trkpt lat="45.44305692330379" lon="10.597526820255387"><ele>78.0</ele><time>2026-03-30T09:49:14.999Z</time></trkpt><trkpt lat="45.44298209434519" lon="10.59768103822295"><ele>78.0</ele><time>2026-03-30T09:49:15.999Z</time></trkpt><trkpt lat="45.44291652166146" lon="10.597824795485058"><ele>78.0</ele><time>2026-03-30T09:49:16.999Z</time></trkpt><trkpt lat="45.44285639383081" lon="10.59796320197161"><ele>78.0</ele><time>2026-03-30T09:49:17.999Z</time></trkpt><trkpt lat="45.4428009183776" lon="10.598092731579095"><ele>78.0</ele><time>2026-03-30T09:49:18.999Z</time></trkpt><trkpt lat="45.44274872158147" lon="10.598209013489539"><ele>78.0</ele><time>2026-03-30T09:49:19.999Z</time></trkpt><trkpt lat="45.442694412689036" lon="10.598314314906977"><ele>78.0</ele><time>2026-03-30T09:49:20.999Z</time></trkpt><trkpt lat="45.442636716981845" lon="10.598414847964504"><ele>78.0</ele><time>2026-03-30T09:49:21.999Z</time></trkpt><trkpt lat="45.44257052256292" lon="10.598494776826877"><ele>78.0</ele><time>2026-03-30T09:49:22.999Z</time></trkpt><trkpt lat="45.44249344345112" lon="10.598542164306249"><ele>78.0</ele><time>2026-03-30T09:49:23.999Z</time></trkpt><trkpt lat="45.442421553816665" lon="10.598558123349683"><ele>78.0</ele><time>2026-03-30T09:49:24.999Z</time></trkpt><trkpt lat="45.44233052724701" lon="10.598564943570743"><ele>78.0</ele><time>2026-03-30T09:49:26.999Z</time></trkpt><trkpt lat="45.44229847021187" lon="10.598673810567456"><ele>78.0</ele><time>2026-03-30T09:49:28.999Z</time></trkpt><trkpt lat="45.44230106626152" lon="10.598862565881895"><ele>78.0</ele><time>2026-03-30T09:49:30.999Z</time></trkpt><trkpt lat="45.44228859031115" lon="10.598984077214213"><ele>78.0</ele><time>2026-03-30T09:49:31.999Z</time></trkpt><trkpt lat="45.44224193999037" lon="10.599108604190725"><ele>78.0</ele><time>2026-03-30T09:49:32.999Z</time></trkpt><trkpt lat="45.442168541557244" lon="10.599225690464984"><ele>78.0</ele><time>2026-03-30T09:49:33.999Z</time></trkpt><trkpt lat="45.4420814996869" lon="10.599355187340164"><ele>79.25</ele><time>2026-03-30T09:49:34.999Z</time></trkpt><trkpt lat="45.4419908699538" lon="10.599492052611485"><ele>80.5</ele><time>2026-03-30T09:49:35.999Z</time></trkpt><trkpt lat="45.44189077987135" lon="10.599629130732282"><ele>81.75</ele><time>2026-03-30T09:49:36.999Z</time></trkpt><trkpt lat="45.44178138308642" lon="10.599770613446527"><ele>83.0</ele><time>2026-03-30T09:49:37.999Z</time></trkpt><trkpt lat="45.44166814351565" lon="10.599913066371942"><ele>83.0</ele><time>2026-03-30T09:49:38.999Z</time></trkpt><trkpt lat="45.44154666746419" lon="10.600062378336023"><ele>83.0</ele><time>2026-03-30T09:49:39.999Z</time></trkpt><trkpt lat="45.441428817083356" lon="10.60020281385987"><ele>83.0</ele><time>2026-03-30T09:49:40.999Z</time></trkpt><trkpt lat="45.44129677005773" lon="10.60035831666946"><ele>83.33333333333334</ele><time>2026-03-30T09:49:41.999Z</time></trkpt><trkpt lat="45.44115729372193" lon="10.600524508576754"><ele>83.66666666666667</ele><time>2026-03-30T09:49:42.999Z</time></trkpt><trkpt lat="45.441020697937894" lon="10.600694256105582"><ele>84.0</ele><time>2026-03-30T09:49:43.999Z</time></trkpt><trkpt lat="45.44088819077642" lon="10.600858874009244"><ele>84.0</ele><time>2026-03-30T09:49:44.999Z</time></trkpt><trkpt lat="45.44075915130799" lon="10.601014128491272"><ele>84.0</ele><time>2026-03-30T09:49:45.999Z</time></trkpt><trkpt lat="45.44063264565554" lon="10.601162924793519"><ele>84.0</ele><time>2026-03-30T09:49:46.999Z</time></trkpt><trkpt lat="45.44051055665879" lon="10.601304121126564"><ele>84.0</ele><time>2026-03-30T09:49:47.999Z</time></trkpt><trkpt lat="45.44038117671831" lon="10.601456715482405"><ele>84.0</ele><time>2026-03-30T09:49:48.999Z</time></trkpt><trkpt lat="45.44024204564286" lon="10.601620672804275"><ele>84.0</ele><time>2026-03-30T09:49:49.999Z</time></trkpt><trkpt lat="45.4401054339241" lon="10.60178947670002"><ele>84.0</ele><time>2026-03-30T09:49:50.999Z</time></trkpt><trkpt lat="45.43997881120155" lon="10.601947680113593"><ele>84.0</ele><time>2026-03-30T09:49:51.998Z</time></trkpt><trkpt lat="45.43986293811452" lon="10.6020895755603"><ele>84.0</ele><time>2026-03-30T09:49:52.998Z</time></trkpt><trkpt lat="45.439753242109006" lon="10.602218251367743"><ele>83.75</ele><time>2026-03-30T09:49:53.998Z</time></trkpt><trkpt lat="45.43965068004609" lon="10.602338503208797"><ele>83.5</ele><time>2026-03-30T09:49:54.998Z</time></trkpt><trkpt lat="45.43956059021052" lon="10.6024484698798"><ele>83.25</ele><time>2026-03-30T09:49:55.998Z</time></trkpt><trkpt lat="45.43948026047683" lon="10.602548256151143"><ele>83.0</ele><time>2026-03-30T09:49:56.999Z</time></trkpt><trkpt lat="45.43941046931946" lon="10.60263576184347"><ele>83.0</ele><time>2026-03-30T09:49:57.999Z</time></trkpt><trkpt lat="45.439346469797485" lon="10.602713225889012"><ele>83.0</ele><time>2026-03-30T09:49:58.999Z</time></trkpt><trkpt lat="45.43928640676225" lon="10.602778492618103"><ele>83.0</ele><time>2026-03-30T09:49:59.999Z</time></trkpt><trkpt lat="45.43921608158146" lon="10.60284247936487"><ele>83.0</ele><time>2026-03-30T09:50:00.999Z</time></trkpt><trkpt lat="45.43912321288426" lon="10.60289461529309"><ele>83.0</ele><time>2026-03-30T09:50:01.999Z</time></trkpt><trkpt lat="45.439037209153575" lon="10.60293689534176"><ele>83.0</ele><time>2026-03-30T09:50:02.999Z</time></trkpt><trkpt lat="45.43896777940267" lon="10.603014824575185"><ele>83.0</ele><time>2026-03-30T09:50:03.999Z</time></trkpt><trkpt lat="45.43892057563079" lon="10.603123041207327"><ele>83.0</ele><time>2026-03-30T09:50:04.999Z</time></trkpt><trkpt lat="45.43888468850044" lon="10.603221581115612"><ele>83.0</ele><time>2026-03-30T09:50:05.999Z</time></trkpt><trkpt lat="45.43883689228181" lon="10.603320523865854"><ele>83.0</ele><time>2026-03-30T09:50:07Z</time></trkpt><trkpt lat="45.4387720907441" lon="10.603411471889801"><ele>83.0</ele><time>2026-03-30T09:50:08Z</time></trkpt><trkpt lat="45.43869014110184" lon="10.603505523537946"><ele>83.0</ele><time>2026-03-30T09:50:09Z</time></trkpt><trkpt lat="45.43860173642108" lon="10.603604145642135"><ele>82.75</ele><time>2026-03-30T09:50:10Z</time></trkpt><trkpt lat="45.43850881270345" lon="10.60371223370189"><ele>82.5</ele><time>2026-03-30T09:50:11Z</time></trkpt><trkpt lat="45.4384185312147" lon="10.603822560554011"><ele>82.25</ele><time>2026-03-30T09:50:12Z</time></trkpt><trkpt lat="45.43832672815327" lon="10.603936835948852"><ele>82.0</ele><time>2026-03-30T09:50:13Z</time></trkpt><trkpt lat="45.438234375378066" lon="10.604049943028075"><ele>82.0</ele><time>2026-03-30T09:50:14Z</time></trkpt><trkpt lat="45.43814138559496" lon="10.604164481076483"><ele>82.0</ele><time>2026-03-30T09:50:15Z</time></trkpt><trkpt lat="45.43804575607998" lon="10.604283598878094"><ele>82.0</ele><time>2026-03-30T09:50:16Z</time></trkpt><trkpt lat="45.43794518346329" lon="10.604405340988611"><ele>82.0</ele><time>2026-03-30T09:50:17Z</time></trkpt><trkpt lat="45.43784013309403" lon="10.60452946383198"><ele>82.66666666666666</ele><time>2026-03-30T09:50:18Z</time></trkpt><trkpt lat="45.437720835113645" lon="10.60466887669466"><ele>83.33333333333333</ele><time>2026-03-30T09:50:19Z</time></trkpt><trkpt lat="45.43758823927327" lon="10.604825242852767"><ele>84.0</ele><time>2026-03-30T09:50:20Z</time></trkpt><trkpt lat="45.437452378083385" lon="10.604989335869485"><ele>84.0</ele><time>2026-03-30T09:50:21Z</time></trkpt><trkpt lat="45.43731745163413" lon="10.605154226068304"><ele>84.0</ele><time>2026-03-30T09:50:22Z</time></trkpt><trkpt lat="45.437184029673176" lon="10.605309723808617"><ele>84.0</ele><time>2026-03-30T09:50:23Z</time></trkpt><trkpt lat="45.43704976802632" lon="10.605474917343917"><ele>84.33333333333333</ele><time>2026-03-30T09:50:24Z</time></trkpt><trkpt lat="45.436916806067934" lon="10.605639447149073"><ele>84.66666666666666</ele><time>2026-03-30T09:50:25Z</time></trkpt><trkpt lat="45.43678378038273" lon="10.605791147409303"><ele>85.0</ele><time>2026-03-30T09:50:26Z</time></trkpt><trkpt lat="45.43664722234365" lon="10.605931015407954"><ele>85.0</ele><time>2026-03-30T09:50:27Z</time></trkpt><trkpt lat="45.43651131668734" lon="10.606052178445875"><ele>85.0</ele><time>2026-03-30T09:50:28Z</time></trkpt><trkpt lat="45.436366020385535" lon="10.606160526340403"><ele>85.0</ele><time>2026-03-30T09:50:29Z</time></trkpt><trkpt lat="45.4362147785635" lon="10.60625352136821"><ele>84.33333333333333</ele><time>2026-03-30T09:50:30Z</time></trkpt><trkpt lat="45.43606725723431" lon="10.606328647856612"><ele>83.66666666666667</ele><time>2026-03-30T09:50:31Z</time></trkpt><trkpt lat="45.43591959487591" lon="10.606392589273822"><ele>83.0</ele><time>2026-03-30T09:50:32Z</time></trkpt><trkpt lat="45.435769552426265" lon="10.606441710013575"><ele>83.0</ele><time>2026-03-30T09:50:33Z</time></trkpt><trkpt lat="45.435619029577126" lon="10.606477021850733"><ele>83.0</ele><time>2026-03-30T09:50:34Z</time></trkpt><trkpt lat="45.435469136221826" lon="10.606501711458144"><ele>83.0</ele><time>2026-03-30T09:50:35Z</time></trkpt><trkpt lat="45.435322284696014" lon="10.606502613310465"><ele>83.25</ele><time>2026-03-30T09:50:36Z</time></trkpt><trkpt lat="45.435188380404796" lon="10.60648110480132"><ele>83.5</ele><time>2026-03-30T09:50:36.999Z</time></trkpt><trkpt lat="45.43505827075043" lon="10.60644104553502"><ele>83.75</ele><time>2026-03-30T09:50:37.999Z</time></trkpt><trkpt lat="45.43492020456236" lon="10.606395068056562"><ele>84.0</ele><time>2026-03-30T09:50:38.999Z</time></trkpt><trkpt lat="45.434781126835524" lon="10.60633287936648"><ele>84.0</ele><time>2026-03-30T09:50:39.999Z</time></trkpt><trkpt lat="45.43463926511441" lon="10.606277981736552"><ele>84.0</ele><time>2026-03-30T09:50:40.999Z</time></trkpt><trkpt lat="45.43449851210496" lon="10.606227462519358"><ele>84.0</ele><time>2026-03-30T09:50:41.999Z</time></trkpt><trkpt lat="45.43435563212488" lon="10.606188925567272"><ele>84.0</ele><time>2026-03-30T09:50:42.999Z</time></trkpt><trkpt lat="45.43421529433382" lon="10.606161482057704"><ele>84.75</ele><time>2026-03-30T09:50:43.999Z</time></trkpt><trkpt lat="45.434076364490736" lon="10.606141623331066"><ele>85.5</ele><time>2026-03-30T09:50:44.999Z</time></trkpt><trkpt lat="45.43394651130866" lon="10.606127085211277"><ele>86.25</ele><time>2026-03-30T09:50:45.999Z</time></trkpt><trkpt lat="45.433816946722956" lon="10.606113732369757"><ele>87.0</ele><time>2026-03-30T09:50:46.999Z</time></trkpt><trkpt lat="45.433682365809204" lon="10.60609942486375"><ele>87.0</ele><time>2026-03-30T09:50:47.999Z</time></trkpt><trkpt lat="45.433539208660875" lon="10.606087169292595"><ele>87.0</ele><time>2026-03-30T09:50:48.999Z</time></trkpt><trkpt lat="45.43340531075951" lon="10.60607434329563"><ele>87.0</ele><time>2026-03-30T09:50:49.999Z</time></trkpt><trkpt lat="45.43327752209312" lon="10.606063981907063"><ele>87.0</ele><time>2026-03-30T09:50:50.999Z</time></trkpt><trkpt lat="45.433159191038506" lon="10.6060575809592"><ele>87.0</ele><time>2026-03-30T09:50:51.999Z</time></trkpt><trkpt lat="45.43304461536411" lon="10.606047108797215"><ele>87.0</ele><time>2026-03-30T09:50:52.999Z</time></trkpt><trkpt lat="45.432929494665046" lon="10.606030549672939"><ele>87.0</ele><time>2026-03-30T09:50:53.999Z</time></trkpt><trkpt lat="45.43282208201172" lon="10.606007636845138"><ele>87.0</ele><time>2026-03-30T09:50:54.999Z</time></trkpt><trkpt lat="45.43271506927943" lon="10.60598212828055"><ele>87.0</ele><time>2026-03-30T09:50:55.999Z</time></trkpt><trkpt lat="45.43261406627142" lon="10.605958535216885"><ele>87.0</ele><time>2026-03-30T09:50:56.999Z</time></trkpt><trkpt lat="45.43251985644614" lon="10.605939860445895"><ele>87.0</ele><time>2026-03-30T09:50:57.999Z</time></trkpt><trkpt lat="45.43243144329692" lon="10.605925630541735"><ele>87.0</ele><time>2026-03-30T09:50:58.999Z</time></trkpt><trkpt lat="45.43234668257415" lon="10.605903353091898"><ele>87.0</ele><time>2026-03-30T09:50:59.999Z</time></trkpt><trkpt lat="45.43226966291113" lon="10.605865806126621"><ele>87.0</ele><time>2026-03-30T09:51:00.999Z</time></trkpt><trkpt lat="45.43220683740977" lon="10.605805839142905"><ele>87.0</ele><time>2026-03-30T09:51:01.999Z</time></trkpt><trkpt lat="45.432145229157214" lon="10.605725133554442"><ele>87.6</ele><time>2026-03-30T09:51:02.999Z</time></trkpt><trkpt lat="45.43206540567306" lon="10.605656095469518"><ele>88.19999999999999</ele><time>2026-03-30T09:51:03.999Z</time></trkpt><trkpt lat="45.431972700888906" lon="10.605638865034134"><ele>88.8</ele><time>2026-03-30T09:51:04.999Z</time></trkpt><trkpt lat="45.431880738991865" lon="10.60565644189594"><ele>89.4</ele><time>2026-03-30T09:51:05.999Z</time></trkpt><trkpt lat="45.43180727984989" lon="10.605722704341897"><ele>90.0</ele><time>2026-03-30T09:51:06.999Z</time></trkpt><trkpt lat="45.43174058628196" lon="10.605818178806803"><ele>90.0</ele><time>2026-03-30T09:51:07.999Z</time></trkpt><trkpt lat="45.431674779374966" lon="10.605910671076234"><ele>90.0</ele><time>2026-03-30T09:51:08.999Z</time></trkpt><trkpt lat="45.4315852162349" lon="10.606012879660474"><ele>90.0</ele><time>2026-03-30T09:51:09.999Z</time></trkpt><trkpt lat="45.43146992309194" lon="10.606088977835794"><ele>90.0</ele><time>2026-03-30T09:51:10.999Z</time></trkpt><trkpt lat="45.43133958817457" lon="10.606156040672783"><ele>90.33333333333333</ele><time>2026-03-30T09:51:11.999Z</time></trkpt><trkpt lat="45.43119683982556" lon="10.60624168448843"><ele>90.66666666666666</ele><time>2026-03-30T09:51:12.999Z</time></trkpt><trkpt lat="45.431044042021014" lon="10.60631869958134"><ele>91.0</ele><time>2026-03-30T09:51:13.999Z</time></trkpt><trkpt lat="45.43088619641808" lon="10.606395902383108"><ele>91.0</ele><time>2026-03-30T09:51:14.999Z</time></trkpt><trkpt lat="45.43070819216731" lon="10.606487660318686"><ele>91.0</ele><time>2026-03-30T09:51:15.999Z</time></trkpt><trkpt lat="45.43051094076731" lon="10.606578063406554"><ele>91.0</ele><time>2026-03-30T09:51:16.999Z</time></trkpt><trkpt lat="45.43029739226648" lon="10.606668876236856"><ele>92.0</ele><time>2026-03-30T09:51:17.999Z</time></trkpt><trkpt lat="45.430101751187216" lon="10.606743688832536"><ele>93.0</ele><time>2026-03-30T09:51:18.999Z</time></trkpt><trkpt lat="45.42991643160042" lon="10.606793184822033"><ele>94.0</ele><time>2026-03-30T09:51:19.999Z</time></trkpt><trkpt lat="45.42973404329695" lon="10.60686329809531"><ele>94.0</ele><time>2026-03-30T09:51:20.999Z</time></trkpt><trkpt lat="45.42956198726361" lon="10.606951175358223"><ele>94.0</ele><time>2026-03-30T09:51:21.999Z</time></trkpt><trkpt lat="45.42938827288371" lon="10.607013328302699"><ele>94.0</ele><time>2026-03-30T09:51:22.999Z</time></trkpt><trkpt lat="45.42922188979125" lon="10.60707895919161"><ele>94.0</ele><time>2026-03-30T09:51:23.999Z</time></trkpt><trkpt lat="45.42905996207543" lon="10.607142989263021"><ele>94.0</ele><time>2026-03-30T09:51:24.999Z</time></trkpt><trkpt lat="45.428898576442165" lon="10.607208625421384"><ele>94.0</ele><time>2026-03-30T09:51:25.999Z</time></trkpt><trkpt lat="45.42873305464774" lon="10.607255280868745"><ele>94.66666666666666</ele><time>2026-03-30T09:51:26.999Z</time></trkpt><trkpt lat="45.42857004950461" lon="10.607339564163858"><ele>95.33333333333333</ele><time>2026-03-30T09:51:27.999Z</time></trkpt><trkpt lat="45.42840117461468" lon="10.60743893818272"><ele>96.0</ele><time>2026-03-30T09:51:28.999Z</time></trkpt><trkpt lat="45.42822705810128" lon="10.607550142316972"><ele>96.0</ele><time>2026-03-30T09:51:29.999Z</time></trkpt><trkpt lat="45.42805749049255" lon="10.607662398832542"><ele>96.0</ele><time>2026-03-30T09:51:30.999Z</time></trkpt><trkpt lat="45.42792378369402" lon="10.60775158559331"><ele>96.0</ele><time>2026-03-30T09:51:31.999Z</time></trkpt><trkpt lat="45.4277719544621" lon="10.607852860608324"><ele>95.66666666666667</ele><time>2026-03-30T09:51:32.999Z</time></trkpt><trkpt lat="45.42762203945421" lon="10.607952859825458"><ele>95.33333333333334</ele><time>2026-03-30T09:51:33.999Z</time></trkpt><trkpt lat="45.42747996457714" lon="10.608047849532499"><ele>95.0</ele><time>2026-03-30T09:51:34.999Z</time></trkpt><trkpt lat="45.427335437914124" lon="10.608144478465913"><ele>95.0</ele><time>2026-03-30T09:51:35.999Z</time></trkpt><trkpt lat="45.42719521468869" lon="10.608238230173972"><ele>95.0</ele><time>2026-03-30T09:51:36.999Z</time></trkpt><trkpt lat="45.42706776787375" lon="10.60832343971827"><ele>95.0</ele><time>2026-03-30T09:51:37.999Z</time></trkpt><trkpt lat="45.42693758053139" lon="10.608410481537629"><ele>95.0</ele><time>2026-03-30T09:51:38.999Z</time></trkpt><trkpt lat="45.42680968082456" lon="10.608495994029104"><ele>95.0</ele><time>2026-03-30T09:51:39.999Z</time></trkpt><trkpt lat="45.426687016543326" lon="10.608574737629253"><ele>95.0</ele><time>2026-03-30T09:51:40.999Z</time></trkpt><trkpt lat="45.42657486205288" lon="10.608668266874712"><ele>95.0</ele><time>2026-03-30T09:51:41.999Z</time></trkpt><trkpt lat="45.42646291286193" lon="10.608728359799498"><ele>95.0</ele><time>2026-03-30T09:51:42.999Z</time></trkpt><trkpt lat="45.42635854984617" lon="10.608778628321991"><ele>95.2</ele><time>2026-03-30T09:51:43.999Z</time></trkpt><trkpt lat="45.42625855655604" lon="10.608824181947773"><ele>95.4</ele><time>2026-03-30T09:51:44.999Z</time></trkpt><trkpt lat="45.42616578543147" lon="10.60887012204687"><ele>95.6</ele><time>2026-03-30T09:51:45.999Z</time></trkpt><trkpt lat="45.42608074166196" lon="10.608911010579526"><ele>95.8</ele><time>2026-03-30T09:51:46.999Z</time></trkpt><trkpt lat="45.42599806413697" lon="10.608938646756007"><ele>96.0</ele><time>2026-03-30T09:51:47.999Z</time></trkpt><trkpt lat="45.42592399237868" lon="10.608945799562651"><ele>95.99999999999999</ele><time>2026-03-30T09:51:48.999Z</time></trkpt><trkpt lat="45.42584864994256" lon="10.60891701897096"><ele>96.0</ele><time>2026-03-30T09:51:49.999Z</time></trkpt><trkpt lat="45.42577876308384" lon="10.60887752683159"><ele>96.0</ele><time>2026-03-30T09:51:50.999Z</time></trkpt><trkpt lat="45.42571397333174" lon="10.608843641084691"><ele>96.0</ele><time>2026-03-30T09:51:51.999Z</time></trkpt><trkpt lat="45.42564924296148" lon="10.608823414886384"><ele>96.0</ele><time>2026-03-30T09:51:52.999Z</time></trkpt><trkpt lat="45.42558362879588" lon="10.608839373491325"><ele>95.99999999999999</ele><time>2026-03-30T09:51:53.999Z</time></trkpt><trkpt lat="45.425531913562196" lon="10.60890345512673"><ele>96.0</ele><time>2026-03-30T09:51:54.999Z</time></trkpt><trkpt lat="45.4255091847743" lon="10.609001268087221"><ele>96.0</ele><time>2026-03-30T09:51:55.999Z</time></trkpt><trkpt lat="45.42551575639621" lon="10.6091221939459"><ele>96.0</ele><time>2026-03-30T09:51:56.999Z</time></trkpt><trkpt lat="45.425550679425385" lon="10.609221889036869"><ele>96.0</ele><time>2026-03-30T09:51:57.999Z</time></trkpt><trkpt lat="45.42559589822979" lon="10.609286780369867"><ele>96.0</ele><time>2026-03-30T09:51:58.999Z</time></trkpt><trkpt lat="45.4257002855593" lon="10.609335391033648"><ele>96.0</ele><time>2026-03-30T09:52:00.999Z</time></trkpt><trkpt lat="45.42569997514895" lon="10.609513133727951"><ele>96.4</ele><time>2026-03-30T09:52:03Z</time></trkpt><trkpt lat="45.42570023455139" lon="10.609629893686595"><ele>96.8</ele><time>2026-03-30T09:52:04Z</time></trkpt><trkpt lat="45.42569993001884" lon="10.609750443635457"><ele>97.2</ele><time>2026-03-30T09:52:05Z</time></trkpt><trkpt lat="45.42569912828754" lon="10.609876293698495"><ele>97.60000000000001</ele><time>2026-03-30T09:52:06Z</time></trkpt><trkpt lat="45.42569817220055" lon="10.6100263733166"><ele>98.0</ele><time>2026-03-30T09:52:07Z</time></trkpt><trkpt lat="45.42569711606237" lon="10.610192158249609"><ele>97.25</ele><time>2026-03-30T09:52:08Z</time></trkpt><trkpt lat="45.425709310841086" lon="10.610363243446209"><ele>96.5</ele><time>2026-03-30T09:52:09Z</time></trkpt><trkpt lat="45.42570584117793" lon="10.6105384657203"><ele>95.75</ele><time>2026-03-30T09:52:10Z</time></trkpt><trkpt lat="45.42570429968065" lon="10.61070600217594"><ele>95.0</ele><time>2026-03-30T09:52:11Z</time></trkpt><trkpt lat="45.42570322026959" lon="10.610865909350785"><ele>95.0</ele><time>2026-03-30T09:52:12Z</time></trkpt><trkpt lat="45.42570190185448" lon="10.61101787238519"><ele>95.0</ele><time>2026-03-30T09:52:13Z</time></trkpt><trkpt lat="45.42569940239541" lon="10.611165124421692"><ele>95.0</ele><time>2026-03-30T09:52:14Z</time></trkpt><trkpt lat="45.42569994872485" lon="10.61130792624139"><ele>95.0</ele><time>2026-03-30T09:52:15Z</time></trkpt><trkpt lat="45.42569503521603" lon="10.611440695830474"><ele>95.0</ele><time>2026-03-30T09:52:16Z</time></trkpt><trkpt lat="45.42569053310742" lon="10.611543062767424"><ele>94.4</ele><time>2026-03-30T09:52:17Z</time></trkpt><trkpt lat="45.42563440707645" lon="10.611676794498067"><ele>93.8</ele><time>2026-03-30T09:52:19Z</time></trkpt><trkpt lat="45.42559822642258" lon="10.611758699185062"><ele>93.19999999999999</ele><time>2026-03-30T09:52:20Z</time></trkpt><trkpt lat="45.42551018698084" lon="10.611748301848548"><ele>92.6</ele><time>2026-03-30T09:52:21Z</time></trkpt><trkpt lat="45.425422336077034" lon="10.611795135524051"><ele>92.0</ele><time>2026-03-30T09:52:22Z</time></trkpt><trkpt lat="45.42533232752445" lon="10.6118811091633"><ele>92.0</ele><time>2026-03-30T09:52:23Z</time></trkpt><trkpt lat="45.42525576248602" lon="10.611986423035152"><ele>92.0</ele><time>2026-03-30T09:52:24Z</time></trkpt><trkpt lat="45.42519463722323" lon="10.612122266929758"><ele>92.0</ele><time>2026-03-30T09:52:25Z</time></trkpt><trkpt lat="45.425140295470634" lon="10.61225375157441"><ele>92.0</ele><time>2026-03-30T09:52:26Z</time></trkpt><trkpt lat="45.42510540860392" lon="10.612387069996327"><ele>92.0</ele><time>2026-03-30T09:52:27Z</time></trkpt><trkpt lat="45.425058562710575" lon="10.61251518143973"><ele>91.6</ele><time>2026-03-30T09:52:28Z</time></trkpt><trkpt lat="45.42501048286577" lon="10.612633537960685"><ele>91.19999999999999</ele><time>2026-03-30T09:52:29Z</time></trkpt><trkpt lat="45.425004564539364" lon="10.612768935298204"><ele>90.8</ele><time>2026-03-30T09:52:30Z</time></trkpt><trkpt lat="45.424992550418615" lon="10.612901736736552"><ele>90.4</ele><time>2026-03-30T09:52:31Z</time></trkpt><trkpt lat="45.424987282615724" lon="10.61302792144182"><ele>90.0</ele><time>2026-03-30T09:52:32Z</time></trkpt><trkpt lat="45.424980842599815" lon="10.613157857464403"><ele>89.6</ele><time>2026-03-30T09:52:33Z</time></trkpt><trkpt lat="45.424975248897454" lon="10.613285277372512"><ele>89.2</ele><time>2026-03-30T09:52:34Z</time></trkpt><trkpt lat="45.42497263767003" lon="10.613409890551747"><ele>88.80000000000001</ele><time>2026-03-30T09:52:35Z</time></trkpt><trkpt lat="45.424959589369394" lon="10.613543181791846"><ele>88.4</ele><time>2026-03-30T09:52:36Z</time></trkpt><trkpt lat="45.424949848160054" lon="10.613689262399296"><ele>88.0</ele><time>2026-03-30T09:52:37Z</time></trkpt><trkpt lat="45.42493526916793" lon="10.613840082882573"><ele>88.0</ele><time>2026-03-30T09:52:38Z</time></trkpt><trkpt lat="45.42492351463936" lon="10.613987892184593"><ele>88.0</ele><time>2026-03-30T09:52:39Z</time></trkpt><trkpt lat="45.4249091655359" lon="10.614132005389656"><ele>88.0</ele><time>2026-03-30T09:52:40Z</time></trkpt><trkpt lat="45.42488867145742" lon="10.614266114789555"><ele>88.0</ele><time>2026-03-30T09:52:41Z</time></trkpt><trkpt lat="45.42486977685725" lon="10.614402605831545"><ele>88.0</ele><time>2026-03-30T09:52:42Z</time></trkpt><trkpt lat="45.42484937351814" lon="10.614530901585752"><ele>88.0</ele><time>2026-03-30T09:52:43Z</time></trkpt><trkpt lat="45.42481196554586" lon="10.614642160003307"><ele>88.0</ele><time>2026-03-30T09:52:44Z</time></trkpt><trkpt lat="45.424803210299046" lon="10.614735667465835"><ele>88.0</ele><time>2026-03-30T09:52:45Z</time></trkpt><trkpt lat="45.42476261801975" lon="10.614810434768554"><ele>88.0</ele><time>2026-03-30T09:52:47Z</time></trkpt><trkpt lat="45.424753868847176" lon="10.614902661680127"><ele>88.0</ele><time>2026-03-30T09:59:29Z</time></trkpt><trkpt lat="45.42470677120234" lon="10.615036081420204"><ele>88.0</ele><time>2026-03-30T09:59:31Z</time></trkpt><trkpt lat="45.4246906619267" lon="10.615142396658031"><ele>88.0</ele><time>2026-03-30T09:59:32Z</time></trkpt><trkpt lat="45.42465833063671" lon="10.615252166011068"><ele>88.0</ele><time>2026-03-30T09:59:33Z</time></trkpt><trkpt lat="45.424624291637976" lon="10.615387063267287"><ele>88.0</ele><time>2026-03-30T09:59:34Z</time></trkpt><trkpt lat="45.42458669784554" lon="10.615533843960849"><ele>88.0</ele><time>2026-03-30T09:59:35Z</time></trkpt><trkpt lat="45.424535547153525" lon="10.615684852293901"><ele>88.0</ele><time>2026-03-30T09:59:36Z</time></trkpt><trkpt lat="45.4244944242062" lon="10.615851506195343"><ele>89.2</ele><time>2026-03-30T09:59:37Z</time></trkpt><trkpt lat="45.42445309585366" lon="10.616016606027715"><ele>90.4</ele><time>2026-03-30T09:59:38Z</time></trkpt><trkpt lat="45.424410067506344" lon="10.616197936617338"><ele>91.60000000000001</ele><time>2026-03-30T09:59:39Z</time></trkpt><trkpt lat="45.42437929895347" lon="10.61628030760088"><ele>92.80000000000001</ele><time>2026-03-30T09:59:40Z</time></trkpt><trkpt lat="45.42433714395825" lon="10.616427626193396"><ele>94.0</ele><time>2026-03-30T09:59:41Z</time></trkpt><trkpt lat="45.424296552158694" lon="10.61657338968734"><ele>94.2</ele><time>2026-03-30T09:59:42Z</time></trkpt><trkpt lat="45.4242557468855" lon="10.616723381215628"><ele>94.4</ele><time>2026-03-30T09:59:43Z</time></trkpt><trkpt lat="45.424216822623464" lon="10.616865023256642"><ele>94.6</ele><time>2026-03-30T09:59:44Z</time></trkpt><trkpt lat="45.4241780410829" lon="10.617005319737927"><ele>94.8</ele><time>2026-03-30T09:59:45Z</time></trkpt><trkpt lat="45.4241353491347" lon="10.617140251258709"><ele>95.0</ele><time>2026-03-30T09:59:46Z</time></trkpt><trkpt lat="45.424097340474965" lon="10.617279876981614"><ele>95.0</ele><time>2026-03-30T09:59:47Z</time></trkpt><trkpt lat="45.42405806806219" lon="10.617420910595277"><ele>95.0</ele><time>2026-03-30T09:59:48Z</time></trkpt><trkpt lat="45.42402400446875" lon="10.617564969185958"><ele>95.0</ele><time>2026-03-30T09:59:49Z</time></trkpt><trkpt lat="45.42400630259315" lon="10.617705414338932"><ele>95.0</ele><time>2026-03-30T09:59:50Z</time></trkpt><trkpt lat="45.424002033083" lon="10.617836157769705"><ele>95.0</ele><time>2026-03-30T09:59:51Z</time></trkpt><trkpt lat="45.42399739203659" lon="10.617958626089708"><ele>95.0</ele><time>2026-03-30T09:59:52Z</time></trkpt><trkpt lat="45.4239897870777" lon="10.61808082229789"><ele>95.0</ele><time>2026-03-30T09:59:53Z</time></trkpt><trkpt lat="45.42398182867573" lon="10.618200813077578"><ele>95.0</ele><time>2026-03-30T09:59:54Z</time></trkpt><trkpt lat="45.4239735232259" lon="10.618317730287021"><ele>95.0</ele><time>2026-03-30T09:59:54.999Z</time></trkpt><trkpt lat="45.42396524693283" lon="10.618437122054424"><ele>95.0</ele><time>2026-03-30T09:59:55.999Z</time></trkpt><trkpt lat="45.4239341783514" lon="10.61855307370695"><ele>95.0</ele><time>2026-03-30T09:59:56.999Z</time></trkpt><trkpt lat="45.4238989820058" lon="10.618663278179701"><ele>95.0</ele><time>2026-03-30T09:59:57.999Z</time></trkpt><trkpt lat="45.423839598621655" lon="10.618753642052226"><ele>95.0</ele><time>2026-03-30T09:59:58.999Z</time></trkpt><trkpt lat="45.423761666955876" lon="10.618805797966246"><ele>95.0</ele><time>2026-03-30T09:59:59.999Z</time></trkpt><trkpt lat="45.42368310230716" lon="10.618876403504906"><ele>95.0</ele><time>2026-03-30T10:00:00.999Z</time></trkpt><trkpt lat="45.42359919013936" lon="10.618963483051127"><ele>95.0</ele><time>2026-03-30T10:00:01.999Z</time></trkpt><trkpt lat="45.42351065284877" lon="10.61904112847933"><ele>95.6</ele><time>2026-03-30T10:00:02.999Z</time></trkpt><trkpt lat="45.42341930192325" lon="10.619117914064768"><ele>96.2</ele><time>2026-03-30T10:00:03.999Z</time></trkpt><trkpt lat="45.42332846535815" lon="10.619199030724934"><ele>96.80000000000001</ele><time>2026-03-30T10:00:04.999Z</time></trkpt><trkpt lat="45.423231562689814" lon="10.619282047145347"><ele>97.4</ele><time>2026-03-30T10:00:05.999Z</time></trkpt><trkpt lat="45.42313683265244" lon="10.61936782030093"><ele>98.0</ele><time>2026-03-30T10:00:06.999Z</time></trkpt><trkpt lat="45.423051393743634" lon="10.619443752321516"><ele>98.4</ele><time>2026-03-30T10:00:07.999Z</time></trkpt><trkpt lat="45.42297227418357" lon="10.619513817590693"><ele>98.80000000000001</ele><time>2026-03-30T10:00:08.999Z</time></trkpt><trkpt lat="45.42290331969081" lon="10.619570985722305"><ele>99.2</ele><time>2026-03-30T10:00:09.999Z</time></trkpt><trkpt lat="45.422839079443015" lon="10.619627176193154"><ele>99.6</ele><time>2026-03-30T10:00:10.999Z</time></trkpt><trkpt lat="45.422781981492264" lon="10.619682539841591"><ele>100.0</ele><time>2026-03-30T10:00:11.999Z</time></trkpt><trkpt lat="45.422721506284596" lon="10.61985087396732"><ele>100.00000000000001</ele><time>2026-03-30T10:00:13.999Z</time></trkpt><trkpt lat="45.422716552459576" lon="10.619963068162676"><ele>100.0</ele><time>2026-03-30T10:00:14.999Z</time></trkpt><trkpt lat="45.42271613093568" lon="10.620072839043477"><ele>100.0</ele><time>2026-03-30T10:00:15.999Z</time></trkpt><trkpt lat="45.42271150244243" lon="10.620183154753516"><ele>100.0</ele><time>2026-03-30T10:00:16.999Z</time></trkpt><trkpt lat="45.42270889863857" lon="10.620291619320879"><ele>100.00000000000001</ele><time>2026-03-30T10:00:17.999Z</time></trkpt><trkpt lat="45.42270456837631" lon="10.620397374406108"><ele>100.0</ele><time>2026-03-30T10:00:18.999Z</time></trkpt><trkpt lat="45.42270269048768" lon="10.620501893635383"><ele>100.16666666666667</ele><time>2026-03-30T10:00:19.999Z</time></trkpt><trkpt lat="45.42269970457172" lon="10.620600979770124"><ele>100.33333333333334</ele><time>2026-03-30T10:00:20.999Z</time></trkpt><trkpt lat="45.42269556075663" lon="10.620699264753286"><ele>100.5</ele><time>2026-03-30T10:00:21.999Z</time></trkpt><trkpt lat="45.42269332066127" lon="10.620795727969615"><ele>100.66666666666666</ele><time>2026-03-30T10:00:22.999Z</time></trkpt><trkpt lat="45.42269296283712" lon="10.620981905848023"><ele>100.83333333333333</ele><time>2026-03-30T10:00:25Z</time></trkpt><trkpt lat="45.42267641670576" lon="10.621123636905816"><ele>101.0</ele><time>2026-03-30T10:00:27Z</time></trkpt><trkpt lat="45.42252749023968" lon="10.621133745973006"><ele>100.99999999999999</ele><time>2026-03-30T10:00:30Z</time></trkpt><trkpt lat="45.42246387598206" lon="10.621158641685955"><ele>101.0</ele><time>2026-03-30T10:00:31Z</time></trkpt><trkpt lat="45.422385885082875" lon="10.62114322157937"><ele>101.0</ele><time>2026-03-30T10:00:32Z</time></trkpt><trkpt lat="45.42230530507585" lon="10.621175189982798"><ele>101.0</ele><time>2026-03-30T10:00:33Z</time></trkpt><trkpt lat="45.422233668368264" lon="10.621246728183271"><ele>100.99999999999999</ele><time>2026-03-30T10:00:34Z</time></trkpt><trkpt lat="45.42217128002149" lon="10.621294962063516"><ele>101.0</ele><time>2026-03-30T10:00:35Z</time></trkpt><trkpt lat="45.42210268351054" lon="10.621353952620053"><ele>101.14285714285714</ele><time>2026-03-30T10:00:36Z</time></trkpt><trkpt lat="45.42203777759576" lon="10.621405214789991"><ele>101.28571428571428</ele><time>2026-03-30T10:00:37Z</time></trkpt><trkpt lat="45.42197554233965" lon="10.62145141857864"><ele>101.42857142857143</ele><time>2026-03-30T10:00:38Z</time></trkpt><trkpt lat="45.42191346682436" lon="10.621493125832512"><ele>101.57142857142857</ele><time>2026-03-30T10:00:39Z</time></trkpt><trkpt lat="45.42185794587333" lon="10.621546914176097"><ele>101.71428571428572</ele><time>2026-03-30T10:00:40Z</time></trkpt><trkpt lat="45.42180139520543" lon="10.621591925766285"><ele>101.85714285714286</ele><time>2026-03-30T10:00:41Z</time></trkpt><trkpt lat="45.42173959649258" lon="10.621631229955916"><ele>102.0</ele><time>2026-03-30T10:00:42Z</time></trkpt><trkpt lat="45.421680882460436" lon="10.62168350329384"><ele>102.0</ele><time>2026-03-30T10:00:43Z</time></trkpt><trkpt lat="45.42161729304459" lon="10.621734504079248"><ele>102.0</ele><time>2026-03-30T10:00:44Z</time></trkpt><trkpt lat="45.421556980233994" lon="10.621785240535212"><ele>102.0</ele><time>2026-03-30T10:00:45Z</time></trkpt><trkpt lat="45.421492032753655" lon="10.621844864370676"><ele>102.0</ele><time>2026-03-30T10:00:46Z</time></trkpt><trkpt lat="45.421426118346105" lon="10.621911035915158"><ele>102.0</ele><time>2026-03-30T10:00:47Z</time></trkpt><trkpt lat="45.42136722155109" lon="10.621973424779089"><ele>102.0</ele><time>2026-03-30T10:00:48Z</time></trkpt><trkpt lat="45.42127119352377" lon="10.622072649641577"><ele>102.19999999999999</ele><time>2026-03-30T10:00:50Z</time></trkpt><trkpt lat="45.42118657798824" lon="10.622164524617999"><ele>102.4</ele><time>2026-03-30T10:00:52Z</time></trkpt><trkpt lat="45.42107775057084" lon="10.622278441598446"><ele>102.6</ele><time>2026-03-30T10:00:54Z</time></trkpt><trkpt lat="45.421004128094125" lon="10.62233663604582"><ele>102.80000000000001</ele><time>2026-03-30T10:00:55Z</time></trkpt><trkpt lat="45.42091510754898" lon="10.62235735771541"><ele>103.0</ele><time>2026-03-30T10:00:56Z</time></trkpt><trkpt lat="45.42082316097522" lon="10.622373752062844"><ele>103.0</ele><time>2026-03-30T10:00:57Z</time></trkpt><trkpt lat="45.42072367287921" lon="10.622386583583365"><ele>103.0</ele><time>2026-03-30T10:00:58Z</time></trkpt><trkpt lat="45.42061623444547" lon="10.622416617552703"><ele>103.0</ele><time>2026-03-30T10:00:59Z</time></trkpt><trkpt lat="45.420525255619395" lon="10.622428102495258"><ele>103.0</ele><time>2026-03-30T10:01:00Z</time></trkpt><trkpt lat="45.42044276860075" lon="10.622413259572252"><ele>103.0</ele><time>2026-03-30T10:01:01Z</time></trkpt><trkpt lat="45.42036281547629" lon="10.622420872991924"><ele>103.25</ele><time>2026-03-30T10:01:02Z</time></trkpt><trkpt lat="45.42025910034607" lon="10.62243097709175"><ele>103.5</ele><time>2026-03-30T10:01:03Z</time></trkpt><trkpt lat="45.42015056060191" lon="10.622441551103618"><ele>103.75</ele><time>2026-03-30T10:01:04Z</time></trkpt><trkpt lat="45.42003199496779" lon="10.62247394141795"><ele>104.0</ele><time>2026-03-30T10:01:05Z</time></trkpt><trkpt lat="45.41990751505886" lon="10.622483777457399"><ele>104.0</ele><time>2026-03-30T10:01:06Z</time></trkpt><trkpt lat="45.41978222141078" lon="10.622497369261808"><ele>104.0</ele><time>2026-03-30T10:01:07Z</time></trkpt><trkpt lat="45.419665133672176" lon="10.622502807865846"><ele>104.0</ele><time>2026-03-30T10:01:08Z</time></trkpt><trkpt lat="45.4195523690075" lon="10.622513709394019"><ele>104.0</ele><time>2026-03-30T10:01:09Z</time></trkpt><trkpt lat="45.41943280234644" lon="10.622520437133193"><ele>105.2</ele><time>2026-03-30T10:01:10Z</time></trkpt><trkpt lat="45.41932941795654" lon="10.622525122057576"><ele>106.4</ele><time>2026-03-30T10:01:11Z</time></trkpt><trkpt lat="45.41923268169318" lon="10.622531799269817"><ele>107.6</ele><time>2026-03-30T10:01:12Z</time></trkpt><trkpt lat="45.41914209604087" lon="10.622514568200264"><ele>108.8</ele><time>2026-03-30T10:01:13Z</time></trkpt><trkpt lat="45.419060197045255" lon="10.622518351065871"><ele>110.0</ele><time>2026-03-30T10:01:14Z</time></trkpt><trkpt lat="45.41898235601427" lon="10.6225233457801"><ele>110.0</ele><time>2026-03-30T10:01:15Z</time></trkpt><trkpt lat="45.41891428618864" lon="10.622532902511331"><ele>110.0</ele><time>2026-03-30T10:01:16Z</time></trkpt><trkpt lat="45.41884488546741" lon="10.622567162250506"><ele>110.0</ele><time>2026-03-30T10:01:17Z</time></trkpt><trkpt lat="45.41874755956203" lon="10.62263189028526"><ele>110.0</ele><time>2026-03-30T10:01:19Z</time></trkpt><trkpt lat="45.41871365098641" lon="10.62281367085513"><ele>110.0</ele><time>2026-03-30T10:01:21Z</time></trkpt><trkpt lat="45.418702468800696" lon="10.62293536104321"><ele>109.8</ele><time>2026-03-30T10:01:22Z</time></trkpt><trkpt lat="45.41868029227636" lon="10.623051083097362"><ele>109.6</ele><time>2026-03-30T10:01:23Z</time></trkpt><trkpt lat="45.418655427445096" lon="10.623198554270552"><ele>109.4</ele><time>2026-03-30T10:01:24Z</time></trkpt><trkpt lat="45.418630076026304" lon="10.623346165547465"><ele>109.2</ele><time>2026-03-30T10:01:25Z</time></trkpt><trkpt lat="45.418601190601436" lon="10.62350636866746"><ele>109.0</ele><time>2026-03-30T10:01:26Z</time></trkpt><trkpt lat="45.418580191275936" lon="10.623647442054967"><ele>109.0</ele><time>2026-03-30T10:01:27Z</time></trkpt><trkpt lat="45.41856907920188" lon="10.623770896470113"><ele>109.0</ele><time>2026-03-30T10:01:28Z</time></trkpt><trkpt lat="45.4185449711702" lon="10.623898591026137"><ele>109.0</ele><time>2026-03-30T10:01:30Z</time></trkpt><trkpt lat="45.418420958999796" lon="10.623915497567161"><ele>109.0</ele><time>2026-03-30T10:01:33Z</time></trkpt><trkpt lat="45.41832809737036" lon="10.623935485833286"><ele>109.0</ele><time>2026-03-30T10:01:34Z</time></trkpt><trkpt lat="45.41822639809295" lon="10.623975179804564"><ele>109.0</ele><time>2026-03-30T10:01:35Z</time></trkpt><trkpt lat="45.418131987537045" lon="10.624008219917561"><ele>109.0</ele><time>2026-03-30T10:01:36Z</time></trkpt><trkpt lat="45.41802920866209" lon="10.624048039034836"><ele>109.0</ele><time>2026-03-30T10:01:37Z</time></trkpt><trkpt lat="45.41792066763165" lon="10.624097048830423"><ele>109.0</ele><time>2026-03-30T10:01:38Z</time></trkpt><trkpt lat="45.417808802569866" lon="10.624141390923697"><ele>109.0</ele><time>2026-03-30T10:01:39Z</time></trkpt><trkpt lat="45.41770080296411" lon="10.624179596335958"><ele>108.80000000000001</ele><time>2026-03-30T10:01:40Z</time></trkpt><trkpt lat="45.417596060411455" lon="10.624207406400714"><ele>108.60000000000001</ele><time>2026-03-30T10:01:41Z</time></trkpt><trkpt lat="45.41748987022139" lon="10.624229194738984"><ele>108.4</ele><time>2026-03-30T10:01:42Z</time></trkpt><trkpt lat="45.417384333929476" lon="10.624230848138655"><ele>108.2</ele><time>2026-03-30T10:01:43Z</time></trkpt><trkpt lat="45.417268822123525" lon="10.624214984174573"><ele>108.0</ele><time>2026-03-30T10:01:44Z</time></trkpt><trkpt lat="45.417150287021" lon="10.624191810807911"><ele>108.60000000000001</ele><time>2026-03-30T10:01:45Z</time></trkpt><trkpt lat="45.41703577422997" lon="10.624168024207362"><ele>109.20000000000002</ele><time>2026-03-30T10:01:46Z</time></trkpt><trkpt lat="45.41692777685361" lon="10.624148098869512"><ele>109.8</ele><time>2026-03-30T10:01:47Z</time></trkpt><trkpt lat="45.416821590475706" lon="10.62413035896172"><ele>110.4</ele><time>2026-03-30T10:01:48Z</time></trkpt><trkpt lat="45.41670883864293" lon="10.624130503231488"><ele>111.0</ele><time>2026-03-30T10:01:49Z</time></trkpt><trkpt lat="45.41659065347925" lon="10.624142217143303"><ele>111.0</ele><time>2026-03-30T10:01:50Z</time></trkpt><trkpt lat="45.41648373283975" lon="10.62415341081477"><ele>111.0</ele><time>2026-03-30T10:01:51Z</time></trkpt><trkpt lat="45.41638666110212" lon="10.624162798892726"><ele>111.0</ele><time>2026-03-30T10:01:52Z</time></trkpt><trkpt lat="45.41628530892577" lon="10.624173005013457"><ele>111.0</ele><time>2026-03-30T10:01:53Z</time></trkpt><trkpt lat="45.41619140632821" lon="10.624178550917266"><ele>111.0</ele><time>2026-03-30T10:01:54Z</time></trkpt><trkpt lat="45.41608970751207" lon="10.62417548290288"><ele>110.75</ele><time>2026-03-30T10:01:55Z</time></trkpt><trkpt lat="45.41598824795545" lon="10.624162337553194"><ele>110.5</ele><time>2026-03-30T10:01:56Z</time></trkpt><trkpt lat="45.415859282764984" lon="10.624146833699474"><ele>110.25</ele><time>2026-03-30T10:01:57Z</time></trkpt><trkpt lat="45.415750345366625" lon="10.624137045996301"><ele>110.0</ele><time>2026-03-30T10:01:58Z</time></trkpt><trkpt lat="45.41563252163319" lon="10.624130776246732"><ele>110.0</ele><time>2026-03-30T10:01:59Z</time></trkpt><trkpt lat="45.415508613824095" lon="10.6241194229693"><ele>110.0</ele><time>2026-03-30T10:02:00Z</time></trkpt><trkpt lat="45.415393698024516" lon="10.624109536253176"><ele>110.0</ele><time>2026-03-30T10:02:01Z</time></trkpt><trkpt lat="45.41528837728116" lon="10.624108107939486"><ele>110.0</ele><time>2026-03-30T10:02:02Z</time></trkpt><trkpt lat="45.415182569675245" lon="10.624113295152135"><ele>109.6</ele><time>2026-03-30T10:02:03Z</time></trkpt><trkpt lat="45.415085832195345" lon="10.624124518760693"><ele>109.2</ele><time>2026-03-30T10:02:04Z</time></trkpt><trkpt lat="45.41499058218428" lon="10.624144451741365"><ele>108.80000000000001</ele><time>2026-03-30T10:02:04.999Z</time></trkpt><trkpt lat="45.41490152405071" lon="10.624177235351487"><ele>108.4</ele><time>2026-03-30T10:02:05.999Z</time></trkpt><trkpt lat="45.41481922880789" lon="10.624212224015068"><ele>108.0</ele><time>2026-03-30T10:02:06.999Z</time></trkpt><trkpt lat="45.4147307313905" lon="10.624254099034953"><ele>108.0</ele><time>2026-03-30T10:02:07.999Z</time></trkpt><trkpt lat="45.41464882456164" lon="10.624297675779925"><ele>108.00000000000001</ele><time>2026-03-30T10:02:08.999Z</time></trkpt><trkpt lat="45.414568181756145" lon="10.624338905558687"><ele>108.00000000000001</ele><time>2026-03-30T10:02:09.999Z</time></trkpt><trkpt lat="45.414492929314775" lon="10.624372848243157"><ele>108.0</ele><time>2026-03-30T10:02:10.999Z</time></trkpt><trkpt lat="45.41442488654145" lon="10.624399838282654"><ele>108.0</ele><time>2026-03-30T10:02:11.999Z</time></trkpt><trkpt lat="45.41429922932616" lon="10.62445691293816"><ele>108.33333333333333</ele><time>2026-03-30T10:02:13.999Z</time></trkpt><trkpt lat="45.41420072553107" lon="10.624497849682875"><ele>108.66666666666666</ele><time>2026-03-30T10:02:15.999Z</time></trkpt><trkpt lat="45.41411758478414" lon="10.624525255808427"><ele>109.0</ele><time>2026-03-30T10:02:17.999Z</time></trkpt><trkpt lat="45.414055339438505" lon="10.624544628416068"><ele>109.33333333333333</ele><time>2026-03-30T10:02:21.999Z</time></trkpt><trkpt lat="45.4139875709963" lon="10.624582367232087"><ele>109.66666666666666</ele><time>2026-03-30T10:02:26.999Z</time></trkpt><trkpt lat="45.41392052776849" lon="10.624611274157552"><ele>110.0</ele><time>2026-03-30T10:02:30Z</time></trkpt><trkpt lat="45.413830371995665" lon="10.624602401441933"><ele>109.99999999999999</ele><time>2026-03-30T10:02:33Z</time></trkpt><trkpt lat="45.413774846492856" lon="10.62453799372263"><ele>110.0</ele><time>2026-03-30T10:02:35Z</time></trkpt><trkpt lat="45.413731201343275" lon="10.624467360849355"><ele>110.0</ele><time>2026-03-30T10:02:39Z</time></trkpt><trkpt lat="45.41379750723013" lon="10.62456071814389"><ele>110.0</ele><time>2026-03-30T10:03:08Z</time></trkpt><trkpt lat="45.41389005270455" lon="10.624582805017305"><ele>109.99999999999999</ele><time>2026-03-30T10:03:10Z</time></trkpt><trkpt lat="45.41397315121593" lon="10.624583604061215"><ele>110.0</ele><time>2026-03-30T10:03:12Z</time></trkpt><trkpt lat="45.4140395936079" lon="10.62454382961326"><ele>110.0</ele><time>2026-03-30T10:03:15Z</time></trkpt><trkpt lat="45.41414459742892" lon="10.624515696112239"><ele>110.0</ele><time>2026-03-30T10:03:19Z</time></trkpt><trkpt lat="45.41423554641289" lon="10.624490470246592"><ele>110.0</ele><time>2026-03-30T10:03:20Z</time></trkpt><trkpt lat="45.41433196044997" lon="10.624462271087394"><ele>110.0</ele><time>2026-03-30T10:03:21Z</time></trkpt><trkpt lat="45.414425133834115" lon="10.624414972074288"><ele>110.0</ele><time>2026-03-30T10:03:22Z</time></trkpt><trkpt lat="45.414540200159514" lon="10.624358104926431"><ele>109.5</ele><time>2026-03-30T10:03:23Z</time></trkpt><trkpt lat="45.41466040583839" lon="10.624305568624012"><ele>109.0</ele><time>2026-03-30T10:03:24Z</time></trkpt><trkpt lat="45.41478998667656" lon="10.624247105592795"><ele>108.5</ele><time>2026-03-30T10:03:25Z</time></trkpt><trkpt lat="45.41493018269356" lon="10.624179341269523"><ele>108.0</ele><time>2026-03-30T10:03:26Z</time></trkpt><trkpt lat="45.41508046602289" lon="10.624136660344728"><ele>108.0</ele><time>2026-03-30T10:03:27Z</time></trkpt><trkpt lat="45.41524456374817" lon="10.62411680679465"><ele>108.0</ele><time>2026-03-30T10:03:28Z</time></trkpt><trkpt lat="45.41541124519661" lon="10.624114784242272"><ele>108.0</ele><time>2026-03-30T10:03:29Z</time></trkpt><trkpt lat="45.41557281747454" lon="10.624134765328089"><ele>108.66666666666666</ele><time>2026-03-30T10:03:30Z</time></trkpt><trkpt lat="45.41574164579666" lon="10.6241544692716"><ele>109.33333333333333</ele><time>2026-03-30T10:03:31Z</time></trkpt><trkpt lat="45.41591434567384" lon="10.624166565581042"><ele>110.0</ele><time>2026-03-30T10:03:32Z</time></trkpt><trkpt lat="45.41605517743712" lon="10.62417707441793"><ele>110.0</ele><time>2026-03-30T10:03:33Z</time></trkpt><trkpt lat="45.41618618244133" lon="10.62418962855192"><ele>110.0</ele><time>2026-03-30T10:03:34Z</time></trkpt><trkpt lat="45.416312694082265" lon="10.62419049231751"><ele>110.0</ele><time>2026-03-30T10:03:35Z</time></trkpt><trkpt lat="45.416469452265034" lon="10.624178344786658"><ele>110.0</ele><time>2026-03-30T10:03:36Z</time></trkpt><trkpt lat="45.41661431505141" lon="10.624161194374336"><ele>110.25</ele><time>2026-03-30T10:03:37Z</time></trkpt><trkpt lat="45.41673758190562" lon="10.62414663842943"><ele>110.5</ele><time>2026-03-30T10:03:38Z</time></trkpt><trkpt lat="45.416847915623556" lon="10.624149524477145"><ele>110.75</ele><time>2026-03-30T10:03:39Z</time></trkpt><trkpt lat="45.416971536644205" lon="10.624158819981897"><ele>111.0</ele><time>2026-03-30T10:03:40Z</time></trkpt><trkpt lat="45.417111425877586" lon="10.624188183757397"><ele>110.25</ele><time>2026-03-30T10:03:41Z</time></trkpt><trkpt lat="45.417263025139675" lon="10.624219663235117"><ele>109.5</ele><time>2026-03-30T10:03:42Z</time></trkpt><trkpt lat="45.417413782216315" lon="10.624240760846218"><ele>108.75</ele><time>2026-03-30T10:03:43Z</time></trkpt><trkpt lat="45.41754689705222" lon="10.62423695493117"><ele>108.0</ele><time>2026-03-30T10:03:44Z</time></trkpt><trkpt lat="45.417680407972206" lon="10.624205429005194"><ele>108.0</ele><time>2026-03-30T10:03:45Z</time></trkpt><trkpt lat="45.41782398945237" lon="10.62415600554362"><ele>108.0</ele><time>2026-03-30T10:03:46Z</time></trkpt><trkpt lat="45.41796994694713" lon="10.624095569652086"><ele>108.0</ele><time>2026-03-30T10:03:47Z</time></trkpt><trkpt lat="45.41810187236415" lon="10.624040128532442"><ele>108.0</ele><time>2026-03-30T10:03:48Z</time></trkpt><trkpt lat="45.418227485013745" lon="10.623988163324666"><ele>108.2</ele><time>2026-03-30T10:03:49Z</time></trkpt><trkpt lat="45.41833905512122" lon="10.623954909172994"><ele>108.4</ele><time>2026-03-30T10:03:50Z</time></trkpt><trkpt lat="45.41842381011226" lon="10.62392622237202"><ele>108.60000000000001</ele><time>2026-03-30T10:03:51Z</time></trkpt><trkpt lat="45.41853284993376" lon="10.62388406901635"><ele>108.80000000000001</ele><time>2026-03-30T10:03:53Z</time></trkpt><trkpt lat="45.4185853608487" lon="10.623750456419513"><ele>109.0</ele><time>2026-03-30T10:04:22.999Z</time></trkpt><trkpt lat="45.41861566617292" lon="10.623633830250988"><ele>108.50000000000001</ele><time>2026-03-30T10:04:23.999Z</time></trkpt><trkpt lat="45.418631962634706" lon="10.623506033658781"><ele>108.0</ele><time>2026-03-30T10:04:24.999Z</time></trkpt><trkpt lat="45.418650012159844" lon="10.623375243041671"><ele>107.5</ele><time>2026-03-30T10:04:25.999Z</time></trkpt><trkpt lat="45.41866158302053" lon="10.623249017332524"><ele>107.0</ele><time>2026-03-30T10:04:26.999Z</time></trkpt><trkpt lat="45.4186776612024" lon="10.623135176043382"><ele>106.50000000000001</ele><time>2026-03-30T10:04:27.999Z</time></trkpt><trkpt lat="45.41869489419366" lon="10.623044687425008"><ele>106.0</ele><time>2026-03-30T10:04:28.999Z</time></trkpt><trkpt lat="45.41872700522426" lon="10.622897245705923"><ele>106.4</ele><time>2026-03-30T10:04:30.999Z</time></trkpt><trkpt lat="45.41874791747077" lon="10.622749132954377"><ele>106.8</ele><time>2026-03-30T10:04:32.998Z</time></trkpt><trkpt lat="45.418730728704155" lon="10.622602894331703"><ele>107.20000000000002</ele><time>2026-03-30T10:04:34.998Z</time></trkpt><trkpt lat="45.4186372907665" lon="10.622548449944459"><ele>107.60000000000001</ele><time>2026-03-30T10:04:37Z</time></trkpt><trkpt lat="45.41857861877599" lon="10.622502932989288"><ele>108.0</ele><time>2026-03-30T10:04:38Z</time></trkpt><trkpt lat="45.41850593165828" lon="10.622458093540445"><ele>108.0</ele><time>2026-03-30T10:04:40Z</time></trkpt><trkpt lat="45.41852877220119" lon="10.622261341348429"><ele>108.0</ele><time>2026-03-30T10:04:42Z</time></trkpt><trkpt lat="45.41854320105125" lon="10.622146252107386"><ele>108.0</ele><time>2026-03-30T10:04:43Z</time></trkpt><trkpt lat="45.418540705561306" lon="10.622049478346712"><ele>108.0</ele><time>2026-03-30T10:04:44Z</time></trkpt><trkpt lat="45.418540947710255" lon="10.621953218489587"><ele>108.0</ele><time>2026-03-30T10:04:45Z</time></trkpt><trkpt lat="45.418508498616376" lon="10.621868153554153"><ele>108.0</ele><time>2026-03-30T10:04:46Z</time></trkpt><trkpt lat="45.4184066050509" lon="10.621809666118185"><ele>108.25</ele><time>2026-03-30T10:04:47Z</time></trkpt><trkpt lat="45.418289126180916" lon="10.621718895318299"><ele>108.5</ele><time>2026-03-30T10:04:48Z</time></trkpt><trkpt lat="45.41818624644662" lon="10.62162119380288"><ele>108.75</ele><time>2026-03-30T10:04:49Z</time></trkpt><trkpt lat="45.4180835039757" lon="10.621541145582814"><ele>109.0</ele><time>2026-03-30T10:04:50Z</time></trkpt><trkpt lat="45.41796481302561" lon="10.621448394305002"><ele>107.66666666666667</ele><time>2026-03-30T10:04:51Z</time></trkpt><trkpt lat="45.41782206064945" lon="10.621336222642542"><ele>106.33333333333334</ele><time>2026-03-30T10:04:52Z</time></trkpt><trkpt lat="45.41766522601339" lon="10.6212129854711"><ele>105.0</ele><time>2026-03-30T10:04:53Z</time></trkpt><trkpt lat="45.41749128368666" lon="10.621075913064415"><ele>104.33333333333334</ele><time>2026-03-30T10:04:54Z</time></trkpt><trkpt lat="45.41730665086733" lon="10.620954810721821"><ele>103.66666666666667</ele><time>2026-03-30T10:04:55Z</time></trkpt><trkpt lat="45.41713264989646" lon="10.620798674074578"><ele>103.0</ele><time>2026-03-30T10:04:56Z</time></trkpt><trkpt lat="45.41695599546517" lon="10.6206622620705"><ele>103.33333333333334</ele><time>2026-03-30T10:04:57Z</time></trkpt><trkpt lat="45.416787369335196" lon="10.620530155216231"><ele>103.66666666666666</ele><time>2026-03-30T10:04:58Z</time></trkpt><trkpt lat="45.41661683615778" lon="10.620386594798571"><ele>104.0</ele><time>2026-03-30T10:04:59Z</time></trkpt><trkpt lat="45.41646004004642" lon="10.620259141652268"><ele>105.66666666666666</ele><time>2026-03-30T10:05:00Z</time></trkpt><trkpt lat="45.416306343761256" lon="10.620135699222931"><ele>107.33333333333334</ele><time>2026-03-30T10:05:01Z</time></trkpt><trkpt lat="45.41615964008456" lon="10.620021642806682"><ele>109.0</ele><time>2026-03-30T10:05:02Z</time></trkpt><trkpt lat="45.416020062082666" lon="10.619891681443265"><ele>109.0</ele><time>2026-03-30T10:05:03Z</time></trkpt><trkpt lat="45.41589531794958" lon="10.619798589873984"><ele>109.0</ele><time>2026-03-30T10:05:04Z</time></trkpt><trkpt lat="45.415770025341835" lon="10.6197258535493"><ele>109.0</ele><time>2026-03-30T10:05:05Z</time></trkpt><trkpt lat="45.41560380512812" lon="10.619679614409142"><ele>109.0</ele><time>2026-03-30T10:05:06Z</time></trkpt><trkpt lat="45.415397009590286" lon="10.619613979454995"><ele>109.0</ele><time>2026-03-30T10:05:07Z</time></trkpt><trkpt lat="45.41516660580701" lon="10.619541601140945"><ele>109.0</ele><time>2026-03-30T10:05:08Z</time></trkpt><trkpt lat="45.41491632921085" lon="10.619468596415663"><ele>109.0</ele><time>2026-03-30T10:05:09Z</time></trkpt><trkpt lat="45.41467571947418" lon="10.619401504301468"><ele>109.0</ele><time>2026-03-30T10:05:10Z</time></trkpt><trkpt lat="45.41447033003959" lon="10.619344614707789"><ele>108.66666666666667</ele><time>2026-03-30T10:05:11Z</time></trkpt><trkpt lat="45.41427190214062" lon="10.619265335433493"><ele>108.33333333333334</ele><time>2026-03-30T10:05:12Z</time></trkpt><trkpt lat="45.41408298335508" lon="10.61920727607452"><ele>108.0</ele><time>2026-03-30T10:05:13Z</time></trkpt><trkpt lat="45.41390176108457" lon="10.619173978378214"><ele>107.25</ele><time>2026-03-30T10:05:14Z</time></trkpt><trkpt lat="45.41374272868704" lon="10.619126168136253"><ele>106.5</ele><time>2026-03-30T10:05:15Z</time></trkpt><trkpt lat="45.413596404274216" lon="10.61908520693714"><ele>105.75</ele><time>2026-03-30T10:05:16Z</time></trkpt><trkpt lat="45.41347334996351" lon="10.619042624450396"><ele>105.0</ele><time>2026-03-30T10:05:16.999Z</time></trkpt><trkpt lat="45.4133698640105" lon="10.619014851984678"><ele>105.0</ele><time>2026-03-30T10:05:17.999Z</time></trkpt><trkpt lat="45.41328928211567" lon="10.618984592257153"><ele>105.0</ele><time>2026-03-30T10:05:18.999Z</time></trkpt><trkpt lat="45.41322566369831" lon="10.618956430073283"><ele>105.0</ele><time>2026-03-30T10:05:20.999Z</time></trkpt><trkpt lat="45.41313653011771" lon="10.619085117947074"><ele>105.0</ele><time>2026-03-30T10:05:23.999Z</time></trkpt><trkpt lat="45.41310922673555" lon="10.61921808545822"><ele>105.0</ele><time>2026-03-30T10:05:24.999Z</time></trkpt><trkpt lat="45.41307463450109" lon="10.61937767348696"><ele>105.25</ele><time>2026-03-30T10:05:25.999Z</time></trkpt><trkpt lat="45.413031987253355" lon="10.619551041820731"><ele>105.5</ele><time>2026-03-30T10:05:26.999Z</time></trkpt><trkpt lat="45.41297834138438" lon="10.619753365320085"><ele>105.75</ele><time>2026-03-30T10:05:27.999Z</time></trkpt><trkpt lat="45.41291797362052" lon="10.619968522520827"><ele>106.0</ele><time>2026-03-30T10:05:28.999Z</time></trkpt><trkpt lat="45.41286180423455" lon="10.620172307816912"><ele>106.66666666666667</ele><time>2026-03-30T10:05:29.999Z</time></trkpt><trkpt lat="45.41280856776109" lon="10.620377376324013"><ele>107.33333333333334</ele><time>2026-03-30T10:05:30.999Z</time></trkpt><trkpt lat="45.41275655067513" lon="10.620582200764717"><ele>108.0</ele><time>2026-03-30T10:05:31.999Z</time></trkpt><trkpt lat="45.41270466601386" lon="10.620785948386038"><ele>108.0</ele><time>2026-03-30T10:05:32.999Z</time></trkpt><trkpt lat="45.412648150732366" lon="10.62099027334411"><ele>108.0</ele><time>2026-03-30T10:05:33.999Z</time></trkpt><trkpt lat="45.41256868618322" lon="10.621180557903172"><ele>108.0</ele><time>2026-03-30T10:05:34.999Z</time></trkpt><trkpt lat="45.41249851686329" lon="10.62137637988644"><ele>108.0</ele><time>2026-03-30T10:05:35.999Z</time></trkpt><trkpt lat="45.41240435359426" lon="10.621560446306118"><ele>108.0</ele><time>2026-03-30T10:05:36.999Z</time></trkpt><trkpt lat="45.41229892668582" lon="10.621729487977891"><ele>108.0</ele><time>2026-03-30T10:05:37.999Z</time></trkpt><trkpt lat="45.41218268958204" lon="10.621896476491408"><ele>108.66666666666666</ele><time>2026-03-30T10:05:38.999Z</time></trkpt><trkpt lat="45.41206478641449" lon="10.62206543777259"><ele>109.33333333333333</ele><time>2026-03-30T10:05:39.999Z</time></trkpt><trkpt lat="45.411950709460804" lon="10.622221033524502"><ele>110.0</ele><time>2026-03-30T10:05:40.999Z</time></trkpt><trkpt lat="45.41184013792842" lon="10.622374822629196"><ele>110.0</ele><time>2026-03-30T10:05:41.999Z</time></trkpt><trkpt lat="45.41173102677119" lon="10.622535463878682"><ele>110.0</ele><time>2026-03-30T10:05:42.999Z</time></trkpt><trkpt lat="45.41162527302708" lon="10.622685607614885"><ele>110.0</ele><time>2026-03-30T10:05:43.999Z</time></trkpt><trkpt lat="45.41151567365142" lon="10.622826460299569"><ele>110.25</ele><time>2026-03-30T10:05:44.999Z</time></trkpt><trkpt lat="45.41140794163378" lon="10.622957894633066"><ele>110.5</ele><time>2026-03-30T10:05:45.999Z</time></trkpt><trkpt lat="45.41129940624362" lon="10.623078478543098"><ele>110.75</ele><time>2026-03-30T10:05:46.999Z</time></trkpt><trkpt lat="45.41119016149821" lon="10.62318487147194"><ele>111.0</ele><time>2026-03-30T10:05:47.999Z</time></trkpt><trkpt lat="45.41107319752198" lon="10.623288122569484"><ele>111.0</ele><time>2026-03-30T10:05:48.999Z</time></trkpt><trkpt lat="45.4109469735935" lon="10.623393433740565"><ele>111.0</ele><time>2026-03-30T10:05:49.999Z</time></trkpt><trkpt lat="45.41082131354207" lon="10.62350071494677"><ele>111.0</ele><time>2026-03-30T10:05:50.999Z</time></trkpt><trkpt lat="45.4107044302809" lon="10.623633738088774"><ele>111.0</ele><time>2026-03-30T10:05:51.999Z</time></trkpt><trkpt lat="45.41059561268485" lon="10.623816860417097"><ele>111.66666666666666</ele><time>2026-03-30T10:05:52.999Z</time></trkpt><trkpt lat="45.41050601004577" lon="10.624016325955601"><ele>112.33333333333333</ele><time>2026-03-30T10:05:53.999Z</time></trkpt><trkpt lat="45.41045029007851" lon="10.624228687875654"><ele>113.0</ele><time>2026-03-30T10:05:54.999Z</time></trkpt><trkpt lat="45.41041808647091" lon="10.624433936602056"><ele>109.25</ele><time>2026-03-30T10:05:55.999Z</time></trkpt><trkpt lat="45.410400820630244" lon="10.624628594929735"><ele>105.5</ele><time>2026-03-30T10:05:56.999Z</time></trkpt><trkpt lat="45.41038650794485" lon="10.624818559166027"><ele>101.75</ele><time>2026-03-30T10:05:57.999Z</time></trkpt><trkpt lat="45.41037329796608" lon="10.624985956891477"><ele>98.0</ele><time>2026-03-30T10:05:58.999Z</time></trkpt><trkpt lat="45.41034949301984" lon="10.625152090859034"><ele>97.75</ele><time>2026-03-30T10:05:59.999Z</time></trkpt><trkpt lat="45.41030110779868" lon="10.625321685154848"><ele>97.5</ele><time>2026-03-30T10:06:00.999Z</time></trkpt><trkpt lat="45.410231220157975" lon="10.62550000039923"><ele>97.25</ele><time>2026-03-30T10:06:01.999Z</time></trkpt><trkpt lat="45.410150212168084" lon="10.625657330988519"><ele>97.0</ele><time>2026-03-30T10:06:02.999Z</time></trkpt><trkpt lat="45.41005147430805" lon="10.625800203444745"><ele>97.0</ele><time>2026-03-30T10:06:03.999Z</time></trkpt><trkpt lat="45.40993440190519" lon="10.625927860166668"><ele>97.0</ele><time>2026-03-30T10:06:04.999Z</time></trkpt><trkpt lat="45.40979952990828" lon="10.626042589716086"><ele>97.0</ele><time>2026-03-30T10:06:05.999Z</time></trkpt><trkpt lat="45.409650165025525" lon="10.626172393328957"><ele>96.33333333333334</ele><time>2026-03-30T10:06:06.999Z</time></trkpt><trkpt lat="45.40949867611082" lon="10.626301986343785"><ele>95.66666666666667</ele><time>2026-03-30T10:06:07.999Z</time></trkpt><trkpt lat="45.40934027484415" lon="10.626430689256129"><ele>95.0</ele><time>2026-03-30T10:06:08.999Z</time></trkpt><trkpt lat="45.409179547922236" lon="10.626560546821217"><ele>95.0</ele><time>2026-03-30T10:06:09.999Z</time></trkpt><trkpt lat="45.409014794259406" lon="10.626691629929754"><ele>95.0</ele><time>2026-03-30T10:06:10.999Z</time></trkpt><trkpt lat="45.40885785602915" lon="10.626817127943388"><ele>95.0</ele><time>2026-03-30T10:06:11.999Z</time></trkpt><trkpt lat="45.40870528234118" lon="10.626933574092995"><ele>96.66666666666667</ele><time>2026-03-30T10:06:12.999Z</time></trkpt><trkpt lat="45.4085625670653" lon="10.627043082544432"><ele>98.33333333333334</ele><time>2026-03-30T10:06:13.999Z</time></trkpt><trkpt lat="45.40842488572048" lon="10.6271431033239"><ele>100.0</ele><time>2026-03-30T10:06:14.999Z</time></trkpt><trkpt lat="45.408276010424885" lon="10.62722283301975"><ele>100.0</ele><time>2026-03-30T10:06:15.999Z</time></trkpt><trkpt lat="45.40812475564732" lon="10.627281105571923"><ele>100.0</ele><time>2026-03-30T10:06:16.999Z</time></trkpt><trkpt lat="45.407978775652765" lon="10.627319812935813"><ele>100.0</ele><time>2026-03-30T10:06:17.999Z</time></trkpt><trkpt lat="45.40784300400659" lon="10.627376868361557"><ele>100.0</ele><time>2026-03-30T10:06:18.999Z</time></trkpt><trkpt lat="45.40772102004076" lon="10.627444314968585"><ele>100.25</ele><time>2026-03-30T10:06:19.999Z</time></trkpt><trkpt lat="45.40761097202165" lon="10.627510879045346"><ele>100.5</ele><time>2026-03-30T10:06:20.999Z</time></trkpt><trkpt lat="45.40750165515901" lon="10.627551521448106"><ele>100.75</ele><time>2026-03-30T10:06:21.999Z</time></trkpt><trkpt lat="45.40738711276806" lon="10.627592163128963"><ele>101.0</ele><time>2026-03-30T10:06:22.999Z</time></trkpt><trkpt lat="45.40727899049248" lon="10.627663781090774"><ele>100.66666666666666</ele><time>2026-03-30T10:06:23.999Z</time></trkpt><trkpt lat="45.4071583504061" lon="10.627700002999752"><ele>100.33333333333334</ele><time>2026-03-30T10:06:24.999Z</time></trkpt><trkpt lat="45.407008574694046" lon="10.627663226816969"><ele>100.0</ele><time>2026-03-30T10:06:25.999Z</time></trkpt><trkpt lat="45.406829152756494" lon="10.62765375177578"><ele>100.0</ele><time>2026-03-30T10:06:26.999Z</time></trkpt><trkpt lat="45.40663977283082" lon="10.62761465258039"><ele>100.0</ele><time>2026-03-30T10:06:27.999Z</time></trkpt><trkpt lat="45.40643863916281" lon="10.627574791895967"><ele>100.0</ele><time>2026-03-30T10:06:28.999Z</time></trkpt><trkpt lat="45.40623243252008" lon="10.627524354373017"><ele>100.33333333333334</ele><time>2026-03-30T10:06:29.999Z</time></trkpt><trkpt lat="45.40602069347248" lon="10.6274674316149"><ele>100.66666666666666</ele><time>2026-03-30T10:06:30.999Z</time></trkpt><trkpt lat="45.40581103833188" lon="10.627400876328805"><ele>101.0</ele><time>2026-03-30T10:06:31.999Z</time></trkpt><trkpt lat="45.40561700957105" lon="10.627330569879014"><ele>103.0</ele><time>2026-03-30T10:06:32.999Z</time></trkpt><trkpt lat="45.405414850688246" lon="10.627242363478288"><ele>105.0</ele><time>2026-03-30T10:06:33.999Z</time></trkpt><trkpt lat="45.40522534338693" lon="10.62714289258819"><ele>107.0</ele><time>2026-03-30T10:06:34.999Z</time></trkpt><trkpt lat="45.40506163735059" lon="10.627051655800114"><ele>107.0</ele><time>2026-03-30T10:06:35.999Z</time></trkpt><trkpt lat="45.40488390902196" lon="10.626979944024296"><ele>107.0</ele><time>2026-03-30T10:06:36.999Z</time></trkpt><trkpt lat="45.40470968224773" lon="10.626924556797801"><ele>107.0</ele><time>2026-03-30T10:06:37.999Z</time></trkpt><trkpt lat="45.404538704782695" lon="10.626872636493346"><ele>112.33333333333333</ele><time>2026-03-30T10:06:38.999Z</time></trkpt><trkpt lat="45.404358218683875" lon="10.62681908372692"><ele>117.66666666666666</ele><time>2026-03-30T10:06:39.999Z</time></trkpt><trkpt lat="45.40420268839835" lon="10.626784411771416"><ele>123.0</ele><time>2026-03-30T10:06:41Z</time></trkpt><trkpt lat="45.40405739217688" lon="10.626780578940158"><ele>123.0</ele><time>2026-03-30T10:06:42Z</time></trkpt><trkpt lat="45.40391350953597" lon="10.626795142907914"><ele>123.0</ele><time>2026-03-30T10:06:43Z</time></trkpt><trkpt lat="45.40378095744922" lon="10.626828879162352"><ele>123.0</ele><time>2026-03-30T10:06:44Z</time></trkpt><trkpt lat="45.40366093869314" lon="10.62682177017117"><ele>123.0</ele><time>2026-03-30T10:06:45Z</time></trkpt><trkpt lat="45.4035697439137" lon="10.626803782153365"><ele>123.16666666666667</ele><time>2026-03-30T10:06:46Z</time></trkpt><trkpt lat="45.40348388215063" lon="10.626770557082278"><ele>123.33333333333334</ele><time>2026-03-30T10:06:47Z</time></trkpt><trkpt lat="45.40341406152569" lon="10.626760702698585"><ele>123.5</ele><time>2026-03-30T10:06:48Z</time></trkpt><trkpt lat="45.40336734394376" lon="10.626622530046639"><ele>123.66666666666667</ele><time>2026-03-30T10:06:50Z</time></trkpt><trkpt lat="45.403371582036854" lon="10.626528083372278"><ele>123.83333333333334</ele><time>2026-03-30T10:06:51Z</time></trkpt><trkpt lat="45.40341260169187" lon="10.626424253974402"><ele>124.0</ele><time>2026-03-30T10:06:52Z</time></trkpt><trkpt lat="45.40345868227543" lon="10.626309321213455"><ele>124.00000000000001</ele><time>2026-03-30T10:06:53Z</time></trkpt><trkpt lat="45.403484285294255" lon="10.626182405344348"><ele>124.0</ele><time>2026-03-30T10:06:54Z</time></trkpt><trkpt lat="45.40349531736399" lon="10.62606589399758"><ele>124.0</ele><time>2026-03-30T10:06:55Z</time></trkpt><trkpt lat="45.403492394142724" lon="10.625976196218515"><ele>124.0</ele><time>2026-03-30T10:06:56Z</time></trkpt><trkpt lat="45.40347369324655" lon="10.625865679075586"><ele>124.00000000000001</ele><time>2026-03-30T10:07:00Z</time></trkpt><trkpt lat="45.40346230779373" lon="10.62570759311003"><ele>124.0</ele><time>2026-03-30T10:07:02Z</time></trkpt><trkpt lat="45.403464624636214" lon="10.625617078460905"><ele>124.00000000000001</ele><time>2026-03-30T10:07:03Z</time></trkpt><trkpt lat="45.403469433291626" lon="10.625508822158666"><ele>124.0</ele><time>2026-03-30T10:07:04Z</time></trkpt><trkpt lat="45.40349720050763" lon="10.62540558603531"><ele>124.0</ele><time>2026-03-30T10:07:05Z</time></trkpt><trkpt lat="45.40353287198789" lon="10.625318436218441"><ele>124.0</ele><time>2026-03-30T10:07:06Z</time></trkpt><trkpt lat="45.40357412036179" lon="10.625202760956425"><ele>124.00000000000001</ele><time>2026-03-30T10:07:08Z</time></trkpt><trkpt lat="45.403660874663096" lon="10.625141845649779"><ele>124.0</ele><time>2026-03-30T10:07:10Z</time></trkpt><trkpt lat="45.40372717553128" lon="10.625070269690434"><ele>123.2</ele><time>2026-03-30T10:07:11Z</time></trkpt><trkpt lat="45.4038019623763" lon="10.624983628312686"><ele>122.4</ele><time>2026-03-30T10:07:12Z</time></trkpt><trkpt lat="45.40386984465685" lon="10.624900047039885"><ele>121.6</ele><time>2026-03-30T10:07:13Z</time></trkpt><trkpt lat="45.40392875494543" lon="10.62481686665511"><ele>120.8</ele><time>2026-03-30T10:07:14Z</time></trkpt><trkpt lat="45.40398052192076" lon="10.624734290199408"><ele>120.0</ele><time>2026-03-30T10:07:15Z</time></trkpt><trkpt lat="45.40398359880389" lon="10.624536646749577"><ele>118.6</ele><time>2026-03-30T10:07:16.999Z</time></trkpt><trkpt lat="45.40393974636384" lon="10.624411135496155"><ele>117.2</ele><time>2026-03-30T10:07:17.999Z</time></trkpt><trkpt lat="45.40389079236922" lon="10.624280254514916"><ele>115.80000000000001</ele><time>2026-03-30T10:07:18.999Z</time></trkpt><trkpt lat="45.40385047652317" lon="10.624164814999784"><ele>114.4</ele><time>2026-03-30T10:07:19.999Z</time></trkpt><trkpt lat="45.40380889708677" lon="10.624061700631364"><ele>113.0</ele><time>2026-03-30T10:07:20.999Z</time></trkpt><trkpt lat="45.40375191260382" lon="10.62394681661092"><ele>113.0</ele><time>2026-03-30T10:07:21.999Z</time></trkpt><trkpt lat="45.40369251993438" lon="10.623835721258681"><ele>113.00000000000001</ele><time>2026-03-30T10:07:22.999Z</time></trkpt><trkpt lat="45.40363269365583" lon="10.623725872236882"><ele>113.00000000000001</ele><time>2026-03-30T10:07:23.999Z</time></trkpt><trkpt lat="45.40358405378738" lon="10.623623534856122"><ele>113.0</ele><time>2026-03-30T10:07:24.999Z</time></trkpt><trkpt lat="45.403523458441626" lon="10.623516895151191"><ele>113.0</ele><time>2026-03-30T10:07:25.999Z</time></trkpt><trkpt lat="45.40346491193756" lon="10.62339949010646"><ele>111.5</ele><time>2026-03-30T10:07:26.999Z</time></trkpt><trkpt lat="45.403431306756815" lon="10.623241044956773"><ele>110.0</ele><time>2026-03-30T10:07:27.999Z</time></trkpt><trkpt lat="45.40344187824001" lon="10.62308202638761"><ele>108.5</ele><time>2026-03-30T10:07:28.999Z</time></trkpt><trkpt lat="45.40349681445851" lon="10.622910198168485"><ele>107.0</ele><time>2026-03-30T10:07:29.999Z</time></trkpt><trkpt lat="45.403553955654985" lon="10.622766352221475"><ele>105.75</ele><time>2026-03-30T10:07:30.999Z</time></trkpt><trkpt lat="45.40360920695592" lon="10.622616891865844"><ele>104.5</ele><time>2026-03-30T10:07:31.999Z</time></trkpt><trkpt lat="45.403642754398916" lon="10.62245736903216"><ele>103.25</ele><time>2026-03-30T10:07:32.999Z</time></trkpt><trkpt lat="45.40366268154271" lon="10.622280587740086"><ele>102.0</ele><time>2026-03-30T10:07:33.999Z</time></trkpt><trkpt lat="45.40368613317362" lon="10.622103399191651"><ele>100.5</ele><time>2026-03-30T10:07:34.999Z</time></trkpt><trkpt lat="45.403708323275005" lon="10.621926901056755"><ele>99.0</ele><time>2026-03-30T10:07:35.999Z</time></trkpt><trkpt lat="45.40372951847591" lon="10.621744422592743"><ele>97.5</ele><time>2026-03-30T10:07:36.999Z</time></trkpt><trkpt lat="45.40376243039505" lon="10.621563730546805"><ele>96.0</ele><time>2026-03-30T10:07:37.999Z</time></trkpt><trkpt lat="45.40377550234642" lon="10.621384684969042"><ele>96.0</ele><time>2026-03-30T10:07:38.999Z</time></trkpt><trkpt lat="45.40380438966122" lon="10.62121684623547"><ele>96.0</ele><time>2026-03-30T10:07:39.999Z</time></trkpt><trkpt lat="45.403824746445366" lon="10.621058255431159"><ele>96.0</ele><time>2026-03-30T10:07:40.999Z</time></trkpt><trkpt lat="45.403847713924165" lon="10.620917715371036"><ele>96.0</ele><time>2026-03-30T10:07:41.999Z</time></trkpt><trkpt lat="45.40388125413265" lon="10.62077988073701"><ele>96.0</ele><time>2026-03-30T10:07:42.999Z</time></trkpt><trkpt lat="45.40392572567836" lon="10.62063941372452"><ele>95.25</ele><time>2026-03-30T10:07:43.999Z</time></trkpt><trkpt lat="45.40398316587508" lon="10.620509036161748"><ele>94.5</ele><time>2026-03-30T10:07:44.999Z</time></trkpt><trkpt lat="45.40405779843975" lon="10.620383802617695"><ele>93.75</ele><time>2026-03-30T10:07:45.999Z</time></trkpt><trkpt lat="45.4041585448124" lon="10.620269286928039"><ele>93.0</ele><time>2026-03-30T10:07:46.999Z</time></trkpt><trkpt lat="45.40426420848634" lon="10.620129256805276"><ele>93.0</ele><time>2026-03-30T10:07:47.999Z</time></trkpt><trkpt lat="45.40436366231676" lon="10.620005981963248"><ele>93.0</ele><time>2026-03-30T10:07:48.999Z</time></trkpt><trkpt lat="45.40445419921548" lon="10.619901781439538"><ele>93.0</ele><time>2026-03-30T10:07:49.999Z</time></trkpt><trkpt lat="45.40455254081077" lon="10.619794448588332"><ele>93.0</ele><time>2026-03-30T10:07:50.999Z</time></trkpt><trkpt lat="45.404657608320136" lon="10.61969486448824"><ele>92.75</ele><time>2026-03-30T10:07:51.999Z</time></trkpt><trkpt lat="45.40477961828198" lon="10.619587926543508"><ele>92.5</ele><time>2026-03-30T10:07:52.999Z</time></trkpt><trkpt lat="45.40491064750391" lon="10.619484680014757"><ele>92.25</ele><time>2026-03-30T10:07:53.999Z</time></trkpt><trkpt lat="45.40502415254467" lon="10.619397446020804"><ele>92.0</ele><time>2026-03-30T10:07:54.999Z</time></trkpt><trkpt lat="45.40510685079333" lon="10.619333887476495"><ele>91.6</ele><time>2026-03-30T10:07:55.999Z</time></trkpt><trkpt lat="45.40516757941001" lon="10.619278605314793"><ele>91.19999999999999</ele><time>2026-03-30T10:07:56.999Z</time></trkpt><trkpt lat="45.40523062587912" lon="10.619220861538848"><ele>90.8</ele><time>2026-03-30T10:07:58.999Z</time></trkpt><trkpt lat="45.40529854623361" lon="10.619184996432738"><ele>90.4</ele><time>2026-03-30T10:08:00.999Z</time></trkpt><trkpt lat="45.405210542544296" lon="10.619015986181616"><ele>90.0</ele><time>2026-03-30T10:08:05.999Z</time></trkpt><trkpt lat="45.40512106245393" lon="10.618989165697569"><ele>90.0</ele><time>2026-03-30T10:08:06.999Z</time></trkpt><trkpt lat="45.40503823974628" lon="10.618928657092951"><ele>90.0</ele><time>2026-03-30T10:08:07.999Z</time></trkpt><trkpt lat="45.40493188426939" lon="10.618882607851768"><ele>90.0</ele><time>2026-03-30T10:08:08.999Z</time></trkpt><trkpt lat="45.40484659043427" lon="10.6188419427712"><ele>90.0</ele><time>2026-03-30T10:08:09.999Z</time></trkpt><trkpt lat="45.40474493799932" lon="10.618791977074984"><ele>90.0</ele><time>2026-03-30T10:08:10.999Z</time></trkpt><trkpt lat="45.4046576789714" lon="10.618752984081883"><ele>90.0</ele><time>2026-03-30T10:08:11.999Z</time></trkpt><trkpt lat="45.40457196540333" lon="10.618717540645807"><ele>90.0</ele><time>2026-03-30T10:08:12.999Z</time></trkpt><trkpt lat="45.404464248323414" lon="10.618691235476254"><ele>90.0</ele><time>2026-03-30T10:08:13.999Z</time></trkpt><trkpt lat="45.404354831699905" lon="10.618674954866648"><ele>90.0</ele><time>2026-03-30T10:08:14.999Z</time></trkpt><trkpt lat="45.404241997848374" lon="10.618641425519284"><ele>90.0</ele><time>2026-03-30T10:08:15.999Z</time></trkpt><trkpt lat="45.4041291122712" lon="10.618613130037827"><ele>90.0</ele><time>2026-03-30T10:08:16.999Z</time></trkpt><trkpt lat="45.404019741347845" lon="10.618579074486398"><ele>90.0</ele><time>2026-03-30T10:08:17.999Z</time></trkpt><trkpt lat="45.40389403105818" lon="10.61853717106733"><ele>90.0</ele><time>2026-03-30T10:08:18.999Z</time></trkpt><trkpt lat="45.40377091912607" lon="10.618516467900326"><ele>90.0</ele><time>2026-03-30T10:08:19.999Z</time></trkpt><trkpt lat="45.403656144181646" lon="10.61848391578456"><ele>90.75</ele><time>2026-03-30T10:08:20.999Z</time></trkpt><trkpt lat="45.403546067769774" lon="10.618450502872495"><ele>91.5</ele><time>2026-03-30T10:08:21.999Z</time></trkpt><trkpt lat="45.40342625766986" lon="10.618424495431698"><ele>92.25</ele><time>2026-03-30T10:08:22.999Z</time></trkpt><trkpt lat="45.40329942133205" lon="10.618411557213962"><ele>93.0</ele><time>2026-03-30T10:08:23.999Z</time></trkpt><trkpt lat="45.40315702345359" lon="10.61841620907406"><ele>93.0</ele><time>2026-03-30T10:08:24.999Z</time></trkpt><trkpt lat="45.40302551762772" lon="10.618398753695834"><ele>93.0</ele><time>2026-03-30T10:08:25.999Z</time></trkpt><trkpt lat="45.402911351911676" lon="10.618405265629104"><ele>93.0</ele><time>2026-03-30T10:08:26.999Z</time></trkpt><trkpt lat="45.402815473343644" lon="10.618423309975556"><ele>93.0</ele><time>2026-03-30T10:08:27.999Z</time></trkpt><trkpt lat="45.4027266045186" lon="10.618463489097651"><ele>93.0</ele><time>2026-03-30T10:08:28.999Z</time></trkpt><trkpt lat="45.40266125594767" lon="10.618481161142537"><ele>93.0</ele><time>2026-03-30T10:08:29.999Z</time></trkpt><trkpt lat="45.40261459355314" lon="10.618619239911723"><ele>93.0</ele><time>2026-03-30T10:08:40.999Z</time></trkpt><trkpt lat="45.40256828913474" lon="10.618719353313088"><ele>93.0</ele><time>2026-03-30T10:08:41.999Z</time></trkpt><trkpt lat="45.40251530570357" lon="10.618859024636254"><ele>93.0</ele><time>2026-03-30T10:08:42.999Z</time></trkpt><trkpt lat="45.4024379562459" lon="10.618995639102208"><ele>93.0</ele><time>2026-03-30T10:08:43.999Z</time></trkpt><trkpt lat="45.40236046132075" lon="10.619141871221318"><ele>93.66666666666667</ele><time>2026-03-30T10:08:44.999Z</time></trkpt><trkpt lat="45.402251011260624" lon="10.619302847378789"><ele>94.33333333333334</ele><time>2026-03-30T10:08:45.999Z</time></trkpt><trkpt lat="45.402121042034445" lon="10.61952936997075"><ele>95.0</ele><time>2026-03-30T10:08:47Z</time></trkpt><trkpt lat="45.40197658034361" lon="10.619714447629782"><ele>95.0</ele><time>2026-03-30T10:08:48Z</time></trkpt><trkpt lat="45.401850025835" lon="10.619911245000509"><ele>95.0</ele><time>2026-03-30T10:08:49Z</time></trkpt><trkpt lat="45.401745796278405" lon="10.620095284903341"><ele>95.0</ele><time>2026-03-30T10:08:50Z</time></trkpt><trkpt lat="45.40159982169331" lon="10.620306893038169"><ele>95.33333333333334</ele><time>2026-03-30T10:08:51Z</time></trkpt><trkpt lat="45.40147670389551" lon="10.620499900735432"><ele>95.66666666666667</ele><time>2026-03-30T10:08:52Z</time></trkpt><trkpt lat="45.40135921445812" lon="10.620684006174852"><ele>96.0</ele><time>2026-03-30T10:08:53Z</time></trkpt><trkpt lat="45.40124731612245" lon="10.62085653217028"><ele>96.25</ele><time>2026-03-30T10:08:54Z</time></trkpt><trkpt lat="45.4011451890334" lon="10.621013921125318"><ele>96.5</ele><time>2026-03-30T10:08:55Z</time></trkpt><trkpt lat="45.401059424393104" lon="10.621146595188604"><ele>96.75</ele><time>2026-03-30T10:08:56Z</time></trkpt><trkpt lat="45.400984981388156" lon="10.621270939603589"><ele>97.0</ele><time>2026-03-30T10:08:57Z</time></trkpt><trkpt lat="45.4009275505032" lon="10.6213635484599"><ele>99.25</ele><time>2026-03-30T10:08:58Z</time></trkpt><trkpt lat="45.40086360448159" lon="10.62142250764318"><ele>101.5</ele><time>2026-03-30T10:08:59Z</time></trkpt><trkpt lat="45.4007436357228" lon="10.621441143884978"><ele>103.75</ele><time>2026-03-30T10:09:01Z</time></trkpt><trkpt lat="45.40058865764431" lon="10.621380659909397"><ele>106.0</ele><time>2026-03-30T10:09:03Z</time></trkpt><trkpt lat="45.400456035783726" lon="10.621353149973153"><ele>106.0</ele><time>2026-03-30T10:09:04Z</time></trkpt><trkpt lat="45.40031676354951" lon="10.621271320978495"><ele>106.0</ele><time>2026-03-30T10:09:05Z</time></trkpt><trkpt lat="45.400202255123396" lon="10.62122485735491"><ele>106.0</ele><time>2026-03-30T10:09:06Z</time></trkpt><trkpt lat="45.40009953650147" lon="10.621181645392507"><ele>106.0</ele><time>2026-03-30T10:09:07Z</time></trkpt><trkpt lat="45.40001406731841" lon="10.621144581583293"><ele>106.0</ele><time>2026-03-30T10:09:08Z</time></trkpt><trkpt lat="45.39992208721864" lon="10.62112074426042"><ele>106.0</ele><time>2026-03-30T10:09:09Z</time></trkpt><trkpt lat="45.39983815140973" lon="10.621079067030253"><ele>106.0</ele><time>2026-03-30T10:09:10Z</time></trkpt><trkpt lat="45.399727569190134" lon="10.62098618374216"><ele>106.0</ele><time>2026-03-30T10:09:12Z</time></trkpt><trkpt lat="45.399667210108795" lon="10.620949437652426"><ele>106.0</ele><time>2026-03-30T10:09:14Z</time></trkpt><trkpt lat="45.399574356409744" lon="10.621060822640896"><ele>106.50000000000001</ele><time>2026-03-30T10:09:16Z</time></trkpt><trkpt lat="45.39953949423583" lon="10.621150557961393"><ele>107.0</ele><time>2026-03-30T10:09:17Z</time></trkpt><trkpt lat="45.399507427054466" lon="10.621251725712392"><ele>107.5</ele><time>2026-03-30T10:09:18Z</time></trkpt><trkpt lat="45.399465645612096" lon="10.621346491599619"><ele>108.0</ele><time>2026-03-30T10:09:19Z</time></trkpt><trkpt lat="45.39942743789986" lon="10.621446122616996"><ele>108.50000000000001</ele><time>2026-03-30T10:09:20Z</time></trkpt><trkpt lat="45.39940672337126" lon="10.62158265965336"><ele>109.0</ele><time>2026-03-30T10:09:21Z</time></trkpt><trkpt lat="45.39940721803153" lon="10.621736374535319"><ele>109.0</ele><time>2026-03-30T10:09:22Z</time></trkpt><trkpt lat="45.3994102610721" lon="10.621912994836036"><ele>109.0</ele><time>2026-03-30T10:09:23Z</time></trkpt><trkpt lat="45.39942722649301" lon="10.622045199368912"><ele>109.0</ele><time>2026-03-30T10:09:24Z</time></trkpt><trkpt lat="45.39943062881221" lon="10.622162207151543"><ele>109.0</ele><time>2026-03-30T10:09:25Z</time></trkpt><trkpt lat="45.39944081420977" lon="10.622269793393755"><ele>109.0</ele><time>2026-03-30T10:09:26Z</time></trkpt><trkpt lat="45.39944480807541" lon="10.62242699656076"><ele>109.5</ele><time>2026-03-30T10:09:28Z</time></trkpt><trkpt lat="45.39927193253267" lon="10.622408035738339"><ele>110.0</ele><time>2026-03-30T10:09:32Z</time></trkpt><trkpt lat="45.39917218084991" lon="10.622360598221642"><ele>110.5</ele><time>2026-03-30T10:09:33Z</time></trkpt><trkpt lat="45.39905036847185" lon="10.622317392100424"><ele>111.0</ele><time>2026-03-30T10:09:34Z</time></trkpt><trkpt lat="45.398917703619546" lon="10.622285890241324"><ele>109.33333333333334</ele><time>2026-03-30T10:09:35Z</time></trkpt><trkpt lat="45.398762522192456" lon="10.622268148806848"><ele>107.66666666666667</ele><time>2026-03-30T10:09:35.999Z</time></trkpt><trkpt lat="45.39859141775002" lon="10.622262445292419"><ele>106.0</ele><time>2026-03-30T10:09:36.999Z</time></trkpt><trkpt lat="45.398400874406875" lon="10.622266057739653"><ele>106.0</ele><time>2026-03-30T10:09:37.999Z</time></trkpt><trkpt lat="45.39821534440759" lon="10.622270425069463"><ele>106.0</ele><time>2026-03-30T10:09:38.999Z</time></trkpt><trkpt lat="45.398076979828865" lon="10.62225348705684"><ele>106.0</ele><time>2026-03-30T10:09:39.999Z</time></trkpt><trkpt lat="45.39792287743256" lon="10.622263860958899"><ele>104.33333333333334</ele><time>2026-03-30T10:09:40.999Z</time></trkpt><trkpt lat="45.39775144663478" lon="10.622298889622462"><ele>102.66666666666666</ele><time>2026-03-30T10:09:41.999Z</time></trkpt><trkpt lat="45.39756216617023" lon="10.622354729050764"><ele>101.0</ele><time>2026-03-30T10:09:42.999Z</time></trkpt><trkpt lat="45.39737453462419" lon="10.622435795206437"><ele>101.0</ele><time>2026-03-30T10:09:43.999Z</time></trkpt><trkpt lat="45.39720304276813" lon="10.622518245243624"><ele>101.0</ele><time>2026-03-30T10:09:44.999Z</time></trkpt><trkpt lat="45.397042296354755" lon="10.622596020139195"><ele>101.0</ele><time>2026-03-30T10:09:45.999Z</time></trkpt><trkpt lat="45.39688312449449" lon="10.622665262540876"><ele>101.75</ele><time>2026-03-30T10:09:46.999Z</time></trkpt><trkpt lat="45.39673205443342" lon="10.622729656820558"><ele>102.5</ele><time>2026-03-30T10:09:47.999Z</time></trkpt><trkpt lat="45.396592083845746" lon="10.622790006290217"><ele>103.25</ele><time>2026-03-30T10:09:48.999Z</time></trkpt><trkpt lat="45.39645860191162" lon="10.622844848551166"><ele>104.0</ele><time>2026-03-30T10:09:49.999Z</time></trkpt><trkpt lat="45.396325875655776" lon="10.622871633392393"><ele>102.25</ele><time>2026-03-30T10:09:50.999Z</time></trkpt><trkpt lat="45.3961947941706" lon="10.622856486384212"><ele>100.5</ele><time>2026-03-30T10:09:51.999Z</time></trkpt><trkpt lat="45.39606772580399" lon="10.622810638397116"><ele>98.75</ele><time>2026-03-30T10:09:52.999Z</time></trkpt><trkpt lat="45.395969173782824" lon="10.622728143726775"><ele>97.0</ele><time>2026-03-30T10:09:53.999Z</time></trkpt><trkpt lat="45.39589017429231" lon="10.622623369879644"><ele>95.83333333333334</ele><time>2026-03-30T10:09:54.999Z</time></trkpt><trkpt lat="45.395834141473316" lon="10.622502724590177"><ele>94.66666666666667</ele><time>2026-03-30T10:09:55.999Z</time></trkpt><trkpt lat="45.39578756717252" lon="10.62239016752352"><ele>93.5</ele><time>2026-03-30T10:09:56.999Z</time></trkpt><trkpt lat="45.395724600268366" lon="10.622322307309073"><ele>92.33333333333334</ele><time>2026-03-30T10:09:57.999Z</time></trkpt><trkpt lat="45.3956389420634" lon="10.622317615930786"><ele>91.16666666666667</ele><time>2026-03-30T10:09:58.999Z</time></trkpt><trkpt lat="45.39555984540105" lon="10.622353055209276"><ele>90.0</ele><time>2026-03-30T10:09:59.999Z</time></trkpt><trkpt lat="45.39547411106072" lon="10.622423445580523"><ele>90.0</ele><time>2026-03-30T10:10:00.999Z</time></trkpt><trkpt lat="45.39540918429915" lon="10.62250197531172"><ele>90.0</ele><time>2026-03-30T10:10:01.999Z</time></trkpt><trkpt lat="45.39529602441191" lon="10.62261299662437"><ele>90.0</ele><time>2026-03-30T10:10:02.999Z</time></trkpt><trkpt lat="45.39516083095691" lon="10.622706041311575"><ele>90.0</ele><time>2026-03-30T10:10:03.999Z</time></trkpt><trkpt lat="45.39498773123769" lon="10.622716146546532"><ele>90.0</ele><time>2026-03-30T10:10:04.999Z</time></trkpt><trkpt lat="45.39479966869482" lon="10.622784044801069"><ele>90.0</ele><time>2026-03-30T10:10:05.999Z</time></trkpt><trkpt lat="45.39463233892448" lon="10.62284974486219"><ele>90.0</ele><time>2026-03-30T10:10:06.999Z</time></trkpt><trkpt lat="45.39448189338018" lon="10.622929601110627"><ele>91.6</ele><time>2026-03-30T10:10:07.999Z</time></trkpt><trkpt lat="45.39436725411194" lon="10.623024766974495"><ele>93.2</ele><time>2026-03-30T10:10:08.999Z</time></trkpt><trkpt lat="45.394281346097955" lon="10.623125720776377"><ele>94.80000000000001</ele><time>2026-03-30T10:10:09.999Z</time></trkpt><trkpt lat="45.39422295572492" lon="10.623211587545704"><ele>96.4</ele><time>2026-03-30T10:10:10.999Z</time></trkpt><trkpt lat="45.39411650636575" lon="10.623244734677849"><ele>98.0</ele><time>2026-03-30T10:10:12.999Z</time></trkpt><trkpt lat="45.39405294093078" lon="10.62310826698536"><ele>98.0</ele><time>2026-03-30T10:10:13.999Z</time></trkpt><trkpt lat="45.39395611045847" lon="10.623080260412488"><ele>98.0</ele><time>2026-03-30T10:10:14.999Z</time></trkpt><trkpt lat="45.39383913728164" lon="10.623050699049237"><ele>98.0</ele><time>2026-03-30T10:10:15.999Z</time></trkpt><trkpt lat="45.3937136246819" lon="10.623019636238428"><ele>98.0</ele><time>2026-03-30T10:10:16.999Z</time></trkpt><trkpt lat="45.393583707221595" lon="10.622987481181278"><ele>97.0</ele><time>2026-03-30T10:10:17.999Z</time></trkpt><trkpt lat="45.393455515576804" lon="10.622979026086181"><ele>96.0</ele><time>2026-03-30T10:10:18.999Z</time></trkpt><trkpt lat="45.39333073022769" lon="10.62294143941755"><ele>95.0</ele><time>2026-03-30T10:10:19.999Z</time></trkpt><trkpt lat="45.39321777359371" lon="10.622881624226627"><ele>94.0</ele><time>2026-03-30T10:10:20.999Z</time></trkpt><trkpt lat="45.39310459987947" lon="10.622832252711568"><ele>93.4</ele><time>2026-03-30T10:10:21.999Z</time></trkpt><trkpt lat="45.392999615196125" lon="10.622778888853878"><ele>92.80000000000001</ele><time>2026-03-30T10:10:22.999Z</time></trkpt><trkpt lat="45.39291320956226" lon="10.622732066248183"><ele>92.19999999999999</ele><time>2026-03-30T10:10:23.999Z</time></trkpt><trkpt lat="45.392835590888595" lon="10.622677430769201"><ele>91.6</ele><time>2026-03-30T10:10:24.999Z</time></trkpt><trkpt lat="45.392755908205984" lon="10.622623471427566"><ele>91.0</ele><time>2026-03-30T10:10:25.999Z</time></trkpt><trkpt lat="45.39268493007584" lon="10.622594706040331"><ele>91.0</ele><time>2026-03-30T10:10:26.999Z</time></trkpt><trkpt lat="45.392616690573426" lon="10.622563434204235"><ele>91.0</ele><time>2026-03-30T10:10:27.999Z</time></trkpt><trkpt lat="45.392544013636524" lon="10.622524797805855"><ele>91.0</ele><time>2026-03-30T10:10:28.999Z</time></trkpt><trkpt lat="45.39247368006629" lon="10.62248413830609"><ele>91.0</ele><time>2026-03-30T10:10:29.999Z</time></trkpt><trkpt lat="45.39240430253444" lon="10.622465105685263"><ele>91.0</ele><time>2026-03-30T10:10:30.999Z</time></trkpt><trkpt lat="45.39234644084012" lon="10.62240397669574"><ele>91.0</ele><time>2026-03-30T10:10:31.999Z</time></trkpt><trkpt lat="45.392283390945835" lon="10.622352948724886"><ele>91.0</ele><time>2026-03-30T10:10:32.999Z</time></trkpt><trkpt lat="45.392213841988955" lon="10.62231803261681"><ele>91.33333333333333</ele><time>2026-03-30T10:10:33.999Z</time></trkpt><trkpt lat="45.39215634716306" lon="10.62227236414297"><ele>91.66666666666666</ele><time>2026-03-30T10:10:34.999Z</time></trkpt><trkpt lat="45.392097392960416" lon="10.622226256199017"><ele>92.0</ele><time>2026-03-30T10:10:35.999Z</time></trkpt><trkpt lat="45.392038285455975" lon="10.62218696844816"><ele>92.33333333333333</ele><time>2026-03-30T10:10:36.999Z</time></trkpt><trkpt lat="45.39192639452486" lon="10.622087921283585"><ele>92.66666666666667</ele><time>2026-03-30T10:10:38.999Z</time></trkpt><trkpt lat="45.39186209224118" lon="10.622043302359552"><ele>93.0</ele><time>2026-03-30T10:10:39.999Z</time></trkpt><trkpt lat="45.391793507139084" lon="10.621995711559071"><ele>92.83333333333333</ele><time>2026-03-30T10:10:40.999Z</time></trkpt><trkpt lat="45.39172740676323" lon="10.621947726713163"><ele>92.66666666666667</ele><time>2026-03-30T10:10:41.999Z</time></trkpt><trkpt lat="45.391666115911214" lon="10.621903485076965"><ele>92.5</ele><time>2026-03-30T10:10:42.999Z</time></trkpt><trkpt lat="45.391600046275634" lon="10.62185579393516"><ele>92.33333333333334</ele><time>2026-03-30T10:10:43.999Z</time></trkpt><trkpt lat="45.39153329192452" lon="10.621803545457064"><ele>92.16666666666667</ele><time>2026-03-30T10:10:44.999Z</time></trkpt><trkpt lat="45.39146744185524" lon="10.62175227004865"><ele>92.0</ele><time>2026-03-30T10:10:45.999Z</time></trkpt><trkpt lat="45.39138988752664" lon="10.62171422583599"><ele>92.33333333333334</ele><time>2026-03-30T10:10:46.999Z</time></trkpt><trkpt lat="45.39132542455173" lon="10.621642713909733"><ele>92.66666666666667</ele><time>2026-03-30T10:10:47.999Z</time></trkpt><trkpt lat="45.391253644141614" lon="10.621614607197715"><ele>93.0</ele><time>2026-03-30T10:10:48.999Z</time></trkpt><trkpt lat="45.391198931111894" lon="10.621568029492275"><ele>93.33333333333333</ele><time>2026-03-30T10:10:49.999Z</time></trkpt><trkpt lat="45.39114307866602" lon="10.621522797100962"><ele>93.66666666666666</ele><time>2026-03-30T10:10:50.999Z</time></trkpt><trkpt lat="45.391065493222165" lon="10.621465867526727"><ele>94.0</ele><time>2026-03-30T10:10:53Z</time></trkpt><trkpt lat="45.39097041997585" lon="10.621546477976972"><ele>94.0</ele><time>2026-03-30T10:10:56Z</time></trkpt><trkpt lat="45.390940493554595" lon="10.62165268226612"><ele>94.0</ele><time>2026-03-30T10:10:57Z</time></trkpt><trkpt lat="45.39091156579239" lon="10.621769035156248"><ele>94.0</ele><time>2026-03-30T10:10:58Z</time></trkpt><trkpt lat="45.39087042385844" lon="10.62191122916978"><ele>94.0</ele><time>2026-03-30T10:10:59Z</time></trkpt><trkpt lat="45.39082481192347" lon="10.622046964289002"><ele>94.0</ele><time>2026-03-30T10:11:00Z</time></trkpt><trkpt lat="45.39078026486616" lon="10.622187257776734"><ele>93.6</ele><time>2026-03-30T10:11:01Z</time></trkpt><trkpt lat="45.39073299427244" lon="10.622321754173722"><ele>93.2</ele><time>2026-03-30T10:11:02Z</time></trkpt><trkpt lat="45.39069276939841" lon="10.622448499561168"><ele>92.8</ele><time>2026-03-30T10:11:03Z</time></trkpt><trkpt lat="45.39065503270575" lon="10.622608703068178"><ele>92.39999999999999</ele><time>2026-03-30T10:11:04Z</time></trkpt><trkpt lat="45.39060631984704" lon="10.622745965988315"><ele>92.0</ele><time>2026-03-30T10:11:05Z</time></trkpt><trkpt lat="45.39056549616061" lon="10.622888329495144"><ele>92.0</ele><time>2026-03-30T10:11:06Z</time></trkpt><trkpt lat="45.39052473716664" lon="10.62303078753978"><ele>92.0</ele><time>2026-03-30T10:11:07Z</time></trkpt><trkpt lat="45.39049106786477" lon="10.623165176489113"><ele>92.0</ele><time>2026-03-30T10:11:08Z</time></trkpt><trkpt lat="45.390460714423206" lon="10.623292716629832"><ele>92.0</ele><time>2026-03-30T10:11:09Z</time></trkpt><trkpt lat="45.390433298685956" lon="10.623403778094913"><ele>92.0</ele><time>2026-03-30T10:11:10Z</time></trkpt><trkpt lat="45.390386519989626" lon="10.6235262950296"><ele>91.8</ele><time>2026-03-30T10:11:11Z</time></trkpt><trkpt lat="45.390325095460426" lon="10.623659522560859"><ele>91.6</ele><time>2026-03-30T10:11:12Z</time></trkpt><trkpt lat="45.39026582672148" lon="10.623787290810691"><ele>91.39999999999999</ele><time>2026-03-30T10:11:13Z</time></trkpt><trkpt lat="45.39020988920527" lon="10.623908958392837"><ele>91.19999999999999</ele><time>2026-03-30T10:11:14Z</time></trkpt><trkpt lat="45.39015905676852" lon="10.624056074431913"><ele>91.0</ele><time>2026-03-30T10:11:15Z</time></trkpt><trkpt lat="45.39010956242123" lon="10.624194414250017"><ele>91.0</ele><time>2026-03-30T10:11:16Z</time></trkpt><trkpt lat="45.39006803751693" lon="10.624321077607366"><ele>91.0</ele><time>2026-03-30T10:11:17Z</time></trkpt><trkpt lat="45.39004152872007" lon="10.62444186422923"><ele>91.0</ele><time>2026-03-30T10:11:18Z</time></trkpt><trkpt lat="45.390021373074" lon="10.624589892816175"><ele>91.0</ele><time>2026-03-30T10:11:19Z</time></trkpt><trkpt lat="45.3900218732009" lon="10.624745771723704"><ele>91.0</ele><time>2026-03-30T10:11:20Z</time></trkpt><trkpt lat="45.39003101508841" lon="10.624897845923957"><ele>91.16666666666666</ele><time>2026-03-30T10:11:21Z</time></trkpt><trkpt lat="45.39002331332101" lon="10.625022445732041"><ele>91.33333333333333</ele><time>2026-03-30T10:11:22Z</time></trkpt><trkpt lat="45.39002262170349" lon="10.6251495095607"><ele>91.5</ele><time>2026-03-30T10:11:23Z</time></trkpt><trkpt lat="45.39001479564368" lon="10.62525969277898"><ele>91.66666666666667</ele><time>2026-03-30T10:11:24Z</time></trkpt><trkpt lat="45.39000180435196" lon="10.625373573181992"><ele>91.83333333333334</ele><time>2026-03-30T10:11:25Z</time></trkpt><trkpt lat="45.38999900185576" lon="10.62547179160088"><ele>92.0</ele><time>2026-03-30T10:11:26Z</time></trkpt><trkpt lat="45.389977974359525" lon="10.62558909228349"><ele>92.0</ele><time>2026-03-30T10:11:27Z</time></trkpt><trkpt lat="45.389959970351754" lon="10.625753692979922"><ele>92.0</ele><time>2026-03-30T10:11:28.999Z</time></trkpt><trkpt lat="45.389952661093396" lon="10.625893384551961"><ele>92.0</ele><time>2026-03-30T10:11:30.999Z</time></trkpt><trkpt lat="45.389982157348875" lon="10.626017818855638"><ele>92.0</ele><time>2026-03-30T10:11:32.999Z</time></trkpt><trkpt lat="45.390060240558135" lon="10.626107591238272"><ele>92.0</ele><time>2026-03-30T10:11:34.999Z</time></trkpt><trkpt lat="45.390124731197076" lon="10.626146901887516"><ele>92.0</ele><time>2026-03-30T10:11:35.999Z</time></trkpt><trkpt lat="45.39019019161765" lon="10.626285375696385"><ele>92.0</ele><time>2026-03-30T10:11:37.999Z</time></trkpt><trkpt lat="45.390195257006745" lon="10.626393076735729"><ele>92.0</ele><time>2026-03-30T10:11:38.999Z</time></trkpt><trkpt lat="45.39019406076441" lon="10.626539947750532"><ele>92.0</ele><time>2026-03-30T10:11:39.999Z</time></trkpt><trkpt lat="45.39017715921361" lon="10.626722332757987"><ele>92.0</ele><time>2026-03-30T10:11:40.999Z</time></trkpt><trkpt lat="45.39015587642579" lon="10.626900264661627"><ele>92.25</ele><time>2026-03-30T10:11:41.999Z</time></trkpt><trkpt lat="45.39014017846397" lon="10.627079926568783"><ele>92.5</ele><time>2026-03-30T10:11:42.999Z</time></trkpt><trkpt lat="45.39011999668012" lon="10.627254973688803"><ele>92.75</ele><time>2026-03-30T10:11:43.999Z</time></trkpt><trkpt lat="45.390105582058744" lon="10.627431033047731"><ele>93.0</ele><time>2026-03-30T10:11:44.999Z</time></trkpt><trkpt lat="45.3900970062517" lon="10.627598037211717"><ele>93.0</ele><time>2026-03-30T10:11:45.999Z</time></trkpt><trkpt lat="45.39009081168039" lon="10.627772844519788"><ele>93.0</ele><time>2026-03-30T10:11:46.999Z</time></trkpt><trkpt lat="45.390091238255394" lon="10.627957379022902"><ele>93.0</ele><time>2026-03-30T10:11:47.999Z</time></trkpt><trkpt lat="45.390102400960586" lon="10.62813464223971"><ele>93.0</ele><time>2026-03-30T10:11:48.999Z</time></trkpt><trkpt lat="45.39010456909817" lon="10.628290733295891"><ele>93.0</ele><time>2026-03-30T10:11:49.999Z</time></trkpt><trkpt lat="45.390118341825335" lon="10.62842807217519"><ele>93.0</ele><time>2026-03-30T10:11:50.999Z</time></trkpt><trkpt lat="45.390129655802745" lon="10.628575407254962"><ele>93.0</ele><time>2026-03-30T10:11:51.999Z</time></trkpt><trkpt lat="45.39013108885315" lon="10.628685274427673"><ele>93.0</ele><time>2026-03-30T10:11:52.999Z</time></trkpt><trkpt lat="45.39015446509402" lon="10.628845844856503"><ele>93.0</ele><time>2026-03-30T10:11:54.999Z</time></trkpt><trkpt lat="45.39013211149319" lon="10.62893545011418"><ele>93.0</ele><time>2026-03-30T10:11:56.999Z</time></trkpt><trkpt lat="45.390043410784365" lon="10.628971512365434"><ele>93.0</ele><time>2026-03-30T10:11:58.999Z</time></trkpt><trkpt lat="45.38992523729102" lon="10.628941226790399"><ele>93.0</ele><time>2026-03-30T10:12:00.999Z</time></trkpt><trkpt lat="45.38983661220896" lon="10.628930422583604"><ele>93.0</ele><time>2026-03-30T10:12:01.999Z</time></trkpt><trkpt lat="45.389725211914985" lon="10.628945477725079"><ele>93.0</ele><time>2026-03-30T10:12:02.999Z</time></trkpt><trkpt lat="45.38961130842763" lon="10.628986334420446"><ele>92.25</ele><time>2026-03-30T10:12:03.999Z</time></trkpt><trkpt lat="45.38949725495853" lon="10.629029644546879"><ele>91.5</ele><time>2026-03-30T10:12:04.999Z</time></trkpt><trkpt lat="45.389377459724464" lon="10.629082741073706"><ele>90.75</ele><time>2026-03-30T10:12:05.999Z</time></trkpt><trkpt lat="45.389255912322625" lon="10.629138469713489"><ele>90.0</ele><time>2026-03-30T10:12:06.999Z</time></trkpt><trkpt lat="45.389134137745735" lon="10.629167761154164"><ele>90.0</ele><time>2026-03-30T10:12:07.999Z</time></trkpt><trkpt lat="45.389005809351545" lon="10.629192727884073"><ele>90.0</ele><time>2026-03-30T10:12:08.999Z</time></trkpt><trkpt lat="45.38887420948265" lon="10.629235960394297"><ele>90.0</ele><time>2026-03-30T10:12:09.999Z</time></trkpt><trkpt lat="45.388738058040566" lon="10.629300143732447"><ele>90.0</ele><time>2026-03-30T10:12:10.999Z</time></trkpt><trkpt lat="45.38860016238224" lon="10.62932300532735"><ele>89.0</ele><time>2026-03-30T10:12:11.999Z</time></trkpt><trkpt lat="45.38846947803356" lon="10.629394602674992"><ele>88.0</ele><time>2026-03-30T10:12:12.999Z</time></trkpt><trkpt lat="45.38836145228966" lon="10.629426690327596"><ele>87.0</ele><time>2026-03-30T10:12:13.999Z</time></trkpt><trkpt lat="45.388251395602566" lon="10.629465675068724"><ele>86.0</ele><time>2026-03-30T10:12:14.999Z</time></trkpt><trkpt lat="45.388140899300694" lon="10.629499498759625"><ele>86.0</ele><time>2026-03-30T10:12:15.999Z</time></trkpt><trkpt lat="45.388020799246256" lon="10.629532448474386"><ele>86.0</ele><time>2026-03-30T10:12:16.999Z</time></trkpt><trkpt lat="45.38789985918875" lon="10.629583627486037"><ele>86.0</ele><time>2026-03-30T10:12:17.999Z</time></trkpt><trkpt lat="45.387773402322544" lon="10.629625753457374"><ele>86.0</ele><time>2026-03-30T10:12:18.999Z</time></trkpt><trkpt lat="45.387657554026404" lon="10.629673462224247"><ele>86.6</ele><time>2026-03-30T10:12:19.999Z</time></trkpt><trkpt lat="45.38755309095182" lon="10.629712566243288"><ele>87.19999999999999</ele><time>2026-03-30T10:12:20.999Z</time></trkpt><trkpt lat="45.38745555402434" lon="10.629730041869239"><ele>87.80000000000001</ele><time>2026-03-30T10:12:21.999Z</time></trkpt><trkpt lat="45.38737711023119" lon="10.629757793195695"><ele>88.4</ele><time>2026-03-30T10:12:22.999Z</time></trkpt><trkpt lat="45.38729916051291" lon="10.629780979514047"><ele>89.0</ele><time>2026-03-30T10:12:23.999Z</time></trkpt><trkpt lat="45.38721634474329" lon="10.629774336321518"><ele>89.4</ele><time>2026-03-30T10:12:25.999Z</time></trkpt><trkpt lat="45.387155706516396" lon="10.629647965665342"><ele>89.80000000000001</ele><time>2026-03-30T10:12:27.999Z</time></trkpt><trkpt lat="45.38715654801634" lon="10.629551409043682"><ele>90.19999999999999</ele><time>2026-03-30T10:12:28.999Z</time></trkpt><trkpt lat="45.38713548020623" lon="10.62941315188939"><ele>90.6</ele><time>2026-03-30T10:12:29.999Z</time></trkpt><trkpt lat="45.387096828053636" lon="10.629266226158144"><ele>91.0</ele><time>2026-03-30T10:12:30.999Z</time></trkpt><trkpt lat="45.38707965360226" lon="10.629141980921807"><ele>91.16666666666666</ele><time>2026-03-30T10:12:31.999Z</time></trkpt><trkpt lat="45.387057460185865" lon="10.62903486112696"><ele>91.33333333333333</ele><time>2026-03-30T10:12:32.999Z</time></trkpt><trkpt lat="45.38702403507773" lon="10.628924187756015"><ele>91.5</ele><time>2026-03-30T10:12:33.999Z</time></trkpt><trkpt lat="45.386949286778204" lon="10.6288700992694"><ele>91.66666666666667</ele><time>2026-03-30T10:12:34.999Z</time></trkpt><trkpt lat="45.386876147956826" lon="10.628779568306914"><ele>91.83333333333334</ele><time>2026-03-30T10:12:36.999Z</time></trkpt><trkpt lat="45.386789671711874" lon="10.628723807447374"><ele>92.0</ele><time>2026-03-30T10:12:39.999Z</time></trkpt><trkpt lat="45.386719054416794" lon="10.628636612360475"><ele>92.0</ele><time>2026-03-30T10:12:41.999Z</time></trkpt><trkpt lat="45.38653430722608" lon="10.628861953783572"><ele>92.0</ele><time>2026-03-30T10:12:42.999Z</time></trkpt><trkpt lat="45.38646956514167" lon="10.628861441624066"><ele>92.0</ele><time>2026-03-30T10:12:43.999Z</time></trkpt><trkpt lat="45.38640329402019" lon="10.628868079802517"><ele>92.0</ele><time>2026-03-30T10:12:44.999Z</time></trkpt><trkpt lat="45.38633678686956" lon="10.62887840036196"><ele>92.0</ele><time>2026-03-30T10:12:45.998Z</time></trkpt><trkpt lat="45.38623860325126" lon="10.62888223647052"><ele>92.6</ele><time>2026-03-30T10:12:47.998Z</time></trkpt><trkpt lat="45.386124786408" lon="10.628942591796763"><ele>93.19999999999999</ele><time>2026-03-30T10:12:49.998Z</time></trkpt><trkpt lat="45.386045449924104" lon="10.629037872037209"><ele>93.8</ele><time>2026-03-30T10:12:51.998Z</time></trkpt><trkpt lat="45.38600200338387" lon="10.629137960069462"><ele>94.4</ele><time>2026-03-30T10:12:53.998Z</time></trkpt><trkpt lat="45.3859260398118" lon="10.62921450745479"><ele>95.0</ele><time>2026-03-30T10:12:56.998Z</time></trkpt><trkpt lat="45.38586371065282" lon="10.629247504649177"><ele>95.0</ele><time>2026-03-30T10:12:59Z</time></trkpt><trkpt lat="45.38579423360316" lon="10.629288335553294"><ele>95.0</ele><time>2026-03-30T10:13:01Z</time></trkpt><trkpt lat="45.38570257363323" lon="10.62927895223485"><ele>95.0</ele><time>2026-03-30T10:13:05Z</time></trkpt><trkpt lat="45.3856423240383" lon="10.629225770550725"><ele>95.0</ele><time>2026-03-30T10:13:07Z</time></trkpt><trkpt lat="45.38555378803302" lon="10.629150253490405"><ele>95.0</ele><time>2026-03-30T10:13:09Z</time></trkpt><trkpt lat="45.38544283515563" lon="10.629074063513073"><ele>95.33333333333334</ele><time>2026-03-30T10:13:11Z</time></trkpt><trkpt lat="45.385339424228825" lon="10.629004060159037"><ele>95.66666666666667</ele><time>2026-03-30T10:13:13Z</time></trkpt><trkpt lat="45.38527713419182" lon="10.628963465323386"><ele>96.0</ele><time>2026-03-30T10:13:14Z</time></trkpt><trkpt lat="45.38516942549815" lon="10.62889175357249"><ele>96.33333333333334</ele><time>2026-03-30T10:13:15.999Z</time></trkpt><trkpt lat="45.38511313720312" lon="10.628849439664632"><ele>96.66666666666667</ele><time>2026-03-30T10:13:16.999Z</time></trkpt><trkpt lat="45.385052640259595" lon="10.628807722860488"><ele>97.0</ele><time>2026-03-30T10:13:17.999Z</time></trkpt><trkpt lat="45.38499288772937" lon="10.6287687985883"><ele>97.00000000000001</ele><time>2026-03-30T10:13:18.999Z</time></trkpt><trkpt lat="45.38489845012497" lon="10.628702986031152"><ele>97.0</ele><time>2026-03-30T10:13:20.999Z</time></trkpt><trkpt lat="45.384810721514334" lon="10.628643198213688"><ele>97.0</ele><time>2026-03-30T10:13:22.999Z</time></trkpt><trkpt lat="45.384735551187624" lon="10.6285800883444"><ele>97.0</ele><time>2026-03-30T10:13:25.999Z</time></trkpt><trkpt lat="45.38466701394787" lon="10.628565215397014"><ele>97.00000000000001</ele><time>2026-03-30T10:13:28.999Z</time></trkpt><trkpt lat="45.3846318019132" lon="10.62867444811105"><ele>97.0</ele><time>2026-03-30T10:13:31.999Z</time></trkpt><trkpt lat="45.3846051680866" lon="10.628778715496225"><ele>97.16666666666667</ele><time>2026-03-30T10:13:33.999Z</time></trkpt><trkpt lat="45.38457609143161" lon="10.628891960740264"><ele>97.33333333333334</ele><time>2026-03-30T10:13:35.998Z</time></trkpt><trkpt lat="45.38454022188289" lon="10.629011274776124"><ele>97.5</ele><time>2026-03-30T10:13:37.998Z</time></trkpt><trkpt lat="45.38450837300915" lon="10.629104099829433"><ele>97.66666666666666</ele><time>2026-03-30T10:13:39.998Z</time></trkpt><trkpt lat="45.38447852428701" lon="10.629191972254189"><ele>97.83333333333333</ele><time>2026-03-30T10:13:44.998Z</time></trkpt><trkpt lat="45.38445166379357" lon="10.629315066228125"><ele>98.0</ele><time>2026-03-30T10:13:47.998Z</time></trkpt><trkpt lat="45.384424225160885" lon="10.62942442868162"><ele>98.60000000000001</ele><time>2026-03-30T10:13:49.998Z</time></trkpt><trkpt lat="45.38439010697783" lon="10.629544491095821"><ele>99.2</ele><time>2026-03-30T10:13:51.998Z</time></trkpt><trkpt lat="45.3843610322443" lon="10.629668570148096"><ele>99.8</ele><time>2026-03-30T10:13:53.998Z</time></trkpt><trkpt lat="45.38430895440324" lon="10.629827647502589"><ele>100.4</ele><time>2026-03-30T10:13:55.998Z</time></trkpt><trkpt lat="45.38425805187101" lon="10.63000045761685"><ele>101.0</ele><time>2026-03-30T10:13:57.998Z</time></trkpt><trkpt lat="45.38421840395628" lon="10.630153989830378"><ele>100.99999999999999</ele><time>2026-03-30T10:13:59.998Z</time></trkpt><trkpt lat="45.38417540855258" lon="10.630274524999482"><ele>101.0</ele><time>2026-03-30T10:14:01.998Z</time></trkpt><trkpt lat="45.384119677649764" lon="10.63033955120817"><ele>101.0</ele><time>2026-03-30T10:14:03.998Z</time></trkpt><trkpt lat="45.38403757513625" lon="10.630334184534885"><ele>101.0</ele><time>2026-03-30T10:14:05.998Z</time></trkpt><trkpt lat="45.38394937234804" lon="10.630271979511999"><ele>100.99999999999999</ele><time>2026-03-30T10:14:07.998Z</time></trkpt><trkpt lat="45.38389574659248" lon="10.630209425759555"><ele>101.0</ele><time>2026-03-30T10:14:08.998Z</time></trkpt><trkpt lat="45.38383271490482" lon="10.630144462073748"><ele>101.66666666666666</ele><time>2026-03-30T10:14:09.998Z</time></trkpt><trkpt lat="45.38377011595188" lon="10.63007875481628"><ele>102.33333333333333</ele><time>2026-03-30T10:14:10.998Z</time></trkpt><trkpt lat="45.383718688501084" lon="10.630005719257074"><ele>103.0</ele><time>2026-03-30T10:14:12.998Z</time></trkpt><trkpt lat="45.38365809267188" lon="10.629952081457825"><ele>103.66666666666666</ele><time>2026-03-30T10:14:23.998Z</time></trkpt><trkpt lat="45.38358251064558" lon="10.629872493268229"><ele>104.33333333333333</ele><time>2026-03-30T10:14:26.998Z</time></trkpt><trkpt lat="45.383525829816996" lon="10.629811680752173"><ele>105.0</ele><time>2026-03-30T10:14:28.997Z</time></trkpt><trkpt lat="45.38346397498089" lon="10.629734892574305"><ele>105.0</ele><time>2026-03-30T10:14:30.997Z</time></trkpt><trkpt lat="45.3833955384784" lon="10.629655336910787"><ele>105.0</ele><time>2026-03-30T10:14:32.997Z</time></trkpt><trkpt lat="45.38333697423313" lon="10.62958867858891"><ele>105.0</ele><time>2026-03-30T10:14:34.997Z</time></trkpt><trkpt lat="45.38328335515892" lon="10.629518033212376"><ele>105.0</ele><time>2026-03-30T10:14:36.997Z</time></trkpt><trkpt lat="45.38323144860057" lon="10.629438698603822"><ele>105.0</ele><time>2026-03-30T10:14:39.997Z</time></trkpt><trkpt lat="45.383166261398515" lon="10.629343064369023"><ele>105.0</ele><time>2026-03-30T10:14:42.997Z</time></trkpt><trkpt lat="45.383113172441114" lon="10.62927933918043"><ele>104.5</ele><time>2026-03-30T10:14:44.997Z</time></trkpt><trkpt lat="45.38306252331833" lon="10.629215804952803"><ele>104.0</ele><time>2026-03-30T10:14:46.997Z</time></trkpt><trkpt lat="45.383007999470806" lon="10.629154379765513"><ele>103.5</ele><time>2026-03-30T10:14:48.997Z</time></trkpt><trkpt lat="45.38292663021947" lon="10.629079797119093"><ele>103.0</ele><time>2026-03-30T10:14:50.997Z</time></trkpt><trkpt lat="45.38283362152793" lon="10.628984195444916"><ele>102.5</ele><time>2026-03-30T10:14:52.997Z</time></trkpt><trkpt lat="45.38277472998372" lon="10.628950020889988"><ele>102.0</ele><time>2026-03-30T10:14:53.997Z</time></trkpt><trkpt lat="45.38265487513685" lon="10.628908040757036"><ele>101.85714285714286</ele><time>2026-03-30T10:14:55.997Z</time></trkpt><trkpt lat="45.38258999436583" lon="10.628866287816642"><ele>101.71428571428572</ele><time>2026-03-30T10:14:56.997Z</time></trkpt><trkpt lat="45.3825240551657" lon="10.628846129942284"><ele>101.57142857142857</ele><time>2026-03-30T10:14:57.997Z</time></trkpt><trkpt lat="45.38245469208186" lon="10.628816733009854"><ele>101.42857142857143</ele><time>2026-03-30T10:14:58.997Z</time></trkpt><trkpt lat="45.38239189832414" lon="10.628782047051171"><ele>101.28571428571428</ele><time>2026-03-30T10:14:59.997Z</time></trkpt><trkpt lat="45.38232582438685" lon="10.628746446756471"><ele>101.14285714285714</ele><time>2026-03-30T10:15:00.997Z</time></trkpt><trkpt lat="45.38225645973292" lon="10.628709940312097"><ele>101.0</ele><time>2026-03-30T10:15:01.997Z</time></trkpt><trkpt lat="45.382188969457516" lon="10.628673307515909"><ele>100.8</ele><time>2026-03-30T10:15:02.997Z</time></trkpt><trkpt lat="45.38210744396715" lon="10.628620422928876"><ele>100.6</ele><time>2026-03-30T10:15:03.997Z</time></trkpt><trkpt lat="45.382017348348974" lon="10.628560864960328"><ele>100.4</ele><time>2026-03-30T10:15:04.999Z</time></trkpt><trkpt lat="45.38192541472785" lon="10.628501104450423"><ele>100.2</ele><time>2026-03-30T10:15:05.999Z</time></trkpt><trkpt lat="45.38184950985938" lon="10.628437767615761"><ele>100.0</ele><time>2026-03-30T10:15:06.999Z</time></trkpt><trkpt lat="45.38176789306348" lon="10.628364757946741"><ele>100.00000000000001</ele><time>2026-03-30T10:15:07.999Z</time></trkpt><trkpt lat="45.381713370834845" lon="10.628298908139676"><ele>100.0</ele><time>2026-03-30T10:15:08.999Z</time></trkpt><trkpt lat="45.381656246606575" lon="10.628230774194103"><ele>100.0</ele><time>2026-03-30T10:15:09.999Z</time></trkpt><trkpt lat="45.38160710340949" lon="10.628156152224085"><ele>100.0</ele><time>2026-03-30T10:15:10.999Z</time></trkpt><trkpt lat="45.38154227470813" lon="10.628082022198974"><ele>100.00000000000001</ele><time>2026-03-30T10:15:11.999Z</time></trkpt><trkpt lat="45.38148668330889" lon="10.628039238948338"><ele>100.0</ele><time>2026-03-30T10:15:12.999Z</time></trkpt><trkpt lat="45.381418405797284" lon="10.627965896594182"><ele>100.0</ele><time>2026-03-30T10:15:13.999Z</time></trkpt><trkpt lat="45.381330464376354" lon="10.627872874472136"><ele>100.0</ele><time>2026-03-30T10:15:15.999Z</time></trkpt><trkpt lat="45.38126266772388" lon="10.627835162670646"><ele>100.0</ele><time>2026-03-30T10:15:17.999Z</time></trkpt><trkpt lat="45.381157833457955" lon="10.627859323446085"><ele>100.0</ele><time>2026-03-30T10:15:29.999Z</time></trkpt><trkpt lat="45.38107301004241" lon="10.627890840982374"><ele>100.0</ele><time>2026-03-30T10:15:30.999Z</time></trkpt><trkpt lat="45.38096388916313" lon="10.627942099337616"><ele>100.0</ele><time>2026-03-30T10:15:31.999Z</time></trkpt><trkpt lat="45.380825236804014" lon="10.627987275350579"><ele>100.0</ele><time>2026-03-30T10:15:32.999Z</time></trkpt><trkpt lat="45.38065429135441" lon="10.628048067104013"><ele>100.0</ele><time>2026-03-30T10:15:33.999Z</time></trkpt><trkpt lat="45.380496626343025" lon="10.628123515983484"><ele>102.0</ele><time>2026-03-30T10:15:34.999Z</time></trkpt><trkpt lat="45.380362200896485" lon="10.628209155315774"><ele>104.0</ele><time>2026-03-30T10:15:35.999Z</time></trkpt><trkpt lat="45.38026250959038" lon="10.628311542569245"><ele>106.0</ele><time>2026-03-30T10:15:36.999Z</time></trkpt><trkpt lat="45.38017287566408" lon="10.628417889078838"><ele>108.0</ele><time>2026-03-30T10:15:37.999Z</time></trkpt><trkpt lat="45.3800897295244" lon="10.628491766833461"><ele>108.0</ele><time>2026-03-30T10:15:38.999Z</time></trkpt><trkpt lat="45.38000991597341" lon="10.62854290144152"><ele>108.0</ele><time>2026-03-30T10:15:39.999Z</time></trkpt><trkpt lat="45.37993124778539" lon="10.628562276803356"><ele>108.0</ele><time>2026-03-30T10:15:40.999Z</time></trkpt><trkpt lat="45.3798632905705" lon="10.628550314052339"><ele>108.0</ele><time>2026-03-30T10:15:41.999Z</time></trkpt><trkpt lat="45.37976317353661" lon="10.628536249683108"><ele>108.0</ele><time>2026-03-30T10:15:43.999Z</time></trkpt><trkpt lat="45.37968848303582" lon="10.628485917376787"><ele>108.0</ele><time>2026-03-30T10:15:45.999Z</time></trkpt><trkpt lat="45.37967275813254" lon="10.62857726525874"><ele>108.0</ele><time>2026-03-30T10:15:52.999Z</time></trkpt><trkpt lat="45.3797321079547" lon="10.628642903441781"><ele>108.00000000000001</ele><time>2026-03-30T10:15:57.999Z</time></trkpt><trkpt lat="45.3798389953295" lon="10.62863340128875"><ele>108.00000000000001</ele><time>2026-03-30T10:16:00.999Z</time></trkpt><trkpt lat="45.37995663236166" lon="10.62860651895002"><ele>108.0</ele><time>2026-03-30T10:16:02.999Z</time></trkpt><trkpt lat="45.38007592208874" lon="10.628666854433709"><ele>108.0</ele><time>2026-03-30T10:16:04.999Z</time></trkpt><trkpt lat="45.380157212727674" lon="10.6287284693424"><ele>106.2</ele><time>2026-03-30T10:16:05.999Z</time></trkpt><trkpt lat="45.38024600398941" lon="10.62880181487785"><ele>104.4</ele><time>2026-03-30T10:16:06.999Z</time></trkpt><trkpt lat="45.380332774448995" lon="10.628877757630951"><ele>102.60000000000001</ele><time>2026-03-30T10:16:07.999Z</time></trkpt><trkpt lat="45.38040936448947" lon="10.628952154503876"><ele>100.80000000000001</ele><time>2026-03-30T10:16:08.999Z</time></trkpt><trkpt lat="45.38049272500194" lon="10.629046798691903"><ele>99.0</ele><time>2026-03-30T10:16:09.999Z</time></trkpt><trkpt lat="45.38058842968411" lon="10.62914320997416"><ele>98.75</ele><time>2026-03-30T10:16:10.999Z</time></trkpt><trkpt lat="45.38071113295842" lon="10.62923647787107"><ele>98.5</ele><time>2026-03-30T10:16:11.999Z</time></trkpt><trkpt lat="45.38084397085195" lon="10.62934435607977"><ele>98.25</ele><time>2026-03-30T10:16:12.999Z</time></trkpt><trkpt lat="45.38097373708106" lon="10.629464021620048"><ele>98.0</ele><time>2026-03-30T10:16:13.999Z</time></trkpt><trkpt lat="45.38109761538177" lon="10.629579621457745"><ele>97.75</ele><time>2026-03-30T10:16:14.999Z</time></trkpt><trkpt lat="45.38121512990851" lon="10.629684710352642"><ele>97.5</ele><time>2026-03-30T10:16:15.999Z</time></trkpt><trkpt lat="45.38134171672887" lon="10.62980145694496"><ele>97.25</ele><time>2026-03-30T10:16:16.999Z</time></trkpt><trkpt lat="45.38146822398381" lon="10.629915704708955"><ele>97.0</ele><time>2026-03-30T10:16:17.999Z</time></trkpt><trkpt lat="45.38159286010062" lon="10.630031939415275"><ele>98.0</ele><time>2026-03-30T10:16:18.999Z</time></trkpt><trkpt lat="45.381720813106696" lon="10.630156772054812"><ele>99.0</ele><time>2026-03-30T10:16:19.999Z</time></trkpt><trkpt lat="45.38184373626455" lon="10.630281215358481"><ele>100.0</ele><time>2026-03-30T10:16:20.999Z</time></trkpt><trkpt lat="45.38198458670923" lon="10.630402624467699"><ele>100.0</ele><time>2026-03-30T10:16:21.999Z</time></trkpt><trkpt lat="45.38212713296039" lon="10.630532459034042"><ele>100.0</ele><time>2026-03-30T10:16:22.999Z</time></trkpt><trkpt lat="45.38223040604764" lon="10.630624176356966"><ele>100.0</ele><time>2026-03-30T10:16:23.999Z</time></trkpt><trkpt lat="45.38231753867637" lon="10.630698834008447"><ele>100.0</ele><time>2026-03-30T10:16:24.999Z</time></trkpt><trkpt lat="45.382393004284715" lon="10.630758832156461"><ele>100.66666666666667</ele><time>2026-03-30T10:16:25.999Z</time></trkpt><trkpt lat="45.382465202008476" lon="10.630817961916676"><ele>101.33333333333334</ele><time>2026-03-30T10:16:26.999Z</time></trkpt><trkpt lat="45.3825202175892" lon="10.630869621089163"><ele>102.0</ele><time>2026-03-30T10:16:27.999Z</time></trkpt><trkpt lat="45.38255326867823" lon="10.630946359847144"><ele>102.66666666666666</ele><time>2026-03-30T10:16:29.999Z</time></trkpt><trkpt lat="45.3825492116973" lon="10.631113936821238"><ele>103.33333333333333</ele><time>2026-03-30T10:16:32.999Z</time></trkpt><trkpt lat="45.38252702285074" lon="10.63120965322256"><ele>104.0</ele><time>2026-03-30T10:16:33.999Z</time></trkpt><trkpt lat="45.382476993496795" lon="10.631348732374176"><ele>104.0</ele><time>2026-03-30T10:16:34.999Z</time></trkpt><trkpt lat="45.38242591028791" lon="10.631499978472917"><ele>104.0</ele><time>2026-03-30T10:16:35.999Z</time></trkpt><trkpt lat="45.38235267696521" lon="10.631680489957517"><ele>104.0</ele><time>2026-03-30T10:16:36.999Z</time></trkpt><trkpt lat="45.38229110196278" lon="10.631857311945604"><ele>104.0</ele><time>2026-03-30T10:16:37.999Z</time></trkpt><trkpt lat="45.38222758486025" lon="10.632046324000614"><ele>102.5</ele><time>2026-03-30T10:16:38.999Z</time></trkpt><trkpt lat="45.38216186305841" lon="10.632254871318715"><ele>101.0</ele><time>2026-03-30T10:16:39.999Z</time></trkpt><trkpt lat="45.38210150933497" lon="10.632436752507298"><ele>99.5</ele><time>2026-03-30T10:16:40.999Z</time></trkpt><trkpt lat="45.382036064366794" lon="10.632622778105953"><ele>98.0</ele><time>2026-03-30T10:16:41.999Z</time></trkpt><trkpt lat="45.38196724447319" lon="10.632804376499886"><ele>98.25</ele><time>2026-03-30T10:16:42.999Z</time></trkpt><trkpt lat="45.38190379073256" lon="10.632982564749597"><ele>98.5</ele><time>2026-03-30T10:16:43.999Z</time></trkpt><trkpt lat="45.3818345066021" lon="10.633168519325244"><ele>98.75</ele><time>2026-03-30T10:16:44.999Z</time></trkpt><trkpt lat="45.38176022535792" lon="10.633354990737404"><ele>99.0</ele><time>2026-03-30T10:16:45.999Z</time></trkpt><trkpt lat="45.38169251223877" lon="10.633540099307142"><ele>100.0</ele><time>2026-03-30T10:16:46.999Z</time></trkpt><trkpt lat="45.3816322853629" lon="10.633702728701794"><ele>101.0</ele><time>2026-03-30T10:16:47.999Z</time></trkpt><trkpt lat="45.38157716324086" lon="10.633858500155286"><ele>102.0</ele><time>2026-03-30T10:16:48.999Z</time></trkpt><trkpt lat="45.38152362911213" lon="10.634035202572527"><ele>103.0</ele><time>2026-03-30T10:16:49.999Z</time></trkpt><trkpt lat="45.381457533578526" lon="10.634227516566842"><ele>103.0</ele><time>2026-03-30T10:16:50.999Z</time></trkpt><trkpt lat="45.381390029531545" lon="10.63439669793419"><ele>103.0</ele><time>2026-03-30T10:16:51.999Z</time></trkpt><trkpt lat="45.38131433508324" lon="10.634517121091797"><ele>103.0</ele><time>2026-03-30T10:16:52.999Z</time></trkpt><trkpt lat="45.38123237234784" lon="10.634654434912909"><ele>103.0</ele><time>2026-03-30T10:16:53.999Z</time></trkpt><trkpt lat="45.38114330180013" lon="10.634788177185087"><ele>103.4</ele><time>2026-03-30T10:16:54.999Z</time></trkpt><trkpt lat="45.38105182595461" lon="10.634899573144006"><ele>103.80000000000001</ele><time>2026-03-30T10:16:55.999Z</time></trkpt><trkpt lat="45.3809734327551" lon="10.635008791605063"><ele>104.2</ele><time>2026-03-30T10:16:56.998Z</time></trkpt><trkpt lat="45.38089763763863" lon="10.63509989201773"><ele>104.6</ele><time>2026-03-30T10:16:57.998Z</time></trkpt><trkpt lat="45.380811436563185" lon="10.635205179854802"><ele>105.0</ele><time>2026-03-30T10:16:58.998Z</time></trkpt><trkpt lat="45.38074221084447" lon="10.635323293784865"><ele>105.0</ele><time>2026-03-30T10:16:59.998Z</time></trkpt><trkpt lat="45.3806859132435" lon="10.635455479580658"><ele>105.0</ele><time>2026-03-30T10:17:00.998Z</time></trkpt><trkpt lat="45.38061649279772" lon="10.635618662696503"><ele>105.0</ele><time>2026-03-30T10:17:01.998Z</time></trkpt><trkpt lat="45.38056321913193" lon="10.635768405998764"><ele>105.0</ele><time>2026-03-30T10:17:02.998Z</time></trkpt><trkpt lat="45.38051071904878" lon="10.635915411670842"><ele>104.6</ele><time>2026-03-30T10:17:03.998Z</time></trkpt><trkpt lat="45.38046061281171" lon="10.636070064845592"><ele>104.2</ele><time>2026-03-30T10:17:04.998Z</time></trkpt><trkpt lat="45.380422720958734" lon="10.636222173573525"><ele>103.80000000000001</ele><time>2026-03-30T10:17:05.998Z</time></trkpt><trkpt lat="45.38040958215301" lon="10.636349725931032"><ele>103.4</ele><time>2026-03-30T10:17:06.998Z</time></trkpt><trkpt lat="45.380421975123966" lon="10.63648009019686"><ele>103.0</ele><time>2026-03-30T10:17:07.998Z</time></trkpt><trkpt lat="45.38043785843215" lon="10.636622678792813"><ele>103.0</ele><time>2026-03-30T10:17:08.998Z</time></trkpt><trkpt lat="45.38046772224491" lon="10.636752619070812"><ele>103.0</ele><time>2026-03-30T10:17:10Z</time></trkpt><trkpt lat="45.380505149311084" lon="10.636897256391304"><ele>103.0</ele><time>2026-03-30T10:17:11Z</time></trkpt><trkpt lat="45.3805595837471" lon="10.637053260374854"><ele>103.0</ele><time>2026-03-30T10:17:12Z</time></trkpt><trkpt lat="45.380599851047634" lon="10.637208837109252"><ele>103.0</ele><time>2026-03-30T10:17:13Z</time></trkpt><trkpt lat="45.380632726372006" lon="10.637319814908432"><ele>103.00000000000001</ele><time>2026-03-30T10:17:14Z</time></trkpt><trkpt lat="45.38066557928282" lon="10.637404175677379"><ele>103.0</ele><time>2026-03-30T10:17:15Z</time></trkpt><trkpt lat="45.38067084406558" lon="10.63752837986282"><ele>103.0</ele><time>2026-03-30T10:17:17Z</time></trkpt><trkpt lat="45.38069833104258" lon="10.637644160450424"><ele>103.0</ele><time>2026-03-30T10:19:09.998Z</time></trkpt><trkpt lat="45.38076540159501" lon="10.63767240345694"><ele>103.00000000000001</ele><time>2026-03-30T10:19:10.998Z</time></trkpt><trkpt lat="45.38083815713701" lon="10.637709228629756"><ele>103.0</ele><time>2026-03-30T10:19:11.998Z</time></trkpt><trkpt lat="45.38092794436384" lon="10.63775645060122"><ele>102.0</ele><time>2026-03-30T10:19:12.998Z</time></trkpt><trkpt lat="45.38102529267387" lon="10.637836050926502"><ele>101.0</ele><time>2026-03-30T10:19:13.998Z</time></trkpt><trkpt lat="45.38111576920497" lon="10.637950451385047"><ele>100.0</ele><time>2026-03-30T10:19:14.998Z</time></trkpt><trkpt lat="45.381213146991286" lon="10.638080783349537"><ele>99.0</ele><time>2026-03-30T10:19:16Z</time></trkpt><trkpt lat="45.38130932259527" lon="10.638213728556302"><ele>100.0</ele><time>2026-03-30T10:19:17Z</time></trkpt><trkpt lat="45.38142056049858" lon="10.638358019136938"><ele>101.0</ele><time>2026-03-30T10:19:18Z</time></trkpt><trkpt lat="45.381539607567426" lon="10.638508495429038"><ele>102.0</ele><time>2026-03-30T10:19:19Z</time></trkpt><trkpt lat="45.38166587618598" lon="10.638678453985207"><ele>102.0</ele><time>2026-03-30T10:19:20Z</time></trkpt><trkpt lat="45.381762794352824" lon="10.638843255952967"><ele>102.0</ele><time>2026-03-30T10:19:21Z</time></trkpt><trkpt lat="45.381850722948755" lon="10.639003745021403"><ele>102.0</ele><time>2026-03-30T10:19:22Z</time></trkpt><trkpt lat="45.38193782134816" lon="10.639159580273938"><ele>102.0</ele><time>2026-03-30T10:19:23Z</time></trkpt><trkpt lat="45.38202364124929" lon="10.639302566942888"><ele>102.0</ele><time>2026-03-30T10:19:24Z</time></trkpt><trkpt lat="45.382121389403586" lon="10.63945387871392"><ele>102.0</ele><time>2026-03-30T10:19:25Z</time></trkpt><trkpt lat="45.382225562049356" lon="10.639605571827728"><ele>102.0</ele><time>2026-03-30T10:19:26Z</time></trkpt><trkpt lat="45.38233483343198" lon="10.639752015928654"><ele>102.0</ele><time>2026-03-30T10:19:27Z</time></trkpt><trkpt lat="45.38243922662156" lon="10.639881849883007"><ele>103.0</ele><time>2026-03-30T10:19:28Z</time></trkpt><trkpt lat="45.382549541662655" lon="10.640005178751496"><ele>104.0</ele><time>2026-03-30T10:19:29Z</time></trkpt><trkpt lat="45.382675287087494" lon="10.640128700451319"><ele>105.0</ele><time>2026-03-30T10:19:30Z</time></trkpt><trkpt lat="45.38281410027464" lon="10.64023199012786"><ele>105.66666666666666</ele><time>2026-03-30T10:19:31Z</time></trkpt><trkpt lat="45.38296373028283" lon="10.640342236100734"><ele>106.33333333333333</ele><time>2026-03-30T10:19:32Z</time></trkpt><trkpt lat="45.383112916687345" lon="10.640456382296186"><ele>107.0</ele><time>2026-03-30T10:19:33Z</time></trkpt><trkpt lat="45.383267994936325" lon="10.640568890451084"><ele>107.0</ele><time>2026-03-30T10:19:34Z</time></trkpt><trkpt lat="45.38341839802482" lon="10.640685727645955"><ele>107.0</ele><time>2026-03-30T10:19:35Z</time></trkpt><trkpt lat="45.38356377965301" lon="10.640799931607326"><ele>107.0</ele><time>2026-03-30T10:19:36Z</time></trkpt><trkpt lat="45.383712676676794" lon="10.640910847519123"><ele>106.5</ele><time>2026-03-30T10:19:37Z</time></trkpt><trkpt lat="45.383854990782915" lon="10.641007663777163"><ele>106.0</ele><time>2026-03-30T10:19:38Z</time></trkpt><trkpt lat="45.38399210401649" lon="10.641090896024272"><ele>105.5</ele><time>2026-03-30T10:19:39Z</time></trkpt><trkpt lat="45.3841237004872" lon="10.64115924189128"><ele>105.0</ele><time>2026-03-30T10:19:40Z</time></trkpt><trkpt lat="45.384262687328274" lon="10.641231793559966"><ele>105.0</ele><time>2026-03-30T10:19:41Z</time></trkpt><trkpt lat="45.38440500644213" lon="10.641308703393582"><ele>105.0</ele><time>2026-03-30T10:19:42Z</time></trkpt><trkpt lat="45.384548385481466" lon="10.641383802640448"><ele>105.0</ele><time>2026-03-30T10:19:43Z</time></trkpt><trkpt lat="45.38468703497639" lon="10.641455069687185"><ele>105.75</ele><time>2026-03-30T10:19:44Z</time></trkpt><trkpt lat="45.384827427493434" lon="10.641526333561234"><ele>106.5</ele><time>2026-03-30T10:19:45Z</time></trkpt><trkpt lat="45.38496750626431" lon="10.64160033970727"><ele>107.25</ele><time>2026-03-30T10:19:46Z</time></trkpt><trkpt lat="45.385096637652666" lon="10.641668348136456"><ele>108.0</ele><time>2026-03-30T10:19:47Z</time></trkpt><trkpt lat="45.38521814958971" lon="10.641734411818263"><ele>108.0</ele><time>2026-03-30T10:19:48Z</time></trkpt><trkpt lat="45.38532962971305" lon="10.641800566429822"><ele>108.00000000000001</ele><time>2026-03-30T10:19:49Z</time></trkpt><trkpt lat="45.38543467332022" lon="10.641859333755017"><ele>108.00000000000001</ele><time>2026-03-30T10:19:50Z</time></trkpt><trkpt lat="45.38553505971769" lon="10.641911242311782"><ele>108.0</ele><time>2026-03-30T10:19:50.999Z</time></trkpt><trkpt lat="45.38563073361931" lon="10.641956555820432"><ele>108.0</ele><time>2026-03-30T10:19:51.999Z</time></trkpt><trkpt lat="45.385720971562485" lon="10.642006067045706"><ele>107.5</ele><time>2026-03-30T10:19:52.999Z</time></trkpt><trkpt lat="45.385805580382254" lon="10.642055466633916"><ele>107.0</ele><time>2026-03-30T10:19:53.999Z</time></trkpt><trkpt lat="45.38588335722063" lon="10.642099245425229"><ele>106.5</ele><time>2026-03-30T10:19:54.999Z</time></trkpt><trkpt lat="45.385959806663784" lon="10.642137131643475"><ele>106.0</ele><time>2026-03-30T10:19:55.999Z</time></trkpt><trkpt lat="45.386032458138146" lon="10.64217970712538"><ele>105.5</ele><time>2026-03-30T10:19:56.999Z</time></trkpt><trkpt lat="45.38611139689519" lon="10.642227928317645"><ele>105.0</ele><time>2026-03-30T10:19:57.999Z</time></trkpt><trkpt lat="45.38620353781018" lon="10.642276473896665"><ele>105.0</ele><time>2026-03-30T10:19:58.999Z</time></trkpt><trkpt lat="45.386293227105305" lon="10.642321061452718"><ele>105.0</ele><time>2026-03-30T10:19:59.999Z</time></trkpt><trkpt lat="45.38638995906055" lon="10.642371365894403"><ele>105.0</ele><time>2026-03-30T10:20:00.999Z</time></trkpt><trkpt lat="45.38648236730026" lon="10.64242215147209"><ele>105.0</ele><time>2026-03-30T10:20:01.999Z</time></trkpt><trkpt lat="45.38656618009793" lon="10.642466595698771"><ele>105.0</ele><time>2026-03-30T10:20:02.999Z</time></trkpt><trkpt lat="45.38664487021095" lon="10.642505385523364"><ele>105.2</ele><time>2026-03-30T10:20:03.999Z</time></trkpt><trkpt lat="45.386717294502255" lon="10.642541819572363"><ele>105.4</ele><time>2026-03-30T10:20:04.999Z</time></trkpt><trkpt lat="45.38678485282399" lon="10.642578905010987"><ele>105.6</ele><time>2026-03-30T10:20:05.999Z</time></trkpt><trkpt lat="45.38684639998162" lon="10.64261426540137"><ele>105.8</ele><time>2026-03-30T10:20:06.999Z</time></trkpt><trkpt lat="45.386959592518735" lon="10.642672223571946"><ele>106.0</ele><time>2026-03-30T10:20:08.999Z</time></trkpt><trkpt lat="45.387066143391515" lon="10.64273168065442"><ele>106.0</ele><time>2026-03-30T10:20:10.999Z</time></trkpt><trkpt lat="45.38713785152616" lon="10.642786648262089"><ele>106.0</ele><time>2026-03-30T10:20:12.999Z</time></trkpt><trkpt lat="45.38720392918937" lon="10.642835414863379"><ele>106.0</ele><time>2026-03-30T10:20:15.999Z</time></trkpt><trkpt lat="45.38729388109434" lon="10.642889586750645"><ele>106.0</ele><time>2026-03-30T10:20:37.999Z</time></trkpt><trkpt lat="45.38736697850884" lon="10.642973091054944"><ele>106.0</ele><time>2026-03-30T10:20:39.999Z</time></trkpt><trkpt lat="45.38746812220442" lon="10.643057475571535"><ele>105.50000000000001</ele><time>2026-03-30T10:20:41.999Z</time></trkpt><trkpt lat="45.387553224506" lon="10.643109729198436"><ele>105.0</ele><time>2026-03-30T10:20:43.999Z</time></trkpt><trkpt lat="45.38760670636754" lon="10.643183472628031"><ele>104.5</ele><time>2026-03-30T10:20:45.999Z</time></trkpt><trkpt lat="45.3876168233742" lon="10.643304257103855"><ele>104.0</ele><time>2026-03-30T10:20:47.999Z</time></trkpt><trkpt lat="45.387609241525524" lon="10.643403080316576"><ele>103.50000000000001</ele><time>2026-03-30T10:20:48.999Z</time></trkpt><trkpt lat="45.38758194544353" lon="10.643493268623338"><ele>103.0</ele><time>2026-03-30T10:20:49.999Z</time></trkpt><trkpt lat="45.38753177421813" lon="10.643598929477253"><ele>101.4</ele><time>2026-03-30T10:20:50.999Z</time></trkpt><trkpt lat="45.387468595573125" lon="10.643756800814394"><ele>99.80000000000001</ele><time>2026-03-30T10:20:51.999Z</time></trkpt><trkpt lat="45.38742388615887" lon="10.643883639661116"><ele>98.2</ele><time>2026-03-30T10:20:52.999Z</time></trkpt><trkpt lat="45.387370358976966" lon="10.644012650823235"><ele>96.6</ele><time>2026-03-30T10:20:53.999Z</time></trkpt><trkpt lat="45.38731195809131" lon="10.644146393155284"><ele>95.0</ele><time>2026-03-30T10:20:54.999Z</time></trkpt><trkpt lat="45.38723834615328" lon="10.644299813323107"><ele>94.75</ele><time>2026-03-30T10:20:55.999Z</time></trkpt><trkpt lat="45.38716276214297" lon="10.64445405046391"><ele>94.5</ele><time>2026-03-30T10:20:56.999Z</time></trkpt><trkpt lat="45.38708696657851" lon="10.644585466245294"><ele>94.25</ele><time>2026-03-30T10:20:57.999Z</time></trkpt><trkpt lat="45.387002074562474" lon="10.64472122679644"><ele>94.0</ele><time>2026-03-30T10:20:58.998Z</time></trkpt><trkpt lat="45.38691222200767" lon="10.64482984517775"><ele>93.75</ele><time>2026-03-30T10:20:59.998Z</time></trkpt><trkpt lat="45.38683141683472" lon="10.644926883483773"><ele>93.5</ele><time>2026-03-30T10:21:00.998Z</time></trkpt><trkpt lat="45.38676446928354" lon="10.645037525972157"><ele>93.25</ele><time>2026-03-30T10:21:01.998Z</time></trkpt><trkpt lat="45.38670784733442" lon="10.645180976481619"><ele>93.0</ele><time>2026-03-30T10:21:02.998Z</time></trkpt><trkpt lat="45.3866404307528" lon="10.645347605475965"><ele>93.4</ele><time>2026-03-30T10:21:03.998Z</time></trkpt><trkpt lat="45.38657114019138" lon="10.645497751753982"><ele>93.80000000000001</ele><time>2026-03-30T10:21:04.998Z</time></trkpt><trkpt lat="45.386511957974825" lon="10.645628888096216"><ele>94.2</ele><time>2026-03-30T10:21:05.998Z</time></trkpt><trkpt lat="45.38645386219271" lon="10.645759110574382"><ele>94.6</ele><time>2026-03-30T10:21:06.998Z</time></trkpt><trkpt lat="45.386399350707876" lon="10.645885241530479"><ele>95.0</ele><time>2026-03-30T10:21:07.998Z</time></trkpt><trkpt lat="45.386350449320155" lon="10.646008011748494"><ele>96.8</ele><time>2026-03-30T10:21:08.998Z</time></trkpt><trkpt lat="45.38629136618451" lon="10.646130697611024"><ele>98.6</ele><time>2026-03-30T10:21:09.998Z</time></trkpt><trkpt lat="45.386223569677476" lon="10.646247412282042"><ele>100.4</ele><time>2026-03-30T10:21:10.998Z</time></trkpt><trkpt lat="45.38614887538744" lon="10.646359351838333"><ele>102.2</ele><time>2026-03-30T10:21:11.998Z</time></trkpt><trkpt lat="45.38607584205822" lon="10.646460061645238"><ele>104.0</ele><time>2026-03-30T10:21:12.998Z</time></trkpt><trkpt lat="45.38603673195171" lon="10.64655571252405"><ele>103.99999999999999</ele><time>2026-03-30T10:21:13.998Z</time></trkpt><trkpt lat="45.38601148082519" lon="10.64668283666932"><ele>104.0</ele><time>2026-03-30T10:21:14.998Z</time></trkpt><trkpt lat="45.38598988525895" lon="10.646828823627459"><ele>104.0</ele><time>2026-03-30T10:21:15.998Z</time></trkpt><trkpt lat="45.3859819193055" lon="10.646927318630638"><ele>104.0</ele><time>2026-03-30T10:21:16.998Z</time></trkpt><trkpt lat="45.385988593714025" lon="10.647021749523818"><ele>103.99999999999999</ele><time>2026-03-30T10:21:17.998Z</time></trkpt><trkpt lat="45.38601699701377" lon="10.647104698768537"><ele>104.0</ele><time>2026-03-30T10:21:18.998Z</time></trkpt><trkpt lat="45.38606305086946" lon="10.647168247725977"><ele>104.6</ele><time>2026-03-30T10:21:19.998Z</time></trkpt><trkpt lat="45.38612872694889" lon="10.647237533102"><ele>105.2</ele><time>2026-03-30T10:21:20.998Z</time></trkpt><trkpt lat="45.38621181870075" lon="10.64728620128583"><ele>105.79999999999998</ele><time>2026-03-30T10:21:22Z</time></trkpt><trkpt lat="45.386304007914546" lon="10.647339300005793"><ele>106.39999999999999</ele><time>2026-03-30T10:21:23Z</time></trkpt><trkpt lat="45.38640177629395" lon="10.647411435187115"><ele>107.0</ele><time>2026-03-30T10:21:24Z</time></trkpt><trkpt lat="45.386502018481394" lon="10.647480228855205"><ele>106.99999999999999</ele><time>2026-03-30T10:21:25Z</time></trkpt><trkpt lat="45.38658970041514" lon="10.647548698585547"><ele>107.0</ele><time>2026-03-30T10:21:26Z</time></trkpt><trkpt lat="45.386681004879016" lon="10.64761739520471"><ele>107.0</ele><time>2026-03-30T10:21:27Z</time></trkpt><trkpt lat="45.38675959308308" lon="10.647677488761225"><ele>107.0</ele><time>2026-03-30T10:21:28Z</time></trkpt><trkpt lat="45.38683422111209" lon="10.647727739978762"><ele>106.99999999999999</ele><time>2026-03-30T10:21:29Z</time></trkpt><trkpt lat="45.386897762006825" lon="10.647765948610662"><ele>107.0</ele><time>2026-03-30T10:21:30Z</time></trkpt><trkpt lat="45.386991709563674" lon="10.647851866791383"><ele>108.16666666666666</ele><time>2026-03-30T10:21:32Z</time></trkpt><trkpt lat="45.387031953293715" lon="10.647923034971258"><ele>109.33333333333333</ele><time>2026-03-30T10:21:33Z</time></trkpt><trkpt lat="45.387060392577204" lon="10.64800428027585"><ele>110.5</ele><time>2026-03-30T10:21:34Z</time></trkpt><trkpt lat="45.38707060339938" lon="10.648162044676974"><ele>111.66666666666666</ele><time>2026-03-30T10:21:36Z</time></trkpt><trkpt lat="45.38704741920632" lon="10.648271230456237"><ele>112.83333333333333</ele><time>2026-03-30T10:21:37Z</time></trkpt><trkpt lat="45.387025492237804" lon="10.648375351409756"><ele>114.0</ele><time>2026-03-30T10:21:38Z</time></trkpt><trkpt lat="45.387014956956115" lon="10.648474868526804"><ele>114.0</ele><time>2026-03-30T10:21:39Z</time></trkpt><trkpt lat="45.387014305249046" lon="10.648584485229762"><ele>114.0</ele><time>2026-03-30T10:21:40Z</time></trkpt><trkpt lat="45.38700656029798" lon="10.64869500066187"><ele>114.0</ele><time>2026-03-30T10:21:41Z</time></trkpt><trkpt lat="45.38700487546923" lon="10.648860956019062"><ele>114.0</ele><time>2026-03-30T10:21:43Z</time></trkpt><trkpt lat="45.386998791211774" lon="10.648961282648006"><ele>114.0</ele><time>2026-03-30T10:21:44Z</time></trkpt><trkpt lat="45.38699507165389" lon="10.649079072597328"><ele>114.0</ele><time>2026-03-30T10:21:45Z</time></trkpt><trkpt lat="45.386969158103945" lon="10.649196425058259"><ele>114.5</ele><time>2026-03-30T10:21:46Z</time></trkpt><trkpt lat="45.386935001452" lon="10.649312327263823"><ele>115.0</ele><time>2026-03-30T10:21:47Z</time></trkpt><trkpt lat="45.3868942778298" lon="10.649404783192681"><ele>115.5</ele><time>2026-03-30T10:21:48Z</time></trkpt><trkpt lat="45.386847046235516" lon="10.649500543929642"><ele>116.0</ele><time>2026-03-30T10:21:49Z</time></trkpt><trkpt lat="45.38679374405959" lon="10.649577995479975"><ele>116.5</ele><time>2026-03-30T10:21:50Z</time></trkpt><trkpt lat="45.38673869383776" lon="10.64964839210121"><ele>117.0</ele><time>2026-03-30T10:21:51Z</time></trkpt><trkpt lat="45.3866771194406" lon="10.649693744637096"><ele>115.83333333333333</ele><time>2026-03-30T10:21:51.999Z</time></trkpt><trkpt lat="45.38659719817314" lon="10.649719799950063"><ele>114.66666666666666</ele><time>2026-03-30T10:21:52.999Z</time></trkpt><trkpt lat="45.38650936168589" lon="10.649729197685254"><ele>113.5</ele><time>2026-03-30T10:21:53.999Z</time></trkpt><trkpt lat="45.386419979253574" lon="10.649747285777929"><ele>112.33333333333333</ele><time>2026-03-30T10:21:54.999Z</time></trkpt><trkpt lat="45.38634201893618" lon="10.649798033837644"><ele>111.16666666666666</ele><time>2026-03-30T10:21:55.999Z</time></trkpt><trkpt lat="45.38627900782845" lon="10.649883351158381"><ele>110.0</ele><time>2026-03-30T10:21:56.999Z</time></trkpt><trkpt lat="45.38623564633171" lon="10.649970528587867"><ele>110.0</ele><time>2026-03-30T10:21:57.999Z</time></trkpt><trkpt lat="45.38618125519795" lon="10.650099442607237"><ele>110.0</ele><time>2026-03-30T10:21:59.999Z</time></trkpt><trkpt lat="45.38612865540914" lon="10.650229010415734"><ele>110.0</ele><time>2026-03-30T10:22:01.999Z</time></trkpt><trkpt lat="45.386125466054445" lon="10.650321232277447"><ele>110.0</ele><time>2026-03-30T10:22:03.999Z</time></trkpt><trkpt lat="45.3860976248701" lon="10.650408866504302"><ele>110.0</ele><time>2026-03-30T10:22:06.999Z</time></trkpt><trkpt lat="45.385987696960946" lon="10.65041659973025"><ele>109.33333333333333</ele><time>2026-03-30T10:22:08.999Z</time></trkpt><trkpt lat="45.38591320312962" lon="10.650423530262588"><ele>108.66666666666666</ele><time>2026-03-30T10:22:09.999Z</time></trkpt><trkpt lat="45.38584939634609" lon="10.650420058695753"><ele>108.0</ele><time>2026-03-30T10:22:10.999Z</time></trkpt><trkpt lat="45.38577682233702" lon="10.650428864042693"><ele>107.33333333333334</ele><time>2026-03-30T10:22:11.999Z</time></trkpt><trkpt lat="45.38571269108797" lon="10.650422873063707"><ele>106.66666666666667</ele><time>2026-03-30T10:22:12.999Z</time></trkpt><trkpt lat="45.38563702045106" lon="10.650431347015687"><ele>106.0</ele><time>2026-03-30T10:22:13.999Z</time></trkpt><trkpt lat="45.385495150465964" lon="10.650436916906404"><ele>109.00000000000001</ele><time>2026-03-30T10:22:15.999Z</time></trkpt><trkpt lat="45.38542271158689" lon="10.650468129678364"><ele>112.0</ele><time>2026-03-30T10:22:16.999Z</time></trkpt><trkpt lat="45.38535883498024" lon="10.65051295978622"><ele>115.0</ele><time>2026-03-30T10:22:17.999Z</time></trkpt><trkpt lat="45.38530405313692" lon="10.65058429695891"><ele>118.0</ele><time>2026-03-30T10:22:18.999Z</time></trkpt><trkpt lat="45.38525796460316" lon="10.650668324396904"><ele>121.00000000000001</ele><time>2026-03-30T10:22:19.999Z</time></trkpt><trkpt lat="45.38521573342071" lon="10.65084299868941"><ele>124.0</ele><time>2026-03-30T10:22:21.999Z</time></trkpt><trkpt lat="45.385181873312106" lon="10.650926498410897"><ele>124.0</ele><time>2026-03-30T10:22:22.999Z</time></trkpt><trkpt lat="45.38514325527918" lon="10.651014574866396"><ele>124.00000000000001</ele><time>2026-03-30T10:22:23.999Z</time></trkpt><trkpt lat="45.38510816612376" lon="10.651108762053259"><ele>124.0</ele><time>2026-03-30T10:22:24.999Z</time></trkpt><trkpt lat="45.385076853757646" lon="10.651194652830304"><ele>124.0</ele><time>2026-03-30T10:22:25.999Z</time></trkpt><trkpt lat="45.385035299213015" lon="10.651265444860346"><ele>124.00000000000001</ele><time>2026-03-30T10:22:26.999Z</time></trkpt><trkpt lat="45.38498008135274" lon="10.651325503021555"><ele>124.0</ele><time>2026-03-30T10:22:27.999Z</time></trkpt><trkpt lat="45.384920204482434" lon="10.651377267803591"><ele>124.0</ele><time>2026-03-30T10:22:28.999Z</time></trkpt><trkpt lat="45.38483416659935" lon="10.651440675786628"><ele>123.50000000000001</ele><time>2026-03-30T10:22:29.999Z</time></trkpt><trkpt lat="45.384752465524684" lon="10.65147711096319"><ele>123.0</ele><time>2026-03-30T10:22:30.999Z</time></trkpt><trkpt lat="45.38466987074305" lon="10.651521573817105"><ele>122.5</ele><time>2026-03-30T10:22:31.999Z</time></trkpt><trkpt lat="45.38457252749984" lon="10.651579288421006"><ele>122.0</ele><time>2026-03-30T10:22:32.999Z</time></trkpt><trkpt lat="45.384494933448124" lon="10.65162228475726"><ele>121.50000000000001</ele><time>2026-03-30T10:22:33.999Z</time></trkpt><trkpt lat="45.3844150493841" lon="10.651657162895496"><ele>121.0</ele><time>2026-03-30T10:22:34.999Z</time></trkpt><trkpt lat="45.38433406449691" lon="10.651692320766877"><ele>121.00000000000001</ele><time>2026-03-30T10:22:35.999Z</time></trkpt><trkpt lat="45.384254248238996" lon="10.651715741993801"><ele>121.0</ele><time>2026-03-30T10:22:36.999Z</time></trkpt><trkpt lat="45.3841893688241" lon="10.651720587048802"><ele>121.0</ele><time>2026-03-30T10:22:37.999Z</time></trkpt><trkpt lat="45.38411986674679" lon="10.651722076516773"><ele>121.0</ele><time>2026-03-30T10:22:38.999Z</time></trkpt><trkpt lat="45.3839882588964" lon="10.651689618118288"><ele>121.00000000000001</ele><time>2026-03-30T10:22:40.999Z</time></trkpt><trkpt lat="45.383908619501" lon="10.65169206802521"><ele>121.0</ele><time>2026-03-30T10:22:41.999Z</time></trkpt><trkpt lat="45.38384047874523" lon="10.651716248851004"><ele>120.66666666666667</ele><time>2026-03-30T10:22:42.999Z</time></trkpt><trkpt lat="45.383745401894565" lon="10.65176549563743"><ele>120.33333333333334</ele><time>2026-03-30T10:22:44.999Z</time></trkpt><trkpt lat="45.38367812895293" lon="10.651848313263129"><ele>120.0</ele><time>2026-03-30T10:22:47.999Z</time></trkpt><trkpt lat="45.38366925466567" lon="10.652004703165339"><ele>119.66666666666666</ele><time>2026-03-30T10:22:49.999Z</time></trkpt><trkpt lat="45.38369480680168" lon="10.652095058715737"><ele>119.33333333333333</ele><time>2026-03-30T10:22:50.999Z</time></trkpt><trkpt lat="45.383710286538616" lon="10.652183396363611"><ele>119.0</ele><time>2026-03-30T10:22:51.999Z</time></trkpt><trkpt lat="45.38372631735111" lon="10.65231851125302"><ele>119.0</ele><time>2026-03-30T10:22:52.999Z</time></trkpt><trkpt lat="45.383745298715375" lon="10.652486952630246"><ele>119.0</ele><time>2026-03-30T10:22:53.999Z</time></trkpt><trkpt lat="45.383758213521524" lon="10.652676915256448"><ele>119.0</ele><time>2026-03-30T10:22:54.999Z</time></trkpt><trkpt lat="45.38376082009258" lon="10.652891338271449"><ele>119.0</ele><time>2026-03-30T10:22:55.999Z</time></trkpt><trkpt lat="45.38375359522414" lon="10.65311502607551"><ele>119.0</ele><time>2026-03-30T10:22:56.999Z</time></trkpt><trkpt lat="45.383732212013896" lon="10.653349831829617"><ele>119.0</ele><time>2026-03-30T10:22:57.999Z</time></trkpt><trkpt lat="45.38369797693776" lon="10.653585822336106"><ele>119.0</ele><time>2026-03-30T10:22:58.999Z</time></trkpt><trkpt lat="45.3836625723758" lon="10.653824412279354"><ele>119.0</ele><time>2026-03-30T10:22:59.999Z</time></trkpt><trkpt lat="45.383628309836325" lon="10.654056654064416"><ele>119.0</ele><time>2026-03-30T10:23:00.999Z</time></trkpt><trkpt lat="45.38359240271138" lon="10.65428952656275"><ele>119.0</ele><time>2026-03-30T10:23:01.999Z</time></trkpt><trkpt lat="45.38355191221215" lon="10.654516148412567"><ele>119.33333333333333</ele><time>2026-03-30T10:23:02.999Z</time></trkpt><trkpt lat="45.383504143049045" lon="10.654743765243483"><ele>119.66666666666666</ele><time>2026-03-30T10:23:03.998Z</time></trkpt><trkpt lat="45.383454898254655" lon="10.654957561146633"><ele>120.0</ele><time>2026-03-30T10:23:04.998Z</time></trkpt><trkpt lat="45.3834061628094" lon="10.65517547635671"><ele>120.33333333333334</ele><time>2026-03-30T10:23:05.998Z</time></trkpt><trkpt lat="45.383361218102856" lon="10.655379198039281"><ele>120.66666666666667</ele><time>2026-03-30T10:23:06.998Z</time></trkpt><trkpt lat="45.38330177945936" lon="10.655601494834944"><ele>121.0</ele><time>2026-03-30T10:23:07.998Z</time></trkpt><trkpt lat="45.38323687813468" lon="10.655815279816908"><ele>121.0</ele><time>2026-03-30T10:23:08.998Z</time></trkpt><trkpt lat="45.38317683098985" lon="10.655997989087068"><ele>121.0</ele><time>2026-03-30T10:23:09.998Z</time></trkpt><trkpt lat="45.383110257617766" lon="10.656179615517338"><ele>121.0</ele><time>2026-03-30T10:23:10.998Z</time></trkpt><trkpt lat="45.38304778675439" lon="10.656337063284711"><ele>121.0</ele><time>2026-03-30T10:23:11.998Z</time></trkpt><trkpt lat="45.382989774884166" lon="10.656491162829221"><ele>121.0</ele><time>2026-03-30T10:23:12.998Z</time></trkpt><trkpt lat="45.38293871046449" lon="10.656640178663578"><ele>121.0</ele><time>2026-03-30T10:23:13.998Z</time></trkpt><trkpt lat="45.38290414681602" lon="10.65679212556071"><ele>121.0</ele><time>2026-03-30T10:23:14.998Z</time></trkpt><trkpt lat="45.38289667901352" lon="10.656954777798683"><ele>121.0</ele><time>2026-03-30T10:23:15.998Z</time></trkpt><trkpt lat="45.3829181383991" lon="10.657132874704203"><ele>120.75</ele><time>2026-03-30T10:23:16.998Z</time></trkpt><trkpt lat="45.38297553234011" lon="10.657306400969402"><ele>120.5</ele><time>2026-03-30T10:23:17.998Z</time></trkpt><trkpt lat="45.38303072574809" lon="10.657469147133543"><ele>120.25</ele><time>2026-03-30T10:23:18.998Z</time></trkpt><trkpt lat="45.38306081843339" lon="10.657641230305643"><ele>120.0</ele><time>2026-03-30T10:23:19.998Z</time></trkpt><trkpt lat="45.38306073280947" lon="10.657817238502775"><ele>120.0</ele><time>2026-03-30T10:23:20.998Z</time></trkpt><trkpt lat="45.38302183547426" lon="10.658003549380267"><ele>120.0</ele><time>2026-03-30T10:23:21.998Z</time></trkpt><trkpt lat="45.382974910025716" lon="10.658196773835042"><ele>120.0</ele><time>2026-03-30T10:23:22.998Z</time></trkpt><trkpt lat="45.38294082544753" lon="10.658365892004323"><ele>120.0</ele><time>2026-03-30T10:23:23.998Z</time></trkpt><trkpt lat="45.38290243791476" lon="10.658525816416608"><ele>119.25</ele><time>2026-03-30T10:23:24.998Z</time></trkpt><trkpt lat="45.382849092098226" lon="10.658680167083137"><ele>118.5</ele><time>2026-03-30T10:23:25.998Z</time></trkpt><trkpt lat="45.382788465056684" lon="10.65883545954451"><ele>117.75</ele><time>2026-03-30T10:23:26.998Z</time></trkpt><trkpt lat="45.38271627170327" lon="10.658979248947796"><ele>117.0</ele><time>2026-03-30T10:23:28Z</time></trkpt><trkpt lat="45.38262056778818" lon="10.65910374143891"><ele>117.0</ele><time>2026-03-30T10:23:29Z</time></trkpt><trkpt lat="45.38252602728775" lon="10.659228681621057"><ele>117.0</ele><time>2026-03-30T10:23:30Z</time></trkpt><trkpt lat="45.382441677139376" lon="10.659371188247496"><ele>117.0</ele><time>2026-03-30T10:23:31Z</time></trkpt><trkpt lat="45.382368452788384" lon="10.659532296782961"><ele>117.0</ele><time>2026-03-30T10:23:32Z</time></trkpt><trkpt lat="45.38231257807307" lon="10.659705768073598"><ele>117.75</ele><time>2026-03-30T10:23:33Z</time></trkpt><trkpt lat="45.38227112508068" lon="10.659891105610217"><ele>118.5</ele><time>2026-03-30T10:23:34Z</time></trkpt><trkpt lat="45.3822399556999" lon="10.660067088950257"><ele>119.25</ele><time>2026-03-30T10:23:35Z</time></trkpt><trkpt lat="45.3822079665477" lon="10.660233447112843"><ele>120.0</ele><time>2026-03-30T10:23:36Z</time></trkpt><trkpt lat="45.38217364982325" lon="10.660396265425181"><ele>120.25</ele><time>2026-03-30T10:23:37Z</time></trkpt><trkpt lat="45.38213212723548" lon="10.660556284770545"><ele>120.5</ele><time>2026-03-30T10:23:38Z</time></trkpt><trkpt lat="45.38207538053553" lon="10.660714596761311"><ele>120.75</ele><time>2026-03-30T10:23:39Z</time></trkpt><trkpt lat="45.38200791887265" lon="10.660866270754171"><ele>121.0</ele><time>2026-03-30T10:23:40Z</time></trkpt><trkpt lat="45.38192834763763" lon="10.660978879069505"><ele>121.00000000000001</ele><time>2026-03-30T10:23:41Z</time></trkpt><trkpt lat="45.38188372346839" lon="10.661096631091791"><ele>121.0</ele><time>2026-03-30T10:23:42Z</time></trkpt><trkpt lat="45.381848020182034" lon="10.661191103716783"><ele>121.0</ele><time>2026-03-30T10:23:43Z</time></trkpt><trkpt lat="45.381825032190015" lon="10.661307963955545"><ele>121.0</ele><time>2026-03-30T10:23:44Z</time></trkpt><trkpt lat="45.38180464128384" lon="10.661435042987666"><ele>121.00000000000001</ele><time>2026-03-30T10:23:45Z</time></trkpt><trkpt lat="45.38179729300889" lon="10.661553228374276"><ele>121.0</ele><time>2026-03-30T10:23:46Z</time></trkpt><trkpt lat="45.38180817234619" lon="10.661673794741233"><ele>120.66666666666667</ele><time>2026-03-30T10:23:47Z</time></trkpt><trkpt lat="45.381830854274654" lon="10.6617847984112"><ele>120.33333333333334</ele><time>2026-03-30T10:23:48Z</time></trkpt><trkpt lat="45.3818565569411" lon="10.661887459841067"><ele>120.0</ele><time>2026-03-30T10:23:49Z</time></trkpt><trkpt lat="45.3818690262745" lon="10.66198530086284"><ele>119.66666666666666</ele><time>2026-03-30T10:23:50Z</time></trkpt><trkpt lat="45.38180716810405" lon="10.662115902963857"><ele>119.33333333333333</ele><time>2026-03-30T10:23:52Z</time></trkpt><trkpt lat="45.38174080502008" lon="10.662195979059756"><ele>119.0</ele><time>2026-03-30T10:23:52.999Z</time></trkpt><trkpt lat="45.381657616931285" lon="10.66231620488773"><ele>119.0</ele><time>2026-03-30T10:23:53.999Z</time></trkpt><trkpt lat="45.3815842807665" lon="10.662426121336585"><ele>119.0</ele><time>2026-03-30T10:23:54.999Z</time></trkpt><trkpt lat="45.38152227874773" lon="10.662519040547744"><ele>119.0</ele><time>2026-03-30T10:23:55.999Z</time></trkpt><trkpt lat="45.38146032629524" lon="10.662611883419062"><ele>119.0</ele><time>2026-03-30T10:23:56.999Z</time></trkpt><trkpt lat="45.38139769774765" lon="10.662699455490886"><ele>119.0</ele><time>2026-03-30T10:23:57.999Z</time></trkpt><trkpt lat="45.38133840976021" lon="10.66276981814343"><ele>119.16666666666666</ele><time>2026-03-30T10:23:58.999Z</time></trkpt><trkpt lat="45.381280711291446" lon="10.662817193052307"><ele>119.33333333333333</ele><time>2026-03-30T10:23:59.999Z</time></trkpt><trkpt lat="45.381203471316596" lon="10.662856045417866"><ele>119.5</ele><time>2026-03-30T10:24:00.999Z</time></trkpt><trkpt lat="45.38109759544087" lon="10.662851227649288"><ele>119.66666666666666</ele><time>2026-03-30T10:24:01.999Z</time></trkpt><trkpt lat="45.38101924222488" lon="10.662792502609864"><ele>119.83333333333333</ele><time>2026-03-30T10:24:02.999Z</time></trkpt><trkpt lat="45.38092500868474" lon="10.66273044454122"><ele>120.0</ele><time>2026-03-30T10:24:03.999Z</time></trkpt><trkpt lat="45.38083740527522" lon="10.662670271053436"><ele>119.5</ele><time>2026-03-30T10:24:04.999Z</time></trkpt><trkpt lat="45.380747365110686" lon="10.662608423790878"><ele>119.0</ele><time>2026-03-30T10:24:05.999Z</time></trkpt><trkpt lat="45.38065300894238" lon="10.662555471682376"><ele>118.5</ele><time>2026-03-30T10:24:06.999Z</time></trkpt><trkpt lat="45.38055376762273" lon="10.662535651663928"><ele>118.0</ele><time>2026-03-30T10:24:07.999Z</time></trkpt><trkpt lat="45.3804871240475" lon="10.662531560287933"><ele>117.5</ele><time>2026-03-30T10:24:08.999Z</time></trkpt><trkpt lat="45.38042227047475" lon="10.662543065163831"><ele>117.0</ele><time>2026-03-30T10:24:09.999Z</time></trkpt><trkpt lat="45.38030913377466" lon="10.662607958971458"><ele>117.0</ele><time>2026-03-30T10:24:11.999Z</time></trkpt><trkpt lat="45.38023239102982" lon="10.662655310848008"><ele>116.99999999999999</ele><time>2026-03-30T10:24:12.999Z</time></trkpt><trkpt lat="45.380163009324995" lon="10.662703096950898"><ele>116.99999999999999</ele><time>2026-03-30T10:24:13.999Z</time></trkpt><trkpt lat="45.38007481794645" lon="10.66278725772968"><ele>117.0</ele><time>2026-03-30T10:24:15.999Z</time></trkpt><trkpt lat="45.37996994009588" lon="10.662862375219166"><ele>117.0</ele><time>2026-03-30T10:24:17.999Z</time></trkpt><trkpt lat="45.37987694874242" lon="10.662930747880699"><ele>117.0</ele><time>2026-03-30T10:24:19.999Z</time></trkpt><trkpt lat="45.37976832111814" lon="10.663005887245859"><ele>116.99999999999999</ele><time>2026-03-30T10:24:21.999Z</time></trkpt><trkpt lat="45.37967278162241" lon="10.663057372813592"><ele>116.99999999999999</ele><time>2026-03-30T10:24:23.999Z</time></trkpt><trkpt lat="45.37961051999028" lon="10.663071577177652"><ele>117.0</ele><time>2026-03-30T10:24:26.999Z</time></trkpt><trkpt lat="45.37967702590306" lon="10.66305142387228"><ele>117.0</ele><time>2026-03-30T10:24:39.999Z</time></trkpt><trkpt lat="45.37977924121678" lon="10.663008773873987"><ele>117.0</ele><time>2026-03-30T10:24:42.999Z</time></trkpt><trkpt lat="45.37987401917241" lon="10.662934324162746"><ele>116.99999999999999</ele><time>2026-03-30T10:24:44.999Z</time></trkpt><trkpt lat="45.380012634232614" lon="10.662832639658037"><ele>116.99999999999999</ele><time>2026-03-30T10:24:46.999Z</time></trkpt><trkpt lat="45.38007272764497" lon="10.662797704978981"><ele>117.0</ele><time>2026-03-30T10:24:47.999Z</time></trkpt><trkpt lat="45.38017722832864" lon="10.662730898984988"><ele>117.0</ele><time>2026-03-30T10:24:49.999Z</time></trkpt><trkpt lat="45.380294554162404" lon="10.662650763566344"><ele>117.0</ele><time>2026-03-30T10:24:51.999Z</time></trkpt><trkpt lat="45.38037181607974" lon="10.66262426310815"><ele>117.0</ele><time>2026-03-30T10:24:53.999Z</time></trkpt><trkpt lat="45.38042860336994" lon="10.662566050337672"><ele>117.0</ele><time>2026-03-30T10:24:57.999Z</time></trkpt><trkpt lat="45.38049102210159" lon="10.662522933982515"><ele>117.0</ele><time>2026-03-30T10:25:09.998Z</time></trkpt><trkpt lat="45.38060211286828" lon="10.662586591700839"><ele>117.0</ele><time>2026-03-30T10:25:11.998Z</time></trkpt><trkpt lat="45.3806674213064" lon="10.662615296843388"><ele>117.0</ele><time>2026-03-30T10:25:12.998Z</time></trkpt><trkpt lat="45.38074376938388" lon="10.662658974466892"><ele>116.8</ele><time>2026-03-30T10:25:13.998Z</time></trkpt><trkpt lat="45.38082421109205" lon="10.662723637692205"><ele>116.6</ele><time>2026-03-30T10:25:14.998Z</time></trkpt><trkpt lat="45.38091503370895" lon="10.662794717343347"><ele>116.39999999999999</ele><time>2026-03-30T10:25:15.998Z</time></trkpt><trkpt lat="45.381002514841136" lon="10.662845192654435"><ele>116.19999999999999</ele><time>2026-03-30T10:25:16.998Z</time></trkpt><trkpt lat="45.38108793262436" lon="10.662876858654796"><ele>116.0</ele><time>2026-03-30T10:25:17.998Z</time></trkpt><trkpt lat="45.38117600292032" lon="10.662904689831656"><ele>116.6</ele><time>2026-03-30T10:25:18.998Z</time></trkpt><trkpt lat="45.38126488641185" lon="10.662902671538548"><ele>117.19999999999999</ele><time>2026-03-30T10:25:19.998Z</time></trkpt><trkpt lat="45.38135067213124" lon="10.662852804861357"><ele>117.80000000000001</ele><time>2026-03-30T10:25:20.998Z</time></trkpt><trkpt lat="45.38141646628536" lon="10.662739730632309"><ele>118.4</ele><time>2026-03-30T10:25:21.998Z</time></trkpt><trkpt lat="45.38151297219481" lon="10.662601695289862"><ele>119.0</ele><time>2026-03-30T10:25:22.998Z</time></trkpt><trkpt lat="45.381618094077744" lon="10.662470268396504"><ele>118.99999999999999</ele><time>2026-03-30T10:25:23.998Z</time></trkpt><trkpt lat="45.38167711142796" lon="10.662355698818871"><ele>119.0</ele><time>2026-03-30T10:25:24.998Z</time></trkpt><trkpt lat="45.38173844850063" lon="10.662264164375575"><ele>119.0</ele><time>2026-03-30T10:25:25.998Z</time></trkpt><trkpt lat="45.38178686323695" lon="10.662201801796297"><ele>119.0</ele><time>2026-03-30T10:25:26.998Z</time></trkpt><trkpt lat="45.381860488708355" lon="10.66211711256007"><ele>118.99999999999999</ele><time>2026-03-30T10:25:28.998Z</time></trkpt><trkpt lat="45.38191112749682" lon="10.662056770770304"><ele>119.0</ele><time>2026-03-30T10:25:47Z</time></trkpt><trkpt lat="45.381951635547566" lon="10.662249458260733"><ele>119.0</ele><time>2026-03-30T10:25:49Z</time></trkpt><trkpt lat="45.381982498950926" lon="10.66237986092253"><ele>119.0</ele><time>2026-03-30T10:25:50Z</time></trkpt><trkpt lat="45.382010608935545" lon="10.662525704928104"><ele>119.0</ele><time>2026-03-30T10:25:51Z</time></trkpt><trkpt lat="45.38203743699922" lon="10.662688292160786"><ele>119.0</ele><time>2026-03-30T10:25:52Z</time></trkpt><trkpt lat="45.38204559543292" lon="10.662858789360603"><ele>119.0</ele><time>2026-03-30T10:25:53Z</time></trkpt><trkpt lat="45.3820403387365" lon="10.663013240392686"><ele>119.75</ele><time>2026-03-30T10:25:54Z</time></trkpt><trkpt lat="45.38202423741186" lon="10.663171073018717"><ele>120.5</ele><time>2026-03-30T10:25:55Z</time></trkpt><trkpt lat="45.381992864120974" lon="10.663338723632602"><ele>121.25</ele><time>2026-03-30T10:25:56Z</time></trkpt><trkpt lat="45.38195857963151" lon="10.66348899001971"><ele>122.0</ele><time>2026-03-30T10:25:57Z</time></trkpt><trkpt lat="45.38192013999545" lon="10.66363280653058"><ele>122.6</ele><time>2026-03-30T10:25:58Z</time></trkpt><trkpt lat="45.3818886856339" lon="10.663796686446307"><ele>123.19999999999999</ele><time>2026-03-30T10:25:59Z</time></trkpt><trkpt lat="45.38187623500078" lon="10.663960052981194"><ele>123.8</ele><time>2026-03-30T10:26:00Z</time></trkpt><trkpt lat="45.38188608845919" lon="10.664113598756055"><ele>124.4</ele><time>2026-03-30T10:26:01Z</time></trkpt><trkpt lat="45.38189681637804" lon="10.664248748633247"><ele>125.0</ele><time>2026-03-30T10:26:02Z</time></trkpt><trkpt lat="45.38191149195673" lon="10.66437082943174"><ele>125.33333333333333</ele><time>2026-03-30T10:26:03Z</time></trkpt><trkpt lat="45.381924820838506" lon="10.664479183437981"><ele>125.66666666666666</ele><time>2026-03-30T10:26:04Z</time></trkpt><trkpt lat="45.38193387434149" lon="10.664585918111255"><ele>126.0</ele><time>2026-03-30T10:26:04.999Z</time></trkpt><trkpt lat="45.38194750931883" lon="10.66469858718782"><ele>126.33333333333334</ele><time>2026-03-30T10:26:05.999Z</time></trkpt><trkpt lat="45.381965949425954" lon="10.664833900379021"><ele>126.66666666666667</ele><time>2026-03-30T10:26:06.999Z</time></trkpt><trkpt lat="45.381991277974244" lon="10.664999824437437"><ele>127.0</ele><time>2026-03-30T10:26:07.999Z</time></trkpt><trkpt lat="45.38203220749642" lon="10.665198484826437"><ele>127.33333333333334</ele><time>2026-03-30T10:26:08.999Z</time></trkpt><trkpt lat="45.38209725716271" lon="10.665412466461241"><ele>127.66666666666666</ele><time>2026-03-30T10:26:09.999Z</time></trkpt><trkpt lat="45.38216617936238" lon="10.665633376252776"><ele>128.0</ele><time>2026-03-30T10:26:10.999Z</time></trkpt><trkpt lat="45.38223004985738" lon="10.66588426066498"><ele>128.75</ele><time>2026-03-30T10:26:11.999Z</time></trkpt><trkpt lat="45.38228516536968" lon="10.666088309574704"><ele>129.5</ele><time>2026-03-30T10:26:12.999Z</time></trkpt><trkpt lat="45.38233906674539" lon="10.666263672982561"><ele>130.25</ele><time>2026-03-30T10:26:13.999Z</time></trkpt><trkpt lat="45.38238507415367" lon="10.66641708202389"><ele>131.0</ele><time>2026-03-30T10:26:14.999Z</time></trkpt><trkpt lat="45.38241807437904" lon="10.666566364901778"><ele>131.16666666666666</ele><time>2026-03-30T10:26:15.999Z</time></trkpt><trkpt lat="45.38242516398037" lon="10.666699506140809"><ele>131.33333333333331</ele><time>2026-03-30T10:26:16.999Z</time></trkpt><trkpt lat="45.382414995965014" lon="10.666823304867215"><ele>131.5</ele><time>2026-03-30T10:26:17.999Z</time></trkpt><trkpt lat="45.382399875379484" lon="10.666942806596857"><ele>131.66666666666666</ele><time>2026-03-30T10:26:18.999Z</time></trkpt><trkpt lat="45.382384172278314" lon="10.667041773155049"><ele>131.83333333333334</ele><time>2026-03-30T10:26:19.999Z</time></trkpt><trkpt lat="45.38237170447435" lon="10.667132237499613"><ele>132.0</ele><time>2026-03-30T10:26:20.999Z</time></trkpt><trkpt lat="45.382340483810445" lon="10.667292307123954"><ele>132.16666666666666</ele><time>2026-03-30T10:26:22.999Z</time></trkpt><trkpt lat="45.38231996083215" lon="10.667383192254995"><ele>132.33333333333334</ele><time>2026-03-30T10:26:23.999Z</time></trkpt><trkpt lat="45.38230388987613" lon="10.667487379676237"><ele>132.5</ele><time>2026-03-30T10:26:24.999Z</time></trkpt><trkpt lat="45.38228228451598" lon="10.667597583652881"><ele>132.66666666666669</ele><time>2026-03-30T10:26:25.999Z</time></trkpt><trkpt lat="45.38224332843769" lon="10.66775063283289"><ele>132.83333333333334</ele><time>2026-03-30T10:26:27.999Z</time></trkpt><trkpt lat="45.38222837152764" lon="10.667854281832433"><ele>133.0</ele><time>2026-03-30T10:26:28.999Z</time></trkpt><trkpt lat="45.38220707772068" lon="10.667970660767443"><ele>132.4</ele><time>2026-03-30T10:26:29.999Z</time></trkpt><trkpt lat="45.38217959406541" lon="10.66809024052111"><ele>131.8</ele><time>2026-03-30T10:26:30.999Z</time></trkpt><trkpt lat="45.38214900218195" lon="10.668214997942085"><ele>131.2</ele><time>2026-03-30T10:26:31.999Z</time></trkpt><trkpt lat="45.382117294242846" lon="10.668355860375495"><ele>130.6</ele><time>2026-03-30T10:26:32.999Z</time></trkpt><trkpt lat="45.3820852965655" lon="10.668503856534967"><ele>130.0</ele><time>2026-03-30T10:26:33.999Z</time></trkpt><trkpt lat="45.382051151417066" lon="10.668657972612714"><ele>129.75</ele><time>2026-03-30T10:26:34.999Z</time></trkpt><trkpt lat="45.3820168594736" lon="10.668820197249755"><ele>129.5</ele><time>2026-03-30T10:26:35.999Z</time></trkpt><trkpt lat="45.38197905641326" lon="10.668989106191013"><ele>129.25</ele><time>2026-03-30T10:26:36.999Z</time></trkpt><trkpt lat="45.381926652990686" lon="10.669161358198048"><ele>129.0</ele><time>2026-03-30T10:26:37.999Z</time></trkpt><trkpt lat="45.38184519266089" lon="10.669306087696965"><ele>129.0</ele><time>2026-03-30T10:26:38.999Z</time></trkpt><trkpt lat="45.381759275786166" lon="10.669439676338598"><ele>129.0</ele><time>2026-03-30T10:26:39.999Z</time></trkpt><trkpt lat="45.38167482135778" lon="10.669571310127887"><ele>129.0</ele><time>2026-03-30T10:26:40.999Z</time></trkpt><trkpt lat="45.38159101647717" lon="10.669699423978399"><ele>129.0</ele><time>2026-03-30T10:26:41.999Z</time></trkpt><trkpt lat="45.381514199862146" lon="10.669814355585896"><ele>128.8</ele><time>2026-03-30T10:26:42.999Z</time></trkpt><trkpt lat="45.38145103643397" lon="10.669932807607472"><ele>128.60000000000002</ele><time>2026-03-30T10:26:43.999Z</time></trkpt><trkpt lat="45.38139685670791" lon="10.670043983438426"><ele>128.4</ele><time>2026-03-30T10:26:44.999Z</time></trkpt><trkpt lat="45.381349487110455" lon="10.670142474501628"><ele>128.20000000000002</ele><time>2026-03-30T10:26:45.999Z</time></trkpt><trkpt lat="45.381306511554996" lon="10.67022362612507"><ele>128.0</ele><time>2026-03-30T10:26:46.999Z</time></trkpt><trkpt lat="45.38120340262737" lon="10.670258336532589"><ele>127.25</ele><time>2026-03-30T10:26:48.999Z</time></trkpt><trkpt lat="45.38116048950532" lon="10.670116060027578"><ele>126.5</ele><time>2026-03-30T10:26:50.999Z</time></trkpt><trkpt lat="45.38111867577483" lon="10.669987555357935"><ele>125.75</ele><time>2026-03-30T10:26:51.999Z</time></trkpt><trkpt lat="45.38106121158271" lon="10.669826768881878"><ele>125.0</ele><time>2026-03-30T10:26:52.999Z</time></trkpt><trkpt lat="45.38098949114584" lon="10.669672077706798"><ele>125.0</ele><time>2026-03-30T10:26:53.999Z</time></trkpt><trkpt lat="45.38087767104357" lon="10.669543012620212"><ele>125.0</ele><time>2026-03-30T10:26:54.999Z</time></trkpt><trkpt lat="45.380772066939286" lon="10.669407189543412"><ele>125.0</ele><time>2026-03-30T10:26:55.999Z</time></trkpt><trkpt lat="45.38063811212356" lon="10.669337241399678"><ele>125.0</ele><time>2026-03-30T10:26:56.999Z</time></trkpt><trkpt lat="45.380535248588544" lon="10.669242970422161"><ele>125.75</ele><time>2026-03-30T10:26:57.999Z</time></trkpt><trkpt lat="45.380433124475225" lon="10.669167389811014"><ele>126.5</ele><time>2026-03-30T10:26:58.999Z</time></trkpt><trkpt lat="45.38032092449368" lon="10.669071276680441"><ele>127.25</ele><time>2026-03-30T10:26:59.999Z</time></trkpt><trkpt lat="45.38018541764198" lon="10.668961192080237"><ele>128.0</ele><time>2026-03-30T10:27:00.999Z</time></trkpt><trkpt lat="45.3800507447738" lon="10.668805041203402"><ele>128.0</ele><time>2026-03-30T10:27:01.999Z</time></trkpt><trkpt lat="45.379911617773175" lon="10.668643549907536"><ele>128.0</ele><time>2026-03-30T10:27:02.999Z</time></trkpt><trkpt lat="45.37974420149065" lon="10.66845050899585"><ele>128.0</ele><time>2026-03-30T10:27:03.999Z</time></trkpt><trkpt lat="45.379588937612034" lon="10.6682350254093"><ele>128.0</ele><time>2026-03-30T10:27:04.999Z</time></trkpt><trkpt lat="45.37941873308444" lon="10.668044209589668"><ele>128.0</ele><time>2026-03-30T10:27:05.999Z</time></trkpt><trkpt lat="45.37926781170963" lon="10.667875236834796"><ele>128.0</ele><time>2026-03-30T10:27:06.999Z</time></trkpt><trkpt lat="45.37911656268173" lon="10.667708628585956"><ele>128.0</ele><time>2026-03-30T10:27:07.999Z</time></trkpt><trkpt lat="45.37898101555412" lon="10.667553356590464"><ele>128.0</ele><time>2026-03-30T10:27:08.999Z</time></trkpt><trkpt lat="45.37885227644188" lon="10.66740576701387"><ele>128.0</ele><time>2026-03-30T10:27:09.999Z</time></trkpt><trkpt lat="45.37871956264587" lon="10.667253620764969"><ele>128.0</ele><time>2026-03-30T10:27:10.999Z</time></trkpt><trkpt lat="45.378589474492166" lon="10.667107098739736"><ele>128.0</ele><time>2026-03-30T10:27:11.999Z</time></trkpt><trkpt lat="45.378466180042984" lon="10.666969770096127"><ele>128.0</ele><time>2026-03-30T10:27:12.999Z</time></trkpt><trkpt lat="45.37834994935009" lon="10.66684030925242"><ele>128.0</ele><time>2026-03-30T10:27:13.999Z</time></trkpt><trkpt lat="45.37823673161357" lon="10.66671420431854"><ele>128.0</ele><time>2026-03-30T10:27:14.999Z</time></trkpt><trkpt lat="45.37813568713921" lon="10.666596841465445"><ele>128.0</ele><time>2026-03-30T10:27:15.999Z</time></trkpt><trkpt lat="45.378037074473866" lon="10.666481847027095"><ele>128.0</ele><time>2026-03-30T10:27:16.999Z</time></trkpt><trkpt lat="45.37794245509565" lon="10.666370179135129"><ele>128.0</ele><time>2026-03-30T10:27:17.999Z</time></trkpt><trkpt lat="45.37786221986605" lon="10.666273986503501"><ele>128.0</ele><time>2026-03-30T10:27:18.998Z</time></trkpt><trkpt lat="45.37779906909185" lon="10.666227981024957"><ele>128.0</ele><time>2026-03-30T10:27:19.998Z</time></trkpt><trkpt lat="45.37770973536219" lon="10.666104197265193"><ele>128.0</ele><time>2026-03-30T10:27:21.998Z</time></trkpt><trkpt lat="45.377652108873654" lon="10.66602802049201"><ele>128.0</ele><time>2026-03-30T10:27:22.998Z</time></trkpt><trkpt lat="45.377580696686564" lon="10.66593006914331"><ele>128.0</ele><time>2026-03-30T10:27:23.998Z</time></trkpt><trkpt lat="45.37750592766834" lon="10.665824770279361"><ele>128.0</ele><time>2026-03-30T10:27:24.998Z</time></trkpt><trkpt lat="45.377433706352384" lon="10.66568198923929"><ele>128.0</ele><time>2026-03-30T10:27:25.998Z</time></trkpt><trkpt lat="45.37733896879386" lon="10.665562585095936"><ele>128.0</ele><time>2026-03-30T10:27:26.998Z</time></trkpt><trkpt lat="45.37725612833684" lon="10.665432925915324"><ele>127.25</ele><time>2026-03-30T10:27:27.998Z</time></trkpt><trkpt lat="45.37717747733321" lon="10.665290774488062"><ele>126.5</ele><time>2026-03-30T10:27:28.998Z</time></trkpt><trkpt lat="45.37708760358934" lon="10.665167964059696"><ele>125.75</ele><time>2026-03-30T10:27:29.998Z</time></trkpt><trkpt lat="45.37699340823129" lon="10.665045530301816"><ele>125.0</ele><time>2026-03-30T10:27:30.998Z</time></trkpt><trkpt lat="45.376893258246874" lon="10.664957314812316"><ele>125.0</ele><time>2026-03-30T10:27:31.998Z</time></trkpt><trkpt lat="45.37680702289382" lon="10.664856187910308"><ele>125.0</ele><time>2026-03-30T10:27:32.998Z</time></trkpt><trkpt lat="45.376723786521616" lon="10.664755563107287"><ele>125.0</ele><time>2026-03-30T10:27:33.998Z</time></trkpt><trkpt lat="45.37664588763738" lon="10.664666191823926"><ele>125.0</ele><time>2026-03-30T10:27:34.998Z</time></trkpt><trkpt lat="45.376571386363075" lon="10.664581369075393"><ele>125.0</ele><time>2026-03-30T10:27:35.998Z</time></trkpt><trkpt lat="45.37651449063596" lon="10.664481924256101"><ele>124.6</ele><time>2026-03-30T10:27:36.998Z</time></trkpt><trkpt lat="45.37645687574733" lon="10.664403873002621"><ele>124.2</ele><time>2026-03-30T10:27:37.998Z</time></trkpt><trkpt lat="45.37634425732723" lon="10.664367841016427"><ele>123.80000000000001</ele><time>2026-03-30T10:27:39Z</time></trkpt><trkpt lat="45.37625295333024" lon="10.664388876180865"><ele>123.4</ele><time>2026-03-30T10:27:40Z</time></trkpt><trkpt lat="45.3761521472148" lon="10.664351487807945"><ele>123.0</ele><time>2026-03-30T10:27:41Z</time></trkpt><trkpt lat="45.37605468688097" lon="10.664329006161605"><ele>123.0</ele><time>2026-03-30T10:27:42Z</time></trkpt><trkpt lat="45.375940514747015" lon="10.664304187729762"><ele>123.0</ele><time>2026-03-30T10:27:43Z</time></trkpt><trkpt lat="45.37581490437785" lon="10.664276951312493"><ele>123.0</ele><time>2026-03-30T10:27:44Z</time></trkpt><trkpt lat="45.37567567037409" lon="10.664252948389313"><ele>123.0</ele><time>2026-03-30T10:27:45Z</time></trkpt><trkpt lat="45.37553393190127" lon="10.664251070193272"><ele>122.25</ele><time>2026-03-30T10:27:46Z</time></trkpt><trkpt lat="45.37540324556401" lon="10.664252857243818"><ele>121.5</ele><time>2026-03-30T10:27:47Z</time></trkpt><trkpt lat="45.37529172346869" lon="10.66424398437299"><ele>120.75</ele><time>2026-03-30T10:27:48Z</time></trkpt><trkpt lat="45.375179742276444" lon="10.664241859258937"><ele>120.0</ele><time>2026-03-30T10:27:49Z</time></trkpt><trkpt lat="45.37507583424951" lon="10.664228393473469"><ele>120.0</ele><time>2026-03-30T10:27:50Z</time></trkpt><trkpt lat="45.374969344138336" lon="10.664196151782987"><ele>120.0</ele><time>2026-03-30T10:27:51Z</time></trkpt><trkpt lat="45.374867207334454" lon="10.664149783160324"><ele>120.0</ele><time>2026-03-30T10:27:52Z</time></trkpt><trkpt lat="45.37477254185289" lon="10.664081461542654"><ele>120.0</ele><time>2026-03-30T10:27:53Z</time></trkpt><trkpt lat="45.37469287074298" lon="10.663992941185668"><ele>120.0</ele><time>2026-03-30T10:27:54Z</time></trkpt><trkpt lat="45.37462812861955" lon="10.663900295087254"><ele>119.2</ele><time>2026-03-30T10:27:55Z</time></trkpt><trkpt lat="45.374575299410324" lon="10.66381073496558"><ele>118.4</ele><time>2026-03-30T10:27:56Z</time></trkpt><trkpt lat="45.374535341385176" lon="10.663728127054082"><ele>117.6</ele><time>2026-03-30T10:27:57Z</time></trkpt><trkpt lat="45.374466425856006" lon="10.663616042318074"><ele>116.8</ele><time>2026-03-30T10:27:59Z</time></trkpt><trkpt lat="45.37434584235437" lon="10.6636980819183"><ele>116.0</ele><time>2026-03-30T10:28:00Z</time></trkpt><trkpt lat="45.3742800360793" lon="10.66372610373768"><ele>116.0</ele><time>2026-03-30T10:28:01Z</time></trkpt><trkpt lat="45.37420457164615" lon="10.663787946528844"><ele>116.0</ele><time>2026-03-30T10:28:02Z</time></trkpt><trkpt lat="45.37412031393003" lon="10.663885661207122"><ele>116.0</ele><time>2026-03-30T10:28:03Z</time></trkpt><trkpt lat="45.374014267465995" lon="10.663954058815131"><ele>116.0</ele><time>2026-03-30T10:28:04Z</time></trkpt><trkpt lat="45.37391274900685" lon="10.664042719563593"><ele>116.0</ele><time>2026-03-30T10:28:05Z</time></trkpt><trkpt lat="45.37380249665461" lon="10.664139008002472"><ele>115.75</ele><time>2026-03-30T10:28:06Z</time></trkpt><trkpt lat="45.3737302004559" lon="10.664293446616712"><ele>115.5</ele><time>2026-03-30T10:28:07Z</time></trkpt><trkpt lat="45.3736438905342" lon="10.664408522685347"><ele>115.25</ele><time>2026-03-30T10:28:08Z</time></trkpt><trkpt lat="45.37357161352753" lon="10.664532951273056"><ele>115.0</ele><time>2026-03-30T10:28:09Z</time></trkpt><trkpt lat="45.37349829849997" lon="10.664640708197538"><ele>115.5</ele><time>2026-03-30T10:28:10Z</time></trkpt><trkpt lat="45.373406757477504" lon="10.664742325739107"><ele>116.0</ele><time>2026-03-30T10:28:11Z</time></trkpt><trkpt lat="45.37329499784863" lon="10.664841398967143"><ele>116.5</ele><time>2026-03-30T10:28:12Z</time></trkpt><trkpt lat="45.373178185360544" lon="10.664952020223627"><ele>117.0</ele><time>2026-03-30T10:28:13Z</time></trkpt><trkpt lat="45.37307097823579" lon="10.665056210736713"><ele>118.75</ele><time>2026-03-30T10:28:14Z</time></trkpt><trkpt lat="45.372962251128584" lon="10.665146280830635"><ele>120.5</ele><time>2026-03-30T10:28:14.999Z</time></trkpt><trkpt lat="45.37286520762555" lon="10.665219931453661"><ele>122.25</ele><time>2026-03-30T10:28:15.999Z</time></trkpt><trkpt lat="45.37275629996602" lon="10.665294641373688"><ele>124.0</ele><time>2026-03-30T10:28:16.999Z</time></trkpt><trkpt lat="45.37265216554144" lon="10.665383882819143"><ele>124.00000000000001</ele><time>2026-03-30T10:28:17.999Z</time></trkpt><trkpt lat="45.372560820330854" lon="10.6654531981193"><ele>124.0</ele><time>2026-03-30T10:28:18.999Z</time></trkpt><trkpt lat="45.37247052102785" lon="10.665525388045923"><ele>124.0</ele><time>2026-03-30T10:28:19.999Z</time></trkpt><trkpt lat="45.372381591012" lon="10.665598902780065"><ele>124.0</ele><time>2026-03-30T10:28:20.999Z</time></trkpt><trkpt lat="45.37233067198241" lon="10.665667574044877"><ele>124.00000000000001</ele><time>2026-03-30T10:28:21.999Z</time></trkpt><trkpt lat="45.37226661884988" lon="10.6657041483694"><ele>124.0</ele><time>2026-03-30T10:28:22.999Z</time></trkpt><trkpt lat="45.37221249592355" lon="10.665789106449353"><ele>124.00000000000001</ele><time>2026-03-30T10:28:26.999Z</time></trkpt><trkpt lat="45.37224175761449" lon="10.66593506786318"><ele>124.0</ele><time>2026-03-30T10:28:28.999Z</time></trkpt><trkpt lat="45.372274930979756" lon="10.666022025656842"><ele>124.0</ele><time>2026-03-30T10:28:29.999Z</time></trkpt><trkpt lat="45.37231439794549" lon="10.666110472761128"><ele>124.0</ele><time>2026-03-30T10:28:30.999Z</time></trkpt><trkpt lat="45.37236811577408" lon="10.66621270698145"><ele>124.00000000000001</ele><time>2026-03-30T10:28:31.999Z</time></trkpt><trkpt lat="45.37243845974148" lon="10.666328339453917"><ele>124.0</ele><time>2026-03-30T10:28:32.999Z</time></trkpt><trkpt lat="45.37251029903139" lon="10.666453530883281"><ele>125.0</ele><time>2026-03-30T10:28:33.999Z</time></trkpt><trkpt lat="45.372582685528954" lon="10.666584233847836"><ele>126.0</ele><time>2026-03-30T10:28:34.999Z</time></trkpt><trkpt lat="45.37264871181528" lon="10.666716099862931"><ele>127.0</ele><time>2026-03-30T10:28:35.999Z</time></trkpt><trkpt lat="45.372717200514536" lon="10.666852361043055"><ele>128.0</ele><time>2026-03-30T10:28:36.999Z</time></trkpt><trkpt lat="45.37278800303261" lon="10.666990379137191"><ele>129.25</ele><time>2026-03-30T10:28:37.999Z</time></trkpt><trkpt lat="45.37284972393545" lon="10.667133271495404"><ele>130.5</ele><time>2026-03-30T10:28:38.999Z</time></trkpt><trkpt lat="45.37290805886262" lon="10.6672815287542"><ele>131.75</ele><time>2026-03-30T10:28:39.999Z</time></trkpt><trkpt lat="45.372965207196145" lon="10.667444523338968"><ele>133.0</ele><time>2026-03-30T10:28:40.999Z</time></trkpt><trkpt lat="45.3730192385259" lon="10.66758265516199"><ele>131.8</ele><time>2026-03-30T10:28:41.999Z</time></trkpt><trkpt lat="45.373071464190886" lon="10.667704205857799"><ele>130.60000000000002</ele><time>2026-03-30T10:28:42.999Z</time></trkpt><trkpt lat="45.37312552932667" lon="10.667810851433895"><ele>129.39999999999998</ele><time>2026-03-30T10:28:43.999Z</time></trkpt><trkpt lat="45.37317611002801" lon="10.667921116677816"><ele>128.2</ele><time>2026-03-30T10:28:44.999Z</time></trkpt><trkpt lat="45.37322313653324" lon="10.668043965259736"><ele>127.0</ele><time>2026-03-30T10:28:45.999Z</time></trkpt><trkpt lat="45.37327487648971" lon="10.668187982592098"><ele>127.0</ele><time>2026-03-30T10:28:46.999Z</time></trkpt><trkpt lat="45.373323169855844" lon="10.668344037361921"><ele>127.0</ele><time>2026-03-30T10:28:47.999Z</time></trkpt><trkpt lat="45.37336674651139" lon="10.668497310457477"><ele>127.0</ele><time>2026-03-30T10:28:48.999Z</time></trkpt><trkpt lat="45.373406625190825" lon="10.668643028368855"><ele>127.0</ele><time>2026-03-30T10:28:49.999Z</time></trkpt><trkpt lat="45.373449106847964" lon="10.668793210634622"><ele>126.25</ele><time>2026-03-30T10:28:50.999Z</time></trkpt><trkpt lat="45.37347853999997" lon="10.668946780529797"><ele>125.5</ele><time>2026-03-30T10:28:51.999Z</time></trkpt><trkpt lat="45.373499302191604" lon="10.669118242066272"><ele>124.75</ele><time>2026-03-30T10:28:52.999Z</time></trkpt><trkpt lat="45.373506463797085" lon="10.669302365680112"><ele>124.0</ele><time>2026-03-30T10:28:53.999Z</time></trkpt><trkpt lat="45.37350758218482" lon="10.6694816192628"><ele>124.0</ele><time>2026-03-30T10:28:54.999Z</time></trkpt><trkpt lat="45.373510092587786" lon="10.669655725536254"><ele>124.0</ele><time>2026-03-30T10:28:55.999Z</time></trkpt><trkpt lat="45.37351840020704" lon="10.669820043791054"><ele>124.0</ele><time>2026-03-30T10:28:56.999Z</time></trkpt><trkpt lat="45.37354930431167" lon="10.669977014501155"><ele>124.0</ele><time>2026-03-30T10:28:57.999Z</time></trkpt><trkpt lat="45.37360072097899" lon="10.670140292759806"><ele>124.0</ele><time>2026-03-30T10:28:58.999Z</time></trkpt><trkpt lat="45.37367202284904" lon="10.670315807361549"><ele>124.0</ele><time>2026-03-30T10:28:59.999Z</time></trkpt><trkpt lat="45.37375012566614" lon="10.670485734126384"><ele>124.0</ele><time>2026-03-30T10:29:00.999Z</time></trkpt><trkpt lat="45.37382538182993" lon="10.670675723134384"><ele>124.0</ele><time>2026-03-30T10:29:01.999Z</time></trkpt><trkpt lat="45.3738833194657" lon="10.670896399190053"><ele>123.66666666666667</ele><time>2026-03-30T10:29:02.999Z</time></trkpt><trkpt lat="45.373924905988666" lon="10.671128732053404"><ele>123.33333333333334</ele><time>2026-03-30T10:29:03.999Z</time></trkpt><trkpt lat="45.373953860426234" lon="10.671386860901173"><ele>123.0</ele><time>2026-03-30T10:29:04.999Z</time></trkpt><trkpt lat="45.373951396262946" lon="10.671656546853013"><ele>123.0</ele><time>2026-03-30T10:29:05.999Z</time></trkpt><trkpt lat="45.37394509099851" lon="10.671934479482427"><ele>123.0</ele><time>2026-03-30T10:29:06.999Z</time></trkpt><trkpt lat="45.373913462205934" lon="10.67222271741693"><ele>123.0</ele><time>2026-03-30T10:29:07.999Z</time></trkpt><trkpt lat="45.37387257242343" lon="10.67252475755717"><ele>122.66666666666666</ele><time>2026-03-30T10:29:08.999Z</time></trkpt><trkpt lat="45.373847328648445" lon="10.672718385516012"><ele>122.33333333333333</ele><time>2026-03-30T10:29:09.999Z</time></trkpt><trkpt lat="45.37381315941836" lon="10.672970098721411"><ele>122.0</ele><time>2026-03-30T10:29:10.999Z</time></trkpt><trkpt lat="45.373774416846324" lon="10.673218455145642"><ele>122.0</ele><time>2026-03-30T10:29:11.999Z</time></trkpt><trkpt lat="45.37372712651275" lon="10.673466717479391"><ele>122.0</ele><time>2026-03-30T10:29:12.999Z</time></trkpt><trkpt lat="45.37367086255085" lon="10.67372395276656"><ele>122.0</ele><time>2026-03-30T10:29:13.999Z</time></trkpt><trkpt lat="45.37361624208399" lon="10.673971950431717"><ele>122.33333333333333</ele><time>2026-03-30T10:29:14.999Z</time></trkpt><trkpt lat="45.37357733557566" lon="10.674212790714591"><ele>122.66666666666666</ele><time>2026-03-30T10:29:15.999Z</time></trkpt><trkpt lat="45.373528086786244" lon="10.674438214436472"><ele>123.0</ele><time>2026-03-30T10:29:16.999Z</time></trkpt><trkpt lat="45.3734802484625" lon="10.6746661757821"><ele>123.66666666666666</ele><time>2026-03-30T10:29:17.999Z</time></trkpt><trkpt lat="45.37343402730376" lon="10.674887797207008"><ele>124.33333333333333</ele><time>2026-03-30T10:29:18.999Z</time></trkpt><trkpt lat="45.37338785157299" lon="10.675113511352038"><ele>125.0</ele><time>2026-03-30T10:29:19.999Z</time></trkpt><trkpt lat="45.37333948963252" lon="10.675340126400059"><ele>125.5</ele><time>2026-03-30T10:29:20.999Z</time></trkpt><trkpt lat="45.37329145771787" lon="10.67554208414259"><ele>126.0</ele><time>2026-03-30T10:29:21.999Z</time></trkpt><trkpt lat="45.373247095532584" lon="10.675725042701112"><ele>126.5</ele><time>2026-03-30T10:29:22.999Z</time></trkpt><trkpt lat="45.373210893324" lon="10.675891525865474"><ele>127.0</ele><time>2026-03-30T10:29:23.999Z</time></trkpt><trkpt lat="45.37318719755147" lon="10.676040672339575"><ele>127.39999999999999</ele><time>2026-03-30T10:29:24.999Z</time></trkpt><trkpt lat="45.37317701088219" lon="10.676187486768006"><ele>127.79999999999998</ele><time>2026-03-30T10:29:25.999Z</time></trkpt><trkpt lat="45.37318954790581" lon="10.67631978775336"><ele>128.2</ele><time>2026-03-30T10:29:26.999Z</time></trkpt><trkpt lat="45.37319578477289" lon="10.67641238436779"><ele>128.6</ele><time>2026-03-30T10:29:27.999Z</time></trkpt><trkpt lat="45.373221477314814" lon="10.67655706115754"><ele>129.0</ele><time>2026-03-30T10:29:28.999Z</time></trkpt><trkpt lat="45.37325947820842" lon="10.676713265660178"><ele>129.0</ele><time>2026-03-30T10:29:29.998Z</time></trkpt><trkpt lat="45.37330273891383" lon="10.676843338956811"><ele>129.0</ele><time>2026-03-30T10:29:30.998Z</time></trkpt><trkpt lat="45.373380403176725" lon="10.677012832365312"><ele>129.0</ele><time>2026-03-30T10:29:31.998Z</time></trkpt><trkpt lat="45.37344710451621" lon="10.677160614041062"><ele>129.0</ele><time>2026-03-30T10:29:32.998Z</time></trkpt><trkpt lat="45.373508214089625" lon="10.677296533948082"><ele>127.75</ele><time>2026-03-30T10:29:33.998Z</time></trkpt><trkpt lat="45.37356170631303" lon="10.677445114025392"><ele>126.5</ele><time>2026-03-30T10:29:34.998Z</time></trkpt><trkpt lat="45.373612205677134" lon="10.677640197559516"><ele>125.25</ele><time>2026-03-30T10:29:35.998Z</time></trkpt><trkpt lat="45.373645842647576" lon="10.677851082666173"><ele>124.0</ele><time>2026-03-30T10:29:36.998Z</time></trkpt><trkpt lat="45.37366579812471" lon="10.678038158780819"><ele>123.75</ele><time>2026-03-30T10:29:37.998Z</time></trkpt><trkpt lat="45.373709068457345" lon="10.67821255569803"><ele>123.5</ele><time>2026-03-30T10:29:38.998Z</time></trkpt><trkpt lat="45.37377879985852" lon="10.678381949048758"><ele>123.25</ele><time>2026-03-30T10:29:39.998Z</time></trkpt><trkpt lat="45.3738702229978" lon="10.678528315645229"><ele>123.0</ele><time>2026-03-30T10:29:40.998Z</time></trkpt><trkpt lat="45.37398848841401" lon="10.678619566398542"><ele>121.33333333333334</ele><time>2026-03-30T10:29:41.998Z</time></trkpt><trkpt lat="45.374109463007485" lon="10.678678998211831"><ele>119.66666666666667</ele><time>2026-03-30T10:29:42.998Z</time></trkpt><trkpt lat="45.374251444404315" lon="10.678701391179153"><ele>118.0</ele><time>2026-03-30T10:29:44Z</time></trkpt><trkpt lat="45.374430436718896" lon="10.678682450761581"><ele>118.0</ele><time>2026-03-30T10:29:45Z</time></trkpt><trkpt lat="45.374613940069885" lon="10.678710208353573"><ele>118.0</ele><time>2026-03-30T10:29:46Z</time></trkpt><trkpt lat="45.374784017392514" lon="10.678731794092949"><ele>118.0</ele><time>2026-03-30T10:29:47Z</time></trkpt><trkpt lat="45.37498086699539" lon="10.678791964282423"><ele>117.66666666666667</ele><time>2026-03-30T10:29:48Z</time></trkpt><trkpt lat="45.37518850767168" lon="10.678875304779902"><ele>117.33333333333334</ele><time>2026-03-30T10:29:49Z</time></trkpt><trkpt lat="45.37537023287021" lon="10.678943303694512"><ele>117.0</ele><time>2026-03-30T10:29:50Z</time></trkpt><trkpt lat="45.37550651602682" lon="10.679028811058433"><ele>117.19999999999999</ele><time>2026-03-30T10:29:51Z</time></trkpt><trkpt lat="45.375592391750125" lon="10.679111563387082"><ele>117.39999999999999</ele><time>2026-03-30T10:29:52Z</time></trkpt><trkpt lat="45.37564477027455" lon="10.679214343011605"><ele>117.60000000000001</ele><time>2026-03-30T10:29:54Z</time></trkpt><trkpt lat="45.37573479854326" lon="10.679077917241232"><ele>117.80000000000001</ele><time>2026-03-30T10:29:56Z</time></trkpt><trkpt lat="45.375806169004896" lon="10.679062955710563"><ele>118.0</ele><time>2026-03-30T10:29:57Z</time></trkpt><trkpt lat="45.37589604850366" lon="10.67907282861968"><ele>118.0</ele><time>2026-03-30T10:29:58Z</time></trkpt><trkpt lat="45.37598338215277" lon="10.679073412403673"><ele>118.00000000000001</ele><time>2026-03-30T10:29:59Z</time></trkpt><trkpt lat="45.37608172339546" lon="10.679086975051232"><ele>118.00000000000001</ele><time>2026-03-30T10:30:00Z</time></trkpt><trkpt lat="45.3761654202783" lon="10.679122251183676"><ele>118.0</ele><time>2026-03-30T10:30:01Z</time></trkpt><trkpt lat="45.3762697878684" lon="10.679145528966433"><ele>118.0</ele><time>2026-03-30T10:30:02Z</time></trkpt><trkpt lat="45.37637445954651" lon="10.679162762199848"><ele>119.00000000000001</ele><time>2026-03-30T10:30:03Z</time></trkpt><trkpt lat="45.37645418647617" lon="10.679176517543725"><ele>120.0</ele><time>2026-03-30T10:30:04Z</time></trkpt><trkpt lat="45.376535958013434" lon="10.679195155523685"><ele>121.0</ele><time>2026-03-30T10:30:05Z</time></trkpt><trkpt lat="45.37662272771681" lon="10.679201739670273"><ele>122.0</ele><time>2026-03-30T10:30:06Z</time></trkpt><trkpt lat="45.37672069506874" lon="10.67921219037152"><ele>123.00000000000001</ele><time>2026-03-30T10:30:07Z</time></trkpt><trkpt lat="45.37680277154661" lon="10.679270686886134"><ele>124.0</ele><time>2026-03-30T10:30:08Z</time></trkpt><trkpt lat="45.37688734896067" lon="10.67930496658172"><ele>124.0</ele><time>2026-03-30T10:30:09Z</time></trkpt><trkpt lat="45.37695737248557" lon="10.679385837129379"><ele>124.0</ele><time>2026-03-30T10:30:10Z</time></trkpt><trkpt lat="45.37707070617704" lon="10.679296126792838"><ele>124.0</ele><time>2026-03-30T10:30:11Z</time></trkpt><trkpt lat="45.37714460396466" lon="10.679333408743668"><ele>124.0</ele><time>2026-03-30T10:30:12Z</time></trkpt><trkpt lat="45.37723451831414" lon="10.679353603750938"><ele>124.0</ele><time>2026-03-30T10:30:14Z</time></trkpt><trkpt lat="45.377283396754905" lon="10.67925239650316"><ele>123.83333333333334</ele><time>2026-03-30T10:30:16Z</time></trkpt><trkpt lat="45.377289988610514" lon="10.679080773536702"><ele>123.66666666666667</ele><time>2026-03-30T10:30:18Z</time></trkpt><trkpt lat="45.37729668654631" lon="10.678977464945204"><ele>123.5</ele><time>2026-03-30T10:30:19Z</time></trkpt><trkpt lat="45.377288960735065" lon="10.678870426374452"><ele>123.33333333333334</ele><time>2026-03-30T10:30:20Z</time></trkpt><trkpt lat="45.37726652922171" lon="10.678768361997141"><ele>123.16666666666667</ele><time>2026-03-30T10:30:21Z</time></trkpt><trkpt lat="45.37725162898085" lon="10.678649831800303"><ele>123.0</ele><time>2026-03-30T10:30:22Z</time></trkpt><trkpt lat="45.37724916770423" lon="10.678534019593084"><ele>124.2</ele><time>2026-03-30T10:30:23Z</time></trkpt><trkpt lat="45.377250027499485" lon="10.678386169542916"><ele>125.4</ele><time>2026-03-30T10:30:24.999Z</time></trkpt><trkpt lat="45.377298660760765" lon="10.678255807043175"><ele>126.60000000000001</ele><time>2026-03-30T10:30:26.999Z</time></trkpt><trkpt lat="45.37739209206189" lon="10.67816544966973"><ele>127.80000000000001</ele><time>2026-03-30T10:30:28.999Z</time></trkpt><trkpt lat="45.37746807032884" lon="10.678115406582883"><ele>129.0</ele><time>2026-03-30T10:30:30.999Z</time></trkpt><trkpt lat="45.377555325340765" lon="10.678063106802567"><ele>129.0</ele><time>2026-03-30T10:30:32.999Z</time></trkpt><trkpt lat="45.37760310899516" lon="10.67799704386631"><ele>129.0</ele><time>2026-03-30T10:30:33.999Z</time></trkpt><trkpt lat="45.37764144615887" lon="10.67790529673869"><ele>129.0</ele><time>2026-03-30T10:30:34.999Z</time></trkpt><trkpt lat="45.37769264931231" lon="10.677789057513312"><ele>129.0</ele><time>2026-03-30T10:30:35.999Z</time></trkpt><trkpt lat="45.377768660566815" lon="10.677639899983204"><ele>129.0</ele><time>2026-03-30T10:30:36.999Z</time></trkpt><trkpt lat="45.37784274159887" lon="10.677498969713605"><ele>129.0</ele><time>2026-03-30T10:30:37.999Z</time></trkpt><trkpt lat="45.3779209247029" lon="10.67735127591167"><ele>129.0</ele><time>2026-03-30T10:30:38.999Z</time></trkpt><trkpt lat="45.37801301503626" lon="10.67717095255637"><ele>129.0</ele><time>2026-03-30T10:30:39.999Z</time></trkpt><trkpt lat="45.37810535509539" lon="10.67699708293401"><ele>129.0</ele><time>2026-03-30T10:30:40.999Z</time></trkpt><trkpt lat="45.37818091065622" lon="10.676834022408995"><ele>129.0</ele><time>2026-03-30T10:30:41.999Z</time></trkpt><trkpt lat="45.37824763664948" lon="10.676700987912813"><ele>129.0</ele><time>2026-03-30T10:30:42.999Z</time></trkpt><trkpt lat="45.378329941854055" lon="10.676605498657036"><ele>129.0</ele><time>2026-03-30T10:30:43.999Z</time></trkpt><trkpt lat="45.37839027353831" lon="10.676519735119905"><ele>129.0</ele><time>2026-03-30T10:30:44.999Z</time></trkpt><trkpt lat="45.37845833059764" lon="10.676450839050503"><ele>129.0</ele><time>2026-03-30T10:30:45.999Z</time></trkpt><trkpt lat="45.37853508761702" lon="10.676407663456175"><ele>129.0</ele><time>2026-03-30T10:30:46.999Z</time></trkpt><trkpt lat="45.37862050424651" lon="10.67635040771912"><ele>129.0</ele><time>2026-03-30T10:30:47.999Z</time></trkpt><trkpt lat="45.378705643485226" lon="10.676313885743005"><ele>129.0</ele><time>2026-03-30T10:30:48.999Z</time></trkpt><trkpt lat="45.37878691774119" lon="10.676249865356581"><ele>129.0</ele><time>2026-03-30T10:30:49.999Z</time></trkpt><trkpt lat="45.37886670483514" lon="10.67617583339579"><ele>129.0</ele><time>2026-03-30T10:30:50.999Z</time></trkpt><trkpt lat="45.378925602196894" lon="10.676090321143747"><ele>128.5</ele><time>2026-03-30T10:30:51.999Z</time></trkpt><trkpt lat="45.37898177814429" lon="10.676012052669757"><ele>128.0</ele><time>2026-03-30T10:30:52.999Z</time></trkpt><trkpt lat="45.37903348459966" lon="10.675948929297082"><ele>127.5</ele><time>2026-03-30T10:30:53.999Z</time></trkpt><trkpt lat="45.379111828528934" lon="10.675845998889804"><ele>127.0</ele><time>2026-03-30T10:30:55.999Z</time></trkpt><trkpt lat="45.379139201686726" lon="10.675749693355549"><ele>126.5</ele><time>2026-03-30T10:30:57.999Z</time></trkpt><trkpt lat="45.37922765298677" lon="10.675719055488127"><ele>126.0</ele><time>2026-03-30T10:31:01.999Z</time></trkpt><trkpt lat="45.37930680015113" lon="10.675750792679828"><ele>126.0</ele><time>2026-03-30T10:31:02.999Z</time></trkpt><trkpt lat="45.37939132740141" lon="10.675822258338695"><ele>126.0</ele><time>2026-03-30T10:31:03.999Z</time></trkpt><trkpt lat="45.3794977574728" lon="10.67589027874469"><ele>126.0</ele><time>2026-03-30T10:31:04.999Z</time></trkpt><trkpt lat="45.37960919210149" lon="10.675949423948925"><ele>126.0</ele><time>2026-03-30T10:31:05.999Z</time></trkpt><trkpt lat="45.37971700761796" lon="10.675989112299288"><ele>126.0</ele><time>2026-03-30T10:31:06.999Z</time></trkpt><trkpt lat="45.379805413919364" lon="10.676009799086646"><ele>125.66666666666667</ele><time>2026-03-30T10:31:07.999Z</time></trkpt><trkpt lat="45.37989886652012" lon="10.676025711844284"><ele>125.33333333333334</ele><time>2026-03-30T10:31:08.999Z</time></trkpt><trkpt lat="45.37998087774036" lon="10.676048495342835"><ele>125.0</ele><time>2026-03-30T10:31:09.999Z</time></trkpt><trkpt lat="45.38004821364577" lon="10.67607604576534"><ele>124.66666666666667</ele><time>2026-03-30T10:31:10.999Z</time></trkpt><trkpt lat="45.3801115811035" lon="10.676104791920029"><ele>124.33333333333334</ele><time>2026-03-30T10:31:11.999Z</time></trkpt><trkpt lat="45.380213657332774" lon="10.676156812638755"><ele>124.0</ele><time>2026-03-30T10:31:13.999Z</time></trkpt><trkpt lat="45.380300848841216" lon="10.676134805269017"><ele>124.0</ele><time>2026-03-30T10:31:17.999Z</time></trkpt><trkpt lat="45.38035636729847" lon="10.67595539289774"><ele>124.0</ele><time>2026-03-30T10:31:19.999Z</time></trkpt><trkpt lat="45.3803632070756" lon="10.675824392468108"><ele>124.0</ele><time>2026-03-30T10:31:20.999Z</time></trkpt><trkpt lat="45.38038104751082" lon="10.675722664060835"><ele>124.0</ele><time>2026-03-30T10:31:21.999Z</time></trkpt><trkpt lat="45.38042506498236" lon="10.67560786617393"><ele>124.0</ele><time>2026-03-30T10:31:22.999Z</time></trkpt><trkpt lat="45.38046653985913" lon="10.675475288101937"><ele>124.0</ele><time>2026-03-30T10:31:23.999Z</time></trkpt><trkpt lat="45.38050674767537" lon="10.675329427844385"><ele>124.0</ele><time>2026-03-30T10:31:24.999Z</time></trkpt><trkpt lat="45.380544010905346" lon="10.675181258764493"><ele>124.0</ele><time>2026-03-30T10:31:25.999Z</time></trkpt><trkpt lat="45.38058260545701" lon="10.675033779322916"><ele>124.0</ele><time>2026-03-30T10:31:26.999Z</time></trkpt><trkpt lat="45.38061743730835" lon="10.674881458210722"><ele>124.0</ele><time>2026-03-30T10:31:27.999Z</time></trkpt><trkpt lat="45.380646522872084" lon="10.674722217881774"><ele>123.5</ele><time>2026-03-30T10:31:28.999Z</time></trkpt><trkpt lat="45.38067134573778" lon="10.674558855919127"><ele>123.0</ele><time>2026-03-30T10:31:29.999Z</time></trkpt><trkpt lat="45.38069252734259" lon="10.674403424257333"><ele>122.5</ele><time>2026-03-30T10:31:30.999Z</time></trkpt><trkpt lat="45.3807233673376" lon="10.674247117025837"><ele>122.0</ele><time>2026-03-30T10:31:31.999Z</time></trkpt><trkpt lat="45.38075680300208" lon="10.6740705490774"><ele>123.5</ele><time>2026-03-30T10:31:32.999Z</time></trkpt><trkpt lat="45.380787428911965" lon="10.673906802083158"><ele>125.0</ele><time>2026-03-30T10:31:33.999Z</time></trkpt><trkpt lat="45.380828173657065" lon="10.673749844147315"><ele>126.5</ele><time>2026-03-30T10:31:34.999Z</time></trkpt><trkpt lat="45.3808791360417" lon="10.673592399614213"><ele>128.0</ele><time>2026-03-30T10:31:35.999Z</time></trkpt><trkpt lat="45.38093266979305" lon="10.67343288798689"><ele>129.25</ele><time>2026-03-30T10:31:36.999Z</time></trkpt><trkpt lat="45.38098907202226" lon="10.673263808081982"><ele>130.5</ele><time>2026-03-30T10:31:37.998Z</time></trkpt><trkpt lat="45.381050404471914" lon="10.673094392139502"><ele>131.75</ele><time>2026-03-30T10:31:38.998Z</time></trkpt><trkpt lat="45.38110378086027" lon="10.672930789728643"><ele>133.0</ele><time>2026-03-30T10:31:39.998Z</time></trkpt><trkpt lat="45.38114908022414" lon="10.67274194763232"><ele>133.25</ele><time>2026-03-30T10:31:40.998Z</time></trkpt><trkpt lat="45.381184670655365" lon="10.672547226761965"><ele>133.5</ele><time>2026-03-30T10:31:41.998Z</time></trkpt><trkpt lat="45.38120855179649" lon="10.672361001105626"><ele>133.75</ele><time>2026-03-30T10:31:42.998Z</time></trkpt><trkpt lat="45.381210466112215" lon="10.672159996701266"><ele>134.0</ele><time>2026-03-30T10:31:43.998Z</time></trkpt><trkpt lat="45.38120988466864" lon="10.67194906864657"><ele>134.0</ele><time>2026-03-30T10:31:44.998Z</time></trkpt><trkpt lat="45.3812101366638" lon="10.671718953472555"><ele>134.0</ele><time>2026-03-30T10:31:45.998Z</time></trkpt><trkpt lat="45.38122277465526" lon="10.671489527820937"><ele>134.0</ele><time>2026-03-30T10:31:46.998Z</time></trkpt><trkpt lat="45.38124531171114" lon="10.671266800465226"><ele>132.5</ele><time>2026-03-30T10:31:47.998Z</time></trkpt><trkpt lat="45.38126380580559" lon="10.671054812742574"><ele>131.0</ele><time>2026-03-30T10:31:48.998Z</time></trkpt><trkpt lat="45.38127338037488" lon="10.670867590601196"><ele>129.5</ele><time>2026-03-30T10:31:50Z</time></trkpt><trkpt lat="45.38127257791656" lon="10.670693999461408"><ele>128.0</ele><time>2026-03-30T10:31:51Z</time></trkpt><trkpt lat="45.38127368189006" lon="10.67054042538202"><ele>128.0</ele><time>2026-03-30T10:31:52Z</time></trkpt><trkpt lat="45.38129237587119" lon="10.670390725911785"><ele>128.0</ele><time>2026-03-30T10:31:53Z</time></trkpt><trkpt lat="45.38133069124243" lon="10.670246100492939"><ele>128.0</ele><time>2026-03-30T10:31:54Z</time></trkpt><trkpt lat="45.38139217085004" lon="10.670092963802706"><ele>128.0</ele><time>2026-03-30T10:31:55Z</time></trkpt><trkpt lat="45.381485817468175" lon="10.669922498047212"><ele>128.0</ele><time>2026-03-30T10:31:56Z</time></trkpt><trkpt lat="45.38159440199313" lon="10.66974321537651"><ele>128.0</ele><time>2026-03-30T10:31:57Z</time></trkpt><trkpt lat="45.381704375250564" lon="10.669567059160869"><ele>128.0</ele><time>2026-03-30T10:31:58Z</time></trkpt><trkpt lat="45.38180874137184" lon="10.669396686748508"><ele>128.25</ele><time>2026-03-30T10:31:59Z</time></trkpt><trkpt lat="45.38189663384513" lon="10.669245614537205"><ele>128.5</ele><time>2026-03-30T10:32:00Z</time></trkpt><trkpt lat="45.381965330418595" lon="10.669098000200869"><ele>128.75</ele><time>2026-03-30T10:32:01Z</time></trkpt><trkpt lat="45.382018037932305" lon="10.668949050801308"><ele>129.0</ele><time>2026-03-30T10:32:02Z</time></trkpt><trkpt lat="45.382054964883054" lon="10.668797456990632"><ele>129.0</ele><time>2026-03-30T10:32:03Z</time></trkpt><trkpt lat="45.38209103600521" lon="10.6686136430681"><ele>129.0</ele><time>2026-03-30T10:32:04Z</time></trkpt><trkpt lat="45.38213241762206" lon="10.66841599191931"><ele>129.0</ele><time>2026-03-30T10:32:05Z</time></trkpt><trkpt lat="45.382174583565885" lon="10.66823243226427"><ele>129.0</ele><time>2026-03-30T10:32:06Z</time></trkpt><trkpt lat="45.38220978932784" lon="10.668069418807033"><ele>129.8</ele><time>2026-03-30T10:32:07Z</time></trkpt><trkpt lat="45.38223787502175" lon="10.667936304447476"><ele>130.60000000000002</ele><time>2026-03-30T10:32:08Z</time></trkpt><trkpt lat="45.3822569372929" lon="10.667834979353403"><ele>131.4</ele><time>2026-03-30T10:32:09Z</time></trkpt><trkpt lat="45.38230549430329" lon="10.667735332591436"><ele>132.20000000000002</ele><time>2026-03-30T10:32:11Z</time></trkpt><trkpt lat="45.38241308108117" lon="10.667765811206582"><ele>133.0</ele><time>2026-03-30T10:32:13Z</time></trkpt><trkpt lat="45.3825511207883" lon="10.667812217791724"><ele>133.0</ele><time>2026-03-30T10:32:15Z</time></trkpt><trkpt lat="45.3826336878395" lon="10.667848772771253"><ele>133.0</ele><time>2026-03-30T10:32:16Z</time></trkpt><trkpt lat="45.382711408791685" lon="10.667907428218614"><ele>133.0</ele><time>2026-03-30T10:32:17Z</time></trkpt><trkpt lat="45.38281245229425" lon="10.66793938706373"><ele>133.0</ele><time>2026-03-30T10:32:18Z</time></trkpt><trkpt lat="45.382895666753846" lon="10.66798484768394"><ele>133.0</ele><time>2026-03-30T10:32:19Z</time></trkpt><trkpt lat="45.38296742624898" lon="10.668025983440774"><ele>133.0</ele><time>2026-03-30T10:32:20Z</time></trkpt><trkpt lat="45.38308910607205" lon="10.668067163348892"><ele>134.0</ele><time>2026-03-30T10:32:22Z</time></trkpt><trkpt lat="45.38317183880537" lon="10.66806117072862"><ele>135.0</ele><time>2026-03-30T10:32:23Z</time></trkpt><trkpt lat="45.38325335804175" lon="10.668062962646495"><ele>136.0</ele><time>2026-03-30T10:32:24Z</time></trkpt><trkpt lat="45.38332987649387" lon="10.668054843625915"><ele>137.0</ele><time>2026-03-30T10:32:25Z</time></trkpt><trkpt lat="45.38339335807082" lon="10.66805704303935"><ele>138.0</ele><time>2026-03-30T10:32:26Z</time></trkpt><trkpt lat="45.38352256609498" lon="10.668091590799447"><ele>139.0</ele><time>2026-03-30T10:32:28Z</time></trkpt><trkpt lat="45.383580501713055" lon="10.668141080302714"><ele>139.0</ele><time>2026-03-30T10:32:29Z</time></trkpt><trkpt lat="45.383658944976325" lon="10.668194902006697"><ele>139.0</ele><time>2026-03-30T10:32:30Z</time></trkpt><trkpt lat="45.38372866855828" lon="10.668239506974517"><ele>139.0</ele><time>2026-03-30T10:32:31Z</time></trkpt><trkpt lat="45.383809213060005" lon="10.66826445301941"><ele>139.0</ele><time>2026-03-30T10:32:32Z</time></trkpt><trkpt lat="45.38388649794795" lon="10.66828082781896"><ele>139.0</ele><time>2026-03-30T10:32:33Z</time></trkpt><trkpt lat="45.38395891936554" lon="10.6682943876386"><ele>139.0</ele><time>2026-03-30T10:32:34Z</time></trkpt><trkpt lat="45.384030896609154" lon="10.66830452632039"><ele>138.8</ele><time>2026-03-30T10:32:35Z</time></trkpt><trkpt lat="45.38409811354162" lon="10.668318195647403"><ele>138.60000000000002</ele><time>2026-03-30T10:32:36Z</time></trkpt><trkpt lat="45.38416254829283" lon="10.668405802047099"><ele>138.4</ele><time>2026-03-30T10:32:37.999Z</time></trkpt><trkpt lat="45.38415449189829" lon="10.668541756726402"><ele>138.20000000000002</ele><time>2026-03-30T10:32:39.999Z</time></trkpt><trkpt lat="45.384176142913496" lon="10.668762840351043"><ele>138.0</ele><time>2026-03-30T10:32:41.999Z</time></trkpt><trkpt lat="45.38423723128651" lon="10.668868076783696"><ele>138.0</ele><time>2026-03-30T10:32:42.999Z</time></trkpt><trkpt lat="45.38432476806411" lon="10.668974258522335"><ele>138.0</ele><time>2026-03-30T10:32:44.999Z</time></trkpt><trkpt lat="45.384381286716554" lon="10.669037521207384"><ele>138.0</ele><time>2026-03-30T10:32:45.999Z</time></trkpt><trkpt lat="45.38444203710033" lon="10.66910284587313"><ele>138.0</ele><time>2026-03-30T10:32:46.999Z</time></trkpt><trkpt lat="45.384532698942735" lon="10.669185374045279"><ele>138.0</ele><time>2026-03-30T10:32:48.999Z</time></trkpt><trkpt lat="45.384633120559386" lon="10.669276400725554"><ele>134.66666666666666</ele><time>2026-03-30T10:32:50.999Z</time></trkpt><trkpt lat="45.38471673579883" lon="10.669369125907485"><ele>131.33333333333331</ele><time>2026-03-30T10:32:52.999Z</time></trkpt><trkpt lat="45.38477570750123" lon="10.669431347685906"><ele>128.0</ele><time>2026-03-30T10:32:53.999Z</time></trkpt><trkpt lat="45.38513196421609" lon="10.668927364252633"><ele>127.99999999999999</ele><time>2026-03-30T10:32:54.999Z</time></trkpt><trkpt lat="45.385204302444244" lon="10.668956138658478"><ele>128.0</ele><time>2026-03-30T10:32:55.999Z</time></trkpt><trkpt lat="45.38527279558205" lon="10.668977180330451"><ele>128.0</ele><time>2026-03-30T10:32:56.999Z</time></trkpt><trkpt lat="45.38533869443727" lon="10.669008293788956"><ele>128.0</ele><time>2026-03-30T10:32:57.999Z</time></trkpt><trkpt lat="45.38543970739571" lon="10.669040906753999"><ele>127.99999999999999</ele><time>2026-03-30T10:32:59.999Z</time></trkpt><trkpt lat="45.38552475120542" lon="10.669091537017035"><ele>128.0</ele><time>2026-03-30T10:33:01.999Z</time></trkpt><trkpt lat="45.385552668171556" lon="10.669194590746342"><ele>127.2</ele><time>2026-03-30T10:33:05.999Z</time></trkpt><trkpt lat="45.38555191741051" lon="10.669323216620446"><ele>126.4</ele><time>2026-03-30T10:33:08.999Z</time></trkpt><trkpt lat="45.38553804556259" lon="10.669485132267901"><ele>125.60000000000001</ele><time>2026-03-30T10:33:10.999Z</time></trkpt><trkpt lat="45.3855213914974" lon="10.669619431674016"><ele>124.80000000000001</ele><time>2026-03-30T10:33:12.999Z</time></trkpt><trkpt lat="45.38551755164185" lon="10.66972006046441"><ele>124.0</ele><time>2026-03-30T10:33:14.999Z</time></trkpt><trkpt lat="45.38551140856371" lon="10.669860352180116"><ele>124.0</ele><time>2026-03-30T10:33:17.999Z</time></trkpt><trkpt lat="45.38546651451844" lon="10.669986307455808"><ele>124.0</ele><time>2026-03-30T10:33:19.999Z</time></trkpt><trkpt lat="45.38544194596992" lon="10.670073590921104"><ele>124.0</ele><time>2026-03-30T10:33:20.999Z</time></trkpt><trkpt lat="45.385406702782106" lon="10.670228044092596"><ele>124.0</ele><time>2026-03-30T10:33:22.999Z</time></trkpt><trkpt lat="45.38537354065522" lon="10.670379028960742"><ele>124.0</ele><time>2026-03-30T10:33:24.999Z</time></trkpt><trkpt lat="45.385350262855056" lon="10.670516066373985"><ele>121.66666666666667</ele><time>2026-03-30T10:33:26.999Z</time></trkpt><trkpt lat="45.38530595490855" lon="10.670659442340726"><ele>119.33333333333334</ele><time>2026-03-30T10:33:28.999Z</time></trkpt><trkpt lat="45.38525259828117" lon="10.67080302122358"><ele>117.0</ele><time>2026-03-30T10:33:30.999Z</time></trkpt><trkpt lat="45.385218787144794" lon="10.670879354538766"><ele>114.66666666666666</ele><time>2026-03-30T10:33:31.999Z</time></trkpt><trkpt lat="45.38517368450814" lon="10.67095053107069"><ele>112.33333333333333</ele><time>2026-03-30T10:33:32.999Z</time></trkpt><trkpt lat="45.385122567728956" lon="10.671014733097302"><ele>110.0</ele><time>2026-03-30T10:33:33.999Z</time></trkpt><trkpt lat="45.38505445385443" lon="10.671148970395043"><ele>107.6</ele><time>2026-03-30T10:33:35.999Z</time></trkpt><trkpt lat="45.38501270998812" lon="10.671293265663014"><ele>105.2</ele><time>2026-03-30T10:33:37.999Z</time></trkpt><trkpt lat="45.38495535139747" lon="10.671414302953787"><ele>102.80000000000001</ele><time>2026-03-30T10:33:39.999Z</time></trkpt><trkpt lat="45.38491381988851" lon="10.67149990024036"><ele>100.4</ele><time>2026-03-30T10:33:41.999Z</time></trkpt><trkpt lat="45.38487705765414" lon="10.6716298783905"><ele>98.0</ele><time>2026-03-30T10:33:44.999Z</time></trkpt><trkpt lat="45.38487747889531" lon="10.671725144215074"><ele>97.99999999999999</ele><time>2026-03-30T10:33:46.999Z</time></trkpt><trkpt lat="45.384930792249854" lon="10.671783929248317"><ele>98.0</ele><time>2026-03-30T10:33:48.999Z</time></trkpt><trkpt lat="45.38507048578904" lon="10.671859263800643"><ele>98.0</ele><time>2026-03-30T10:33:50.999Z</time></trkpt><trkpt lat="45.385149613723144" lon="10.671889272621835"><ele>98.0</ele><time>2026-03-30T10:33:51.998Z</time></trkpt><trkpt lat="45.3852025270891" lon="10.671955467856709"><ele>97.99999999999999</ele><time>2026-03-30T10:33:52.998Z</time></trkpt><trkpt lat="45.385263601515206" lon="10.672015054570874"><ele>98.0</ele><time>2026-03-30T10:33:53.998Z</time></trkpt><trkpt lat="45.38532713329974" lon="10.672058738834005"><ele>96.2</ele><time>2026-03-30T10:33:55Z</time></trkpt><trkpt lat="45.38538519063602" lon="10.672095793710827"><ele>94.4</ele><time>2026-03-30T10:33:56Z</time></trkpt><trkpt lat="45.38547972752775" lon="10.672195786173369"><ele>92.60000000000001</ele><time>2026-03-30T10:33:58Z</time></trkpt><trkpt lat="45.38550989205347" lon="10.6723034205524"><ele>90.80000000000001</ele><time>2026-03-30T10:33:59Z</time></trkpt><trkpt lat="45.385553050783614" lon="10.672413772435894"><ele>89.0</ele><time>2026-03-30T10:34:00Z</time></trkpt><trkpt lat="45.385615257159" lon="10.672533499767233"><ele>88.80000000000001</ele><time>2026-03-30T10:34:01Z</time></trkpt><trkpt lat="45.38567934367017" lon="10.672626708531409"><ele>88.60000000000001</ele><time>2026-03-30T10:34:02Z</time></trkpt><trkpt lat="45.385753540229956" lon="10.6726864654112"><ele>88.4</ele><time>2026-03-30T10:34:03Z</time></trkpt><trkpt lat="45.38584156017917" lon="10.672768852835919"><ele>88.2</ele><time>2026-03-30T10:34:04Z</time></trkpt><trkpt lat="45.385912827826544" lon="10.672844752928542"><ele>88.0</ele><time>2026-03-30T10:34:05Z</time></trkpt><trkpt lat="45.38598246795008" lon="10.67291926225508"><ele>89.0</ele><time>2026-03-30T10:34:06Z</time></trkpt><trkpt lat="45.38606941226916" lon="10.673023919374694"><ele>90.0</ele><time>2026-03-30T10:34:07Z</time></trkpt><trkpt lat="45.38614262528235" lon="10.673147248084279"><ele>91.0</ele><time>2026-03-30T10:34:08Z</time></trkpt><trkpt lat="45.38620640041062" lon="10.673257538185332"><ele>92.0</ele><time>2026-03-30T10:34:09Z</time></trkpt><trkpt lat="45.386255924031374" lon="10.673348263576075"><ele>93.0</ele><time>2026-03-30T10:34:10Z</time></trkpt><trkpt lat="45.386297826869026" lon="10.673435659589655"><ele>93.0</ele><time>2026-03-30T10:34:11Z</time></trkpt><trkpt lat="45.386322110160194" lon="10.673545771754034"><ele>93.0</ele><time>2026-03-30T10:34:12Z</time></trkpt><trkpt lat="45.386345258097165" lon="10.67368301001661"><ele>93.0</ele><time>2026-03-30T10:34:13Z</time></trkpt><trkpt lat="45.38636612625694" lon="10.673827072508823"><ele>93.0</ele><time>2026-03-30T10:34:14Z</time></trkpt><trkpt lat="45.38637817990475" lon="10.673956912908304"><ele>93.0</ele><time>2026-03-30T10:34:15Z</time></trkpt><trkpt lat="45.38639815592591" lon="10.674087371845472"><ele>91.2</ele><time>2026-03-30T10:34:16Z</time></trkpt><trkpt lat="45.38640201613822" lon="10.674197998912762"><ele>89.4</ele><time>2026-03-30T10:34:17Z</time></trkpt><trkpt lat="45.38641193637048" lon="10.674304763981457"><ele>87.60000000000001</ele><time>2026-03-30T10:34:18Z</time></trkpt><trkpt lat="45.386423289554564" lon="10.674433343074892"><ele>85.80000000000001</ele><time>2026-03-30T10:34:19Z</time></trkpt><trkpt lat="45.386408359456915" lon="10.674571792622993"><ele>84.0</ele><time>2026-03-30T10:34:20Z</time></trkpt><trkpt lat="45.386407744379156" lon="10.674759534274802"><ele>84.0</ele><time>2026-03-30T10:34:21Z</time></trkpt><trkpt lat="45.38641333777031" lon="10.674950789488662"><ele>84.0</ele><time>2026-03-30T10:34:22Z</time></trkpt><trkpt lat="45.386459812987596" lon="10.675125075527482"><ele>84.0</ele><time>2026-03-30T10:34:23Z</time></trkpt><trkpt lat="45.3865268971135" lon="10.675296938531254"><ele>84.0</ele><time>2026-03-30T10:34:24Z</time></trkpt><trkpt lat="45.38661736327573" lon="10.675505725469774"><ele>84.0</ele><time>2026-03-30T10:34:25Z</time></trkpt><trkpt lat="45.38668478718954" lon="10.675716352297254"><ele>84.0</ele><time>2026-03-30T10:34:26Z</time></trkpt><trkpt lat="45.38673155063269" lon="10.675888322228616"><ele>84.0</ele><time>2026-03-30T10:34:27Z</time></trkpt><trkpt lat="45.3867438071599" lon="10.67604247957315"><ele>84.0</ele><time>2026-03-30T10:34:28Z</time></trkpt><trkpt lat="45.38678868299475" lon="10.676163702118425"><ele>85.0</ele><time>2026-03-30T10:34:29Z</time></trkpt><trkpt lat="45.38681116906003" lon="10.676345160510795"><ele>86.0</ele><time>2026-03-30T10:34:30Z</time></trkpt><trkpt lat="45.38684482095985" lon="10.676561561118762"><ele>87.0</ele><time>2026-03-30T10:34:31Z</time></trkpt><trkpt lat="45.38687949110356" lon="10.676789652329552"><ele>88.0</ele><time>2026-03-30T10:34:32Z</time></trkpt><trkpt lat="45.386912578034256" lon="10.677005373486852"><ele>88.25</ele><time>2026-03-30T10:34:33Z</time></trkpt><trkpt lat="45.38694131203239" lon="10.67719313164612"><ele>88.5</ele><time>2026-03-30T10:34:34Z</time></trkpt><trkpt lat="45.38695895594442" lon="10.6773620972899"><ele>88.75</ele><time>2026-03-30T10:34:35Z</time></trkpt><trkpt lat="45.3869638849008" lon="10.677516312465974"><ele>89.0</ele><time>2026-03-30T10:34:36Z</time></trkpt><trkpt lat="45.386963011547934" lon="10.67765315651258"><ele>88.2</ele><time>2026-03-30T10:34:37Z</time></trkpt><trkpt lat="45.3869608339433" lon="10.67778213905018"><ele>87.4</ele><time>2026-03-30T10:34:38Z</time></trkpt><trkpt lat="45.38696806101424" lon="10.67789748294631"><ele>86.6</ele><time>2026-03-30T10:34:39Z</time></trkpt><trkpt lat="45.386998177237935" lon="10.677996814019544"><ele>85.8</ele><time>2026-03-30T10:34:40Z</time></trkpt><trkpt lat="45.38706102271906" lon="10.678067004851885"><ele>85.0</ele><time>2026-03-30T10:34:41Z</time></trkpt><trkpt lat="45.38714238807526" lon="10.678212163549043"><ele>85.0</ele><time>2026-03-30T10:34:43Z</time></trkpt><trkpt lat="45.38720535197704" lon="10.678320834881882"><ele>85.0</ele><time>2026-03-30T10:34:44Z</time></trkpt><trkpt lat="45.38728805132262" lon="10.678427690450368"><ele>85.0</ele><time>2026-03-30T10:34:45Z</time></trkpt><trkpt lat="45.3873652737713" lon="10.678525788495758"><ele>85.0</ele><time>2026-03-30T10:34:46Z</time></trkpt><trkpt lat="45.38743914174867" lon="10.678607873210478"><ele>85.0</ele><time>2026-03-30T10:34:46.999Z</time></trkpt><trkpt lat="45.387502103415684" lon="10.678679022596489"><ele>85.0</ele><time>2026-03-30T10:34:47.999Z</time></trkpt><trkpt lat="45.38755703929119" lon="10.678750116340417"><ele>85.0</ele><time>2026-03-30T10:34:48.999Z</time></trkpt><trkpt lat="45.38761085195518" lon="10.678818716665065"><ele>85.0</ele><time>2026-03-30T10:34:49.999Z</time></trkpt><trkpt lat="45.387656926516684" lon="10.678885572632668"><ele>85.0</ele><time>2026-03-30T10:34:50.999Z</time></trkpt><trkpt lat="45.3877616176082" lon="10.679034621499127"><ele>85.0</ele><time>2026-03-30T10:34:52.999Z</time></trkpt><trkpt lat="45.38781671862444" lon="10.6791219516451"><ele>85.0</ele><time>2026-03-30T10:34:53.999Z</time></trkpt><trkpt lat="45.387860458396545" lon="10.679201766401981"><ele>85.0</ele><time>2026-03-30T10:34:54.999Z</time></trkpt><trkpt lat="45.38790960697397" lon="10.679319684939735"><ele>85.0</ele><time>2026-03-30T10:34:56.999Z</time></trkpt><trkpt lat="45.388015606887585" lon="10.6792370582914"><ele>85.0</ele><time>2026-03-30T10:35:00.999Z</time></trkpt><trkpt lat="45.38805223726531" lon="10.679111392383989"><ele>85.0</ele><time>2026-03-30T10:35:01.999Z</time></trkpt><trkpt lat="45.38811577844517" lon="10.678943716919685"><ele>85.0</ele><time>2026-03-30T10:35:02.999Z</time></trkpt><trkpt lat="45.38821696692286" lon="10.678753075722078"><ele>86.33333333333333</ele><time>2026-03-30T10:35:03.999Z</time></trkpt><trkpt lat="45.38834843141539" lon="10.678567931472157"><ele>87.66666666666667</ele><time>2026-03-30T10:35:04.999Z</time></trkpt><trkpt lat="45.38849911143648" lon="10.678398115557027"><ele>89.0</ele><time>2026-03-30T10:35:05.999Z</time></trkpt><trkpt lat="45.38867609660768" lon="10.678213307894568"><ele>89.33333333333334</ele><time>2026-03-30T10:35:06.999Z</time></trkpt><trkpt lat="45.38885652893028" lon="10.678040133265307"><ele>89.66666666666667</ele><time>2026-03-30T10:35:07.999Z</time></trkpt><trkpt lat="45.38903411748011" lon="10.677866374804116"><ele>90.0</ele><time>2026-03-30T10:35:08.999Z</time></trkpt><trkpt lat="45.38919793604641" lon="10.677692399945645"><ele>90.0</ele><time>2026-03-30T10:35:09.999Z</time></trkpt><trkpt lat="45.389352055556934" lon="10.67753439836052"><ele>90.0</ele><time>2026-03-30T10:35:10.999Z</time></trkpt><trkpt lat="45.3895053524507" lon="10.6773839144032"><ele>90.0</ele><time>2026-03-30T10:35:11.999Z</time></trkpt><trkpt lat="45.38964525581516" lon="10.677241335854749"><ele>91.0</ele><time>2026-03-30T10:35:12.999Z</time></trkpt><trkpt lat="45.38977762033938" lon="10.677104326620968"><ele>92.0</ele><time>2026-03-30T10:35:13.999Z</time></trkpt><trkpt lat="45.38992341372074" lon="10.676978142398486"><ele>93.0</ele><time>2026-03-30T10:35:14.999Z</time></trkpt><trkpt lat="45.39008957717448" lon="10.676872930440597"><ele>93.33333333333333</ele><time>2026-03-30T10:35:15.999Z</time></trkpt><trkpt lat="45.390244871252584" lon="10.676778153892739"><ele>93.66666666666666</ele><time>2026-03-30T10:35:16.999Z</time></trkpt><trkpt lat="45.39039064375553" lon="10.676687275123736"><ele>94.0</ele><time>2026-03-30T10:35:17.999Z</time></trkpt><trkpt lat="45.39052134134559" lon="10.676604095764516"><ele>94.0</ele><time>2026-03-30T10:35:18.999Z</time></trkpt><trkpt lat="45.39065273265083" lon="10.676504510126614"><ele>94.0</ele><time>2026-03-30T10:35:19.999Z</time></trkpt><trkpt lat="45.390774919126734" lon="10.676383827102423"><ele>94.0</ele><time>2026-03-30T10:35:20.999Z</time></trkpt><trkpt lat="45.390888818749055" lon="10.676248695183315"><ele>94.0</ele><time>2026-03-30T10:35:21.999Z</time></trkpt><trkpt lat="45.390988081785224" lon="10.676095294705558"><ele>92.66666666666666</ele><time>2026-03-30T10:35:22.999Z</time></trkpt><trkpt lat="45.39108394147237" lon="10.675924391001672"><ele>91.33333333333333</ele><time>2026-03-30T10:35:23.999Z</time></trkpt><trkpt lat="45.39118682961593" lon="10.675740120956918"><ele>90.0</ele><time>2026-03-30T10:35:24.999Z</time></trkpt><trkpt lat="45.39128692486084" lon="10.675551265543104"><ele>92.0</ele><time>2026-03-30T10:35:25.999Z</time></trkpt><trkpt lat="45.3913819106591" lon="10.675373330529156"><ele>94.0</ele><time>2026-03-30T10:35:26.999Z</time></trkpt><trkpt lat="45.39146852130158" lon="10.675210822734025"><ele>96.0</ele><time>2026-03-30T10:35:27.999Z</time></trkpt><trkpt lat="45.391547786498506" lon="10.675058664523343"><ele>98.0</ele><time>2026-03-30T10:35:28.999Z</time></trkpt><trkpt lat="45.39161800812199" lon="10.674908627218876"><ele>98.0</ele><time>2026-03-30T10:35:29.999Z</time></trkpt><trkpt lat="45.3916707185451" lon="10.67475179697349"><ele>98.0</ele><time>2026-03-30T10:35:30.999Z</time></trkpt><trkpt lat="45.391717053104514" lon="10.674592657177307"><ele>98.0</ele><time>2026-03-30T10:35:31.999Z</time></trkpt><trkpt lat="45.39176583398875" lon="10.674436476858638"><ele>98.0</ele><time>2026-03-30T10:35:32.999Z</time></trkpt><trkpt lat="45.39181514449" lon="10.674287907323619"><ele>98.0</ele><time>2026-03-30T10:35:33.999Z</time></trkpt><trkpt lat="45.39186399786316" lon="10.67414438357613"><ele>98.0</ele><time>2026-03-30T10:35:34.999Z</time></trkpt><trkpt lat="45.39190531766631" lon="10.673995044364299"><ele>98.0</ele><time>2026-03-30T10:35:35.999Z</time></trkpt><trkpt lat="45.39194252266301" lon="10.673847267715775"><ele>98.0</ele><time>2026-03-30T10:35:36.999Z</time></trkpt><trkpt lat="45.39197867899047" lon="10.67369020120149"><ele>97.75</ele><time>2026-03-30T10:35:37.999Z</time></trkpt><trkpt lat="45.39199787842742" lon="10.673523668347093"><ele>97.5</ele><time>2026-03-30T10:35:38.999Z</time></trkpt><trkpt lat="45.39200307627939" lon="10.673350197195715"><ele>97.25</ele><time>2026-03-30T10:35:39.999Z</time></trkpt><trkpt lat="45.39198275441937" lon="10.67315844128222"><ele>97.0</ele><time>2026-03-30T10:35:40.999Z</time></trkpt><trkpt lat="45.39193865087589" lon="10.672955151277577"><ele>98.0</ele><time>2026-03-30T10:35:41.999Z</time></trkpt><trkpt lat="45.39188254351048" lon="10.672736378004691"><ele>99.0</ele><time>2026-03-30T10:35:42.999Z</time></trkpt><trkpt lat="45.3918231757598" lon="10.672508615067777"><ele>100.0</ele><time>2026-03-30T10:35:43.999Z</time></trkpt><trkpt lat="45.391770268383" lon="10.672269297433083"><ele>100.0</ele><time>2026-03-30T10:35:44.999Z</time></trkpt><trkpt lat="45.39175546242183" lon="10.6720058934761"><ele>100.0</ele><time>2026-03-30T10:35:45.999Z</time></trkpt><trkpt lat="45.3917446198178" lon="10.67172526220409"><ele>100.0</ele><time>2026-03-30T10:35:46.999Z</time></trkpt><trkpt lat="45.391788375610595" lon="10.671465335566799"><ele>101.0</ele><time>2026-03-30T10:35:47.999Z</time></trkpt><trkpt lat="45.39184987385485" lon="10.671229920392204"><ele>102.0</ele><time>2026-03-30T10:35:48.999Z</time></trkpt><trkpt lat="45.391923395014985" lon="10.671017346720724"><ele>103.0</ele><time>2026-03-30T10:35:49.999Z</time></trkpt><trkpt lat="45.39198604260037" lon="10.670831963302216"><ele>103.0</ele><time>2026-03-30T10:35:50.999Z</time></trkpt><trkpt lat="45.392025540321626" lon="10.670662718290076"><ele>103.0</ele><time>2026-03-30T10:35:51.999Z</time></trkpt><trkpt lat="45.392030761882786" lon="10.670521331548636"><ele>103.0</ele><time>2026-03-30T10:35:52.999Z</time></trkpt><trkpt lat="45.392020794155854" lon="10.670399051800569"><ele>103.0</ele><time>2026-03-30T10:35:53.999Z</time></trkpt><trkpt lat="45.39202271910095" lon="10.670288361229229"><ele>103.0</ele><time>2026-03-30T10:35:55.999Z</time></trkpt><trkpt lat="45.39226185068069" lon="10.670348065061152"><ele>103.66666666666667</ele><time>2026-03-30T10:36:01Z</time></trkpt><trkpt lat="45.39233783219868" lon="10.670408243714437"><ele>104.33333333333334</ele><time>2026-03-30T10:36:02Z</time></trkpt><trkpt lat="45.39243248875569" lon="10.670467787288683"><ele>105.0</ele><time>2026-03-30T10:36:03Z</time></trkpt><trkpt lat="45.39250851311351" lon="10.67051381812571"><ele>105.66666666666666</ele><time>2026-03-30T10:36:04Z</time></trkpt><trkpt lat="45.39257586337587" lon="10.670544669070933"><ele>106.33333333333333</ele><time>2026-03-30T10:36:05Z</time></trkpt><trkpt lat="45.392673235354316" lon="10.670570984453972"><ele>107.0</ele><time>2026-03-30T10:36:06Z</time></trkpt><trkpt lat="45.392759827893954" lon="10.670575786067262"><ele>106.99999999999999</ele><time>2026-03-30T10:36:07Z</time></trkpt><trkpt lat="45.3928327216229" lon="10.670565262245992"><ele>107.0</ele><time>2026-03-30T10:36:08Z</time></trkpt><trkpt lat="45.39293164474398" lon="10.670494786484717"><ele>107.0</ele><time>2026-03-30T10:36:10Z</time></trkpt><trkpt lat="45.39298104281835" lon="10.670432895721294"><ele>107.0</ele><time>2026-03-30T10:36:11Z</time></trkpt><trkpt lat="45.39303168119786" lon="10.670368417015641"><ele>106.99999999999999</ele><time>2026-03-30T10:36:12Z</time></trkpt><trkpt lat="45.393067917476" lon="10.67029197959866"><ele>107.0</ele><time>2026-03-30T10:36:13Z</time></trkpt><trkpt lat="45.393096753199345" lon="10.670133243510332"><ele>107.83333333333333</ele><time>2026-03-30T10:36:15Z</time></trkpt><trkpt lat="45.39315143051374" lon="10.67000324862448"><ele>108.66666666666666</ele><time>2026-03-30T10:36:17Z</time></trkpt><trkpt lat="45.393178975064345" lon="10.66991075260242"><ele>109.5</ele><time>2026-03-30T10:36:19Z</time></trkpt><trkpt lat="45.3931739147773" lon="10.669798883372763"><ele>110.33333333333334</ele><time>2026-03-30T10:36:21Z</time></trkpt><trkpt lat="45.393129058726" lon="10.66971168426606"><ele>111.16666666666667</ele><time>2026-03-30T10:36:24Z</time></trkpt><trkpt lat="45.3930843102726" lon="10.669631912339"><ele>112.0</ele><time>2026-03-30T10:36:27Z</time></trkpt><trkpt lat="45.39302946834321" lon="10.669550287193424"><ele>112.0</ele><time>2026-03-30T10:36:30Z</time></trkpt><trkpt lat="45.39308679643511" lon="10.669688319887717"><ele>111.99999999999999</ele><time>2026-03-30T10:36:47Z</time></trkpt><trkpt lat="45.39313662655514" lon="10.66978102396345"><ele>111.99999999999999</ele><time>2026-03-30T10:36:49Z</time></trkpt><trkpt lat="45.3931647440472" lon="10.66990560782354"><ele>112.0</ele><time>2026-03-30T10:36:52Z</time></trkpt><trkpt lat="45.39312972903531" lon="10.670033417339384"><ele>112.0</ele><time>2026-03-30T10:36:54Z</time></trkpt><trkpt lat="45.39307262261443" lon="10.670155512564309"><ele>111.66666666666667</ele><time>2026-03-30T10:36:55.999Z</time></trkpt><trkpt lat="45.393020045687805" lon="10.670283791056368"><ele>111.33333333333334</ele><time>2026-03-30T10:36:57.999Z</time></trkpt><trkpt lat="45.39297124381121" lon="10.67038057524131"><ele>111.0</ele><time>2026-03-30T10:36:59.999Z</time></trkpt><trkpt lat="45.39294817024085" lon="10.670489343426306"><ele>110.66666666666666</ele><time>2026-03-30T10:37:02.999Z</time></trkpt><trkpt lat="45.39299656829006" lon="10.670548703192466"><ele>110.33333333333333</ele><time>2026-03-30T10:37:04.999Z</time></trkpt><trkpt lat="45.39310676027818" lon="10.670563675733916"><ele>110.0</ele><time>2026-03-30T10:37:06.999Z</time></trkpt><trkpt lat="45.393188510511536" lon="10.67055109626058"><ele>110.0</ele><time>2026-03-30T10:37:08.999Z</time></trkpt><trkpt lat="45.393240065269424" lon="10.670470355797733"><ele>110.0</ele><time>2026-03-30T10:37:11.999Z</time></trkpt><trkpt lat="45.39330958061516" lon="10.670344721064748"><ele>110.0</ele><time>2026-03-30T10:37:22.999Z</time></trkpt><trkpt lat="45.393361906478006" lon="10.670214657326897"><ele>110.0</ele><time>2026-03-30T10:37:23.999Z</time></trkpt><trkpt lat="45.39342665632011" lon="10.670082633910972"><ele>110.0</ele><time>2026-03-30T10:37:24.999Z</time></trkpt><trkpt lat="45.39348885131902" lon="10.669965359795802"><ele>110.33333333333333</ele><time>2026-03-30T10:37:25.999Z</time></trkpt><trkpt lat="45.39354415220374" lon="10.669877991337856"><ele>110.66666666666666</ele><time>2026-03-30T10:37:26.999Z</time></trkpt><trkpt lat="45.3936023350719" lon="10.66981424997862"><ele>111.0</ele><time>2026-03-30T10:37:27.999Z</time></trkpt><trkpt lat="45.39366660676344" lon="10.66977885114549"><ele>111.33333333333334</ele><time>2026-03-30T10:37:28.999Z</time></trkpt><trkpt lat="45.39374420837308" lon="10.66974234916067"><ele>111.66666666666667</ele><time>2026-03-30T10:37:29.999Z</time></trkpt><trkpt lat="45.39381913611672" lon="10.66972106583572"><ele>112.0</ele><time>2026-03-30T10:37:30.999Z</time></trkpt><trkpt lat="45.39389684310756" lon="10.66969791112275"><ele>112.16666666666667</ele><time>2026-03-30T10:37:31.999Z</time></trkpt><trkpt lat="45.39396369550866" lon="10.669646481546083"><ele>112.33333333333334</ele><time>2026-03-30T10:37:32.999Z</time></trkpt><trkpt lat="45.39402308724522" lon="10.66957691019961"><ele>112.5</ele><time>2026-03-30T10:37:33.999Z</time></trkpt><trkpt lat="45.39407254284331" lon="10.669491112931302"><ele>112.66666666666666</ele><time>2026-03-30T10:37:34.999Z</time></trkpt><trkpt lat="45.39413013790024" lon="10.669371640596024"><ele>112.83333333333333</ele><time>2026-03-30T10:37:35.999Z</time></trkpt><trkpt lat="45.39418913833303" lon="10.66924734536313"><ele>113.0</ele><time>2026-03-30T10:37:36.999Z</time></trkpt><trkpt lat="45.39423597105412" lon="10.669166617248068"><ele>114.0</ele><time>2026-03-30T10:37:37.999Z</time></trkpt><trkpt lat="45.394243792423445" lon="10.669060178825868"><ele>115.00000000000001</ele><time>2026-03-30T10:37:38.999Z</time></trkpt><trkpt lat="45.39431141102992" lon="10.668952853377212"><ele>116.00000000000001</ele><time>2026-03-30T10:37:40.999Z</time></trkpt><trkpt lat="45.39444270524955" lon="10.66887187908011"><ele>117.0</ele><time>2026-03-30T10:37:42.999Z</time></trkpt><trkpt lat="45.39452148326766" lon="10.668840661996065"><ele>118.0</ele><time>2026-03-30T10:37:43.999Z</time></trkpt><trkpt lat="45.39459373322953" lon="10.668813381117873"><ele>117.50000000000001</ele><time>2026-03-30T10:37:44.999Z</time></trkpt><trkpt lat="45.39469443525114" lon="10.668766863568791"><ele>117.0</ele><time>2026-03-30T10:37:45.999Z</time></trkpt><trkpt lat="45.39477861217345" lon="10.668722673867062"><ele>116.5</ele><time>2026-03-30T10:37:46.999Z</time></trkpt><trkpt lat="45.39485323710308" lon="10.668656381679472"><ele>116.0</ele><time>2026-03-30T10:37:47.999Z</time></trkpt><trkpt lat="45.39492391798628" lon="10.668610414677275"><ele>115.50000000000001</ele><time>2026-03-30T10:37:48.999Z</time></trkpt><trkpt lat="45.395000819578705" lon="10.668592003228467"><ele>115.0</ele><time>2026-03-30T10:37:49.999Z</time></trkpt><trkpt lat="45.395101047216386" lon="10.668599532868805"><ele>115.0</ele><time>2026-03-30T10:37:50.999Z</time></trkpt><trkpt lat="45.39520216605423" lon="10.668625319335419"><ele>115.0</ele><time>2026-03-30T10:37:51.999Z</time></trkpt><trkpt lat="45.39532168697402" lon="10.66862789074315"><ele>115.0</ele><time>2026-03-30T10:37:52.999Z</time></trkpt><trkpt lat="45.395431438393636" lon="10.668610036186902"><ele>115.0</ele><time>2026-03-30T10:37:53.999Z</time></trkpt><trkpt lat="45.39552645339119" lon="10.668571660072239"><ele>115.0</ele><time>2026-03-30T10:37:54.999Z</time></trkpt><trkpt lat="45.39560442760618" lon="10.668535838642494"><ele>116.8</ele><time>2026-03-30T10:37:55.999Z</time></trkpt><trkpt lat="45.395672589678746" lon="10.66848532829043"><ele>118.6</ele><time>2026-03-30T10:37:56.999Z</time></trkpt><trkpt lat="45.39576360345732" lon="10.668422550364562"><ele>120.4</ele><time>2026-03-30T10:37:57.999Z</time></trkpt><trkpt lat="45.395845220932934" lon="10.668385021458437"><ele>122.2</ele><time>2026-03-30T10:37:58.999Z</time></trkpt><trkpt lat="45.39593576913941" lon="10.668345715682314"><ele>124.0</ele><time>2026-03-30T10:37:59.999Z</time></trkpt><trkpt lat="45.39603328090745" lon="10.668290558166198"><ele>124.0</ele><time>2026-03-30T10:38:00.999Z</time></trkpt><trkpt lat="45.3961473800234" lon="10.66823334709119"><ele>124.0</ele><time>2026-03-30T10:38:01.999Z</time></trkpt><trkpt lat="45.396263097459276" lon="10.668177516355529"><ele>124.0</ele><time>2026-03-30T10:38:02.999Z</time></trkpt><trkpt lat="45.39635820464765" lon="10.668110877282656"><ele>124.0</ele><time>2026-03-30T10:38:03.999Z</time></trkpt><trkpt lat="45.396460083520516" lon="10.668056762646735"><ele>124.2</ele><time>2026-03-30T10:38:04.999Z</time></trkpt><trkpt lat="45.39655115629763" lon="10.668003565548222"><ele>124.4</ele><time>2026-03-30T10:38:06Z</time></trkpt><trkpt lat="45.396644053220314" lon="10.667943816314887"><ele>124.6</ele><time>2026-03-30T10:38:07Z</time></trkpt><trkpt lat="45.396732167400565" lon="10.667873646689976"><ele>124.8</ele><time>2026-03-30T10:38:08Z</time></trkpt><trkpt lat="45.39682281018103" lon="10.66779889081289"><ele>125.0</ele><time>2026-03-30T10:38:09Z</time></trkpt><trkpt lat="45.3969069129059" lon="10.667710250769495"><ele>125.0</ele><time>2026-03-30T10:38:10Z</time></trkpt><trkpt lat="45.397003641198545" lon="10.667618097170681"><ele>125.0</ele><time>2026-03-30T10:38:11Z</time></trkpt><trkpt lat="45.39709575007517" lon="10.66753590512024"><ele>125.0</ele><time>2026-03-30T10:38:12Z</time></trkpt><trkpt lat="45.39718103563509" lon="10.667464124536334"><ele>125.0</ele><time>2026-03-30T10:38:13Z</time></trkpt><trkpt lat="45.397262624184044" lon="10.66741772533358"><ele>125.0</ele><time>2026-03-30T10:38:14Z</time></trkpt><trkpt lat="45.39734173676269" lon="10.667376013014286"><ele>124.49999999999999</ele><time>2026-03-30T10:38:15Z</time></trkpt><trkpt lat="45.39741791945205" lon="10.667336728466465"><ele>124.0</ele><time>2026-03-30T10:38:16Z</time></trkpt><trkpt lat="45.39749524254644" lon="10.667282822914443"><ele>123.5</ele><time>2026-03-30T10:38:17Z</time></trkpt><trkpt lat="45.39755485587089" lon="10.667206772849365"><ele>123.0</ele><time>2026-03-30T10:38:18Z</time></trkpt><trkpt lat="45.3976026224992" lon="10.667121578388015"><ele>122.49999999999999</ele><time>2026-03-30T10:38:19Z</time></trkpt><trkpt lat="45.39763765294021" lon="10.667043944092358"><ele>122.0</ele><time>2026-03-30T10:38:20Z</time></trkpt><trkpt lat="45.397673597924296" lon="10.666963761159076"><ele>121.66666666666666</ele><time>2026-03-30T10:38:21Z</time></trkpt><trkpt lat="45.39772148427001" lon="10.666825458778037"><ele>121.33333333333333</ele><time>2026-03-30T10:38:23Z</time></trkpt><trkpt lat="45.39780069928676" lon="10.666767433357085"><ele>121.0</ele><time>2026-03-30T10:38:25Z</time></trkpt><trkpt lat="45.397870286627004" lon="10.666759276574846"><ele>120.66666666666666</ele><time>2026-03-30T10:38:26Z</time></trkpt><trkpt lat="45.397947221342434" lon="10.666773550244221"><ele>120.33333333333333</ele><time>2026-03-30T10:38:27Z</time></trkpt><trkpt lat="45.398022040879134" lon="10.666805473780496"><ele>120.0</ele><time>2026-03-30T10:38:28Z</time></trkpt><trkpt lat="45.39813012737326" lon="10.66685590306878"><ele>120.0</ele><time>2026-03-30T10:38:29Z</time></trkpt><trkpt lat="45.398249015920754" lon="10.66692643771664"><ele>120.0</ele><time>2026-03-30T10:38:30Z</time></trkpt><trkpt lat="45.398382345865855" lon="10.667022557140353"><ele>120.0</ele><time>2026-03-30T10:38:31Z</time></trkpt><trkpt lat="45.398453291929115" lon="10.667094475772794"><ele>120.0</ele><time>2026-03-30T10:38:33Z</time></trkpt><trkpt lat="45.398527256128475" lon="10.667161697614878"><ele>120.0</ele><time>2026-03-30T10:38:34Z</time></trkpt><trkpt lat="45.398641892219445" lon="10.66723735140464"><ele>120.0</ele><time>2026-03-30T10:38:35Z</time></trkpt><trkpt lat="45.3987485755184" lon="10.667300592934064"><ele>120.0</ele><time>2026-03-30T10:38:36Z</time></trkpt><trkpt lat="45.39886070102124" lon="10.667362420127986"><ele>120.0</ele><time>2026-03-30T10:38:37Z</time></trkpt><trkpt lat="45.39895763016978" lon="10.667423250500821"><ele>121.0</ele><time>2026-03-30T10:38:38Z</time></trkpt><trkpt lat="45.39904180256334" lon="10.667475459737629"><ele>122.0</ele><time>2026-03-30T10:38:39Z</time></trkpt><trkpt lat="45.399107601804964" lon="10.66751486196244"><ele>123.0</ele><time>2026-03-30T10:38:40Z</time></trkpt><trkpt lat="45.39920726282488" lon="10.667578601740821"><ele>124.0</ele><time>2026-03-30T10:38:42Z</time></trkpt><trkpt lat="45.39925615492291" lon="10.667669003932495"><ele>125.0</ele><time>2026-03-30T10:38:45Z</time></trkpt><trkpt lat="45.39916186738812" lon="10.667805395568294"><ele>125.16666666666666</ele><time>2026-03-30T10:38:47Z</time></trkpt><trkpt lat="45.39911601888859" lon="10.667923044213973"><ele>125.33333333333333</ele><time>2026-03-30T10:38:48Z</time></trkpt><trkpt lat="45.39906668526584" lon="10.668032449130692"><ele>125.5</ele><time>2026-03-30T10:38:49Z</time></trkpt><trkpt lat="45.3990184272766" lon="10.668125931769767"><ele>125.66666666666666</ele><time>2026-03-30T10:38:50Z</time></trkpt><trkpt lat="45.39894364707908" lon="10.668224301119782"><ele>125.83333333333333</ele><time>2026-03-30T10:38:52Z</time></trkpt><trkpt lat="45.39890696167415" lon="10.668309085945708"><ele>126.0</ele><time>2026-03-30T10:38:55Z</time></trkpt><trkpt lat="45.398859239515836" lon="10.668408991442764"><ele>126.0</ele><time>2026-03-30T10:38:58Z</time></trkpt><trkpt lat="45.39880490572175" lon="10.668522921061811"><ele>126.0</ele><time>2026-03-30T10:39:00.999Z</time></trkpt><trkpt lat="45.39877072080213" lon="10.66860064367684"><ele>126.0</ele><time>2026-03-30T10:39:02.999Z</time></trkpt><trkpt lat="45.39874101867072" lon="10.668687352312213"><ele>126.0</ele><time>2026-03-30T10:39:05.999Z</time></trkpt><trkpt lat="45.39877147181304" lon="10.668602283324654"><ele>126.0</ele><time>2026-03-30T10:41:42.999Z</time></trkpt><trkpt lat="45.3987972351779" lon="10.668507459570217"><ele>126.0</ele><time>2026-03-30T10:41:44.999Z</time></trkpt><trkpt lat="45.39875814061489" lon="10.66832651772191"><ele>126.0</ele><time>2026-03-30T10:41:46.999Z</time></trkpt><trkpt lat="45.39882713500404" lon="10.668271162784066"><ele>126.0</ele><time>2026-03-30T10:41:48.999Z</time></trkpt><trkpt lat="45.39890557153419" lon="10.668267396405186"><ele>126.0</ele><time>2026-03-30T10:41:51.999Z</time></trkpt><trkpt lat="45.398918887350405" lon="10.66837351826092"><ele>126.0</ele><time>2026-03-30T10:41:55.999Z</time></trkpt><trkpt lat="45.39883137146797" lon="10.66850972801663"><ele>126.0</ele><time>2026-03-30T10:41:57.999Z</time></trkpt><trkpt lat="45.39878904248779" lon="10.668606004172126"><ele>126.0</ele><time>2026-03-30T10:41:58.999Z</time></trkpt><trkpt lat="45.398761223822014" lon="10.668730813566176"><ele>126.0</ele><time>2026-03-30T10:41:59.999Z</time></trkpt><trkpt lat="45.398713624750386" lon="10.66886378645994"><ele>126.0</ele><time>2026-03-30T10:42:00.998Z</time></trkpt><trkpt lat="45.39868670765784" lon="10.668962737065183"><ele>126.0</ele><time>2026-03-30T10:42:01.998Z</time></trkpt><trkpt lat="45.39865995650974" lon="10.669049481811014"><ele>126.0</ele><time>2026-03-30T10:42:02.998Z</time></trkpt><trkpt lat="45.39863677197214" lon="10.669133610020616"><ele>126.0</ele><time>2026-03-30T10:42:03.998Z</time></trkpt><trkpt lat="45.398573179481936" lon="10.669258075308047"><ele>126.0</ele><time>2026-03-30T10:42:05.998Z</time></trkpt><trkpt lat="45.398673682712435" lon="10.669444437512364"><ele>126.19999999999999</ele><time>2026-03-30T10:42:09.998Z</time></trkpt><trkpt lat="45.39877767600393" lon="10.66944296399313"><ele>126.39999999999999</ele><time>2026-03-30T10:42:11.998Z</time></trkpt><trkpt lat="45.39884529738366" lon="10.669455600125506"><ele>126.6</ele><time>2026-03-30T10:42:12.998Z</time></trkpt><trkpt lat="45.39896139526157" lon="10.66948576600529"><ele>126.8</ele><time>2026-03-30T10:42:14.998Z</time></trkpt><trkpt lat="45.399072072931055" lon="10.66950192389453"><ele>127.0</ele><time>2026-03-30T10:42:16.999Z</time></trkpt><trkpt lat="45.399159974262865" lon="10.669509734019734"><ele>127.00000000000001</ele><time>2026-03-30T10:42:18.999Z</time></trkpt><trkpt lat="45.39925758364647" lon="10.669533915833483"><ele>127.0</ele><time>2026-03-30T10:42:20.999Z</time></trkpt><trkpt lat="45.39934353018967" lon="10.669549098798644"><ele>127.0</ele><time>2026-03-30T10:42:22.999Z</time></trkpt><trkpt lat="45.39940912556035" lon="10.669558292388496"><ele>127.0</ele><time>2026-03-30T10:42:24.999Z</time></trkpt><trkpt lat="45.3994907685996" lon="10.669539870732699"><ele>127.00000000000001</ele><time>2026-03-30T10:42:27.999Z</time></trkpt><trkpt lat="45.399565715646595" lon="10.66955123387897"><ele>127.0</ele><time>2026-03-30T10:42:32Z</time></trkpt><trkpt lat="45.39964412391752" lon="10.669599786541902"><ele>123.0</ele><time>2026-03-30T10:42:35Z</time></trkpt><trkpt lat="45.399712228438496" lon="10.66969752071873"><ele>118.99999999999999</ele><time>2026-03-30T10:42:37Z</time></trkpt><trkpt lat="45.39977258153637" lon="10.669824849197807"><ele>114.99999999999999</ele><time>2026-03-30T10:42:39Z</time></trkpt><trkpt lat="45.399823742110634" lon="10.669963614036744"><ele>111.0</ele><time>2026-03-30T10:42:41Z</time></trkpt><trkpt lat="45.39984491081516" lon="10.67010663683233"><ele>107.0</ele><time>2026-03-30T10:42:42.999Z</time></trkpt><trkpt lat="45.39983451766556" lon="10.67028267568511"><ele>106.8</ele><time>2026-03-30T10:42:44.999Z</time></trkpt><trkpt lat="45.399855176211766" lon="10.670433490990495"><ele>106.6</ele><time>2026-03-30T10:42:46.999Z</time></trkpt><trkpt lat="45.39988439229238" lon="10.670594628589344"><ele>106.39999999999999</ele><time>2026-03-30T10:42:48.999Z</time></trkpt><trkpt lat="45.39990789073615" lon="10.67068692136592"><ele>106.19999999999999</ele><time>2026-03-30T10:42:49.999Z</time></trkpt><trkpt lat="45.39992736785346" lon="10.670780264438116"><ele>106.0</ele><time>2026-03-30T10:42:50.999Z</time></trkpt><trkpt lat="45.39996242325895" lon="10.670895972664251"><ele>106.00000000000001</ele><time>2026-03-30T10:42:51.999Z</time></trkpt><trkpt lat="45.39998773259925" lon="10.670993278720575"><ele>106.0</ele><time>2026-03-30T10:42:52.999Z</time></trkpt><trkpt lat="45.4000199837796" lon="10.671093229258803"><ele>106.0</ele><time>2026-03-30T10:42:53.999Z</time></trkpt><trkpt lat="45.40005087009467" lon="10.671200106281058"><ele>106.0</ele><time>2026-03-30T10:42:54.999Z</time></trkpt><trkpt lat="45.40007953976095" lon="10.671305047729449"><ele>106.00000000000001</ele><time>2026-03-30T10:42:55.999Z</time></trkpt><trkpt lat="45.40012217054941" lon="10.671400986038188"><ele>106.0</ele><time>2026-03-30T10:42:56.999Z</time></trkpt><trkpt lat="45.40017072259507" lon="10.671481180610444"><ele>106.16666666666667</ele><time>2026-03-30T10:42:57.999Z</time></trkpt><trkpt lat="45.400219511277484" lon="10.671564542083793"><ele>106.33333333333334</ele><time>2026-03-30T10:42:58.999Z</time></trkpt><trkpt lat="45.40026073540253" lon="10.671637144539039"><ele>106.5</ele><time>2026-03-30T10:42:59.999Z</time></trkpt><trkpt lat="45.400330959941556" lon="10.671742961635019"><ele>106.66666666666666</ele><time>2026-03-30T10:43:01.999Z</time></trkpt><trkpt lat="45.40039306253539" lon="10.671770562999733"><ele>106.83333333333333</ele><time>2026-03-30T10:43:02.999Z</time></trkpt><trkpt lat="45.400461596405215" lon="10.671764565073817"><ele>107.0</ele><time>2026-03-30T10:43:03.999Z</time></trkpt><trkpt lat="45.40054787361524" lon="10.67174507088569"><ele>106.0</ele><time>2026-03-30T10:43:04.999Z</time></trkpt><trkpt lat="45.40066385205883" lon="10.671732884007007"><ele>105.0</ele><time>2026-03-30T10:43:05.999Z</time></trkpt><trkpt lat="45.40076208956924" lon="10.67171928343018"><ele>104.0</ele><time>2026-03-30T10:43:06.999Z</time></trkpt><trkpt lat="45.40087670858843" lon="10.671710977842885"><ele>103.0</ele><time>2026-03-30T10:43:07.999Z</time></trkpt><trkpt lat="45.4010026115497" lon="10.671680332915503"><ele>103.0</ele><time>2026-03-30T10:43:08.999Z</time></trkpt><trkpt lat="45.40112334648623" lon="10.671663838218914"><ele>103.0</ele><time>2026-03-30T10:43:09.999Z</time></trkpt><trkpt lat="45.40122831936351" lon="10.671641549214579"><ele>103.0</ele><time>2026-03-30T10:43:10.999Z</time></trkpt><trkpt lat="45.40133472695231" lon="10.671622367035544"><ele>103.0</ele><time>2026-03-30T10:43:11.999Z</time></trkpt><trkpt lat="45.40143107707991" lon="10.67161110370281"><ele>103.0</ele><time>2026-03-30T10:43:12.999Z</time></trkpt><trkpt lat="45.40151619140084" lon="10.671603026953013"><ele>102.50000000000001</ele><time>2026-03-30T10:43:13.999Z</time></trkpt><trkpt lat="45.40159190381545" lon="10.671591487735446"><ele>102.0</ele><time>2026-03-30T10:43:14.999Z</time></trkpt><trkpt lat="45.401660157458814" lon="10.671572030945613"><ele>101.5</ele><time>2026-03-30T10:43:15.999Z</time></trkpt><trkpt lat="45.40174053348059" lon="10.671585018464075"><ele>101.0</ele><time>2026-03-30T10:43:16.999Z</time></trkpt><trkpt lat="45.40181774481179" lon="10.671575751845687"><ele>100.50000000000001</ele><time>2026-03-30T10:43:17.999Z</time></trkpt><trkpt lat="45.40190753085032" lon="10.671564976060852"><ele>100.0</ele><time>2026-03-30T10:43:18.999Z</time></trkpt><trkpt lat="45.40200376039957" lon="10.671552730404697"><ele>100.0</ele><time>2026-03-30T10:43:19.999Z</time></trkpt><trkpt lat="45.40209450187176" lon="10.671540324210008"><ele>100.0</ele><time>2026-03-30T10:43:20.999Z</time></trkpt><trkpt lat="45.40218395675189" lon="10.671524851324685"><ele>100.0</ele><time>2026-03-30T10:43:21.999Z</time></trkpt><trkpt lat="45.40227663624855" lon="10.671507705153456"><ele>100.0</ele><time>2026-03-30T10:43:22.999Z</time></trkpt><trkpt lat="45.40238265400009" lon="10.671486142116295"><ele>100.0</ele><time>2026-03-30T10:43:23.999Z</time></trkpt><trkpt lat="45.40247857216039" lon="10.671443884112469"><ele>99.4</ele><time>2026-03-30T10:43:24.999Z</time></trkpt><trkpt lat="45.40258610551391" lon="10.67143999013583"><ele>98.8</ele><time>2026-03-30T10:43:25.999Z</time></trkpt><trkpt lat="45.402684709715864" lon="10.671430308251086"><ele>98.19999999999999</ele><time>2026-03-30T10:43:26.999Z</time></trkpt><trkpt lat="45.40277966256763" lon="10.671461439801787"><ele>97.6</ele><time>2026-03-30T10:43:27.999Z</time></trkpt><trkpt lat="45.402859484029484" lon="10.671453311590016"><ele>97.0</ele><time>2026-03-30T10:43:28.999Z</time></trkpt><trkpt lat="45.40293585339292" lon="10.671454443237984"><ele>96.33333333333334</ele><time>2026-03-30T10:43:29.999Z</time></trkpt><trkpt lat="45.40299965026699" lon="10.67143229929772"><ele>95.66666666666667</ele><time>2026-03-30T10:43:30.999Z</time></trkpt><trkpt lat="45.40307378906542" lon="10.671399895693137"><ele>95.0</ele><time>2026-03-30T10:43:31.999Z</time></trkpt><trkpt lat="45.40317210338356" lon="10.671339162711666"><ele>94.33333333333334</ele><time>2026-03-30T10:43:33.999Z</time></trkpt><trkpt lat="45.40323557695513" lon="10.671243603890833"><ele>93.66666666666667</ele><time>2026-03-30T10:43:35.999Z</time></trkpt><trkpt lat="45.403224753596405" lon="10.671105827119403"><ele>93.0</ele><time>2026-03-30T10:43:37.999Z</time></trkpt><trkpt lat="45.40327467682767" lon="10.670999178862381"><ele>92.80000000000001</ele><time>2026-03-30T10:43:40.999Z</time></trkpt><trkpt lat="45.40337409912243" lon="10.670972235281768"><ele>92.6</ele><time>2026-03-30T10:43:42.999Z</time></trkpt><trkpt lat="45.40349487164574" lon="10.671018580530964"><ele>92.4</ele><time>2026-03-30T10:43:44.999Z</time></trkpt><trkpt lat="45.40355910588767" lon="10.67101543924469"><ele>92.19999999999999</ele><time>2026-03-30T10:43:45.999Z</time></trkpt><trkpt lat="45.403628410863334" lon="10.671019727107302"><ele>92.0</ele><time>2026-03-30T10:43:46.999Z</time></trkpt><trkpt lat="45.40370176332208" lon="10.67109579856924"><ele>92.19999999999999</ele><time>2026-03-30T10:43:47.999Z</time></trkpt><trkpt lat="45.40376998966304" lon="10.671160577731904"><ele>92.4</ele><time>2026-03-30T10:43:48.999Z</time></trkpt><trkpt lat="45.40385335362738" lon="10.671229209159726"><ele>92.6</ele><time>2026-03-30T10:43:49.999Z</time></trkpt><trkpt lat="45.40394462807475" lon="10.671282418513512"><ele>92.80000000000001</ele><time>2026-03-30T10:43:50.999Z</time></trkpt><trkpt lat="45.40405443638988" lon="10.671301628150061"><ele>93.0</ele><time>2026-03-30T10:43:51.999Z</time></trkpt><trkpt lat="45.404184134529814" lon="10.67131820973448"><ele>93.0</ele><time>2026-03-30T10:43:52.999Z</time></trkpt><trkpt lat="45.40430587527102" lon="10.671331384093603"><ele>93.0</ele><time>2026-03-30T10:43:53.999Z</time></trkpt><trkpt lat="45.404418929769506" lon="10.671336631008414"><ele>93.0</ele><time>2026-03-30T10:43:54.999Z</time></trkpt><trkpt lat="45.40451571099095" lon="10.67136030940146"><ele>93.0</ele><time>2026-03-30T10:43:55.999Z</time></trkpt><trkpt lat="45.404626420537944" lon="10.671379905519025"><ele>93.0</ele><time>2026-03-30T10:43:56.999Z</time></trkpt><trkpt lat="45.404725619077524" lon="10.671387883065101"><ele>93.0</ele><time>2026-03-30T10:43:57.999Z</time></trkpt><trkpt lat="45.40482686210673" lon="10.671437098543404"><ele>93.0</ele><time>2026-03-30T10:43:58.999Z</time></trkpt><trkpt lat="45.40490103507832" lon="10.671524779424283"><ele>93.0</ele><time>2026-03-30T10:43:59.999Z</time></trkpt><trkpt lat="45.40498596414257" lon="10.671579440613607"><ele>93.0</ele><time>2026-03-30T10:44:00.999Z</time></trkpt><trkpt lat="45.405118285036416" lon="10.671417150806107"><ele>93.0</ele><time>2026-03-30T10:44:01.999Z</time></trkpt><trkpt lat="45.40518110127968" lon="10.67143656642268"><ele>93.0</ele><time>2026-03-30T10:44:02.999Z</time></trkpt><trkpt lat="45.40527972262273" lon="10.671526540162622"><ele>93.0</ele><time>2026-03-30T10:44:04.999Z</time></trkpt><trkpt lat="45.4053061049227" lon="10.671630097251604"><ele>93.0</ele><time>2026-03-30T10:44:05.999Z</time></trkpt><trkpt lat="45.40535256842495" lon="10.67176269132614"><ele>93.0</ele><time>2026-03-30T10:44:06.999Z</time></trkpt><trkpt lat="45.40536929911532" lon="10.671913581629035"><ele>92.75</ele><time>2026-03-30T10:44:07.999Z</time></trkpt><trkpt lat="45.405367262523605" lon="10.672078748158917"><ele>92.5</ele><time>2026-03-30T10:44:08.999Z</time></trkpt><trkpt lat="45.40536657986473" lon="10.672260025692246"><ele>92.25</ele><time>2026-03-30T10:44:09.998Z</time></trkpt><trkpt lat="45.40537446035735" lon="10.672434052673314"><ele>92.0</ele><time>2026-03-30T10:44:10.998Z</time></trkpt><trkpt lat="45.405390664803555" lon="10.67259677760004"><ele>92.0</ele><time>2026-03-30T10:44:11.998Z</time></trkpt><trkpt lat="45.40542283593433" lon="10.672781453065623"><ele>92.0</ele><time>2026-03-30T10:44:12.998Z</time></trkpt><trkpt lat="45.405471860506964" lon="10.672977742428467"><ele>92.0</ele><time>2026-03-30T10:44:13.998Z</time></trkpt><trkpt lat="45.40552392079524" lon="10.673180030978113"><ele>92.0</ele><time>2026-03-30T10:44:14.998Z</time></trkpt><trkpt lat="45.40557164412363" lon="10.673376754906434"><ele>92.19999999999999</ele><time>2026-03-30T10:44:15.998Z</time></trkpt><trkpt lat="45.40561126189753" lon="10.673532222009914"><ele>92.4</ele><time>2026-03-30T10:44:16.998Z</time></trkpt><trkpt lat="45.40564767982624" lon="10.673664557463834"><ele>92.6</ele><time>2026-03-30T10:44:17.998Z</time></trkpt><trkpt lat="45.40568915989085" lon="10.673786603721164"><ele>92.80000000000001</ele><time>2026-03-30T10:44:18.998Z</time></trkpt><trkpt lat="45.40573318543323" lon="10.67389934332848"><ele>93.0</ele><time>2026-03-30T10:44:19.998Z</time></trkpt><trkpt lat="45.40578303058924" lon="10.674007680999917"><ele>93.0</ele><time>2026-03-30T10:44:20.998Z</time></trkpt><trkpt lat="45.405847020155754" lon="10.674113650335478"><ele>93.0</ele><time>2026-03-30T10:44:21.998Z</time></trkpt><trkpt lat="45.40592073682536" lon="10.674221558608819"><ele>93.0</ele><time>2026-03-30T10:44:23Z</time></trkpt><trkpt lat="45.40598681129326" lon="10.674313485497734"><ele>93.0</ele><time>2026-03-30T10:44:24Z</time></trkpt><trkpt lat="45.40603234282436" lon="10.674397093371068"><ele>93.0</ele><time>2026-03-30T10:44:25Z</time></trkpt><trkpt lat="45.406063820979355" lon="10.674497649234068"><ele>93.0</ele><time>2026-03-30T10:44:26Z</time></trkpt><trkpt lat="45.406065360930846" lon="10.674641768233771"><ele>93.2</ele><time>2026-03-30T10:44:27Z</time></trkpt><trkpt lat="45.40609294080011" lon="10.674800326712393"><ele>93.4</ele><time>2026-03-30T10:44:28Z</time></trkpt><trkpt lat="45.406107217359505" lon="10.67497887249366"><ele>93.60000000000001</ele><time>2026-03-30T10:44:29Z</time></trkpt><trkpt lat="45.406121094196145" lon="10.675126511853058"><ele>93.80000000000001</ele><time>2026-03-30T10:44:30Z</time></trkpt><trkpt lat="45.406126190547354" lon="10.675267446921268"><ele>94.0</ele><time>2026-03-30T10:44:31Z</time></trkpt><trkpt lat="45.406085190426865" lon="10.675410251340129"><ele>94.0</ele><time>2026-03-30T10:44:32Z</time></trkpt><trkpt lat="45.40605290108042" lon="10.67556668648665"><ele>94.0</ele><time>2026-03-30T10:44:33Z</time></trkpt><trkpt lat="45.40598994997255" lon="10.67575147562121"><ele>94.0</ele><time>2026-03-30T10:44:34Z</time></trkpt><trkpt lat="45.40593723274383" lon="10.675949871671056"><ele>94.0</ele><time>2026-03-30T10:44:35Z</time></trkpt><trkpt lat="45.4058814362149" lon="10.676158369940863"><ele>94.0</ele><time>2026-03-30T10:44:36Z</time></trkpt><trkpt lat="45.405816101683754" lon="10.676352771491144"><ele>94.0</ele><time>2026-03-30T10:44:37Z</time></trkpt><trkpt lat="45.40577319468279" lon="10.676560614899493"><ele>94.0</ele><time>2026-03-30T10:44:38Z</time></trkpt><trkpt lat="45.40574294161016" lon="10.676772120500866"><ele>93.33333333333333</ele><time>2026-03-30T10:44:39Z</time></trkpt><trkpt lat="45.4057027930992" lon="10.676980763554054"><ele>92.66666666666667</ele><time>2026-03-30T10:44:40Z</time></trkpt><trkpt lat="45.40566574894944" lon="10.677207485907342"><ele>92.0</ele><time>2026-03-30T10:44:41Z</time></trkpt><trkpt lat="45.405637129092334" lon="10.677426073075905"><ele>92.0</ele><time>2026-03-30T10:44:42Z</time></trkpt><trkpt lat="45.40562424042051" lon="10.677641193171267"><ele>92.0</ele><time>2026-03-30T10:44:43Z</time></trkpt><trkpt lat="45.4056225715126" lon="10.677848588992122"><ele>92.0</ele><time>2026-03-30T10:44:44Z</time></trkpt><trkpt lat="45.405641100827985" lon="10.678063717576077"><ele>92.0</ele><time>2026-03-30T10:44:45Z</time></trkpt><trkpt lat="45.405681141928724" lon="10.678277368582679"><ele>91.25</ele><time>2026-03-30T10:44:46Z</time></trkpt><trkpt lat="45.40573059315264" lon="10.67848005674274"><ele>90.5</ele><time>2026-03-30T10:44:47Z</time></trkpt><trkpt lat="45.405790509576796" lon="10.678644112246102"><ele>89.75</ele><time>2026-03-30T10:44:48Z</time></trkpt><trkpt lat="45.40585475942721" lon="10.67875939076122"><ele>89.0</ele><time>2026-03-30T10:44:49Z</time></trkpt><trkpt lat="45.40592693105197" lon="10.678841480252732"><ele>88.6</ele><time>2026-03-30T10:44:50Z</time></trkpt><trkpt lat="45.40599602436837" lon="10.67889726051037"><ele>88.2</ele><time>2026-03-30T10:44:51Z</time></trkpt><trkpt lat="45.40606674591998" lon="10.67893244348093"><ele>87.8</ele><time>2026-03-30T10:44:52Z</time></trkpt><trkpt lat="45.40614666771114" lon="10.678933119745098"><ele>87.39999999999999</ele><time>2026-03-30T10:44:53Z</time></trkpt><trkpt lat="45.40625486019968" lon="10.678909000799017"><ele>87.0</ele><time>2026-03-30T10:44:54Z</time></trkpt><trkpt lat="45.406377527640196" lon="10.678879900388004"><ele>88.0</ele><time>2026-03-30T10:44:55Z</time></trkpt><trkpt lat="45.40651434209139" lon="10.678848223152617"><ele>89.0</ele><time>2026-03-30T10:44:56Z</time></trkpt><trkpt lat="45.40665992697925" lon="10.678845829320501"><ele>90.0</ele><time>2026-03-30T10:44:57Z</time></trkpt><trkpt lat="45.40680060440722" lon="10.678860874951225"><ele>91.0</ele><time>2026-03-30T10:44:58Z</time></trkpt><trkpt lat="45.406925702545394" lon="10.678868268618013"><ele>91.0</ele><time>2026-03-30T10:44:59Z</time></trkpt><trkpt lat="45.40705320726873" lon="10.678868698926573"><ele>91.0</ele><time>2026-03-30T10:45:00Z</time></trkpt><trkpt lat="45.40718496001335" lon="10.678874741362742"><ele>91.0</ele><time>2026-03-30T10:45:01Z</time></trkpt><trkpt lat="45.40732762736716" lon="10.678891863679613"><ele>91.0</ele><time>2026-03-30T10:45:02Z</time></trkpt><trkpt lat="45.40746514318732" lon="10.678915680885146"><ele>92.0</ele><time>2026-03-30T10:45:03Z</time></trkpt><trkpt lat="45.40760338579381" lon="10.67892743445676"><ele>93.0</ele><time>2026-03-30T10:45:04Z</time></trkpt><trkpt lat="45.40775327783457" lon="10.678932534033516"><ele>94.0</ele><time>2026-03-30T10:45:05Z</time></trkpt><trkpt lat="45.407898485849934" lon="10.678947146022697"><ele>95.0</ele><time>2026-03-30T10:45:06Z</time></trkpt><trkpt lat="45.408054802493325" lon="10.67896034828492"><ele>95.25</ele><time>2026-03-30T10:45:07Z</time></trkpt><trkpt lat="45.40820525052566" lon="10.678972907507129"><ele>95.5</ele><time>2026-03-30T10:45:08Z</time></trkpt><trkpt lat="45.40834670345955" lon="10.678996587998897"><ele>95.75</ele><time>2026-03-30T10:45:09Z</time></trkpt><trkpt lat="45.40846978583059" lon="10.679027192614976"><ele>96.0</ele><time>2026-03-30T10:45:10Z</time></trkpt><trkpt lat="45.408572144372386" lon="10.679046735097048"><ele>96.0</ele><time>2026-03-30T10:45:11Z</time></trkpt><trkpt lat="45.408655033403505" lon="10.679062710469623"><ele>96.0</ele><time>2026-03-30T10:45:12Z</time></trkpt><trkpt lat="45.408747527487094" lon="10.679081016800739"><ele>96.0</ele><time>2026-03-30T10:45:13Z</time></trkpt><trkpt lat="45.408855713479305" lon="10.679104901198427"><ele>96.0</ele><time>2026-03-30T10:45:13.999Z</time></trkpt><trkpt lat="45.40893992527736" lon="10.679118050839609"><ele>96.0</ele><time>2026-03-30T10:45:14.999Z</time></trkpt><trkpt lat="45.40901139444561" lon="10.679147231619146"><ele>96.0</ele><time>2026-03-30T10:45:15.999Z</time></trkpt><trkpt lat="45.409080778372925" lon="10.679156941105116"><ele>96.0</ele><time>2026-03-30T10:45:16.999Z</time></trkpt><trkpt lat="45.40912859909143" lon="10.679228257700007"><ele>96.0</ele><time>2026-03-30T10:45:17.999Z</time></trkpt><trkpt lat="45.40916150063765" lon="10.679330905277395"><ele>96.0</ele><time>2026-03-30T10:45:18.999Z</time></trkpt><trkpt lat="45.4091732701674" lon="10.679447598053564"><ele>96.0</ele><time>2026-03-30T10:45:19.999Z</time></trkpt><trkpt lat="45.409171880723655" lon="10.679577576991113"><ele>96.0</ele><time>2026-03-30T10:45:20.999Z</time></trkpt><trkpt lat="45.4091750822839" lon="10.679748305900253"><ele>96.0</ele><time>2026-03-30T10:45:21.999Z</time></trkpt><trkpt lat="45.40915762536461" lon="10.679937564434535"><ele>96.0</ele><time>2026-03-30T10:45:22.999Z</time></trkpt><trkpt lat="45.40916722157663" lon="10.680140270393904"><ele>96.0</ele><time>2026-03-30T10:45:23.999Z</time></trkpt><trkpt lat="45.409155932729156" lon="10.680351342400545"><ele>96.0</ele><time>2026-03-30T10:45:24.999Z</time></trkpt><trkpt lat="45.40911663021316" lon="10.680555199190598"><ele>96.0</ele><time>2026-03-30T10:45:25.999Z</time></trkpt><trkpt lat="45.40907002124238" lon="10.680752226332851"><ele>95.66666666666667</ele><time>2026-03-30T10:45:26.999Z</time></trkpt><trkpt lat="45.409032415309746" lon="10.680977633446313"><ele>95.33333333333334</ele><time>2026-03-30T10:45:27.999Z</time></trkpt><trkpt lat="45.408976600537216" lon="10.681196541681663"><ele>95.0</ele><time>2026-03-30T10:45:28.999Z</time></trkpt><trkpt lat="45.4089301596232" lon="10.681427441674224"><ele>94.66666666666667</ele><time>2026-03-30T10:45:29.999Z</time></trkpt><trkpt lat="45.40889288200675" lon="10.681654369717705"><ele>94.33333333333333</ele><time>2026-03-30T10:45:30.999Z</time></trkpt><trkpt lat="45.40883448796935" lon="10.681880105120781"><ele>94.0</ele><time>2026-03-30T10:45:31.999Z</time></trkpt><trkpt lat="45.4088041479095" lon="10.682083717329183"><ele>93.5</ele><time>2026-03-30T10:45:32.999Z</time></trkpt><trkpt lat="45.40874157844013" lon="10.682254757056347"><ele>93.0</ele><time>2026-03-30T10:45:33.999Z</time></trkpt><trkpt lat="45.40868945221046" lon="10.682439774275473"><ele>92.5</ele><time>2026-03-30T10:45:34.999Z</time></trkpt><trkpt lat="45.40864181786276" lon="10.682648316739645"><ele>92.0</ele><time>2026-03-30T10:45:35.999Z</time></trkpt><trkpt lat="45.4085575274852" lon="10.682842443733652"><ele>91.33333333333334</ele><time>2026-03-30T10:45:36.999Z</time></trkpt><trkpt lat="45.408495784761534" lon="10.683046241211857"><ele>90.66666666666667</ele><time>2026-03-30T10:45:37.999Z</time></trkpt><trkpt lat="45.40842273533965" lon="10.683244030854635"><ele>90.0</ele><time>2026-03-30T10:45:38.999Z</time></trkpt><trkpt lat="45.408357245031425" lon="10.683444851666273"><ele>90.33333333333333</ele><time>2026-03-30T10:45:39.999Z</time></trkpt><trkpt lat="45.408295976666786" lon="10.683677830716118"><ele>90.66666666666666</ele><time>2026-03-30T10:45:40.999Z</time></trkpt><trkpt lat="45.408244854440994" lon="10.683912627404254"><ele>91.0</ele><time>2026-03-30T10:45:41.999Z</time></trkpt><trkpt lat="45.40819813706222" lon="10.684127006677663"><ele>91.0</ele><time>2026-03-30T10:45:42.999Z</time></trkpt><trkpt lat="45.40816216866057" lon="10.684298348516807"><ele>91.0</ele><time>2026-03-30T10:45:43.999Z</time></trkpt><trkpt lat="45.408144213207486" lon="10.684449245816438"><ele>91.0</ele><time>2026-03-30T10:45:44.999Z</time></trkpt><trkpt lat="45.40814405124134" lon="10.684579121580374"><ele>91.0</ele><time>2026-03-30T10:45:45.999Z</time></trkpt><trkpt lat="45.408157710974585" lon="10.684676469050292"><ele>91.0</ele><time>2026-03-30T10:45:46.999Z</time></trkpt><trkpt lat="45.40818981281023" lon="10.684810384759425"><ele>91.4</ele><time>2026-03-30T10:45:48.999Z</time></trkpt><trkpt lat="45.40808074770582" lon="10.684896907268987"><ele>91.8</ele><time>2026-03-30T10:45:51.999Z</time></trkpt><trkpt lat="45.40798646740731" lon="10.684903758942845"><ele>92.2</ele><time>2026-03-30T10:45:52.999Z</time></trkpt><trkpt lat="45.407890637059474" lon="10.68491388746081"><ele>92.60000000000001</ele><time>2026-03-30T10:45:53.999Z</time></trkpt><trkpt lat="45.40781093285807" lon="10.684928633316952"><ele>93.0</ele><time>2026-03-30T10:45:54.999Z</time></trkpt><trkpt lat="45.40768942572999" lon="10.684976363135672"><ele>93.0</ele><time>2026-03-30T10:45:56.999Z</time></trkpt><trkpt lat="45.407576499313514" lon="10.684996806862143"><ele>93.0</ele><time>2026-03-30T10:45:58.999Z</time></trkpt><trkpt lat="45.407509306091065" lon="10.685004037133067"><ele>93.0</ele><time>2026-03-30T10:45:59.999Z</time></trkpt><trkpt lat="45.407440185373716" lon="10.684996024242269"><ele>93.0</ele><time>2026-03-30T10:46:00.999Z</time></trkpt><trkpt lat="45.40737655616066" lon="10.684991873262542"><ele>93.0</ele><time>2026-03-30T10:46:01.999Z</time></trkpt><trkpt lat="45.40729510278437" lon="10.684988623658258"><ele>93.0</ele><time>2026-03-30T10:46:02.999Z</time></trkpt><trkpt lat="45.40722718895362" lon="10.684985066071599"><ele>91.83333333333333</ele><time>2026-03-30T10:46:03.999Z</time></trkpt><trkpt lat="45.407157027740816" lon="10.684962120176264"><ele>90.66666666666667</ele><time>2026-03-30T10:46:04.999Z</time></trkpt><trkpt lat="45.40709033223465" lon="10.684910252368855"><ele>89.5</ele><time>2026-03-30T10:46:05.999Z</time></trkpt><trkpt lat="45.40703579296071" lon="10.684857658514998"><ele>88.33333333333334</ele><time>2026-03-30T10:46:06.999Z</time></trkpt><trkpt lat="45.406944495347815" lon="10.68477195502224"><ele>87.16666666666667</ele><time>2026-03-30T10:46:08.999Z</time></trkpt><trkpt lat="45.40687219454445" lon="10.684712594073293"><ele>86.0</ele><time>2026-03-30T10:46:10.999Z</time></trkpt><trkpt lat="45.406807266630075" lon="10.68465031129791"><ele>86.0</ele><time>2026-03-30T10:46:13.999Z</time></trkpt><trkpt lat="45.40672751815236" lon="10.684639491640386"><ele>86.0</ele><time>2026-03-30T10:48:20.999Z</time></trkpt><trkpt lat="45.40667241269101" lon="10.684585071606971"><ele>86.0</ele><time>2026-03-30T10:48:24.999Z</time></trkpt><trkpt lat="45.40659058018349" lon="10.684516219909042"><ele>86.0</ele><time>2026-03-30T10:48:28.999Z</time></trkpt><trkpt lat="45.406525606557835" lon="10.684461954962128"><ele>86.0</ele><time>2026-03-30T10:48:31.999Z</time></trkpt><trkpt lat="45.40644957038808" lon="10.684448756067873"><ele>86.0</ele><time>2026-03-30T10:48:33.999Z</time></trkpt><trkpt lat="45.40635828597985" lon="10.684510421176581"><ele>86.33333333333334</ele><time>2026-03-30T10:48:36Z</time></trkpt><trkpt lat="45.40628950267856" lon="10.684536737156801"><ele>86.66666666666667</ele><time>2026-03-30T10:48:37Z</time></trkpt><trkpt lat="45.406207399831715" lon="10.684563803534699"><ele>87.0</ele><time>2026-03-30T10:48:38Z</time></trkpt><trkpt lat="45.40610967572653" lon="10.684586165537688"><ele>87.33333333333333</ele><time>2026-03-30T10:48:39Z</time></trkpt><trkpt lat="45.40604044115556" lon="10.684622380403079"><ele>87.66666666666666</ele><time>2026-03-30T10:48:40Z</time></trkpt><trkpt lat="45.40595871210116" lon="10.684670346222823"><ele>88.0</ele><time>2026-03-30T10:48:41Z</time></trkpt><trkpt lat="45.405860932525925" lon="10.684719592351753"><ele>88.0</ele><time>2026-03-30T10:48:42Z</time></trkpt><trkpt lat="45.4057599737995" lon="10.684774441003821"><ele>88.0</ele><time>2026-03-30T10:48:43Z</time></trkpt><trkpt lat="45.40565369964683" lon="10.684839519083397"><ele>88.0</ele><time>2026-03-30T10:48:44Z</time></trkpt><trkpt lat="45.405557825314304" lon="10.684906560774888"><ele>88.0</ele><time>2026-03-30T10:48:45Z</time></trkpt><trkpt lat="45.40547602661871" lon="10.684958177132351"><ele>88.0</ele><time>2026-03-30T10:48:46Z</time></trkpt><trkpt lat="45.40538886285695" lon="10.685019517490934"><ele>88.5</ele><time>2026-03-30T10:48:47Z</time></trkpt><trkpt lat="45.405314165368715" lon="10.68507518323472"><ele>89.0</ele><time>2026-03-30T10:48:48Z</time></trkpt><trkpt lat="45.40524884960765" lon="10.685140310051583"><ele>89.5</ele><time>2026-03-30T10:48:49Z</time></trkpt><trkpt lat="45.40519675440583" lon="10.685217441144282"><ele>90.0</ele><time>2026-03-30T10:48:50Z</time></trkpt><trkpt lat="45.40515319412725" lon="10.68529858337371"><ele>90.5</ele><time>2026-03-30T10:48:51Z</time></trkpt><trkpt lat="45.40511581386608" lon="10.685390296833734"><ele>91.0</ele><time>2026-03-30T10:48:52Z</time></trkpt><trkpt lat="45.40508485660213" lon="10.685484059376334"><ele>91.8</ele><time>2026-03-30T10:48:53Z</time></trkpt><trkpt lat="45.40504050852186" lon="10.68556681934086"><ele>92.6</ele><time>2026-03-30T10:48:54Z</time></trkpt><trkpt lat="45.404955135537534" lon="10.685620657841406"><ele>93.4</ele><time>2026-03-30T10:48:56Z</time></trkpt><trkpt lat="45.40507102925273" lon="10.685766448379079"><ele>94.2</ele><time>2026-03-30T10:49:00Z</time></trkpt><trkpt lat="45.405133045127506" lon="10.685804183001661"><ele>95.0</ele><time>2026-03-30T10:49:01Z</time></trkpt><trkpt lat="45.40520978408861" lon="10.685862162143565"><ele>95.0</ele><time>2026-03-30T10:49:02Z</time></trkpt><trkpt lat="45.405282832388494" lon="10.685942279496544"><ele>95.0</ele><time>2026-03-30T10:49:03Z</time></trkpt><trkpt lat="45.40536831708679" lon="10.686047083584617"><ele>95.0</ele><time>2026-03-30T10:49:04Z</time></trkpt><trkpt lat="45.405452631670364" lon="10.686145320944915"><ele>95.0</ele><time>2026-03-30T10:49:05Z</time></trkpt><trkpt lat="45.40554047681495" lon="10.68625326711905"><ele>95.0</ele><time>2026-03-30T10:49:06Z</time></trkpt><trkpt lat="45.40561432946898" lon="10.686359181589117"><ele>94.8</ele><time>2026-03-30T10:49:07Z</time></trkpt><trkpt lat="45.40568438218483" lon="10.686458258009491"><ele>94.6</ele><time>2026-03-30T10:49:08Z</time></trkpt><trkpt lat="45.40575806206796" lon="10.686560492969365"><ele>94.4</ele><time>2026-03-30T10:49:09Z</time></trkpt><trkpt lat="45.40583206008688" lon="10.686666847855092"><ele>94.2</ele><time>2026-03-30T10:49:10Z</time></trkpt><trkpt lat="45.40589046219487" lon="10.68679619144492"><ele>94.0</ele><time>2026-03-30T10:49:11Z</time></trkpt><trkpt lat="45.40594856682999" lon="10.686951124846658"><ele>95.25</ele><time>2026-03-30T10:49:12Z</time></trkpt><trkpt lat="45.405984763761644" lon="10.687116837660055"><ele>96.5</ele><time>2026-03-30T10:49:13Z</time></trkpt><trkpt lat="45.406010225041086" lon="10.68727914135689"><ele>97.75</ele><time>2026-03-30T10:49:14Z</time></trkpt><trkpt lat="45.406027927885674" lon="10.687443235958021"><ele>99.0</ele><time>2026-03-30T10:49:15Z</time></trkpt><trkpt lat="45.405987455061414" lon="10.687604928297443"><ele>99.0</ele><time>2026-03-30T10:49:16Z</time></trkpt><trkpt lat="45.40595146799167" lon="10.68775429681827"><ele>99.0</ele><time>2026-03-30T10:49:17Z</time></trkpt><trkpt lat="45.405915007316345" lon="10.687903945562208"><ele>99.0</ele><time>2026-03-30T10:49:18Z</time></trkpt><trkpt lat="45.40587716636899" lon="10.688046388707875"><ele>99.0</ele><time>2026-03-30T10:49:19Z</time></trkpt><trkpt lat="45.40582087667631" lon="10.688200266809687"><ele>97.5</ele><time>2026-03-30T10:49:20Z</time></trkpt><trkpt lat="45.405756741251004" lon="10.688363433633082"><ele>96.0</ele><time>2026-03-30T10:49:21Z</time></trkpt><trkpt lat="45.40570536030718" lon="10.688504792185764"><ele>94.5</ele><time>2026-03-30T10:49:22Z</time></trkpt><trkpt lat="45.40568424334662" lon="10.688682492110365"><ele>93.0</ele><time>2026-03-30T10:49:23Z</time></trkpt><trkpt lat="45.40565337284879" lon="10.688872545913132"><ele>90.66666666666667</ele><time>2026-03-30T10:49:24Z</time></trkpt><trkpt lat="45.405605280679595" lon="10.689095359812834"><ele>88.33333333333334</ele><time>2026-03-30T10:49:25Z</time></trkpt><trkpt lat="45.40556630274875" lon="10.689328936340413"><ele>86.0</ele><time>2026-03-30T10:49:26Z</time></trkpt><trkpt lat="45.40552888359793" lon="10.689551978164099"><ele>85.75</ele><time>2026-03-30T10:49:27Z</time></trkpt><trkpt lat="45.405508043158356" lon="10.689759338020803"><ele>85.5</ele><time>2026-03-30T10:49:28Z</time></trkpt><trkpt lat="45.405474371370204" lon="10.689950279324336"><ele>85.25</ele><time>2026-03-30T10:49:29Z</time></trkpt><trkpt lat="45.405446825964006" lon="10.690119330486812"><ele>85.0</ele><time>2026-03-30T10:49:30Z</time></trkpt><trkpt lat="45.4054217157874" lon="10.690263017951567"><ele>85.0</ele><time>2026-03-30T10:49:31Z</time></trkpt><trkpt lat="45.40539599820585" lon="10.690382483919297"><ele>85.0</ele><time>2026-03-30T10:49:32Z</time></trkpt><trkpt lat="45.40538472304186" lon="10.690476825869318"><ele>85.0</ele><time>2026-03-30T10:49:33Z</time></trkpt><trkpt lat="45.40539199733646" lon="10.690576832376761"><ele>85.0</ele><time>2026-03-30T10:49:35Z</time></trkpt><trkpt lat="45.405401261295545" lon="10.690713573600323"><ele>85.0</ele><time>2026-03-30T10:49:37Z</time></trkpt><trkpt lat="45.40548662512495" lon="10.690799791977765"><ele>85.0</ele><time>2026-03-30T10:49:38Z</time></trkpt><trkpt lat="45.40556053499012" lon="10.690867305057692"><ele>85.0</ele><time>2026-03-30T10:49:39Z</time></trkpt><trkpt lat="45.40562276044809" lon="10.69093437659945"><ele>85.0</ele><time>2026-03-30T10:49:40Z</time></trkpt><trkpt lat="45.40565511751145" lon="10.691110370949698"><ele>85.0</ele><time>2026-03-30T10:49:42Z</time></trkpt><trkpt lat="45.40561702193176" lon="10.691198286095982"><ele>85.0</ele><time>2026-03-30T10:49:43Z</time></trkpt><trkpt lat="45.40559857692295" lon="10.691341313822736"><ele>85.0</ele><time>2026-03-30T10:49:45Z</time></trkpt><trkpt lat="45.405720978341265" lon="10.691472331989946"><ele>84.6</ele><time>2026-03-30T10:49:47Z</time></trkpt><trkpt lat="45.40578921948306" lon="10.691511050302127"><ele>84.2</ele><time>2026-03-30T10:49:48Z</time></trkpt><trkpt lat="45.40585279533456" lon="10.691547176179732"><ele>83.80000000000001</ele><time>2026-03-30T10:49:49Z</time></trkpt><trkpt lat="45.40595959528373" lon="10.691628284920004"><ele>83.4</ele><time>2026-03-30T10:49:51Z</time></trkpt><trkpt lat="45.406034786195534" lon="10.691761081762756"><ele>83.0</ele><time>2026-03-30T10:49:53Z</time></trkpt><trkpt lat="45.40606749258742" lon="10.691926044162399"><ele>82.83333333333334</ele><time>2026-03-30T10:49:54.999Z</time></trkpt><trkpt lat="45.40610643994957" lon="10.692039529254227"><ele>82.66666666666667</ele><time>2026-03-30T10:49:56.999Z</time></trkpt><trkpt lat="45.406170470320596" lon="10.692116775132737"><ele>82.5</ele><time>2026-03-30T10:49:59.999Z</time></trkpt><trkpt lat="45.406236004952326" lon="10.692136072585697"><ele>82.33333333333333</ele><time>2026-03-30T10:50:02.999Z</time></trkpt><trkpt lat="45.40630301815544" lon="10.692097308031661"><ele>82.16666666666666</ele><time>2026-03-30T10:50:06.999Z</time></trkpt><trkpt lat="45.40639043140121" lon="10.692068154142614"><ele>82.0</ele><time>2026-03-30T10:50:10.999Z</time></trkpt><trkpt lat="45.4064736277884" lon="10.691928615908756"><ele>81.6</ele><time>2026-03-30T10:50:12.999Z</time></trkpt><trkpt lat="45.4064962036089" lon="10.691802813196137"><ele>81.19999999999999</ele><time>2026-03-30T10:50:13.999Z</time></trkpt><trkpt lat="45.40651380512424" lon="10.691675819365459"><ele>80.8</ele><time>2026-03-30T10:50:14.999Z</time></trkpt><trkpt lat="45.40654681643266" lon="10.691565908719891"><ele>80.4</ele><time>2026-03-30T10:50:15.999Z</time></trkpt><trkpt lat="45.40659935200866" lon="10.69149934291327"><ele>80.0</ele><time>2026-03-30T10:50:16.999Z</time></trkpt><trkpt lat="45.406768478656176" lon="10.691473018743896"><ele>80.0</ele><time>2026-03-30T10:50:18.999Z</time></trkpt><trkpt lat="45.40687875769981" lon="10.691513782392459"><ele>80.0</ele><time>2026-03-30T10:50:19.999Z</time></trkpt><trkpt lat="45.407009698260865" lon="10.691576275195729"><ele>80.0</ele><time>2026-03-30T10:50:20.999Z</time></trkpt><trkpt lat="45.40716129772106" lon="10.691653023002278"><ele>80.0</ele><time>2026-03-30T10:50:21.999Z</time></trkpt><trkpt lat="45.40734338103341" lon="10.691745524585292"><ele>79.66666666666667</ele><time>2026-03-30T10:50:22.999Z</time></trkpt><trkpt lat="45.40753486793928" lon="10.691845031545686"><ele>79.33333333333333</ele><time>2026-03-30T10:50:23.999Z</time></trkpt><trkpt lat="45.40775103936604" lon="10.691957409404091"><ele>79.0</ele><time>2026-03-30T10:50:24.999Z</time></trkpt><trkpt lat="45.40798353997335" lon="10.692083364923862"><ele>80.5</ele><time>2026-03-30T10:50:25.999Z</time></trkpt><trkpt lat="45.40821236486559" lon="10.692205922723973"><ele>82.0</ele><time>2026-03-30T10:50:26.999Z</time></trkpt><trkpt lat="45.4084151214121" lon="10.692311211022124"><ele>82.0</ele><time>2026-03-30T10:50:27.999Z</time></trkpt><trkpt lat="45.408601293479826" lon="10.692405928321618"><ele>82.0</ele><time>2026-03-30T10:50:28.999Z</time></trkpt><trkpt lat="45.40876208112941" lon="10.692493762899554"><ele>82.0</ele><time>2026-03-30T10:50:29.999Z</time></trkpt><trkpt lat="45.408890526882985" lon="10.692578644832398"><ele>82.5</ele><time>2026-03-30T10:50:30.999Z</time></trkpt><trkpt lat="45.40899876006352" lon="10.69267536681615"><ele>83.0</ele><time>2026-03-30T10:50:31.999Z</time></trkpt><trkpt lat="45.40908459307671" lon="10.692795659325768"><ele>83.5</ele><time>2026-03-30T10:50:32.999Z</time></trkpt><trkpt lat="45.409146921642424" lon="10.692930490197748"><ele>84.0</ele><time>2026-03-30T10:50:33.999Z</time></trkpt><trkpt lat="45.409187461752104" lon="10.693068371826083"><ele>84.2</ele><time>2026-03-30T10:50:34.999Z</time></trkpt><trkpt lat="45.409214229344535" lon="10.69320219950822"><ele>84.4</ele><time>2026-03-30T10:50:35.999Z</time></trkpt><trkpt lat="45.409231209626164" lon="10.693315253985899"><ele>84.6</ele><time>2026-03-30T10:50:36.999Z</time></trkpt><trkpt lat="45.409374180417906" lon="10.693316216248636"><ele>84.8</ele><time>2026-03-30T10:50:41Z</time></trkpt><trkpt lat="45.40941882802557" lon="10.693218691588344"><ele>85.0</ele><time>2026-03-30T10:50:42Z</time></trkpt><trkpt lat="45.40942986854196" lon="10.693070760762312"><ele>85.0</ele><time>2026-03-30T10:50:43Z</time></trkpt><trkpt lat="45.409470360534144" lon="10.692924416758686"><ele>85.0</ele><time>2026-03-30T10:50:44Z</time></trkpt><trkpt lat="45.40951884192422" lon="10.692763397182114"><ele>85.0</ele><time>2026-03-30T10:50:45Z</time></trkpt><trkpt lat="45.40957197603884" lon="10.692588612408116"><ele>85.0</ele><time>2026-03-30T10:50:46Z</time></trkpt><trkpt lat="45.40963011451018" lon="10.692408989279578"><ele>85.0</ele><time>2026-03-30T10:50:47Z</time></trkpt><trkpt lat="45.40969413356887" lon="10.692230212933993"><ele>85.0</ele><time>2026-03-30T10:50:48Z</time></trkpt><trkpt lat="45.409780479092916" lon="10.692062547212382"><ele>85.0</ele><time>2026-03-30T10:50:49Z</time></trkpt><trkpt lat="45.40986193701418" lon="10.691889605028631"><ele>85.0</ele><time>2026-03-30T10:50:50Z</time></trkpt><trkpt lat="45.409937984447225" lon="10.691700913557247"><ele>85.0</ele><time>2026-03-30T10:50:51Z</time></trkpt><trkpt lat="45.41002233885705" lon="10.691545178570266"><ele>85.0</ele><time>2026-03-30T10:50:52Z</time></trkpt><trkpt lat="45.4101410335077" lon="10.691403580987084"><ele>85.0</ele><time>2026-03-30T10:50:53Z</time></trkpt><trkpt lat="45.41028399648254" lon="10.691224727403299"><ele>84.33333333333333</ele><time>2026-03-30T10:50:54Z</time></trkpt><trkpt lat="45.41042147340356" lon="10.691061691561451"><ele>83.66666666666667</ele><time>2026-03-30T10:50:55Z</time></trkpt><trkpt lat="45.41053869511118" lon="10.690907096177376"><ele>83.0</ele><time>2026-03-30T10:50:56Z</time></trkpt><trkpt lat="45.41068149782829" lon="10.69078119571336"><ele>83.0</ele><time>2026-03-30T10:50:57Z</time></trkpt><trkpt lat="45.41085082491271" lon="10.690684416280423"><ele>83.0</ele><time>2026-03-30T10:50:58Z</time></trkpt><trkpt lat="45.41101290261281" lon="10.690628914510429"><ele>83.0</ele><time>2026-03-30T10:50:59Z</time></trkpt><trkpt lat="45.41115690032636" lon="10.690585285941154"><ele>83.0</ele><time>2026-03-30T10:51:00Z</time></trkpt><trkpt lat="45.41128453232977" lon="10.690543866465994"><ele>83.0</ele><time>2026-03-30T10:51:01Z</time></trkpt><trkpt lat="45.41139389186562" lon="10.690508437821014"><ele>83.0</ele><time>2026-03-30T10:51:02Z</time></trkpt><trkpt lat="45.41148438891206" lon="10.690480853905772"><ele>83.0</ele><time>2026-03-30T10:51:03Z</time></trkpt><trkpt lat="45.41156091908503" lon="10.690459444027347"><ele>83.0</ele><time>2026-03-30T10:51:04Z</time></trkpt><trkpt lat="45.411625680525056" lon="10.690438435232643"><ele>83.33333333333334</ele><time>2026-03-30T10:51:05Z</time></trkpt><trkpt lat="45.41171647198207" lon="10.69040097614422"><ele>83.66666666666667</ele><time>2026-03-30T10:51:07Z</time></trkpt><trkpt lat="45.41178039008138" lon="10.69031822357592"><ele>84.0</ele><time>2026-03-30T10:51:09Z</time></trkpt><trkpt lat="45.41182585115313" lon="10.690229559449026"><ele>84.33333333333333</ele><time>2026-03-30T10:51:10Z</time></trkpt><trkpt lat="45.41183408801639" lon="10.690107185441253"><ele>84.66666666666666</ele><time>2026-03-30T10:51:11Z</time></trkpt><trkpt lat="45.41185767688069" lon="10.689997304029808"><ele>85.0</ele><time>2026-03-30T10:51:12Z</time></trkpt><trkpt lat="45.41187907415252" lon="10.689902897597259"><ele>85.0</ele><time>2026-03-30T10:51:13Z</time></trkpt><trkpt lat="45.411903579499246" lon="10.689814856827095"><ele>85.0</ele><time>2026-03-30T10:51:14Z</time></trkpt><trkpt lat="45.411962442307214" lon="10.689698452344386"><ele>85.0</ele><time>2026-03-30T10:51:16Z</time></trkpt><trkpt lat="45.41208810948292" lon="10.689705913004799"><ele>85.0</ele><time>2026-03-30T10:51:17Z</time></trkpt><trkpt lat="45.412181640661956" lon="10.689690572024643"><ele>85.0</ele><time>2026-03-30T10:51:18Z</time></trkpt><trkpt lat="45.41228722708251" lon="10.689668544904604"><ele>85.75</ele><time>2026-03-30T10:51:19Z</time></trkpt><trkpt lat="45.41239485826649" lon="10.689645393226892"><ele>86.5</ele><time>2026-03-30T10:51:20Z</time></trkpt><trkpt lat="45.412512171557026" lon="10.689614065591952"><ele>87.25</ele><time>2026-03-30T10:51:21Z</time></trkpt><trkpt lat="45.41264723625655" lon="10.689592007344668"><ele>88.0</ele><time>2026-03-30T10:51:22Z</time></trkpt><trkpt lat="45.4128082187083" lon="10.689598918422714"><ele>88.0</ele><time>2026-03-30T10:51:23Z</time></trkpt><trkpt lat="45.41298844374297" lon="10.689626265371153"><ele>88.0</ele><time>2026-03-30T10:51:24Z</time></trkpt><trkpt lat="45.413172712252006" lon="10.689672176174199"><ele>88.0</ele><time>2026-03-30T10:51:25Z</time></trkpt><trkpt lat="45.41336597616757" lon="10.689727855922756"><ele>88.66666666666666</ele><time>2026-03-30T10:51:26Z</time></trkpt><trkpt lat="45.413556471175056" lon="10.689775218504876"><ele>89.33333333333333</ele><time>2026-03-30T10:51:27Z</time></trkpt><trkpt lat="45.413733220270665" lon="10.689821181673391"><ele>90.0</ele><time>2026-03-30T10:51:28Z</time></trkpt><trkpt lat="45.413922738867974" lon="10.689861665367303"><ele>90.0</ele><time>2026-03-30T10:51:29Z</time></trkpt><trkpt lat="45.41412129974064" lon="10.689901839254187"><ele>90.0</ele><time>2026-03-30T10:51:30Z</time></trkpt><trkpt lat="45.41429933539288" lon="10.689939865454688"><ele>90.0</ele><time>2026-03-30T10:51:31Z</time></trkpt><trkpt lat="45.414478951902524" lon="10.689977170614657"><ele>90.0</ele><time>2026-03-30T10:51:32Z</time></trkpt><trkpt lat="45.414645885945156" lon="10.690011710059496"><ele>90.0</ele><time>2026-03-30T10:51:33Z</time></trkpt><trkpt lat="45.414800110061385" lon="10.69003684456826"><ele>90.0</ele><time>2026-03-30T10:51:34Z</time></trkpt><trkpt lat="45.414951374209565" lon="10.690064446151716"><ele>89.66666666666667</ele><time>2026-03-30T10:51:35Z</time></trkpt><trkpt lat="45.41511717136565" lon="10.690100546549298"><ele>89.33333333333334</ele><time>2026-03-30T10:51:36Z</time></trkpt><trkpt lat="45.41528838268121" lon="10.690142519654941"><ele>89.0</ele><time>2026-03-30T10:51:37Z</time></trkpt><trkpt lat="45.41547060380559" lon="10.690200425233886"><ele>93.66666666666667</ele><time>2026-03-30T10:51:38Z</time></trkpt><trkpt lat="45.41567076833942" lon="10.690272827895239"><ele>98.33333333333334</ele><time>2026-03-30T10:51:39Z</time></trkpt><trkpt lat="45.41587232320354" lon="10.690362496009843"><ele>103.0</ele><time>2026-03-30T10:51:40Z</time></trkpt><trkpt lat="45.41605016143942" lon="10.690447967939146"><ele>103.0</ele><time>2026-03-30T10:51:41Z</time></trkpt><trkpt lat="45.416218501686046" lon="10.69053657673616"><ele>103.0</ele><time>2026-03-30T10:51:42Z</time></trkpt><trkpt lat="45.416371926117094" lon="10.690641978814407"><ele>103.0</ele><time>2026-03-30T10:51:43Z</time></trkpt><trkpt lat="45.416507222071246" lon="10.690743546957844"><ele>101.4</ele><time>2026-03-30T10:51:44Z</time></trkpt><trkpt lat="45.41660630482613" lon="10.690857088024215"><ele>99.80000000000001</ele><time>2026-03-30T10:51:45Z</time></trkpt><trkpt lat="45.41667524318475" lon="10.69098581779237"><ele>98.2</ele><time>2026-03-30T10:51:46Z</time></trkpt><trkpt lat="45.41671890380286" lon="10.69111630438271"><ele>96.6</ele><time>2026-03-30T10:51:47Z</time></trkpt><trkpt lat="45.416732481746564" lon="10.691257184395829"><ele>95.0</ele><time>2026-03-30T10:51:48Z</time></trkpt><trkpt lat="45.416737865277156" lon="10.691376939115683"><ele>95.0</ele><time>2026-03-30T10:51:49Z</time></trkpt><trkpt lat="45.41673031034532" lon="10.69149767275845"><ele>95.0</ele><time>2026-03-30T10:51:50Z</time></trkpt><trkpt lat="45.41673100408171" lon="10.691591819432594"><ele>95.0</ele><time>2026-03-30T10:51:51Z</time></trkpt><trkpt lat="45.41673382846618" lon="10.69176044796127"><ele>95.0</ele><time>2026-03-30T10:51:53Z</time></trkpt><trkpt lat="45.416885376931056" lon="10.691893881014398"><ele>95.0</ele><time>2026-03-30T10:51:55Z</time></trkpt><trkpt lat="45.41697074197222" lon="10.691967556844917"><ele>95.2</ele><time>2026-03-30T10:51:56Z</time></trkpt><trkpt lat="45.41704857057586" lon="10.692041361336615"><ele>95.4</ele><time>2026-03-30T10:51:56.999Z</time></trkpt><trkpt lat="45.41714998220804" lon="10.692109860177496"><ele>95.6</ele><time>2026-03-30T10:51:57.999Z</time></trkpt><trkpt lat="45.41726312697045" lon="10.692160546688212"><ele>95.8</ele><time>2026-03-30T10:51:58.999Z</time></trkpt><trkpt lat="45.41737469926065" lon="10.692203730991038"><ele>96.0</ele><time>2026-03-30T10:51:59.999Z</time></trkpt><trkpt lat="45.41746799191633" lon="10.692250963529405"><ele>94.6</ele><time>2026-03-30T10:52:00.999Z</time></trkpt><trkpt lat="45.41756543939896" lon="10.692311638944396"><ele>93.19999999999999</ele><time>2026-03-30T10:52:01.999Z</time></trkpt><trkpt lat="45.41766094667134" lon="10.692378916857784"><ele>91.80000000000001</ele><time>2026-03-30T10:52:02.999Z</time></trkpt><trkpt lat="45.417758064100376" lon="10.692447750419182"><ele>90.4</ele><time>2026-03-30T10:52:03.999Z</time></trkpt><trkpt lat="45.417861727664224" lon="10.692526809468228"><ele>89.0</ele><time>2026-03-30T10:52:04.999Z</time></trkpt><trkpt lat="45.41794993695486" lon="10.692615286556094"><ele>89.5</ele><time>2026-03-30T10:52:05.999Z</time></trkpt><trkpt lat="45.41804731518373" lon="10.69270551431948"><ele>90.0</ele><time>2026-03-30T10:52:06.999Z</time></trkpt><trkpt lat="45.418147591605475" lon="10.692779617308632"><ele>90.5</ele><time>2026-03-30T10:52:07.999Z</time></trkpt><trkpt lat="45.41826361480758" lon="10.69279938024576"><ele>91.0</ele><time>2026-03-30T10:52:08.999Z</time></trkpt><trkpt lat="45.41841451470711" lon="10.692778979687324"><ele>91.33333333333333</ele><time>2026-03-30T10:52:09.999Z</time></trkpt><trkpt lat="45.418557706111166" lon="10.692753223572895"><ele>91.66666666666667</ele><time>2026-03-30T10:52:10.999Z</time></trkpt><trkpt lat="45.41871952483811" lon="10.692726674092743"><ele>92.0</ele><time>2026-03-30T10:52:11.999Z</time></trkpt><trkpt lat="45.41886909602102" lon="10.692708009645536"><ele>93.0</ele><time>2026-03-30T10:52:12.999Z</time></trkpt><trkpt lat="45.41901046769503" lon="10.69270234043977"><ele>94.0</ele><time>2026-03-30T10:52:13.999Z</time></trkpt><trkpt lat="45.41913729189447" lon="10.692692584296177"><ele>95.0</ele><time>2026-03-30T10:52:14.999Z</time></trkpt><trkpt lat="45.419266654486904" lon="10.692672869067666"><ele>96.0</ele><time>2026-03-30T10:52:15.999Z</time></trkpt><trkpt lat="45.41935975866419" lon="10.69266011519669"><ele>96.0</ele><time>2026-03-30T10:52:16.999Z</time></trkpt><trkpt lat="45.41944197229725" lon="10.692674598347402"><ele>96.0</ele><time>2026-03-30T10:52:17.999Z</time></trkpt><trkpt lat="45.41951821804544" lon="10.692702822274393"><ele>96.0</ele><time>2026-03-30T10:52:18.999Z</time></trkpt><trkpt lat="45.41956287264854" lon="10.692770612297805"><ele>96.0</ele><time>2026-03-30T10:52:19.999Z</time></trkpt><trkpt lat="45.4196570119492" lon="10.69286354703806"><ele>96.0</ele><time>2026-03-30T10:52:20.999Z</time></trkpt><trkpt lat="45.41976624755384" lon="10.692954665541103"><ele>96.5</ele><time>2026-03-30T10:52:21.999Z</time></trkpt><trkpt lat="45.41987004936008" lon="10.69306294373061"><ele>97.0</ele><time>2026-03-30T10:52:22.999Z</time></trkpt><trkpt lat="45.4199629876701" lon="10.693163779998056"><ele>97.5</ele><time>2026-03-30T10:52:23.999Z</time></trkpt><trkpt lat="45.4200620101598" lon="10.693252741362551"><ele>98.0</ele><time>2026-03-30T10:52:24.999Z</time></trkpt><trkpt lat="45.42014037772883" lon="10.693314886944648"><ele>97.99999999999999</ele><time>2026-03-30T10:52:25.999Z</time></trkpt><trkpt lat="45.42020921681124" lon="10.693362542416105"><ele>98.0</ele><time>2026-03-30T10:52:26.999Z</time></trkpt><trkpt lat="45.42027761303252" lon="10.69339953039483"><ele>98.0</ele><time>2026-03-30T10:52:27.999Z</time></trkpt><trkpt lat="45.42037514722318" lon="10.693421774278125"><ele>98.0</ele><time>2026-03-30T10:52:29.999Z</time></trkpt><trkpt lat="45.42043662290217" lon="10.693385802088939"><ele>97.99999999999999</ele><time>2026-03-30T10:52:31.999Z</time></trkpt><trkpt lat="45.42050156854649" lon="10.693354568922505"><ele>98.0</ele><time>2026-03-30T10:52:33.999Z</time></trkpt><trkpt lat="45.420515347432804" lon="10.693203522734088"><ele>98.2</ele><time>2026-03-30T10:52:35.999Z</time></trkpt><trkpt lat="45.42064783820653" lon="10.693283587824332"><ele>98.4</ele><time>2026-03-30T10:52:36.999Z</time></trkpt><trkpt lat="45.420726054451315" lon="10.693308862662017"><ele>98.60000000000001</ele><time>2026-03-30T10:52:37.999Z</time></trkpt><trkpt lat="45.4208176715397" lon="10.693371688706243"><ele>98.80000000000001</ele><time>2026-03-30T10:52:38.999Z</time></trkpt><trkpt lat="45.42091981124605" lon="10.693430778398833"><ele>99.0</ele><time>2026-03-30T10:52:39.999Z</time></trkpt><trkpt lat="45.42102766894037" lon="10.69351042701346"><ele>99.0</ele><time>2026-03-30T10:52:40.999Z</time></trkpt><trkpt lat="45.42112297275508" lon="10.6935695341692"><ele>99.0</ele><time>2026-03-30T10:52:41.999Z</time></trkpt><trkpt lat="45.42120769218806" lon="10.69361030788864"><ele>99.0</ele><time>2026-03-30T10:52:42.999Z</time></trkpt><trkpt lat="45.421290312192234" lon="10.693671752578183"><ele>99.0</ele><time>2026-03-30T10:52:43.999Z</time></trkpt><trkpt lat="45.421365527635686" lon="10.693747950956974"><ele>99.0</ele><time>2026-03-30T10:52:44.999Z</time></trkpt><trkpt lat="45.42142260012841" lon="10.693853771576064"><ele>99.16666666666667</ele><time>2026-03-30T10:52:46Z</time></trkpt><trkpt lat="45.421483758877436" lon="10.693944744382762"><ele>99.33333333333334</ele><time>2026-03-30T10:52:47Z</time></trkpt><trkpt lat="45.421543667644265" lon="10.694008983203721"><ele>99.5</ele><time>2026-03-30T10:52:48Z</time></trkpt><trkpt lat="45.42160696825489" lon="10.694058358459305"><ele>99.66666666666667</ele><time>2026-03-30T10:52:49Z</time></trkpt><trkpt lat="45.421675627141994" lon="10.694123524047724"><ele>99.83333333333334</ele><time>2026-03-30T10:52:50Z</time></trkpt><trkpt lat="45.421735192957954" lon="10.694187545536861"><ele>100.0</ele><time>2026-03-30T10:52:51Z</time></trkpt><trkpt lat="45.42183101814483" lon="10.694283387568317"><ele>100.0</ele><time>2026-03-30T10:52:53Z</time></trkpt><trkpt lat="45.42192087788003" lon="10.69436754383692"><ele>100.0</ele><time>2026-03-30T10:52:55Z</time></trkpt><trkpt lat="45.42200149441493" lon="10.694469508048318"><ele>100.0</ele><time>2026-03-30T10:52:57Z</time></trkpt><trkpt lat="45.42209555786939" lon="10.694581184791067"><ele>100.0</ele><time>2026-03-30T10:52:59Z</time></trkpt><trkpt lat="45.42217050529933" lon="10.6946588926538"><ele>100.0</ele><time>2026-03-30T10:53:01Z</time></trkpt><trkpt lat="45.42223140845266" lon="10.694720255185437"><ele>98.50000000000001</ele><time>2026-03-30T10:53:03Z</time></trkpt><trkpt lat="45.42229451330992" lon="10.69477788619173"><ele>97.0</ele><time>2026-03-30T10:53:05Z</time></trkpt><trkpt lat="45.42235561296584" lon="10.69484201898443"><ele>95.5</ele><time>2026-03-30T10:53:07Z</time></trkpt><trkpt lat="45.42243142144778" lon="10.694920050740992"><ele>94.0</ele><time>2026-03-30T10:53:10Z</time></trkpt><trkpt lat="45.42248400318325" lon="10.695004733424744"><ele>92.5</ele><time>2026-03-30T10:53:13Z</time></trkpt><trkpt lat="45.42254719752109" lon="10.695024388307125"><ele>91.0</ele><time>2026-03-30T10:53:15Z</time></trkpt><trkpt lat="45.422623670641364" lon="10.694940471176533"><ele>91.0</ele><time>2026-03-30T10:53:17Z</time></trkpt><trkpt lat="45.4226718508833" lon="10.694877252969087"><ele>91.0</ele><time>2026-03-30T10:53:18Z</time></trkpt><trkpt lat="45.42271696066587" lon="10.694804801327301"><ele>91.0</ele><time>2026-03-30T10:53:19Z</time></trkpt><trkpt lat="45.42280725963946" lon="10.694707273795263"><ele>91.0</ele><time>2026-03-30T10:53:21Z</time></trkpt><trkpt lat="45.42292177849628" lon="10.694688987397894"><ele>91.0</ele><time>2026-03-30T10:53:23Z</time></trkpt><trkpt lat="45.422997655238355" lon="10.694688052552758"><ele>91.0</ele><time>2026-03-30T10:53:24Z</time></trkpt><trkpt lat="45.423091615750955" lon="10.694636101994721"><ele>90.16666666666666</ele><time>2026-03-30T10:53:26Z</time></trkpt><trkpt lat="45.42316146995413" lon="10.69453186740342"><ele>89.33333333333333</ele><time>2026-03-30T10:53:28Z</time></trkpt><trkpt lat="45.423205390255504" lon="10.694460678112124"><ele>88.5</ele><time>2026-03-30T10:53:29Z</time></trkpt><trkpt lat="45.4232794608315" lon="10.694306999837218"><ele>87.66666666666667</ele><time>2026-03-30T10:53:31Z</time></trkpt><trkpt lat="45.42331663290168" lon="10.69423095771144"><ele>86.83333333333334</ele><time>2026-03-30T10:53:32Z</time></trkpt><trkpt lat="45.423350251704676" lon="10.69415081361496"><ele>86.0</ele><time>2026-03-30T10:53:33Z</time></trkpt><trkpt lat="45.42340827655283" lon="10.693983916990824"><ele>86.0</ele><time>2026-03-30T10:53:35Z</time></trkpt><trkpt lat="45.4234407099124" lon="10.693889686054927"><ele>86.0</ele><time>2026-03-30T10:53:36Z</time></trkpt><trkpt lat="45.423477129041615" lon="10.693793551751446"><ele>86.0</ele><time>2026-03-30T10:53:37Z</time></trkpt><trkpt lat="45.423516868172584" lon="10.693693420073448"><ele>86.0</ele><time>2026-03-30T10:53:38Z</time></trkpt><trkpt lat="45.42354442535576" lon="10.693581466042188"><ele>86.0</ele><time>2026-03-30T10:53:39Z</time></trkpt><trkpt lat="45.423576951557635" lon="10.69348589413754"><ele>86.0</ele><time>2026-03-30T10:53:40Z</time></trkpt><trkpt lat="45.42362026773447" lon="10.69337688587417"><ele>85.19999999999999</ele><time>2026-03-30T10:53:41Z</time></trkpt><trkpt lat="45.42365794023787" lon="10.693249994954362"><ele>84.39999999999999</ele><time>2026-03-30T10:53:42Z</time></trkpt><trkpt lat="45.42369594889526" lon="10.693144190545013"><ele>83.6</ele><time>2026-03-30T10:53:43Z</time></trkpt><trkpt lat="45.42373883552347" lon="10.693006473572343"><ele>82.8</ele><time>2026-03-30T10:53:44Z</time></trkpt><trkpt lat="45.42378662602308" lon="10.692879993473987"><ele>82.0</ele><time>2026-03-30T10:53:45Z</time></trkpt><trkpt lat="45.42382969719838" lon="10.692769422854205"><ele>82.66666666666666</ele><time>2026-03-30T10:53:46Z</time></trkpt><trkpt lat="45.42387602044335" lon="10.692649253389195"><ele>83.33333333333333</ele><time>2026-03-30T10:53:47Z</time></trkpt><trkpt lat="45.42392179980305" lon="10.692549767399916"><ele>84.0</ele><time>2026-03-30T10:53:48Z</time></trkpt><trkpt lat="45.42394964491797" lon="10.692448504961947"><ele>84.66666666666667</ele><time>2026-03-30T10:53:49Z</time></trkpt><trkpt lat="45.423968594814475" lon="10.69233778441212"><ele>85.33333333333334</ele><time>2026-03-30T10:53:51Z</time></trkpt><trkpt lat="45.4239825219085" lon="10.692244839092558"><ele>86.0</ele><time>2026-03-30T10:53:54Z</time></trkpt><trkpt lat="45.42400921049352" lon="10.692157068808383"><ele>86.0</ele><time>2026-03-30T10:53:57Z</time></trkpt><trkpt lat="45.42404724737064" lon="10.692065820682377"><ele>86.0</ele><time>2026-03-30T10:54:02.999Z</time></trkpt><trkpt lat="45.424074122926456" lon="10.691983178096187"><ele>86.0</ele><time>2026-03-30T10:54:03.999Z</time></trkpt><trkpt lat="45.424108843557974" lon="10.691824474250682"><ele>86.0</ele><time>2026-03-30T10:54:05.999Z</time></trkpt><trkpt lat="45.42411628584117" lon="10.691714243164999"><ele>86.0</ele><time>2026-03-30T10:54:07.999Z</time></trkpt><trkpt lat="45.42408937477083" lon="10.691625182329943"><ele>86.0</ele><time>2026-03-30T10:54:09.999Z</time></trkpt><trkpt lat="45.42409288792504" lon="10.691520565925588"><ele>87.33333333333334</ele><time>2026-03-30T10:54:12.999Z</time></trkpt><trkpt lat="45.4241695800869" lon="10.691395353269348"><ele>88.66666666666667</ele><time>2026-03-30T10:54:14.999Z</time></trkpt><trkpt lat="45.424227642143286" lon="10.691324781437007"><ele>90.0</ele><time>2026-03-30T10:54:15.999Z</time></trkpt><trkpt lat="45.42427756254911" lon="10.691239065428906"><ele>91.33333333333333</ele><time>2026-03-30T10:54:16.999Z</time></trkpt><trkpt lat="45.42432879114403" lon="10.691142930792752"><ele>92.66666666666666</ele><time>2026-03-30T10:54:17.999Z</time></trkpt><trkpt lat="45.42438821076037" lon="10.691049892649655"><ele>94.0</ele><time>2026-03-30T10:54:18.999Z</time></trkpt><trkpt lat="45.42444703577904" lon="10.690963975420301"><ele>94.33333333333333</ele><time>2026-03-30T10:54:19.999Z</time></trkpt><trkpt lat="45.42451140378126" lon="10.690875943330493"><ele>94.66666666666666</ele><time>2026-03-30T10:54:20.999Z</time></trkpt><trkpt lat="45.42456564604822" lon="10.690804785719093"><ele>95.0</ele><time>2026-03-30T10:54:21.999Z</time></trkpt><trkpt lat="45.42461637641035" lon="10.690732236633696"><ele>95.33333333333333</ele><time>2026-03-30T10:54:22.999Z</time></trkpt><trkpt lat="45.42466441713893" lon="10.690667026799286"><ele>95.66666666666667</ele><time>2026-03-30T10:54:23.999Z</time></trkpt><trkpt lat="45.42471454688698" lon="10.690598918678939"><ele>96.0</ele><time>2026-03-30T10:54:24.999Z</time></trkpt><trkpt lat="45.42480265885135" lon="10.690483572026304"><ele>95.16666666666667</ele><time>2026-03-30T10:54:26.999Z</time></trkpt><trkpt lat="45.42487502673501" lon="10.690379220096245"><ele>94.33333333333333</ele><time>2026-03-30T10:54:28.999Z</time></trkpt><trkpt lat="45.42493576511596" lon="10.690326201010766"><ele>93.5</ele><time>2026-03-30T10:54:30.999Z</time></trkpt><trkpt lat="45.42499694938087" lon="10.690239849158132"><ele>92.66666666666666</ele><time>2026-03-30T10:54:32.999Z</time></trkpt><trkpt lat="45.42505531023951" lon="10.690157482233863"><ele>91.83333333333333</ele><time>2026-03-30T10:54:35.999Z</time></trkpt><trkpt lat="45.42511154051006" lon="10.690101972107904"><ele>91.0</ele><time>2026-03-30T10:54:40.999Z</time></trkpt><trkpt lat="45.42525200408522" lon="10.69021796446274"><ele>90.33333333333333</ele><time>2026-03-30T10:54:45.999Z</time></trkpt><trkpt lat="45.42530733400344" lon="10.690271699103684"><ele>89.66666666666666</ele><time>2026-03-30T10:54:46.999Z</time></trkpt><trkpt lat="45.42537337850039" lon="10.690329076398676"><ele>89.0</ele><time>2026-03-30T10:54:47.999Z</time></trkpt><trkpt lat="45.4254393378814" lon="10.690391351453918"><ele>88.33333333333333</ele><time>2026-03-30T10:54:48.999Z</time></trkpt><trkpt lat="45.425506049085264" lon="10.690462090571753"><ele>87.66666666666667</ele><time>2026-03-30T10:54:49.999Z</time></trkpt><trkpt lat="45.42557541266687" lon="10.690536857973543"><ele>87.0</ele><time>2026-03-30T10:54:50.999Z</time></trkpt><trkpt lat="45.425641395030716" lon="10.690614274028636"><ele>86.19999999999999</ele><time>2026-03-30T10:54:52Z</time></trkpt><trkpt lat="45.42570950613864" lon="10.690695076617473"><ele>85.4</ele><time>2026-03-30T10:54:53Z</time></trkpt><trkpt lat="45.42578530810381" lon="10.690777070445916"><ele>84.6</ele><time>2026-03-30T10:54:54Z</time></trkpt><trkpt lat="45.425857528253346" lon="10.690860306301781"><ele>83.80000000000001</ele><time>2026-03-30T10:54:55Z</time></trkpt><trkpt lat="45.42593241308728" lon="10.69094925350511"><ele>83.0</ele><time>2026-03-30T10:54:56Z</time></trkpt><trkpt lat="45.42601190699002" lon="10.69104302586961"><ele>83.0</ele><time>2026-03-30T10:54:57Z</time></trkpt><trkpt lat="45.42609122260013" lon="10.691145392002744"><ele>83.0</ele><time>2026-03-30T10:54:58Z</time></trkpt><trkpt lat="45.42616912051414" lon="10.691253226335068"><ele>83.0</ele><time>2026-03-30T10:54:59Z</time></trkpt><trkpt lat="45.426243031431845" lon="10.691366608432222"><ele>83.0</ele><time>2026-03-30T10:55:00Z</time></trkpt><trkpt lat="45.42631675024268" lon="10.691484279904492"><ele>83.0</ele><time>2026-03-30T10:55:01Z</time></trkpt><trkpt lat="45.42639043444393" lon="10.691599217637805"><ele>83.0</ele><time>2026-03-30T10:55:02Z</time></trkpt><trkpt lat="45.42646419494821" lon="10.691715780419853"><ele>83.0</ele><time>2026-03-30T10:55:03Z</time></trkpt><trkpt lat="45.42653501524322" lon="10.691826400611035"><ele>83.0</ele><time>2026-03-30T10:55:04Z</time></trkpt><trkpt lat="45.426607915929964" lon="10.691945952827256"><ele>83.0</ele><time>2026-03-30T10:55:05Z</time></trkpt><trkpt lat="45.42668699451942" lon="10.69207029498135"><ele>83.0</ele><time>2026-03-30T10:55:06Z</time></trkpt><trkpt lat="45.426764402569006" lon="10.69220159389866"><ele>83.0</ele><time>2026-03-30T10:55:07Z</time></trkpt><trkpt lat="45.426832966425195" lon="10.69233295153505"><ele>83.0</ele><time>2026-03-30T10:55:08Z</time></trkpt><trkpt lat="45.42689431234036" lon="10.69246163240994"><ele>83.0</ele><time>2026-03-30T10:55:09Z</time></trkpt><trkpt lat="45.42694865704553" lon="10.692587948396797"><ele>83.0</ele><time>2026-03-30T10:55:10Z</time></trkpt><trkpt lat="45.42699897561231" lon="10.692711192999102"><ele>83.0</ele><time>2026-03-30T10:55:11Z</time></trkpt><trkpt lat="45.42704280624015" lon="10.692829878342366"><ele>82.80000000000001</ele><time>2026-03-30T10:55:12Z</time></trkpt><trkpt lat="45.42708247350691" lon="10.692964931616146"><ele>82.6</ele><time>2026-03-30T10:55:13Z</time></trkpt><trkpt lat="45.42712058075718" lon="10.693107737306129"><ele>82.4</ele><time>2026-03-30T10:55:14Z</time></trkpt><trkpt lat="45.42715791765614" lon="10.693259033674929"><ele>82.19999999999999</ele><time>2026-03-30T10:55:15Z</time></trkpt><trkpt lat="45.427194301012506" lon="10.6934135127735"><ele>82.0</ele><time>2026-03-30T10:55:16Z</time></trkpt><trkpt lat="45.427228800917995" lon="10.693558239078389"><ele>81.8</ele><time>2026-03-30T10:55:17Z</time></trkpt><trkpt lat="45.42726081082559" lon="10.693698427642717"><ele>81.6</ele><time>2026-03-30T10:55:18Z</time></trkpt><trkpt lat="45.42728948638666" lon="10.693822468463578"><ele>81.39999999999999</ele><time>2026-03-30T10:55:19Z</time></trkpt><trkpt lat="45.427317567947455" lon="10.693937906226568"><ele>81.19999999999999</ele><time>2026-03-30T10:55:20Z</time></trkpt><trkpt lat="45.427344981025435" lon="10.694036737617875"><ele>81.0</ele><time>2026-03-30T10:55:21Z</time></trkpt><trkpt lat="45.42739129074535" lon="10.69416692416081"><ele>81.0</ele><time>2026-03-30T10:55:23Z</time></trkpt><trkpt lat="45.42740332139055" lon="10.694293813979586"><ele>81.0</ele><time>2026-03-30T10:55:25Z</time></trkpt><trkpt lat="45.42732491278177" lon="10.694371436329343"><ele>81.0</ele><time>2026-03-30T10:55:27Z</time></trkpt><trkpt lat="45.42724895664315" lon="10.69437604304653"><ele>81.0</ele><time>2026-03-30T10:55:28Z</time></trkpt><trkpt lat="45.427148108638875" lon="10.694386679582587"><ele>81.0</ele><time>2026-03-30T10:55:29Z</time></trkpt><trkpt lat="45.42703361375887" lon="10.694398233201962"><ele>81.16666666666667</ele><time>2026-03-30T10:55:30Z</time></trkpt><trkpt lat="45.426933439776775" lon="10.69440660260294"><ele>81.33333333333333</ele><time>2026-03-30T10:55:31Z</time></trkpt><trkpt lat="45.42684027269826" lon="10.694415593788861"><ele>81.5</ele><time>2026-03-30T10:55:32Z</time></trkpt><trkpt lat="45.426760778586065" lon="10.694434105694679"><ele>81.66666666666666</ele><time>2026-03-30T10:55:33Z</time></trkpt><trkpt lat="45.42670038133733" lon="10.694479906788212"><ele>81.83333333333333</ele><time>2026-03-30T10:55:34Z</time></trkpt><trkpt lat="45.42665333687676" lon="10.694571232144112"><ele>82.0</ele><time>2026-03-30T10:55:35Z</time></trkpt><trkpt lat="45.42661834794351" lon="10.69469610602388"><ele>81.6</ele><time>2026-03-30T10:55:36Z</time></trkpt><trkpt lat="45.42658037315247" lon="10.694839978329249"><ele>81.19999999999999</ele><time>2026-03-30T10:55:37Z</time></trkpt><trkpt lat="45.42653724073194" lon="10.694980781243629"><ele>80.8</ele><time>2026-03-30T10:55:38Z</time></trkpt><trkpt lat="45.42648251301705" lon="10.695109136569604"><ele>80.4</ele><time>2026-03-30T10:55:39Z</time></trkpt><trkpt lat="45.42639882084358" lon="10.695221036854909"><ele>80.0</ele><time>2026-03-30T10:55:40Z</time></trkpt><trkpt lat="45.42630095624294" lon="10.695325340586844"><ele>79.25</ele><time>2026-03-30T10:55:41Z</time></trkpt><trkpt lat="45.42619021856653" lon="10.695419663545685"><ele>78.5</ele><time>2026-03-30T10:55:42Z</time></trkpt><trkpt lat="45.42608519909342" lon="10.695502973690523"><ele>77.75</ele><time>2026-03-30T10:55:43Z</time></trkpt><trkpt lat="45.425986390465305" lon="10.695579706529072"><ele>77.0</ele><time>2026-03-30T10:55:44Z</time></trkpt><trkpt lat="45.42588513019074" lon="10.695647156798756"><ele>77.0</ele><time>2026-03-30T10:55:45Z</time></trkpt><trkpt lat="45.42577647970945" lon="10.695721026927364"><ele>77.0</ele><time>2026-03-30T10:55:46Z</time></trkpt><trkpt lat="45.42567523817242" lon="10.695797860912588"><ele>77.0</ele><time>2026-03-30T10:55:47Z</time></trkpt><trkpt lat="45.42557601128011" lon="10.69587377492804"><ele>77.0</ele><time>2026-03-30T10:55:48Z</time></trkpt><trkpt lat="45.42547800578677" lon="10.695951259536123"><ele>76.6</ele><time>2026-03-30T10:55:49Z</time></trkpt><trkpt lat="45.42537253530531" lon="10.696023212279455"><ele>76.2</ele><time>2026-03-30T10:55:50Z</time></trkpt><trkpt lat="45.42526823814536" lon="10.696087519695052"><ele>75.8</ele><time>2026-03-30T10:55:51Z</time></trkpt><trkpt lat="45.42518046537114" lon="10.696145614717196"><ele>75.4</ele><time>2026-03-30T10:55:52Z</time></trkpt><trkpt lat="45.42508925967932" lon="10.69620239257897"><ele>75.0</ele><time>2026-03-30T10:55:53Z</time></trkpt><trkpt lat="45.424986774649234" lon="10.69626390073715"><ele>75.0</ele><time>2026-03-30T10:55:54Z</time></trkpt><trkpt lat="45.42487884034797" lon="10.696340312364367"><ele>75.0</ele><time>2026-03-30T10:55:55Z</time></trkpt><trkpt lat="45.42476840280731" lon="10.69643213058129"><ele>75.0</ele><time>2026-03-30T10:55:56Z</time></trkpt><trkpt lat="45.42464829071222" lon="10.696547462255992"><ele>75.0</ele><time>2026-03-30T10:55:57Z</time></trkpt><trkpt lat="45.42452505904885" lon="10.696665837324305"><ele>74.33333333333333</ele><time>2026-03-30T10:55:58Z</time></trkpt><trkpt lat="45.424398179636505" lon="10.696785162537033"><ele>73.66666666666666</ele><time>2026-03-30T10:55:59Z</time></trkpt><trkpt lat="45.424265482719534" lon="10.696906637468013"><ele>73.0</ele><time>2026-03-30T10:56:00Z</time></trkpt><trkpt lat="45.42413668219549" lon="10.697026815977589"><ele>73.0</ele><time>2026-03-30T10:56:01Z</time></trkpt><trkpt lat="45.424022921172515" lon="10.697140443705381"><ele>73.0</ele><time>2026-03-30T10:56:02Z</time></trkpt><trkpt lat="45.423906509067244" lon="10.697239234562801"><ele>73.0</ele><time>2026-03-30T10:56:03Z</time></trkpt><trkpt lat="45.42378633545601" lon="10.697313740115137"><ele>73.0</ele><time>2026-03-30T10:56:04Z</time></trkpt><trkpt lat="45.42366504243599" lon="10.697376648528461"><ele>72.75</ele><time>2026-03-30T10:56:05Z</time></trkpt><trkpt lat="45.42355330341136" lon="10.697430381150355"><ele>72.5</ele><time>2026-03-30T10:56:05.999Z</time></trkpt><trkpt lat="45.42343315582885" lon="10.697476074281523"><ele>72.25</ele><time>2026-03-30T10:56:06.999Z</time></trkpt><trkpt lat="45.42330032518448" lon="10.697506081289632"><ele>72.0</ele><time>2026-03-30T10:56:07.999Z</time></trkpt><trkpt lat="45.42315209276092" lon="10.697517150985647"><ele>72.0</ele><time>2026-03-30T10:56:08.999Z</time></trkpt><trkpt lat="45.42298726543311" lon="10.69753469994397"><ele>72.0</ele><time>2026-03-30T10:56:09.999Z</time></trkpt><trkpt lat="45.42282121410067" lon="10.697567551881109"><ele>72.0</ele><time>2026-03-30T10:56:10.999Z</time></trkpt><trkpt lat="45.42265754120092" lon="10.697602813452587"><ele>73.33333333333333</ele><time>2026-03-30T10:56:11.999Z</time></trkpt><trkpt lat="45.42248835973934" lon="10.697631271134696"><ele>74.66666666666666</ele><time>2026-03-30T10:56:12.999Z</time></trkpt><trkpt lat="45.4223141768655" lon="10.69766441369683"><ele>76.0</ele><time>2026-03-30T10:56:13.999Z</time></trkpt><trkpt lat="45.422121472915876" lon="10.69770606862864"><ele>77.0</ele><time>2026-03-30T10:56:14.999Z</time></trkpt><trkpt lat="45.42193233811915" lon="10.69773995717625"><ele>78.0</ele><time>2026-03-30T10:56:15.999Z</time></trkpt><trkpt lat="45.42174613190587" lon="10.69777614270882"><ele>79.0</ele><time>2026-03-30T10:56:16.999Z</time></trkpt><trkpt lat="45.421569213147414" lon="10.697813331122205"><ele>79.0</ele><time>2026-03-30T10:56:17.999Z</time></trkpt><trkpt lat="45.42141284648195" lon="10.697841626523868"><ele>79.0</ele><time>2026-03-30T10:56:18.999Z</time></trkpt><trkpt lat="45.42127145733699" lon="10.69785206014468"><ele>79.0</ele><time>2026-03-30T10:56:19.999Z</time></trkpt><trkpt lat="45.42113585545389" lon="10.69785871858865"><ele>79.0</ele><time>2026-03-30T10:56:20.999Z</time></trkpt><trkpt lat="45.42100810772752" lon="10.69790971274204"><ele>79.33333333333333</ele><time>2026-03-30T10:56:21.999Z</time></trkpt><trkpt lat="45.42087408845598" lon="10.698006991779451"><ele>79.66666666666667</ele><time>2026-03-30T10:56:22.999Z</time></trkpt><trkpt lat="45.420741533741555" lon="10.698134144590105"><ele>80.0</ele><time>2026-03-30T10:56:23.999Z</time></trkpt><trkpt lat="45.42061415306873" lon="10.698231516140677"><ele>79.66666666666667</ele><time>2026-03-30T10:56:24.999Z</time></trkpt><trkpt lat="45.42045867693777" lon="10.698271789751214"><ele>79.33333333333333</ele><time>2026-03-30T10:56:25.999Z</time></trkpt><trkpt lat="45.420280573721485" lon="10.698296458718096"><ele>79.0</ele><time>2026-03-30T10:56:26.999Z</time></trkpt><trkpt lat="45.42014364626994" lon="10.698359695103836"><ele>79.0</ele><time>2026-03-30T10:56:27.999Z</time></trkpt><trkpt lat="45.4199953905486" lon="10.698453988290984"><ele>79.0</ele><time>2026-03-30T10:56:28.999Z</time></trkpt><trkpt lat="45.4198506921813" lon="10.698505215454093"><ele>79.0</ele><time>2026-03-30T10:56:29.999Z</time></trkpt><trkpt lat="45.41971654988968" lon="10.698504936577852"><ele>79.0</ele><time>2026-03-30T10:56:30.999Z</time></trkpt><trkpt lat="45.419596612330636" lon="10.698474451567872"><ele>79.2</ele><time>2026-03-30T10:56:31.999Z</time></trkpt><trkpt lat="45.41948776949896" lon="10.698428497457353"><ele>79.4</ele><time>2026-03-30T10:56:32.999Z</time></trkpt><trkpt lat="45.41940128438337" lon="10.698368983150518"><ele>79.6</ele><time>2026-03-30T10:56:33.999Z</time></trkpt><trkpt lat="45.41933382581302" lon="10.698292010031253"><ele>79.8</ele><time>2026-03-30T10:56:34.999Z</time></trkpt><trkpt lat="45.41927178676837" lon="10.698189616137931"><ele>80.0</ele><time>2026-03-30T10:56:35.999Z</time></trkpt><trkpt lat="45.41920871686232" lon="10.698087972938948"><ele>80.0</ele><time>2026-03-30T10:56:36.999Z</time></trkpt><trkpt lat="45.41914930468119" lon="10.698009664969232"><ele>80.0</ele><time>2026-03-30T10:56:37.999Z</time></trkpt><trkpt lat="45.419086649517645" lon="10.697984148898147"><ele>80.0</ele><time>2026-03-30T10:56:38.999Z</time></trkpt><trkpt lat="45.419013471613255" lon="10.698000141235877"><ele>80.0</ele><time>2026-03-30T10:56:39.999Z</time></trkpt><trkpt lat="45.41894081765364" lon="10.698081499705008"><ele>80.0</ele><time>2026-03-30T10:56:40.999Z</time></trkpt><trkpt lat="45.4188636860767" lon="10.698205410026942"><ele>80.0</ele><time>2026-03-30T10:56:41.999Z</time></trkpt><trkpt lat="45.41877646785614" lon="10.69835963279496"><ele>80.0</ele><time>2026-03-30T10:56:42.999Z</time></trkpt><trkpt lat="45.41866488675781" lon="10.698537633968542"><ele>80.0</ele><time>2026-03-30T10:56:43.999Z</time></trkpt><trkpt lat="45.418518715254955" lon="10.698742877449753"><ele>80.0</ele><time>2026-03-30T10:56:44.999Z</time></trkpt><trkpt lat="45.41838043789476" lon="10.698955670853348"><ele>80.0</ele><time>2026-03-30T10:56:45.999Z</time></trkpt><trkpt lat="45.41825624835946" lon="10.699150683754697"><ele>80.0</ele><time>2026-03-30T10:56:46.999Z</time></trkpt><trkpt lat="45.418149799846596" lon="10.699315607865445"><ele>80.0</ele><time>2026-03-30T10:56:47.999Z</time></trkpt><trkpt lat="45.41805063728723" lon="10.699471129743591"><ele>80.0</ele><time>2026-03-30T10:56:48.999Z</time></trkpt><trkpt lat="45.417963498894" lon="10.699607719566394"><ele>80.0</ele><time>2026-03-30T10:56:49.999Z</time></trkpt><trkpt lat="45.41789546275064" lon="10.699706634615891"><ele>80.0</ele><time>2026-03-30T10:56:50.999Z</time></trkpt><trkpt lat="45.41784810751597" lon="10.699770487255481"><ele>80.0</ele><time>2026-03-30T10:56:51.999Z</time></trkpt><trkpt lat="45.417798556374315" lon="10.699846978002864"><ele>80.0</ele><time>2026-03-30T10:56:52.999Z</time></trkpt><trkpt lat="45.4177325982859" lon="10.699982184963577"><ele>80.0</ele><time>2026-03-30T10:56:53.999Z</time></trkpt><trkpt lat="45.417667771007146" lon="10.700124870956355"><ele>80.0</ele><time>2026-03-30T10:56:54.999Z</time></trkpt><trkpt lat="45.417595117802755" lon="10.700284036837608"><ele>80.0</ele><time>2026-03-30T10:56:55.999Z</time></trkpt><trkpt lat="45.41752546576977" lon="10.700485260398928"><ele>80.0</ele><time>2026-03-30T10:56:56.999Z</time></trkpt><trkpt lat="45.417453531170224" lon="10.700750900710682"><ele>79.33333333333334</ele><time>2026-03-30T10:56:58Z</time></trkpt><trkpt lat="45.417378887598495" lon="10.701054405200503"><ele>78.66666666666667</ele><time>2026-03-30T10:56:59Z</time></trkpt><trkpt lat="45.41730838747703" lon="10.701350215207647"><ele>78.0</ele><time>2026-03-30T10:57:00Z</time></trkpt><trkpt lat="45.41723966099881" lon="10.70163008924521"><ele>78.0</ele><time>2026-03-30T10:57:01Z</time></trkpt><trkpt lat="45.417169800608846" lon="10.70189239466238"><ele>78.0</ele><time>2026-03-30T10:57:02Z</time></trkpt><trkpt lat="45.41709959130825" lon="10.702157351590389"><ele>78.0</ele><time>2026-03-30T10:57:03Z</time></trkpt><trkpt lat="45.417033717667415" lon="10.702403351993278"><ele>77.0</ele><time>2026-03-30T10:57:04Z</time></trkpt><trkpt lat="45.41697508814393" lon="10.702636095948346"><ele>76.0</ele><time>2026-03-30T10:57:05Z</time></trkpt><trkpt lat="45.41691607847262" lon="10.702870977797335"><ele>75.0</ele><time>2026-03-30T10:57:06Z</time></trkpt><trkpt lat="45.416865954804585" lon="10.703100309599185"><ele>75.0</ele><time>2026-03-30T10:57:07Z</time></trkpt><trkpt lat="45.41682963513165" lon="10.703314458888302"><ele>75.0</ele><time>2026-03-30T10:57:08Z</time></trkpt><trkpt lat="45.41679818186143" lon="10.703526919066372"><ele>75.0</ele><time>2026-03-30T10:57:09Z</time></trkpt><trkpt lat="45.41677258497005" lon="10.703762776624421"><ele>75.33333333333333</ele><time>2026-03-30T10:57:10Z</time></trkpt><trkpt lat="45.41675779175758" lon="10.704016001674411"><ele>75.66666666666666</ele><time>2026-03-30T10:57:11Z</time></trkpt><trkpt lat="45.41674201354383" lon="10.70426709017147"><ele>76.0</ele><time>2026-03-30T10:57:12Z</time></trkpt><trkpt lat="45.4167070390776" lon="10.704512093539195"><ele>76.0</ele><time>2026-03-30T10:57:13Z</time></trkpt><trkpt lat="45.41666165309404" lon="10.704771027648022"><ele>76.0</ele><time>2026-03-30T10:57:14Z</time></trkpt><trkpt lat="45.41660792297713" lon="10.705071828045213"><ele>76.0</ele><time>2026-03-30T10:57:15Z</time></trkpt><trkpt lat="45.416554128068505" lon="10.705389361176662"><ele>76.0</ele><time>2026-03-30T10:57:16Z</time></trkpt><trkpt lat="45.41651783475557" lon="10.705678554261986"><ele>76.0</ele><time>2026-03-30T10:57:17Z</time></trkpt><trkpt lat="45.41650262804073" lon="10.705962096299352"><ele>76.0</ele><time>2026-03-30T10:57:18Z</time></trkpt><trkpt lat="45.4164783368479" lon="10.706250673396497"><ele>76.0</ele><time>2026-03-30T10:57:19Z</time></trkpt><trkpt lat="45.416457250742724" lon="10.706524701579992"><ele>76.0</ele><time>2026-03-30T10:57:20Z</time></trkpt><trkpt lat="45.41644065538093" lon="10.706775459160912"><ele>76.0</ele><time>2026-03-30T10:57:21Z</time></trkpt><trkpt lat="45.41642117033289" lon="10.707017703436021"><ele>77.0</ele><time>2026-03-30T10:57:22Z</time></trkpt><trkpt lat="45.416399648778345" lon="10.707258089721769"><ele>78.0</ele><time>2026-03-30T10:57:23Z</time></trkpt><trkpt lat="45.416377771234735" lon="10.707492043088768"><ele>79.0</ele><time>2026-03-30T10:57:24Z</time></trkpt><trkpt lat="45.41636046645937" lon="10.707702261345299"><ele>79.0</ele><time>2026-03-30T10:57:25Z</time></trkpt><trkpt lat="45.41634164426049" lon="10.707907818633759"><ele>79.0</ele><time>2026-03-30T10:57:26Z</time></trkpt><trkpt lat="45.416323437756134" lon="10.708129312390687"><ele>79.0</ele><time>2026-03-30T10:57:27Z</time></trkpt><trkpt lat="45.41629968126837" lon="10.708361504508705"><ele>79.33333333333333</ele><time>2026-03-30T10:57:28Z</time></trkpt><trkpt lat="45.41627651606667" lon="10.708583714264476"><ele>79.66666666666667</ele><time>2026-03-30T10:57:29Z</time></trkpt><trkpt lat="45.41624155946359" lon="10.708792001956327"><ele>80.0</ele><time>2026-03-30T10:57:30Z</time></trkpt><trkpt lat="45.41620544391867" lon="10.709008622291321"><ele>80.0</ele><time>2026-03-30T10:57:31Z</time></trkpt><trkpt lat="45.41618137106492" lon="10.709235664911148"><ele>80.0</ele><time>2026-03-30T10:57:32Z</time></trkpt><trkpt lat="45.41616569292099" lon="10.709487058947683"><ele>80.0</ele><time>2026-03-30T10:57:33Z</time></trkpt><trkpt lat="45.41615591701513" lon="10.709725035438257"><ele>80.25</ele><time>2026-03-30T10:57:34Z</time></trkpt><trkpt lat="45.41613020729126" lon="10.709935290158125"><ele>80.5</ele><time>2026-03-30T10:57:35Z</time></trkpt><trkpt lat="45.416083840495766" lon="10.710113854761849"><ele>80.75</ele><time>2026-03-30T10:57:36Z</time></trkpt><trkpt lat="45.41602754606772" lon="10.710267791013612"><ele>81.0</ele><time>2026-03-30T10:57:37Z</time></trkpt><trkpt lat="45.415955071904676" lon="10.710418114441538"><ele>81.75</ele><time>2026-03-30T10:57:38Z</time></trkpt><trkpt lat="45.41586712550918" lon="10.710542731242692"><ele>82.5</ele><time>2026-03-30T10:57:39Z</time></trkpt><trkpt lat="45.41575594079624" lon="10.710647277656184"><ele>83.25</ele><time>2026-03-30T10:57:40Z</time></trkpt><trkpt lat="45.415641639577565" lon="10.710727385761402"><ele>84.0</ele><time>2026-03-30T10:57:41Z</time></trkpt><trkpt lat="45.41553657767145" lon="10.71078778829156"><ele>83.80000000000001</ele><time>2026-03-30T10:57:42Z</time></trkpt><trkpt lat="45.41543412445606" lon="10.71083557165609"><ele>83.60000000000001</ele><time>2026-03-30T10:57:43Z</time></trkpt><trkpt lat="45.4153251396918" lon="10.710868600475964"><ele>83.4</ele><time>2026-03-30T10:57:44Z</time></trkpt><trkpt lat="45.41520772278283" lon="10.710885037370007"><ele>83.2</ele><time>2026-03-30T10:57:45Z</time></trkpt><trkpt lat="45.41510101099976" lon="10.710893131928538"><ele>83.0</ele><time>2026-03-30T10:57:46Z</time></trkpt><trkpt lat="45.4150041248137" lon="10.710903223458494"><ele>83.0</ele><time>2026-03-30T10:57:47Z</time></trkpt><trkpt lat="45.41492804569781" lon="10.710907310729326"><ele>83.0</ele><time>2026-03-30T10:57:48Z</time></trkpt><trkpt lat="45.414859319419826" lon="10.710921028360008"><ele>83.0</ele><time>2026-03-30T10:57:49Z</time></trkpt><trkpt lat="45.414795815628445" lon="10.710950081463826"><ele>83.0</ele><time>2026-03-30T10:57:50Z</time></trkpt><trkpt lat="45.414717221518806" lon="10.710951014214656"><ele>83.0</ele><time>2026-03-30T10:57:52Z</time></trkpt><trkpt lat="45.41470748390731" lon="10.710862123091411"><ele>83.0</ele><time>2026-03-30T10:57:54Z</time></trkpt><trkpt lat="45.414714313236175" lon="10.71068895294773"><ele>83.0</ele><time>2026-03-30T10:57:56Z</time></trkpt><trkpt lat="45.414698496797925" lon="10.710594553363768"><ele>83.0</ele><time>2026-03-30T10:57:57Z</time></trkpt><trkpt lat="45.41468633640167" lon="10.710495643167238"><ele>83.0</ele><time>2026-03-30T10:57:58Z</time></trkpt><trkpt lat="45.41467358261349" lon="10.710379674664878"><ele>83.0</ele><time>2026-03-30T10:57:59Z</time></trkpt><trkpt lat="45.41467365166467" lon="10.71026002443661"><ele>83.0</ele><time>2026-03-30T10:58:00Z</time></trkpt><trkpt lat="45.41468242402618" lon="10.710147018049058"><ele>83.0</ele><time>2026-03-30T10:58:01Z</time></trkpt><trkpt lat="45.4147016031509" lon="10.710027650141047"><ele>82.83333333333334</ele><time>2026-03-30T10:58:02Z</time></trkpt><trkpt lat="45.41473120167149" lon="10.709925577495744"><ele>82.66666666666667</ele><time>2026-03-30T10:58:03Z</time></trkpt><trkpt lat="45.414749832278474" lon="10.709820006994299"><ele>82.5</ele><time>2026-03-30T10:58:04Z</time></trkpt><trkpt lat="45.41474336504487" lon="10.709699927456908"><ele>82.33333333333333</ele><time>2026-03-30T10:58:05Z</time></trkpt><trkpt lat="45.41473609083487" lon="10.70957719063248"><ele>82.16666666666666</ele><time>2026-03-30T10:58:06Z</time></trkpt><trkpt lat="45.414733413291074" lon="10.70943654733225"><ele>82.0</ele><time>2026-03-30T10:58:07Z</time></trkpt><trkpt lat="45.41473262280842" lon="10.709304545509802"><ele>81.8</ele><time>2026-03-30T10:58:08Z</time></trkpt><trkpt lat="45.41473829700097" lon="10.709166543497732"><ele>81.6</ele><time>2026-03-30T10:58:09Z</time></trkpt><trkpt lat="45.41474395023756" lon="10.70901557944116"><ele>81.39999999999999</ele><time>2026-03-30T10:58:10Z</time></trkpt><trkpt lat="45.41474407438115" lon="10.708875368665561"><ele>81.19999999999999</ele><time>2026-03-30T10:58:10.999Z</time></trkpt><trkpt lat="45.41472885915271" lon="10.708709310955372"><ele>81.0</ele><time>2026-03-30T10:58:11.999Z</time></trkpt><trkpt lat="45.41469758470062" lon="10.708559065074319"><ele>80.75</ele><time>2026-03-30T10:58:12.999Z</time></trkpt><trkpt lat="45.41466425656739" lon="10.708413699600502"><ele>80.5</ele><time>2026-03-30T10:58:13.999Z</time></trkpt><trkpt lat="45.414620607887045" lon="10.708261980875665"><ele>80.25</ele><time>2026-03-30T10:58:14.999Z</time></trkpt><trkpt lat="45.41457430228844" lon="10.708111953255663"><ele>80.0</ele><time>2026-03-30T10:58:15.999Z</time></trkpt><trkpt lat="45.414530546900906" lon="10.707954942200649"><ele>80.0</ele><time>2026-03-30T10:58:16.999Z</time></trkpt><trkpt lat="45.414495945780644" lon="10.707801529359047"><ele>80.0</ele><time>2026-03-30T10:58:17.999Z</time></trkpt><trkpt lat="45.41445605223924" lon="10.70765190887453"><ele>80.0</ele><time>2026-03-30T10:58:18.999Z</time></trkpt><trkpt lat="45.41441859863911" lon="10.707514940545732"><ele>80.0</ele><time>2026-03-30T10:58:19.999Z</time></trkpt><trkpt lat="45.41438831911814" lon="10.70740987434465"><ele>80.0</ele><time>2026-03-30T10:58:20.999Z</time></trkpt><trkpt lat="45.414353457837926" lon="10.70729652153606"><ele>80.0</ele><time>2026-03-30T10:58:21.999Z</time></trkpt><trkpt lat="45.41431832248124" lon="10.70718365455914"><ele>80.0</ele><time>2026-03-30T10:58:22.999Z</time></trkpt><trkpt lat="45.41428339967102" lon="10.707081188701961"><ele>80.0</ele><time>2026-03-30T10:58:23.999Z</time></trkpt><trkpt lat="45.41424123128542" lon="10.70699047295753"><ele>80.0</ele><time>2026-03-30T10:58:24.999Z</time></trkpt><trkpt lat="45.41418994516919" lon="10.706885122425263"><ele>80.0</ele><time>2026-03-30T10:58:25.999Z</time></trkpt><trkpt lat="45.4141392352917" lon="10.706775092808101"><ele>80.0</ele><time>2026-03-30T10:58:26.999Z</time></trkpt><trkpt lat="45.41410961362129" lon="10.706688895874853"><ele>79.8</ele><time>2026-03-30T10:58:27.999Z</time></trkpt><trkpt lat="45.41404532294582" lon="10.70649005384112"><ele>79.6</ele><time>2026-03-30T10:58:29.999Z</time></trkpt><trkpt lat="45.414011056317214" lon="10.706369944299388"><ele>79.4</ele><time>2026-03-30T10:58:30.999Z</time></trkpt><trkpt lat="45.41397901118505" lon="10.706255060749415"><ele>79.2</ele><time>2026-03-30T10:58:31.999Z</time></trkpt><trkpt lat="45.413944648833116" lon="10.706132973222477"><ele>79.0</ele><time>2026-03-30T10:58:32.999Z</time></trkpt><trkpt lat="45.41390668254298" lon="10.706013318858643"><ele>78.66666666666666</ele><time>2026-03-30T10:58:33.999Z</time></trkpt><trkpt lat="45.41386738791075" lon="10.705885517011753"><ele>78.33333333333333</ele><time>2026-03-30T10:58:34.999Z</time></trkpt><trkpt lat="45.4138349582939" lon="10.705790320408873"><ele>78.0</ele><time>2026-03-30T10:58:35.999Z</time></trkpt><trkpt lat="45.41380713696448" lon="10.705701708956086"><ele>77.66666666666667</ele><time>2026-03-30T10:58:36.999Z</time></trkpt><trkpt lat="45.4137580866494" lon="10.705560727462974"><ele>77.33333333333334</ele><time>2026-03-30T10:58:38.999Z</time></trkpt><trkpt lat="45.41372279720945" lon="10.705436919159865"><ele>77.0</ele><time>2026-03-30T10:58:40.999Z</time></trkpt><trkpt lat="45.41368639144737" lon="10.705306843329234"><ele>77.0</ele><time>2026-03-30T10:58:42.999Z</time></trkpt><trkpt lat="45.41367844227621" lon="10.705178178027202"><ele>77.0</ele><time>2026-03-30T10:58:44.999Z</time></trkpt><trkpt lat="45.41362358414764" lon="10.70509775880576"><ele>77.0</ele><time>2026-03-30T11:00:09Z</time></trkpt><trkpt lat="45.41366114573487" lon="10.7052012622419"><ele>77.0</ele><time>2026-03-30T11:00:53.999Z</time></trkpt><trkpt lat="45.41367965448374" lon="10.705308218408648"><ele>77.0</ele><time>2026-03-30T11:00:56.999Z</time></trkpt><trkpt lat="45.41370368093443" lon="10.705403048975759"><ele>77.0</ele><time>2026-03-30T11:01:00.999Z</time></trkpt><trkpt lat="45.413775597179146" lon="10.705422092120765"><ele>77.0</ele><time>2026-03-30T11:01:35Z</time></trkpt><trkpt lat="45.41384405970291" lon="10.705375775593794"><ele>77.0</ele><time>2026-03-30T11:01:37Z</time></trkpt><trkpt lat="45.413901629709045" lon="10.705338799033058"><ele>77.0</ele><time>2026-03-30T11:01:38Z</time></trkpt><trkpt lat="45.4139990364371" lon="10.705255116559304"><ele>77.0</ele><time>2026-03-30T11:01:40Z</time></trkpt><trkpt lat="45.414093047750555" lon="10.70518326488443"><ele>77.0</ele><time>2026-03-30T11:01:42Z</time></trkpt><trkpt lat="45.41420344586588" lon="10.705143152374914"><ele>77.0</ele><time>2026-03-30T11:01:44Z</time></trkpt><trkpt lat="45.4142809715606" lon="10.705140305333078"><ele>77.0</ele><time>2026-03-30T11:01:45Z</time></trkpt><trkpt lat="45.414350488642015" lon="10.705147303135035"><ele>77.0</ele><time>2026-03-30T11:01:46Z</time></trkpt><trkpt lat="45.41442586973667" lon="10.705157287766472"><ele>77.0</ele><time>2026-03-30T11:01:47Z</time></trkpt><trkpt lat="45.414509250151" lon="10.705179273869456"><ele>77.0</ele><time>2026-03-30T11:01:48Z</time></trkpt><trkpt lat="45.41458935367213" lon="10.70521655553472"><ele>77.0</ele><time>2026-03-30T11:01:49Z</time></trkpt><trkpt lat="45.41468286383792" lon="10.705261795045901"><ele>77.33333333333334</ele><time>2026-03-30T11:01:50Z</time></trkpt><trkpt lat="45.4147772420923" lon="10.705304828531315"><ele>77.66666666666667</ele><time>2026-03-30T11:01:51Z</time></trkpt><trkpt lat="45.41485820164797" lon="10.705345742824068"><ele>78.0</ele><time>2026-03-30T11:01:52Z</time></trkpt><trkpt lat="45.414939031104204" lon="10.705388766219823"><ele>78.33333333333333</ele><time>2026-03-30T11:01:53Z</time></trkpt><trkpt lat="45.41503464314684" lon="10.705428526524045"><ele>78.66666666666666</ele><time>2026-03-30T11:01:54Z</time></trkpt><trkpt lat="45.415109979522924" lon="10.705459436571998"><ele>79.0</ele><time>2026-03-30T11:01:55Z</time></trkpt><trkpt lat="45.41517920620915" lon="10.705479247193974"><ele>79.0</ele><time>2026-03-30T11:01:56Z</time></trkpt><trkpt lat="45.41525233728575" lon="10.705484406999757"><ele>79.0</ele><time>2026-03-30T11:01:57Z</time></trkpt><trkpt lat="45.41533521637049" lon="10.705475388553443"><ele>79.0</ele><time>2026-03-30T11:01:58Z</time></trkpt><trkpt lat="45.415408213949235" lon="10.705434931567014"><ele>79.0</ele><time>2026-03-30T11:01:59Z</time></trkpt><trkpt lat="45.41546039016751" lon="10.705373762758196"><ele>79.0</ele><time>2026-03-30T11:02:00Z</time></trkpt><trkpt lat="45.41552416785451" lon="10.705297923491988"><ele>79.0</ele><time>2026-03-30T11:02:01Z</time></trkpt><trkpt lat="45.41559033580149" lon="10.705219246471541"><ele>78.83333333333333</ele><time>2026-03-30T11:02:02Z</time></trkpt><trkpt lat="45.41565842367668" lon="10.705154421595942"><ele>78.66666666666666</ele><time>2026-03-30T11:02:03Z</time></trkpt><trkpt lat="45.41572387510072" lon="10.70507998804981"><ele>78.5</ele><time>2026-03-30T11:02:04Z</time></trkpt><trkpt lat="45.415786014354815" lon="10.704996689582714"><ele>78.33333333333333</ele><time>2026-03-30T11:02:05Z</time></trkpt><trkpt lat="45.41584107399375" lon="10.704931092438668"><ele>78.16666666666667</ele><time>2026-03-30T11:02:06Z</time></trkpt><trkpt lat="45.415897825889736" lon="10.704856505125832"><ele>78.0</ele><time>2026-03-30T11:02:07Z</time></trkpt><trkpt lat="45.415947005762746" lon="10.704775584377662"><ele>78.0</ele><time>2026-03-30T11:02:08Z</time></trkpt><trkpt lat="45.41599275590857" lon="10.704707159138911"><ele>78.0</ele><time>2026-03-30T11:02:09Z</time></trkpt><trkpt lat="45.41609595276267" lon="10.704613419177115"><ele>78.0</ele><time>2026-03-30T11:02:11Z</time></trkpt><trkpt lat="45.4161539492694" lon="10.704563990879528"><ele>78.0</ele><time>2026-03-30T11:02:12Z</time></trkpt><trkpt lat="45.41623888918674" lon="10.704502927578732"><ele>78.0</ele><time>2026-03-30T11:02:14Z</time></trkpt><trkpt lat="45.41630019626998" lon="10.704462647299977"><ele>78.0</ele><time>2026-03-30T11:02:15Z</time></trkpt><trkpt lat="45.41636521976403" lon="10.704431482328225"><ele>77.83333333333333</ele><time>2026-03-30T11:02:16Z</time></trkpt><trkpt lat="45.416429893937746" lon="10.704391630314426"><ele>77.66666666666667</ele><time>2026-03-30T11:02:17Z</time></trkpt><trkpt lat="45.41654102629001" lon="10.70435716026435"><ele>77.5</ele><time>2026-03-30T11:02:19Z</time></trkpt><trkpt lat="45.41662265784254" lon="10.704357420791286"><ele>77.33333333333334</ele><time>2026-03-30T11:02:21Z</time></trkpt><trkpt lat="45.416695013261325" lon="10.704361156316304"><ele>77.16666666666667</ele><time>2026-03-30T11:02:23Z</time></trkpt><trkpt lat="45.41675183525346" lon="10.704312004044914"><ele>77.0</ele><time>2026-03-30T11:02:27Z</time></trkpt><trkpt lat="45.41676648193285" lon="10.704156677105473"><ele>77.0</ele><time>2026-03-30T11:02:28.999Z</time></trkpt><trkpt lat="45.41676360198565" lon="10.704062577662071"><ele>77.0</ele><time>2026-03-30T11:02:29.999Z</time></trkpt><trkpt lat="45.41677015990752" lon="10.70396615441447"><ele>77.0</ele><time>2026-03-30T11:02:30.999Z</time></trkpt><trkpt lat="45.41678139748438" lon="10.703859401479646"><ele>77.0</ele><time>2026-03-30T11:02:31.999Z</time></trkpt><trkpt lat="45.41679528623596" lon="10.703750306068574"><ele>77.0</ele><time>2026-03-30T11:02:32.999Z</time></trkpt><trkpt lat="45.41680465167509" lon="10.703627662281407"><ele>77.0</ele><time>2026-03-30T11:02:33.999Z</time></trkpt><trkpt lat="45.416813270290255" lon="10.703493217290228"><ele>76.6</ele><time>2026-03-30T11:02:34.999Z</time></trkpt><trkpt lat="45.41683288351229" lon="10.703362060023112"><ele>76.2</ele><time>2026-03-30T11:02:35.999Z</time></trkpt><trkpt lat="45.416855934339985" lon="10.703238101707372"><ele>75.8</ele><time>2026-03-30T11:02:36.999Z</time></trkpt><trkpt lat="45.41688799357046" lon="10.703083098696444"><ele>75.4</ele><time>2026-03-30T11:02:37.999Z</time></trkpt><trkpt lat="45.41691633055353" lon="10.702935035926876"><ele>75.0</ele><time>2026-03-30T11:02:38.999Z</time></trkpt><trkpt lat="45.4169486132392" lon="10.70278852588967"><ele>74.6</ele><time>2026-03-30T11:02:39.999Z</time></trkpt><trkpt lat="45.41697911137941" lon="10.70264024581833"><ele>74.2</ele><time>2026-03-30T11:02:40.999Z</time></trkpt><trkpt lat="45.41701559722782" lon="10.702499933661038"><ele>73.8</ele><time>2026-03-30T11:02:41.999Z</time></trkpt><trkpt lat="45.41705004783374" lon="10.702358949534393"><ele>73.4</ele><time>2026-03-30T11:02:42.999Z</time></trkpt><trkpt lat="45.417089176346984" lon="10.702217448444095"><ele>73.0</ele><time>2026-03-30T11:02:43.999Z</time></trkpt><trkpt lat="45.41712867158919" lon="10.702071884588921"><ele>74.0</ele><time>2026-03-30T11:02:44.999Z</time></trkpt><trkpt lat="45.41716643652329" lon="10.701919725518348"><ele>75.0</ele><time>2026-03-30T11:02:45.999Z</time></trkpt><trkpt lat="45.4172113373933" lon="10.701754507954972"><ele>76.0</ele><time>2026-03-30T11:02:46.999Z</time></trkpt><trkpt lat="45.417256081161895" lon="10.701584998538284"><ele>77.0</ele><time>2026-03-30T11:02:47.999Z</time></trkpt><trkpt lat="45.41729938324863" lon="10.701409310966474"><ele>77.25</ele><time>2026-03-30T11:02:48.999Z</time></trkpt><trkpt lat="45.41734038100021" lon="10.701245313649258"><ele>77.5</ele><time>2026-03-30T11:02:49.999Z</time></trkpt><trkpt lat="45.417383092801664" lon="10.701095006597624"><ele>77.75</ele><time>2026-03-30T11:02:50.999Z</time></trkpt><trkpt lat="45.41742550714021" lon="10.700934954165632"><ele>78.0</ele><time>2026-03-30T11:02:51.999Z</time></trkpt><trkpt lat="45.417459967966714" lon="10.700770063793152"><ele>78.0</ele><time>2026-03-30T11:02:52.999Z</time></trkpt><trkpt lat="45.41750208965959" lon="10.70060750005869"><ele>78.0</ele><time>2026-03-30T11:02:53.999Z</time></trkpt><trkpt lat="45.41755607766965" lon="10.700449008506205"><ele>78.0</ele><time>2026-03-30T11:02:54.999Z</time></trkpt><trkpt lat="45.4176093621788" lon="10.7002938635832"><ele>78.0</ele><time>2026-03-30T11:02:55.999Z</time></trkpt><trkpt lat="45.41766754482374" lon="10.700154262692267"><ele>78.33333333333333</ele><time>2026-03-30T11:02:56.999Z</time></trkpt><trkpt lat="45.4177286231883" lon="10.700037671706779"><ele>78.66666666666667</ele><time>2026-03-30T11:02:57.999Z</time></trkpt><trkpt lat="45.417777453544474" lon="10.699929853719736"><ele>79.0</ele><time>2026-03-30T11:02:58.999Z</time></trkpt><trkpt lat="45.41782171396778" lon="10.699825044493481"><ele>79.33333333333334</ele><time>2026-03-30T11:02:59.999Z</time></trkpt><trkpt lat="45.41785227763199" lon="10.699727385256358"><ele>79.66666666666667</ele><time>2026-03-30T11:03:00.999Z</time></trkpt><trkpt lat="45.41785143482355" lon="10.699630818555558"><ele>80.0</ele><time>2026-03-30T11:03:01.999Z</time></trkpt><trkpt lat="45.41782417103792" lon="10.699540213805887"><ele>80.0</ele><time>2026-03-30T11:03:02.999Z</time></trkpt><trkpt lat="45.417774087125" lon="10.699447514992402"><ele>80.0</ele><time>2026-03-30T11:03:03.999Z</time></trkpt><trkpt lat="45.41770965275318" lon="10.699352269128948"><ele>80.0</ele><time>2026-03-30T11:03:04.999Z</time></trkpt><trkpt lat="45.41764229904184" lon="10.699244721840413"><ele>80.0</ele><time>2026-03-30T11:03:05.999Z</time></trkpt><trkpt lat="45.41757636903897" lon="10.699136476152274"><ele>80.0</ele><time>2026-03-30T11:03:06.999Z</time></trkpt><trkpt lat="45.41750765179604" lon="10.699021162849984"><ele>80.6</ele><time>2026-03-30T11:03:07.999Z</time></trkpt><trkpt lat="45.41743902793747" lon="10.698904585297603"><ele>81.2</ele><time>2026-03-30T11:03:08.999Z</time></trkpt><trkpt lat="45.41737135218223" lon="10.6987883537608"><ele>81.80000000000001</ele><time>2026-03-30T11:03:09.999Z</time></trkpt><trkpt lat="45.41730105272657" lon="10.698660792646512"><ele>82.4</ele><time>2026-03-30T11:03:10.999Z</time></trkpt><trkpt lat="45.41722558895983" lon="10.698536342315302"><ele>83.0</ele><time>2026-03-30T11:03:11.999Z</time></trkpt><trkpt lat="45.417142365668695" lon="10.698409241283374"><ele>83.0</ele><time>2026-03-30T11:03:12.999Z</time></trkpt><trkpt lat="45.41705465026265" lon="10.698267808618539"><ele>83.0</ele><time>2026-03-30T11:03:13.999Z</time></trkpt><trkpt lat="45.41697232238731" lon="10.698130806491319"><ele>83.0</ele><time>2026-03-30T11:03:15Z</time></trkpt><trkpt lat="45.4168929873269" lon="10.698001726485861"><ele>83.0</ele><time>2026-03-30T11:03:16Z</time></trkpt><trkpt lat="45.416818789499665" lon="10.69788712734881"><ele>83.0</ele><time>2026-03-30T11:03:17Z</time></trkpt><trkpt lat="45.416763212085485" lon="10.697759395487797"><ele>83.0</ele><time>2026-03-30T11:03:18Z</time></trkpt><trkpt lat="45.416735299775254" lon="10.697610993446263"><ele>83.0</ele><time>2026-03-30T11:03:19Z</time></trkpt><trkpt lat="45.41673694540355" lon="10.697451151358853"><ele>83.0</ele><time>2026-03-30T11:03:20Z</time></trkpt><trkpt lat="45.41675641144181" lon="10.697287078584075"><ele>83.0</ele><time>2026-03-30T11:03:21Z</time></trkpt><trkpt lat="45.416768069832756" lon="10.697119310445304"><ele>84.0</ele><time>2026-03-30T11:03:22Z</time></trkpt><trkpt lat="45.4167568497575" lon="10.69694497001574"><ele>85.0</ele><time>2026-03-30T11:03:23Z</time></trkpt><trkpt lat="45.41673732064663" lon="10.69676344776083"><ele>86.0</ele><time>2026-03-30T11:03:24Z</time></trkpt><trkpt lat="45.41671534755085" lon="10.696569762392649"><ele>87.0</ele><time>2026-03-30T11:03:25Z</time></trkpt><trkpt lat="45.41669018867307" lon="10.696395765990895"><ele>87.75</ele><time>2026-03-30T11:03:26Z</time></trkpt><trkpt lat="45.41664567000213" lon="10.696231875536963"><ele>88.5</ele><time>2026-03-30T11:03:27Z</time></trkpt><trkpt lat="45.41657390826525" lon="10.696091778852244"><ele>89.25</ele><time>2026-03-30T11:03:28Z</time></trkpt><trkpt lat="45.41650071265728" lon="10.69596165955765"><ele>90.0</ele><time>2026-03-30T11:03:29Z</time></trkpt><trkpt lat="45.41643792375912" lon="10.695847639073113"><ele>90.4</ele><time>2026-03-30T11:03:30Z</time></trkpt><trkpt lat="45.41639895557231" lon="10.695722599107851"><ele>90.8</ele><time>2026-03-30T11:03:31Z</time></trkpt><trkpt lat="45.4163777375418" lon="10.695573986797088"><ele>91.19999999999999</ele><time>2026-03-30T11:03:32Z</time></trkpt><trkpt lat="45.41637907563099" lon="10.695412407931878"><ele>91.6</ele><time>2026-03-30T11:03:33Z</time></trkpt><trkpt lat="45.41640080097027" lon="10.69524829994166"><ele>92.0</ele><time>2026-03-30T11:03:34Z</time></trkpt><trkpt lat="45.41642401588647" lon="10.695090623094655"><ele>92.0</ele><time>2026-03-30T11:03:35Z</time></trkpt><trkpt lat="45.416440648932976" lon="10.694924547444389"><ele>92.0</ele><time>2026-03-30T11:03:36Z</time></trkpt><trkpt lat="45.416452279687576" lon="10.694756622362114"><ele>92.0</ele><time>2026-03-30T11:03:37Z</time></trkpt><trkpt lat="45.416460841007904" lon="10.694595554987012"><ele>92.0</ele><time>2026-03-30T11:03:38Z</time></trkpt><trkpt lat="45.41646530472921" lon="10.694451646479191"><ele>92.33333333333334</ele><time>2026-03-30T11:03:39Z</time></trkpt><trkpt lat="45.416470242934075" lon="10.694323213397187"><ele>92.66666666666667</ele><time>2026-03-30T11:03:40Z</time></trkpt><trkpt lat="45.416476417405185" lon="10.694201241523581"><ele>93.0</ele><time>2026-03-30T11:03:41Z</time></trkpt><trkpt lat="45.416492281161" lon="10.69407353643834"><ele>93.33333333333333</ele><time>2026-03-30T11:03:42Z</time></trkpt><trkpt lat="45.41651960483697" lon="10.69395140988711"><ele>93.66666666666666</ele><time>2026-03-30T11:03:43Z</time></trkpt><trkpt lat="45.416554815097236" lon="10.693836848085823"><ele>94.0</ele><time>2026-03-30T11:03:44Z</time></trkpt><trkpt lat="45.416590190753546" lon="10.693724493070855"><ele>94.0</ele><time>2026-03-30T11:03:45Z</time></trkpt><trkpt lat="45.41662344204607" lon="10.693613968068416"><ele>94.0</ele><time>2026-03-30T11:03:46Z</time></trkpt><trkpt lat="45.41665795935755" lon="10.693508003819632"><ele>94.0</ele><time>2026-03-30T11:03:47Z</time></trkpt><trkpt lat="45.4166931020374" lon="10.693396098414544"><ele>94.0</ele><time>2026-03-30T11:03:48Z</time></trkpt><trkpt lat="45.416731227589786" lon="10.693273485217347"><ele>94.0</ele><time>2026-03-30T11:03:49Z</time></trkpt><trkpt lat="45.416771226622274" lon="10.693146365898821"><ele>94.0</ele><time>2026-03-30T11:03:50Z</time></trkpt><trkpt lat="45.41681026269982" lon="10.693013947135878"><ele>94.5</ele><time>2026-03-30T11:03:51Z</time></trkpt><trkpt lat="45.41684072922044" lon="10.6928732103676"><ele>95.0</ele><time>2026-03-30T11:03:52Z</time></trkpt><trkpt lat="45.416855446024464" lon="10.692721844125016"><ele>95.5</ele><time>2026-03-30T11:03:53Z</time></trkpt><trkpt lat="45.416853878023076" lon="10.69255762219621"><ele>96.0</ele><time>2026-03-30T11:03:54Z</time></trkpt><trkpt lat="45.41684224536321" lon="10.692378167216605"><ele>96.0</ele><time>2026-03-30T11:03:55Z</time></trkpt><trkpt lat="45.41681848590713" lon="10.692194299073163"><ele>96.0</ele><time>2026-03-30T11:03:56Z</time></trkpt><trkpt lat="45.416790470810206" lon="10.692031943975635"><ele>96.0</ele><time>2026-03-30T11:03:57Z</time></trkpt><trkpt lat="45.41676412871781" lon="10.69186875043177"><ele>96.0</ele><time>2026-03-30T11:03:58Z</time></trkpt><trkpt lat="45.41674352082642" lon="10.691690146841504"><ele>95.75</ele><time>2026-03-30T11:03:59Z</time></trkpt><trkpt lat="45.41673484600587" lon="10.691504854820435"><ele>95.5</ele><time>2026-03-30T11:04:00Z</time></trkpt><trkpt lat="45.41673938525734" lon="10.691339922944096"><ele>95.25</ele><time>2026-03-30T11:04:01Z</time></trkpt><trkpt lat="45.416732910164264" lon="10.69118744368697"><ele>95.0</ele><time>2026-03-30T11:04:02Z</time></trkpt><trkpt lat="45.41669267686478" lon="10.691031787324691"><ele>93.5</ele><time>2026-03-30T11:04:03Z</time></trkpt><trkpt lat="45.41662675184605" lon="10.69088169558582"><ele>92.0</ele><time>2026-03-30T11:04:04Z</time></trkpt><trkpt lat="45.416533008401025" lon="10.690753324058537"><ele>90.5</ele><time>2026-03-30T11:04:05Z</time></trkpt><trkpt lat="45.416421218706446" lon="10.690644577108575"><ele>89.0</ele><time>2026-03-30T11:04:06Z</time></trkpt><trkpt lat="45.41628973701999" lon="10.690559850323677"><ele>92.5</ele><time>2026-03-30T11:04:07Z</time></trkpt><trkpt lat="45.416152425496264" lon="10.690486623213014"><ele>96.0</ele><time>2026-03-30T11:04:08Z</time></trkpt><trkpt lat="45.41601321830125" lon="10.690409144341459"><ele>99.5</ele><time>2026-03-30T11:04:09Z</time></trkpt><trkpt lat="45.415872019434474" lon="10.690334218066496"><ele>103.0</ele><time>2026-03-30T11:04:10Z</time></trkpt><trkpt lat="45.4157222507061" lon="10.690273052245388"><ele>98.33333333333334</ele><time>2026-03-30T11:04:11Z</time></trkpt><trkpt lat="45.41557516025493" lon="10.690209925705915"><ele>93.66666666666667</ele><time>2026-03-30T11:04:12Z</time></trkpt><trkpt lat="45.41542421350832" lon="10.690153489825306"><ele>89.0</ele><time>2026-03-30T11:04:13Z</time></trkpt><trkpt lat="45.41527733331816" lon="10.69010680350435"><ele>89.0</ele><time>2026-03-30T11:04:14Z</time></trkpt><trkpt lat="45.41513528432628" lon="10.690065151471263"><ele>89.0</ele><time>2026-03-30T11:04:15Z</time></trkpt><trkpt lat="45.41499637156966" lon="10.690030799044255"><ele>89.0</ele><time>2026-03-30T11:04:16Z</time></trkpt><trkpt lat="45.414857015086504" lon="10.690009114922363"><ele>89.0</ele><time>2026-03-30T11:04:17Z</time></trkpt><trkpt lat="45.41471684261685" lon="10.689987161331436"><ele>89.25</ele><time>2026-03-30T11:04:18Z</time></trkpt><trkpt lat="45.414581290474196" lon="10.689962232679655"><ele>89.5</ele><time>2026-03-30T11:04:19Z</time></trkpt><trkpt lat="45.4144630188821" lon="10.689941296151787"><ele>89.75</ele><time>2026-03-30T11:04:20Z</time></trkpt><trkpt lat="45.41433775986768" lon="10.689916939416674"><ele>90.0</ele><time>2026-03-30T11:04:21Z</time></trkpt><trkpt lat="45.4142002239421" lon="10.68988972631457"><ele>90.0</ele><time>2026-03-30T11:04:22Z</time></trkpt><trkpt lat="45.41405299538757" lon="10.689860674251037"><ele>90.0</ele><time>2026-03-30T11:04:23Z</time></trkpt><trkpt lat="45.41389700384537" lon="10.689827170783259"><ele>90.0</ele><time>2026-03-30T11:04:24Z</time></trkpt><trkpt lat="45.413736010883305" lon="10.689792518286593"><ele>90.66666666666667</ele><time>2026-03-30T11:04:25Z</time></trkpt><trkpt lat="45.41357812516528" lon="10.689758042641264"><ele>91.33333333333334</ele><time>2026-03-30T11:04:26Z</time></trkpt><trkpt lat="45.41341592797905" lon="10.689721236020981"><ele>92.0</ele><time>2026-03-30T11:04:27Z</time></trkpt><trkpt lat="45.41325736629139" lon="10.689682672559842"><ele>92.0</ele><time>2026-03-30T11:04:28Z</time></trkpt><trkpt lat="45.41310009102876" lon="10.689648142389279"><ele>92.0</ele><time>2026-03-30T11:04:29Z</time></trkpt><trkpt lat="45.412953545688055" lon="10.689613848049326"><ele>92.0</ele><time>2026-03-30T11:04:30Z</time></trkpt><trkpt lat="45.41281292076249" lon="10.68958941821445"><ele>92.0</ele><time>2026-03-30T11:04:31Z</time></trkpt><trkpt lat="45.4126801504771" lon="10.689585522471734"><ele>91.0</ele><time>2026-03-30T11:04:32Z</time></trkpt><trkpt lat="45.412550130237115" lon="10.689598765528977"><ele>90.0</ele><time>2026-03-30T11:04:32.999Z</time></trkpt><trkpt lat="45.41243114453369" lon="10.689623064055784"><ele>89.0</ele><time>2026-03-30T11:04:33.999Z</time></trkpt><trkpt lat="45.41231997688256" lon="10.689649413932448"><ele>88.0</ele><time>2026-03-30T11:04:34.999Z</time></trkpt><trkpt lat="45.41221794692105" lon="10.689668872500445"><ele>87.5</ele><time>2026-03-30T11:04:35.999Z</time></trkpt><trkpt lat="45.41212967684507" lon="10.689685903926796"><ele>87.0</ele><time>2026-03-30T11:04:36.999Z</time></trkpt><trkpt lat="45.41205963077274" lon="10.689690265806604"><ele>86.5</ele><time>2026-03-30T11:04:37.999Z</time></trkpt><trkpt lat="45.41197511357419" lon="10.689688397150027"><ele>86.0</ele><time>2026-03-30T11:04:39.999Z</time></trkpt><trkpt lat="45.411904203855755" lon="10.689701225814897"><ele>85.5</ele><time>2026-03-30T11:04:42.999Z</time></trkpt><trkpt lat="45.41186771772354" lon="10.689777150575619"><ele>85.0</ele><time>2026-03-30T11:04:43.999Z</time></trkpt><trkpt lat="45.41185154878421" lon="10.689919229753729"><ele>85.0</ele><time>2026-03-30T11:04:44.999Z</time></trkpt><trkpt lat="45.41182296763874" lon="10.690061648273188"><ele>85.0</ele><time>2026-03-30T11:04:45.999Z</time></trkpt><trkpt lat="45.41179085990691" lon="10.690236736950554"><ele>85.0</ele><time>2026-03-30T11:04:46.999Z</time></trkpt><trkpt lat="45.41175001980534" lon="10.690439428601962"><ele>85.0</ele><time>2026-03-30T11:04:47.999Z</time></trkpt><trkpt lat="45.41170473700854" lon="10.690659685531033"><ele>86.25</ele><time>2026-03-30T11:04:48.999Z</time></trkpt><trkpt lat="45.411662598663746" lon="10.690884020765425"><ele>87.5</ele><time>2026-03-30T11:04:49.999Z</time></trkpt><trkpt lat="45.41164525503204" lon="10.691035473014319"><ele>88.75</ele><time>2026-03-30T11:04:50.999Z</time></trkpt><trkpt lat="45.411609143854534" lon="10.691274832006513"><ele>90.0</ele><time>2026-03-30T11:04:51.999Z</time></trkpt><trkpt lat="45.41156970664925" lon="10.691549235749308"><ele>90.0</ele><time>2026-03-30T11:04:52.999Z</time></trkpt><trkpt lat="45.41152969579713" lon="10.69181772437274"><ele>90.0</ele><time>2026-03-30T11:04:53.999Z</time></trkpt><trkpt lat="45.41148996666813" lon="10.692067394040372"><ele>90.0</ele><time>2026-03-30T11:04:54.999Z</time></trkpt><trkpt lat="45.411454669289306" lon="10.692284775253539"><ele>89.75</ele><time>2026-03-30T11:04:55.999Z</time></trkpt><trkpt lat="45.411419787999854" lon="10.69248665465614"><ele>89.5</ele><time>2026-03-30T11:04:56.999Z</time></trkpt><trkpt lat="45.411388013129056" lon="10.692677969212767"><ele>89.25</ele><time>2026-03-30T11:04:57.999Z</time></trkpt><trkpt lat="45.41135634267059" lon="10.69287265036692"><ele>89.0</ele><time>2026-03-30T11:04:58.999Z</time></trkpt><trkpt lat="45.41132332247949" lon="10.693088244812552"><ele>88.66666666666667</ele><time>2026-03-30T11:04:59.999Z</time></trkpt><trkpt lat="45.41128947926376" lon="10.693312292149013"><ele>88.33333333333333</ele><time>2026-03-30T11:05:00.999Z</time></trkpt><trkpt lat="45.41123750182466" lon="10.693541370430214"><ele>88.0</ele><time>2026-03-30T11:05:01.999Z</time></trkpt><trkpt lat="45.4111386617025" lon="10.69379539520837"><ele>87.66666666666666</ele><time>2026-03-30T11:05:02.999Z</time></trkpt><trkpt lat="45.411026009805575" lon="10.694057619118542"><ele>87.33333333333333</ele><time>2026-03-30T11:05:03.999Z</time></trkpt><trkpt lat="45.41092794156805" lon="10.69430879514487"><ele>87.0</ele><time>2026-03-30T11:05:04.999Z</time></trkpt><trkpt lat="45.41083352373537" lon="10.694580708620263"><ele>89.0</ele><time>2026-03-30T11:05:05.999Z</time></trkpt><trkpt lat="45.41073514458574" lon="10.694892282387295"><ele>91.0</ele><time>2026-03-30T11:05:06.999Z</time></trkpt><trkpt lat="45.41065118221042" lon="10.695203688762867"><ele>90.33333333333333</ele><time>2026-03-30T11:05:07.999Z</time></trkpt><trkpt lat="45.410582626294236" lon="10.695493163793083"><ele>89.66666666666667</ele><time>2026-03-30T11:05:08.999Z</time></trkpt><trkpt lat="45.41051139119881" lon="10.695778448501384"><ele>89.0</ele><time>2026-03-30T11:05:09.999Z</time></trkpt><trkpt lat="45.410434232497366" lon="10.696046515779194"><ele>90.0</ele><time>2026-03-30T11:05:10.999Z</time></trkpt><trkpt lat="45.410349525069044" lon="10.696288395338351"><ele>91.0</ele><time>2026-03-30T11:05:11.999Z</time></trkpt><trkpt lat="45.410265362043596" lon="10.696517572396022"><ele>92.0</ele><time>2026-03-30T11:05:12.999Z</time></trkpt><trkpt lat="45.410201113330956" lon="10.696722901806774"><ele>93.33333333333334</ele><time>2026-03-30T11:05:13.999Z</time></trkpt><trkpt lat="45.41013807615419" lon="10.696925996250865"><ele>94.66666666666667</ele><time>2026-03-30T11:05:14.999Z</time></trkpt><trkpt lat="45.41007745058379" lon="10.69712561234694"><ele>96.0</ele><time>2026-03-30T11:05:15.999Z</time></trkpt><trkpt lat="45.40999496933018" lon="10.697329453988967"><ele>96.0</ele><time>2026-03-30T11:05:16.999Z</time></trkpt><trkpt lat="45.40987391159892" lon="10.697553840033228"><ele>96.0</ele><time>2026-03-30T11:05:17.999Z</time></trkpt><trkpt lat="45.40974060033663" lon="10.697746571955273"><ele>96.0</ele><time>2026-03-30T11:05:18.999Z</time></trkpt><trkpt lat="45.409587296292216" lon="10.697952290363826"><ele>95.0</ele><time>2026-03-30T11:05:19.999Z</time></trkpt><trkpt lat="45.409456085054074" lon="10.698129972784466"><ele>94.0</ele><time>2026-03-30T11:05:21Z</time></trkpt><trkpt lat="45.40933584191815" lon="10.698293331057725"><ele>93.0</ele><time>2026-03-30T11:05:22Z</time></trkpt><trkpt lat="45.409217950789824" lon="10.698439988960672"><ele>93.0</ele><time>2026-03-30T11:05:23Z</time></trkpt><trkpt lat="45.40911156644073" lon="10.698566605480787"><ele>93.0</ele><time>2026-03-30T11:05:24Z</time></trkpt><trkpt lat="45.40902460187675" lon="10.69869842786852"><ele>93.0</ele><time>2026-03-30T11:05:25Z</time></trkpt><trkpt lat="45.4089574119841" lon="10.698845680583313"><ele>93.0</ele><time>2026-03-30T11:05:26Z</time></trkpt><trkpt lat="45.40889655017129" lon="10.699000952065544"><ele>93.60000000000001</ele><time>2026-03-30T11:05:27Z</time></trkpt><trkpt lat="45.408841504564435" lon="10.699141522228059"><ele>94.2</ele><time>2026-03-30T11:05:28Z</time></trkpt><trkpt lat="45.40878502901855" lon="10.699277894132392"><ele>94.8</ele><time>2026-03-30T11:05:29Z</time></trkpt><trkpt lat="45.408734688266485" lon="10.699391173304718"><ele>95.4</ele><time>2026-03-30T11:05:30Z</time></trkpt><trkpt lat="45.40868975128256" lon="10.699491763839173"><ele>96.0</ele><time>2026-03-30T11:05:31Z</time></trkpt><trkpt lat="45.408653967170046" lon="10.699585603021747"><ele>96.5</ele><time>2026-03-30T11:05:32Z</time></trkpt><trkpt lat="45.40863025574343" lon="10.699678961392319"><ele>97.0</ele><time>2026-03-30T11:05:33Z</time></trkpt><trkpt lat="45.40860616042738" lon="10.699763052401321"><ele>97.5</ele><time>2026-03-30T11:05:34Z</time></trkpt><trkpt lat="45.40853422090653" lon="10.699817412792154"><ele>98.0</ele><time>2026-03-30T11:05:35Z</time></trkpt><trkpt lat="45.408468068347695" lon="10.699886758687988"><ele>98.5</ele><time>2026-03-30T11:05:36Z</time></trkpt><trkpt lat="45.408408569601406" lon="10.69994848543846"><ele>99.0</ele><time>2026-03-30T11:05:37Z</time></trkpt><trkpt lat="45.408320446398534" lon="10.700039499371066"><ele>99.0</ele><time>2026-03-30T11:05:38Z</time></trkpt><trkpt lat="45.40823606990177" lon="10.700118880829919"><ele>99.0</ele><time>2026-03-30T11:05:39Z</time></trkpt><trkpt lat="45.40814011167945" lon="10.700188483441757"><ele>99.0</ele><time>2026-03-30T11:05:40Z</time></trkpt><trkpt lat="45.40805919496232" lon="10.70024232694866"><ele>99.0</ele><time>2026-03-30T11:05:41Z</time></trkpt><trkpt lat="45.40798443726592" lon="10.700292072125688"><ele>99.0</ele><time>2026-03-30T11:05:42Z</time></trkpt><trkpt lat="45.40790924367529" lon="10.700341574347007"><ele>98.83333333333333</ele><time>2026-03-30T11:05:43Z</time></trkpt><trkpt lat="45.40783792942574" lon="10.700388186185235"><ele>98.66666666666666</ele><time>2026-03-30T11:05:44Z</time></trkpt><trkpt lat="45.40777840811387" lon="10.700455231167265"><ele>98.5</ele><time>2026-03-30T11:05:45Z</time></trkpt><trkpt lat="45.40770572254546" lon="10.70050369445791"><ele>98.33333333333333</ele><time>2026-03-30T11:05:46Z</time></trkpt><trkpt lat="45.40763909941667" lon="10.700574184079056"><ele>98.16666666666666</ele><time>2026-03-30T11:05:47Z</time></trkpt><trkpt lat="45.407570772781185" lon="10.700670114395"><ele>98.0</ele><time>2026-03-30T11:05:48Z</time></trkpt><trkpt lat="45.40749203295829" lon="10.70071935489721"><ele>97.99999999999999</ele><time>2026-03-30T11:05:49Z</time></trkpt><trkpt lat="45.40744017217193" lon="10.700795966679781"><ele>98.0</ele><time>2026-03-30T11:05:50Z</time></trkpt><trkpt lat="45.40738640523502" lon="10.7008625094043"><ele>98.0</ele><time>2026-03-30T11:05:51Z</time></trkpt><trkpt lat="45.407339749714225" lon="10.700956431457225"><ele>98.0</ele><time>2026-03-30T11:05:52Z</time></trkpt><trkpt lat="45.407310486859984" lon="10.701066116606727"><ele>97.99999999999999</ele><time>2026-03-30T11:05:53Z</time></trkpt><trkpt lat="45.40729503455179" lon="10.70117415382532"><ele>98.0</ele><time>2026-03-30T11:05:54Z</time></trkpt><trkpt lat="45.407288677095316" lon="10.70127926519644"><ele>97.33333333333333</ele><time>2026-03-30T11:05:55Z</time></trkpt><trkpt lat="45.40730120723918" lon="10.701380242624495"><ele>96.66666666666666</ele><time>2026-03-30T11:05:56Z</time></trkpt><trkpt lat="45.40729634291376" lon="10.701484684228513"><ele>96.0</ele><time>2026-03-30T11:05:57Z</time></trkpt><trkpt lat="45.40729513109208" lon="10.701580154590346"><ele>95.33333333333333</ele><time>2026-03-30T11:05:58Z</time></trkpt><trkpt lat="45.40728695435153" lon="10.701711901005021"><ele>94.66666666666666</ele><time>2026-03-30T11:06:00Z</time></trkpt><trkpt lat="45.4072660562115" lon="10.701818105664643"><ele>94.0</ele><time>2026-03-30T11:06:02Z</time></trkpt><trkpt lat="45.407271373351236" lon="10.701700443400728"><ele>94.0</ele><time>2026-03-30T11:06:11Z</time></trkpt><trkpt lat="45.407289895840385" lon="10.701613299931443"><ele>94.0</ele><time>2026-03-30T11:06:14Z</time></trkpt><trkpt lat="45.407269427162014" lon="10.701729768669335"><ele>94.0</ele><time>2026-03-30T11:06:20Z</time></trkpt><trkpt lat="45.407258860352485" lon="10.701895775090046"><ele>94.0</ele><time>2026-03-30T11:06:22Z</time></trkpt><trkpt lat="45.4072540446079" lon="10.701992554525862"><ele>94.0</ele><time>2026-03-30T11:06:23Z</time></trkpt><trkpt lat="45.40724916555504" lon="10.702090606253163"><ele>94.0</ele><time>2026-03-30T11:06:24Z</time></trkpt><trkpt lat="45.407244183379916" lon="10.70219073036247"><ele>94.33333333333333</ele><time>2026-03-30T11:06:25Z</time></trkpt><trkpt lat="45.407238606770164" lon="10.70230280046384"><ele>94.66666666666666</ele><time>2026-03-30T11:06:26Z</time></trkpt><trkpt lat="45.40723178232436" lon="10.702439947660428"><ele>95.0</ele><time>2026-03-30T11:06:27Z</time></trkpt><trkpt lat="45.40722589678218" lon="10.702548262737324"><ele>95.33333333333333</ele><time>2026-03-30T11:06:28Z</time></trkpt><trkpt lat="45.40721842663229" lon="10.702675175787418"><ele>95.66666666666667</ele><time>2026-03-30T11:06:29Z</time></trkpt><trkpt lat="45.407210164205374" lon="10.7027919246861"><ele>96.0</ele><time>2026-03-30T11:06:30Z</time></trkpt><trkpt lat="45.407200732020435" lon="10.702892128663892"><ele>96.19999999999999</ele><time>2026-03-30T11:06:31Z</time></trkpt><trkpt lat="45.407190432169344" lon="10.702992887122754"><ele>96.39999999999999</ele><time>2026-03-30T11:06:32Z</time></trkpt><trkpt lat="45.407179591217265" lon="10.703091946311504"><ele>96.6</ele><time>2026-03-30T11:06:33Z</time></trkpt><trkpt lat="45.40716057721802" lon="10.703225882575056"><ele>96.8</ele><time>2026-03-30T11:06:35Z</time></trkpt><trkpt lat="45.40713546020197" lon="10.703385141036764"><ele>97.0</ele><time>2026-03-30T11:06:37Z</time></trkpt><trkpt lat="45.407108919050735" lon="10.70355342948736"><ele>95.75</ele><time>2026-03-30T11:06:38.999Z</time></trkpt><trkpt lat="45.40709471307879" lon="10.703643504741343"><ele>94.5</ele><time>2026-03-30T11:06:39.999Z</time></trkpt><trkpt lat="45.40734869255774" lon="10.703821563175559"><ele>93.25</ele><time>2026-03-30T11:06:40.999Z</time></trkpt><trkpt lat="45.40731230317393" lon="10.703897731926007"><ele>92.0</ele><time>2026-03-30T11:06:41.999Z</time></trkpt><trkpt lat="45.40727630761003" lon="10.703988034554174"><ele>92.0</ele><time>2026-03-30T11:06:42.999Z</time></trkpt><trkpt lat="45.40721024475511" lon="10.704117605135337"><ele>92.0</ele><time>2026-03-30T11:06:44.999Z</time></trkpt><trkpt lat="45.40711738841396" lon="10.704186738375785"><ele>92.0</ele><time>2026-03-30T11:06:46.999Z</time></trkpt><trkpt lat="45.407011355590186" lon="10.704211309700913"><ele>92.0</ele><time>2026-03-30T11:06:48.999Z</time></trkpt><trkpt lat="45.40692581397421" lon="10.704216710346852"><ele>92.0</ele><time>2026-03-30T11:06:50.999Z</time></trkpt><trkpt lat="45.406858564002874" lon="10.704248953009959"><ele>90.8</ele><time>2026-03-30T11:06:52.999Z</time></trkpt><trkpt lat="45.40677669944047" lon="10.704319791377785"><ele>89.6</ele><time>2026-03-30T11:06:54.999Z</time></trkpt><trkpt lat="45.406716166004" lon="10.704477814743063"><ele>88.39999999999999</ele><time>2026-03-30T11:06:56.999Z</time></trkpt><trkpt lat="45.406679330452015" lon="10.704568524322957"><ele>87.19999999999999</ele><time>2026-03-30T11:06:57.999Z</time></trkpt><trkpt lat="45.40664789915122" lon="10.704684086905228"><ele>86.0</ele><time>2026-03-30T11:06:58.999Z</time></trkpt><trkpt lat="45.40661741119431" lon="10.704808592089051"><ele>86.0</ele><time>2026-03-30T11:06:59.999Z</time></trkpt><trkpt lat="45.40657792449111" lon="10.704939178939336"><ele>86.0</ele><time>2026-03-30T11:07:00.999Z</time></trkpt><trkpt lat="45.40653436200002" lon="10.705064039027262"><ele>86.0</ele><time>2026-03-30T11:07:01.999Z</time></trkpt><trkpt lat="45.40648534247339" lon="10.70518564752779"><ele>86.0</ele><time>2026-03-30T11:07:02.999Z</time></trkpt><trkpt lat="45.406427064454626" lon="10.705318033105701"><ele>86.0</ele><time>2026-03-30T11:07:03.999Z</time></trkpt><trkpt lat="45.40636514427202" lon="10.70543903833485"><ele>84.33333333333334</ele><time>2026-03-30T11:07:04.999Z</time></trkpt><trkpt lat="45.4063057620797" lon="10.705553147974117"><ele>82.66666666666667</ele><time>2026-03-30T11:07:05.999Z</time></trkpt><trkpt lat="45.406260702742685" lon="10.705659901686063"><ele>81.0</ele><time>2026-03-30T11:07:06.999Z</time></trkpt><trkpt lat="45.40623133318703" lon="10.705781753467692"><ele>79.33333333333333</ele><time>2026-03-30T11:07:07.999Z</time></trkpt><trkpt lat="45.4061987248874" lon="10.705898480244262"><ele>77.66666666666666</ele><time>2026-03-30T11:07:08.999Z</time></trkpt><trkpt lat="45.406162569094676" lon="10.70600320830074"><ele>76.0</ele><time>2026-03-30T11:07:09.999Z</time></trkpt><trkpt lat="45.40613824644932" lon="10.706090515860444"><ele>76.0</ele><time>2026-03-30T11:07:10.999Z</time></trkpt><trkpt lat="45.40608290518805" lon="10.706193486888708"><ele>76.0</ele><time>2026-03-30T11:07:11.999Z</time></trkpt><trkpt lat="45.40601280757841" lon="10.706297346718674"><ele>76.0</ele><time>2026-03-30T11:07:12.999Z</time></trkpt><trkpt lat="45.405932602351506" lon="10.706410392062192"><ele>76.0</ele><time>2026-03-30T11:07:13.999Z</time></trkpt><trkpt lat="45.4058661158111" lon="10.706504816268641"><ele>76.0</ele><time>2026-03-30T11:07:14.999Z</time></trkpt><trkpt lat="45.40581629389858" lon="10.706610290303834"><ele>76.0</ele><time>2026-03-30T11:07:15.999Z</time></trkpt><trkpt lat="45.40576791473326" lon="10.706725051101184"><ele>76.0</ele><time>2026-03-30T11:07:16.999Z</time></trkpt><trkpt lat="45.40573123111914" lon="10.70686786145442"><ele>76.0</ele><time>2026-03-30T11:07:17.999Z</time></trkpt><trkpt lat="45.40570966693586" lon="10.70699119116983"><ele>76.0</ele><time>2026-03-30T11:07:18.999Z</time></trkpt><trkpt lat="45.40569584873942" lon="10.707122269140829"><ele>76.0</ele><time>2026-03-30T11:07:19.999Z</time></trkpt><trkpt lat="45.40568415416156" lon="10.707246424386762"><ele>75.83333333333333</ele><time>2026-03-30T11:07:20.999Z</time></trkpt><trkpt lat="45.40568930743987" lon="10.707344518367483"><ele>75.66666666666666</ele><time>2026-03-30T11:07:21.999Z</time></trkpt><trkpt lat="45.405705170233965" lon="10.707438328467104"><ele>75.5</ele><time>2026-03-30T11:07:22.999Z</time></trkpt><trkpt lat="45.40574170886329" lon="10.707563242110918"><ele>75.33333333333333</ele><time>2026-03-30T11:07:24.999Z</time></trkpt><trkpt lat="45.40577294602144" lon="10.70770558682188"><ele>75.16666666666667</ele><time>2026-03-30T11:07:27Z</time></trkpt><trkpt lat="45.405796211632826" lon="10.707827462284499"><ele>75.0</ele><time>2026-03-30T11:07:29Z</time></trkpt><trkpt lat="45.40580550676337" lon="10.707943509356795"><ele>75.0</ele><time>2026-03-30T11:07:31.001Z</time></trkpt><trkpt lat="45.40582121758249" lon="10.708056247277376"><ele>75.0</ele><time>2026-03-30T11:07:34.001Z</time></trkpt><trkpt lat="45.40583396710763" lon="10.708159547318402"><ele>75.0</ele><time>2026-03-30T11:08:03Z</time></trkpt><trkpt lat="45.405885872880894" lon="10.708103380949328"><ele>75.0</ele><time>2026-03-30T11:08:17Z</time></trkpt><trkpt lat="45.40583209350574" lon="10.707931687105626"><ele>75.0</ele><time>2026-03-30T11:08:19Z</time></trkpt><trkpt lat="45.405802468708195" lon="10.707845011189432"><ele>75.0</ele><time>2026-03-30T11:08:20Z</time></trkpt><trkpt lat="45.4057788456963" lon="10.707707857767122"><ele>75.6</ele><time>2026-03-30T11:08:22Z</time></trkpt><trkpt lat="45.40576627726934" lon="10.707603894217014"><ele>76.2</ele><time>2026-03-30T11:08:23Z</time></trkpt><trkpt lat="45.405735728507" lon="10.707461324861175"><ele>76.8</ele><time>2026-03-30T11:08:25Z</time></trkpt><trkpt lat="45.40570951569154" lon="10.707353963521307"><ele>77.4</ele><time>2026-03-30T11:08:28Z</time></trkpt><trkpt lat="45.405704069883974" lon="10.707202973640891"><ele>78.0</ele><time>2026-03-30T11:08:31Z</time></trkpt><trkpt lat="45.40570973404332" lon="10.707058633050135"><ele>77.6</ele><time>2026-03-30T11:08:33Z</time></trkpt><trkpt lat="45.4057395114965" lon="10.706903089251862"><ele>77.19999999999999</ele><time>2026-03-30T11:08:35Z</time></trkpt><trkpt lat="45.405760166213014" lon="10.70678540366101"><ele>76.8</ele><time>2026-03-30T11:08:37Z</time></trkpt><trkpt lat="45.40579462468756" lon="10.706682280040319"><ele>76.39999999999999</ele><time>2026-03-30T11:08:39Z</time></trkpt><trkpt lat="45.405851632920175" lon="10.706554645989028"><ele>76.0</ele><time>2026-03-30T11:08:41Z</time></trkpt><trkpt lat="45.40588702018651" lon="10.706476108270657"><ele>76.0</ele><time>2026-03-30T11:08:42Z</time></trkpt><trkpt lat="45.405959791210186" lon="10.706349074644393"><ele>76.0</ele><time>2026-03-30T11:08:44Z</time></trkpt><trkpt lat="45.40603269863881" lon="10.70622711811892"><ele>76.0</ele><time>2026-03-30T11:08:46Z</time></trkpt><trkpt lat="45.406087225487134" lon="10.706151406466761"><ele>76.0</ele><time>2026-03-30T11:08:46.999Z</time></trkpt><trkpt lat="45.406136254512525" lon="10.70608136032025"><ele>76.0</ele><time>2026-03-30T11:08:47.999Z</time></trkpt><trkpt lat="45.40617387106485" lon="10.706006927961814"><ele>76.0</ele><time>2026-03-30T11:08:48.999Z</time></trkpt><trkpt lat="45.40620979800083" lon="10.705894571976446"><ele>75.6</ele><time>2026-03-30T11:08:49.999Z</time></trkpt><trkpt lat="45.40623606707278" lon="10.70575796568926"><ele>75.19999999999999</ele><time>2026-03-30T11:08:50.999Z</time></trkpt><trkpt lat="45.40626187374562" lon="10.705651049662771"><ele>74.80000000000001</ele><time>2026-03-30T11:08:51.999Z</time></trkpt><trkpt lat="45.40629700109311" lon="10.705536488088878"><ele>74.4</ele><time>2026-03-30T11:08:53.999Z</time></trkpt><trkpt lat="45.40623185854145" lon="10.705541616602568"><ele>74.0</ele><time>2026-03-30T11:09:01.999Z</time></trkpt><trkpt lat="45.40600860622192" lon="10.705521128798658"><ele>74.0</ele><time>2026-03-30T11:09:03.999Z</time></trkpt><trkpt lat="45.40615445914758" lon="10.7057844111931"><ele>74.0</ele><time>2026-03-30T11:09:04.999Z</time></trkpt><trkpt lat="45.4061287747399" lon="10.705871551978417"><ele>74.0</ele><time>2026-03-30T11:09:05.999Z</time></trkpt><trkpt lat="45.406071067829714" lon="10.705995034981484"><ele>74.0</ele><time>2026-03-30T11:09:07.999Z</time></trkpt><trkpt lat="45.40600140792555" lon="10.706076995340936"><ele>74.5</ele><time>2026-03-30T11:09:09.999Z</time></trkpt><trkpt lat="45.405931764562354" lon="10.706215141697152"><ele>75.0</ele><time>2026-03-30T11:09:11.999Z</time></trkpt><trkpt lat="45.40584147616889" lon="10.706338426055959"><ele>75.5</ele><time>2026-03-30T11:09:13.999Z</time></trkpt><trkpt lat="45.40579233817672" lon="10.70642088823447"><ele>76.0</ele><time>2026-03-30T11:09:14.999Z</time></trkpt><trkpt lat="45.40557459262595" lon="10.706422545500624"><ele>76.0</ele><time>2026-03-30T11:09:16.999Z</time></trkpt><trkpt lat="45.40551418644268" lon="10.706548054288838"><ele>76.0</ele><time>2026-03-30T11:09:18.999Z</time></trkpt><trkpt lat="45.40547736683325" lon="10.7066245561318"><ele>76.0</ele><time>2026-03-30T11:09:20.999Z</time></trkpt><trkpt lat="45.405436031028735" lon="10.706710441488868"><ele>76.0</ele><time>2026-03-30T11:09:23.999Z</time></trkpt><trkpt lat="45.40538896984935" lon="10.70680822272425"><ele>76.0</ele><time>2026-03-30T11:09:26.999Z</time></trkpt><trkpt lat="45.40533283912579" lon="10.706924848191097"><ele>76.0</ele><time>2026-03-30T11:09:29.999Z</time></trkpt><trkpt lat="45.40529648089451" lon="10.707000391412754"><ele>76.0</ele><time>2026-03-30T11:09:32.001Z</time></trkpt><trkpt lat="45.405446012088966" lon="10.707048434519262"><ele>76.0</ele><time>2026-03-30T11:09:39.001Z</time></trkpt><trkpt lat="45.40550187863876" lon="10.706927709625345"><ele>76.0</ele><time>2026-03-30T11:09:41.001Z</time></trkpt><trkpt lat="45.40551439001108" lon="10.706833146675255"><ele>76.0</ele><time>2026-03-30T11:09:43.001Z</time></trkpt><trkpt lat="45.405463685748686" lon="10.706770671548005"><ele>76.0</ele><time>2026-03-30T11:09:46.001Z</time></trkpt><trkpt lat="45.40539454086255" lon="10.706802764934238"><ele>75.0</ele><time>2026-03-30T11:09:48Z</time></trkpt><trkpt lat="45.40534362699166" lon="10.706875963809644"><ele>74.0</ele><time>2026-03-30T11:09:49Z</time></trkpt><trkpt lat="45.40530445533816" lon="10.706980104589801"><ele>73.0</ele><time>2026-03-30T11:09:50Z</time></trkpt><trkpt lat="45.405261621398836" lon="10.707087017602115"><ele>72.0</ele><time>2026-03-30T11:09:51Z</time></trkpt><trkpt lat="45.40520461107339" lon="10.7072122477455"><ele>71.0</ele><time>2026-03-30T11:09:52Z</time></trkpt><trkpt lat="45.40514137711894" lon="10.707347160596875"><ele>70.66666666666667</ele><time>2026-03-30T11:09:53Z</time></trkpt><trkpt lat="45.40506615878476" lon="10.707496957294342"><ele>70.33333333333333</ele><time>2026-03-30T11:09:54Z</time></trkpt><trkpt lat="45.40497186365116" lon="10.707688944912228"><ele>70.0</ele><time>2026-03-30T11:09:55Z</time></trkpt><trkpt lat="45.40487435184687" lon="10.707892241284133"><ele>69.33333333333333</ele><time>2026-03-30T11:09:56Z</time></trkpt><trkpt lat="45.40477315246052" lon="10.70810352032822"><ele>68.66666666666667</ele><time>2026-03-30T11:09:57Z</time></trkpt><trkpt lat="45.404662720592064" lon="10.708334354799073"><ele>68.0</ele><time>2026-03-30T11:09:58Z</time></trkpt><trkpt lat="45.40455469605625" lon="10.708562506789974"><ele>68.0</ele><time>2026-03-30T11:09:59Z</time></trkpt><trkpt lat="45.404457687783854" lon="10.708768304365256"><ele>68.0</ele><time>2026-03-30T11:10:00Z</time></trkpt><trkpt lat="45.40436207562063" lon="10.7089621101067"><ele>68.0</ele><time>2026-03-30T11:10:01Z</time></trkpt><trkpt lat="45.40428976093214" lon="10.709112435911548"><ele>68.0</ele><time>2026-03-30T11:10:02Z</time></trkpt><trkpt lat="45.40423137711078" lon="10.709247130692942"><ele>68.0</ele><time>2026-03-30T11:10:03Z</time></trkpt><trkpt lat="45.40416591007815" lon="10.709337778588496"><ele>68.0</ele><time>2026-03-30T11:10:04Z</time></trkpt><trkpt lat="45.40410571799304" lon="10.709439924419133"><ele>68.0</ele><time>2026-03-30T11:10:06Z</time></trkpt><trkpt lat="45.404039884897735" lon="10.709340757642204"><ele>68.0</ele><time>2026-03-30T11:10:07Z</time></trkpt><trkpt lat="45.40401441787619" lon="10.709249634560829"><ele>68.0</ele><time>2026-03-30T11:10:08Z</time></trkpt><trkpt lat="45.403983289838344" lon="10.709118660029095"><ele>68.0</ele><time>2026-03-30T11:10:09Z</time></trkpt><trkpt lat="45.40392848329746" lon="10.708950264645553"><ele>68.0</ele><time>2026-03-30T11:10:10Z</time></trkpt><trkpt lat="45.40389976092373" lon="10.7087489182986"><ele>68.0</ele><time>2026-03-30T11:10:11Z</time></trkpt><trkpt lat="45.403853795720224" lon="10.708547822062869"><ele>68.5</ele><time>2026-03-30T11:10:12Z</time></trkpt><trkpt lat="45.403798632848215" lon="10.70835686133772"><ele>69.0</ele><time>2026-03-30T11:10:13Z</time></trkpt><trkpt lat="45.40372648190068" lon="10.7081975627774"><ele>69.5</ele><time>2026-03-30T11:10:14Z</time></trkpt><trkpt lat="45.40363026441643" lon="10.708069972874721"><ele>70.0</ele><time>2026-03-30T11:10:15Z</time></trkpt><trkpt lat="45.40351836725683" lon="10.707975029747312"><ele>70.0</ele><time>2026-03-30T11:10:16Z</time></trkpt><trkpt lat="45.4033869355026" lon="10.707910191833633"><ele>70.0</ele><time>2026-03-30T11:10:17Z</time></trkpt><trkpt lat="45.403255331328715" lon="10.707877911768144"><ele>70.0</ele><time>2026-03-30T11:10:18Z</time></trkpt><trkpt lat="45.40314723387895" lon="10.707855809639032"><ele>70.0</ele><time>2026-03-30T11:10:19Z</time></trkpt><trkpt lat="45.40305742359085" lon="10.707850470476384"><ele>70.0</ele><time>2026-03-30T11:10:20Z</time></trkpt><trkpt lat="45.402988758524835" lon="10.70786190277379"><ele>70.0</ele><time>2026-03-30T11:10:21Z</time></trkpt><trkpt lat="45.40292195386694" lon="10.70786157063917"><ele>70.0</ele><time>2026-03-30T11:12:44.999Z</time></trkpt><trkpt lat="45.402848747129845" lon="10.707935744650609"><ele>70.0</ele><time>2026-03-30T11:12:46.999Z</time></trkpt><trkpt lat="45.40277251738288" lon="10.707951595038567"><ele>70.0</ele><time>2026-03-30T11:12:47.999Z</time></trkpt><trkpt lat="45.40265114785574" lon="10.708007939522888"><ele>70.0</ele><time>2026-03-30T11:12:49.999Z</time></trkpt><trkpt lat="45.402576829275304" lon="10.708029706765537"><ele>70.0</ele><time>2026-03-30T11:12:50.999Z</time></trkpt><trkpt lat="45.40249158245374" lon="10.708043032840898"><ele>70.0</ele><time>2026-03-30T11:12:51.999Z</time></trkpt><trkpt lat="45.40238638451101" lon="10.708073407351277"><ele>70.0</ele><time>2026-03-30T11:12:52.999Z</time></trkpt><trkpt lat="45.402267635330695" lon="10.708056873488703"><ele>70.0</ele><time>2026-03-30T11:12:53.999Z</time></trkpt><trkpt lat="45.40214708217361" lon="10.708034496349917"><ele>70.0</ele><time>2026-03-30T11:12:54.999Z</time></trkpt><trkpt lat="45.40203141314963" lon="10.707978735105849"><ele>69.8</ele><time>2026-03-30T11:12:55.999Z</time></trkpt><trkpt lat="45.401912860356504" lon="10.707957471972845"><ele>69.6</ele><time>2026-03-30T11:12:56.999Z</time></trkpt><trkpt lat="45.4018052356432" lon="10.707919466306683"><ele>69.4</ele><time>2026-03-30T11:12:57.999Z</time></trkpt><trkpt lat="45.40171000982774" lon="10.707888859079834"><ele>69.2</ele><time>2026-03-30T11:12:58.999Z</time></trkpt><trkpt lat="45.40162804624464" lon="10.707875746772949"><ele>69.0</ele><time>2026-03-30T11:12:59.998Z</time></trkpt><trkpt lat="45.40154677983632" lon="10.707890498578665"><ele>69.0</ele><time>2026-03-30T11:13:00.998Z</time></trkpt><trkpt lat="45.401462254792186" lon="10.707926202214678"><ele>69.0</ele><time>2026-03-30T11:13:01.998Z</time></trkpt><trkpt lat="45.4013877538975" lon="10.70796686184815"><ele>69.0</ele><time>2026-03-30T11:13:02.998Z</time></trkpt><trkpt lat="45.401320164065" lon="10.70801063528779"><ele>69.0</ele><time>2026-03-30T11:13:03.998Z</time></trkpt><trkpt lat="45.40125928416102" lon="10.708052280901544"><ele>69.0</ele><time>2026-03-30T11:13:04.998Z</time></trkpt><trkpt lat="45.40115259940263" lon="10.708120432252949"><ele>69.0</ele><time>2026-03-30T11:13:06.998Z</time></trkpt><trkpt lat="45.401060120475805" lon="10.70817599523527"><ele>69.0</ele><time>2026-03-30T11:13:08.998Z</time></trkpt><trkpt lat="45.400983260212286" lon="10.70819914230317"><ele>69.0</ele><time>2026-03-30T11:13:10.998Z</time></trkpt><trkpt lat="45.400954444560384" lon="10.708082593940052"><ele>69.0</ele><time>2026-03-30T11:13:11.998Z</time></trkpt><trkpt lat="45.40087304147582" lon="10.707921626395624"><ele>69.0</ele><time>2026-03-30T11:13:13.998Z</time></trkpt><trkpt lat="45.40083343143262" lon="10.707836841832119"><ele>69.0</ele><time>2026-03-30T11:13:14.998Z</time></trkpt><trkpt lat="45.40076568903218" lon="10.7077334588346"><ele>69.0</ele><time>2026-03-30T11:13:16.998Z</time></trkpt><trkpt lat="45.40085087241922" lon="10.707874330365305"><ele>69.0</ele><time>2026-03-30T11:13:33.998Z</time></trkpt><trkpt lat="45.40088188676099" lon="10.707998399740525"><ele>69.0</ele><time>2026-03-30T11:13:34.998Z</time></trkpt><trkpt lat="45.40092110295727" lon="10.708073882985115"><ele>69.0</ele><time>2026-03-30T11:13:35.998Z</time></trkpt><trkpt lat="45.400967452021135" lon="10.708154033017099"><ele>69.0</ele><time>2026-03-30T11:13:37.998Z</time></trkpt><trkpt lat="45.40096861139232" lon="10.7082669045613"><ele>69.0</ele><time>2026-03-30T11:13:40.998Z</time></trkpt><trkpt lat="45.40092580243298" lon="10.708337775252467"><ele>69.0</ele><time>2026-03-30T11:13:41.998Z</time></trkpt><trkpt lat="45.400834923778355" lon="10.708406980232057"><ele>69.0</ele><time>2026-03-30T11:13:43Z</time></trkpt><trkpt lat="45.40069559126429" lon="10.708435079505506"><ele>69.0</ele><time>2026-03-30T11:13:44Z</time></trkpt><trkpt lat="45.40056094547105" lon="10.708532699152494"><ele>69.0</ele><time>2026-03-30T11:13:45Z</time></trkpt><trkpt lat="45.40041043016345" lon="10.708646720087321"><ele>68.66666666666667</ele><time>2026-03-30T11:13:46Z</time></trkpt><trkpt lat="45.40025298290827" lon="10.708766144779068"><ele>68.33333333333334</ele><time>2026-03-30T11:13:47Z</time></trkpt><trkpt lat="45.4001039197884" lon="10.70887737272756"><ele>68.0</ele><time>2026-03-30T11:13:48Z</time></trkpt><trkpt lat="45.39995545341997" lon="10.708985250185753"><ele>68.0</ele><time>2026-03-30T11:13:49Z</time></trkpt><trkpt lat="45.39981363233255" lon="10.709105715935518"><ele>68.0</ele><time>2026-03-30T11:13:50Z</time></trkpt><trkpt lat="45.39965241987623" lon="10.709178276779571"><ele>68.0</ele><time>2026-03-30T11:13:51Z</time></trkpt><trkpt lat="45.39949360496508" lon="10.709259718727107"><ele>68.0</ele><time>2026-03-30T11:13:52Z</time></trkpt><trkpt lat="45.399312710365386" lon="10.70933595388964"><ele>68.0</ele><time>2026-03-30T11:13:53Z</time></trkpt><trkpt lat="45.399127888782154" lon="10.709411793576056"><ele>68.0</ele><time>2026-03-30T11:13:54Z</time></trkpt><trkpt lat="45.398956740094384" lon="10.709480688412828"><ele>68.5</ele><time>2026-03-30T11:13:55Z</time></trkpt><trkpt lat="45.398808184067896" lon="10.70956012426172"><ele>69.0</ele><time>2026-03-30T11:13:56Z</time></trkpt><trkpt lat="45.39866812361295" lon="10.709612681359076"><ele>69.5</ele><time>2026-03-30T11:13:57Z</time></trkpt><trkpt lat="45.39854404453135" lon="10.709658829040542"><ele>70.0</ele><time>2026-03-30T11:13:58Z</time></trkpt><trkpt lat="45.398435692534775" lon="10.70970361990458"><ele>70.0</ele><time>2026-03-30T11:13:59Z</time></trkpt><trkpt lat="45.398351672944045" lon="10.709697209471722"><ele>70.0</ele><time>2026-03-30T11:14:00Z</time></trkpt><trkpt lat="45.3982800213948" lon="10.709697472526434"><ele>70.0</ele><time>2026-03-30T11:14:00.999Z</time></trkpt><trkpt lat="45.398190514659575" lon="10.709693348385938"><ele>70.0</ele><time>2026-03-30T11:14:01.999Z</time></trkpt><trkpt lat="45.39811427205177" lon="10.709625060085148"><ele>70.0</ele><time>2026-03-30T11:14:02.999Z</time></trkpt><trkpt lat="45.39802978123966" lon="10.709546346521655"><ele>70.0</ele><time>2026-03-30T11:14:03.999Z</time></trkpt><trkpt lat="45.39796177112282" lon="10.709439730001256"><ele>69.2</ele><time>2026-03-30T11:14:04.999Z</time></trkpt><trkpt lat="45.39788516940612" lon="10.709317996925167"><ele>68.4</ele><time>2026-03-30T11:14:05.999Z</time></trkpt><trkpt lat="45.39783300541678" lon="10.709176843333054"><ele>67.6</ele><time>2026-03-30T11:14:06.999Z</time></trkpt><trkpt lat="45.397792660387864" lon="10.709048193300008"><ele>66.8</ele><time>2026-03-30T11:14:07.999Z</time></trkpt><trkpt lat="45.39775625663807" lon="10.708927662310803"><ele>66.0</ele><time>2026-03-30T11:14:08.999Z</time></trkpt><trkpt lat="45.3977150836026" lon="10.708816819669066"><ele>66.0</ele><time>2026-03-30T11:14:09.999Z</time></trkpt><trkpt lat="45.39767353120861" lon="10.708730013257894"><ele>66.0</ele><time>2026-03-30T11:14:10.999Z</time></trkpt><trkpt lat="45.397629994835036" lon="10.708658417057308"><ele>66.0</ele><time>2026-03-30T11:14:11.999Z</time></trkpt><trkpt lat="45.39758028594543" lon="10.708587006499204"><ele>66.0</ele><time>2026-03-30T11:14:12.999Z</time></trkpt><trkpt lat="45.397460662549875" lon="10.708506278577916"><ele>66.0</ele><time>2026-03-30T11:14:14.999Z</time></trkpt><trkpt lat="45.39738757408136" lon="10.708475122857188"><ele>66.0</ele><time>2026-03-30T11:14:15.999Z</time></trkpt><trkpt lat="45.397312637359754" lon="10.70845018083748"><ele>66.25</ele><time>2026-03-30T11:14:16.999Z</time></trkpt><trkpt lat="45.39721515769562" lon="10.708429178408096"><ele>66.5</ele><time>2026-03-30T11:14:17.999Z</time></trkpt><trkpt lat="45.3970916839556" lon="10.70841829889933"><ele>66.75</ele><time>2026-03-30T11:14:18.999Z</time></trkpt><trkpt lat="45.39696320229018" lon="10.708417070942321"><ele>67.0</ele><time>2026-03-30T11:14:19.999Z</time></trkpt><trkpt lat="45.39683856145475" lon="10.70842040363818"><ele>67.0</ele><time>2026-03-30T11:14:20.999Z</time></trkpt><trkpt lat="45.396708657551116" lon="10.708434472205301"><ele>67.0</ele><time>2026-03-30T11:14:21.999Z</time></trkpt><trkpt lat="45.39656653938006" lon="10.708446006794615"><ele>67.0</ele><time>2026-03-30T11:14:22.999Z</time></trkpt><trkpt lat="45.39639698866037" lon="10.708374624357377"><ele>67.0</ele><time>2026-03-30T11:14:23.999Z</time></trkpt><trkpt lat="45.39620506495496" lon="10.708306829854287"><ele>65.33333333333333</ele><time>2026-03-30T11:14:24.999Z</time></trkpt><trkpt lat="45.39599908678804" lon="10.708226266824767"><ele>63.66666666666667</ele><time>2026-03-30T11:14:25.999Z</time></trkpt><trkpt lat="45.395804496895245" lon="10.708148226168786"><ele>62.0</ele><time>2026-03-30T11:14:26.999Z</time></trkpt><trkpt lat="45.395628566780594" lon="10.708081672298013"><ele>63.0</ele><time>2026-03-30T11:14:27.999Z</time></trkpt><trkpt lat="45.39547244330703" lon="10.708026225633953"><ele>64.0</ele><time>2026-03-30T11:14:28.999Z</time></trkpt><trkpt lat="45.395321203463546" lon="10.70797213945623"><ele>65.0</ele><time>2026-03-30T11:14:29.999Z</time></trkpt><trkpt lat="45.39519921654948" lon="10.707919358743384"><ele>66.0</ele><time>2026-03-30T11:14:30.999Z</time></trkpt><trkpt lat="45.39512931024893" lon="10.707841450523853"><ele>66.0</ele><time>2026-03-30T11:14:31.999Z</time></trkpt><trkpt lat="45.39509395759378" lon="10.707754685036287"><ele>66.0</ele><time>2026-03-30T11:14:32.999Z</time></trkpt><trkpt lat="45.39508224781725" lon="10.707655929984709"><ele>66.0</ele><time>2026-03-30T11:14:33.999Z</time></trkpt><trkpt lat="45.39508102641208" lon="10.707485361411035"><ele>66.0</ele><time>2026-03-30T11:14:34.999Z</time></trkpt><trkpt lat="45.39507438102908" lon="10.707239950583546"><ele>66.0</ele><time>2026-03-30T11:14:35.999Z</time></trkpt><trkpt lat="45.39506552235838" lon="10.706988829211808"><ele>65.5</ele><time>2026-03-30T11:14:36.999Z</time></trkpt><trkpt lat="45.3950560393724" lon="10.706779076683121"><ele>65.0</ele><time>2026-03-30T11:14:37.999Z</time></trkpt><trkpt lat="45.39504734813068" lon="10.70659185283388"><ele>64.5</ele><time>2026-03-30T11:14:38.999Z</time></trkpt><trkpt lat="45.3950387398827" lon="10.706406416801812"><ele>64.0</ele><time>2026-03-30T11:14:39.999Z</time></trkpt><trkpt lat="45.39501881162302" lon="10.706220974381027"><ele>63.5</ele><time>2026-03-30T11:14:40.999Z</time></trkpt><trkpt lat="45.3950256532275" lon="10.706034455175159"><ele>63.0</ele><time>2026-03-30T11:14:41.999Z</time></trkpt><trkpt lat="45.39502235094551" lon="10.705849221683929"><ele>62.5</ele><time>2026-03-30T11:14:42.999Z</time></trkpt><trkpt lat="45.395021924436826" lon="10.705679521327824"><ele>62.0</ele><time>2026-03-30T11:14:43.999Z</time></trkpt><trkpt lat="45.395024243440176" lon="10.705507393663027"><ele>62.0</ele><time>2026-03-30T11:14:44.999Z</time></trkpt><trkpt lat="45.3950147062919" lon="10.705341860365008"><ele>62.0</ele><time>2026-03-30T11:14:45.999Z</time></trkpt><trkpt lat="45.39501914311703" lon="10.70518318717921"><ele>62.0</ele><time>2026-03-30T11:14:46.999Z</time></trkpt><trkpt lat="45.39502504234587" lon="10.705039691172196"><ele>62.0</ele><time>2026-03-30T11:14:47.999Z</time></trkpt><trkpt lat="45.395036269457286" lon="10.704908965130215"><ele>62.0</ele><time>2026-03-30T11:14:48.999Z</time></trkpt><trkpt lat="45.39504212379202" lon="10.704790232685143"><ele>62.0</ele><time>2026-03-30T11:14:49.999Z</time></trkpt><trkpt lat="45.39505348431351" lon="10.704671956898396"><ele>62.0</ele><time>2026-03-30T11:14:50.999Z</time></trkpt><trkpt lat="45.395089642194726" lon="10.704534763183542"><ele>62.0</ele><time>2026-03-30T11:14:51.999Z</time></trkpt><trkpt lat="45.39511317774305" lon="10.704381569604125"><ele>62.0</ele><time>2026-03-30T11:14:52.999Z</time></trkpt><trkpt lat="45.39512324983665" lon="10.704217586276929"><ele>62.0</ele><time>2026-03-30T11:14:53.999Z</time></trkpt><trkpt lat="45.39515079952329" lon="10.704053229207052"><ele>62.75</ele><time>2026-03-30T11:14:54.999Z</time></trkpt><trkpt lat="45.395176965327444" lon="10.703886888915806"><ele>63.5</ele><time>2026-03-30T11:14:55.999Z</time></trkpt><trkpt lat="45.39520600628021" lon="10.703719517223147"><ele>64.25</ele><time>2026-03-30T11:14:56.999Z</time></trkpt><trkpt lat="45.39523077827044" lon="10.703560694908541"><ele>65.0</ele><time>2026-03-30T11:14:57.999Z</time></trkpt><trkpt lat="45.395256999264475" lon="10.703410858374555"><ele>66.6</ele><time>2026-03-30T11:14:58.999Z</time></trkpt><trkpt lat="45.39528330210594" lon="10.703255916599575"><ele>68.2</ele><time>2026-03-30T11:14:59.999Z</time></trkpt><trkpt lat="45.395304880772294" lon="10.70310992185384"><ele>69.8</ele><time>2026-03-30T11:15:00.999Z</time></trkpt><trkpt lat="45.395331796005486" lon="10.70297730483988"><ele>71.4</ele><time>2026-03-30T11:15:01.999Z</time></trkpt><trkpt lat="45.39536473255666" lon="10.702854725764603"><ele>73.0</ele><time>2026-03-30T11:15:02.999Z</time></trkpt><trkpt lat="45.39541630232094" lon="10.702739551351621"><ele>73.6</ele><time>2026-03-30T11:15:04.999Z</time></trkpt><trkpt lat="45.39549800844925" lon="10.702635751486762"><ele>74.19999999999999</ele><time>2026-03-30T11:15:06.998Z</time></trkpt><trkpt lat="45.395547758732945" lon="10.702571028181465"><ele>74.8</ele><time>2026-03-30T11:15:07.998Z</time></trkpt><trkpt lat="45.395618159987684" lon="10.702483684543928"><ele>75.39999999999999</ele><time>2026-03-30T11:15:09.998Z</time></trkpt><trkpt lat="45.395585438076026" lon="10.702335080241031"><ele>76.0</ele><time>2026-03-30T11:15:12.998Z</time></trkpt><trkpt lat="45.39552704524206" lon="10.70227596894973"><ele>76.2</ele><time>2026-03-30T11:15:13.998Z</time></trkpt><trkpt lat="45.39545767801228" lon="10.702208999039815"><ele>76.39999999999999</ele><time>2026-03-30T11:15:14.998Z</time></trkpt><trkpt lat="45.395368561700984" lon="10.702126467118928"><ele>76.6</ele><time>2026-03-30T11:15:15.998Z</time></trkpt><trkpt lat="45.395267611080534" lon="10.702033295142035"><ele>76.8</ele><time>2026-03-30T11:15:16.998Z</time></trkpt><trkpt lat="45.395171776865595" lon="10.701916326023339"><ele>77.0</ele><time>2026-03-30T11:15:17.998Z</time></trkpt><trkpt lat="45.39507225474215" lon="10.701809951263305"><ele>77.0</ele><time>2026-03-30T11:15:18.998Z</time></trkpt><trkpt lat="45.39498206955165" lon="10.70169686886395"><ele>77.0</ele><time>2026-03-30T11:15:19.998Z</time></trkpt><trkpt lat="45.394903566308784" lon="10.701556203600969"><ele>77.0</ele><time>2026-03-30T11:15:20.998Z</time></trkpt><trkpt lat="45.39482039909468" lon="10.70138239773514"><ele>77.0</ele><time>2026-03-30T11:15:21.998Z</time></trkpt><trkpt lat="45.39472836281148" lon="10.701237667810165"><ele>76.5</ele><time>2026-03-30T11:15:22.998Z</time></trkpt><trkpt lat="45.394641853950205" lon="10.701112923691417"><ele>76.0</ele><time>2026-03-30T11:15:23.998Z</time></trkpt><trkpt lat="45.39453148417113" lon="10.701012202982433"><ele>75.5</ele><time>2026-03-30T11:15:24.998Z</time></trkpt><trkpt lat="45.39440141014386" lon="10.700925562739135"><ele>75.0</ele><time>2026-03-30T11:15:25.998Z</time></trkpt><trkpt lat="45.394271742457164" lon="10.700816344674939"><ele>75.0</ele><time>2026-03-30T11:15:26.998Z</time></trkpt><trkpt lat="45.39413253942373" lon="10.70072078555956"><ele>75.0</ele><time>2026-03-30T11:15:27.998Z</time></trkpt><trkpt lat="45.39399360786542" lon="10.700615440048121"><ele>75.0</ele><time>2026-03-30T11:15:28.998Z</time></trkpt><trkpt lat="45.39385007346796" lon="10.700498221771575"><ele>75.0</ele><time>2026-03-30T11:15:29.998Z</time></trkpt><trkpt lat="45.3937023538231" lon="10.700379093007953"><ele>75.0</ele><time>2026-03-30T11:15:30.998Z</time></trkpt><trkpt lat="45.39355004649522" lon="10.700254668237218"><ele>75.0</ele><time>2026-03-30T11:15:31.998Z</time></trkpt><trkpt lat="45.393387432108824" lon="10.700142938347161"><ele>75.33333333333333</ele><time>2026-03-30T11:15:32.998Z</time></trkpt><trkpt lat="45.393233488275165" lon="10.700005969134239"><ele>75.66666666666666</ele><time>2026-03-30T11:15:33.998Z</time></trkpt><trkpt lat="45.393100441696994" lon="10.699879961860903"><ele>76.0</ele><time>2026-03-30T11:15:34.998Z</time></trkpt><trkpt lat="45.392992683593384" lon="10.699744850644068"><ele>76.25</ele><time>2026-03-30T11:15:35.998Z</time></trkpt><trkpt lat="45.39289114104472" lon="10.699629990797085"><ele>76.5</ele><time>2026-03-30T11:15:36.998Z</time></trkpt><trkpt lat="45.39278802831743" lon="10.69952218603092"><ele>76.75</ele><time>2026-03-30T11:15:37.998Z</time></trkpt><trkpt lat="45.39268354280567" lon="10.699414350952889"><ele>77.0</ele><time>2026-03-30T11:15:38.998Z</time></trkpt><trkpt lat="45.392564008285184" lon="10.699319014401537"><ele>77.25</ele><time>2026-03-30T11:15:39.998Z</time></trkpt><trkpt lat="45.3924552091494" lon="10.699187520616876"><ele>77.5</ele><time>2026-03-30T11:15:40.998Z</time></trkpt><trkpt lat="45.392343995359276" lon="10.699078480503255"><ele>77.75</ele><time>2026-03-30T11:15:41.998Z</time></trkpt><trkpt lat="45.392238763723554" lon="10.698969665438296"><ele>78.0</ele><time>2026-03-30T11:15:42.998Z</time></trkpt><trkpt lat="45.39214263854529" lon="10.698835967173565"><ele>77.5</ele><time>2026-03-30T11:15:43.998Z</time></trkpt><trkpt lat="45.3920340009871" lon="10.698716605708984"><ele>77.0</ele><time>2026-03-30T11:15:44.998Z</time></trkpt><trkpt lat="45.391914817280174" lon="10.698616757024016"><ele>76.5</ele><time>2026-03-30T11:15:45.998Z</time></trkpt><trkpt lat="45.39181331455302" lon="10.69848470502253"><ele>76.0</ele><time>2026-03-30T11:15:46.998Z</time></trkpt><trkpt lat="45.39169480426224" lon="10.698368461785321"><ele>77.0</ele><time>2026-03-30T11:15:47.998Z</time></trkpt><trkpt lat="45.39157417932791" lon="10.698255234151134"><ele>78.0</ele><time>2026-03-30T11:15:49Z</time></trkpt><trkpt lat="45.391466657515394" lon="10.698148143450746"><ele>79.0</ele><time>2026-03-30T11:15:50Z</time></trkpt><trkpt lat="45.391373946692255" lon="10.698057022939766"><ele>80.0</ele><time>2026-03-30T11:15:51Z</time></trkpt><trkpt lat="45.39128401337266" lon="10.697968996160519"><ele>80.25</ele><time>2026-03-30T11:15:52Z</time></trkpt><trkpt lat="45.391195888838666" lon="10.69788459560132"><ele>80.5</ele><time>2026-03-30T11:15:53Z</time></trkpt><trkpt lat="45.39109625560179" lon="10.697787247021163"><ele>80.75</ele><time>2026-03-30T11:15:54Z</time></trkpt><trkpt lat="45.39100038871918" lon="10.697681106505184"><ele>81.0</ele><time>2026-03-30T11:15:55Z</time></trkpt><trkpt lat="45.39090895934574" lon="10.697579104125383"><ele>81.6</ele><time>2026-03-30T11:15:56Z</time></trkpt><trkpt lat="45.390818050697526" lon="10.697495401474786"><ele>82.19999999999999</ele><time>2026-03-30T11:15:57Z</time></trkpt><trkpt lat="45.3907268045897" lon="10.697411773773718"><ele>82.80000000000001</ele><time>2026-03-30T11:15:58Z</time></trkpt><trkpt lat="45.390634992470865" lon="10.697319588976464"><ele>83.4</ele><time>2026-03-30T11:15:59Z</time></trkpt><trkpt lat="45.39055095732201" lon="10.697228578248746"><ele>84.0</ele><time>2026-03-30T11:16:00Z</time></trkpt><trkpt lat="45.390452787909524" lon="10.697144070346958"><ele>84.0</ele><time>2026-03-30T11:16:01Z</time></trkpt><trkpt lat="45.39036634281433" lon="10.69705389151721"><ele>84.0</ele><time>2026-03-30T11:16:02Z</time></trkpt><trkpt lat="45.390266267392676" lon="10.696967671685606"><ele>84.0</ele><time>2026-03-30T11:16:03Z</time></trkpt><trkpt lat="45.390169815816485" lon="10.69688348574673"><ele>84.0</ele><time>2026-03-30T11:16:03.999Z</time></trkpt><trkpt lat="45.390076063531914" lon="10.696797010877972"><ele>84.0</ele><time>2026-03-30T11:16:04.999Z</time></trkpt><trkpt lat="45.38998370374023" lon="10.696714757628866"><ele>84.5</ele><time>2026-03-30T11:16:05.999Z</time></trkpt><trkpt lat="45.38987754309482" lon="10.696631956262493"><ele>85.0</ele><time>2026-03-30T11:16:06.999Z</time></trkpt><trkpt lat="45.38977985537007" lon="10.696517102693978"><ele>85.5</ele><time>2026-03-30T11:16:07.999Z</time></trkpt><trkpt lat="45.38965723945467" lon="10.696426763343975"><ele>86.0</ele><time>2026-03-30T11:16:08.999Z</time></trkpt><trkpt lat="45.389542285933196" lon="10.69630967222804"><ele>86.0</ele><time>2026-03-30T11:16:09.999Z</time></trkpt><trkpt lat="45.38941832679301" lon="10.69620238044126"><ele>86.0</ele><time>2026-03-30T11:16:10.999Z</time></trkpt><trkpt lat="45.38930771890701" lon="10.696102439302459"><ele>86.0</ele><time>2026-03-30T11:16:11.999Z</time></trkpt><trkpt lat="45.38921048355088" lon="10.696015873475556"><ele>86.0</ele><time>2026-03-30T11:16:12.999Z</time></trkpt><trkpt lat="45.38913309829108" lon="10.695914921456648"><ele>86.0</ele><time>2026-03-30T11:16:13.999Z</time></trkpt><trkpt lat="45.38908645799461" lon="10.695815054020699"><ele>86.0</ele><time>2026-03-30T11:16:15.999Z</time></trkpt><trkpt lat="45.389046848742225" lon="10.69570814897557"><ele>86.0</ele><time>2026-03-30T11:16:17.999Z</time></trkpt><trkpt lat="45.38893999156695" lon="10.695680832948662"><ele>86.0</ele><time>2026-03-30T11:16:18.999Z</time></trkpt><trkpt lat="45.38887155318933" lon="10.695605039624837"><ele>86.0</ele><time>2026-03-30T11:16:19.999Z</time></trkpt><trkpt lat="45.388797629276986" lon="10.695489790964293"><ele>86.0</ele><time>2026-03-30T11:16:20.999Z</time></trkpt><trkpt lat="45.38870667062061" lon="10.695399902906388"><ele>86.0</ele><time>2026-03-30T11:16:21.999Z</time></trkpt><trkpt lat="45.3886523119589" lon="10.695324269328644"><ele>86.0</ele><time>2026-03-30T11:16:22.999Z</time></trkpt><trkpt lat="45.38859575393265" lon="10.695251119560766"><ele>86.0</ele><time>2026-03-30T11:16:23.999Z</time></trkpt><trkpt lat="45.388534970407264" lon="10.69518029778093"><ele>86.0</ele><time>2026-03-30T11:16:24.999Z</time></trkpt><trkpt lat="45.38847240752728" lon="10.695104498423978"><ele>86.0</ele><time>2026-03-30T11:16:25.999Z</time></trkpt><trkpt lat="45.38838947920284" lon="10.69501184239981"><ele>86.33333333333334</ele><time>2026-03-30T11:16:26.999Z</time></trkpt><trkpt lat="45.38831000196516" lon="10.694916916758556"><ele>86.66666666666667</ele><time>2026-03-30T11:16:27.999Z</time></trkpt><trkpt lat="45.38825385506818" lon="10.694841594493155"><ele>87.0</ele><time>2026-03-30T11:16:28.999Z</time></trkpt><trkpt lat="45.38820359194562" lon="10.694784642228926"><ele>87.33333333333333</ele><time>2026-03-30T11:16:29.999Z</time></trkpt><trkpt lat="45.3881277068483" lon="10.694668105546356"><ele>87.66666666666666</ele><time>2026-03-30T11:16:31.999Z</time></trkpt><trkpt lat="45.388075996365295" lon="10.694589594756067"><ele>88.0</ele><time>2026-03-30T11:16:33.999Z</time></trkpt><trkpt lat="45.388164357102745" lon="10.694491052846043"><ele>88.0</ele><time>2026-03-30T11:16:34.999Z</time></trkpt><trkpt lat="45.388194057811845" lon="10.694385086047147"><ele>88.0</ele><time>2026-03-30T11:16:35.999Z</time></trkpt><trkpt lat="45.38823180477742" lon="10.694250411491849"><ele>88.0</ele><time>2026-03-30T11:16:36.999Z</time></trkpt><trkpt lat="45.38827219619163" lon="10.69410349302934"><ele>88.0</ele><time>2026-03-30T11:16:37.998Z</time></trkpt><trkpt lat="45.388316433062926" lon="10.693941875752785"><ele>88.0</ele><time>2026-03-30T11:16:38.998Z</time></trkpt><trkpt lat="45.38836598709483" lon="10.693760832304042"><ele>88.0</ele><time>2026-03-30T11:16:39.998Z</time></trkpt><trkpt lat="45.38840865007232" lon="10.693604964181006"><ele>88.0</ele><time>2026-03-30T11:16:40.998Z</time></trkpt><trkpt lat="45.38845226962561" lon="10.693446984185059"><ele>88.0</ele><time>2026-03-30T11:16:41.998Z</time></trkpt><trkpt lat="45.38849748850518" lon="10.693285876858802"><ele>88.0</ele><time>2026-03-30T11:16:42.998Z</time></trkpt><trkpt lat="45.38854874113113" lon="10.693110718375275"><ele>88.0</ele><time>2026-03-30T11:16:43.998Z</time></trkpt><trkpt lat="45.3885986817234" lon="10.692940043798504"><ele>88.0</ele><time>2026-03-30T11:16:44.998Z</time></trkpt><trkpt lat="45.38864732031972" lon="10.6927745819204"><ele>88.0</ele><time>2026-03-30T11:16:45.998Z</time></trkpt><trkpt lat="45.38869796355526" lon="10.692603203754164"><ele>88.0</ele><time>2026-03-30T11:16:46.998Z</time></trkpt><trkpt lat="45.3887473411772" lon="10.692435704138848"><ele>88.2</ele><time>2026-03-30T11:16:47.998Z</time></trkpt><trkpt lat="45.38879422731594" lon="10.692273295428151"><ele>88.4</ele><time>2026-03-30T11:16:48.998Z</time></trkpt><trkpt lat="45.38884158127306" lon="10.692110828184829"><ele>88.60000000000001</ele><time>2026-03-30T11:16:49.998Z</time></trkpt><trkpt lat="45.388870386402495" lon="10.691957896388084"><ele>88.80000000000001</ele><time>2026-03-30T11:16:50.998Z</time></trkpt><trkpt lat="45.38890970167296" lon="10.691857693250352"><ele>89.0</ele><time>2026-03-30T11:16:51.998Z</time></trkpt><trkpt lat="45.38894852357972" lon="10.691761414865526"><ele>89.0</ele><time>2026-03-30T11:16:53.998Z</time></trkpt><trkpt lat="45.388797578910534" lon="10.691657426117326"><ele>89.0</ele><time>2026-03-30T11:16:54.998Z</time></trkpt><trkpt lat="45.388734600784154" lon="10.691597427023545"><ele>89.0</ele><time>2026-03-30T11:16:55.998Z</time></trkpt><trkpt lat="45.38867440336799" lon="10.691482401661336"><ele>89.0</ele><time>2026-03-30T11:16:56.998Z</time></trkpt><trkpt lat="45.388589030195206" lon="10.691362487180312"><ele>89.0</ele><time>2026-03-30T11:16:57.998Z</time></trkpt><trkpt lat="45.38849960627298" lon="10.691241258385467"><ele>89.0</ele><time>2026-03-30T11:16:58.998Z</time></trkpt><trkpt lat="45.3884100202042" lon="10.69112657577892"><ele>89.0</ele><time>2026-03-30T11:16:59.998Z</time></trkpt><trkpt lat="45.38832177251882" lon="10.691042915081791"><ele>89.0</ele><time>2026-03-30T11:17:00.998Z</time></trkpt><trkpt lat="45.38825624895241" lon="10.690948877465912"><ele>89.0</ele><time>2026-03-30T11:17:01.998Z</time></trkpt><trkpt lat="45.388202677992" lon="10.690852434121028"><ele>89.16666666666667</ele><time>2026-03-30T11:17:02.998Z</time></trkpt><trkpt lat="45.38814887137211" lon="10.69079692672154"><ele>89.33333333333334</ele><time>2026-03-30T11:17:03.998Z</time></trkpt><trkpt lat="45.388173228027114" lon="10.690710386217837"><ele>89.5</ele><time>2026-03-30T11:17:04.998Z</time></trkpt><trkpt lat="45.388227142217566" lon="10.69063024629096"><ele>89.66666666666667</ele><time>2026-03-30T11:17:05.998Z</time></trkpt><trkpt lat="45.3882816853894" lon="10.690554378120819"><ele>89.83333333333333</ele><time>2026-03-30T11:17:06.998Z</time></trkpt><trkpt lat="45.38835205701453" lon="10.69043799268851"><ele>90.0</ele><time>2026-03-30T11:17:07.998Z</time></trkpt><trkpt lat="45.38843808328138" lon="10.690316256319463"><ele>92.5</ele><time>2026-03-30T11:17:08.998Z</time></trkpt><trkpt lat="45.388532895280875" lon="10.690180941661103"><ele>95.0</ele><time>2026-03-30T11:17:09.998Z</time></trkpt><trkpt lat="45.38863115665802" lon="10.690025345301002"><ele>97.5</ele><time>2026-03-30T11:17:10.998Z</time></trkpt><trkpt lat="45.388716987778125" lon="10.689901527842688"><ele>100.0</ele><time>2026-03-30T11:17:11.998Z</time></trkpt><trkpt lat="45.38879200872333" lon="10.689779088102737"><ele>98.33333333333334</ele><time>2026-03-30T11:17:12.998Z</time></trkpt><trkpt lat="45.38886187249359" lon="10.689679481102567"><ele>96.66666666666667</ele><time>2026-03-30T11:17:13.998Z</time></trkpt><trkpt lat="45.388925389747406" lon="10.689585137903988"><ele>95.0</ele><time>2026-03-30T11:17:14.998Z</time></trkpt><trkpt lat="45.388984100439956" lon="10.689498529672884"><ele>93.33333333333334</ele><time>2026-03-30T11:17:15.998Z</time></trkpt><trkpt lat="45.38902974272524" lon="10.68941937638867"><ele>91.66666666666667</ele><time>2026-03-30T11:17:16.998Z</time></trkpt><trkpt lat="45.38906865386663" lon="10.689345513624778"><ele>90.0</ele><time>2026-03-30T11:17:17.998Z</time></trkpt><trkpt lat="45.38911014674098" lon="10.689276968168043"><ele>90.0</ele><time>2026-03-30T11:17:18.998Z</time></trkpt><trkpt lat="45.38919645302932" lon="10.689164608521345"><ele>90.0</ele><time>2026-03-30T11:17:20.998Z</time></trkpt><trkpt lat="45.38927020240994" lon="10.689038572064707"><ele>90.0</ele><time>2026-03-30T11:17:22.998Z</time></trkpt><trkpt lat="45.38931918327242" lon="10.688939756777234"><ele>90.0</ele><time>2026-03-30T11:17:24.998Z</time></trkpt><trkpt lat="45.38929132715462" lon="10.688836805817992"><ele>90.0</ele><time>2026-03-30T11:17:26.998Z</time></trkpt><trkpt lat="45.38928185774841" lon="10.688729572270251"><ele>90.25</ele><time>2026-03-30T11:17:28.998Z</time></trkpt><trkpt lat="45.389156061702685" lon="10.688585029569783"><ele>90.5</ele><time>2026-03-30T11:17:30.998Z</time></trkpt><trkpt lat="45.38903445282096" lon="10.688579723717083"><ele>90.75</ele><time>2026-03-30T11:17:31.998Z</time></trkpt><trkpt lat="45.388926851490524" lon="10.68851345545427"><ele>91.0</ele><time>2026-03-30T11:17:32.998Z</time></trkpt><trkpt lat="45.3888097127861" lon="10.688440035190794"><ele>91.75</ele><time>2026-03-30T11:17:33.998Z</time></trkpt><trkpt lat="45.38868249565184" lon="10.68836755666658"><ele>92.5</ele><time>2026-03-30T11:17:34.998Z</time></trkpt><trkpt lat="45.388543066525465" lon="10.688294453420173"><ele>93.25</ele><time>2026-03-30T11:17:35.998Z</time></trkpt><trkpt lat="45.38839895533343" lon="10.688216018182695"><ele>94.0</ele><time>2026-03-30T11:17:36.998Z</time></trkpt><trkpt lat="45.3882503238323" lon="10.688134055806568"><ele>94.0</ele><time>2026-03-30T11:17:37.998Z</time></trkpt><trkpt lat="45.38809751615578" lon="10.688049498223108"><ele>94.0</ele><time>2026-03-30T11:17:38.998Z</time></trkpt><trkpt lat="45.387947297690324" lon="10.687969995693317"><ele>94.0</ele><time>2026-03-30T11:17:39.998Z</time></trkpt><trkpt lat="45.38780512001626" lon="10.687891492457133"><ele>95.0</ele><time>2026-03-30T11:17:40.997Z</time></trkpt><trkpt lat="45.38766139574658" lon="10.687808567479529"><ele>96.0</ele><time>2026-03-30T11:17:41.997Z</time></trkpt><trkpt lat="45.387512621109266" lon="10.687722007885947"><ele>97.0</ele><time>2026-03-30T11:17:42.997Z</time></trkpt><trkpt lat="45.38735948050746" lon="10.687646858193126"><ele>93.66666666666667</ele><time>2026-03-30T11:17:43.997Z</time></trkpt><trkpt lat="45.38720089605603" lon="10.687583762819406"><ele>90.33333333333334</ele><time>2026-03-30T11:17:44.997Z</time></trkpt><trkpt lat="45.38703728570746" lon="10.687526845799441"><ele>87.0</ele><time>2026-03-30T11:17:45.997Z</time></trkpt><trkpt lat="45.38687337113782" lon="10.687476932418376"><ele>87.0</ele><time>2026-03-30T11:17:46.997Z</time></trkpt><trkpt lat="45.3867109485683" lon="10.68744033623429"><ele>87.0</ele><time>2026-03-30T11:17:47.997Z</time></trkpt><trkpt lat="45.3865517712421" lon="10.687419444505613"><ele>87.0</ele><time>2026-03-30T11:17:48.997Z</time></trkpt><trkpt lat="45.38639878344898" lon="10.687405955773414"><ele>86.0</ele><time>2026-03-30T11:17:49.997Z</time></trkpt><trkpt lat="45.38623995617723" lon="10.687401866516154"><ele>85.0</ele><time>2026-03-30T11:17:50.997Z</time></trkpt><trkpt lat="45.38608602078211" lon="10.687406568152674"><ele>84.0</ele><time>2026-03-30T11:17:51.997Z</time></trkpt><trkpt lat="45.38593541564378" lon="10.687419049058914"><ele>84.0</ele><time>2026-03-30T11:17:52.997Z</time></trkpt><trkpt lat="45.3857788814994" lon="10.687434188118878"><ele>84.0</ele><time>2026-03-30T11:17:53.999Z</time></trkpt><trkpt lat="45.38562144517488" lon="10.687447698942147"><ele>84.0</ele><time>2026-03-30T11:17:54.999Z</time></trkpt><trkpt lat="45.385463452564046" lon="10.68746388116914"><ele>84.0</ele><time>2026-03-30T11:17:55.999Z</time></trkpt><trkpt lat="45.38531034840474" lon="10.68747999808395"><ele>84.0</ele><time>2026-03-30T11:17:56.999Z</time></trkpt><trkpt lat="45.38516444722719" lon="10.687492748948648"><ele>84.0</ele><time>2026-03-30T11:17:57.999Z</time></trkpt><trkpt lat="45.385029319990764" lon="10.68750686069882"><ele>84.0</ele><time>2026-03-30T11:17:58.999Z</time></trkpt><trkpt lat="45.38490021154439" lon="10.687519004146221"><ele>84.0</ele><time>2026-03-30T11:17:59.999Z</time></trkpt><trkpt lat="45.38477864254676" lon="10.687532309938215"><ele>84.0</ele><time>2026-03-30T11:18:00.999Z</time></trkpt><trkpt lat="45.384671725310504" lon="10.687547339293976"><ele>84.0</ele><time>2026-03-30T11:18:01.999Z</time></trkpt><trkpt lat="45.38458142486768" lon="10.687538537167573"><ele>84.0</ele><time>2026-03-30T11:18:02.999Z</time></trkpt><trkpt lat="45.38450144743413" lon="10.687546722180127"><ele>84.0</ele><time>2026-03-30T11:18:03.999Z</time></trkpt><trkpt lat="45.38442125660472" lon="10.687775131131264"><ele>84.6</ele><time>2026-03-30T11:18:05.999Z</time></trkpt><trkpt lat="45.38440629365191" lon="10.687917364119976"><ele>85.2</ele><time>2026-03-30T11:18:06.999Z</time></trkpt><trkpt lat="45.38440103088405" lon="10.688069491901857"><ele>85.8</ele><time>2026-03-30T11:18:07.999Z</time></trkpt><trkpt lat="45.384385111925745" lon="10.688222114978798"><ele>86.39999999999999</ele><time>2026-03-30T11:18:08.999Z</time></trkpt><trkpt lat="45.38435422850499" lon="10.688360569629435"><ele>87.0</ele><time>2026-03-30T11:18:09.999Z</time></trkpt><trkpt lat="45.3843026657654" lon="10.688474699584857"><ele>87.0</ele><time>2026-03-30T11:18:10.999Z</time></trkpt><trkpt lat="45.38423955471444" lon="10.688577407694854"><ele>87.0</ele><time>2026-03-30T11:18:11.999Z</time></trkpt><trkpt lat="45.38418024434003" lon="10.688694155929056"><ele>87.0</ele><time>2026-03-30T11:18:12.999Z</time></trkpt><trkpt lat="45.384163895735966" lon="10.688805914767329"><ele>87.0</ele><time>2026-03-30T11:18:13.999Z</time></trkpt><trkpt lat="45.38416661605316" lon="10.688897748618233"><ele>87.0</ele><time>2026-03-30T11:18:14.999Z</time></trkpt><trkpt lat="45.384182744699686" lon="10.688990292554776"><ele>87.0</ele><time>2026-03-30T11:18:17.999Z</time></trkpt><trkpt lat="45.384192150053074" lon="10.689090342932381"><ele>87.25</ele><time>2026-03-30T11:18:18.999Z</time></trkpt><trkpt lat="45.38418778858615" lon="10.68923767904484"><ele>87.5</ele><time>2026-03-30T11:18:19.999Z</time></trkpt><trkpt lat="45.38416898383238" lon="10.689395267899728"><ele>87.75</ele><time>2026-03-30T11:18:20.999Z</time></trkpt><trkpt lat="45.38413315860078" lon="10.689564945173316"><ele>88.0</ele><time>2026-03-30T11:18:21.999Z</time></trkpt><trkpt lat="45.384082765261475" lon="10.689746953602981"><ele>88.0</ele><time>2026-03-30T11:18:22.999Z</time></trkpt><trkpt lat="45.384008045737225" lon="10.689921068709653"><ele>88.0</ele><time>2026-03-30T11:18:23.999Z</time></trkpt><trkpt lat="45.38388854552203" lon="10.690066300189134"><ele>88.0</ele><time>2026-03-30T11:18:24.999Z</time></trkpt><trkpt lat="45.38376672073662" lon="10.690219318945129"><ele>87.0</ele><time>2026-03-30T11:18:25.999Z</time></trkpt><trkpt lat="45.38360246462844" lon="10.690306450744389"><ele>86.0</ele><time>2026-03-30T11:18:26.999Z</time></trkpt><trkpt lat="45.383459623217284" lon="10.690392839372388"><ele>85.0</ele><time>2026-03-30T11:18:27.999Z</time></trkpt><trkpt lat="45.38330197466602" lon="10.690436891438436"><ele>85.0</ele><time>2026-03-30T11:18:28.999Z</time></trkpt><trkpt lat="45.38317320346187" lon="10.690548955309685"><ele>85.0</ele><time>2026-03-30T11:18:29.999Z</time></trkpt><trkpt lat="45.38304879447343" lon="10.690707630527355"><ele>85.0</ele><time>2026-03-30T11:18:30.999Z</time></trkpt><trkpt lat="45.382940421778834" lon="10.69090218525396"><ele>83.0</ele><time>2026-03-30T11:18:31.999Z</time></trkpt><trkpt lat="45.382857260607" lon="10.691137341551155"><ele>81.0</ele><time>2026-03-30T11:18:32.999Z</time></trkpt><trkpt lat="45.38280383167359" lon="10.69139444042969"><ele>79.0</ele><time>2026-03-30T11:18:33.999Z</time></trkpt><trkpt lat="45.382795575052775" lon="10.691658680676985"><ele>79.0</ele><time>2026-03-30T11:18:34.999Z</time></trkpt><trkpt lat="45.38279652800394" lon="10.691913226952414"><ele>79.0</ele><time>2026-03-30T11:18:35.999Z</time></trkpt><trkpt lat="45.382825225956886" lon="10.69213971385811"><ele>79.0</ele><time>2026-03-30T11:18:36.999Z</time></trkpt><trkpt lat="45.38288719845038" lon="10.692338732848848"><ele>77.0</ele><time>2026-03-30T11:18:37.999Z</time></trkpt><trkpt lat="45.38298410203483" lon="10.692520989896533"><ele>75.0</ele><time>2026-03-30T11:18:38.999Z</time></trkpt><trkpt lat="45.38309671715452" lon="10.692705935770846"><ele>73.0</ele><time>2026-03-30T11:18:39.999Z</time></trkpt><trkpt lat="45.38322742001677" lon="10.692861742098891"><ele>72.25</ele><time>2026-03-30T11:18:40.999Z</time></trkpt><trkpt lat="45.38334166613285" lon="10.69299240092044"><ele>71.5</ele><time>2026-03-30T11:18:41.999Z</time></trkpt><trkpt lat="45.383441727794086" lon="10.693123680369077"><ele>70.75</ele><time>2026-03-30T11:18:42.999Z</time></trkpt><trkpt lat="45.38352634858001" lon="10.69323761927475"><ele>70.0</ele><time>2026-03-30T11:18:43.999Z</time></trkpt><trkpt lat="45.38360482125226" lon="10.693345289571106"><ele>70.0</ele><time>2026-03-30T11:18:44.999Z</time></trkpt><trkpt lat="45.383669253279" lon="10.69342291261718"><ele>70.0</ele><time>2026-03-30T11:18:45.999Z</time></trkpt><trkpt lat="45.383713886412615" lon="10.693489282764446"><ele>70.0</ele><time>2026-03-30T11:18:46.999Z</time></trkpt><trkpt lat="45.383612017720225" lon="10.693631921560659"><ele>70.0</ele><time>2026-03-30T11:18:50.999Z</time></trkpt><trkpt lat="45.383532919730236" lon="10.693667231645478"><ele>70.0</ele><time>2026-03-30T11:18:51.999Z</time></trkpt><trkpt lat="45.383436119242454" lon="10.693710599977798"><ele>68.75</ele><time>2026-03-30T11:18:52.999Z</time></trkpt><trkpt lat="45.38332612848806" lon="10.693761692423548"><ele>67.5</ele><time>2026-03-30T11:18:53.999Z</time></trkpt><trkpt lat="45.38321158700332" lon="10.69381519353994"><ele>66.25</ele><time>2026-03-30T11:18:54.999Z</time></trkpt><trkpt lat="45.38308455373249" lon="10.693874801430745"><ele>65.0</ele><time>2026-03-30T11:18:55.999Z</time></trkpt><trkpt lat="45.38295426876203" lon="10.6939346590809"><ele>64.75</ele><time>2026-03-30T11:18:56.999Z</time></trkpt><trkpt lat="45.38282576662722" lon="10.693992219327997"><ele>64.5</ele><time>2026-03-30T11:18:57.999Z</time></trkpt><trkpt lat="45.38270079326636" lon="10.694043633464"><ele>64.25</ele><time>2026-03-30T11:18:58.999Z</time></trkpt><trkpt lat="45.38257570848216" lon="10.694090043707218"><ele>64.0</ele><time>2026-03-30T11:18:59.999Z</time></trkpt><trkpt lat="45.3824489676866" lon="10.69415604975302"><ele>64.0</ele><time>2026-03-30T11:19:00.999Z</time></trkpt><trkpt lat="45.382318786351256" lon="10.69419086243403"><ele>64.0</ele><time>2026-03-30T11:19:01.999Z</time></trkpt><trkpt lat="45.3821963213863" lon="10.694223215721621"><ele>64.0</ele><time>2026-03-30T11:19:02.999Z</time></trkpt><trkpt lat="45.38207927811646" lon="10.6942747908556"><ele>64.0</ele><time>2026-03-30T11:19:03.999Z</time></trkpt><trkpt lat="45.381956999268574" lon="10.694340212313582"><ele>64.0</ele><time>2026-03-30T11:19:04.999Z</time></trkpt><trkpt lat="45.38182052146739" lon="10.694404040207804"><ele>64.0</ele><time>2026-03-30T11:19:05.999Z</time></trkpt><trkpt lat="45.38168637614762" lon="10.69449545882986"><ele>64.0</ele><time>2026-03-30T11:19:06.999Z</time></trkpt><trkpt lat="45.38154770863451" lon="10.69459640558669"><ele>64.0</ele><time>2026-03-30T11:19:07.999Z</time></trkpt><trkpt lat="45.38140963427722" lon="10.694721150847755"><ele>66.0</ele><time>2026-03-30T11:19:08.999Z</time></trkpt><trkpt lat="45.38127001905979" lon="10.694820700198214"><ele>68.0</ele><time>2026-03-30T11:19:09.999Z</time></trkpt><trkpt lat="45.38111853023743" lon="10.694918446385016"><ele>70.0</ele><time>2026-03-30T11:19:10.999Z</time></trkpt><trkpt lat="45.38095169615359" lon="10.694973634620487"><ele>70.0</ele><time>2026-03-30T11:19:11.999Z</time></trkpt><trkpt lat="45.38080005570885" lon="10.695038090527289"><ele>70.0</ele><time>2026-03-30T11:19:12.999Z</time></trkpt><trkpt lat="45.380661556917154" lon="10.695099349653882"><ele>70.0</ele><time>2026-03-30T11:19:13.999Z</time></trkpt><trkpt lat="45.38053358062219" lon="10.695155954538517"><ele>70.0</ele><time>2026-03-30T11:19:14.999Z</time></trkpt><trkpt lat="45.38041322627988" lon="10.695211626698613"><ele>69.5</ele><time>2026-03-30T11:19:15.999Z</time></trkpt><trkpt lat="45.380294823027555" lon="10.695271629659224"><ele>69.0</ele><time>2026-03-30T11:19:16.999Z</time></trkpt><trkpt lat="45.38017452868008" lon="10.695365260147723"><ele>68.5</ele><time>2026-03-30T11:19:17.999Z</time></trkpt><trkpt lat="45.38005371239122" lon="10.695432213158615"><ele>68.0</ele><time>2026-03-30T11:19:18.999Z</time></trkpt><trkpt lat="45.379915056174454" lon="10.69549291348438"><ele>68.0</ele><time>2026-03-30T11:19:19.998Z</time></trkpt><trkpt lat="45.379781516945854" lon="10.69557416605371"><ele>68.0</ele><time>2026-03-30T11:19:20.998Z</time></trkpt><trkpt lat="45.37963643100614" lon="10.695622040324352"><ele>68.0</ele><time>2026-03-30T11:19:21.998Z</time></trkpt><trkpt lat="45.379508067952216" lon="10.695668151517452"><ele>68.0</ele><time>2026-03-30T11:19:22.998Z</time></trkpt><trkpt lat="45.37939247063272" lon="10.6957268420499"><ele>70.2</ele><time>2026-03-30T11:19:23.998Z</time></trkpt><trkpt lat="45.379278808833874" lon="10.695799387796637"><ele>72.4</ele><time>2026-03-30T11:19:24.998Z</time></trkpt><trkpt lat="45.37918496930938" lon="10.695860277849981"><ele>74.60000000000001</ele><time>2026-03-30T11:19:25.998Z</time></trkpt><trkpt lat="45.379088128330494" lon="10.695920540516658"><ele>76.8</ele><time>2026-03-30T11:19:26.998Z</time></trkpt><trkpt lat="45.37898518284766" lon="10.695986059419262"><ele>79.0</ele><time>2026-03-30T11:19:27.998Z</time></trkpt><trkpt lat="45.378891668890404" lon="10.69602751267975"><ele>78.83333333333333</ele><time>2026-03-30T11:19:28.998Z</time></trkpt><trkpt lat="45.37882107080809" lon="10.696076804104786"><ele>78.66666666666666</ele><time>2026-03-30T11:19:29.998Z</time></trkpt><trkpt lat="45.37875705954504" lon="10.696080253486375"><ele>78.5</ele><time>2026-03-30T11:19:30.998Z</time></trkpt><trkpt lat="45.37867587162245" lon="10.69613438573064"><ele>78.33333333333333</ele><time>2026-03-30T11:19:31.998Z</time></trkpt><trkpt lat="45.37858792186" lon="10.69617602951128"><ele>78.16666666666667</ele><time>2026-03-30T11:19:32.998Z</time></trkpt><trkpt lat="45.378500636204464" lon="10.69621835055431"><ele>78.0</ele><time>2026-03-30T11:19:33.998Z</time></trkpt><trkpt lat="45.37840217258925" lon="10.69626192010354"><ele>77.6</ele><time>2026-03-30T11:19:34.998Z</time></trkpt><trkpt lat="45.378302207154206" lon="10.696278443256254"><ele>77.19999999999999</ele><time>2026-03-30T11:19:35.998Z</time></trkpt><trkpt lat="45.378202991899656" lon="10.696294502893178"><ele>76.8</ele><time>2026-03-30T11:19:36.998Z</time></trkpt><trkpt lat="45.3780989557385" lon="10.696302680518732"><ele>76.39999999999999</ele><time>2026-03-30T11:19:37.998Z</time></trkpt><trkpt lat="45.3779749688536" lon="10.696311222191843"><ele>76.0</ele><time>2026-03-30T11:19:38.998Z</time></trkpt><trkpt lat="45.37783651870051" lon="10.696323997667866"><ele>75.25</ele><time>2026-03-30T11:19:39.998Z</time></trkpt><trkpt lat="45.377715573465586" lon="10.6963375840314"><ele>74.5</ele><time>2026-03-30T11:19:40.998Z</time></trkpt><trkpt lat="45.3775957990371" lon="10.696348260210726"><ele>73.75</ele><time>2026-03-30T11:19:41.998Z</time></trkpt><trkpt lat="45.377478601585295" lon="10.696349709690264"><ele>73.0</ele><time>2026-03-30T11:19:42.998Z</time></trkpt><trkpt lat="45.377364142825115" lon="10.69634768453571"><ele>73.0</ele><time>2026-03-30T11:19:43.998Z</time></trkpt><trkpt lat="45.377259783070286" lon="10.696370558827914"><ele>73.0</ele><time>2026-03-30T11:19:44.998Z</time></trkpt><trkpt lat="45.377170784871936" lon="10.69637070749205"><ele>73.0</ele><time>2026-03-30T11:19:45.998Z</time></trkpt><trkpt lat="45.37708451041789" lon="10.696385030292506"><ele>73.0</ele><time>2026-03-30T11:19:46.998Z</time></trkpt><trkpt lat="45.37699183868483" lon="10.6964182565672"><ele>73.0</ele><time>2026-03-30T11:19:47.998Z</time></trkpt><trkpt lat="45.376903046701834" lon="10.696426213472026"><ele>73.4</ele><time>2026-03-30T11:19:48.998Z</time></trkpt><trkpt lat="45.37682726209379" lon="10.69644589326596"><ele>73.8</ele><time>2026-03-30T11:19:49.998Z</time></trkpt><trkpt lat="45.376763272889235" lon="10.696437681159281"><ele>74.2</ele><time>2026-03-30T11:19:50.998Z</time></trkpt><trkpt lat="45.37668610609886" lon="10.69633992264299"><ele>74.6</ele><time>2026-03-30T11:19:52.998Z</time></trkpt><trkpt lat="45.37662831939294" lon="10.6961589210764"><ele>75.0</ele><time>2026-03-30T11:19:54.998Z</time></trkpt><trkpt lat="45.37657679971442" lon="10.696075155384934"><ele>75.0</ele><time>2026-03-30T11:19:55.998Z</time></trkpt><trkpt lat="45.376492621825804" lon="10.696033731931927"><ele>75.0</ele><time>2026-03-30T11:19:56.998Z</time></trkpt><trkpt lat="45.376407039009045" lon="10.695956162430083"><ele>75.0</ele><time>2026-03-30T11:19:58.998Z</time></trkpt><trkpt lat="45.37635897469711" lon="10.695895701660188"><ele>75.0</ele><time>2026-03-30T11:20:01Z</time></trkpt><trkpt lat="45.376291991843395" lon="10.695842717572432"><ele>75.0</ele><time>2026-03-30T11:20:03Z</time></trkpt><trkpt lat="45.3761952720055" lon="10.695758101562344"><ele>75.0</ele><time>2026-03-30T11:20:05Z</time></trkpt><trkpt lat="45.376151512915875" lon="10.695662828446848"><ele>75.2</ele><time>2026-03-30T11:20:06Z</time></trkpt><trkpt lat="45.37608415714895" lon="10.695538523138305"><ele>75.4</ele><time>2026-03-30T11:20:06.999Z</time></trkpt><trkpt lat="45.37600228446164" lon="10.695389600195593"><ele>75.6</ele><time>2026-03-30T11:20:07.999Z</time></trkpt><trkpt lat="45.37592790599296" lon="10.695261632476395"><ele>75.8</ele><time>2026-03-30T11:20:08.999Z</time></trkpt><trkpt lat="45.3758726124281" lon="10.695170669906668"><ele>76.0</ele><time>2026-03-30T11:20:09.999Z</time></trkpt><trkpt lat="45.37581824308015" lon="10.695086265309943"><ele>76.33333333333333</ele><time>2026-03-30T11:20:10.999Z</time></trkpt><trkpt lat="45.37576747261452" lon="10.695007447723405"><ele>76.66666666666666</ele><time>2026-03-30T11:20:11.999Z</time></trkpt><trkpt lat="45.37571337435004" lon="10.694923657122208"><ele>77.0</ele><time>2026-03-30T11:20:12.999Z</time></trkpt><trkpt lat="45.37565736904644" lon="10.694837892010591"><ele>77.33333333333333</ele><time>2026-03-30T11:20:13.999Z</time></trkpt><trkpt lat="45.375598258725915" lon="10.694747371921046"><ele>77.66666666666667</ele><time>2026-03-30T11:20:14.999Z</time></trkpt><trkpt lat="45.37553952472221" lon="10.694656520056354"><ele>78.0</ele><time>2026-03-30T11:20:15.999Z</time></trkpt><trkpt lat="45.375479705472436" lon="10.69456327987248"><ele>78.0</ele><time>2026-03-30T11:20:16.999Z</time></trkpt><trkpt lat="45.37542097722449" lon="10.694471740325596"><ele>78.0</ele><time>2026-03-30T11:20:17.999Z</time></trkpt><trkpt lat="45.375352004088825" lon="10.694364231964613"><ele>78.0</ele><time>2026-03-30T11:20:18.999Z</time></trkpt><trkpt lat="45.37528771702772" lon="10.69426634897177"><ele>78.0</ele><time>2026-03-30T11:20:19.999Z</time></trkpt><trkpt lat="45.375226124611565" lon="10.694174703005455"><ele>78.0</ele><time>2026-03-30T11:20:20.999Z</time></trkpt><trkpt lat="45.37515735422399" lon="10.694074049449902"><ele>78.16666666666667</ele><time>2026-03-30T11:20:21.999Z</time></trkpt><trkpt lat="45.37509384006851" lon="10.693983635943983"><ele>78.33333333333333</ele><time>2026-03-30T11:20:22.999Z</time></trkpt><trkpt lat="45.375032721708855" lon="10.693902910252254"><ele>78.5</ele><time>2026-03-30T11:20:23.999Z</time></trkpt><trkpt lat="45.37496388080649" lon="10.693823232500513"><ele>78.66666666666666</ele><time>2026-03-30T11:20:24.999Z</time></trkpt><trkpt lat="45.37489238859191" lon="10.69375132594546"><ele>78.83333333333333</ele><time>2026-03-30T11:20:25.999Z</time></trkpt><trkpt lat="45.37482344291634" lon="10.693691584412061"><ele>79.0</ele><time>2026-03-30T11:20:26.999Z</time></trkpt><trkpt lat="45.37474725636849" lon="10.693644509326704"><ele>79.5</ele><time>2026-03-30T11:20:27.999Z</time></trkpt><trkpt lat="45.37467705509423" lon="10.693604413457683"><ele>80.0</ele><time>2026-03-30T11:20:28.999Z</time></trkpt><trkpt lat="45.374605614702475" lon="10.693565120714442"><ele>80.5</ele><time>2026-03-30T11:20:29.999Z</time></trkpt><trkpt lat="45.37453541547608" lon="10.693529579613932"><ele>81.0</ele><time>2026-03-30T11:20:30.999Z</time></trkpt><trkpt lat="45.37446250910412" lon="10.693492667706634"><ele>81.5</ele><time>2026-03-30T11:20:31.999Z</time></trkpt><trkpt lat="45.374407350540224" lon="10.693444470772787"><ele>82.0</ele><time>2026-03-30T11:20:32.999Z</time></trkpt><trkpt lat="45.37431469623027" lon="10.69335355134794"><ele>82.8</ele><time>2026-03-30T11:20:34.999Z</time></trkpt><trkpt lat="45.37424268236886" lon="10.693267431613293"><ele>83.6</ele><time>2026-03-30T11:20:36.999Z</time></trkpt><trkpt lat="45.374170552647726" lon="10.693145234013313"><ele>84.39999999999999</ele><time>2026-03-30T11:20:38.999Z</time></trkpt><trkpt lat="45.37412760661174" lon="10.693053694802535"><ele>85.19999999999999</ele><time>2026-03-30T11:20:39.999Z</time></trkpt><trkpt lat="45.37407765771895" lon="10.692930670802037"><ele>86.0</ele><time>2026-03-30T11:20:40.999Z</time></trkpt><trkpt lat="45.37402300896615" lon="10.692773701365265"><ele>85.25</ele><time>2026-03-30T11:20:41.999Z</time></trkpt><trkpt lat="45.37396828180742" lon="10.692600366478684"><ele>84.5</ele><time>2026-03-30T11:20:42.999Z</time></trkpt><trkpt lat="45.373916144082955" lon="10.692427925472693"><ele>83.75</ele><time>2026-03-30T11:20:43.999Z</time></trkpt><trkpt lat="45.37385624835247" lon="10.692252103926885"><ele>83.0</ele><time>2026-03-30T11:20:44.999Z</time></trkpt><trkpt lat="45.373800972827674" lon="10.692089844804027"><ele>82.80000000000001</ele><time>2026-03-30T11:20:45.999Z</time></trkpt><trkpt lat="45.37375661514217" lon="10.691954239395432"><ele>82.6</ele><time>2026-03-30T11:20:46.999Z</time></trkpt><trkpt lat="45.373701554369525" lon="10.691831916449452"><ele>82.4</ele><time>2026-03-30T11:20:47.999Z</time></trkpt><trkpt lat="45.37365944822502" lon="10.691708741205693"><ele>82.19999999999999</ele><time>2026-03-30T11:20:48.999Z</time></trkpt><trkpt lat="45.37362391841784" lon="10.691596238536706"><ele>82.0</ele><time>2026-03-30T11:20:49.999Z</time></trkpt><trkpt lat="45.373565648824005" lon="10.691510867875897"><ele>82.39999999999999</ele><time>2026-03-30T11:20:50.999Z</time></trkpt><trkpt lat="45.37346142145429" lon="10.691511714250812"><ele>82.8</ele><time>2026-03-30T11:20:51.999Z</time></trkpt><trkpt lat="45.37337021995601" lon="10.691488006946782"><ele>83.2</ele><time>2026-03-30T11:20:52.999Z</time></trkpt><trkpt lat="45.37327975746962" lon="10.691496824843107"><ele>83.6</ele><time>2026-03-30T11:20:53.999Z</time></trkpt><trkpt lat="45.37319831805389" lon="10.691493023403343"><ele>84.0</ele><time>2026-03-30T11:20:54.999Z</time></trkpt><trkpt lat="45.37310985235587" lon="10.691523628392332"><ele>83.25</ele><time>2026-03-30T11:20:55.999Z</time></trkpt><trkpt lat="45.37300311149838" lon="10.69157399113489"><ele>82.5</ele><time>2026-03-30T11:20:56.999Z</time></trkpt><trkpt lat="45.37285600702968" lon="10.691609517419641"><ele>81.75</ele><time>2026-03-30T11:20:57.999Z</time></trkpt><trkpt lat="45.37270744112788" lon="10.691646160003746"><ele>81.0</ele><time>2026-03-30T11:20:58.999Z</time></trkpt><trkpt lat="45.37256335386283" lon="10.691718602715424"><ele>81.0</ele><time>2026-03-30T11:20:59.999Z</time></trkpt><trkpt lat="45.37242612587243" lon="10.691762704522443"><ele>81.0</ele><time>2026-03-30T11:21:00.999Z</time></trkpt><trkpt lat="45.37228293768952" lon="10.691810507451997"><ele>81.0</ele><time>2026-03-30T11:21:01.999Z</time></trkpt><trkpt lat="45.372139839371684" lon="10.69184175950219"><ele>81.0</ele><time>2026-03-30T11:21:02.999Z</time></trkpt><trkpt lat="45.37199751433066" lon="10.691864527471607"><ele>81.0</ele><time>2026-03-30T11:21:03.999Z</time></trkpt><trkpt lat="45.37184450149426" lon="10.691804270378212"><ele>81.0</ele><time>2026-03-30T11:21:04.999Z</time></trkpt><trkpt lat="45.371681971752125" lon="10.691752533376503"><ele>81.0</ele><time>2026-03-30T11:21:05.999Z</time></trkpt><trkpt lat="45.37150661505996" lon="10.691699160489147"><ele>81.33333333333333</ele><time>2026-03-30T11:21:06.999Z</time></trkpt><trkpt lat="45.3713312158223" lon="10.691678727426284"><ele>81.66666666666666</ele><time>2026-03-30T11:21:07.999Z</time></trkpt><trkpt lat="45.37113406084344" lon="10.6916474967207"><ele>82.0</ele><time>2026-03-30T11:21:08.999Z</time></trkpt><trkpt lat="45.3709381404631" lon="10.691622601051701"><ele>82.0</ele><time>2026-03-30T11:21:09.999Z</time></trkpt><trkpt lat="45.37074414214584" lon="10.691603163250944"><ele>82.0</ele><time>2026-03-30T11:21:10.999Z</time></trkpt><trkpt lat="45.37055799788791" lon="10.691600174897237"><ele>82.0</ele><time>2026-03-30T11:21:11.999Z</time></trkpt><trkpt lat="45.37038159137313" lon="10.691609283834463"><ele>82.33333333333333</ele><time>2026-03-30T11:21:12.999Z</time></trkpt><trkpt lat="45.37019638272978" lon="10.69161875980039"><ele>82.66666666666667</ele><time>2026-03-30T11:21:13.999Z</time></trkpt><trkpt lat="45.370016991570324" lon="10.691651368046086"><ele>83.0</ele><time>2026-03-30T11:21:14.999Z</time></trkpt><trkpt lat="45.36984297022138" lon="10.69169717681674"><ele>82.66666666666667</ele><time>2026-03-30T11:21:15.999Z</time></trkpt><trkpt lat="45.36967936168644" lon="10.691734891900783"><ele>82.33333333333333</ele><time>2026-03-30T11:21:16.999Z</time></trkpt><trkpt lat="45.36951707942023" lon="10.69173175096931"><ele>82.0</ele><time>2026-03-30T11:21:17.999Z</time></trkpt><trkpt lat="45.36935849438949" lon="10.691723543564517"><ele>82.0</ele><time>2026-03-30T11:21:18.999Z</time></trkpt><trkpt lat="45.36920179049217" lon="10.691686128446893"><ele>82.0</ele><time>2026-03-30T11:21:19.999Z</time></trkpt><trkpt lat="45.369028079181774" lon="10.691663783703026"><ele>82.0</ele><time>2026-03-30T11:21:20.999Z</time></trkpt><trkpt lat="45.368855116034126" lon="10.691627106169756"><ele>82.5</ele><time>2026-03-30T11:21:21.999Z</time></trkpt><trkpt lat="45.368694018510524" lon="10.69161202724244"><ele>83.0</ele><time>2026-03-30T11:21:22.999Z</time></trkpt><trkpt lat="45.36854401964907" lon="10.691601391516928"><ele>83.5</ele><time>2026-03-30T11:21:23.999Z</time></trkpt><trkpt lat="45.36841930545011" lon="10.691598108560987"><ele>84.0</ele><time>2026-03-30T11:21:24.999Z</time></trkpt><trkpt lat="45.368305145907954" lon="10.691573877747478"><ele>84.0</ele><time>2026-03-30T11:21:25.999Z</time></trkpt><trkpt lat="45.3681814930357" lon="10.69153528157606"><ele>84.0</ele><time>2026-03-30T11:21:26.999Z</time></trkpt><trkpt lat="45.368052177937436" lon="10.691495317680417"><ele>84.0</ele><time>2026-03-30T11:21:27.999Z</time></trkpt><trkpt lat="45.367927203636526" lon="10.691464821918625"><ele>84.0</ele><time>2026-03-30T11:21:28.998Z</time></trkpt><trkpt lat="45.36780228777366" lon="10.691463907304255"><ele>84.0</ele><time>2026-03-30T11:21:29.998Z</time></trkpt><trkpt lat="45.367662959839876" lon="10.691485034187146"><ele>84.0</ele><time>2026-03-30T11:21:30.998Z</time></trkpt><trkpt lat="45.36752881602635" lon="10.691481166573368"><ele>84.0</ele><time>2026-03-30T11:21:31.998Z</time></trkpt><trkpt lat="45.3673822313496" lon="10.691455825862523"><ele>84.0</ele><time>2026-03-30T11:21:32.998Z</time></trkpt><trkpt lat="45.36722503208566" lon="10.691438018820126"><ele>83.33333333333333</ele><time>2026-03-30T11:21:33.998Z</time></trkpt><trkpt lat="45.367067455027296" lon="10.691444519110453"><ele>82.66666666666666</ele><time>2026-03-30T11:21:34.998Z</time></trkpt><trkpt lat="45.366897620757705" lon="10.691436797596456"><ele>82.0</ele><time>2026-03-30T11:21:35.998Z</time></trkpt><trkpt lat="45.36669544079071" lon="10.691463629280534"><ele>82.0</ele><time>2026-03-30T11:21:36.998Z</time></trkpt><trkpt lat="45.366496654195814" lon="10.69149261802855"><ele>82.0</ele><time>2026-03-30T11:21:37.998Z</time></trkpt><trkpt lat="45.36629538678275" lon="10.69152461371038"><ele>82.0</ele><time>2026-03-30T11:21:38.998Z</time></trkpt><trkpt lat="45.366144538835705" lon="10.691531973826773"><ele>82.66666666666666</ele><time>2026-03-30T11:21:39.998Z</time></trkpt><trkpt lat="45.36594635242387" lon="10.691520335958973"><ele>83.33333333333333</ele><time>2026-03-30T11:21:40.998Z</time></trkpt><trkpt lat="45.365760309333645" lon="10.691497621008581"><ele>84.0</ele><time>2026-03-30T11:21:41.998Z</time></trkpt><trkpt lat="45.36559962818278" lon="10.691462560948521"><ele>85.0</ele><time>2026-03-30T11:21:42.998Z</time></trkpt><trkpt lat="45.36543126959765" lon="10.691465583804352"><ele>86.0</ele><time>2026-03-30T11:21:43.998Z</time></trkpt><trkpt lat="45.36526894131968" lon="10.69145801804186"><ele>87.0</ele><time>2026-03-30T11:21:44.998Z</time></trkpt><trkpt lat="45.36513084799229" lon="10.691450815453871"><ele>87.0</ele><time>2026-03-30T11:21:45.998Z</time></trkpt><trkpt lat="45.364980192961646" lon="10.69145525697634"><ele>87.0</ele><time>2026-03-30T11:21:46.998Z</time></trkpt><trkpt lat="45.36483072010874" lon="10.69144974838861"><ele>87.0</ele><time>2026-03-30T11:21:47.998Z</time></trkpt><trkpt lat="45.364662125243775" lon="10.6914239361715"><ele>86.66666666666667</ele><time>2026-03-30T11:21:48.998Z</time></trkpt><trkpt lat="45.36448684153787" lon="10.691419985189262"><ele>86.33333333333334</ele><time>2026-03-30T11:21:49.998Z</time></trkpt><trkpt lat="45.364329075736244" lon="10.691442019929267"><ele>86.0</ele><time>2026-03-30T11:21:50.998Z</time></trkpt><trkpt lat="45.364191131666374" lon="10.691433809646036"><ele>86.0</ele><time>2026-03-30T11:21:51.998Z</time></trkpt><trkpt lat="45.36407193085675" lon="10.691440229162565"><ele>86.0</ele><time>2026-03-30T11:21:52.998Z</time></trkpt><trkpt lat="45.363970461976194" lon="10.691441600360417"><ele>86.0</ele><time>2026-03-30T11:21:53.998Z</time></trkpt><trkpt lat="45.36389266414787" lon="10.691436483768426"><ele>86.0</ele><time>2026-03-30T11:21:54.998Z</time></trkpt><trkpt lat="45.36382591157282" lon="10.691430000653911"><ele>86.0</ele><time>2026-03-30T11:21:55.998Z</time></trkpt><trkpt lat="45.36375629008142" lon="10.691394452145884"><ele>86.0</ele><time>2026-03-30T11:21:57.998Z</time></trkpt><trkpt lat="45.36381383536549" lon="10.691439753634672"><ele>86.0</ele><time>2026-03-30T11:22:06Z</time></trkpt><trkpt lat="45.36393016042286" lon="10.691472135848949"><ele>86.0</ele><time>2026-03-30T11:22:08Z</time></trkpt><trkpt lat="45.3640471324529" lon="10.69147757214468"><ele>86.0</ele><time>2026-03-30T11:22:09Z</time></trkpt><trkpt lat="45.364183578567236" lon="10.6914760196824"><ele>86.0</ele><time>2026-03-30T11:22:10Z</time></trkpt><trkpt lat="45.36433442979541" lon="10.691469162017839"><ele>86.0</ele><time>2026-03-30T11:22:11Z</time></trkpt><trkpt lat="45.36447295727536" lon="10.691458763050612"><ele>86.0</ele><time>2026-03-30T11:22:12Z</time></trkpt><trkpt lat="45.36460262395099" lon="10.691451694108236"><ele>86.0</ele><time>2026-03-30T11:22:13Z</time></trkpt><trkpt lat="45.36471699557568" lon="10.691459823046456"><ele>86.0</ele><time>2026-03-30T11:22:14Z</time></trkpt><trkpt lat="45.36482431235594" lon="10.691480485817976"><ele>86.16666666666667</ele><time>2026-03-30T11:22:15Z</time></trkpt><trkpt lat="45.36492050784668" lon="10.691504312318408"><ele>86.33333333333334</ele><time>2026-03-30T11:22:16Z</time></trkpt><trkpt lat="45.36500424746632" lon="10.691487258418295"><ele>86.5</ele><time>2026-03-30T11:22:17Z</time></trkpt><trkpt lat="45.36508757126133" lon="10.691495563872593"><ele>86.66666666666667</ele><time>2026-03-30T11:22:18Z</time></trkpt><trkpt lat="45.36516303103038" lon="10.691490664832763"><ele>86.83333333333333</ele><time>2026-03-30T11:22:19Z</time></trkpt><trkpt lat="45.36524763820323" lon="10.69146766307382"><ele>87.0</ele><time>2026-03-30T11:22:21Z</time></trkpt><trkpt lat="45.365248193365076" lon="10.691867371287113"><ele>86.25</ele><time>2026-03-30T11:22:26Z</time></trkpt><trkpt lat="45.365216698397184" lon="10.692041097821404"><ele>85.5</ele><time>2026-03-30T11:22:27Z</time></trkpt><trkpt lat="45.36518715293404" lon="10.692227911010045"><ele>84.75</ele><time>2026-03-30T11:22:28Z</time></trkpt><trkpt lat="45.365166311820545" lon="10.69241048141798"><ele>84.0</ele><time>2026-03-30T11:22:29Z</time></trkpt><trkpt lat="45.365142314572324" lon="10.692591261608857"><ele>83.25</ele><time>2026-03-30T11:22:29.999Z</time></trkpt><trkpt lat="45.3651130126736" lon="10.692798222995814"><ele>82.5</ele><time>2026-03-30T11:22:30.999Z</time></trkpt><trkpt lat="45.365085010487526" lon="10.693003376606562"><ele>81.75</ele><time>2026-03-30T11:22:31.999Z</time></trkpt><trkpt lat="45.36505033472979" lon="10.693216505149959"><ele>81.0</ele><time>2026-03-30T11:22:32.999Z</time></trkpt><trkpt lat="45.36501226052748" lon="10.693419196000436"><ele>81.33333333333333</ele><time>2026-03-30T11:22:33.999Z</time></trkpt><trkpt lat="45.364980365920545" lon="10.693611991161594"><ele>81.66666666666666</ele><time>2026-03-30T11:22:34.999Z</time></trkpt><trkpt lat="45.36495292623227" lon="10.693846267068379"><ele>82.0</ele><time>2026-03-30T11:22:35.999Z</time></trkpt><trkpt lat="45.36492662601691" lon="10.694050408562024"><ele>82.0</ele><time>2026-03-30T11:22:36.999Z</time></trkpt><trkpt lat="45.364898167309214" lon="10.694268417289647"><ele>82.0</ele><time>2026-03-30T11:22:37.999Z</time></trkpt><trkpt lat="45.36486450261859" lon="10.694500932580159"><ele>82.0</ele><time>2026-03-30T11:22:38.999Z</time></trkpt><trkpt lat="45.36483082558462" lon="10.694733769247087"><ele>81.75</ele><time>2026-03-30T11:22:39.999Z</time></trkpt><trkpt lat="45.36480217262575" lon="10.694942918721699"><ele>81.5</ele><time>2026-03-30T11:22:40.999Z</time></trkpt><trkpt lat="45.36477448076336" lon="10.695128461290741"><ele>81.25</ele><time>2026-03-30T11:22:41.999Z</time></trkpt><trkpt lat="45.36474887535436" lon="10.695314351358657"><ele>81.0</ele><time>2026-03-30T11:22:42.999Z</time></trkpt><trkpt lat="45.364722639397854" lon="10.695487114506063"><ele>81.0</ele><time>2026-03-30T11:22:43.999Z</time></trkpt><trkpt lat="45.36470128972185" lon="10.695641068680898"><ele>81.0</ele><time>2026-03-30T11:22:44.999Z</time></trkpt><trkpt lat="45.364675207730734" lon="10.69578751512183"><ele>81.0</ele><time>2026-03-30T11:22:45.999Z</time></trkpt><trkpt lat="45.36463873841789" lon="10.69590584493808"><ele>81.0</ele><time>2026-03-30T11:22:46.999Z</time></trkpt><trkpt lat="45.36459819929121" lon="10.696038394674257"><ele>81.0</ele><time>2026-03-30T11:22:47.999Z</time></trkpt><trkpt lat="45.364567703871245" lon="10.696173882472081"><ele>80.5</ele><time>2026-03-30T11:22:48.999Z</time></trkpt><trkpt lat="45.36462006794744" lon="10.696370804765946"><ele>80.0</ele><time>2026-03-30T11:22:50.999Z</time></trkpt><trkpt lat="45.36468596378331" lon="10.69650631894985"><ele>79.5</ele><time>2026-03-30T11:22:51.999Z</time></trkpt><trkpt lat="45.36477522255295" lon="10.696616312197275"><ele>79.0</ele><time>2026-03-30T11:22:52.999Z</time></trkpt><trkpt lat="45.36488369232916" lon="10.696778695515109"><ele>79.0</ele><time>2026-03-30T11:22:53.999Z</time></trkpt><trkpt lat="45.364992802369294" lon="10.696933828263232"><ele>79.0</ele><time>2026-03-30T11:22:54.999Z</time></trkpt><trkpt lat="45.36507527898621" lon="10.697071008747107"><ele>79.0</ele><time>2026-03-30T11:22:55.999Z</time></trkpt><trkpt lat="45.36514599356828" lon="10.697191349849652"><ele>79.0</ele><time>2026-03-30T11:22:56.999Z</time></trkpt><trkpt lat="45.36520688232364" lon="10.697314672135313"><ele>79.0</ele><time>2026-03-30T11:22:57.999Z</time></trkpt><trkpt lat="45.3652531219188" lon="10.697455983860587"><ele>79.0</ele><time>2026-03-30T11:22:58.999Z</time></trkpt><trkpt lat="45.36526928206711" lon="10.697602457059004"><ele>79.0</ele><time>2026-03-30T11:22:59.999Z</time></trkpt><trkpt lat="45.365269955131055" lon="10.697763223666929"><ele>79.0</ele><time>2026-03-30T11:23:00.999Z</time></trkpt><trkpt lat="45.365269814330794" lon="10.697976751571174"><ele>79.33333333333333</ele><time>2026-03-30T11:23:01.999Z</time></trkpt><trkpt lat="45.365269886494616" lon="10.698218701208694"><ele>79.66666666666667</ele><time>2026-03-30T11:23:02.999Z</time></trkpt><trkpt lat="45.36526560386351" lon="10.698462589462496"><ele>80.0</ele><time>2026-03-30T11:23:03.999Z</time></trkpt><trkpt lat="45.3652693844455" lon="10.698712049954157"><ele>80.66666666666667</ele><time>2026-03-30T11:23:04.999Z</time></trkpt><trkpt lat="45.365287634269365" lon="10.698941562171363"><ele>81.33333333333333</ele><time>2026-03-30T11:23:05.999Z</time></trkpt><trkpt lat="45.36530653526701" lon="10.699161499241761"><ele>82.0</ele><time>2026-03-30T11:23:06.999Z</time></trkpt><trkpt lat="45.365332198915546" lon="10.699381630647105"><ele>82.0</ele><time>2026-03-30T11:23:07.999Z</time></trkpt><trkpt lat="45.36534754295975" lon="10.699610023186786"><ele>82.0</ele><time>2026-03-30T11:23:08.999Z</time></trkpt><trkpt lat="45.36533573691392" lon="10.699833712031008"><ele>82.0</ele><time>2026-03-30T11:23:09.999Z</time></trkpt><trkpt lat="45.36532617898464" lon="10.70007210010307"><ele>81.33333333333333</ele><time>2026-03-30T11:23:10.999Z</time></trkpt><trkpt lat="45.36532395567575" lon="10.700313970059504"><ele>80.66666666666667</ele><time>2026-03-30T11:23:11.999Z</time></trkpt><trkpt lat="45.36532138834234" lon="10.700553757415525"><ele>80.0</ele><time>2026-03-30T11:23:12.999Z</time></trkpt><trkpt lat="45.365303670770636" lon="10.700769998938599"><ele>80.0</ele><time>2026-03-30T11:23:13.999Z</time></trkpt><trkpt lat="45.36528108836765" lon="10.70096007198615"><ele>80.0</ele><time>2026-03-30T11:23:14.999Z</time></trkpt><trkpt lat="45.36527030588346" lon="10.701162962518772"><ele>80.0</ele><time>2026-03-30T11:23:15.999Z</time></trkpt><trkpt lat="45.365262138124486" lon="10.701340291902982"><ele>80.0</ele><time>2026-03-30T11:23:16.999Z</time></trkpt><trkpt lat="45.36524920050598" lon="10.701476033427403"><ele>80.16666666666667</ele><time>2026-03-30T11:23:17.999Z</time></trkpt><trkpt lat="45.36523626353894" lon="10.70157191722907"><ele>80.33333333333334</ele><time>2026-03-30T11:23:18.999Z</time></trkpt><trkpt lat="45.3652251022444" lon="10.701684073342161"><ele>80.5</ele><time>2026-03-30T11:23:20.999Z</time></trkpt><trkpt lat="45.36521144507436" lon="10.701797230054424"><ele>80.66666666666667</ele><time>2026-03-30T11:23:24.999Z</time></trkpt><trkpt lat="45.36529683930762" lon="10.70191669992832"><ele>80.83333333333333</ele><time>2026-03-30T11:23:26.999Z</time></trkpt><trkpt lat="45.36536478066965" lon="10.701978400955996"><ele>81.0</ele><time>2026-03-30T11:23:27.999Z</time></trkpt><trkpt lat="45.365423542128354" lon="10.7020538902938"><ele>81.16666666666667</ele><time>2026-03-30T11:23:28.999Z</time></trkpt><trkpt lat="45.36548182944471" lon="10.70213724827849"><ele>81.33333333333333</ele><time>2026-03-30T11:23:29.999Z</time></trkpt><trkpt lat="45.36555461284612" lon="10.702223376348966"><ele>81.5</ele><time>2026-03-30T11:23:30.999Z</time></trkpt><trkpt lat="45.36563288432604" lon="10.702302224548585"><ele>81.66666666666666</ele><time>2026-03-30T11:23:31.999Z</time></trkpt><trkpt lat="45.36569357103885" lon="10.702359474840785"><ele>81.83333333333333</ele><time>2026-03-30T11:23:32.999Z</time></trkpt><trkpt lat="45.3657477601644" lon="10.702405446901318"><ele>82.0</ele><time>2026-03-30T11:23:33.999Z</time></trkpt><trkpt lat="45.36583587328886" lon="10.702476666180592"><ele>82.19999999999999</ele><time>2026-03-30T11:23:35.999Z</time></trkpt><trkpt lat="45.365799699280835" lon="10.702576977956072"><ele>82.4</ele><time>2026-03-30T11:23:38.998Z</time></trkpt><trkpt lat="45.36569958298028" lon="10.702661197350583"><ele>82.6</ele><time>2026-03-30T11:23:40.998Z</time></trkpt><trkpt lat="45.36560936047033" lon="10.702724772140652"><ele>82.80000000000001</ele><time>2026-03-30T11:23:41.998Z</time></trkpt><trkpt lat="45.36550595875995" lon="10.702795824641218"><ele>83.0</ele><time>2026-03-30T11:23:42.998Z</time></trkpt><trkpt lat="45.36538929829019" lon="10.702878085998414"><ele>83.0</ele><time>2026-03-30T11:23:43.998Z</time></trkpt><trkpt lat="45.3652814627137" lon="10.702956360888562"><ele>83.0</ele><time>2026-03-30T11:23:44.998Z</time></trkpt><trkpt lat="45.365177637119935" lon="10.703031744708257"><ele>83.0</ele><time>2026-03-30T11:23:45.998Z</time></trkpt><trkpt lat="45.36506517768287" lon="10.703113152529001"><ele>83.0</ele><time>2026-03-30T11:23:46.998Z</time></trkpt><trkpt lat="45.36494187801775" lon="10.703198036381764"><ele>83.0</ele><time>2026-03-30T11:23:47.998Z</time></trkpt><trkpt lat="45.364822412060064" lon="10.703306654753993"><ele>83.0</ele><time>2026-03-30T11:23:48.998Z</time></trkpt><trkpt lat="45.36471226395913" lon="10.703441530774107"><ele>83.0</ele><time>2026-03-30T11:23:49.998Z</time></trkpt><trkpt lat="45.364608600417995" lon="10.703590358815768"><ele>83.0</ele><time>2026-03-30T11:23:50.998Z</time></trkpt><trkpt lat="45.364508003153475" lon="10.703751434232293"><ele>85.66666666666667</ele><time>2026-03-30T11:23:51.998Z</time></trkpt><trkpt lat="45.36439264414393" lon="10.703893925936036"><ele>88.33333333333333</ele><time>2026-03-30T11:23:52.998Z</time></trkpt><trkpt lat="45.36430078277842" lon="10.704072727245196"><ele>91.0</ele><time>2026-03-30T11:23:53.998Z</time></trkpt><trkpt lat="45.3641970929487" lon="10.704230836575064"><ele>91.0</ele><time>2026-03-30T11:23:54.998Z</time></trkpt><trkpt lat="45.36407829835094" lon="10.704355012208413"><ele>91.0</ele><time>2026-03-30T11:23:55.998Z</time></trkpt><trkpt lat="45.36395238803613" lon="10.704477926165547"><ele>91.0</ele><time>2026-03-30T11:23:56.998Z</time></trkpt><trkpt lat="45.36381324292174" lon="10.704602270863065"><ele>92.75</ele><time>2026-03-30T11:23:57.998Z</time></trkpt><trkpt lat="45.36369891327121" lon="10.704739114768568"><ele>94.5</ele><time>2026-03-30T11:23:58.998Z</time></trkpt><trkpt lat="45.36359696910642" lon="10.70485309351101"><ele>96.25</ele><time>2026-03-30T11:23:59.998Z</time></trkpt><trkpt lat="45.36352199468454" lon="10.704993638130455"><ele>98.0</ele><time>2026-03-30T11:24:00.998Z</time></trkpt><trkpt lat="45.3634431899434" lon="10.705108536479774"><ele>98.0</ele><time>2026-03-30T11:24:01.998Z</time></trkpt><trkpt lat="45.36338056917814" lon="10.705233960706561"><ele>98.0</ele><time>2026-03-30T11:24:02.998Z</time></trkpt><trkpt lat="45.363288680402064" lon="10.705325205952999"><ele>98.0</ele><time>2026-03-30T11:24:03.998Z</time></trkpt><trkpt lat="45.363194958524744" lon="10.705444703015703"><ele>98.0</ele><time>2026-03-30T11:24:04.998Z</time></trkpt><trkpt lat="45.36310134660905" lon="10.705585007626063"><ele>98.0</ele><time>2026-03-30T11:24:05.998Z</time></trkpt><trkpt lat="45.36299159349967" lon="10.70571696415801"><ele>98.0</ele><time>2026-03-30T11:24:06.998Z</time></trkpt><trkpt lat="45.36289615930202" lon="10.705844869001131"><ele>98.0</ele><time>2026-03-30T11:24:07.998Z</time></trkpt><trkpt lat="45.36280960677978" lon="10.70596497789234"><ele>98.0</ele><time>2026-03-30T11:24:08.998Z</time></trkpt><trkpt lat="45.36274285651448" lon="10.706079589817715"><ele>97.49999999999999</ele><time>2026-03-30T11:24:09.998Z</time></trkpt><trkpt lat="45.362672008415686" lon="10.70614359977295"><ele>97.0</ele><time>2026-03-30T11:24:10.998Z</time></trkpt><trkpt lat="45.362616776899685" lon="10.70619338014683"><ele>96.5</ele><time>2026-03-30T11:24:12Z</time></trkpt><trkpt lat="45.36255177915848" lon="10.706236084560503"><ele>96.0</ele><time>2026-03-30T11:24:13Z</time></trkpt><trkpt lat="45.36247901644471" lon="10.706170888637807"><ele>95.5</ele><time>2026-03-30T11:24:14Z</time></trkpt><trkpt lat="45.362363842640875" lon="10.70614660790499"><ele>95.0</ele><time>2026-03-30T11:24:15Z</time></trkpt><trkpt lat="45.362228383122314" lon="10.70611805052873"><ele>94.75</ele><time>2026-03-30T11:24:16Z</time></trkpt><trkpt lat="45.36206322489847" lon="10.706082132213918"><ele>94.5</ele><time>2026-03-30T11:24:17Z</time></trkpt><trkpt lat="45.36191870449749" lon="10.706048834817475"><ele>94.25</ele><time>2026-03-30T11:24:18Z</time></trkpt><trkpt lat="45.361789019609695" lon="10.706020551631708"><ele>94.0</ele><time>2026-03-30T11:24:19Z</time></trkpt><trkpt lat="45.36165907463112" lon="10.70600282061832"><ele>94.5</ele><time>2026-03-30T11:24:20Z</time></trkpt><trkpt lat="45.3615302058137" lon="10.706031668545021"><ele>95.0</ele><time>2026-03-30T11:24:21Z</time></trkpt><trkpt lat="45.361412844561485" lon="10.706054097771302"><ele>95.5</ele><time>2026-03-30T11:24:22Z</time></trkpt><trkpt lat="45.36129567032056" lon="10.706052589690717"><ele>96.0</ele><time>2026-03-30T11:24:23Z</time></trkpt><trkpt lat="45.3611692484819" lon="10.706060069281255"><ele>96.0</ele><time>2026-03-30T11:24:24Z</time></trkpt><trkpt lat="45.36102484582782" lon="10.7060699021579"><ele>96.0</ele><time>2026-03-30T11:24:25Z</time></trkpt><trkpt lat="45.36088678810788" lon="10.706082137741426"><ele>96.0</ele><time>2026-03-30T11:24:26Z</time></trkpt><trkpt lat="45.360754614668366" lon="10.706129740290699"><ele>96.0</ele><time>2026-03-30T11:24:27Z</time></trkpt><trkpt lat="45.36061703527143" lon="10.706174923461925"><ele>93.75</ele><time>2026-03-30T11:24:28Z</time></trkpt><trkpt lat="45.3604799731503" lon="10.706247545456634"><ele>91.5</ele><time>2026-03-30T11:24:29Z</time></trkpt><trkpt lat="45.36034577397869" lon="10.706342369539803"><ele>89.25</ele><time>2026-03-30T11:24:30Z</time></trkpt><trkpt lat="45.36023177160778" lon="10.706448972311549"><ele>87.0</ele><time>2026-03-30T11:24:31Z</time></trkpt><trkpt lat="45.360127502702596" lon="10.706561716433901"><ele>87.0</ele><time>2026-03-30T11:24:32Z</time></trkpt><trkpt lat="45.360022374672134" lon="10.706612141372897"><ele>87.0</ele><time>2026-03-30T11:24:33Z</time></trkpt><trkpt lat="45.359923852172784" lon="10.706623205089318"><ele>87.0</ele><time>2026-03-30T11:24:34Z</time></trkpt><trkpt lat="45.35981504890343" lon="10.70660641722811"><ele>87.0</ele><time>2026-03-30T11:24:35Z</time></trkpt><trkpt lat="45.359679631047705" lon="10.706577841921757"><ele>87.5</ele><time>2026-03-30T11:24:36Z</time></trkpt><trkpt lat="45.359544835893466" lon="10.706583878974314"><ele>88.0</ele><time>2026-03-30T11:24:37Z</time></trkpt><trkpt lat="45.35942854151639" lon="10.706593624018199"><ele>88.5</ele><time>2026-03-30T11:24:38Z</time></trkpt><trkpt lat="45.35932328248201" lon="10.706579948726485"><ele>89.0</ele><time>2026-03-30T11:24:39Z</time></trkpt><trkpt lat="45.35922784813612" lon="10.70649632489752"><ele>89.0</ele><time>2026-03-30T11:24:40Z</time></trkpt><trkpt lat="45.35912096359908" lon="10.706453804305076"><ele>89.0</ele><time>2026-03-30T11:24:40.999Z</time></trkpt><trkpt lat="45.359021068831616" lon="10.706456025682108"><ele>89.0</ele><time>2026-03-30T11:24:41.999Z</time></trkpt><trkpt lat="45.35891136174268" lon="10.706488584791899"><ele>89.0</ele><time>2026-03-30T11:24:42.999Z</time></trkpt><trkpt lat="45.358781373848885" lon="10.70656827441204"><ele>89.75</ele><time>2026-03-30T11:24:43.999Z</time></trkpt><trkpt lat="45.35863957575085" lon="10.706599557328326"><ele>90.5</ele><time>2026-03-30T11:24:44.999Z</time></trkpt><trkpt lat="45.35849223657161" lon="10.706629801202462"><ele>91.25</ele><time>2026-03-30T11:24:45.999Z</time></trkpt><trkpt lat="45.35835914034178" lon="10.706644475650352"><ele>92.0</ele><time>2026-03-30T11:24:46.999Z</time></trkpt><trkpt lat="45.35821550684635" lon="10.706703547690102"><ele>92.0</ele><time>2026-03-30T11:24:47.999Z</time></trkpt><trkpt lat="45.358063523546704" lon="10.70679236966835"><ele>92.0</ele><time>2026-03-30T11:24:48.999Z</time></trkpt><trkpt lat="45.35790972831637" lon="10.706899650706305"><ele>92.0</ele><time>2026-03-30T11:24:49.999Z</time></trkpt><trkpt lat="45.35775847830978" lon="10.706987137430653"><ele>90.0</ele><time>2026-03-30T11:24:50.999Z</time></trkpt><trkpt lat="45.357604248401834" lon="10.707087671886866"><ele>88.0</ele><time>2026-03-30T11:24:51.999Z</time></trkpt><trkpt lat="45.35747399864583" lon="10.707194763877224"><ele>86.0</ele><time>2026-03-30T11:24:52.999Z</time></trkpt><trkpt lat="45.3573687021677" lon="10.707294864036623"><ele>84.0</ele><time>2026-03-30T11:24:53.999Z</time></trkpt><trkpt lat="45.35728136207054" lon="10.707378809661684"><ele>84.0</ele><time>2026-03-30T11:24:54.999Z</time></trkpt><trkpt lat="45.357207598966376" lon="10.7074602277461"><ele>84.0</ele><time>2026-03-30T11:24:55.999Z</time></trkpt><trkpt lat="45.3571302606518" lon="10.707551229563512"><ele>84.0</ele><time>2026-03-30T11:24:56.999Z</time></trkpt><trkpt lat="45.35704461159717" lon="10.707653053144785"><ele>84.0</ele><time>2026-03-30T11:24:57.999Z</time></trkpt><trkpt lat="45.35695803956074" lon="10.707753713088724"><ele>84.0</ele><time>2026-03-30T11:24:58.999Z</time></trkpt><trkpt lat="45.356871757835904" lon="10.707858309083091"><ele>84.0</ele><time>2026-03-30T11:24:59.999Z</time></trkpt><trkpt lat="45.35679477693316" lon="10.70798058036768"><ele>84.0</ele><time>2026-03-30T11:25:00.999Z</time></trkpt><trkpt lat="45.3567362639571" lon="10.708094572024278"><ele>84.0</ele><time>2026-03-30T11:25:01.999Z</time></trkpt><trkpt lat="45.356687441838936" lon="10.708187105252163"><ele>84.0</ele><time>2026-03-30T11:25:02.999Z</time></trkpt><trkpt lat="45.356628159046224" lon="10.708253572532556"><ele>84.0</ele><time>2026-03-30T11:25:03.999Z</time></trkpt><trkpt lat="45.35654048876218" lon="10.708279454475436"><ele>84.0</ele><time>2026-03-30T11:25:04.999Z</time></trkpt><trkpt lat="45.35645848752756" lon="10.7082873695835"><ele>84.0</ele><time>2026-03-30T11:25:05.999Z</time></trkpt><trkpt lat="45.35638274069738" lon="10.708282390089423"><ele>84.0</ele><time>2026-03-30T11:25:06.999Z</time></trkpt><trkpt lat="45.35630171651269" lon="10.708271294223518"><ele>84.0</ele><time>2026-03-30T11:25:07.999Z</time></trkpt><trkpt lat="45.35622551248364" lon="10.708235695915533"><ele>84.0</ele><time>2026-03-30T11:25:08.999Z</time></trkpt><trkpt lat="45.35613954621389" lon="10.708186496650988"><ele>84.0</ele><time>2026-03-30T11:25:09.999Z</time></trkpt><trkpt lat="45.35602644961795" lon="10.70812964718399"><ele>84.80000000000001</ele><time>2026-03-30T11:25:10.999Z</time></trkpt><trkpt lat="45.35589571634881" lon="10.708079853893993"><ele>85.60000000000001</ele><time>2026-03-30T11:25:11.999Z</time></trkpt><trkpt lat="45.35577669724857" lon="10.708037975015207"><ele>86.4</ele><time>2026-03-30T11:25:12.999Z</time></trkpt><trkpt lat="45.35567287915557" lon="10.708004994638332"><ele>87.2</ele><time>2026-03-30T11:25:13.999Z</time></trkpt><trkpt lat="45.355596558268076" lon="10.707981627059535"><ele>88.0</ele><time>2026-03-30T11:25:14.999Z</time></trkpt><trkpt lat="45.35553286832621" lon="10.707968115186487"><ele>87.25</ele><time>2026-03-30T11:25:15.999Z</time></trkpt><trkpt lat="45.355523052869685" lon="10.707778929265077"><ele>86.5</ele><time>2026-03-30T11:25:20.999Z</time></trkpt><trkpt lat="45.35554947489009" lon="10.707628745341236"><ele>85.75</ele><time>2026-03-30T11:25:21.999Z</time></trkpt><trkpt lat="45.355580009523955" lon="10.707427523516165"><ele>85.0</ele><time>2026-03-30T11:25:22.999Z</time></trkpt><trkpt lat="45.35559767146213" lon="10.707166442053788"><ele>84.66666666666666</ele><time>2026-03-30T11:25:23.999Z</time></trkpt><trkpt lat="45.35563297126421" lon="10.706886513077764"><ele>84.33333333333333</ele><time>2026-03-30T11:25:24.999Z</time></trkpt><trkpt lat="45.35565313519844" lon="10.706568566401973"><ele>84.0</ele><time>2026-03-30T11:25:25.999Z</time></trkpt><trkpt lat="45.355670484657644" lon="10.706252120157869"><ele>84.0</ele><time>2026-03-30T11:25:26.999Z</time></trkpt><trkpt lat="45.355692034360146" lon="10.70591371994076"><ele>84.0</ele><time>2026-03-30T11:25:27.999Z</time></trkpt><trkpt lat="45.35571766385847" lon="10.705562759862346"><ele>85.66666666666667</ele><time>2026-03-30T11:25:28.999Z</time></trkpt><trkpt lat="45.35573924084268" lon="10.705239800282879"><ele>87.33333333333334</ele><time>2026-03-30T11:25:29.999Z</time></trkpt><trkpt lat="45.35576168711237" lon="10.70493582704766"><ele>89.0</ele><time>2026-03-30T11:25:30.999Z</time></trkpt><trkpt lat="45.35578515379571" lon="10.704660139079955"><ele>90.0</ele><time>2026-03-30T11:25:31.999Z</time></trkpt><trkpt lat="45.355819080841506" lon="10.704380884523921"><ele>91.0</ele><time>2026-03-30T11:25:32.999Z</time></trkpt><trkpt lat="45.355852959598224" lon="10.704048018846628"><ele>92.0</ele><time>2026-03-30T11:25:33.999Z</time></trkpt><trkpt lat="45.35587008870022" lon="10.703667525071284"><ele>92.0</ele><time>2026-03-30T11:25:34.999Z</time></trkpt><trkpt lat="45.35586804312873" lon="10.703264741832356"><ele>92.0</ele><time>2026-03-30T11:25:35.999Z</time></trkpt><trkpt lat="45.35585735879721" lon="10.702833327268054"><ele>92.0</ele><time>2026-03-30T11:25:36.999Z</time></trkpt><trkpt lat="45.35584798672967" lon="10.70242916940641"><ele>92.0</ele><time>2026-03-30T11:25:37.999Z</time></trkpt><trkpt lat="45.35583731557419" lon="10.702056889114543"><ele>92.5</ele><time>2026-03-30T11:25:38.999Z</time></trkpt><trkpt lat="45.35582631483486" lon="10.701718164468545"><ele>93.0</ele><time>2026-03-30T11:25:39.999Z</time></trkpt><trkpt lat="45.35581763655682" lon="10.701366059661826"><ele>93.5</ele><time>2026-03-30T11:25:40.999Z</time></trkpt><trkpt lat="45.35580831048494" lon="10.701008458555712"><ele>94.0</ele><time>2026-03-30T11:25:41.999Z</time></trkpt><trkpt lat="45.35580319168891" lon="10.700672318987309"><ele>94.0</ele><time>2026-03-30T11:25:42.999Z</time></trkpt><trkpt lat="45.35579847990463" lon="10.700347146314671"><ele>94.0</ele><time>2026-03-30T11:25:43.999Z</time></trkpt><trkpt lat="45.35578989463344" lon="10.699996436084577"><ele>93.5</ele><time>2026-03-30T11:25:44.999Z</time></trkpt><trkpt lat="45.35578142190836" lon="10.6996659656094"><ele>93.0</ele><time>2026-03-30T11:25:45.999Z</time></trkpt><trkpt lat="45.35577732311507" lon="10.699346039139495"><ele>92.33333333333333</ele><time>2026-03-30T11:25:46.999Z</time></trkpt><trkpt lat="45.35578035050611" lon="10.699041865524967"><ele>91.66666666666666</ele><time>2026-03-30T11:25:47.998Z</time></trkpt><trkpt lat="45.35577800767137" lon="10.698730343874825"><ele>91.0</ele><time>2026-03-30T11:25:48.998Z</time></trkpt><trkpt lat="45.355758379530286" lon="10.698406917240474"><ele>90.33333333333333</ele><time>2026-03-30T11:25:49.998Z</time></trkpt><trkpt lat="45.355717316722455" lon="10.698103687929938"><ele>89.66666666666667</ele><time>2026-03-30T11:25:50.998Z</time></trkpt><trkpt lat="45.35567314408687" lon="10.697824944466563"><ele>89.0</ele><time>2026-03-30T11:25:51.998Z</time></trkpt><trkpt lat="45.355655579440274" lon="10.697565691620689"><ele>88.75</ele><time>2026-03-30T11:25:52.998Z</time></trkpt><trkpt lat="45.35563416338434" lon="10.697343009438992"><ele>88.5</ele><time>2026-03-30T11:25:53.998Z</time></trkpt><trkpt lat="45.355600510918926" lon="10.697140525306779"><ele>88.25</ele><time>2026-03-30T11:25:54.998Z</time></trkpt><trkpt lat="45.355590553221504" lon="10.69695527609818"><ele>88.0</ele><time>2026-03-30T11:25:55.998Z</time></trkpt><trkpt lat="45.35557188374149" lon="10.696814316647602"><ele>88.4</ele><time>2026-03-30T11:25:56.998Z</time></trkpt><trkpt lat="45.35554796394334" lon="10.69667446637691"><ele>88.80000000000001</ele><time>2026-03-30T11:25:57.998Z</time></trkpt><trkpt lat="45.35552924695671" lon="10.696563715032832"><ele>89.2</ele><time>2026-03-30T11:25:58.998Z</time></trkpt><trkpt lat="45.355507544814046" lon="10.696470855839573"><ele>89.6</ele><time>2026-03-30T11:25:59.998Z</time></trkpt><trkpt lat="45.35549119192983" lon="10.696329773245074"><ele>90.0</ele><time>2026-03-30T11:26:01.998Z</time></trkpt><trkpt lat="45.35557958132779" lon="10.696166319775656"><ele>91.5</ele><time>2026-03-30T11:26:03.998Z</time></trkpt><trkpt lat="45.3556264310353" lon="10.696021399511576"><ele>93.0</ele><time>2026-03-30T11:26:04.998Z</time></trkpt><trkpt lat="45.35565101322352" lon="10.695870664023925"><ele>94.5</ele><time>2026-03-30T11:26:05.998Z</time></trkpt><trkpt lat="45.35570007397877" lon="10.695720595989938"><ele>96.0</ele><time>2026-03-30T11:26:06.998Z</time></trkpt><trkpt lat="45.35577522954725" lon="10.695577125079074"><ele>96.0</ele><time>2026-03-30T11:26:07.998Z</time></trkpt><trkpt lat="45.355853358801845" lon="10.695397941548078"><ele>96.0</ele><time>2026-03-30T11:26:08.998Z</time></trkpt><trkpt lat="45.35591681410619" lon="10.695193905054154"><ele>96.0</ele><time>2026-03-30T11:26:09.998Z</time></trkpt><trkpt lat="45.35598086597894" lon="10.695001065638726"><ele>96.25</ele><time>2026-03-30T11:26:10.998Z</time></trkpt><trkpt lat="45.35602462471975" lon="10.694803579517133"><ele>96.5</ele><time>2026-03-30T11:26:11.998Z</time></trkpt><trkpt lat="45.356098357431556" lon="10.694622177935083"><ele>96.75</ele><time>2026-03-30T11:26:12.998Z</time></trkpt><trkpt lat="45.356173858149916" lon="10.694430946610199"><ele>97.0</ele><time>2026-03-30T11:26:13.998Z</time></trkpt><trkpt lat="45.35624597119807" lon="10.694264993684296"><ele>97.0</ele><time>2026-03-30T11:26:14.998Z</time></trkpt><trkpt lat="45.35630594151004" lon="10.69415502564505"><ele>97.0</ele><time>2026-03-30T11:26:15.998Z</time></trkpt><trkpt lat="45.356367779811805" lon="10.694082235396841"><ele>97.0</ele><time>2026-03-30T11:26:16.998Z</time></trkpt><trkpt lat="45.35649221572114" lon="10.694020439376052"><ele>97.0</ele><time>2026-03-30T11:26:19Z</time></trkpt><trkpt lat="45.35660092627444" lon="10.693992495696797"><ele>97.0</ele><time>2026-03-30T11:26:20Z</time></trkpt><trkpt lat="45.35671003689187" lon="10.693961969895547"><ele>97.50000000000001</ele><time>2026-03-30T11:26:21Z</time></trkpt><trkpt lat="45.35682699321838" lon="10.693940135720625"><ele>98.0</ele><time>2026-03-30T11:26:22Z</time></trkpt><trkpt lat="45.356922277319555" lon="10.693934115205451"><ele>98.5</ele><time>2026-03-30T11:26:23Z</time></trkpt><trkpt lat="45.35699958346726" lon="10.693933809848419"><ele>99.0</ele><time>2026-03-30T11:26:24Z</time></trkpt><trkpt lat="45.357065290936525" lon="10.693939936644624"><ele>99.50000000000001</ele><time>2026-03-30T11:26:25Z</time></trkpt><trkpt lat="45.357143804628606" lon="10.693936945933226"><ele>100.0</ele><time>2026-03-30T11:26:27Z</time></trkpt><trkpt lat="45.35705423332802" lon="10.693945805271975"><ele>100.00000000000001</ele><time>2026-03-30T11:26:36Z</time></trkpt><trkpt lat="45.35698480007809" lon="10.693932413216062"><ele>100.0</ele><time>2026-03-30T11:26:37Z</time></trkpt><trkpt lat="45.35690613292637" lon="10.693924295154684"><ele>100.0</ele><time>2026-03-30T11:26:38Z</time></trkpt><trkpt lat="45.35681974932725" lon="10.693923987928098"><ele>100.0</ele><time>2026-03-30T11:26:39Z</time></trkpt><trkpt lat="45.356721994618624" lon="10.6939364597623"><ele>100.00000000000001</ele><time>2026-03-30T11:26:40Z</time></trkpt><trkpt lat="45.356633438600454" lon="10.69395622939863"><ele>100.0</ele><time>2026-03-30T11:26:41Z</time></trkpt><trkpt lat="45.356547576550625" lon="10.69397323530521"><ele>100.00000000000001</ele><time>2026-03-30T11:26:42Z</time></trkpt><trkpt lat="45.35647647917572" lon="10.6940000723284"><ele>100.0</ele><time>2026-03-30T11:26:43Z</time></trkpt><trkpt lat="45.35637820072754" lon="10.694059096237615"><ele>100.0</ele><time>2026-03-30T11:26:45Z</time></trkpt><trkpt lat="45.35630375263406" lon="10.69403176828022"><ele>100.0</ele><time>2026-03-30T11:26:49.999Z</time></trkpt><trkpt lat="45.356329088299724" lon="10.693928799783432"><ele>100.00000000000001</ele><time>2026-03-30T11:26:51.999Z</time></trkpt><trkpt lat="45.3563789859403" lon="10.693856789962961"><ele>100.0</ele><time>2026-03-30T11:26:52.999Z</time></trkpt><trkpt lat="45.35643118828629" lon="10.693763492486356"><ele>100.00000000000001</ele><time>2026-03-30T11:26:53.999Z</time></trkpt><trkpt lat="45.356482031300565" lon="10.693672033508063"><ele>100.0</ele><time>2026-03-30T11:26:54.999Z</time></trkpt><trkpt lat="45.35654518180174" lon="10.693573497174807"><ele>100.0</ele><time>2026-03-30T11:26:55.999Z</time></trkpt><trkpt lat="45.35661590133822" lon="10.69348049446331"><ele>100.0</ele><time>2026-03-30T11:26:56.999Z</time></trkpt><trkpt lat="45.35669066263804" lon="10.693392259501069"><ele>100.00000000000001</ele><time>2026-03-30T11:26:57.999Z</time></trkpt><trkpt lat="45.356741515376925" lon="10.693323130743858"><ele>100.0</ele><time>2026-03-30T11:26:58.999Z</time></trkpt><trkpt lat="45.35680905738114" lon="10.693248354756811"><ele>99.00000000000001</ele><time>2026-03-30T11:26:59.999Z</time></trkpt><trkpt lat="45.35687167696625" lon="10.693181168258192"><ele>98.0</ele><time>2026-03-30T11:27:00.999Z</time></trkpt><trkpt lat="45.356941323199784" lon="10.693104001973005"><ele>97.0</ele><time>2026-03-30T11:27:01.999Z</time></trkpt><trkpt lat="45.35701647757375" lon="10.693019645236562"><ele>96.0</ele><time>2026-03-30T11:27:02.999Z</time></trkpt><trkpt lat="45.35708132809616" lon="10.692938819646916"><ele>95.0</ele><time>2026-03-30T11:27:03.999Z</time></trkpt><trkpt lat="45.35714274416626" lon="10.69287186212875"><ele>94.0</ele><time>2026-03-30T11:27:04.999Z</time></trkpt><trkpt lat="45.357199520567036" lon="10.69280172549774"><ele>94.0</ele><time>2026-03-30T11:27:05.999Z</time></trkpt><trkpt lat="45.35723349503485" lon="10.692717936785725"><ele>94.0</ele><time>2026-03-30T11:27:06.999Z</time></trkpt><trkpt lat="45.35727225555838" lon="10.692613494838822"><ele>94.0</ele><time>2026-03-30T11:27:07.999Z</time></trkpt><trkpt lat="45.35730997518013" lon="10.692519598169532"><ele>94.0</ele><time>2026-03-30T11:27:08.999Z</time></trkpt><trkpt lat="45.357337721492435" lon="10.692401258993574"><ele>94.0</ele><time>2026-03-30T11:27:09.999Z</time></trkpt><trkpt lat="45.357367265118725" lon="10.692261226841698"><ele>94.0</ele><time>2026-03-30T11:27:10.999Z</time></trkpt><trkpt lat="45.35739734397146" lon="10.692123087747202"><ele>94.0</ele><time>2026-03-30T11:27:11.999Z</time></trkpt><trkpt lat="45.357401239224984" lon="10.691983309136765"><ele>94.0</ele><time>2026-03-30T11:27:12.999Z</time></trkpt><trkpt lat="45.35739499566005" lon="10.691821559487183"><ele>94.0</ele><time>2026-03-30T11:27:13.999Z</time></trkpt><trkpt lat="45.357386031580646" lon="10.691720370467046"><ele>94.0</ele><time>2026-03-30T11:27:14.999Z</time></trkpt><trkpt lat="45.35736909991624" lon="10.691620032751953"><ele>94.0</ele><time>2026-03-30T11:27:15.999Z</time></trkpt><trkpt lat="45.357368142889605" lon="10.691438138198622"><ele>95.0</ele><time>2026-03-30T11:27:16.999Z</time></trkpt><trkpt lat="45.35735703597724" lon="10.691283295030118"><ele>96.0</ele><time>2026-03-30T11:27:17.999Z</time></trkpt><trkpt lat="45.357333721308315" lon="10.691168995756925"><ele>97.0</ele><time>2026-03-30T11:27:18.999Z</time></trkpt><trkpt lat="45.35729354809593" lon="10.691028209754938"><ele>98.0</ele><time>2026-03-30T11:27:19.999Z</time></trkpt><trkpt lat="45.35729168679696" lon="10.690917247349617"><ele>99.0</ele><time>2026-03-30T11:27:20.999Z</time></trkpt><trkpt lat="45.357281140764755" lon="10.690768123566539"><ele>100.25</ele><time>2026-03-30T11:27:21.999Z</time></trkpt><trkpt lat="45.35727160608601" lon="10.69057831502841"><ele>101.5</ele><time>2026-03-30T11:27:22.999Z</time></trkpt><trkpt lat="45.35726924299301" lon="10.690391531895182"><ele>102.75</ele><time>2026-03-30T11:27:23.999Z</time></trkpt><trkpt lat="45.35725887028434" lon="10.690215479393666"><ele>104.0</ele><time>2026-03-30T11:27:24.999Z</time></trkpt><trkpt lat="45.35724947532933" lon="10.690002618609393"><ele>104.5</ele><time>2026-03-30T11:27:25.999Z</time></trkpt><trkpt lat="45.357298745903044" lon="10.68983323924477"><ele>105.0</ele><time>2026-03-30T11:27:27.999Z</time></trkpt><trkpt lat="45.35734671394128" lon="10.689648522090991"><ele>105.5</ele><time>2026-03-30T11:27:28.999Z</time></trkpt><trkpt lat="45.357383648659535" lon="10.689453994325413"><ele>106.0</ele><time>2026-03-30T11:27:29.999Z</time></trkpt><trkpt lat="45.357402818400416" lon="10.689297875730263"><ele>106.25</ele><time>2026-03-30T11:27:30.999Z</time></trkpt><trkpt lat="45.35740299564738" lon="10.689154289425112"><ele>106.5</ele><time>2026-03-30T11:27:31.999Z</time></trkpt><trkpt lat="45.35739313789273" lon="10.688993929907838"><ele>106.75</ele><time>2026-03-30T11:27:32.999Z</time></trkpt><trkpt lat="45.35739786615617" lon="10.688826903789336"><ele>107.0</ele><time>2026-03-30T11:27:33.999Z</time></trkpt><trkpt lat="45.357421335484254" lon="10.688660447314806"><ele>107.0</ele><time>2026-03-30T11:27:34.999Z</time></trkpt><trkpt lat="45.35746322803217" lon="10.688489281200066"><ele>106.99999999999999</ele><time>2026-03-30T11:27:35.999Z</time></trkpt><trkpt lat="45.35748858407214" lon="10.68832002961942"><ele>106.99999999999999</ele><time>2026-03-30T11:27:36.999Z</time></trkpt><trkpt lat="45.3574919334257" lon="10.688179502877782"><ele>107.0</ele><time>2026-03-30T11:27:37.999Z</time></trkpt><trkpt lat="45.35748987800614" lon="10.688062965913488"><ele>107.0</ele><time>2026-03-30T11:27:38.999Z</time></trkpt><trkpt lat="45.357495384499906" lon="10.687937488764131"><ele>107.0</ele><time>2026-03-30T11:27:39.999Z</time></trkpt><trkpt lat="45.357526130243464" lon="10.687788657480365"><ele>107.0</ele><time>2026-03-30T11:27:40.999Z</time></trkpt><trkpt lat="45.357575739946256" lon="10.687631123703019"><ele>107.0</ele><time>2026-03-30T11:27:41.999Z</time></trkpt><trkpt lat="45.35764185199886" lon="10.687467616258857"><ele>107.0</ele><time>2026-03-30T11:27:42.999Z</time></trkpt><trkpt lat="45.357718456641365" lon="10.687300706187317"><ele>107.19999999999999</ele><time>2026-03-30T11:27:43.999Z</time></trkpt><trkpt lat="45.35779298760197" lon="10.687162249220535"><ele>107.39999999999999</ele><time>2026-03-30T11:27:44.999Z</time></trkpt><trkpt lat="45.35787096878818" lon="10.687055367774024"><ele>107.60000000000001</ele><time>2026-03-30T11:27:45.999Z</time></trkpt><trkpt lat="45.357950040174224" lon="10.686967740177"><ele>107.80000000000001</ele><time>2026-03-30T11:27:46.999Z</time></trkpt><trkpt lat="45.358051824019434" lon="10.686884463340634"><ele>108.0</ele><time>2026-03-30T11:27:47.999Z</time></trkpt><trkpt lat="45.35817765681994" lon="10.686792218812906"><ele>109.25</ele><time>2026-03-30T11:27:48.999Z</time></trkpt><trkpt lat="45.3582848479191" lon="10.686701836535915"><ele>110.5</ele><time>2026-03-30T11:27:49.999Z</time></trkpt><trkpt lat="45.35838069340869" lon="10.686622239506818"><ele>111.75</ele><time>2026-03-30T11:27:50.999Z</time></trkpt><trkpt lat="45.358484344538006" lon="10.686538024669993"><ele>113.0</ele><time>2026-03-30T11:27:51.999Z</time></trkpt><trkpt lat="45.35860871650065" lon="10.686449195711946"><ele>113.0</ele><time>2026-03-30T11:27:52.999Z</time></trkpt><trkpt lat="45.35873746407167" lon="10.686352130139797"><ele>113.0</ele><time>2026-03-30T11:27:53.999Z</time></trkpt><trkpt lat="45.35884460027862" lon="10.68627003246335"><ele>113.0</ele><time>2026-03-30T11:27:54.998Z</time></trkpt><trkpt lat="45.358935283645266" lon="10.686198960533696"><ele>113.0</ele><time>2026-03-30T11:27:55.998Z</time></trkpt><trkpt lat="45.35902568343667" lon="10.686110481843976"><ele>114.4</ele><time>2026-03-30T11:27:56.998Z</time></trkpt><trkpt lat="45.35910168298848" lon="10.686005175892545"><ele>115.80000000000001</ele><time>2026-03-30T11:27:57.998Z</time></trkpt><trkpt lat="45.359166503787684" lon="10.685881873374434"><ele>117.2</ele><time>2026-03-30T11:27:58.998Z</time></trkpt><trkpt lat="45.35922025054097" lon="10.685759612836515"><ele>118.6</ele><time>2026-03-30T11:27:59.998Z</time></trkpt><trkpt lat="45.35928077530472" lon="10.685612712079037"><ele>120.0</ele><time>2026-03-30T11:28:00.998Z</time></trkpt><trkpt lat="45.35933314496054" lon="10.685435220596258"><ele>122.0</ele><time>2026-03-30T11:28:01.998Z</time></trkpt><trkpt lat="45.35941327951693" lon="10.685233050609652"><ele>124.0</ele><time>2026-03-30T11:28:02.998Z</time></trkpt><trkpt lat="45.35948107018827" lon="10.685039440347799"><ele>126.0</ele><time>2026-03-30T11:28:03.998Z</time></trkpt><trkpt lat="45.359552781357564" lon="10.684843726145377"><ele>126.0</ele><time>2026-03-30T11:28:04.998Z</time></trkpt><trkpt lat="45.35963417849078" lon="10.684647062670487"><ele>126.0</ele><time>2026-03-30T11:28:05.998Z</time></trkpt><trkpt lat="45.359728170501334" lon="10.684463699188475"><ele>126.0</ele><time>2026-03-30T11:28:06.998Z</time></trkpt><trkpt lat="45.35981716766366" lon="10.684309013190584"><ele>124.6</ele><time>2026-03-30T11:28:07.998Z</time></trkpt><trkpt lat="45.359895505016695" lon="10.684174126729813"><ele>123.19999999999999</ele><time>2026-03-30T11:28:08.998Z</time></trkpt><trkpt lat="45.35996996971442" lon="10.68405272323396"><ele>121.80000000000001</ele><time>2026-03-30T11:28:09.998Z</time></trkpt><trkpt lat="45.36003756620762" lon="10.683938391901137"><ele>120.4</ele><time>2026-03-30T11:28:10.998Z</time></trkpt><trkpt lat="45.360079921953975" lon="10.68384370249627"><ele>119.0</ele><time>2026-03-30T11:28:11.998Z</time></trkpt><trkpt lat="45.36011470344758" lon="10.683765118074817"><ele>119.0</ele><time>2026-03-30T11:28:12.998Z</time></trkpt><trkpt lat="45.36016429529823" lon="10.683663923767005"><ele>119.0</ele><time>2026-03-30T11:28:14.998Z</time></trkpt><trkpt lat="45.360240974954465" lon="10.683611210147335"><ele>119.0</ele><time>2026-03-30T11:28:17.998Z</time></trkpt><trkpt lat="45.36036299381951" lon="10.683635723434302"><ele>119.0</ele><time>2026-03-30T11:28:19.998Z</time></trkpt><trkpt lat="45.36047015489627" lon="10.68365174998068"><ele>119.0</ele><time>2026-03-30T11:28:20.998Z</time></trkpt><trkpt lat="45.36057396896843" lon="10.68361430513231"><ele>118.25</ele><time>2026-03-30T11:28:21.998Z</time></trkpt><trkpt lat="45.36069130898722" lon="10.683540253245196"><ele>117.5</ele><time>2026-03-30T11:28:22.998Z</time></trkpt><trkpt lat="45.3607932351177" lon="10.683427426922176"><ele>116.75</ele><time>2026-03-30T11:28:24Z</time></trkpt><trkpt lat="45.36087089273362" lon="10.683279513977162"><ele>116.0</ele><time>2026-03-30T11:28:25Z</time></trkpt><trkpt lat="45.360934362527296" lon="10.683133971331479"><ele>116.0</ele><time>2026-03-30T11:28:26Z</time></trkpt><trkpt lat="45.36099789284159" lon="10.68301226242985"><ele>116.0</ele><time>2026-03-30T11:28:27Z</time></trkpt><trkpt lat="45.3610759450978" lon="10.682907806010924"><ele>116.0</ele><time>2026-03-30T11:28:28Z</time></trkpt><trkpt lat="45.36117271607588" lon="10.682813940672967"><ele>116.0</ele><time>2026-03-30T11:28:29Z</time></trkpt><trkpt lat="45.36128017227671" lon="10.682736240811716"><ele>115.0</ele><time>2026-03-30T11:28:30Z</time></trkpt><trkpt lat="45.36139491892334" lon="10.682666415912372"><ele>114.0</ele><time>2026-03-30T11:28:31Z</time></trkpt><trkpt lat="45.36151542614946" lon="10.682616418983875"><ele>113.0</ele><time>2026-03-30T11:28:32Z</time></trkpt><trkpt lat="45.36163321491106" lon="10.682589934682763"><ele>112.0</ele><time>2026-03-30T11:28:33Z</time></trkpt><trkpt lat="45.36174683515355" lon="10.682557544584816"><ele>112.0</ele><time>2026-03-30T11:28:34Z</time></trkpt><trkpt lat="45.36184520515185" lon="10.682530518321789"><ele>111.99999999999999</ele><time>2026-03-30T11:28:35Z</time></trkpt><trkpt lat="45.36193257792043" lon="10.68249608409046"><ele>111.99999999999999</ele><time>2026-03-30T11:28:36Z</time></trkpt><trkpt lat="45.3620153939544" lon="10.682466043044391"><ele>112.0</ele><time>2026-03-30T11:28:37Z</time></trkpt><trkpt lat="45.36209791148833" lon="10.682434665439082"><ele>112.0</ele><time>2026-03-30T11:28:38Z</time></trkpt><trkpt lat="45.36219135360284" lon="10.682436973197143"><ele>108.39999999999999</ele><time>2026-03-30T11:28:39Z</time></trkpt><trkpt lat="45.36227049124102" lon="10.682462940631295"><ele>104.79999999999998</ele><time>2026-03-30T11:28:40Z</time></trkpt><trkpt lat="45.36233108862668" lon="10.682503221915685"><ele>101.2</ele><time>2026-03-30T11:28:41Z</time></trkpt><trkpt lat="45.362417400940984" lon="10.682605143388557"><ele>97.6</ele><time>2026-03-30T11:28:42Z</time></trkpt><trkpt lat="45.36248477848338" lon="10.682743364246898"><ele>94.0</ele><time>2026-03-30T11:28:43Z</time></trkpt><trkpt lat="45.362559980795865" lon="10.682910784711028"><ele>92.5</ele><time>2026-03-30T11:28:44Z</time></trkpt><trkpt lat="45.36262583272818" lon="10.68308870590912"><ele>91.0</ele><time>2026-03-30T11:28:45Z</time></trkpt><trkpt lat="45.36267887607508" lon="10.683234362699821"><ele>89.5</ele><time>2026-03-30T11:28:46Z</time></trkpt><trkpt lat="45.36272561453446" lon="10.683378290939384"><ele>88.0</ele><time>2026-03-30T11:28:47Z</time></trkpt><trkpt lat="45.36277646059298" lon="10.683520052683361"><ele>88.5</ele><time>2026-03-30T11:28:48Z</time></trkpt><trkpt lat="45.36281972864905" lon="10.683680003689858"><ele>89.0</ele><time>2026-03-30T11:28:49Z</time></trkpt><trkpt lat="45.36294169944046" lon="10.683778461168634"><ele>89.5</ele><time>2026-03-30T11:28:50Z</time></trkpt><trkpt lat="45.36307041812805" lon="10.683886762841437"><ele>90.0</ele><time>2026-03-30T11:28:51Z</time></trkpt><trkpt lat="45.363202266071106" lon="10.68397205880221"><ele>90.0</ele><time>2026-03-30T11:28:52Z</time></trkpt><trkpt lat="45.36335647606928" lon="10.684061719181567"><ele>90.0</ele><time>2026-03-30T11:28:53Z</time></trkpt><trkpt lat="45.36351312056477" lon="10.684121607326425"><ele>90.0</ele><time>2026-03-30T11:28:54Z</time></trkpt><trkpt lat="45.363691728037814" lon="10.684200682317348"><ele>90.0</ele><time>2026-03-30T11:28:55Z</time></trkpt><trkpt lat="45.36389633229185" lon="10.68426861672321"><ele>90.0</ele><time>2026-03-30T11:28:55.999Z</time></trkpt><trkpt lat="45.36407587765218" lon="10.684318350900966"><ele>90.0</ele><time>2026-03-30T11:28:56.999Z</time></trkpt><trkpt lat="45.36422349545291" lon="10.684356785568982"><ele>90.0</ele><time>2026-03-30T11:28:57.999Z</time></trkpt><trkpt lat="45.364346318616626" lon="10.68438707216809"><ele>90.0</ele><time>2026-03-30T11:28:58.999Z</time></trkpt><trkpt lat="45.36444842606974" lon="10.684409851966555"><ele>90.0</ele><time>2026-03-30T11:28:59.999Z</time></trkpt><trkpt lat="45.364558487599346" lon="10.684393190548388"><ele>90.0</ele><time>2026-03-30T11:29:00.999Z</time></trkpt><trkpt lat="45.3646783219855" lon="10.684387090128999"><ele>90.6</ele><time>2026-03-30T11:29:01.999Z</time></trkpt><trkpt lat="45.364792715761304" lon="10.6843968046071"><ele>91.2</ele><time>2026-03-30T11:29:02.999Z</time></trkpt><trkpt lat="45.36490323967687" lon="10.68441346074433"><ele>91.80000000000001</ele><time>2026-03-30T11:29:03.999Z</time></trkpt><trkpt lat="45.364969129825745" lon="10.684417835984164"><ele>92.4</ele><time>2026-03-30T11:29:04.999Z</time></trkpt><trkpt lat="45.36504389513395" lon="10.6843338360498"><ele>93.0</ele><time>2026-03-30T11:29:05.999Z</time></trkpt><trkpt lat="45.36510866845488" lon="10.684313014368245"><ele>93.0</ele><time>2026-03-30T11:29:06.999Z</time></trkpt><trkpt lat="45.36517289254953" lon="10.684282917316684"><ele>93.0</ele><time>2026-03-30T11:29:07.999Z</time></trkpt><trkpt lat="45.36523901965238" lon="10.68426815004113"><ele>93.0</ele><time>2026-03-30T11:29:08.999Z</time></trkpt><trkpt lat="45.36531781269047" lon="10.684253275127618"><ele>93.0</ele><time>2026-03-30T11:29:09.999Z</time></trkpt><trkpt lat="45.36541091936643" lon="10.684224366868678"><ele>93.0</ele><time>2026-03-30T11:29:10.999Z</time></trkpt><trkpt lat="45.36550077728083" lon="10.684194893788028"><ele>93.0</ele><time>2026-03-30T11:29:11.999Z</time></trkpt><trkpt lat="45.365591736769815" lon="10.684158857499655"><ele>92.80000000000001</ele><time>2026-03-30T11:29:12.999Z</time></trkpt><trkpt lat="45.365684970114415" lon="10.684123992399638"><ele>92.6</ele><time>2026-03-30T11:29:13.999Z</time></trkpt><trkpt lat="45.365776366096775" lon="10.684094455865289"><ele>92.4</ele><time>2026-03-30T11:29:14.999Z</time></trkpt><trkpt lat="45.365868035874364" lon="10.684070686841242"><ele>92.19999999999999</ele><time>2026-03-30T11:29:15.999Z</time></trkpt><trkpt lat="45.36597658383828" lon="10.684039368750355"><ele>92.0</ele><time>2026-03-30T11:29:16.999Z</time></trkpt><trkpt lat="45.36610380570544" lon="10.684029854410278"><ele>92.0</ele><time>2026-03-30T11:29:17.999Z</time></trkpt><trkpt lat="45.366214472439665" lon="10.68401213342138"><ele>92.0</ele><time>2026-03-30T11:29:18.999Z</time></trkpt><trkpt lat="45.366330692429436" lon="10.68398392328454"><ele>92.0</ele><time>2026-03-30T11:29:19.999Z</time></trkpt><trkpt lat="45.36646380842114" lon="10.683919047564084"><ele>92.0</ele><time>2026-03-30T11:29:20.999Z</time></trkpt><trkpt lat="45.3665636079789" lon="10.683850477973303"><ele>92.33333333333334</ele><time>2026-03-30T11:29:21.999Z</time></trkpt><trkpt lat="45.36664597737184" lon="10.68378920827"><ele>92.66666666666667</ele><time>2026-03-30T11:29:22.999Z</time></trkpt><trkpt lat="45.3667153968667" lon="10.68375442086208"><ele>93.0</ele><time>2026-03-30T11:29:23.999Z</time></trkpt><trkpt lat="45.36677621486328" lon="10.68373015003663"><ele>93.33333333333333</ele><time>2026-03-30T11:29:24.999Z</time></trkpt><trkpt lat="45.366847260903874" lon="10.683702950254581"><ele>93.66666666666666</ele><time>2026-03-30T11:29:26.999Z</time></trkpt><trkpt lat="45.366941492063866" lon="10.68374742043615"><ele>94.0</ele><time>2026-03-30T11:29:29.999Z</time></trkpt><trkpt lat="45.367009149135654" lon="10.683758197448563"><ele>94.0</ele><time>2026-03-30T11:29:30.999Z</time></trkpt><trkpt lat="45.367065529701556" lon="10.683803216524646"><ele>94.0</ele><time>2026-03-30T11:29:31.999Z</time></trkpt><trkpt lat="45.367050597162695" lon="10.683546671335314"><ele>94.0</ele><time>2026-03-30T11:29:37.999Z</time></trkpt><trkpt lat="45.36698932120574" lon="10.683463237200597"><ele>94.0</ele><time>2026-03-30T11:29:38.999Z</time></trkpt><trkpt lat="45.36692977823593" lon="10.683367049402026"><ele>94.0</ele><time>2026-03-30T11:29:39.999Z</time></trkpt><trkpt lat="45.366862583200344" lon="10.683253713835414"><ele>94.2</ele><time>2026-03-30T11:29:40.999Z</time></trkpt><trkpt lat="45.36679036355249" lon="10.683128696213462"><ele>94.4</ele><time>2026-03-30T11:29:41.999Z</time></trkpt><trkpt lat="45.366722197249196" lon="10.683009545946337"><ele>94.6</ele><time>2026-03-30T11:29:42.999Z</time></trkpt><trkpt lat="45.36665175426013" lon="10.682889791188297"><ele>94.8</ele><time>2026-03-30T11:29:43.999Z</time></trkpt><trkpt lat="45.36659453420359" lon="10.68279372962592"><ele>95.0</ele><time>2026-03-30T11:29:44.999Z</time></trkpt><trkpt lat="45.36654100462498" lon="10.682711575163335"><ele>95.0</ele><time>2026-03-30T11:29:45.999Z</time></trkpt><trkpt lat="45.366492205433744" lon="10.68263924570897"><ele>95.0</ele><time>2026-03-30T11:29:46.999Z</time></trkpt><trkpt lat="45.36644043385173" lon="10.682529900965447"><ele>95.0</ele><time>2026-03-30T11:29:48.999Z</time></trkpt><trkpt lat="45.3663879123753" lon="10.682465597194295"><ele>95.0</ele><time>2026-03-30T11:29:51.999Z</time></trkpt><trkpt lat="45.3663330023277" lon="10.682381332982615"><ele>95.0</ele><time>2026-03-30T11:29:53.999Z</time></trkpt><trkpt lat="45.36626139168412" lon="10.68226689061621"><ele>95.0</ele><time>2026-03-30T11:29:55.999Z</time></trkpt><trkpt lat="45.36621436657459" lon="10.68220106303679"><ele>95.0</ele><time>2026-03-30T11:29:56.999Z</time></trkpt><trkpt lat="45.36613648864686" lon="10.68206849984277"><ele>95.0</ele><time>2026-03-30T11:29:58.999Z</time></trkpt><trkpt lat="45.36605494311654" lon="10.681934948878515"><ele>95.0</ele><time>2026-03-30T11:30:00.999Z</time></trkpt><trkpt lat="45.3659741737349" lon="10.681800732375173"><ele>95.0</ele><time>2026-03-30T11:30:02.998Z</time></trkpt><trkpt lat="45.365934927875614" lon="10.681729042055215"><ele>95.0</ele><time>2026-03-30T11:30:03.998Z</time></trkpt><trkpt lat="45.36589567475447" lon="10.681657026756227"><ele>95.8</ele><time>2026-03-30T11:30:04.998Z</time></trkpt><trkpt lat="45.36584961561179" lon="10.68158201660936"><ele>96.6</ele><time>2026-03-30T11:30:05.998Z</time></trkpt><trkpt lat="45.365807547885666" lon="10.681514614882685"><ele>97.4</ele><time>2026-03-30T11:30:06.998Z</time></trkpt><trkpt lat="45.36576424605823" lon="10.681430556537373"><ele>98.2</ele><time>2026-03-30T11:30:08.998Z</time></trkpt><trkpt lat="45.36583474143879" lon="10.681557799927315"><ele>99.0</ele><time>2026-03-30T11:30:13.998Z</time></trkpt><trkpt lat="45.36589599463787" lon="10.681743018440374"><ele>99.0</ele><time>2026-03-30T11:30:14.998Z</time></trkpt><trkpt lat="45.3659721652651" lon="10.681849674055163"><ele>99.0</ele><time>2026-03-30T11:30:15.998Z</time></trkpt><trkpt lat="45.36604335913895" lon="10.68196304502455"><ele>99.0</ele><time>2026-03-30T11:30:16.998Z</time></trkpt><trkpt lat="45.3661162157248" lon="10.68208864642478"><ele>99.0</ele><time>2026-03-30T11:30:17.998Z</time></trkpt><trkpt lat="45.366187233889555" lon="10.682211591804057"><ele>99.0</ele><time>2026-03-30T11:30:18.998Z</time></trkpt><trkpt lat="45.366251867494626" lon="10.682317469833363"><ele>99.16666666666667</ele><time>2026-03-30T11:30:19.998Z</time></trkpt><trkpt lat="45.36631675101676" lon="10.682423245667616"><ele>99.33333333333334</ele><time>2026-03-30T11:30:20.998Z</time></trkpt><trkpt lat="45.36637908049765" lon="10.68252123999827"><ele>99.5</ele><time>2026-03-30T11:30:21.998Z</time></trkpt><trkpt lat="45.36643666500044" lon="10.682619203600863"><ele>99.66666666666667</ele><time>2026-03-30T11:30:22.998Z</time></trkpt><trkpt lat="45.366490794829524" lon="10.682709109992835"><ele>99.83333333333334</ele><time>2026-03-30T11:30:23.998Z</time></trkpt><trkpt lat="45.366541429045704" lon="10.682793794039767"><ele>100.0</ele><time>2026-03-30T11:30:24.998Z</time></trkpt><trkpt lat="45.366592828515564" lon="10.682872119942903"><ele>99.16666666666667</ele><time>2026-03-30T11:30:25.998Z</time></trkpt><trkpt lat="45.36664646707977" lon="10.682946443745461"><ele>98.33333333333334</ele><time>2026-03-30T11:30:26.998Z</time></trkpt><trkpt lat="45.36669094576509" lon="10.683017660151371"><ele>97.5</ele><time>2026-03-30T11:30:27.998Z</time></trkpt><trkpt lat="45.366765737433354" lon="10.683114702402527"><ele>96.66666666666667</ele><time>2026-03-30T11:30:30Z</time></trkpt><trkpt lat="45.36683551266963" lon="10.683061217970527"><ele>95.83333333333334</ele><time>2026-03-30T11:30:32Z</time></trkpt><trkpt lat="45.36686267163276" lon="10.6829755133804"><ele>95.0</ele><time>2026-03-30T11:30:33Z</time></trkpt><trkpt lat="45.366928977968435" lon="10.682827755269901"><ele>95.83333333333334</ele><time>2026-03-30T11:30:35Z</time></trkpt><trkpt lat="45.36696440028477" lon="10.682752118508805"><ele>96.66666666666667</ele><time>2026-03-30T11:30:36Z</time></trkpt><trkpt lat="45.366991154365074" lon="10.682657945151925"><ele>97.5</ele><time>2026-03-30T11:30:37Z</time></trkpt><trkpt lat="45.367005423102704" lon="10.682548531149859"><ele>98.33333333333334</ele><time>2026-03-30T11:30:38Z</time></trkpt><trkpt lat="45.366990141018114" lon="10.682423512214365"><ele>99.16666666666667</ele><time>2026-03-30T11:30:39Z</time></trkpt><trkpt lat="45.366978394424535" lon="10.682309943411822"><ele>100.0</ele><time>2026-03-30T11:30:40Z</time></trkpt><trkpt lat="45.36697505832232" lon="10.682211461690207"><ele>100.00000000000001</ele><time>2026-03-30T11:30:41Z</time></trkpt><trkpt lat="45.366987845090584" lon="10.682107955720918"><ele>100.0</ele><time>2026-03-30T11:30:42Z</time></trkpt><trkpt lat="45.36703106801794" lon="10.68200775794185"><ele>100.0</ele><time>2026-03-30T11:30:43Z</time></trkpt><trkpt lat="45.3670879141003" lon="10.681921943045294"><ele>100.0</ele><time>2026-03-30T11:30:44Z</time></trkpt><trkpt lat="45.36715064735197" lon="10.681859666166748"><ele>100.00000000000001</ele><time>2026-03-30T11:30:45Z</time></trkpt><trkpt lat="45.36721061056268" lon="10.681822073875027"><ele>100.0</ele><time>2026-03-30T11:30:46Z</time></trkpt><trkpt lat="45.367282592259315" lon="10.681795502930566"><ele>102.2</ele><time>2026-03-30T11:30:47Z</time></trkpt><trkpt lat="45.367351923926115" lon="10.681752818956209"><ele>104.4</ele><time>2026-03-30T11:30:48Z</time></trkpt><trkpt lat="45.367439573071444" lon="10.68165113391618"><ele>106.6</ele><time>2026-03-30T11:30:49Z</time></trkpt><trkpt lat="45.36752863987147" lon="10.681530331323101"><ele>108.8</ele><time>2026-03-30T11:30:50Z</time></trkpt><trkpt lat="45.3676115747368" lon="10.681392584047211"><ele>111.0</ele><time>2026-03-30T11:30:51Z</time></trkpt><trkpt lat="45.367690141240104" lon="10.681263573152506"><ele>111.0</ele><time>2026-03-30T11:30:52Z</time></trkpt><trkpt lat="45.36775821591863" lon="10.681150285938164"><ele>111.0</ele><time>2026-03-30T11:30:53Z</time></trkpt><trkpt lat="45.36783915996423" lon="10.681025461123552"><ele>111.0</ele><time>2026-03-30T11:30:54Z</time></trkpt><trkpt lat="45.367916058180555" lon="10.680889373104256"><ele>111.0</ele><time>2026-03-30T11:30:55Z</time></trkpt><trkpt lat="45.36797073634276" lon="10.680781723320823"><ele>111.0</ele><time>2026-03-30T11:30:56Z</time></trkpt><trkpt lat="45.3680297996537" lon="10.68067097364606"><ele>110.6</ele><time>2026-03-30T11:30:57Z</time></trkpt><trkpt lat="45.36808451606573" lon="10.680563551890769"><ele>110.19999999999999</ele><time>2026-03-30T11:30:58Z</time></trkpt><trkpt lat="45.368113255042196" lon="10.680435138977174"><ele>109.80000000000001</ele><time>2026-03-30T11:30:59Z</time></trkpt><trkpt lat="45.36812809429875" lon="10.680267505401837"><ele>109.4</ele><time>2026-03-30T11:31:00Z</time></trkpt><trkpt lat="45.36814982276777" lon="10.680134589386933"><ele>109.0</ele><time>2026-03-30T11:31:01Z</time></trkpt><trkpt lat="45.36817033787794" lon="10.68003063299304"><ele>108.6</ele><time>2026-03-30T11:31:01.999Z</time></trkpt><trkpt lat="45.36819349180156" lon="10.67993351882334"><ele>108.2</ele><time>2026-03-30T11:31:02.999Z</time></trkpt><trkpt lat="45.368235485127435" lon="10.679835660161645"><ele>107.79999999999998</ele><time>2026-03-30T11:31:03.999Z</time></trkpt><trkpt lat="45.368308495870835" lon="10.679700121629244"><ele>107.39999999999999</ele><time>2026-03-30T11:31:04.999Z</time></trkpt><trkpt lat="45.368376065032905" lon="10.67957822795389"><ele>107.0</ele><time>2026-03-30T11:31:05.999Z</time></trkpt><trkpt lat="45.36842084154112" lon="10.679488510437654"><ele>107.6</ele><time>2026-03-30T11:31:06.999Z</time></trkpt><trkpt lat="45.36844253202246" lon="10.679361970652849"><ele>108.19999999999999</ele><time>2026-03-30T11:31:07.999Z</time></trkpt><trkpt lat="45.36845316814268" lon="10.679237437793242"><ele>108.8</ele><time>2026-03-30T11:31:08.999Z</time></trkpt><trkpt lat="45.36845308375463" lon="10.679108775843046"><ele>109.4</ele><time>2026-03-30T11:31:09.999Z</time></trkpt><trkpt lat="45.36844333703297" lon="10.678948252101312"><ele>110.0</ele><time>2026-03-30T11:31:10.999Z</time></trkpt><trkpt lat="45.3684352051124" lon="10.678804302893782"><ele>110.0</ele><time>2026-03-30T11:31:11.999Z</time></trkpt><trkpt lat="45.368437556625615" lon="10.678662365752333"><ele>110.0</ele><time>2026-03-30T11:31:12.999Z</time></trkpt><trkpt lat="45.368428566826445" lon="10.678510523411077"><ele>110.0</ele><time>2026-03-30T11:31:13.999Z</time></trkpt><trkpt lat="45.36842909691519" lon="10.678376753948895"><ele>110.0</ele><time>2026-03-30T11:31:14.999Z</time></trkpt><trkpt lat="45.36843179058354" lon="10.678241095873243"><ele>110.0</ele><time>2026-03-30T11:31:15.999Z</time></trkpt><trkpt lat="45.368453646766326" lon="10.67808497337609"><ele>110.25</ele><time>2026-03-30T11:31:16.999Z</time></trkpt><trkpt lat="45.368493189525886" lon="10.677929826901778"><ele>110.5</ele><time>2026-03-30T11:31:17.999Z</time></trkpt><trkpt lat="45.36854847136083" lon="10.677778636681019"><ele>110.75</ele><time>2026-03-30T11:31:18.999Z</time></trkpt><trkpt lat="45.36861128675797" lon="10.677595347248046"><ele>111.0</ele><time>2026-03-30T11:31:19.999Z</time></trkpt><trkpt lat="45.36865035898064" lon="10.677417264508728"><ele>111.75</ele><time>2026-03-30T11:31:20.999Z</time></trkpt><trkpt lat="45.368688326413434" lon="10.677237268554382"><ele>112.5</ele><time>2026-03-30T11:31:21.999Z</time></trkpt><trkpt lat="45.3687133920579" lon="10.677069101837882"><ele>113.25</ele><time>2026-03-30T11:31:22.999Z</time></trkpt><trkpt lat="45.368732483980864" lon="10.676900862404107"><ele>114.0</ele><time>2026-03-30T11:31:23.999Z</time></trkpt><trkpt lat="45.36874910945749" lon="10.676752631285114"><ele>115.0</ele><time>2026-03-30T11:31:24.999Z</time></trkpt><trkpt lat="45.36878211959098" lon="10.67661270649172"><ele>116.0</ele><time>2026-03-30T11:31:25.999Z</time></trkpt><trkpt lat="45.368821759289304" lon="10.676491652527869"><ele>117.0</ele><time>2026-03-30T11:31:26.999Z</time></trkpt><trkpt lat="45.368850373547595" lon="10.676344946574792"><ele>118.0</ele><time>2026-03-30T11:31:27.999Z</time></trkpt><trkpt lat="45.368900961101005" lon="10.676205662188403"><ele>119.0</ele><time>2026-03-30T11:31:28.999Z</time></trkpt><trkpt lat="45.36895766787713" lon="10.676084614743814"><ele>119.83333333333333</ele><time>2026-03-30T11:31:29.999Z</time></trkpt><trkpt lat="45.369010129557736" lon="10.675981797416192"><ele>120.66666666666666</ele><time>2026-03-30T11:31:30.999Z</time></trkpt><trkpt lat="45.36905238843513" lon="10.67589624542501"><ele>121.5</ele><time>2026-03-30T11:31:31.999Z</time></trkpt><trkpt lat="45.36909521936471" lon="10.675823540542837"><ele>122.33333333333334</ele><time>2026-03-30T11:31:32.999Z</time></trkpt><trkpt lat="45.36916581721123" lon="10.675819755567924"><ele>123.16666666666667</ele><time>2026-03-30T11:31:35.999Z</time></trkpt><trkpt lat="45.36927714571602" lon="10.675909810353138"><ele>124.0</ele><time>2026-03-30T11:31:37.999Z</time></trkpt><trkpt lat="45.36936301590627" lon="10.676004129096311"><ele>124.0</ele><time>2026-03-30T11:31:38.999Z</time></trkpt><trkpt lat="45.36945739698185" lon="10.676079568586516"><ele>124.0</ele><time>2026-03-30T11:31:39.999Z</time></trkpt><trkpt lat="45.36954426412011" lon="10.676146045344138"><ele>124.0</ele><time>2026-03-30T11:31:40.999Z</time></trkpt><trkpt lat="45.36962380951074" lon="10.676196587591136"><ele>124.0</ele><time>2026-03-30T11:31:41.999Z</time></trkpt><trkpt lat="45.36973716088875" lon="10.676239312593795"><ele>124.0</ele><time>2026-03-30T11:31:43.999Z</time></trkpt><trkpt lat="45.36980535873235" lon="10.67626576369168"><ele>124.0</ele><time>2026-03-30T11:31:46.999Z</time></trkpt><trkpt lat="45.36979651470912" lon="10.676074127246572"><ele>124.0</ele><time>2026-03-30T11:31:48.999Z</time></trkpt><trkpt lat="45.369750023366535" lon="10.675990562746984"><ele>124.0</ele><time>2026-03-30T11:31:49.999Z</time></trkpt><trkpt lat="45.36968600220966" lon="10.675859657606674"><ele>124.0</ele><time>2026-03-30T11:31:50.999Z</time></trkpt><trkpt lat="45.36962468596854" lon="10.675638948783256"><ele>124.0</ele><time>2026-03-30T11:31:51.999Z</time></trkpt><trkpt lat="45.369569225030475" lon="10.675389487847438"><ele>124.0</ele><time>2026-03-30T11:31:52.999Z</time></trkpt><trkpt lat="45.369539218649535" lon="10.67514496237039"><ele>124.0</ele><time>2026-03-30T11:31:53.999Z</time></trkpt><trkpt lat="45.369524108600956" lon="10.674933873089728"><ele>124.5</ele><time>2026-03-30T11:31:54.999Z</time></trkpt><trkpt lat="45.36952654243251" lon="10.674738324063922"><ele>125.0</ele><time>2026-03-30T11:31:55.999Z</time></trkpt><trkpt lat="45.36955479744811" lon="10.67456330158095"><ele>125.5</ele><time>2026-03-30T11:31:56.999Z</time></trkpt><trkpt lat="45.369574305250886" lon="10.674389778358883"><ele>126.0</ele><time>2026-03-30T11:31:57.999Z</time></trkpt><trkpt lat="45.36956655806461" lon="10.674197385572047"><ele>127.66666666666666</ele><time>2026-03-30T11:31:58.999Z</time></trkpt><trkpt lat="45.36953094129987" lon="10.673996426049234"><ele>129.33333333333331</ele><time>2026-03-30T11:31:59.999Z</time></trkpt><trkpt lat="45.3694862742912" lon="10.673778759939221"><ele>131.0</ele><time>2026-03-30T11:32:00.999Z</time></trkpt><trkpt lat="45.369465714261125" lon="10.673559040793497"><ele>131.2</ele><time>2026-03-30T11:32:01.999Z</time></trkpt><trkpt lat="45.369441388346836" lon="10.673369219343844"><ele>131.39999999999998</ele><time>2026-03-30T11:32:02.999Z</time></trkpt><trkpt lat="45.3694251757968" lon="10.673223230068793"><ele>131.6</ele><time>2026-03-30T11:32:03.999Z</time></trkpt><trkpt lat="45.369410528511345" lon="10.673091335486111"><ele>131.79999999999998</ele><time>2026-03-30T11:32:04.999Z</time></trkpt><trkpt lat="45.3693812897619" lon="10.672967669344606"><ele>132.0</ele><time>2026-03-30T11:32:05.999Z</time></trkpt><trkpt lat="45.36937112377101" lon="10.672827819279455"><ele>132.75</ele><time>2026-03-30T11:32:06.999Z</time></trkpt><trkpt lat="45.36935627451891" lon="10.67269981543007"><ele>133.5</ele><time>2026-03-30T11:32:07.999Z</time></trkpt><trkpt lat="45.36934493905507" lon="10.672585700387332"><ele>134.25</ele><time>2026-03-30T11:32:08.999Z</time></trkpt><trkpt lat="45.369338247720634" lon="10.672451419181096"><ele>135.0</ele><time>2026-03-30T11:32:10.998Z</time></trkpt><trkpt lat="45.36911714390383" lon="10.672463879189943"><ele>135.0</ele><time>2026-03-30T11:32:13.998Z</time></trkpt><trkpt lat="45.369036318988385" lon="10.672453796808382"><ele>135.0</ele><time>2026-03-30T11:32:14.998Z</time></trkpt><trkpt lat="45.368976530588995" lon="10.672419710076927"><ele>135.0</ele><time>2026-03-30T11:32:15.998Z</time></trkpt><trkpt lat="45.36891275286637" lon="10.672388720427"><ele>135.0</ele><time>2026-03-30T11:32:16.998Z</time></trkpt><trkpt lat="45.368827261777284" lon="10.672375996249746"><ele>135.0</ele><time>2026-03-30T11:32:17.998Z</time></trkpt><trkpt lat="45.36876237217358" lon="10.672348444267131"><ele>135.0</ele><time>2026-03-30T11:32:18.998Z</time></trkpt><trkpt lat="45.36870806671575" lon="10.672301952344863"><ele>135.0</ele><time>2026-03-30T11:32:19.998Z</time></trkpt><trkpt lat="45.368667245360356" lon="10.672212973005823"><ele>137.0</ele><time>2026-03-30T11:32:20.998Z</time></trkpt><trkpt lat="45.368633098114934" lon="10.672135065549123"><ele>139.0</ele><time>2026-03-30T11:32:21.998Z</time></trkpt><trkpt lat="45.3685792867047" lon="10.672082078129897"><ele>141.0</ele><time>2026-03-30T11:32:22.998Z</time></trkpt><trkpt lat="45.36849958665813" lon="10.672093155729385"><ele>143.0</ele><time>2026-03-30T11:32:23.998Z</time></trkpt><trkpt lat="45.3684236703202" lon="10.672112445146057"><ele>145.0</ele><time>2026-03-30T11:32:24.998Z</time></trkpt><trkpt lat="45.368293773615285" lon="10.672126750169573"><ele>147.0</ele><time>2026-03-30T11:32:26.998Z</time></trkpt><trkpt lat="45.36818837300586" lon="10.67217205746127"><ele>147.0</ele><time>2026-03-30T11:32:27.998Z</time></trkpt><trkpt lat="45.36812183760508" lon="10.672199016341384"><ele>147.0</ele><time>2026-03-30T11:32:28.998Z</time></trkpt><trkpt lat="45.36800486244779" lon="10.67221281351405"><ele>147.0</ele><time>2026-03-30T11:32:30.998Z</time></trkpt><trkpt lat="45.36793506364913" lon="10.672189181267138"><ele>147.0</ele><time>2026-03-30T11:32:31.998Z</time></trkpt><trkpt lat="45.36786031228156" lon="10.672151801370138"><ele>147.0</ele><time>2026-03-30T11:32:32.998Z</time></trkpt><trkpt lat="45.36780773120726" lon="10.672077188844963"><ele>147.0</ele><time>2026-03-30T11:32:33.998Z</time></trkpt><trkpt lat="45.36776380835102" lon="10.672003241850263"><ele>148.33333333333334</ele><time>2026-03-30T11:32:34.998Z</time></trkpt><trkpt lat="45.367702523187305" lon="10.67193952362801"><ele>149.66666666666666</ele><time>2026-03-30T11:32:36Z</time></trkpt><trkpt lat="45.367633004815104" lon="10.671860870193163"><ele>151.0</ele><time>2026-03-30T11:32:37Z</time></trkpt><trkpt lat="45.36756779001998" lon="10.671770439291986"><ele>152.33333333333331</ele><time>2026-03-30T11:32:38Z</time></trkpt><trkpt lat="45.367496225532854" lon="10.671680660998751"><ele>153.66666666666666</ele><time>2026-03-30T11:32:39Z</time></trkpt><trkpt lat="45.36742660151213" lon="10.671602365779226"><ele>155.0</ele><time>2026-03-30T11:32:40Z</time></trkpt><trkpt lat="45.367338901106656" lon="10.671537128833405"><ele>155.0</ele><time>2026-03-30T11:32:41Z</time></trkpt><trkpt lat="45.367242719827274" lon="10.671497640087312"><ele>155.0</ele><time>2026-03-30T11:32:42Z</time></trkpt><trkpt lat="45.367157891804894" lon="10.671458366198618"><ele>155.0</ele><time>2026-03-30T11:32:43Z</time></trkpt><trkpt lat="45.367078618837404" lon="10.671431253385354"><ele>155.0</ele><time>2026-03-30T11:32:44Z</time></trkpt><trkpt lat="45.36701682183795" lon="10.671413040013352"><ele>155.0</ele><time>2026-03-30T11:32:45Z</time></trkpt><trkpt lat="45.36690739229709" lon="10.671434476730555"><ele>155.0</ele><time>2026-03-30T11:32:47Z</time></trkpt><trkpt lat="45.366835597628594" lon="10.671511630395456"><ele>154.25</ele><time>2026-03-30T11:32:48Z</time></trkpt><trkpt lat="45.366754575230914" lon="10.671606260939434"><ele>153.5</ele><time>2026-03-30T11:32:49Z</time></trkpt><trkpt lat="45.36667378151864" lon="10.671693274412092"><ele>152.75</ele><time>2026-03-30T11:32:50Z</time></trkpt><trkpt lat="45.36656892786626" lon="10.671775692903934"><ele>152.0</ele><time>2026-03-30T11:32:51Z</time></trkpt><trkpt lat="45.366444087149766" lon="10.671840611414316"><ele>151.66666666666666</ele><time>2026-03-30T11:32:52Z</time></trkpt><trkpt lat="45.366307767341084" lon="10.671818332208884"><ele>151.33333333333334</ele><time>2026-03-30T11:32:53Z</time></trkpt><trkpt lat="45.36614863735435" lon="10.671799377124241"><ele>151.0</ele><time>2026-03-30T11:32:54Z</time></trkpt><trkpt lat="45.365961734165175" lon="10.671797570918843"><ele>151.0</ele><time>2026-03-30T11:32:55Z</time></trkpt><trkpt lat="45.36574405260537" lon="10.671749164950443"><ele>151.0</ele><time>2026-03-30T11:32:56Z</time></trkpt><trkpt lat="45.36552183759532" lon="10.67170797148824"><ele>151.0</ele><time>2026-03-30T11:32:57Z</time></trkpt><trkpt lat="45.365327129786415" lon="10.671659914457145"><ele>150.0</ele><time>2026-03-30T11:32:58Z</time></trkpt><trkpt lat="45.365145213302036" lon="10.67161839148177"><ele>149.0</ele><time>2026-03-30T11:32:59Z</time></trkpt><trkpt lat="45.364977233491416" lon="10.671590703178346"><ele>148.0</ele><time>2026-03-30T11:33:00Z</time></trkpt><trkpt lat="45.364829943436256" lon="10.671589371389567"><ele>146.75</ele><time>2026-03-30T11:33:01Z</time></trkpt><trkpt lat="45.36468674381751" lon="10.671619553355905"><ele>145.5</ele><time>2026-03-30T11:33:02Z</time></trkpt><trkpt lat="45.36454306100577" lon="10.671671285756938"><ele>144.25</ele><time>2026-03-30T11:33:03Z</time></trkpt><trkpt lat="45.36440559422994" lon="10.67170994146194"><ele>143.0</ele><time>2026-03-30T11:33:04Z</time></trkpt><trkpt lat="45.364277839318596" lon="10.671719304040534"><ele>143.0</ele><time>2026-03-30T11:33:05Z</time></trkpt><trkpt lat="45.36415389814867" lon="10.671724786195753"><ele>143.0</ele><time>2026-03-30T11:33:06Z</time></trkpt><trkpt lat="45.36402606015168" lon="10.671684997794866"><ele>143.0</ele><time>2026-03-30T11:33:07Z</time></trkpt><trkpt lat="45.36386713957312" lon="10.671629986386533"><ele>143.0</ele><time>2026-03-30T11:33:08Z</time></trkpt><trkpt lat="45.36371526657888" lon="10.671574043470903"><ele>141.5</ele><time>2026-03-30T11:33:09Z</time></trkpt><trkpt lat="45.36359633731619" lon="10.671524059168512"><ele>140.0</ele><time>2026-03-30T11:33:10Z</time></trkpt><trkpt lat="45.36347915601377" lon="10.671526518018954"><ele>138.5</ele><time>2026-03-30T11:33:10.999Z</time></trkpt><trkpt lat="45.36336747879389" lon="10.671460587993135"><ele>137.0</ele><time>2026-03-30T11:33:11.999Z</time></trkpt><trkpt lat="45.363248082078655" lon="10.671406362582475"><ele>137.0</ele><time>2026-03-30T11:33:12.999Z</time></trkpt><trkpt lat="45.36314543700128" lon="10.671350905108575"><ele>137.0</ele><time>2026-03-30T11:33:13.999Z</time></trkpt><trkpt lat="45.36307649864371" lon="10.671281754806126"><ele>137.0</ele><time>2026-03-30T11:33:14.999Z</time></trkpt><trkpt lat="45.36303704404145" lon="10.671200056717318"><ele>137.0</ele><time>2026-03-30T11:33:15.999Z</time></trkpt><trkpt lat="45.36302848218781" lon="10.671066143102077"><ele>137.0</ele><time>2026-03-30T11:33:17.999Z</time></trkpt><trkpt lat="45.36302783202929" lon="10.670968269678053"><ele>137.0</ele><time>2026-03-30T11:33:18.999Z</time></trkpt><trkpt lat="45.36303889940864" lon="10.670845668081109"><ele>137.0</ele><time>2026-03-30T11:33:19.999Z</time></trkpt><trkpt lat="45.36305250574719" lon="10.670691569878397"><ele>137.0</ele><time>2026-03-30T11:33:20.999Z</time></trkpt><trkpt lat="45.363068316300264" lon="10.67051250790887"><ele>137.0</ele><time>2026-03-30T11:33:21.999Z</time></trkpt><trkpt lat="45.363083330609975" lon="10.670338087745735"><ele>137.0</ele><time>2026-03-30T11:33:22.999Z</time></trkpt><trkpt lat="45.36309558855223" lon="10.670178968104093"><ele>137.0</ele><time>2026-03-30T11:33:23.999Z</time></trkpt><trkpt lat="45.36310372334529" lon="10.670031116939791"><ele>137.0</ele><time>2026-03-30T11:33:24.999Z</time></trkpt><trkpt lat="45.3631069454817" lon="10.66989031567766"><ele>137.0</ele><time>2026-03-30T11:33:25.999Z</time></trkpt><trkpt lat="45.36308430670944" lon="10.669770777660625"><ele>137.0</ele><time>2026-03-30T11:33:26.999Z</time></trkpt><trkpt lat="45.362997088453355" lon="10.669678389204408"><ele>137.0</ele><time>2026-03-30T11:33:27.999Z</time></trkpt><trkpt lat="45.36287977043018" lon="10.669637039133454"><ele>135.83333333333331</ele><time>2026-03-30T11:33:28.999Z</time></trkpt><trkpt lat="45.36279508515209" lon="10.669608389829914"><ele>134.66666666666666</ele><time>2026-03-30T11:33:29.999Z</time></trkpt><trkpt lat="45.3627208532053" lon="10.669585851831249"><ele>133.5</ele><time>2026-03-30T11:33:30.999Z</time></trkpt><trkpt lat="45.362648770927656" lon="10.669537784651332"><ele>132.33333333333334</ele><time>2026-03-30T11:33:32.999Z</time></trkpt><trkpt lat="45.36268311385289" lon="10.669417708301156"><ele>131.16666666666669</ele><time>2026-03-30T11:33:33.999Z</time></trkpt><trkpt lat="45.36269007614278" lon="10.669326868037297"><ele>130.0</ele><time>2026-03-30T11:33:34.999Z</time></trkpt><trkpt lat="45.36269714453468" lon="10.66917134220222"><ele>130.0</ele><time>2026-03-30T11:33:35.999Z</time></trkpt><trkpt lat="45.36270061650407" lon="10.66898252890454"><ele>130.0</ele><time>2026-03-30T11:33:36.999Z</time></trkpt><trkpt lat="45.36269229760192" lon="10.668755071070358"><ele>130.0</ele><time>2026-03-30T11:33:37.999Z</time></trkpt><trkpt lat="45.36269421808856" lon="10.668530161937797"><ele>129.0</ele><time>2026-03-30T11:33:38.999Z</time></trkpt><trkpt lat="45.36269010180048" lon="10.66829448024546"><ele>128.0</ele><time>2026-03-30T11:33:39.999Z</time></trkpt><trkpt lat="45.36269527367068" lon="10.668034836909625"><ele>127.0</ele><time>2026-03-30T11:33:40.999Z</time></trkpt><trkpt lat="45.36269092304193" lon="10.667762059151192"><ele>127.0</ele><time>2026-03-30T11:33:41.999Z</time></trkpt><trkpt lat="45.362689357613405" lon="10.667476021598052"><ele>127.0</ele><time>2026-03-30T11:33:42.999Z</time></trkpt><trkpt lat="45.36269174526026" lon="10.667182786126938"><ele>127.0</ele><time>2026-03-30T11:33:43.999Z</time></trkpt><trkpt lat="45.36269157593014" lon="10.666885706468701"><ele>127.0</ele><time>2026-03-30T11:33:44.999Z</time></trkpt><trkpt lat="45.362711986444886" lon="10.666593393407364"><ele>127.0</ele><time>2026-03-30T11:33:45.999Z</time></trkpt><trkpt lat="45.362717753742416" lon="10.666314905031948"><ele>127.0</ele><time>2026-03-30T11:33:46.999Z</time></trkpt><trkpt lat="45.362723195502916" lon="10.666052136001454"><ele>127.0</ele><time>2026-03-30T11:33:47.999Z</time></trkpt><trkpt lat="45.36272735894071" lon="10.66581491816308"><ele>127.0</ele><time>2026-03-30T11:33:48.999Z</time></trkpt><trkpt lat="45.36273102162985" lon="10.665613240456207"><ele>127.0</ele><time>2026-03-30T11:33:49.999Z</time></trkpt><trkpt lat="45.362737152247284" lon="10.665435835262315"><ele>127.0</ele><time>2026-03-30T11:33:50.999Z</time></trkpt><trkpt lat="45.36274827567523" lon="10.665294243761267"><ele>127.66666666666667</ele><time>2026-03-30T11:33:51.999Z</time></trkpt><trkpt lat="45.362767162666735" lon="10.66519566532912"><ele>128.33333333333334</ele><time>2026-03-30T11:33:52.999Z</time></trkpt><trkpt lat="45.362858948670116" lon="10.66514281925845"><ele>129.0</ele><time>2026-03-30T11:33:54.999Z</time></trkpt><trkpt lat="45.36291987722607" lon="10.665106999532197"><ele>129.66666666666666</ele><time>2026-03-30T11:33:55.999Z</time></trkpt><trkpt lat="45.36295961820703" lon="10.665013253083446"><ele>130.33333333333331</ele><time>2026-03-30T11:33:56.999Z</time></trkpt><trkpt lat="45.362995222113554" lon="10.664925523260443"><ele>131.0</ele><time>2026-03-30T11:33:57.999Z</time></trkpt><trkpt lat="45.36305270219931" lon="10.66485189797147"><ele>132.4</ele><time>2026-03-30T11:33:58.999Z</time></trkpt><trkpt lat="45.363094621968024" lon="10.664772152293414"><ele>133.8</ele><time>2026-03-30T11:33:59.999Z</time></trkpt><trkpt lat="45.363139670156805" lon="10.6646125233113"><ele>135.20000000000002</ele><time>2026-03-30T11:34:01.999Z</time></trkpt><trkpt lat="45.3631778159115" lon="10.66452976570801"><ele>136.6</ele><time>2026-03-30T11:34:02.999Z</time></trkpt><trkpt lat="45.363139951365405" lon="10.664376900449158"><ele>138.0</ele><time>2026-03-30T11:34:03.999Z</time></trkpt><trkpt lat="45.36310215989932" lon="10.664217487612813"><ele>137.8</ele><time>2026-03-30T11:34:04.999Z</time></trkpt><trkpt lat="45.36307567277012" lon="10.664066232793218"><ele>137.60000000000002</ele><time>2026-03-30T11:34:05.999Z</time></trkpt><trkpt lat="45.36305743700563" lon="10.663932359529081"><ele>137.39999999999998</ele><time>2026-03-30T11:34:06.999Z</time></trkpt><trkpt lat="45.36304108634273" lon="10.66379897181566"><ele>137.2</ele><time>2026-03-30T11:34:07.999Z</time></trkpt><trkpt lat="45.36301987245235" lon="10.663669010460108"><ele>137.0</ele><time>2026-03-30T11:34:08.999Z</time></trkpt><trkpt lat="45.36297895790567" lon="10.663533458131447"><ele>136.4</ele><time>2026-03-30T11:34:09.999Z</time></trkpt><trkpt lat="45.36294235601482" lon="10.66338280156332"><ele>135.79999999999998</ele><time>2026-03-30T11:34:10.999Z</time></trkpt><trkpt lat="45.362906887785506" lon="10.663226716457272"><ele>135.2</ele><time>2026-03-30T11:34:11.999Z</time></trkpt><trkpt lat="45.36288639666934" lon="10.663079828972421"><ele>134.6</ele><time>2026-03-30T11:34:12.999Z</time></trkpt><trkpt lat="45.362899462281575" lon="10.662951954078936"><ele>134.0</ele><time>2026-03-30T11:34:13.999Z</time></trkpt><trkpt lat="45.362935872492386" lon="10.662798636712562"><ele>133.5</ele><time>2026-03-30T11:34:14.999Z</time></trkpt><trkpt lat="45.36293605422185" lon="10.662640964787562"><ele>133.0</ele><time>2026-03-30T11:34:15.999Z</time></trkpt><trkpt lat="45.362916508689516" lon="10.662463174824719"><ele>132.5</ele><time>2026-03-30T11:34:16.999Z</time></trkpt><trkpt lat="45.362886227954256" lon="10.66226054138197"><ele>132.0</ele><time>2026-03-30T11:34:17.999Z</time></trkpt><trkpt lat="45.36284565212285" lon="10.662020816046587"><ele>133.33333333333334</ele><time>2026-03-30T11:34:18.998Z</time></trkpt><trkpt lat="45.362802032356385" lon="10.661767694651326"><ele>134.66666666666669</ele><time>2026-03-30T11:34:19.998Z</time></trkpt><trkpt lat="45.36275554626363" lon="10.661520008192351"><ele>136.0</ele><time>2026-03-30T11:34:20.998Z</time></trkpt><trkpt lat="45.36269968241446" lon="10.661278828934746"><ele>136.66666666666669</ele><time>2026-03-30T11:34:21.998Z</time></trkpt><trkpt lat="45.36268213798062" lon="10.661052221975442"><ele>137.33333333333334</ele><time>2026-03-30T11:34:22.998Z</time></trkpt><trkpt lat="45.36263695415025" lon="10.6608427795037"><ele>138.0</ele><time>2026-03-30T11:34:23.998Z</time></trkpt><trkpt lat="45.362595864034674" lon="10.660625294690595"><ele>138.0</ele><time>2026-03-30T11:34:24.998Z</time></trkpt><trkpt lat="45.36253135686674" lon="10.660406678937424"><ele>138.0</ele><time>2026-03-30T11:34:25.998Z</time></trkpt><trkpt lat="45.36249136970661" lon="10.660203521157895"><ele>138.0</ele><time>2026-03-30T11:34:26.998Z</time></trkpt><trkpt lat="45.36245098809662" lon="10.660030908000074"><ele>138.0</ele><time>2026-03-30T11:34:27.998Z</time></trkpt><trkpt lat="45.3624155456438" lon="10.659873688627803"><ele>139.0</ele><time>2026-03-30T11:34:28.998Z</time></trkpt><trkpt lat="45.36238463927038" lon="10.659734281166562"><ele>140.0</ele><time>2026-03-30T11:34:29.998Z</time></trkpt><trkpt lat="45.36236551010596" lon="10.659622127012996"><ele>141.0</ele><time>2026-03-30T11:34:30.998Z</time></trkpt><trkpt lat="45.36235170442764" lon="10.659512004084954"><ele>142.0</ele><time>2026-03-30T11:34:31.998Z</time></trkpt><trkpt lat="45.362344888347955" lon="10.659411072939767"><ele>143.0</ele><time>2026-03-30T11:34:32.998Z</time></trkpt><trkpt lat="45.36234283336579" lon="10.6593033404724"><ele>144.0</ele><time>2026-03-30T11:34:35.998Z</time></trkpt><trkpt lat="45.362251087653114" lon="10.6592481691843"><ele>143.5</ele><time>2026-03-30T11:34:36.998Z</time></trkpt><trkpt lat="45.362169274861735" lon="10.65917660574412"><ele>143.0</ele><time>2026-03-30T11:34:37.998Z</time></trkpt><trkpt lat="45.36204788055133" lon="10.65909562398177"><ele>142.5</ele><time>2026-03-30T11:34:38.998Z</time></trkpt><trkpt lat="45.36191766435267" lon="10.659010589047236"><ele>142.0</ele><time>2026-03-30T11:34:39.998Z</time></trkpt><trkpt lat="45.36180942562527" lon="10.658920211481394"><ele>142.0</ele><time>2026-03-30T11:34:41Z</time></trkpt><trkpt lat="45.361723546559254" lon="10.658831985644909"><ele>142.0</ele><time>2026-03-30T11:34:42Z</time></trkpt><trkpt lat="45.36164548201272" lon="10.658766494476827"><ele>142.0</ele><time>2026-03-30T11:34:43Z</time></trkpt><trkpt lat="45.36159788389541" lon="10.65867882302584"><ele>142.0</ele><time>2026-03-30T11:34:44Z</time></trkpt><trkpt lat="45.36151470276501" lon="10.65864682518762"><ele>142.0</ele><time>2026-03-30T11:34:46Z</time></trkpt><trkpt lat="45.36148986587786" lon="10.658863889645826"><ele>142.0</ele><time>2026-03-30T11:34:54Z</time></trkpt><trkpt lat="45.361481005798744" lon="10.658973899643613"><ele>142.0</ele><time>2026-03-30T11:34:55Z</time></trkpt><trkpt lat="45.36146245715077" lon="10.659156065520142"><ele>142.0</ele><time>2026-03-30T11:34:57Z</time></trkpt><trkpt lat="45.36144910726078" lon="10.659246387240982"><ele>142.0</ele><time>2026-03-30T11:34:58Z</time></trkpt><trkpt lat="45.36143447627519" lon="10.659333620426839"><ele>142.0</ele><time>2026-03-30T11:34:59Z</time></trkpt><trkpt lat="45.361407622058145" lon="10.659451119164311"><ele>142.0</ele><time>2026-03-30T11:35:01Z</time></trkpt><trkpt lat="45.36135030792439" lon="10.659562598225184"><ele>140.0</ele><time>2026-03-30T11:35:03Z</time></trkpt><trkpt lat="45.361247978373555" lon="10.659641104346559"><ele>138.0</ele><time>2026-03-30T11:35:05Z</time></trkpt><trkpt lat="45.361176283832414" lon="10.659663131765752"><ele>136.0</ele><time>2026-03-30T11:35:06Z</time></trkpt><trkpt lat="45.36110712995743" lon="10.659670537216615"><ele>134.0</ele><time>2026-03-30T11:35:07Z</time></trkpt><trkpt lat="45.36103947168376" lon="10.659695514853508"><ele>132.0</ele><time>2026-03-30T11:35:08Z</time></trkpt><trkpt lat="45.360968453065034" lon="10.659738258988268"><ele>130.0</ele><time>2026-03-30T11:35:09Z</time></trkpt><trkpt lat="45.36089340864501" lon="10.659781318833776"><ele>130.00000000000003</ele><time>2026-03-30T11:35:10Z</time></trkpt><trkpt lat="45.36082558625148" lon="10.659804876195766"><ele>130.0</ele><time>2026-03-30T11:35:11Z</time></trkpt><trkpt lat="45.36075772422376" lon="10.659834649055712"><ele>130.0</ele><time>2026-03-30T11:35:12Z</time></trkpt><trkpt lat="45.36069570432492" lon="10.65986213108836"><ele>130.0</ele><time>2026-03-30T11:35:13Z</time></trkpt><trkpt lat="45.360629282811416" lon="10.659886803758116"><ele>130.0</ele><time>2026-03-30T11:35:14Z</time></trkpt><trkpt lat="45.36057149329625" lon="10.659923060377748"><ele>130.00000000000003</ele><time>2026-03-30T11:35:15Z</time></trkpt><trkpt lat="45.36049341612698" lon="10.659962475901592"><ele>130.0</ele><time>2026-03-30T11:35:16Z</time></trkpt><trkpt lat="45.36040827956665" lon="10.659979560062235"><ele>129.0</ele><time>2026-03-30T11:35:17Z</time></trkpt><trkpt lat="45.36030355876519" lon="10.660004053956268"><ele>128.0</ele><time>2026-03-30T11:35:17.999Z</time></trkpt><trkpt lat="45.36019933447936" lon="10.660029826351641"><ele>127.0</ele><time>2026-03-30T11:35:18.999Z</time></trkpt><trkpt lat="45.36009023896987" lon="10.660077499532193"><ele>126.0</ele><time>2026-03-30T11:35:19.999Z</time></trkpt><trkpt lat="45.359987253291955" lon="10.660109958665666"><ele>125.0</ele><time>2026-03-30T11:35:20.999Z</time></trkpt><trkpt lat="45.35988973618688" lon="10.660149139742407"><ele>125.0</ele><time>2026-03-30T11:35:21.999Z</time></trkpt><trkpt lat="45.35978518133399" lon="10.66021373429317"><ele>125.0</ele><time>2026-03-30T11:35:22.999Z</time></trkpt><trkpt lat="45.35968065026976" lon="10.660273122175674"><ele>125.0</ele><time>2026-03-30T11:35:23.999Z</time></trkpt><trkpt lat="45.35958022915137" lon="10.660321328654076"><ele>125.0</ele><time>2026-03-30T11:35:24.999Z</time></trkpt><trkpt lat="45.35949822868015" lon="10.660340993843226"><ele>125.0</ele><time>2026-03-30T11:35:25.999Z</time></trkpt><trkpt lat="45.35942385664969" lon="10.660353895983654"><ele>124.0</ele><time>2026-03-30T11:35:26.999Z</time></trkpt><trkpt lat="45.35933856415085" lon="10.660365217797324"><ele>123.0</ele><time>2026-03-30T11:35:27.999Z</time></trkpt><trkpt lat="45.35924254238482" lon="10.660376881533622"><ele>122.0</ele><time>2026-03-30T11:35:28.999Z</time></trkpt><trkpt lat="45.35920456439413" lon="10.660454081151052"><ele>121.0</ele><time>2026-03-30T11:35:41.999Z</time></trkpt><trkpt lat="45.359184187155925" lon="10.660574902089188"><ele>120.0</ele><time>2026-03-30T11:35:45.999Z</time></trkpt><trkpt lat="45.35913899080969" lon="10.66074496460254"><ele>120.0</ele><time>2026-03-30T11:35:47.999Z</time></trkpt><trkpt lat="45.359088746807394" lon="10.660865926437685"><ele>120.0</ele><time>2026-03-30T11:35:48.999Z</time></trkpt><trkpt lat="45.35902292086869" lon="10.6610375388102"><ele>120.0</ele><time>2026-03-30T11:35:49.999Z</time></trkpt><trkpt lat="45.35897205082162" lon="10.661202982599157"><ele>120.0</ele><time>2026-03-30T11:35:50.999Z</time></trkpt><trkpt lat="45.358934047759455" lon="10.661324170835947"><ele>119.8</ele><time>2026-03-30T11:35:51.999Z</time></trkpt><trkpt lat="45.358890647859724" lon="10.661456605769104"><ele>119.6</ele><time>2026-03-30T11:35:52.999Z</time></trkpt><trkpt lat="45.358837777373694" lon="10.661581852719184"><ele>119.4</ele><time>2026-03-30T11:35:53.999Z</time></trkpt><trkpt lat="45.35877403280611" lon="10.661688427567164"><ele>119.2</ele><time>2026-03-30T11:35:54.999Z</time></trkpt><trkpt lat="45.358695929535756" lon="10.661772889643007"><ele>119.0</ele><time>2026-03-30T11:35:55.999Z</time></trkpt><trkpt lat="45.35860514964006" lon="10.66185106850059"><ele>118.49999999999999</ele><time>2026-03-30T11:35:56.999Z</time></trkpt><trkpt lat="45.35852624275266" lon="10.6619239851481"><ele>118.0</ele><time>2026-03-30T11:35:57.999Z</time></trkpt><trkpt lat="45.358461110757304" lon="10.662000174098255"><ele>117.5</ele><time>2026-03-30T11:35:58.999Z</time></trkpt><trkpt lat="45.35840393928489" lon="10.662083441266562"><ele>117.0</ele><time>2026-03-30T11:35:59.999Z</time></trkpt><trkpt lat="45.35835036622396" lon="10.662151624451857"><ele>116.49999999999999</ele><time>2026-03-30T11:36:00.999Z</time></trkpt><trkpt lat="45.35827044536109" lon="10.662205699577324"><ele>116.0</ele><time>2026-03-30T11:36:01.999Z</time></trkpt><trkpt lat="45.35816684806424" lon="10.662236125047125"><ele>116.0</ele><time>2026-03-30T11:36:02.999Z</time></trkpt><trkpt lat="45.35803564086487" lon="10.662261544335834"><ele>116.0</ele><time>2026-03-30T11:36:03.999Z</time></trkpt><trkpt lat="45.35787893810428" lon="10.662282396582347"><ele>116.0</ele><time>2026-03-30T11:36:04.999Z</time></trkpt><trkpt lat="45.3577080792573" lon="10.662293180921354"><ele>115.25</ele><time>2026-03-30T11:36:05.999Z</time></trkpt><trkpt lat="45.357569695815826" lon="10.66230107339782"><ele>114.5</ele><time>2026-03-30T11:36:06.999Z</time></trkpt><trkpt lat="45.35742305074804" lon="10.662289515925764"><ele>113.75</ele><time>2026-03-30T11:36:07.999Z</time></trkpt><trkpt lat="45.3572718496588" lon="10.662272686747349"><ele>113.0</ele><time>2026-03-30T11:36:08.999Z</time></trkpt><trkpt lat="45.357116749624055" lon="10.662232371243892"><ele>112.0</ele><time>2026-03-30T11:36:09.999Z</time></trkpt><trkpt lat="45.356948774571954" lon="10.662219765064226"><ele>111.0</ele><time>2026-03-30T11:36:10.999Z</time></trkpt><trkpt lat="45.35679453810064" lon="10.66222359147375"><ele>110.0</ele><time>2026-03-30T11:36:11.999Z</time></trkpt><trkpt lat="45.356638630523335" lon="10.66221879823284"><ele>110.0</ele><time>2026-03-30T11:36:12.999Z</time></trkpt><trkpt lat="45.356516322887" lon="10.662195977768178"><ele>110.0</ele><time>2026-03-30T11:36:13.999Z</time></trkpt><trkpt lat="45.35641288541155" lon="10.662173772785788"><ele>110.0</ele><time>2026-03-30T11:36:14.999Z</time></trkpt><trkpt lat="45.356330609334705" lon="10.662150858122716"><ele>110.0</ele><time>2026-03-30T11:36:15.999Z</time></trkpt><trkpt lat="45.356267317306425" lon="10.662128055259055"><ele>110.0</ele><time>2026-03-30T11:36:16.999Z</time></trkpt><trkpt lat="45.35619206743424" lon="10.662095672228274"><ele>109.75</ele><time>2026-03-30T11:36:18.999Z</time></trkpt><trkpt lat="45.35610733105614" lon="10.662165407037337"><ele>109.5</ele><time>2026-03-30T11:36:25.998Z</time></trkpt><trkpt lat="45.35607850358467" lon="10.662315939984067"><ele>109.25</ele><time>2026-03-30T11:36:26.998Z</time></trkpt><trkpt lat="45.356050688882824" lon="10.662480561539427"><ele>109.0</ele><time>2026-03-30T11:36:27.998Z</time></trkpt><trkpt lat="45.3560299889842" lon="10.662685055731835"><ele>109.33333333333334</ele><time>2026-03-30T11:36:28.998Z</time></trkpt><trkpt lat="45.3559880888736" lon="10.662940824043831"><ele>109.66666666666666</ele><time>2026-03-30T11:36:29.998Z</time></trkpt><trkpt lat="45.355948474130095" lon="10.663213086132533"><ele>110.0</ele><time>2026-03-30T11:36:30.998Z</time></trkpt><trkpt lat="45.355914958177436" lon="10.663437656097043"><ele>110.0</ele><time>2026-03-30T11:36:31.998Z</time></trkpt><trkpt lat="45.355884961904124" lon="10.663639100500252"><ele>110.0</ele><time>2026-03-30T11:36:32.998Z</time></trkpt><trkpt lat="45.355859820549114" lon="10.663823976710471"><ele>110.0</ele><time>2026-03-30T11:36:33.998Z</time></trkpt><trkpt lat="45.35583366585762" lon="10.66399543731702"><ele>110.0</ele><time>2026-03-30T11:36:34.998Z</time></trkpt><trkpt lat="45.35580979246953" lon="10.664155826161863"><ele>110.0</ele><time>2026-03-30T11:36:35.998Z</time></trkpt><trkpt lat="45.355784764658246" lon="10.664320323193662"><ele>110.0</ele><time>2026-03-30T11:36:36.998Z</time></trkpt><trkpt lat="45.3557633200313" lon="10.664495969363566"><ele>110.0</ele><time>2026-03-30T11:36:37.998Z</time></trkpt><trkpt lat="45.35573831268962" lon="10.664689941609964"><ele>110.0</ele><time>2026-03-30T11:36:38.998Z</time></trkpt><trkpt lat="45.35571128794664" lon="10.664884122940087"><ele>110.0</ele><time>2026-03-30T11:36:39.998Z</time></trkpt><trkpt lat="45.35568433669931" lon="10.66507719530561"><ele>110.0</ele><time>2026-03-30T11:36:40.998Z</time></trkpt><trkpt lat="45.3556553011462" lon="10.6652742454402"><ele>110.0</ele><time>2026-03-30T11:36:41.998Z</time></trkpt><trkpt lat="45.355630561479984" lon="10.665456697113617"><ele>110.0</ele><time>2026-03-30T11:36:42.998Z</time></trkpt><trkpt lat="45.35561381428949" lon="10.665614350538023"><ele>110.4</ele><time>2026-03-30T11:36:43.998Z</time></trkpt><trkpt lat="45.355606626793865" lon="10.665730346489815"><ele>110.8</ele><time>2026-03-30T11:36:44.998Z</time></trkpt><trkpt lat="45.35558240472022" lon="10.665845760187475"><ele>111.19999999999999</ele><time>2026-03-30T11:36:47Z</time></trkpt><trkpt lat="45.355749848724415" lon="10.66585770977016"><ele>111.6</ele><time>2026-03-30T11:36:51Z</time></trkpt><trkpt lat="45.35569649177157" lon="10.665805881539127"><ele>112.0</ele><time>2026-03-30T11:36:59Z</time></trkpt><trkpt lat="45.35563362812469" lon="10.665821691656184"><ele>112.0</ele><time>2026-03-30T11:37:03Z</time></trkpt><trkpt lat="45.35563455697422" lon="10.66560764896244"><ele>112.0</ele><time>2026-03-30T11:37:06Z</time></trkpt><trkpt lat="45.35567670360123" lon="10.66545368378055"><ele>112.0</ele><time>2026-03-30T11:37:07Z</time></trkpt><trkpt lat="45.3557049752061" lon="10.665281982175783"><ele>112.0</ele><time>2026-03-30T11:37:08Z</time></trkpt><trkpt lat="45.35573214268072" lon="10.665076819842428"><ele>111.33333333333334</ele><time>2026-03-30T11:37:09Z</time></trkpt><trkpt lat="45.355759865091926" lon="10.66484142401208"><ele>110.66666666666666</ele><time>2026-03-30T11:37:10Z</time></trkpt><trkpt lat="45.35579237579404" lon="10.664592437580707"><ele>110.0</ele><time>2026-03-30T11:37:11Z</time></trkpt><trkpt lat="45.3558336936302" lon="10.66433234501112"><ele>110.0</ele><time>2026-03-30T11:37:12Z</time></trkpt><trkpt lat="45.355876461621904" lon="10.664020068845222"><ele>110.0</ele><time>2026-03-30T11:37:13Z</time></trkpt><trkpt lat="45.355924927613785" lon="10.663687564192807"><ele>110.0</ele><time>2026-03-30T11:37:14Z</time></trkpt><trkpt lat="45.35597164461115" lon="10.663366068932614"><ele>110.0</ele><time>2026-03-30T11:37:15Z</time></trkpt><trkpt lat="45.35601600826096" lon="10.66304878966788"><ele>109.66666666666666</ele><time>2026-03-30T11:37:16Z</time></trkpt><trkpt lat="45.35605920801903" lon="10.662739410297336"><ele>109.33333333333334</ele><time>2026-03-30T11:37:17Z</time></trkpt><trkpt lat="45.35610251395034" lon="10.662437383470403"><ele>109.0</ele><time>2026-03-30T11:37:18Z</time></trkpt><trkpt lat="45.356143341536864" lon="10.66214225549252"><ele>109.0</ele><time>2026-03-30T11:37:19Z</time></trkpt><trkpt lat="45.35618582722983" lon="10.66184209268996"><ele>109.0</ele><time>2026-03-30T11:37:20Z</time></trkpt><trkpt lat="45.35622732391096" lon="10.661537709151853"><ele>109.0</ele><time>2026-03-30T11:37:21Z</time></trkpt><trkpt lat="45.35626968635089" lon="10.66125308106312"><ele>108.66666666666667</ele><time>2026-03-30T11:37:22Z</time></trkpt><trkpt lat="45.35630534647696" lon="10.660982971055486"><ele>108.33333333333334</ele><time>2026-03-30T11:37:23Z</time></trkpt><trkpt lat="45.3563407317396" lon="10.660731011382774"><ele>108.0</ele><time>2026-03-30T11:37:24Z</time></trkpt><trkpt lat="45.356376100031795" lon="10.660473650633623"><ele>109.66666666666666</ele><time>2026-03-30T11:37:25Z</time></trkpt><trkpt lat="45.35641540026712" lon="10.660215761816854"><ele>111.33333333333333</ele><time>2026-03-30T11:37:26Z</time></trkpt><trkpt lat="45.35645571336016" lon="10.659956893814964"><ele>113.0</ele><time>2026-03-30T11:37:27Z</time></trkpt><trkpt lat="45.356489688046075" lon="10.659711197909019"><ele>113.0</ele><time>2026-03-30T11:37:27.999Z</time></trkpt><trkpt lat="45.35652502704403" lon="10.659468178200338"><ele>113.0</ele><time>2026-03-30T11:37:28.999Z</time></trkpt><trkpt lat="45.35655871861932" lon="10.659221634063535"><ele>113.0</ele><time>2026-03-30T11:37:29.999Z</time></trkpt><trkpt lat="45.35659213202117" lon="10.658973510446343"><ele>113.0</ele><time>2026-03-30T11:37:30.999Z</time></trkpt><trkpt lat="45.356626023378205" lon="10.658721367943274"><ele>113.0</ele><time>2026-03-30T11:37:31.999Z</time></trkpt><trkpt lat="45.356661551903585" lon="10.658454896585887"><ele>113.0</ele><time>2026-03-30T11:37:32.999Z</time></trkpt><trkpt lat="45.356699535010186" lon="10.658185192471652"><ele>112.33333333333333</ele><time>2026-03-30T11:37:33.999Z</time></trkpt><trkpt lat="45.35673696269289" lon="10.65791009548274"><ele>111.66666666666666</ele><time>2026-03-30T11:37:34.999Z</time></trkpt><trkpt lat="45.3567804024251" lon="10.657638212970642"><ele>111.0</ele><time>2026-03-30T11:37:35.999Z</time></trkpt><trkpt lat="45.35682226142972" lon="10.65736958720769"><ele>111.0</ele><time>2026-03-30T11:37:36.999Z</time></trkpt><trkpt lat="45.356859063272005" lon="10.657115466176466"><ele>111.0</ele><time>2026-03-30T11:37:37.999Z</time></trkpt><trkpt lat="45.356896119882826" lon="10.656857545024812"><ele>111.0</ele><time>2026-03-30T11:37:38.999Z</time></trkpt><trkpt lat="45.35693213504515" lon="10.656605421366052"><ele>111.0</ele><time>2026-03-30T11:37:39.999Z</time></trkpt><trkpt lat="45.35697007968091" lon="10.656366569673303"><ele>111.0</ele><time>2026-03-30T11:37:40.999Z</time></trkpt><trkpt lat="45.35699783568826" lon="10.656131477554203"><ele>111.0</ele><time>2026-03-30T11:37:41.999Z</time></trkpt><trkpt lat="45.357014646180644" lon="10.655897168649819"><ele>110.66666666666666</ele><time>2026-03-30T11:37:42.999Z</time></trkpt><trkpt lat="45.35702619874545" lon="10.65566092625291"><ele>110.33333333333333</ele><time>2026-03-30T11:37:43.999Z</time></trkpt><trkpt lat="45.35703220761245" lon="10.655434163490193"><ele>110.0</ele><time>2026-03-30T11:37:44.999Z</time></trkpt><trkpt lat="45.35703254590372" lon="10.655223739581796"><ele>110.0</ele><time>2026-03-30T11:37:45.999Z</time></trkpt><trkpt lat="45.357024628525146" lon="10.655021369261238"><ele>110.0</ele><time>2026-03-30T11:37:46.999Z</time></trkpt><trkpt lat="45.35701443526991" lon="10.654834669415544"><ele>110.0</ele><time>2026-03-30T11:37:47.999Z</time></trkpt><trkpt lat="45.3570058181818" lon="10.654655026244255"><ele>110.0</ele><time>2026-03-30T11:37:48.999Z</time></trkpt><trkpt lat="45.356997547199796" lon="10.65449007009595"><ele>108.75</ele><time>2026-03-30T11:37:49.999Z</time></trkpt><trkpt lat="45.35698541026923" lon="10.6543447038501"><ele>107.5</ele><time>2026-03-30T11:37:50.999Z</time></trkpt><trkpt lat="45.35697710216219" lon="10.654232761414088"><ele>106.25</ele><time>2026-03-30T11:37:51.999Z</time></trkpt><trkpt lat="45.35698632397082" lon="10.654140213075648"><ele>105.0</ele><time>2026-03-30T11:37:52.999Z</time></trkpt><trkpt lat="45.356514669907384" lon="10.654222834406715"><ele>105.0</ele><time>2026-03-30T11:37:57.999Z</time></trkpt><trkpt lat="45.356394958052" lon="10.654275367802732"><ele>105.0</ele><time>2026-03-30T11:37:58.999Z</time></trkpt><trkpt lat="45.35628838654801" lon="10.654335962809393"><ele>105.0</ele><time>2026-03-30T11:37:59.999Z</time></trkpt><trkpt lat="45.3562021661657" lon="10.654391112349177"><ele>105.0</ele><time>2026-03-30T11:38:00.999Z</time></trkpt><trkpt lat="45.356135605422864" lon="10.654450588698696"><ele>105.0</ele><time>2026-03-30T11:38:01.999Z</time></trkpt><trkpt lat="45.35607586056768" lon="10.654516383599686"><ele>105.33333333333333</ele><time>2026-03-30T11:38:02.999Z</time></trkpt><trkpt lat="45.3560351778617" lon="10.654600308936777"><ele>105.66666666666666</ele><time>2026-03-30T11:38:03.999Z</time></trkpt><trkpt lat="45.35601983810768" lon="10.654692987195716"><ele>106.0</ele><time>2026-03-30T11:38:04.999Z</time></trkpt><trkpt lat="45.35597833870764" lon="10.65480922445507"><ele>106.33333333333333</ele><time>2026-03-30T11:38:05.999Z</time></trkpt><trkpt lat="45.355921592485466" lon="10.654872284138737"><ele>106.66666666666666</ele><time>2026-03-30T11:38:06.999Z</time></trkpt><trkpt lat="45.355813552506795" lon="10.654946556596782"><ele>107.0</ele><time>2026-03-30T11:38:07.999Z</time></trkpt><trkpt lat="45.35570957446951" lon="10.655018635420888"><ele>107.0</ele><time>2026-03-30T11:38:08.999Z</time></trkpt><trkpt lat="45.35559698639042" lon="10.655081942519166"><ele>107.0</ele><time>2026-03-30T11:38:09.999Z</time></trkpt><trkpt lat="45.355466693057075" lon="10.655146511987425"><ele>107.0</ele><time>2026-03-30T11:38:10.999Z</time></trkpt><trkpt lat="45.35534686564002" lon="10.655211898127824"><ele>107.0</ele><time>2026-03-30T11:38:11.999Z</time></trkpt><trkpt lat="45.35524865147083" lon="10.655265297673981"><ele>106.8</ele><time>2026-03-30T11:38:12.999Z</time></trkpt><trkpt lat="45.35515414401431" lon="10.655306146234498"><ele>106.6</ele><time>2026-03-30T11:38:13.999Z</time></trkpt><trkpt lat="45.355065493886265" lon="10.655313423210137"><ele>106.39999999999999</ele><time>2026-03-30T11:38:14.999Z</time></trkpt><trkpt lat="45.35496515109463" lon="10.655267952958592"><ele>106.19999999999999</ele><time>2026-03-30T11:38:15.999Z</time></trkpt><trkpt lat="45.354837764308904" lon="10.655254753296983"><ele>106.0</ele><time>2026-03-30T11:38:16.999Z</time></trkpt><trkpt lat="45.35469934530116" lon="10.655265566408334"><ele>105.8</ele><time>2026-03-30T11:38:17.999Z</time></trkpt><trkpt lat="45.35458542077646" lon="10.655273987194187"><ele>105.6</ele><time>2026-03-30T11:38:18.999Z</time></trkpt><trkpt lat="45.35448554404468" lon="10.655290254653384"><ele>105.4</ele><time>2026-03-30T11:38:19.999Z</time></trkpt><trkpt lat="45.35441206628708" lon="10.655326996756811"><ele>105.2</ele><time>2026-03-30T11:38:20.999Z</time></trkpt><trkpt lat="45.354306571918" lon="10.655402543716189"><ele>105.0</ele><time>2026-03-30T11:38:21.999Z</time></trkpt><trkpt lat="45.35420956157657" lon="10.655441020448627"><ele>105.0</ele><time>2026-03-30T11:38:22.999Z</time></trkpt><trkpt lat="45.35411652835201" lon="10.655465415104631"><ele>105.0</ele><time>2026-03-30T11:38:23.999Z</time></trkpt><trkpt lat="45.354028382610444" lon="10.65550162065572"><ele>105.0</ele><time>2026-03-30T11:38:24.999Z</time></trkpt><trkpt lat="45.353949937473885" lon="10.655504192798231"><ele>105.0</ele><time>2026-03-30T11:38:25.999Z</time></trkpt><trkpt lat="45.35387054881121" lon="10.655489884602346"><ele>105.0</ele><time>2026-03-30T11:38:26.999Z</time></trkpt><trkpt lat="45.353782877886694" lon="10.655466914974419"><ele>105.0</ele><time>2026-03-30T11:38:27.999Z</time></trkpt><trkpt lat="45.35368307877707" lon="10.65539093667597"><ele>105.25</ele><time>2026-03-30T11:38:28.999Z</time></trkpt><trkpt lat="45.35354473385672" lon="10.65531840191707"><ele>105.5</ele><time>2026-03-30T11:38:29.999Z</time></trkpt><trkpt lat="45.35341459115789" lon="10.655239160059953"><ele>105.75</ele><time>2026-03-30T11:38:30.999Z</time></trkpt><trkpt lat="45.35330567472747" lon="10.65518152257826"><ele>106.0</ele><time>2026-03-30T11:38:31.999Z</time></trkpt><trkpt lat="45.353201837145754" lon="10.65512222422791"><ele>105.5</ele><time>2026-03-30T11:38:32.999Z</time></trkpt><trkpt lat="45.35310106089742" lon="10.655066079256674"><ele>105.0</ele><time>2026-03-30T11:38:33.999Z</time></trkpt><trkpt lat="45.35299306224483" lon="10.65502014388597"><ele>104.5</ele><time>2026-03-30T11:38:34.999Z</time></trkpt><trkpt lat="45.352881792297026" lon="10.654999134731678"><ele>104.0</ele><time>2026-03-30T11:38:35.998Z</time></trkpt><trkpt lat="45.35275014260741" lon="10.654984973169775"><ele>104.0</ele><time>2026-03-30T11:38:36.998Z</time></trkpt><trkpt lat="45.35261603894344" lon="10.654973164482728"><ele>104.0</ele><time>2026-03-30T11:38:37.998Z</time></trkpt><trkpt lat="45.35248860563912" lon="10.65497284565176"><ele>104.0</ele><time>2026-03-30T11:38:38.998Z</time></trkpt><trkpt lat="45.35235795439216" lon="10.654978402424828"><ele>104.0</ele><time>2026-03-30T11:38:39.998Z</time></trkpt><trkpt lat="45.35222222701884" lon="10.654985542496634"><ele>103.0</ele><time>2026-03-30T11:38:40.998Z</time></trkpt><trkpt lat="45.35208445673276" lon="10.655005935375055"><ele>102.0</ele><time>2026-03-30T11:38:41.998Z</time></trkpt><trkpt lat="45.351931403788726" lon="10.655020503787394"><ele>101.0</ele><time>2026-03-30T11:38:42.998Z</time></trkpt><trkpt lat="45.35177598374035" lon="10.654978413668408"><ele>101.0</ele><time>2026-03-30T11:38:43.998Z</time></trkpt><trkpt lat="45.35164511639153" lon="10.654948534659352"><ele>101.0</ele><time>2026-03-30T11:38:44.998Z</time></trkpt><trkpt lat="45.35154334624892" lon="10.654936535323703"><ele>101.0</ele><time>2026-03-30T11:38:45.998Z</time></trkpt><trkpt lat="45.35145709473195" lon="10.654930258822075"><ele>101.0</ele><time>2026-03-30T11:38:46.998Z</time></trkpt><trkpt lat="45.351390038776884" lon="10.654925505710017"><ele>101.0</ele><time>2026-03-30T11:38:47.998Z</time></trkpt><trkpt lat="45.35130337594284" lon="10.654918619609557"><ele>100.4</ele><time>2026-03-30T11:38:49.998Z</time></trkpt><trkpt lat="45.35129207024833" lon="10.654728291193223"><ele>99.8</ele><time>2026-03-30T11:38:54Z</time></trkpt><trkpt lat="45.351339542123235" lon="10.6545721691015"><ele>99.2</ele><time>2026-03-30T11:38:55Z</time></trkpt><trkpt lat="45.35135989309255" lon="10.654438568464021"><ele>98.60000000000001</ele><time>2026-03-30T11:38:56Z</time></trkpt><trkpt lat="45.351354054085725" lon="10.654311223873458"><ele>98.0</ele><time>2026-03-30T11:38:57Z</time></trkpt><trkpt lat="45.351322591202624" lon="10.65419452213881"><ele>97.75</ele><time>2026-03-30T11:38:58Z</time></trkpt><trkpt lat="45.351262965367034" lon="10.654050443295986"><ele>97.5</ele><time>2026-03-30T11:38:59Z</time></trkpt><trkpt lat="45.35119281554371" lon="10.653878259496965"><ele>97.25</ele><time>2026-03-30T11:39:00Z</time></trkpt><trkpt lat="45.35110861221066" lon="10.65369309361646"><ele>97.0</ele><time>2026-03-30T11:39:01Z</time></trkpt><trkpt lat="45.351006821256824" lon="10.6535049474228"><ele>97.75</ele><time>2026-03-30T11:39:02Z</time></trkpt><trkpt lat="45.35093445766619" lon="10.653344580198889"><ele>98.5</ele><time>2026-03-30T11:39:03Z</time></trkpt><trkpt lat="45.35090652900312" lon="10.653161333280273"><ele>99.25</ele><time>2026-03-30T11:39:04Z</time></trkpt><trkpt lat="45.350871467141616" lon="10.653011016412052"><ele>100.0</ele><time>2026-03-30T11:39:05Z</time></trkpt><trkpt lat="45.350850485543845" lon="10.65285648735714"><ele>100.25</ele><time>2026-03-30T11:39:06Z</time></trkpt><trkpt lat="45.35084431124115" lon="10.652679816518942"><ele>100.5</ele><time>2026-03-30T11:39:07Z</time></trkpt><trkpt lat="45.350841947210085" lon="10.652477714699748"><ele>100.75</ele><time>2026-03-30T11:39:08Z</time></trkpt><trkpt lat="45.35084560624733" lon="10.652236885080429"><ele>101.0</ele><time>2026-03-30T11:39:09Z</time></trkpt><trkpt lat="45.35085281460346" lon="10.652006390266354"><ele>101.33333333333333</ele><time>2026-03-30T11:39:10Z</time></trkpt><trkpt lat="45.35086329456772" lon="10.651784924243742"><ele>101.66666666666666</ele><time>2026-03-30T11:39:11Z</time></trkpt><trkpt lat="45.35087626258779" lon="10.651567837542128"><ele>102.0</ele><time>2026-03-30T11:39:12Z</time></trkpt><trkpt lat="45.35088857965064" lon="10.65136696732673"><ele>102.0</ele><time>2026-03-30T11:39:13Z</time></trkpt><trkpt lat="45.35090304050306" lon="10.651146709296738"><ele>102.0</ele><time>2026-03-30T11:39:14Z</time></trkpt><trkpt lat="45.35090097990432" lon="10.650945159379551"><ele>102.0</ele><time>2026-03-30T11:39:15Z</time></trkpt><trkpt lat="45.350869254009915" lon="10.650782130066466"><ele>102.0</ele><time>2026-03-30T11:39:16Z</time></trkpt><trkpt lat="45.35084922459527" lon="10.65062481780154"><ele>102.0</ele><time>2026-03-30T11:39:17Z</time></trkpt><trkpt lat="45.350825528876946" lon="10.650481375547852"><ele>102.0</ele><time>2026-03-30T11:39:18Z</time></trkpt><trkpt lat="45.35083409691481" lon="10.650348404700885"><ele>102.0</ele><time>2026-03-30T11:39:19Z</time></trkpt><trkpt lat="45.35085216519944" lon="10.650213865607043"><ele>102.0</ele><time>2026-03-30T11:39:20Z</time></trkpt><trkpt lat="45.35089911302805" lon="10.650046824870259"><ele>102.0</ele><time>2026-03-30T11:39:21Z</time></trkpt><trkpt lat="45.350956557375135" lon="10.6498665757658"><ele>102.25</ele><time>2026-03-30T11:39:22Z</time></trkpt><trkpt lat="45.35101887319455" lon="10.649684030426746"><ele>102.5</ele><time>2026-03-30T11:39:23Z</time></trkpt><trkpt lat="45.35108093718023" lon="10.649519708226874"><ele>102.75</ele><time>2026-03-30T11:39:24Z</time></trkpt><trkpt lat="45.351137450277115" lon="10.649390802496276"><ele>103.0</ele><time>2026-03-30T11:39:25Z</time></trkpt><trkpt lat="45.351210300903574" lon="10.649260855799236"><ele>103.66666666666667</ele><time>2026-03-30T11:39:26Z</time></trkpt><trkpt lat="45.35126151504743" lon="10.649066114024844"><ele>104.33333333333334</ele><time>2026-03-30T11:39:27Z</time></trkpt><trkpt lat="45.35131496407895" lon="10.648855842660545"><ele>105.0</ele><time>2026-03-30T11:39:28Z</time></trkpt><trkpt lat="45.35138065258931" lon="10.648631977975883"><ele>105.33333333333334</ele><time>2026-03-30T11:39:29Z</time></trkpt><trkpt lat="45.351444125903235" lon="10.648395434532617"><ele>105.66666666666667</ele><time>2026-03-30T11:39:30Z</time></trkpt><trkpt lat="45.35149610010771" lon="10.648200023893972"><ele>106.0</ele><time>2026-03-30T11:39:31Z</time></trkpt><trkpt lat="45.35154015882319" lon="10.648003592858231"><ele>106.0</ele><time>2026-03-30T11:39:32Z</time></trkpt><trkpt lat="45.35158308531441" lon="10.647797249515854"><ele>106.0</ele><time>2026-03-30T11:39:33Z</time></trkpt><trkpt lat="45.35160872591236" lon="10.647609333949449"><ele>106.0</ele><time>2026-03-30T11:39:33.999Z</time></trkpt><trkpt lat="45.35163735875532" lon="10.647453383735712"><ele>106.0</ele><time>2026-03-30T11:39:34.999Z</time></trkpt><trkpt lat="45.35167622110737" lon="10.64729104578952"><ele>106.19999999999999</ele><time>2026-03-30T11:39:35.999Z</time></trkpt><trkpt lat="45.351693566237586" lon="10.647117401714876"><ele>106.39999999999999</ele><time>2026-03-30T11:39:36.999Z</time></trkpt><trkpt lat="45.351724723711484" lon="10.646967482678502"><ele>106.6</ele><time>2026-03-30T11:39:37.999Z</time></trkpt><trkpt lat="45.3517451692027" lon="10.646841209845611"><ele>106.8</ele><time>2026-03-30T11:39:38.999Z</time></trkpt><trkpt lat="45.35176312019514" lon="10.646730343246833"><ele>107.0</ele><time>2026-03-30T11:39:39.999Z</time></trkpt><trkpt lat="45.35176638250738" lon="10.64662019144198"><ele>107.33333333333333</ele><time>2026-03-30T11:39:40.999Z</time></trkpt><trkpt lat="45.35179605657539" lon="10.64651574782013"><ele>107.66666666666666</ele><time>2026-03-30T11:39:41.999Z</time></trkpt><trkpt lat="45.351813406253605" lon="10.646387667575107"><ele>108.0</ele><time>2026-03-30T11:39:42.999Z</time></trkpt><trkpt lat="45.35183256793372" lon="10.646299089201447"><ele>108.33333333333334</ele><time>2026-03-30T11:39:43.999Z</time></trkpt><trkpt lat="45.35185446283559" lon="10.646159345592409"><ele>108.66666666666667</ele><time>2026-03-30T11:39:44.999Z</time></trkpt><trkpt lat="45.35187849931662" lon="10.646013204322802"><ele>109.0</ele><time>2026-03-30T11:39:45.999Z</time></trkpt><trkpt lat="45.35189309436215" lon="10.645853515223436"><ele>109.00000000000001</ele><time>2026-03-30T11:39:47.999Z</time></trkpt><trkpt lat="45.35181339049776" lon="10.64581778124851"><ele>109.0</ele><time>2026-03-30T11:39:56.999Z</time></trkpt><trkpt lat="45.35173708448595" lon="10.645880374907836"><ele>109.0</ele><time>2026-03-30T11:39:57.999Z</time></trkpt><trkpt lat="45.35166618207008" lon="10.645865120518962"><ele>109.0</ele><time>2026-03-30T11:39:58.999Z</time></trkpt><trkpt lat="45.35161066926335" lon="10.645812593861736"><ele>109.00000000000001</ele><time>2026-03-30T11:39:59.999Z</time></trkpt><trkpt lat="45.35158961703951" lon="10.645718721202542"><ele>109.0</ele><time>2026-03-30T11:40:00.999Z</time></trkpt><trkpt lat="45.35160087610332" lon="10.645599101814721"><ele>109.0</ele><time>2026-03-30T11:40:01.999Z</time></trkpt><trkpt lat="45.351640980562145" lon="10.64544957716946"><ele>109.0</ele><time>2026-03-30T11:40:02.999Z</time></trkpt><trkpt lat="45.35171252360744" lon="10.645249024667626"><ele>109.0</ele><time>2026-03-30T11:40:03.999Z</time></trkpt><trkpt lat="45.35181508748112" lon="10.645006921981057"><ele>109.33333333333334</ele><time>2026-03-30T11:40:04.999Z</time></trkpt><trkpt lat="45.35194763612869" lon="10.644776804431665"><ele>109.66666666666666</ele><time>2026-03-30T11:40:05.999Z</time></trkpt><trkpt lat="45.35207845266039" lon="10.644591538866381"><ele>110.0</ele><time>2026-03-30T11:40:06.999Z</time></trkpt><trkpt lat="45.3521666738915" lon="10.644462588502138"><ele>110.2</ele><time>2026-03-30T11:40:07.999Z</time></trkpt><trkpt lat="45.35222592191318" lon="10.644369881882485"><ele>110.4</ele><time>2026-03-30T11:40:08.999Z</time></trkpt><trkpt lat="45.35225627108311" lon="10.644274109542415"><ele>110.6</ele><time>2026-03-30T11:40:10.999Z</time></trkpt><trkpt lat="45.352154929164406" lon="10.64422731460622"><ele>110.8</ele><time>2026-03-30T11:40:12.999Z</time></trkpt><trkpt lat="45.352075220813575" lon="10.644203146785692"><ele>111.0</ele><time>2026-03-30T11:40:13.999Z</time></trkpt><trkpt lat="45.351974460429005" lon="10.644155118744258"><ele>111.0</ele><time>2026-03-30T11:40:14.999Z</time></trkpt><trkpt lat="45.351858022056014" lon="10.644073344933643"><ele>111.0</ele><time>2026-03-30T11:40:15.999Z</time></trkpt><trkpt lat="45.35172095172639" lon="10.643985396860945"><ele>111.0</ele><time>2026-03-30T11:40:16.999Z</time></trkpt><trkpt lat="45.35160055730556" lon="10.643882895466252"><ele>111.0</ele><time>2026-03-30T11:40:17.999Z</time></trkpt><trkpt lat="45.35147331011917" lon="10.64377166804881"><ele>110.0</ele><time>2026-03-30T11:40:18.999Z</time></trkpt><trkpt lat="45.35133995531977" lon="10.643662553924054"><ele>109.0</ele><time>2026-03-30T11:40:19.999Z</time></trkpt><trkpt lat="45.35118308845567" lon="10.643561651839313"><ele>108.0</ele><time>2026-03-30T11:40:20.999Z</time></trkpt><trkpt lat="45.35102051432377" lon="10.643477972399499"><ele>108.0</ele><time>2026-03-30T11:40:21.999Z</time></trkpt><trkpt lat="45.35088570433388" lon="10.643394188489733"><ele>108.0</ele><time>2026-03-30T11:40:22.999Z</time></trkpt><trkpt lat="45.35071111503617" lon="10.643275622594121"><ele>108.0</ele><time>2026-03-30T11:40:23.999Z</time></trkpt><trkpt lat="45.35054803925178" lon="10.643142864061659"><ele>107.66666666666666</ele><time>2026-03-30T11:40:24.999Z</time></trkpt><trkpt lat="45.35038755037149" lon="10.643013337224797"><ele>107.33333333333333</ele><time>2026-03-30T11:40:25.999Z</time></trkpt><trkpt lat="45.350229991825756" lon="10.64301109811461"><ele>107.0</ele><time>2026-03-30T11:40:26.999Z</time></trkpt><trkpt lat="45.35008413174328" lon="10.642951462290435"><ele>107.0</ele><time>2026-03-30T11:40:27.999Z</time></trkpt><trkpt lat="45.349958083427246" lon="10.642898857611625"><ele>107.0</ele><time>2026-03-30T11:40:28.999Z</time></trkpt><trkpt lat="45.34984271710464" lon="10.642846967443383"><ele>107.0</ele><time>2026-03-30T11:40:29.999Z</time></trkpt><trkpt lat="45.34972663531939" lon="10.642793255683342"><ele>107.0</ele><time>2026-03-30T11:40:30.999Z</time></trkpt><trkpt lat="45.34960803040222" lon="10.642749453184576"><ele>106.5</ele><time>2026-03-30T11:40:31.999Z</time></trkpt><trkpt lat="45.34948249192636" lon="10.6427123933501"><ele>106.0</ele><time>2026-03-30T11:40:32.999Z</time></trkpt><trkpt lat="45.349343127770155" lon="10.642677132467988"><ele>105.5</ele><time>2026-03-30T11:40:33.999Z</time></trkpt><trkpt lat="45.349207112408074" lon="10.642634732585366"><ele>105.0</ele><time>2026-03-30T11:40:34.999Z</time></trkpt><trkpt lat="45.34906506846672" lon="10.642589680399643"><ele>105.0</ele><time>2026-03-30T11:40:35.999Z</time></trkpt><trkpt lat="45.348925551073606" lon="10.642549186211662"><ele>105.0</ele><time>2026-03-30T11:40:36.999Z</time></trkpt><trkpt lat="45.34882245421539" lon="10.642514353850114"><ele>105.0</ele><time>2026-03-30T11:40:37.999Z</time></trkpt><trkpt lat="45.34874466964544" lon="10.642484467857946"><ele>105.0</ele><time>2026-03-30T11:40:38.999Z</time></trkpt><trkpt lat="45.34866318581229" lon="10.642408314302715"><ele>105.0</ele><time>2026-03-30T11:40:40.998Z</time></trkpt><trkpt lat="45.34866637119067" lon="10.64223128562483"><ele>105.4</ele><time>2026-03-30T11:40:42.998Z</time></trkpt><trkpt lat="45.348682199081495" lon="10.642085556924318"><ele>105.8</ele><time>2026-03-30T11:40:43.998Z</time></trkpt><trkpt lat="45.34870127522894" lon="10.64194334404246"><ele>106.19999999999999</ele><time>2026-03-30T11:40:44.998Z</time></trkpt><trkpt lat="45.34870954557812" lon="10.641835346700473"><ele>106.6</ele><time>2026-03-30T11:40:45.998Z</time></trkpt><trkpt lat="45.3486989000111" lon="10.641738148825079"><ele>107.0</ele><time>2026-03-30T11:40:46.998Z</time></trkpt><trkpt lat="45.34859637941041" lon="10.641698873065948"><ele>106.99999999999999</ele><time>2026-03-30T11:40:48.998Z</time></trkpt><trkpt lat="45.34852874900717" lon="10.641731692090518"><ele>107.0</ele><time>2026-03-30T11:40:49.998Z</time></trkpt><trkpt lat="45.3484333343688" lon="10.641762920480629"><ele>107.0</ele><time>2026-03-30T11:40:50.998Z</time></trkpt><trkpt lat="45.34834334687386" lon="10.641786517592882"><ele>107.0</ele><time>2026-03-30T11:40:51.998Z</time></trkpt><trkpt lat="45.34825649620493" lon="10.641792510985047"><ele>106.99999999999999</ele><time>2026-03-30T11:40:52.998Z</time></trkpt><trkpt lat="45.34816954489089" lon="10.641799955353411"><ele>107.0</ele><time>2026-03-30T11:40:53.998Z</time></trkpt><trkpt lat="45.34809142576106" lon="10.641804705904025"><ele>107.33333333333333</ele><time>2026-03-30T11:40:54.998Z</time></trkpt><trkpt lat="45.348018917847014" lon="10.641822950307956"><ele>107.66666666666666</ele><time>2026-03-30T11:40:55.998Z</time></trkpt><trkpt lat="45.34793327781646" lon="10.641848500185596"><ele>108.0</ele><time>2026-03-30T11:40:56.998Z</time></trkpt><trkpt lat="45.34785227563467" lon="10.641868498252384"><ele>108.33333333333334</ele><time>2026-03-30T11:40:57.998Z</time></trkpt><trkpt lat="45.347757983194604" lon="10.641888066099964"><ele>108.66666666666667</ele><time>2026-03-30T11:40:59Z</time></trkpt><trkpt lat="45.347649621542175" lon="10.641916105804922"><ele>109.0</ele><time>2026-03-30T11:41:00Z</time></trkpt><trkpt lat="45.34755407343966" lon="10.641932742932754"><ele>109.0</ele><time>2026-03-30T11:41:01Z</time></trkpt><trkpt lat="45.34745591476499" lon="10.641948430181731"><ele>109.0</ele><time>2026-03-30T11:41:02Z</time></trkpt><trkpt lat="45.34734072207739" lon="10.64197172024441"><ele>109.0</ele><time>2026-03-30T11:41:03Z</time></trkpt><trkpt lat="45.347220509921726" lon="10.641998497560014"><ele>109.0</ele><time>2026-03-30T11:41:04Z</time></trkpt><trkpt lat="45.34712316594376" lon="10.642024467202026"><ele>109.0</ele><time>2026-03-30T11:41:05Z</time></trkpt><trkpt lat="45.34703073064191" lon="10.642050283028736"><ele>108.0</ele><time>2026-03-30T11:41:06Z</time></trkpt><trkpt lat="45.34692611404551" lon="10.642066001224842"><ele>107.0</ele><time>2026-03-30T11:41:07Z</time></trkpt><trkpt lat="45.34684197058258" lon="10.642084720482805"><ele>106.0</ele><time>2026-03-30T11:41:08Z</time></trkpt><trkpt lat="45.34677155108818" lon="10.642101779924822"><ele>105.0</ele><time>2026-03-30T11:41:09Z</time></trkpt><trkpt lat="45.34666678812852" lon="10.642108898112701"><ele>104.0</ele><time>2026-03-30T11:41:11Z</time></trkpt><trkpt lat="45.346609730980546" lon="10.641985515550568"><ele>105.2</ele><time>2026-03-30T11:41:14Z</time></trkpt><trkpt lat="45.34656969679078" lon="10.641833453311367"><ele>106.4</ele><time>2026-03-30T11:41:16Z</time></trkpt><trkpt lat="45.346531866150244" lon="10.64173229444323"><ele>107.6</ele><time>2026-03-30T11:41:17Z</time></trkpt><trkpt lat="45.34648872966962" lon="10.641568401878962"><ele>108.8</ele><time>2026-03-30T11:41:18Z</time></trkpt><trkpt lat="45.34643223999003" lon="10.64143434262083"><ele>110.0</ele><time>2026-03-30T11:41:19Z</time></trkpt><trkpt lat="45.346387750677636" lon="10.64130063755399"><ele>110.16666666666666</ele><time>2026-03-30T11:41:20Z</time></trkpt><trkpt lat="45.34634941362333" lon="10.64118758255932"><ele>110.33333333333333</ele><time>2026-03-30T11:41:21Z</time></trkpt><trkpt lat="45.34632188104497" lon="10.64108362079541"><ele>110.5</ele><time>2026-03-30T11:41:22Z</time></trkpt><trkpt lat="45.346296544935115" lon="10.64096636896432"><ele>110.66666666666666</ele><time>2026-03-30T11:41:23Z</time></trkpt><trkpt lat="45.34631820254652" lon="10.640859919950488"><ele>110.83333333333333</ele><time>2026-03-30T11:41:24Z</time></trkpt><trkpt lat="45.34636264889638" lon="10.640738019848456"><ele>111.0</ele><time>2026-03-30T11:41:25Z</time></trkpt><trkpt lat="45.34640003184462" lon="10.640553511732543"><ele>111.0</ele><time>2026-03-30T11:41:26Z</time></trkpt><trkpt lat="45.34641583403039" lon="10.640370735552667"><ele>111.0</ele><time>2026-03-30T11:41:27Z</time></trkpt><trkpt lat="45.34640554542016" lon="10.640206623686398"><ele>111.0</ele><time>2026-03-30T11:41:28Z</time></trkpt><trkpt lat="45.34636947673343" lon="10.640050642449808"><ele>111.0</ele><time>2026-03-30T11:41:29Z</time></trkpt><trkpt lat="45.346324391151676" lon="10.6398812327311"><ele>113.75</ele><time>2026-03-30T11:41:30Z</time></trkpt><trkpt lat="45.34628320111286" lon="10.639694679623585"><ele>116.5</ele><time>2026-03-30T11:41:31Z</time></trkpt><trkpt lat="45.34625132421656" lon="10.639492199969142"><ele>119.25</ele><time>2026-03-30T11:41:32Z</time></trkpt><trkpt lat="45.346231330878545" lon="10.639277503391787"><ele>122.0</ele><time>2026-03-30T11:41:33Z</time></trkpt><trkpt lat="45.346208953872896" lon="10.639071931735083"><ele>122.0</ele><time>2026-03-30T11:41:34Z</time></trkpt><trkpt lat="45.34619522598027" lon="10.638888012400757"><ele>121.99999999999999</ele><time>2026-03-30T11:41:35Z</time></trkpt><trkpt lat="45.346194159591064" lon="10.638780017525837"><ele>121.99999999999999</ele><time>2026-03-30T11:41:36Z</time></trkpt><trkpt lat="45.34617649146315" lon="10.638679082442328"><ele>122.0</ele><time>2026-03-30T11:41:37Z</time></trkpt><trkpt lat="45.346122453900215" lon="10.638538117471754"><ele>122.0</ele><time>2026-03-30T11:41:37.999Z</time></trkpt><trkpt lat="45.34605440197967" lon="10.638411087400408"><ele>122.0</ele><time>2026-03-30T11:41:38.999Z</time></trkpt><trkpt lat="45.34597320015228" lon="10.638235573691265"><ele>121.99999999999999</ele><time>2026-03-30T11:41:39.999Z</time></trkpt><trkpt lat="45.34591852867066" lon="10.638095246134625"><ele>121.99999999999999</ele><time>2026-03-30T11:41:40.999Z</time></trkpt><trkpt lat="45.345884759011135" lon="10.637983892990988"><ele>122.0</ele><time>2026-03-30T11:41:41.999Z</time></trkpt><trkpt lat="45.34585868253613" lon="10.63788698776881"><ele>122.0</ele><time>2026-03-30T11:41:42.999Z</time></trkpt><trkpt lat="45.34580978372499" lon="10.637739940311128"><ele>122.0</ele><time>2026-03-30T11:41:44.999Z</time></trkpt><trkpt lat="45.34574287306116" lon="10.637660372262042"><ele>121.99999999999999</ele><time>2026-03-30T11:41:45.999Z</time></trkpt><trkpt lat="45.34568263227071" lon="10.637587969297446"><ele>121.99999999999999</ele><time>2026-03-30T11:41:46.999Z</time></trkpt><trkpt lat="45.34559806750928" lon="10.637498018333998"><ele>122.0</ele><time>2026-03-30T11:41:47.999Z</time></trkpt><trkpt lat="45.345505580186575" lon="10.637403321943545"><ele>122.0</ele><time>2026-03-30T11:41:48.999Z</time></trkpt><trkpt lat="45.34542008720085" lon="10.637347214615671"><ele>121.99999999999999</ele><time>2026-03-30T11:41:49.999Z</time></trkpt><trkpt lat="45.34534628414479" lon="10.63729391666586"><ele>122.0</ele><time>2026-03-30T11:41:50.999Z</time></trkpt><trkpt lat="45.34526759938997" lon="10.637257500298526"><ele>122.0</ele><time>2026-03-30T11:41:51.999Z</time></trkpt><trkpt lat="45.345198112517494" lon="10.637209212193763"><ele>122.0</ele><time>2026-03-30T11:41:52.999Z</time></trkpt><trkpt lat="45.345125110573655" lon="10.637151084992079"><ele>121.99999999999999</ele><time>2026-03-30T11:41:53.999Z</time></trkpt><trkpt lat="45.34503910284315" lon="10.637071444117145"><ele>122.0</ele><time>2026-03-30T11:41:54.999Z</time></trkpt><trkpt lat="45.34495901282041" lon="10.636981065901615"><ele>122.19999999999999</ele><time>2026-03-30T11:41:55.999Z</time></trkpt><trkpt lat="45.34488191497331" lon="10.636873292586825"><ele>122.39999999999999</ele><time>2026-03-30T11:41:56.999Z</time></trkpt><trkpt lat="45.34480898470526" lon="10.636759451736594"><ele>122.60000000000001</ele><time>2026-03-30T11:41:57.999Z</time></trkpt><trkpt lat="45.344740907618124" lon="10.636642898150768"><ele>122.80000000000001</ele><time>2026-03-30T11:41:58.999Z</time></trkpt><trkpt lat="45.344700936238006" lon="10.636502061105672"><ele>123.0</ele><time>2026-03-30T11:41:59.999Z</time></trkpt><trkpt lat="45.34466084391385" lon="10.636357231694156"><ele>123.80000000000001</ele><time>2026-03-30T11:42:00.999Z</time></trkpt><trkpt lat="45.344620551169115" lon="10.636208030732828"><ele>124.60000000000001</ele><time>2026-03-30T11:42:01.999Z</time></trkpt><trkpt lat="45.344575129370035" lon="10.636068337993706"><ele>125.39999999999999</ele><time>2026-03-30T11:42:02.999Z</time></trkpt><trkpt lat="45.344513673020785" lon="10.63594789419464"><ele>126.19999999999999</ele><time>2026-03-30T11:42:03.999Z</time></trkpt><trkpt lat="45.344462851859326" lon="10.63583834828934"><ele>127.0</ele><time>2026-03-30T11:42:04.999Z</time></trkpt><trkpt lat="45.34439653735259" lon="10.635733895709922"><ele>127.0</ele><time>2026-03-30T11:42:05.999Z</time></trkpt><trkpt lat="45.34430073134795" lon="10.635618775171753"><ele>126.99999999999999</ele><time>2026-03-30T11:42:06.999Z</time></trkpt><trkpt lat="45.34420491645805" lon="10.635516531433913"><ele>126.99999999999999</ele><time>2026-03-30T11:42:07.999Z</time></trkpt><trkpt lat="45.3441368434672" lon="10.635402608081012"><ele>127.0</ele><time>2026-03-30T11:42:08.999Z</time></trkpt><trkpt lat="45.34406731197907" lon="10.635314786484498"><ele>127.0</ele><time>2026-03-30T11:42:09.999Z</time></trkpt><trkpt lat="45.34399806686453" lon="10.635236107653512"><ele>127.00000000000001</ele><time>2026-03-30T11:42:10.999Z</time></trkpt><trkpt lat="45.343937761565336" lon="10.635168084032685"><ele>127.0</ele><time>2026-03-30T11:42:11.999Z</time></trkpt><trkpt lat="45.34389169908375" lon="10.635105521332635"><ele>127.0</ele><time>2026-03-30T11:42:12.999Z</time></trkpt><trkpt lat="45.343832865764014" lon="10.635010409419358"><ele>127.0</ele><time>2026-03-30T11:42:14.999Z</time></trkpt><trkpt lat="45.343712284548296" lon="10.635128590562456"><ele>127.00000000000001</ele><time>2026-03-30T11:42:16.999Z</time></trkpt><trkpt lat="45.34367343150163" lon="10.635213539984493"><ele>127.0</ele><time>2026-03-30T11:42:17.999Z</time></trkpt><trkpt lat="45.34362711889236" lon="10.63529872914178"><ele>126.8</ele><time>2026-03-30T11:42:19.999Z</time></trkpt><trkpt lat="45.34362785442819" lon="10.635452685239644"><ele>126.6</ele><time>2026-03-30T11:42:24.999Z</time></trkpt><trkpt lat="45.34365231279813" lon="10.635596079241317"><ele>126.39999999999999</ele><time>2026-03-30T11:42:25.999Z</time></trkpt><trkpt lat="45.343678015850614" lon="10.635728559187362"><ele>126.19999999999999</ele><time>2026-03-30T11:42:26.999Z</time></trkpt><trkpt lat="45.34366568243356" lon="10.635821613462422"><ele>126.0</ele><time>2026-03-30T11:42:27.999Z</time></trkpt><trkpt lat="45.34366502146059" lon="10.635932357067015"><ele>126.0</ele><time>2026-03-30T11:42:28.999Z</time></trkpt><trkpt lat="45.34360138502074" lon="10.636056638894031"><ele>126.0</ele><time>2026-03-30T11:42:29.999Z</time></trkpt><trkpt lat="45.34356280460097" lon="10.6362233936922"><ele>126.0</ele><time>2026-03-30T11:42:30.999Z</time></trkpt><trkpt lat="45.34353993304159" lon="10.63638259599316"><ele>126.0</ele><time>2026-03-30T11:42:31.999Z</time></trkpt><trkpt lat="45.34351276759535" lon="10.63650140179511"><ele>126.0</ele><time>2026-03-30T11:42:32.999Z</time></trkpt><trkpt lat="45.343906754062004" lon="10.636325052912767"><ele>126.0</ele><time>2026-03-30T11:42:41.999Z</time></trkpt><trkpt lat="45.34393867959606" lon="10.636189324799288"><ele>126.0</ele><time>2026-03-30T11:42:42.999Z</time></trkpt><trkpt lat="45.343960842101644" lon="10.636088093295808"><ele>126.0</ele><time>2026-03-30T11:42:43.998Z</time></trkpt><trkpt lat="45.3439917566461" lon="10.635957163768785"><ele>126.0</ele><time>2026-03-30T11:42:45.998Z</time></trkpt><trkpt lat="45.344018070636714" lon="10.63586161264981"><ele>126.0</ele><time>2026-03-30T11:42:46.998Z</time></trkpt><trkpt lat="45.34403424142491" lon="10.635763081150783"><ele>126.0</ele><time>2026-03-30T11:42:47.998Z</time></trkpt><trkpt lat="45.34364274877751" lon="10.635388390066296"><ele>124.83333333333333</ele><time>2026-03-30T11:42:49.998Z</time></trkpt><trkpt lat="45.343577237874655" lon="10.635301917707407"><ele>123.66666666666666</ele><time>2026-03-30T11:42:51.998Z</time></trkpt><trkpt lat="45.34351991449265" lon="10.63524536486071"><ele>122.5</ele><time>2026-03-30T11:42:52.998Z</time></trkpt><trkpt lat="45.34344037822098" lon="10.635170446731864"><ele>121.33333333333333</ele><time>2026-03-30T11:42:53.998Z</time></trkpt><trkpt lat="45.34334008361156" lon="10.635132475888698"><ele>120.16666666666666</ele><time>2026-03-30T11:42:54.998Z</time></trkpt><trkpt lat="45.343259702531675" lon="10.635121774752484"><ele>119.0</ele><time>2026-03-30T11:42:55.998Z</time></trkpt><trkpt lat="45.343166379897546" lon="10.635039321818786"><ele>118.99999999999999</ele><time>2026-03-30T11:42:57.998Z</time></trkpt><trkpt lat="45.34310890867302" lon="10.63499494257362"><ele>119.0</ele><time>2026-03-30T11:42:58.998Z</time></trkpt><trkpt lat="45.34304072984923" lon="10.634974115342018"><ele>119.0</ele><time>2026-03-30T11:42:59.998Z</time></trkpt><trkpt lat="45.342972232293825" lon="10.634947444877884"><ele>119.0</ele><time>2026-03-30T11:43:00.998Z</time></trkpt><trkpt lat="45.342881182264044" lon="10.63493061162523"><ele>118.99999999999999</ele><time>2026-03-30T11:43:01.998Z</time></trkpt><trkpt lat="45.342792295289605" lon="10.634941580690366"><ele>119.0</ele><time>2026-03-30T11:43:02.998Z</time></trkpt><trkpt lat="45.3426864681207" lon="10.634969155996478"><ele>117.75</ele><time>2026-03-30T11:43:04Z</time></trkpt><trkpt lat="45.34255207640457" lon="10.63503878385197"><ele>116.5</ele><time>2026-03-30T11:43:05Z</time></trkpt><trkpt lat="45.342422390787874" lon="10.635136641953775"><ele>115.25</ele><time>2026-03-30T11:43:06Z</time></trkpt><trkpt lat="45.342309637512926" lon="10.635251855305794"><ele>114.0</ele><time>2026-03-30T11:43:07Z</time></trkpt><trkpt lat="45.34218582197302" lon="10.63537449831479"><ele>112.75</ele><time>2026-03-30T11:43:08Z</time></trkpt><trkpt lat="45.34205615117652" lon="10.635490289100742"><ele>111.5</ele><time>2026-03-30T11:43:09Z</time></trkpt><trkpt lat="45.341951045245985" lon="10.635598773464343"><ele>110.25</ele><time>2026-03-30T11:43:10Z</time></trkpt><trkpt lat="45.341830680793684" lon="10.635712530278083"><ele>109.0</ele><time>2026-03-30T11:43:11Z</time></trkpt><trkpt lat="45.34173130309149" lon="10.635811028025802"><ele>109.0</ele><time>2026-03-30T11:43:12Z</time></trkpt><trkpt lat="45.341612726657544" lon="10.635936240064973"><ele>109.0</ele><time>2026-03-30T11:43:13Z</time></trkpt><trkpt lat="45.34152756324823" lon="10.636044752029775"><ele>109.0</ele><time>2026-03-30T11:43:14Z</time></trkpt><trkpt lat="45.34144700701524" lon="10.63617359987022"><ele>109.0</ele><time>2026-03-30T11:43:15Z</time></trkpt><trkpt lat="45.34135000708761" lon="10.63630232236683"><ele>108.2</ele><time>2026-03-30T11:43:16Z</time></trkpt><trkpt lat="45.341269991898095" lon="10.636416484506656"><ele>107.4</ele><time>2026-03-30T11:43:17Z</time></trkpt><trkpt lat="45.341200545124465" lon="10.63649109808256"><ele>106.6</ele><time>2026-03-30T11:43:18Z</time></trkpt><trkpt lat="45.34113731872069" lon="10.63656353411668"><ele>105.8</ele><time>2026-03-30T11:43:19Z</time></trkpt><trkpt lat="45.34108171120469" lon="10.63665643700196"><ele>105.0</ele><time>2026-03-30T11:43:20Z</time></trkpt><trkpt lat="45.34102388588322" lon="10.636798473362125"><ele>104.75</ele><time>2026-03-30T11:43:21Z</time></trkpt><trkpt lat="45.34093915914498" lon="10.636971243864362"><ele>104.5</ele><time>2026-03-30T11:43:22Z</time></trkpt><trkpt lat="45.34087444572299" lon="10.637132851529167"><ele>104.25</ele><time>2026-03-30T11:43:23Z</time></trkpt><trkpt lat="45.34082040515081" lon="10.63727524984021"><ele>104.0</ele><time>2026-03-30T11:43:24Z</time></trkpt><trkpt lat="45.3407523720835" lon="10.637404551230388"><ele>104.0</ele><time>2026-03-30T11:43:25Z</time></trkpt><trkpt lat="45.34067940012242" lon="10.637534234566939"><ele>104.0</ele><time>2026-03-30T11:43:26Z</time></trkpt><trkpt lat="45.34063230195999" lon="10.63764537912458"><ele>104.0</ele><time>2026-03-30T11:43:27Z</time></trkpt><trkpt lat="45.340574009356565" lon="10.637779540747173"><ele>104.0</ele><time>2026-03-30T11:43:28Z</time></trkpt><trkpt lat="45.340524062308084" lon="10.637903152203537"><ele>104.0</ele><time>2026-03-30T11:43:29Z</time></trkpt><trkpt lat="45.34046881520219" lon="10.638016279339759"><ele>104.2</ele><time>2026-03-30T11:43:30Z</time></trkpt><trkpt lat="45.3404306906259" lon="10.638146572659174"><ele>104.4</ele><time>2026-03-30T11:43:31Z</time></trkpt><trkpt lat="45.340373885482606" lon="10.6382762584774"><ele>104.6</ele><time>2026-03-30T11:43:32Z</time></trkpt><trkpt lat="45.3403109572733" lon="10.63840334643767"><ele>104.8</ele><time>2026-03-30T11:43:33Z</time></trkpt><trkpt lat="45.34024154510834" lon="10.638534006590262"><ele>105.0</ele><time>2026-03-30T11:43:34Z</time></trkpt><trkpt lat="45.340194396828046" lon="10.638701862451898"><ele>105.0</ele><time>2026-03-30T11:43:35Z</time></trkpt><trkpt lat="45.34014376419355" lon="10.638805228192727"><ele>105.0</ele><time>2026-03-30T11:43:36Z</time></trkpt><trkpt lat="45.34009271369783" lon="10.638890886628579"><ele>105.0</ele><time>2026-03-30T11:43:37Z</time></trkpt><trkpt lat="45.340047506668235" lon="10.638963575177403"><ele>105.0</ele><time>2026-03-30T11:43:38Z</time></trkpt><trkpt lat="45.34000786027921" lon="10.639041234297466"><ele>105.0</ele><time>2026-03-30T11:43:39Z</time></trkpt><trkpt lat="45.339952455562" lon="10.63916310131299"><ele>105.0</ele><time>2026-03-30T11:43:41Z</time></trkpt><trkpt lat="45.3399152164681" lon="10.639253126397428"><ele>105.0</ele><time>2026-03-30T11:43:44Z</time></trkpt><trkpt lat="45.33997541511747" lon="10.639314887522783"><ele>105.0</ele><time>2026-03-30T11:43:46.999Z</time></trkpt><trkpt lat="45.34002989163335" lon="10.639247105491242"><ele>105.0</ele><time>2026-03-30T11:43:49.999Z</time></trkpt><trkpt lat="45.3400531393642" lon="10.639109617380278"><ele>105.0</ele><time>2026-03-30T11:43:51.999Z</time></trkpt><trkpt lat="45.340048439900286" lon="10.639012242883933"><ele>105.0</ele><time>2026-03-30T11:43:52.999Z</time></trkpt><trkpt lat="45.340114718895926" lon="10.638829402613732"><ele>105.0</ele><time>2026-03-30T11:43:54.999Z</time></trkpt><trkpt lat="45.34018033673485" lon="10.63872014151409"><ele>105.0</ele><time>2026-03-30T11:43:55.999Z</time></trkpt><trkpt lat="45.340238578176034" lon="10.638608437455924"><ele>105.0</ele><time>2026-03-30T11:43:56.999Z</time></trkpt><trkpt lat="45.340289636334" lon="10.638483714887265"><ele>105.0</ele><time>2026-03-30T11:43:57.999Z</time></trkpt><trkpt lat="45.34033502496134" lon="10.63837759710006"><ele>105.0</ele><time>2026-03-30T11:43:58.999Z</time></trkpt><trkpt lat="45.34037628535703" lon="10.63824380873613"><ele>105.16666666666667</ele><time>2026-03-30T11:43:59.999Z</time></trkpt><trkpt lat="45.34042088430099" lon="10.638149274057511"><ele>105.33333333333334</ele><time>2026-03-30T11:44:00.999Z</time></trkpt><trkpt lat="45.34047127703913" lon="10.638026408198463"><ele>105.5</ele><time>2026-03-30T11:44:01.999Z</time></trkpt><trkpt lat="45.34052061193389" lon="10.637938626112149"><ele>105.66666666666667</ele><time>2026-03-30T11:44:02.999Z</time></trkpt><trkpt lat="45.34057184440604" lon="10.637803568916842"><ele>105.83333333333334</ele><time>2026-03-30T11:44:04.999Z</time></trkpt><trkpt lat="45.34062583314318" lon="10.637732144473981"><ele>106.0</ele><time>2026-03-30T11:44:07.999Z</time></trkpt><trkpt lat="45.34069829399966" lon="10.637786743277033"><ele>106.00000000000001</ele><time>2026-03-30T11:44:10.999Z</time></trkpt><trkpt lat="45.34072878867288" lon="10.637876902805093"><ele>106.0</ele><time>2026-03-30T11:44:11.999Z</time></trkpt><trkpt lat="45.34077708726658" lon="10.637962738026781"><ele>106.0</ele><time>2026-03-30T11:44:12.999Z</time></trkpt><trkpt lat="45.340835627645234" lon="10.63803192491548"><ele>106.0</ele><time>2026-03-30T11:44:13.999Z</time></trkpt><trkpt lat="45.34089685986903" lon="10.638098456635092"><ele>106.00000000000001</ele><time>2026-03-30T11:44:14.999Z</time></trkpt><trkpt lat="45.340960680120176" lon="10.638175386745493"><ele>106.0</ele><time>2026-03-30T11:44:15.999Z</time></trkpt><trkpt lat="45.34105161847302" lon="10.638253068445641"><ele>106.00000000000001</ele><time>2026-03-30T11:44:16.999Z</time></trkpt><trkpt lat="45.34112357983734" lon="10.638283580259847"><ele>106.0</ele><time>2026-03-30T11:44:17.999Z</time></trkpt><trkpt lat="45.34122084671163" lon="10.638299436810447"><ele>106.0</ele><time>2026-03-30T11:44:19.999Z</time></trkpt><trkpt lat="45.34128790851129" lon="10.638372600841707"><ele>106.0</ele><time>2026-03-30T11:44:21.999Z</time></trkpt><trkpt lat="45.341319497957784" lon="10.63845034443019"><ele>106.00000000000001</ele><time>2026-03-30T11:44:22.999Z</time></trkpt><trkpt lat="45.34136373542773" lon="10.638567682532907"><ele>106.0</ele><time>2026-03-30T11:44:23.999Z</time></trkpt><trkpt lat="45.34141104424331" lon="10.638685585318777"><ele>108.0</ele><time>2026-03-30T11:44:24.999Z</time></trkpt><trkpt lat="45.34146328958668" lon="10.638799912334761"><ele>110.0</ele><time>2026-03-30T11:44:25.999Z</time></trkpt><trkpt lat="45.34150702625137" lon="10.638891271103812"><ele>112.0</ele><time>2026-03-30T11:44:26.999Z</time></trkpt><trkpt lat="45.34158095726771" lon="10.639010106741674"><ele>114.0</ele><time>2026-03-30T11:44:28.999Z</time></trkpt><trkpt lat="45.34166898926953" lon="10.639156594682438"><ele>116.0</ele><time>2026-03-30T11:44:30.999Z</time></trkpt><trkpt lat="45.34171594815238" lon="10.639235156428235"><ele>116.00000000000001</ele><time>2026-03-30T11:44:31.999Z</time></trkpt><trkpt lat="45.341757873278276" lon="10.639305945509445"><ele>116.0</ele><time>2026-03-30T11:44:32.999Z</time></trkpt><trkpt lat="45.34180223306404" lon="10.639394748574043"><ele>116.00000000000001</ele><time>2026-03-30T11:44:33.999Z</time></trkpt><trkpt lat="45.341841579102976" lon="10.63946827554864"><ele>116.00000000000001</ele><time>2026-03-30T11:44:34.999Z</time></trkpt><trkpt lat="45.34188361537165" lon="10.63954697158748"><ele>116.0</ele><time>2026-03-30T11:44:35.999Z</time></trkpt><trkpt lat="45.34191079699132" lon="10.639632912547107"><ele>116.00000000000001</ele><time>2026-03-30T11:44:36.999Z</time></trkpt><trkpt lat="45.341932839097126" lon="10.639719179889871"><ele>116.00000000000001</ele><time>2026-03-30T11:44:37.999Z</time></trkpt><trkpt lat="45.34197731742374" lon="10.639875904648303"><ele>116.16666666666666</ele><time>2026-03-30T11:44:39.999Z</time></trkpt><trkpt lat="45.34201147667175" lon="10.639958375070506"><ele>116.33333333333333</ele><time>2026-03-30T11:44:40.999Z</time></trkpt><trkpt lat="45.342076020752145" lon="10.640022593163762"><ele>116.5</ele><time>2026-03-30T11:44:41.999Z</time></trkpt><trkpt lat="45.34215260246563" lon="10.640089425892729"><ele>116.66666666666666</ele><time>2026-03-30T11:44:42.999Z</time></trkpt><trkpt lat="45.34221695760651" lon="10.640121830778645"><ele>116.83333333333333</ele><time>2026-03-30T11:44:43.999Z</time></trkpt><trkpt lat="45.342280464201046" lon="10.640159310292235"><ele>117.0</ele><time>2026-03-30T11:44:44.999Z</time></trkpt><trkpt lat="45.3423625913061" lon="10.640223768064322"><ele>116.0</ele><time>2026-03-30T11:44:46.999Z</time></trkpt><trkpt lat="45.342398880322975" lon="10.640334667608455"><ele>114.99999999999999</ele><time>2026-03-30T11:44:48.999Z</time></trkpt><trkpt lat="45.34241707954664" lon="10.640457628244842"><ele>113.99999999999999</ele><time>2026-03-30T11:44:49.999Z</time></trkpt><trkpt lat="45.34241000542117" lon="10.64061746765989"><ele>113.0</ele><time>2026-03-30T11:44:50.999Z</time></trkpt><trkpt lat="45.342398422227596" lon="10.640784708224631"><ele>112.0</ele><time>2026-03-30T11:44:51.998Z</time></trkpt><trkpt lat="45.34237404791176" lon="10.640915735662281"><ele>112.0</ele><time>2026-03-30T11:44:52.998Z</time></trkpt><trkpt lat="45.34231829171426" lon="10.64107614609272"><ele>112.0</ele><time>2026-03-30T11:44:53.998Z</time></trkpt><trkpt lat="45.34224586310263" lon="10.641235548422166"><ele>112.0</ele><time>2026-03-30T11:44:54.998Z</time></trkpt><trkpt lat="45.34215656340876" lon="10.64138636598016"><ele>112.0</ele><time>2026-03-30T11:44:55.998Z</time></trkpt><trkpt lat="45.34208248913452" lon="10.641515437272757"><ele>110.75</ele><time>2026-03-30T11:44:56.998Z</time></trkpt><trkpt lat="45.34202821354618" lon="10.641653669443189"><ele>109.5</ele><time>2026-03-30T11:44:57.998Z</time></trkpt><trkpt lat="45.341991633075295" lon="10.6418134262456"><ele>108.25</ele><time>2026-03-30T11:44:58.998Z</time></trkpt><trkpt lat="45.34196855037709" lon="10.641993787567484"><ele>107.0</ele><time>2026-03-30T11:44:59.998Z</time></trkpt><trkpt lat="45.341956515424286" lon="10.64218172583671"><ele>106.75</ele><time>2026-03-30T11:45:00.998Z</time></trkpt><trkpt lat="45.34194319375682" lon="10.642312702880956"><ele>106.5</ele><time>2026-03-30T11:45:01.998Z</time></trkpt><trkpt lat="45.34192070533861" lon="10.642449759700652"><ele>106.25</ele><time>2026-03-30T11:45:02.998Z</time></trkpt><trkpt lat="45.34188687112976" lon="10.642627528712454"><ele>106.0</ele><time>2026-03-30T11:45:03.998Z</time></trkpt><trkpt lat="45.34183237571881" lon="10.642817592093618"><ele>106.0</ele><time>2026-03-30T11:45:04.998Z</time></trkpt><trkpt lat="45.34178554596287" lon="10.64305540069761"><ele>106.0</ele><time>2026-03-30T11:45:05.998Z</time></trkpt><trkpt lat="45.34174624893158" lon="10.64328930551816"><ele>106.0</ele><time>2026-03-30T11:45:06.998Z</time></trkpt><trkpt lat="45.34170473374522" lon="10.643469705570286"><ele>106.0</ele><time>2026-03-30T11:45:07.998Z</time></trkpt><trkpt lat="45.34166154103432" lon="10.64361054395551"><ele>106.0</ele><time>2026-03-30T11:45:08.998Z</time></trkpt><trkpt lat="45.34162841258917" lon="10.643734168812648"><ele>106.0</ele><time>2026-03-30T11:45:10Z</time></trkpt><trkpt lat="45.34160009187206" lon="10.64384537644754"><ele>106.0</ele><time>2026-03-30T11:45:11Z</time></trkpt><trkpt lat="45.34155976459147" lon="10.643958305454523"><ele>106.0</ele><time>2026-03-30T11:45:12Z</time></trkpt><trkpt lat="45.34151983911268" lon="10.644068238606563"><ele>105.5</ele><time>2026-03-30T11:45:13Z</time></trkpt><trkpt lat="45.34150153128555" lon="10.644220887307057"><ele>105.0</ele><time>2026-03-30T11:45:14Z</time></trkpt><trkpt lat="45.3414919579148" lon="10.644423055260091"><ele>104.5</ele><time>2026-03-30T11:45:15Z</time></trkpt><trkpt lat="45.34148954372554" lon="10.64466934653132"><ele>104.0</ele><time>2026-03-30T11:45:16Z</time></trkpt><trkpt lat="45.341493949117385" lon="10.64492334490515"><ele>103.0</ele><time>2026-03-30T11:45:17Z</time></trkpt><trkpt lat="45.34148431078986" lon="10.645197629096057"><ele>102.0</ele><time>2026-03-30T11:45:18Z</time></trkpt><trkpt lat="45.341476198046166" lon="10.645485928073057"><ele>101.0</ele><time>2026-03-30T11:45:19Z</time></trkpt><trkpt lat="45.341467684533065" lon="10.645789480551223"><ele>100.66666666666666</ele><time>2026-03-30T11:45:20Z</time></trkpt><trkpt lat="45.341454572453685" lon="10.646068601458872"><ele>100.33333333333334</ele><time>2026-03-30T11:45:21Z</time></trkpt><trkpt lat="45.34144025513546" lon="10.646288500147417"><ele>100.0</ele><time>2026-03-30T11:45:22Z</time></trkpt><trkpt lat="45.34144069118696" lon="10.64649113209488"><ele>100.0</ele><time>2026-03-30T11:45:23Z</time></trkpt><trkpt lat="45.34143618000841" lon="10.646661989401764"><ele>100.0</ele><time>2026-03-30T11:45:24Z</time></trkpt><trkpt lat="45.341414082970246" lon="10.646842971938328"><ele>100.0</ele><time>2026-03-30T11:45:25Z</time></trkpt><trkpt lat="45.3414091354092" lon="10.646968745739153"><ele>100.0</ele><time>2026-03-30T11:45:26Z</time></trkpt><trkpt lat="45.34141572509714" lon="10.64708539452046"><ele>100.0</ele><time>2026-03-30T11:45:28Z</time></trkpt><trkpt lat="45.34146805977375" lon="10.647135900548957"><ele>100.2</ele><time>2026-03-30T11:45:29Z</time></trkpt><trkpt lat="45.34155635185776" lon="10.647127385370865"><ele>100.4</ele><time>2026-03-30T11:45:30Z</time></trkpt><trkpt lat="45.341631363349556" lon="10.647146339877075"><ele>100.6</ele><time>2026-03-30T11:45:31Z</time></trkpt><trkpt lat="45.34171854358324" lon="10.647166085360402"><ele>100.8</ele><time>2026-03-30T11:45:33Z</time></trkpt><trkpt lat="45.34168679379365" lon="10.647360463258051"><ele>101.0</ele><time>2026-03-30T11:45:34Z</time></trkpt><trkpt lat="45.34169034018819" lon="10.647498334768244"><ele>101.0</ele><time>2026-03-30T11:45:35Z</time></trkpt><trkpt lat="45.34170312730662" lon="10.64764466278211"><ele>101.0</ele><time>2026-03-30T11:45:36Z</time></trkpt><trkpt lat="45.34173742966503" lon="10.647819782567199"><ele>101.0</ele><time>2026-03-30T11:45:37Z</time></trkpt><trkpt lat="45.34177689334075" lon="10.648000169928023"><ele>101.0</ele><time>2026-03-30T11:45:38Z</time></trkpt><trkpt lat="45.341790623877216" lon="10.64813952793952"><ele>100.8</ele><time>2026-03-30T11:45:39Z</time></trkpt><trkpt lat="45.34180473911983" lon="10.648258719788481"><ele>100.6</ele><time>2026-03-30T11:45:40Z</time></trkpt><trkpt lat="45.3418070096547" lon="10.648350014607766"><ele>100.4</ele><time>2026-03-30T11:45:41Z</time></trkpt><trkpt lat="45.341742322429454" lon="10.648504996494337"><ele>100.2</ele><time>2026-03-30T11:45:43Z</time></trkpt><trkpt lat="45.34167819369308" lon="10.64860145775055"><ele>100.0</ele><time>2026-03-30T11:45:44Z</time></trkpt><trkpt lat="45.341658924053284" lon="10.648799403207931"><ele>100.0</ele><time>2026-03-30T11:45:45Z</time></trkpt><trkpt lat="45.34163861601814" lon="10.648966405062316"><ele>100.0</ele><time>2026-03-30T11:45:46Z</time></trkpt><trkpt lat="45.3416145621677" lon="10.649108689466418"><ele>100.0</ele><time>2026-03-30T11:45:47Z</time></trkpt><trkpt lat="45.34158513832649" lon="10.64924561722728"><ele>100.0</ele><time>2026-03-30T11:45:48Z</time></trkpt><trkpt lat="45.34155101315856" lon="10.649393236957259"><ele>100.0</ele><time>2026-03-30T11:45:49Z</time></trkpt><trkpt lat="45.34151240126077" lon="10.649546664358596"><ele>100.4</ele><time>2026-03-30T11:45:50Z</time></trkpt><trkpt lat="45.341465781776215" lon="10.649710155728807"><ele>100.8</ele><time>2026-03-30T11:45:51Z</time></trkpt><trkpt lat="45.341424167289404" lon="10.649865000998634"><ele>101.19999999999999</ele><time>2026-03-30T11:45:52Z</time></trkpt><trkpt lat="45.34139022315293" lon="10.650008343281257"><ele>101.6</ele><time>2026-03-30T11:45:53Z</time></trkpt><trkpt lat="45.34137373189543" lon="10.650146515375539"><ele>102.0</ele><time>2026-03-30T11:45:54Z</time></trkpt><trkpt lat="45.34136712742297" lon="10.650293950386631"><ele>102.19999999999999</ele><time>2026-03-30T11:45:54.999Z</time></trkpt><trkpt lat="45.34136582393518" lon="10.650430222216697"><ele>102.4</ele><time>2026-03-30T11:45:55.999Z</time></trkpt><trkpt lat="45.34137864455994" lon="10.650580352791442"><ele>102.6</ele><time>2026-03-30T11:45:56.999Z</time></trkpt><trkpt lat="45.3414252765331" lon="10.65072737756234"><ele>102.80000000000001</ele><time>2026-03-30T11:45:57.999Z</time></trkpt><trkpt lat="45.3414948586927" lon="10.650862532273782"><ele>103.0</ele><time>2026-03-30T11:45:58.999Z</time></trkpt><trkpt lat="45.34157879525462" lon="10.65097728940829"><ele>103.0</ele><time>2026-03-30T11:45:59.999Z</time></trkpt><trkpt lat="45.341648714361675" lon="10.651089685488984"><ele>103.0</ele><time>2026-03-30T11:46:00.999Z</time></trkpt><trkpt lat="45.34171029008317" lon="10.651195595357994"><ele>103.0</ele><time>2026-03-30T11:46:01.999Z</time></trkpt><trkpt lat="45.34175542119617" lon="10.651293449560992"><ele>103.0</ele><time>2026-03-30T11:46:02.999Z</time></trkpt><trkpt lat="45.34179805407518" lon="10.651418140611238"><ele>103.0</ele><time>2026-03-30T11:46:04.999Z</time></trkpt><trkpt lat="45.34189670124328" lon="10.651448269888988"><ele>102.80000000000001</ele><time>2026-03-30T11:46:08.999Z</time></trkpt><trkpt lat="45.34197700104061" lon="10.651490411357482"><ele>102.6</ele><time>2026-03-30T11:46:10.999Z</time></trkpt><trkpt lat="45.341998658901936" lon="10.65165294788562"><ele>102.4</ele><time>2026-03-30T11:46:12.999Z</time></trkpt><trkpt lat="45.34202980969206" lon="10.651764296008608"><ele>102.19999999999999</ele><time>2026-03-30T11:46:13.999Z</time></trkpt><trkpt lat="45.34204695418812" lon="10.651886336851186"><ele>102.0</ele><time>2026-03-30T11:46:14.999Z</time></trkpt><trkpt lat="45.342049265429836" lon="10.652028078521713"><ele>101.75</ele><time>2026-03-30T11:46:15.999Z</time></trkpt><trkpt lat="45.342058243751495" lon="10.652188743593964"><ele>101.5</ele><time>2026-03-30T11:46:16.999Z</time></trkpt><trkpt lat="45.342061438554914" lon="10.652349998994563"><ele>101.25</ele><time>2026-03-30T11:46:17.999Z</time></trkpt><trkpt lat="45.342053220832156" lon="10.652530731773709"><ele>101.0</ele><time>2026-03-30T11:46:18.999Z</time></trkpt><trkpt lat="45.342035231336425" lon="10.65268611980054"><ele>100.5</ele><time>2026-03-30T11:46:19.999Z</time></trkpt><trkpt lat="45.34200376189144" lon="10.652847204785177"><ele>100.0</ele><time>2026-03-30T11:46:20.999Z</time></trkpt><trkpt lat="45.34196197203458" lon="10.653026562129872"><ele>99.5</ele><time>2026-03-30T11:46:21.999Z</time></trkpt><trkpt lat="45.34193369634602" lon="10.653204688622074"><ele>99.0</ele><time>2026-03-30T11:46:22.999Z</time></trkpt><trkpt lat="45.341887587497986" lon="10.653370773270428"><ele>99.0</ele><time>2026-03-30T11:46:23.999Z</time></trkpt><trkpt lat="45.341884385226344" lon="10.653480820005859"><ele>99.0</ele><time>2026-03-30T11:46:24.999Z</time></trkpt><trkpt lat="45.34190520422909" lon="10.653586032776097"><ele>99.0</ele><time>2026-03-30T11:46:26.999Z</time></trkpt><trkpt lat="45.34190973359594" lon="10.65372225722872"><ele>99.0</ele><time>2026-03-30T11:46:29.999Z</time></trkpt><trkpt lat="45.341912202889496" lon="10.653905464937019"><ele>99.0</ele><time>2026-03-30T11:46:31.999Z</time></trkpt><trkpt lat="45.34190435974788" lon="10.654009861216123"><ele>99.0</ele><time>2026-03-30T11:46:32.999Z</time></trkpt><trkpt lat="45.341875072202555" lon="10.654154444292931"><ele>99.0</ele><time>2026-03-30T11:46:33.999Z</time></trkpt><trkpt lat="45.3418472045222" lon="10.654259091637684"><ele>99.0</ele><time>2026-03-30T11:46:34.999Z</time></trkpt><trkpt lat="45.34181055324293" lon="10.65439294446925"><ele>99.0</ele><time>2026-03-30T11:46:35.999Z</time></trkpt><trkpt lat="45.3417807617152" lon="10.65451925470383"><ele>99.0</ele><time>2026-03-30T11:46:36.999Z</time></trkpt><trkpt lat="45.34175644061123" lon="10.654635488106075"><ele>99.0</ele><time>2026-03-30T11:46:37.999Z</time></trkpt><trkpt lat="45.34173288767465" lon="10.654746536089087"><ele>99.0</ele><time>2026-03-30T11:46:38.999Z</time></trkpt><trkpt lat="45.34170588263012" lon="10.654845808727975"><ele>99.0</ele><time>2026-03-30T11:46:39.999Z</time></trkpt><trkpt lat="45.341673960120495" lon="10.654942807567783"><ele>99.0</ele><time>2026-03-30T11:46:40.999Z</time></trkpt><trkpt lat="45.3416374835583" lon="10.655050671655076"><ele>99.0</ele><time>2026-03-30T11:46:41.999Z</time></trkpt><trkpt lat="45.34160361661159" lon="10.655133085235247"><ele>99.0</ele><time>2026-03-30T11:46:42.999Z</time></trkpt><trkpt lat="45.34159790967665" lon="10.6553602891864"><ele>99.0</ele><time>2026-03-30T11:46:44.999Z</time></trkpt><trkpt lat="45.34158338662445" lon="10.65546747883894"><ele>99.0</ele><time>2026-03-30T11:46:45.999Z</time></trkpt><trkpt lat="45.341582227569944" lon="10.655621575063005"><ele>99.0</ele><time>2026-03-30T11:46:46.999Z</time></trkpt><trkpt lat="45.341574508418084" lon="10.655796102174648"><ele>99.0</ele><time>2026-03-30T11:46:47.999Z</time></trkpt><trkpt lat="45.3415556028846" lon="10.655983427785493"><ele>99.0</ele><time>2026-03-30T11:46:48.999Z</time></trkpt><trkpt lat="45.34156482871262" lon="10.656175246757561"><ele>98.80000000000001</ele><time>2026-03-30T11:46:49.999Z</time></trkpt><trkpt lat="45.341555069791745" lon="10.656328133284854"><ele>98.60000000000001</ele><time>2026-03-30T11:46:50.999Z</time></trkpt><trkpt lat="45.34155464369154" lon="10.656473330685593"><ele>98.4</ele><time>2026-03-30T11:46:51.999Z</time></trkpt><trkpt lat="45.34155181423424" lon="10.6566238025707"><ele>98.2</ele><time>2026-03-30T11:46:52.999Z</time></trkpt><trkpt lat="45.34154994992233" lon="10.656746742319552"><ele>98.0</ele><time>2026-03-30T11:46:53.999Z</time></trkpt><trkpt lat="45.34153105084043" lon="10.656856368495149"><ele>97.99999999999999</ele><time>2026-03-30T11:46:54.999Z</time></trkpt><trkpt lat="45.341530220741696" lon="10.65695583139945"><ele>98.0</ele><time>2026-03-30T11:46:56.999Z</time></trkpt><trkpt lat="45.341449169984124" lon="10.656962344247537"><ele>98.0</ele><time>2026-03-30T11:46:58.999Z</time></trkpt><trkpt lat="45.341379328430676" lon="10.656969184623785"><ele>98.0</ele><time>2026-03-30T11:46:59.999Z</time></trkpt><trkpt lat="45.34131162173424" lon="10.6569689861883"><ele>97.99999999999999</ele><time>2026-03-30T11:47:00.999Z</time></trkpt><trkpt lat="45.341219785772644" lon="10.656969241031494"><ele>98.0</ele><time>2026-03-30T11:47:01.999Z</time></trkpt><trkpt lat="45.3411073827457" lon="10.65700274235002"><ele>97.60000000000001</ele><time>2026-03-30T11:47:02.998Z</time></trkpt><trkpt lat="45.34099574675964" lon="10.656991988666592"><ele>97.2</ele><time>2026-03-30T11:47:03.998Z</time></trkpt><trkpt lat="45.3408699538866" lon="10.657012733443985"><ele>96.8</ele><time>2026-03-30T11:47:04.998Z</time></trkpt><trkpt lat="45.34079073316415" lon="10.65702919221502"><ele>96.4</ele><time>2026-03-30T11:47:05.998Z</time></trkpt><trkpt lat="45.3407015785313" lon="10.657078619214394"><ele>96.0</ele><time>2026-03-30T11:47:07.998Z</time></trkpt><trkpt lat="45.34061574158907" lon="10.65712727488411"><ele>96.0</ele><time>2026-03-30T11:47:09.998Z</time></trkpt><trkpt lat="45.34054804619029" lon="10.657105869997633"><ele>96.0</ele><time>2026-03-30T11:47:10.998Z</time></trkpt><trkpt lat="45.34046017603285" lon="10.657069307631604"><ele>96.0</ele><time>2026-03-30T11:47:11.998Z</time></trkpt><trkpt lat="45.34038347245873" lon="10.657037998346711"><ele>96.0</ele><time>2026-03-30T11:47:12.998Z</time></trkpt><trkpt lat="45.34028081705518" lon="10.657000883157886"><ele>96.0</ele><time>2026-03-30T11:47:13.998Z</time></trkpt><trkpt lat="45.34020641676438" lon="10.656969820929556"><ele>96.0</ele><time>2026-03-30T11:47:14.998Z</time></trkpt><trkpt lat="45.34012355247432" lon="10.65693854626106"><ele>95.8</ele><time>2026-03-30T11:47:16Z</time></trkpt><trkpt lat="45.339966075657955" lon="10.656957972529417"><ele>95.6</ele><time>2026-03-30T11:47:18Z</time></trkpt><trkpt lat="45.33987332834726" lon="10.656991635170085"><ele>95.4</ele><time>2026-03-30T11:47:19Z</time></trkpt><trkpt lat="45.339794247589126" lon="10.657033933614288"><ele>95.2</ele><time>2026-03-30T11:47:20Z</time></trkpt><trkpt lat="45.33973553522839" lon="10.657067999659256"><ele>95.0</ele><time>2026-03-30T11:47:21Z</time></trkpt><trkpt lat="45.339626692328224" lon="10.657146269733646"><ele>95.0</ele><time>2026-03-30T11:47:23Z</time></trkpt><trkpt lat="45.33956984646992" lon="10.657188603442144"><ele>95.0</ele><time>2026-03-30T11:47:24Z</time></trkpt><trkpt lat="45.33949963681317" lon="10.657252220411221"><ele>95.0</ele><time>2026-03-30T11:47:25Z</time></trkpt><trkpt lat="45.33942432518241" lon="10.65732637819023"><ele>95.0</ele><time>2026-03-30T11:47:26Z</time></trkpt><trkpt lat="45.33934113033408" lon="10.657415375932187"><ele>95.0</ele><time>2026-03-30T11:47:28Z</time></trkpt><trkpt lat="45.3392837316311" lon="10.657477939064366"><ele>95.0</ele><time>2026-03-30T11:47:30Z</time></trkpt><trkpt lat="45.33921949540226" lon="10.657525811528618"><ele>95.0</ele><time>2026-03-30T11:47:34Z</time></trkpt><trkpt lat="45.33918965895803" lon="10.657643470745905"><ele>95.0</ele><time>2026-03-30T11:47:39Z</time></trkpt><trkpt lat="45.3391964911904" lon="10.657753654844667"><ele>95.0</ele><time>2026-03-30T11:47:42Z</time></trkpt><trkpt lat="45.339197409698535" lon="10.65789624379823"><ele>95.0</ele><time>2026-03-30T11:47:44Z</time></trkpt><trkpt lat="45.339174493578845" lon="10.658075697464206"><ele>95.0</ele><time>2026-03-30T11:47:46Z</time></trkpt><trkpt lat="45.33913890390234" lon="10.658252468265461"><ele>95.0</ele><time>2026-03-30T11:47:48Z</time></trkpt><trkpt lat="45.33913066099596" lon="10.658349452359982"><ele>95.0</ele><time>2026-03-30T11:47:49Z</time></trkpt><trkpt lat="45.33912498677024" lon="10.658442632384771"><ele>95.0</ele><time>2026-03-30T11:47:50Z</time></trkpt><trkpt lat="45.339117366406875" lon="10.658545218957446"><ele>95.0</ele><time>2026-03-30T11:47:51Z</time></trkpt><trkpt lat="45.33911423676314" lon="10.65864034182298"><ele>95.0</ele><time>2026-03-30T11:47:52Z</time></trkpt><trkpt lat="45.339113547562114" lon="10.658810890505496"><ele>95.0</ele><time>2026-03-30T11:47:54Z</time></trkpt><trkpt lat="45.33912694226275" lon="10.658968311260857"><ele>95.0</ele><time>2026-03-30T11:47:56Z</time></trkpt><trkpt lat="45.339141198782016" lon="10.659077293645216"><ele>95.0</ele><time>2026-03-30T11:47:58Z</time></trkpt><trkpt lat="45.339181685369276" lon="10.659176610172482"><ele>95.0</ele><time>2026-03-30T11:48:00.999Z</time></trkpt><trkpt lat="45.33920648574339" lon="10.659274128928928"><ele>95.0</ele><time>2026-03-30T11:48:05.999Z</time></trkpt><trkpt lat="45.3392660339085" lon="10.65932721406887"><ele>95.0</ele><time>2026-03-30T11:48:07.999Z</time></trkpt><trkpt lat="45.339336947298406" lon="10.659328930155018"><ele>95.0</ele><time>2026-03-30T11:48:08.999Z</time></trkpt><trkpt lat="45.33941585966202" lon="10.659319876685467"><ele>95.0</ele><time>2026-03-30T11:48:09.999Z</time></trkpt><trkpt lat="45.339514661802845" lon="10.659314397360744"><ele>95.0</ele><time>2026-03-30T11:48:10.999Z</time></trkpt><trkpt lat="45.33961710187259" lon="10.659309096262877"><ele>95.0</ele><time>2026-03-30T11:48:11.999Z</time></trkpt><trkpt lat="45.33974098470366" lon="10.659323969829627"><ele>95.0</ele><time>2026-03-30T11:48:12.999Z</time></trkpt><trkpt lat="45.33988738142801" lon="10.659354591025856"><ele>94.66666666666667</ele><time>2026-03-30T11:48:13.999Z</time></trkpt><trkpt lat="45.34003940773392" lon="10.6593819051336"><ele>94.33333333333333</ele><time>2026-03-30T11:48:14.999Z</time></trkpt><trkpt lat="45.34019151629077" lon="10.65939278449065"><ele>94.0</ele><time>2026-03-30T11:48:15.999Z</time></trkpt><trkpt lat="45.34035851299566" lon="10.659374890180324"><ele>94.0</ele><time>2026-03-30T11:48:16.999Z</time></trkpt><trkpt lat="45.34054345389136" lon="10.659337996240291"><ele>94.0</ele><time>2026-03-30T11:48:17.999Z</time></trkpt><trkpt lat="45.34070879036261" lon="10.659301051475982"><ele>94.0</ele><time>2026-03-30T11:48:18.999Z</time></trkpt><trkpt lat="45.340855118035904" lon="10.65927087571437"><ele>94.0</ele><time>2026-03-30T11:48:19.999Z</time></trkpt><trkpt lat="45.340993600196036" lon="10.659252066035387"><ele>94.0</ele><time>2026-03-30T11:48:20.999Z</time></trkpt><trkpt lat="45.34113465164762" lon="10.65924048633246"><ele>94.0</ele><time>2026-03-30T11:48:21.999Z</time></trkpt><trkpt lat="45.34127136119996" lon="10.659235194669096"><ele>94.0</ele><time>2026-03-30T11:48:22.999Z</time></trkpt><trkpt lat="45.34139259796771" lon="10.659256118189623"><ele>95.33333333333333</ele><time>2026-03-30T11:48:23.999Z</time></trkpt><trkpt lat="45.34152182547794" lon="10.659318191783042"><ele>96.66666666666666</ele><time>2026-03-30T11:48:24.999Z</time></trkpt><trkpt lat="45.3416799503444" lon="10.659373534045303"><ele>98.0</ele><time>2026-03-30T11:48:25.999Z</time></trkpt><trkpt lat="45.34185467570697" lon="10.659375784138113"><ele>98.0</ele><time>2026-03-30T11:48:26.999Z</time></trkpt><trkpt lat="45.34205167939081" lon="10.659323044249053"><ele>98.0</ele><time>2026-03-30T11:48:27.999Z</time></trkpt><trkpt lat="45.34222334282699" lon="10.659239711413061"><ele>98.0</ele><time>2026-03-30T11:48:28.999Z</time></trkpt><trkpt lat="45.342365723787914" lon="10.659157274753392"><ele>98.60000000000001</ele><time>2026-03-30T11:48:29.999Z</time></trkpt><trkpt lat="45.342490493195186" lon="10.659082549812045"><ele>99.2</ele><time>2026-03-30T11:48:30.999Z</time></trkpt><trkpt lat="45.342613774391396" lon="10.659040357576599"><ele>99.8</ele><time>2026-03-30T11:48:31.999Z</time></trkpt><trkpt lat="45.342711283416705" lon="10.659001858189868"><ele>100.4</ele><time>2026-03-30T11:48:32.999Z</time></trkpt><trkpt lat="45.342778370342465" lon="10.65898101119586"><ele>101.0</ele><time>2026-03-30T11:48:33.999Z</time></trkpt><trkpt lat="45.342890220833354" lon="10.658938975731786"><ele>101.0</ele><time>2026-03-30T11:48:35.999Z</time></trkpt><trkpt lat="45.34295478843126" lon="10.658983441978474"><ele>101.0</ele><time>2026-03-30T11:48:37.999Z</time></trkpt><trkpt lat="45.34296349199256" lon="10.659433484848147"><ele>101.0</ele><time>2026-03-30T11:48:41.999Z</time></trkpt><trkpt lat="45.34293815821547" lon="10.659651098477266"><ele>101.0</ele><time>2026-03-30T11:48:42.999Z</time></trkpt><trkpt lat="45.342921681630024" lon="10.65984453208324"><ele>101.0</ele><time>2026-03-30T11:48:43.999Z</time></trkpt><trkpt lat="45.342914387692765" lon="10.659995049868014"><ele>101.0</ele><time>2026-03-30T11:48:44.999Z</time></trkpt><trkpt lat="45.34291067468274" lon="10.660097391212195"><ele>101.0</ele><time>2026-03-30T11:48:45.999Z</time></trkpt><trkpt lat="45.342859301130204" lon="10.66021653919326"><ele>101.0</ele><time>2026-03-30T11:48:47.999Z</time></trkpt><trkpt lat="45.34275739020124" lon="10.660282626230618"><ele>101.0</ele><time>2026-03-30T11:48:49.999Z</time></trkpt><trkpt lat="45.342703815760906" lon="10.660422695307979"><ele>101.0</ele><time>2026-03-30T11:48:51.999Z</time></trkpt><trkpt lat="45.34272769411217" lon="10.66053678794465"><ele>101.0</ele><time>2026-03-30T11:48:52.999Z</time></trkpt><trkpt lat="45.34275530120513" lon="10.660699779901837"><ele>101.0</ele><time>2026-03-30T11:48:53.999Z</time></trkpt><trkpt lat="45.34279075549668" lon="10.660853106060141"><ele>101.0</ele><time>2026-03-30T11:48:54.999Z</time></trkpt><trkpt lat="45.34282450248174" lon="10.661135487912919"><ele>101.25</ele><time>2026-03-30T11:48:55.999Z</time></trkpt><trkpt lat="45.342861684609105" lon="10.661320136538373"><ele>101.5</ele><time>2026-03-30T11:48:56.999Z</time></trkpt><trkpt lat="45.34290114332559" lon="10.661511358045873"><ele>101.75</ele><time>2026-03-30T11:48:57.999Z</time></trkpt><trkpt lat="45.34293421565908" lon="10.66168141064407"><ele>102.0</ele><time>2026-03-30T11:48:58.999Z</time></trkpt><trkpt lat="45.34296737530917" lon="10.661853743217039"><ele>102.0</ele><time>2026-03-30T11:48:59.999Z</time></trkpt><trkpt lat="45.342996959193655" lon="10.662019311104435"><ele>102.0</ele><time>2026-03-30T11:49:00.999Z</time></trkpt><trkpt lat="45.343021807033026" lon="10.662178231466612"><ele>102.0</ele><time>2026-03-30T11:49:01.999Z</time></trkpt><trkpt lat="45.343044313423974" lon="10.66234790646669"><ele>102.0</ele><time>2026-03-30T11:49:02.999Z</time></trkpt><trkpt lat="45.34304465013864" lon="10.662522010712864"><ele>102.0</ele><time>2026-03-30T11:49:03.999Z</time></trkpt><trkpt lat="45.3430296764672" lon="10.66270060712016"><ele>102.0</ele><time>2026-03-30T11:49:04.999Z</time></trkpt><trkpt lat="45.34301589507473" lon="10.662859141297837"><ele>102.0</ele><time>2026-03-30T11:49:05.999Z</time></trkpt><trkpt lat="45.34299919117618" lon="10.662988422848793"><ele>102.0</ele><time>2026-03-30T11:49:06.999Z</time></trkpt><trkpt lat="45.34297919820135" lon="10.663130017325983"><ele>102.0</ele><time>2026-03-30T11:49:08.998Z</time></trkpt><trkpt lat="45.34291594137254" lon="10.663229942386979"><ele>101.25</ele><time>2026-03-30T11:49:11.998Z</time></trkpt><trkpt lat="45.34278730317632" lon="10.663287220067282"><ele>100.5</ele><time>2026-03-30T11:49:13.998Z</time></trkpt><trkpt lat="45.34266292188862" lon="10.66333457255275"><ele>99.75</ele><time>2026-03-30T11:49:14.998Z</time></trkpt><trkpt lat="45.34255708362866" lon="10.66336158856196"><ele>99.0</ele><time>2026-03-30T11:49:15.998Z</time></trkpt><trkpt lat="45.34244929935512" lon="10.663382302257151"><ele>99.0</ele><time>2026-03-30T11:49:16.998Z</time></trkpt><trkpt lat="45.342301558694324" lon="10.663380838648292"><ele>99.0</ele><time>2026-03-30T11:49:17.998Z</time></trkpt><trkpt lat="45.342186339094056" lon="10.663391182077419"><ele>99.0</ele><time>2026-03-30T11:49:18.998Z</time></trkpt><trkpt lat="45.34207284953012" lon="10.663412932129265"><ele>99.0</ele><time>2026-03-30T11:49:19.998Z</time></trkpt><trkpt lat="45.34195519892701" lon="10.663472699979907"><ele>98.75</ele><time>2026-03-30T11:49:21Z</time></trkpt><trkpt lat="45.341835099599685" lon="10.66356635965187"><ele>98.5</ele><time>2026-03-30T11:49:22Z</time></trkpt><trkpt lat="45.34173575596508" lon="10.6636330965487"><ele>98.25</ele><time>2026-03-30T11:49:23Z</time></trkpt><trkpt lat="45.34162810000612" lon="10.663686764959595"><ele>98.0</ele><time>2026-03-30T11:49:24Z</time></trkpt><trkpt lat="45.341532409769314" lon="10.663708143896649"><ele>98.0</ele><time>2026-03-30T11:49:25Z</time></trkpt><trkpt lat="45.341406955560934" lon="10.663728585924401"><ele>98.0</ele><time>2026-03-30T11:49:26Z</time></trkpt><trkpt lat="45.34128450850129" lon="10.663739177435996"><ele>98.0</ele><time>2026-03-30T11:49:27Z</time></trkpt><trkpt lat="45.34113928234278" lon="10.663746159742969"><ele>98.0</ele><time>2026-03-30T11:49:28Z</time></trkpt><trkpt lat="45.34100486199332" lon="10.663780324713384"><ele>97.5</ele><time>2026-03-30T11:49:29Z</time></trkpt><trkpt lat="45.34085606818646" lon="10.663855124756669"><ele>97.0</ele><time>2026-03-30T11:49:30Z</time></trkpt><trkpt lat="45.340717610216636" lon="10.663948073640634"><ele>96.5</ele><time>2026-03-30T11:49:31Z</time></trkpt><trkpt lat="45.340604485614975" lon="10.664042882787664"><ele>96.0</ele><time>2026-03-30T11:49:32Z</time></trkpt><trkpt lat="45.340502383961535" lon="10.664122620030643"><ele>95.8</ele><time>2026-03-30T11:49:33Z</time></trkpt><trkpt lat="45.34038846091671" lon="10.664156097254708"><ele>95.6</ele><time>2026-03-30T11:49:34Z</time></trkpt><trkpt lat="45.34028466645087" lon="10.664210237191222"><ele>95.4</ele><time>2026-03-30T11:49:35Z</time></trkpt><trkpt lat="45.34017999716462" lon="10.664251451545253"><ele>95.2</ele><time>2026-03-30T11:49:36Z</time></trkpt><trkpt lat="45.34007999416683" lon="10.664283354129978"><ele>95.0</ele><time>2026-03-30T11:49:37Z</time></trkpt><trkpt lat="45.33998515754264" lon="10.664310635898554"><ele>95.0</ele><time>2026-03-30T11:49:38Z</time></trkpt><trkpt lat="45.33990034257404" lon="10.66433554257199"><ele>95.0</ele><time>2026-03-30T11:49:39Z</time></trkpt><trkpt lat="45.3398179341007" lon="10.664359989893184"><ele>95.0</ele><time>2026-03-30T11:49:40Z</time></trkpt><trkpt lat="45.33973715180173" lon="10.664384579228194"><ele>95.0</ele><time>2026-03-30T11:49:41Z</time></trkpt><trkpt lat="45.339652641850606" lon="10.664435049941197"><ele>95.0</ele><time>2026-03-30T11:49:42Z</time></trkpt><trkpt lat="45.33956737628808" lon="10.664470627083173"><ele>95.0</ele><time>2026-03-30T11:49:43Z</time></trkpt><trkpt lat="45.33949559354445" lon="10.664513602871695"><ele>94.8</ele><time>2026-03-30T11:49:44Z</time></trkpt><trkpt lat="45.33941408313198" lon="10.66456421213254"><ele>94.6</ele><time>2026-03-30T11:49:46Z</time></trkpt><trkpt lat="45.339497074158224" lon="10.664751939151303"><ele>94.4</ele><time>2026-03-30T11:49:49Z</time></trkpt><trkpt lat="45.33959408383418" lon="10.664795263516604"><ele>94.2</ele><time>2026-03-30T11:49:50.999Z</time></trkpt><trkpt lat="45.339648987603624" lon="10.6648441595649"><ele>94.0</ele><time>2026-03-30T11:49:52.999Z</time></trkpt><trkpt lat="45.339717394103836" lon="10.664848919788382"><ele>94.0</ele><time>2026-03-30T11:49:57.999Z</time></trkpt><trkpt lat="45.33966040581361" lon="10.664808895898435"><ele>94.0</ele><time>2026-03-30T11:50:00.999Z</time></trkpt><trkpt lat="45.33959256317573" lon="10.664443135488902"><ele>94.0</ele><time>2026-03-30T11:50:01.999Z</time></trkpt><trkpt lat="45.339477771986196" lon="10.664381378939684"><ele>94.0</ele><time>2026-03-30T11:50:02.999Z</time></trkpt><trkpt lat="45.3393347830753" lon="10.664357936725072"><ele>94.0</ele><time>2026-03-30T11:50:03.999Z</time></trkpt><trkpt lat="45.339185369408675" lon="10.66452154193721"><ele>94.0</ele><time>2026-03-30T11:50:04.999Z</time></trkpt><trkpt lat="45.3390559104606" lon="10.66448945491238"><ele>94.0</ele><time>2026-03-30T11:50:05.999Z</time></trkpt><trkpt lat="45.33892073915494" lon="10.664469008079974"><ele>94.0</ele><time>2026-03-30T11:50:06.999Z</time></trkpt><trkpt lat="45.33879485842524" lon="10.66445975942737"><ele>94.0</ele><time>2026-03-30T11:50:07.999Z</time></trkpt><trkpt lat="45.33869050311983" lon="10.66446325648152"><ele>94.0</ele><time>2026-03-30T11:50:08.999Z</time></trkpt><trkpt lat="45.338619812390455" lon="10.664470895757612"><ele>94.0</ele><time>2026-03-30T11:50:09.999Z</time></trkpt><trkpt lat="45.3385889012574" lon="10.664717807922207"><ele>93.83333333333333</ele><time>2026-03-30T11:50:14.999Z</time></trkpt><trkpt lat="45.33857762385723" lon="10.664849087476709"><ele>93.66666666666666</ele><time>2026-03-30T11:50:15.999Z</time></trkpt><trkpt lat="45.3385819874706" lon="10.6649656757298"><ele>93.5</ele><time>2026-03-30T11:50:16.999Z</time></trkpt><trkpt lat="45.33859748302755" lon="10.665067875221558"><ele>93.33333333333333</ele><time>2026-03-30T11:50:17.999Z</time></trkpt><trkpt lat="45.3385973727982" lon="10.665164211749724"><ele>93.16666666666667</ele><time>2026-03-30T11:50:18.999Z</time></trkpt><trkpt lat="45.33859739449257" lon="10.665256531720331"><ele>93.0</ele><time>2026-03-30T11:50:19.999Z</time></trkpt><trkpt lat="45.33859870857913" lon="10.665355823167651"><ele>93.0</ele><time>2026-03-30T11:50:20.999Z</time></trkpt><trkpt lat="45.33859941144367" lon="10.665460810662047"><ele>93.0</ele><time>2026-03-30T11:50:21.999Z</time></trkpt><trkpt lat="45.33860260511281" lon="10.665553909462524"><ele>93.0</ele><time>2026-03-30T11:50:22.999Z</time></trkpt><trkpt lat="45.33859918640229" lon="10.665735586715229"><ele>93.0</ele><time>2026-03-30T11:50:24.999Z</time></trkpt><trkpt lat="45.33859989498979" lon="10.665837292699084"><ele>93.0</ele><time>2026-03-30T11:50:25.999Z</time></trkpt><trkpt lat="45.33860295153336" lon="10.666002799310522"><ele>92.60000000000001</ele><time>2026-03-30T11:50:27.999Z</time></trkpt><trkpt lat="45.338601375724764" lon="10.666123061090254"><ele>92.2</ele><time>2026-03-30T11:50:29.999Z</time></trkpt><trkpt lat="45.33860774510494" lon="10.666257618093411"><ele>91.8</ele><time>2026-03-30T11:50:31.999Z</time></trkpt><trkpt lat="45.33860494460295" lon="10.666361277928567"><ele>91.4</ele><time>2026-03-30T11:50:32.999Z</time></trkpt><trkpt lat="45.33860167686363" lon="10.66649493618273"><ele>91.0</ele><time>2026-03-30T11:50:33.999Z</time></trkpt><trkpt lat="45.33859084759551" lon="10.666658312417477"><ele>91.0</ele><time>2026-03-30T11:50:34.999Z</time></trkpt><trkpt lat="45.33857865760529" lon="10.666824326295355"><ele>91.0</ele><time>2026-03-30T11:50:35.999Z</time></trkpt><trkpt lat="45.338568164677895" lon="10.666996861609098"><ele>91.0</ele><time>2026-03-30T11:50:36.999Z</time></trkpt><trkpt lat="45.338561826085595" lon="10.667171901803705"><ele>91.0</ele><time>2026-03-30T11:50:37.999Z</time></trkpt><trkpt lat="45.33855421970141" lon="10.667309995872383"><ele>90.5</ele><time>2026-03-30T11:50:38.999Z</time></trkpt><trkpt lat="45.33855165545575" lon="10.667453927558553"><ele>90.0</ele><time>2026-03-30T11:50:39.999Z</time></trkpt><trkpt lat="45.33855935983256" lon="10.667572992028987"><ele>89.5</ele><time>2026-03-30T11:50:40.999Z</time></trkpt><trkpt lat="45.33857092424681" lon="10.667686512091423"><ele>89.0</ele><time>2026-03-30T11:50:41.999Z</time></trkpt><trkpt lat="45.33858863985475" lon="10.667806795514212"><ele>88.5</ele><time>2026-03-30T11:50:42.999Z</time></trkpt><trkpt lat="45.33858060795629" lon="10.667932452334536"><ele>88.0</ele><time>2026-03-30T11:50:43.999Z</time></trkpt><trkpt lat="45.338567369273306" lon="10.668087896925469"><ele>87.25</ele><time>2026-03-30T11:50:44.999Z</time></trkpt><trkpt lat="45.33854974551537" lon="10.668270631059713"><ele>86.5</ele><time>2026-03-30T11:50:45.999Z</time></trkpt><trkpt lat="45.338533519168" lon="10.668465995423212"><ele>85.75</ele><time>2026-03-30T11:50:46.999Z</time></trkpt><trkpt lat="45.338521418093784" lon="10.668632081932564"><ele>85.0</ele><time>2026-03-30T11:50:47.999Z</time></trkpt><trkpt lat="45.33850863332993" lon="10.668798024081573"><ele>85.0</ele><time>2026-03-30T11:50:48.998Z</time></trkpt><trkpt lat="45.338481711656605" lon="10.668947037937265"><ele>85.0</ele><time>2026-03-30T11:50:49.998Z</time></trkpt><trkpt lat="45.33842528293122" lon="10.669108703589313"><ele>85.0</ele><time>2026-03-30T11:50:50.998Z</time></trkpt><trkpt lat="45.338354760402375" lon="10.669253842642071"><ele>85.0</ele><time>2026-03-30T11:50:51.998Z</time></trkpt><trkpt lat="45.338290356661616" lon="10.669364606168656"><ele>85.2</ele><time>2026-03-30T11:50:52.998Z</time></trkpt><trkpt lat="45.33821989786636" lon="10.669475264279715"><ele>85.4</ele><time>2026-03-30T11:50:53.998Z</time></trkpt><trkpt lat="45.338143197739015" lon="10.669592572682479"><ele>85.6</ele><time>2026-03-30T11:50:54.998Z</time></trkpt><trkpt lat="45.338056982200754" lon="10.669701503676432"><ele>85.8</ele><time>2026-03-30T11:50:55.998Z</time></trkpt><trkpt lat="45.33797384617038" lon="10.669814211464603"><ele>86.0</ele><time>2026-03-30T11:50:56.998Z</time></trkpt><trkpt lat="45.337886229886394" lon="10.669945101379483"><ele>86.0</ele><time>2026-03-30T11:50:57.998Z</time></trkpt><trkpt lat="45.33781451570056" lon="10.670089056083084"><ele>86.0</ele><time>2026-03-30T11:50:58.998Z</time></trkpt><trkpt lat="45.33779135087774" lon="10.67022351516058"><ele>86.0</ele><time>2026-03-30T11:50:59.998Z</time></trkpt><trkpt lat="45.33776426957117" lon="10.670367153110021"><ele>86.0</ele><time>2026-03-30T11:51:00.998Z</time></trkpt><trkpt lat="45.33774389527384" lon="10.670465543539674"><ele>86.0</ele><time>2026-03-30T11:51:01.998Z</time></trkpt><trkpt lat="45.3376987760682" lon="10.670555025845092"><ele>85.83333333333334</ele><time>2026-03-30T11:51:02.998Z</time></trkpt><trkpt lat="45.33763455804589" lon="10.670608049387312"><ele>85.66666666666667</ele><time>2026-03-30T11:51:03.998Z</time></trkpt><trkpt lat="45.33756173334978" lon="10.670631869894027"><ele>85.5</ele><time>2026-03-30T11:51:04.998Z</time></trkpt><trkpt lat="45.33748377006562" lon="10.670637537083767"><ele>85.33333333333333</ele><time>2026-03-30T11:51:05.998Z</time></trkpt><trkpt lat="45.337381989826206" lon="10.670618596472698"><ele>85.16666666666666</ele><time>2026-03-30T11:51:06.998Z</time></trkpt><trkpt lat="45.33727680492001" lon="10.670596006805587"><ele>85.0</ele><time>2026-03-30T11:51:07.998Z</time></trkpt><trkpt lat="45.33716796881165" lon="10.670567267616928"><ele>85.0</ele><time>2026-03-30T11:51:08.998Z</time></trkpt><trkpt lat="45.3370662530223" lon="10.67053971328302"><ele>85.0</ele><time>2026-03-30T11:51:09.998Z</time></trkpt><trkpt lat="45.33696922836123" lon="10.670500314577666"><ele>85.0</ele><time>2026-03-30T11:51:10.998Z</time></trkpt><trkpt lat="45.336896977301336" lon="10.670459431437852"><ele>85.0</ele><time>2026-03-30T11:51:11.998Z</time></trkpt><trkpt lat="45.336825852131994" lon="10.670401798155686"><ele>85.0</ele><time>2026-03-30T11:51:12.998Z</time></trkpt><trkpt lat="45.336764567032915" lon="10.670329415098944"><ele>85.0</ele><time>2026-03-30T11:51:13.998Z</time></trkpt><trkpt lat="45.33668472120746" lon="10.670196786675266"><ele>85.0</ele><time>2026-03-30T11:51:15.998Z</time></trkpt><trkpt lat="45.336610388839254" lon="10.670166095016052"><ele>85.0</ele><time>2026-03-30T11:51:16.998Z</time></trkpt><trkpt lat="45.33651027829154" lon="10.670169400347143"><ele>85.0</ele><time>2026-03-30T11:51:17.998Z</time></trkpt><trkpt lat="45.33640894238149" lon="10.670218018366585"><ele>85.0</ele><time>2026-03-30T11:51:18.998Z</time></trkpt><trkpt lat="45.336298640168884" lon="10.670306451122526"><ele>85.0</ele><time>2026-03-30T11:51:19.998Z</time></trkpt><trkpt lat="45.33619084747363" lon="10.670390019514887"><ele>85.2</ele><time>2026-03-30T11:51:20.998Z</time></trkpt><trkpt lat="45.336102396748316" lon="10.670456088421474"><ele>85.4</ele><time>2026-03-30T11:51:21.998Z</time></trkpt><trkpt lat="45.33602828294573" lon="10.67052493292071"><ele>85.6</ele><time>2026-03-30T11:51:22.998Z</time></trkpt><trkpt lat="45.33595657466458" lon="10.67059550485698"><ele>85.8</ele><time>2026-03-30T11:51:23.998Z</time></trkpt><trkpt lat="45.33588493430246" lon="10.670677447434734"><ele>86.0</ele><time>2026-03-30T11:51:24.998Z</time></trkpt><trkpt lat="45.335816192102484" lon="10.670798793623263"><ele>86.0</ele><time>2026-03-30T11:51:25.998Z</time></trkpt><trkpt lat="45.335751689253044" lon="10.670959577344243"><ele>86.0</ele><time>2026-03-30T11:51:27Z</time></trkpt><trkpt lat="45.335675366208406" lon="10.671111310072106"><ele>86.0</ele><time>2026-03-30T11:51:28Z</time></trkpt><trkpt lat="45.33560491872747" lon="10.671238235961496"><ele>86.0</ele><time>2026-03-30T11:51:29Z</time></trkpt><trkpt lat="45.33554082865762" lon="10.671394061864778"><ele>85.66666666666667</ele><time>2026-03-30T11:51:30Z</time></trkpt><trkpt lat="45.335500329929594" lon="10.671523866746284"><ele>85.33333333333334</ele><time>2026-03-30T11:51:31Z</time></trkpt><trkpt lat="45.33547345116828" lon="10.671646457839568"><ele>85.0</ele><time>2026-03-30T11:51:32Z</time></trkpt><trkpt lat="45.33544918309217" lon="10.671755854919118"><ele>84.66666666666667</ele><time>2026-03-30T11:51:33Z</time></trkpt><trkpt lat="45.335422961168106" lon="10.671846860877812"><ele>84.33333333333333</ele><time>2026-03-30T11:51:34Z</time></trkpt><trkpt lat="45.33539360627449" lon="10.671980009469067"><ele>84.0</ele><time>2026-03-30T11:51:36Z</time></trkpt><trkpt lat="45.335368408910206" lon="10.672107011122312"><ele>84.0</ele><time>2026-03-30T11:51:39Z</time></trkpt><trkpt lat="45.335495785881996" lon="10.672188101984736"><ele>84.0</ele><time>2026-03-30T11:51:40Z</time></trkpt><trkpt lat="45.33557472984654" lon="10.672264948579508"><ele>84.0</ele><time>2026-03-30T11:51:41Z</time></trkpt><trkpt lat="45.33566629337391" lon="10.672349898484226"><ele>84.0</ele><time>2026-03-30T11:51:42Z</time></trkpt><trkpt lat="45.33577120566048" lon="10.672439265738813"><ele>84.0</ele><time>2026-03-30T11:51:43Z</time></trkpt><trkpt lat="45.335876924853665" lon="10.67254515317651"><ele>84.0</ele><time>2026-03-30T11:51:44Z</time></trkpt><trkpt lat="45.335996039795575" lon="10.672651926261894"><ele>84.0</ele><time>2026-03-30T11:51:45Z</time></trkpt><trkpt lat="45.33613638476271" lon="10.672765392524035"><ele>84.0</ele><time>2026-03-30T11:51:46Z</time></trkpt><trkpt lat="45.33629064639322" lon="10.67288177767019"><ele>84.33333333333333</ele><time>2026-03-30T11:51:47Z</time></trkpt><trkpt lat="45.33644973536905" lon="10.672991428365052"><ele>84.66666666666666</ele><time>2026-03-30T11:51:48Z</time></trkpt><trkpt lat="45.33663381359435" lon="10.673086058260006"><ele>85.0</ele><time>2026-03-30T11:51:49Z</time></trkpt><trkpt lat="45.33686519464891" lon="10.673181553621413"><ele>85.0</ele><time>2026-03-30T11:51:50Z</time></trkpt><trkpt lat="45.33712911908511" lon="10.6732829143537"><ele>85.0</ele><time>2026-03-30T11:51:51Z</time></trkpt><trkpt lat="45.3374062825375" lon="10.67339843828019"><ele>86.0</ele><time>2026-03-30T11:51:52Z</time></trkpt><trkpt lat="45.33767808637676" lon="10.673517586277754"><ele>87.0</ele><time>2026-03-30T11:51:53Z</time></trkpt><trkpt lat="45.33793120598832" lon="10.67363105333378"><ele>88.0</ele><time>2026-03-30T11:51:54Z</time></trkpt><trkpt lat="45.33817164198929" lon="10.673734567229191"><ele>89.0</ele><time>2026-03-30T11:51:55Z</time></trkpt><trkpt lat="45.33840336534269" lon="10.673827691725938"><ele>89.0</ele><time>2026-03-30T11:51:56Z</time></trkpt><trkpt lat="45.33863243728838" lon="10.673918836148545"><ele>89.0</ele><time>2026-03-30T11:51:57Z</time></trkpt><trkpt lat="45.33884934782071" lon="10.674005297932785"><ele>89.66666666666667</ele><time>2026-03-30T11:51:58Z</time></trkpt><trkpt lat="45.33906196359565" lon="10.674088696374245"><ele>90.33333333333333</ele><time>2026-03-30T11:51:59Z</time></trkpt><trkpt lat="45.33927093912351" lon="10.674176533583232"><ele>91.0</ele><time>2026-03-30T11:52:00Z</time></trkpt><trkpt lat="45.33949715893141" lon="10.674281593825404"><ele>92.0</ele><time>2026-03-30T11:52:01Z</time></trkpt><trkpt lat="45.33975027330901" lon="10.67440532119788"><ele>93.0</ele><time>2026-03-30T11:52:02Z</time></trkpt><trkpt lat="45.34000754988281" lon="10.674564007580749"><ele>93.0</ele><time>2026-03-30T11:52:03Z</time></trkpt><trkpt lat="45.340247270014245" lon="10.674735158441129"><ele>93.0</ele><time>2026-03-30T11:52:04Z</time></trkpt><trkpt lat="45.34045375722598" lon="10.674894431759927"><ele>93.33333333333333</ele><time>2026-03-30T11:52:05Z</time></trkpt><trkpt lat="45.340642695894246" lon="10.675036821774514"><ele>93.66666666666666</ele><time>2026-03-30T11:52:06Z</time></trkpt><trkpt lat="45.34082168955577" lon="10.675167399264163"><ele>94.0</ele><time>2026-03-30T11:52:07Z</time></trkpt><trkpt lat="45.34097850679104" lon="10.67528195488825"><ele>94.0</ele><time>2026-03-30T11:52:08Z</time></trkpt><trkpt lat="45.341114091705656" lon="10.67538126948487"><ele>94.0</ele><time>2026-03-30T11:52:09Z</time></trkpt><trkpt lat="45.34123105142873" lon="10.675464243358526"><ele>94.0</ele><time>2026-03-30T11:52:10Z</time></trkpt><trkpt lat="45.34133140401702" lon="10.675538457080862"><ele>94.0</ele><time>2026-03-30T11:52:11Z</time></trkpt><trkpt lat="45.341406376160705" lon="10.675614253721976"><ele>94.25</ele><time>2026-03-30T11:52:12Z</time></trkpt><trkpt lat="45.341500764833796" lon="10.675672075379183"><ele>94.5</ele><time>2026-03-30T11:52:13Z</time></trkpt><trkpt lat="45.341515447474755" lon="10.675840553943429"><ele>94.75</ele><time>2026-03-30T11:52:14Z</time></trkpt><trkpt lat="45.34155932808711" lon="10.676006352488027"><ele>95.0</ele><time>2026-03-30T11:52:14.999Z</time></trkpt><trkpt lat="45.341622616718574" lon="10.676204526574093"><ele>95.0</ele><time>2026-03-30T11:52:15.999Z</time></trkpt><trkpt lat="45.34171343323199" lon="10.676444326385413"><ele>95.0</ele><time>2026-03-30T11:52:16.999Z</time></trkpt><trkpt lat="45.34182078676682" lon="10.676704237072968"><ele>95.0</ele><time>2026-03-30T11:52:17.999Z</time></trkpt><trkpt lat="45.34191003998198" lon="10.676929980222846"><ele>95.0</ele><time>2026-03-30T11:52:18.999Z</time></trkpt><trkpt lat="45.34199093174426" lon="10.677133368964682"><ele>95.0</ele><time>2026-03-30T11:52:19.999Z</time></trkpt><trkpt lat="45.34207331820828" lon="10.677336431742702"><ele>95.0</ele><time>2026-03-30T11:52:20.999Z</time></trkpt><trkpt lat="45.34215059227821" lon="10.677535072328286"><ele>95.33333333333334</ele><time>2026-03-30T11:52:21.999Z</time></trkpt><trkpt lat="45.342231439862395" lon="10.677728763882541"><ele>95.66666666666667</ele><time>2026-03-30T11:52:22.999Z</time></trkpt><trkpt lat="45.34231766878402" lon="10.677905058958135"><ele>96.0</ele><time>2026-03-30T11:52:23.999Z</time></trkpt><trkpt lat="45.342414449639065" lon="10.678066877540354"><ele>96.0</ele><time>2026-03-30T11:52:24.999Z</time></trkpt><trkpt lat="45.3425134890812" lon="10.678219716458411"><ele>96.0</ele><time>2026-03-30T11:52:25.999Z</time></trkpt><trkpt lat="45.34260348811692" lon="10.678370205040583"><ele>96.0</ele><time>2026-03-30T11:52:26.999Z</time></trkpt><trkpt lat="45.342684292859964" lon="10.678524320107146"><ele>96.0</ele><time>2026-03-30T11:52:27.999Z</time></trkpt><trkpt lat="45.34278114652468" lon="10.678668783438312"><ele>96.6</ele><time>2026-03-30T11:52:28.999Z</time></trkpt><trkpt lat="45.34286056508831" lon="10.678809949369276"><ele>97.19999999999999</ele><time>2026-03-30T11:52:29.999Z</time></trkpt><trkpt lat="45.342928943076295" lon="10.678933846166434"><ele>97.80000000000001</ele><time>2026-03-30T11:52:30.999Z</time></trkpt><trkpt lat="45.342983054813914" lon="10.679046851694833"><ele>98.4</ele><time>2026-03-30T11:52:31.999Z</time></trkpt><trkpt lat="45.343032287601616" lon="10.679143800149188"><ele>99.0</ele><time>2026-03-30T11:52:32.999Z</time></trkpt><trkpt lat="45.343066117862726" lon="10.679251187640423"><ele>100.4</ele><time>2026-03-30T11:52:33.999Z</time></trkpt><trkpt lat="45.34310676335044" lon="10.67935033884123"><ele>101.80000000000001</ele><time>2026-03-30T11:52:34.999Z</time></trkpt><trkpt lat="45.34315401302195" lon="10.679465600346449"><ele>103.19999999999999</ele><time>2026-03-30T11:52:35.999Z</time></trkpt><trkpt lat="45.34328824929498" lon="10.679511622941083"><ele>104.6</ele><time>2026-03-30T11:52:36.999Z</time></trkpt><trkpt lat="45.34333958552046" lon="10.679613359649581"><ele>106.0</ele><time>2026-03-30T11:52:37.999Z</time></trkpt><trkpt lat="45.343386291826654" lon="10.679698463460813"><ele>106.16666666666667</ele><time>2026-03-30T11:52:38.999Z</time></trkpt><trkpt lat="45.343443994093995" lon="10.679834612493284"><ele>106.33333333333334</ele><time>2026-03-30T11:52:40.999Z</time></trkpt><trkpt lat="45.3434528308063" lon="10.67993089515984"><ele>106.5</ele><time>2026-03-30T11:52:41.999Z</time></trkpt><trkpt lat="45.34340752914947" lon="10.680087675421184"><ele>106.66666666666666</ele><time>2026-03-30T11:52:43.999Z</time></trkpt><trkpt lat="45.34336430572315" lon="10.680167505605958"><ele>106.83333333333333</ele><time>2026-03-30T11:52:44.999Z</time></trkpt><trkpt lat="45.34331392650072" lon="10.680253389587955"><ele>107.0</ele><time>2026-03-30T11:52:45.999Z</time></trkpt><trkpt lat="45.34324889849215" lon="10.680363639000724"><ele>106.6</ele><time>2026-03-30T11:52:46.999Z</time></trkpt><trkpt lat="45.34319008111591" lon="10.680493269636825"><ele>106.19999999999999</ele><time>2026-03-30T11:52:47.999Z</time></trkpt><trkpt lat="45.34312768866086" lon="10.680637483214944"><ele>105.8</ele><time>2026-03-30T11:52:48.999Z</time></trkpt><trkpt lat="45.343076094285344" lon="10.680784914937087"><ele>105.4</ele><time>2026-03-30T11:52:49.999Z</time></trkpt><trkpt lat="45.343032612696035" lon="10.68090385548209"><ele>105.0</ele><time>2026-03-30T11:52:50.999Z</time></trkpt><trkpt lat="45.342997658552264" lon="10.681033260303499"><ele>104.83333333333333</ele><time>2026-03-30T11:52:51.999Z</time></trkpt><trkpt lat="45.3429649632974" lon="10.681119541180763"><ele>104.66666666666666</ele><time>2026-03-30T11:52:52.999Z</time></trkpt><trkpt lat="45.3429281408644" lon="10.681193376058001"><ele>104.5</ele><time>2026-03-30T11:52:53.999Z</time></trkpt><trkpt lat="45.34285729577787" lon="10.681292845760398"><ele>104.33333333333333</ele><time>2026-03-30T11:52:55.999Z</time></trkpt><trkpt lat="45.34281099226228" lon="10.681375366470373"><ele>104.16666666666666</ele><time>2026-03-30T11:52:56.999Z</time></trkpt><trkpt lat="45.342768311308426" lon="10.681487066052304"><ele>104.0</ele><time>2026-03-30T11:52:57.999Z</time></trkpt><trkpt lat="45.34272897069055" lon="10.68160952785931"><ele>104.0</ele><time>2026-03-30T11:52:58.999Z</time></trkpt><trkpt lat="45.34268360680049" lon="10.681729132894901"><ele>104.0</ele><time>2026-03-30T11:52:59.999Z</time></trkpt><trkpt lat="45.34263725316308" lon="10.681863063262536"><ele>104.0</ele><time>2026-03-30T11:53:00.999Z</time></trkpt><trkpt lat="45.34259931050784" lon="10.681981913336331"><ele>104.0</ele><time>2026-03-30T11:53:01.999Z</time></trkpt><trkpt lat="45.34256830599059" lon="10.682089038464955"><ele>104.0</ele><time>2026-03-30T11:53:02.999Z</time></trkpt><trkpt lat="45.34254498105951" lon="10.682210329016945"><ele>103.80000000000001</ele><time>2026-03-30T11:53:03.999Z</time></trkpt><trkpt lat="45.342510046154636" lon="10.68234857594227"><ele>103.60000000000001</ele><time>2026-03-30T11:53:04.999Z</time></trkpt><trkpt lat="45.34245855426115" lon="10.682480726142055"><ele>103.4</ele><time>2026-03-30T11:53:05.999Z</time></trkpt><trkpt lat="45.34239868636804" lon="10.682606319839996"><ele>103.2</ele><time>2026-03-30T11:53:06.999Z</time></trkpt><trkpt lat="45.342343489163746" lon="10.682733185370546"><ele>103.0</ele><time>2026-03-30T11:53:07.999Z</time></trkpt><trkpt lat="45.34230419520625" lon="10.682888478524921"><ele>102.80000000000001</ele><time>2026-03-30T11:53:08.999Z</time></trkpt><trkpt lat="45.34226720050356" lon="10.683046357189507"><ele>102.6</ele><time>2026-03-30T11:53:09.999Z</time></trkpt><trkpt lat="45.34223166706952" lon="10.683194965799377"><ele>102.4</ele><time>2026-03-30T11:53:10.999Z</time></trkpt><trkpt lat="45.34220102237802" lon="10.683337001433994"><ele>102.19999999999999</ele><time>2026-03-30T11:53:11.999Z</time></trkpt><trkpt lat="45.342183135661244" lon="10.683435455591592"><ele>102.0</ele><time>2026-03-30T11:53:12.999Z</time></trkpt><trkpt lat="45.3421440600926" lon="10.683551305210198"><ele>102.5</ele><time>2026-03-30T11:53:14.999Z</time></trkpt><trkpt lat="45.34206235367231" lon="10.683575870318958"><ele>103.0</ele><time>2026-03-30T11:53:17.999Z</time></trkpt><trkpt lat="45.34194898510831" lon="10.683544518862645"><ele>103.5</ele><time>2026-03-30T11:53:19.999Z</time></trkpt><trkpt lat="45.34188221838596" lon="10.683522678683277"><ele>104.0</ele><time>2026-03-30T11:53:20.999Z</time></trkpt><trkpt lat="45.3417750434689" lon="10.68352153613985"><ele>104.5</ele><time>2026-03-30T11:53:22.999Z</time></trkpt><trkpt lat="45.34170795722865" lon="10.683508761782601"><ele>105.0</ele><time>2026-03-30T11:53:23.999Z</time></trkpt><trkpt lat="45.341635302103334" lon="10.683458798660034"><ele>105.0</ele><time>2026-03-30T11:53:24.999Z</time></trkpt><trkpt lat="45.34155283165613" lon="10.683377671839754"><ele>105.0</ele><time>2026-03-30T11:53:25.998Z</time></trkpt><trkpt lat="45.34146021669538" lon="10.683273940821444"><ele>105.0</ele><time>2026-03-30T11:53:26.998Z</time></trkpt><trkpt lat="45.34135843595377" lon="10.683177401509912"><ele>105.0</ele><time>2026-03-30T11:53:27.998Z</time></trkpt><trkpt lat="45.34124245413117" lon="10.683058377802912"><ele>102.25</ele><time>2026-03-30T11:53:28.998Z</time></trkpt><trkpt lat="45.34114164723196" lon="10.68295871187998"><ele>99.5</ele><time>2026-03-30T11:53:29.998Z</time></trkpt><trkpt lat="45.3410374928188" lon="10.682883335919442"><ele>96.75</ele><time>2026-03-30T11:53:30.998Z</time></trkpt><trkpt lat="45.3409281297909" lon="10.682819666555316"><ele>94.0</ele><time>2026-03-30T11:53:32Z</time></trkpt><trkpt lat="45.340827789982306" lon="10.682754030114893"><ele>93.75</ele><time>2026-03-30T11:53:33Z</time></trkpt><trkpt lat="45.340722079123736" lon="10.682672249863336"><ele>93.5</ele><time>2026-03-30T11:53:34Z</time></trkpt><trkpt lat="45.34061311256895" lon="10.682616389123996"><ele>93.25</ele><time>2026-03-30T11:53:35Z</time></trkpt><trkpt lat="45.3404947641483" lon="10.682534661961652"><ele>93.0</ele><time>2026-03-30T11:53:36Z</time></trkpt><trkpt lat="45.340372298197224" lon="10.6824148331366"><ele>92.60000000000001</ele><time>2026-03-30T11:53:37Z</time></trkpt><trkpt lat="45.340263202715974" lon="10.682306694300355"><ele>92.2</ele><time>2026-03-30T11:53:38Z</time></trkpt><trkpt lat="45.340175192149886" lon="10.682228506640781"><ele>91.8</ele><time>2026-03-30T11:53:39Z</time></trkpt><trkpt lat="45.34011757235464" lon="10.68216962995163"><ele>91.4</ele><time>2026-03-30T11:53:40Z</time></trkpt><trkpt lat="45.34005193522773" lon="10.682109453077684"><ele>91.0</ele><time>2026-03-30T11:53:41Z</time></trkpt><trkpt lat="45.33993369148288" lon="10.68210581028935"><ele>91.0</ele><time>2026-03-30T11:53:43Z</time></trkpt><trkpt lat="45.339848765618314" lon="10.68215132632289"><ele>91.0</ele><time>2026-03-30T11:53:44Z</time></trkpt><trkpt lat="45.339749531985966" lon="10.682217141854611"><ele>91.0</ele><time>2026-03-30T11:53:45Z</time></trkpt><trkpt lat="45.33964736362933" lon="10.682296346037983"><ele>91.0</ele><time>2026-03-30T11:53:46Z</time></trkpt><trkpt lat="45.339554855464904" lon="10.682366435730637"><ele>91.0</ele><time>2026-03-30T11:53:47Z</time></trkpt><trkpt lat="45.33945891998265" lon="10.682438581499715"><ele>90.8</ele><time>2026-03-30T11:53:48Z</time></trkpt><trkpt lat="45.33936798311981" lon="10.682504657960536"><ele>90.6</ele><time>2026-03-30T11:53:49Z</time></trkpt><trkpt lat="45.33928062926431" lon="10.682572894716115"><ele>90.4</ele><time>2026-03-30T11:53:50Z</time></trkpt><trkpt lat="45.339181650386095" lon="10.682661822689642"><ele>90.2</ele><time>2026-03-30T11:53:51Z</time></trkpt><trkpt lat="45.33909332906771" lon="10.68274690426278"><ele>90.0</ele><time>2026-03-30T11:53:52Z</time></trkpt><trkpt lat="45.33901796451094" lon="10.68282484835572"><ele>90.0</ele><time>2026-03-30T11:53:53Z</time></trkpt><trkpt lat="45.338961545025924" lon="10.68288775612298"><ele>90.0</ele><time>2026-03-30T11:53:54Z</time></trkpt><trkpt lat="45.338907175840504" lon="10.682946890776602"><ele>90.0</ele><time>2026-03-30T11:53:55Z</time></trkpt><trkpt lat="45.338836310838246" lon="10.68304800847835"><ele>90.0</ele><time>2026-03-30T11:53:57Z</time></trkpt><trkpt lat="45.33877849818356" lon="10.683142597042417"><ele>90.0</ele><time>2026-03-30T11:54:01Z</time></trkpt><trkpt lat="45.33869749528019" lon="10.683273782865323"><ele>89.66666666666667</ele><time>2026-03-30T11:54:03Z</time></trkpt><trkpt lat="45.33864488451019" lon="10.683351492910154"><ele>89.33333333333333</ele><time>2026-03-30T11:54:04Z</time></trkpt><trkpt lat="45.33858735903258" lon="10.683440574668166"><ele>89.0</ele><time>2026-03-30T11:54:05Z</time></trkpt><trkpt lat="45.3385274033058" lon="10.6835185904028"><ele>88.66666666666666</ele><time>2026-03-30T11:54:06Z</time></trkpt><trkpt lat="45.33844100274367" lon="10.683656559177797"><ele>88.33333333333333</ele><time>2026-03-30T11:54:08Z</time></trkpt><trkpt lat="45.33839557488028" lon="10.68372525116858"><ele>88.0</ele><time>2026-03-30T11:54:09Z</time></trkpt><trkpt lat="45.33835092074306" lon="10.683806039102237"><ele>87.83333333333333</ele><time>2026-03-30T11:54:10Z</time></trkpt><trkpt lat="45.338301087415154" lon="10.683895722493636"><ele>87.66666666666666</ele><time>2026-03-30T11:54:11Z</time></trkpt><trkpt lat="45.33823910184177" lon="10.68404885313018"><ele>87.5</ele><time>2026-03-30T11:54:13Z</time></trkpt><trkpt lat="45.33820465432333" lon="10.68413000719082"><ele>87.33333333333333</ele><time>2026-03-30T11:54:14Z</time></trkpt><trkpt lat="45.33816516339102" lon="10.684209818737282"><ele>87.16666666666667</ele><time>2026-03-30T11:54:15Z</time></trkpt><trkpt lat="45.338118093923" lon="10.684304867274172"><ele>87.0</ele><time>2026-03-30T11:54:16Z</time></trkpt><trkpt lat="45.33807085631381" lon="10.684408675235803"><ele>87.0</ele><time>2026-03-30T11:54:17Z</time></trkpt><trkpt lat="45.33799604389286" lon="10.684564878118122"><ele>87.0</ele><time>2026-03-30T11:54:19Z</time></trkpt><trkpt lat="45.337936758998566" lon="10.684689481333779"><ele>87.0</ele><time>2026-03-30T11:54:21Z</time></trkpt><trkpt lat="45.33790901808172" lon="10.684796624581407"><ele>87.0</ele><time>2026-03-30T11:54:24Z</time></trkpt><trkpt lat="45.3379703141275" lon="10.684907712881952"><ele>87.0</ele><time>2026-03-30T11:54:27.999Z</time></trkpt><trkpt lat="45.338094776518126" lon="10.684988492256872"><ele>87.0</ele><time>2026-03-30T11:54:29.999Z</time></trkpt><trkpt lat="45.338171142731646" lon="10.685049279154345"><ele>87.0</ele><time>2026-03-30T11:54:30.999Z</time></trkpt><trkpt lat="45.33823928820702" lon="10.68512322812541"><ele>87.0</ele><time>2026-03-30T11:54:31.999Z</time></trkpt><trkpt lat="45.33832335213928" lon="10.685202416839534"><ele>87.0</ele><time>2026-03-30T11:54:32.999Z</time></trkpt><trkpt lat="45.338406363377636" lon="10.685292174079716"><ele>87.0</ele><time>2026-03-30T11:54:33.999Z</time></trkpt><trkpt lat="45.3384937553254" lon="10.685376972066905"><ele>87.16666666666667</ele><time>2026-03-30T11:54:34.999Z</time></trkpt><trkpt lat="45.33856867512167" lon="10.685472336902194"><ele>87.33333333333333</ele><time>2026-03-30T11:54:35.999Z</time></trkpt><trkpt lat="45.33863213948316" lon="10.685553842502546"><ele>87.5</ele><time>2026-03-30T11:54:36.999Z</time></trkpt><trkpt lat="45.338701730386006" lon="10.685638245362043"><ele>87.66666666666666</ele><time>2026-03-30T11:54:37.999Z</time></trkpt><trkpt lat="45.33875462948484" lon="10.685715786777255"><ele>87.83333333333333</ele><time>2026-03-30T11:54:38.999Z</time></trkpt><trkpt lat="45.338796384236126" lon="10.685783642691264"><ele>88.0</ele><time>2026-03-30T11:54:39.999Z</time></trkpt><trkpt lat="45.338874619210365" lon="10.685887385683486"><ele>88.0</ele><time>2026-03-30T11:54:41.999Z</time></trkpt><trkpt lat="45.33893540943192" lon="10.68595811496889"><ele>88.0</ele><time>2026-03-30T11:54:43.999Z</time></trkpt><trkpt lat="45.3389989458721" lon="10.685899820179436"><ele>88.0</ele><time>2026-03-30T11:54:46.999Z</time></trkpt><trkpt lat="45.338966018949534" lon="10.685779645551527"><ele>88.0</ele><time>2026-03-30T11:54:49.999Z</time></trkpt><trkpt lat="45.338891196008554" lon="10.685713520469875"><ele>88.0</ele><time>2026-03-30T11:54:51.999Z</time></trkpt><trkpt lat="45.338801056070636" lon="10.685661543001935"><ele>88.0</ele><time>2026-03-30T11:54:53.999Z</time></trkpt><trkpt lat="45.33872950224764" lon="10.6856121394324"><ele>88.0</ele><time>2026-03-30T11:54:55.999Z</time></trkpt><trkpt lat="45.3386628716741" lon="10.685542500188523"><ele>88.0</ele><time>2026-03-30T11:54:57.999Z</time></trkpt><trkpt lat="45.33858848698043" lon="10.685455999082023"><ele>88.0</ele><time>2026-03-30T11:54:59.999Z</time></trkpt><trkpt lat="45.33852853730489" lon="10.685409001380687"><ele>88.0</ele><time>2026-03-30T11:55:00.999Z</time></trkpt><trkpt lat="45.33844239693556" lon="10.685308139045915"><ele>88.0</ele><time>2026-03-30T11:55:02.999Z</time></trkpt><trkpt lat="45.338374730513884" lon="10.685282325704936"><ele>88.0</ele><time>2026-03-30T11:55:06.999Z</time></trkpt><trkpt lat="45.33834935644979" lon="10.685399974049627"><ele>88.0</ele><time>2026-03-30T11:55:29.999Z</time></trkpt><trkpt lat="45.33830405955851" lon="10.685518340070708"><ele>88.0</ele><time>2026-03-30T11:55:31.999Z</time></trkpt><trkpt lat="45.338265789328936" lon="10.685656021134562"><ele>88.0</ele><time>2026-03-30T11:55:33.999Z</time></trkpt><trkpt lat="45.33819792786029" lon="10.685833639378357"><ele>88.0</ele><time>2026-03-30T11:55:35.998Z</time></trkpt><trkpt lat="45.33814270897929" lon="10.68594854642718"><ele>88.0</ele><time>2026-03-30T11:55:36.998Z</time></trkpt><trkpt lat="45.33810570991189" lon="10.686051736316111"><ele>87.83333333333333</ele><time>2026-03-30T11:55:38Z</time></trkpt><trkpt lat="45.338056106371596" lon="10.686162000309755"><ele>87.66666666666666</ele><time>2026-03-30T11:55:39Z</time></trkpt><trkpt lat="45.33801329103019" lon="10.68626206216446"><ele>87.5</ele><time>2026-03-30T11:55:40Z</time></trkpt><trkpt lat="45.33798281657753" lon="10.686345418914508"><ele>87.33333333333333</ele><time>2026-03-30T11:55:41Z</time></trkpt><trkpt lat="45.337949767722996" lon="10.686437983028565"><ele>87.16666666666667</ele><time>2026-03-30T11:55:42Z</time></trkpt><trkpt lat="45.33789262711547" lon="10.686561180657113"><ele>87.0</ele><time>2026-03-30T11:55:44Z</time></trkpt><trkpt lat="45.33778672043902" lon="10.68657113906968"><ele>86.75</ele><time>2026-03-30T11:55:46Z</time></trkpt><trkpt lat="45.33771501113497" lon="10.686544158206575"><ele>86.5</ele><time>2026-03-30T11:55:47Z</time></trkpt><trkpt lat="45.33759530958124" lon="10.686495406002924"><ele>86.25</ele><time>2026-03-30T11:55:48Z</time></trkpt><trkpt lat="45.33746185081899" lon="10.686447536304659"><ele>86.0</ele><time>2026-03-30T11:55:49Z</time></trkpt><trkpt lat="45.33729805913779" lon="10.686413179746872"><ele>85.66666666666667</ele><time>2026-03-30T11:55:50Z</time></trkpt><trkpt lat="45.33711920164809" lon="10.686382951695768"><ele>85.33333333333333</ele><time>2026-03-30T11:55:51Z</time></trkpt><trkpt lat="45.33695271565654" lon="10.68634283464565"><ele>85.0</ele><time>2026-03-30T11:55:52Z</time></trkpt><trkpt lat="45.33678071813824" lon="10.686298429474368"><ele>85.0</ele><time>2026-03-30T11:55:53Z</time></trkpt><trkpt lat="45.33659751918588" lon="10.6862452236813"><ele>85.0</ele><time>2026-03-30T11:55:54Z</time></trkpt><trkpt lat="45.33642430870462" lon="10.686178314514141"><ele>85.0</ele><time>2026-03-30T11:55:55Z</time></trkpt><trkpt lat="45.33623375416729" lon="10.686096173475255"><ele>84.33333333333333</ele><time>2026-03-30T11:55:56Z</time></trkpt><trkpt lat="45.33605253694997" lon="10.686018082617752"><ele>83.66666666666667</ele><time>2026-03-30T11:55:57Z</time></trkpt><trkpt lat="45.335859365066135" lon="10.685937112273528"><ele>83.0</ele><time>2026-03-30T11:55:58Z</time></trkpt><trkpt lat="45.3356913098371" lon="10.685842753756111"><ele>83.0</ele><time>2026-03-30T11:55:59Z</time></trkpt><trkpt lat="45.335567454865675" lon="10.685753169875879"><ele>83.0</ele><time>2026-03-30T11:56:00Z</time></trkpt><trkpt lat="45.33544849342468" lon="10.685679230006162"><ele>83.0</ele><time>2026-03-30T11:56:01Z</time></trkpt><trkpt lat="45.3353284613776" lon="10.685626156597962"><ele>83.0</ele><time>2026-03-30T11:56:02Z</time></trkpt><trkpt lat="45.33519882223506" lon="10.685597651142471"><ele>82.75</ele><time>2026-03-30T11:56:03Z</time></trkpt><trkpt lat="45.33507115516055" lon="10.685623032201644"><ele>82.5</ele><time>2026-03-30T11:56:04Z</time></trkpt><trkpt lat="45.33495640457731" lon="10.685680723208138"><ele>82.25</ele><time>2026-03-30T11:56:05Z</time></trkpt><trkpt lat="45.334840962047664" lon="10.685722169683046"><ele>82.0</ele><time>2026-03-30T11:56:06Z</time></trkpt><trkpt lat="45.33474189772746" lon="10.685755334721948"><ele>82.19999999999999</ele><time>2026-03-30T11:56:07Z</time></trkpt><trkpt lat="45.334642777426104" lon="10.685760768379163"><ele>82.4</ele><time>2026-03-30T11:56:08Z</time></trkpt><trkpt lat="45.334553201937396" lon="10.685737341523323"><ele>82.6</ele><time>2026-03-30T11:56:09Z</time></trkpt><trkpt lat="45.33446268963236" lon="10.685684382476241"><ele>82.80000000000001</ele><time>2026-03-30T11:56:10Z</time></trkpt><trkpt lat="45.33435463434597" lon="10.68560302082039"><ele>83.0</ele><time>2026-03-30T11:56:12Z</time></trkpt><trkpt lat="45.33426782316398" lon="10.685578501245267"><ele>83.0</ele><time>2026-03-30T11:56:13Z</time></trkpt><trkpt lat="45.33417073917686" lon="10.68557503629271"><ele>83.0</ele><time>2026-03-30T11:56:14Z</time></trkpt><trkpt lat="45.33407466427645" lon="10.685561083460609"><ele>83.0</ele><time>2026-03-30T11:56:15Z</time></trkpt><trkpt lat="45.333963386776716" lon="10.685538686580156"><ele>83.0</ele><time>2026-03-30T11:56:16Z</time></trkpt><trkpt lat="45.333837382438354" lon="10.685521817427613"><ele>83.0</ele><time>2026-03-30T11:56:17Z</time></trkpt><trkpt lat="45.333722802041656" lon="10.685506996396201"><ele>83.80000000000001</ele><time>2026-03-30T11:56:18Z</time></trkpt><trkpt lat="45.333629601631145" lon="10.68548984809965"><ele>84.6</ele><time>2026-03-30T11:56:19Z</time></trkpt><trkpt lat="45.333541660363146" lon="10.685469702441045"><ele>85.4</ele><time>2026-03-30T11:56:20Z</time></trkpt><trkpt lat="45.33344495637952" lon="10.68545020907448"><ele>86.19999999999999</ele><time>2026-03-30T11:56:21Z</time></trkpt><trkpt lat="45.33331129324691" lon="10.685424259941561"><ele>87.0</ele><time>2026-03-30T11:56:22Z</time></trkpt><trkpt lat="45.33317405751697" lon="10.685400221124794"><ele>87.0</ele><time>2026-03-30T11:56:23Z</time></trkpt><trkpt lat="45.33306945208717" lon="10.685373456597734"><ele>87.0</ele><time>2026-03-30T11:56:24Z</time></trkpt><trkpt lat="45.3329841094413" lon="10.685352165435937"><ele>87.0</ele><time>2026-03-30T11:56:25Z</time></trkpt><trkpt lat="45.332910167610514" lon="10.685338548329955"><ele>87.0</ele><time>2026-03-30T11:56:26Z</time></trkpt><trkpt lat="45.33279632011215" lon="10.685318120315348"><ele>87.0</ele><time>2026-03-30T11:56:28Z</time></trkpt><trkpt lat="45.332679214966355" lon="10.685290592935733"><ele>87.16666666666667</ele><time>2026-03-30T11:56:30Z</time></trkpt><trkpt lat="45.3326045628796" lon="10.68528205778031"><ele>87.33333333333333</ele><time>2026-03-30T11:56:31Z</time></trkpt><trkpt lat="45.33252879313771" lon="10.685276388267368"><ele>87.5</ele><time>2026-03-30T11:56:32Z</time></trkpt><trkpt lat="45.332448509594094" lon="10.685295036259582"><ele>87.66666666666666</ele><time>2026-03-30T11:56:33Z</time></trkpt><trkpt lat="45.33237818240418" lon="10.685336211611963"><ele>87.83333333333333</ele><time>2026-03-30T11:56:34Z</time></trkpt><trkpt lat="45.33227318285406" lon="10.685350394155613"><ele>88.0</ele><time>2026-03-30T11:56:35.999Z</time></trkpt><trkpt lat="45.332192199328986" lon="10.68530911185441"><ele>84.75</ele><time>2026-03-30T11:56:36.999Z</time></trkpt><trkpt lat="45.332077170590516" lon="10.685261370124051"><ele>81.5</ele><time>2026-03-30T11:56:37.999Z</time></trkpt><trkpt lat="45.33197179898244" lon="10.685213225476158"><ele>78.25</ele><time>2026-03-30T11:56:38.999Z</time></trkpt><trkpt lat="45.33187495442474" lon="10.685155241957094"><ele>75.0</ele><time>2026-03-30T11:56:39.999Z</time></trkpt><trkpt lat="45.33176530775587" lon="10.685055273700199"><ele>75.0</ele><time>2026-03-30T11:56:40.999Z</time></trkpt><trkpt lat="45.33166039874706" lon="10.684942954323747"><ele>75.0</ele><time>2026-03-30T11:56:41.999Z</time></trkpt><trkpt lat="45.33155934462034" lon="10.684833322061635"><ele>75.0</ele><time>2026-03-30T11:56:42.999Z</time></trkpt><trkpt lat="45.33145776330949" lon="10.684734794322921"><ele>75.0</ele><time>2026-03-30T11:56:43.999Z</time></trkpt><trkpt lat="45.33135877349771" lon="10.684648308709768"><ele>75.0</ele><time>2026-03-30T11:56:44.999Z</time></trkpt><trkpt lat="45.33126988641133" lon="10.684589307111901"><ele>75.0</ele><time>2026-03-30T11:56:45.999Z</time></trkpt><trkpt lat="45.33115832058029" lon="10.68453073130113"><ele>75.0</ele><time>2026-03-30T11:56:46.999Z</time></trkpt><trkpt lat="45.33101748377915" lon="10.684453676848024"><ele>75.0</ele><time>2026-03-30T11:56:47.999Z</time></trkpt><trkpt lat="45.330857432819826" lon="10.684360955732245"><ele>75.0</ele><time>2026-03-30T11:56:48.999Z</time></trkpt><trkpt lat="45.330725488377816" lon="10.684279201307797"><ele>75.0</ele><time>2026-03-30T11:56:49.999Z</time></trkpt><trkpt lat="45.3306220932478" lon="10.684216136378016"><ele>75.0</ele><time>2026-03-30T11:56:50.999Z</time></trkpt><trkpt lat="45.33055619007027" lon="10.684166626306645"><ele>75.0</ele><time>2026-03-30T11:56:51.999Z</time></trkpt><trkpt lat="45.33048166106098" lon="10.68416760641655"><ele>75.0</ele><time>2026-03-30T11:56:54.999Z</time></trkpt><trkpt lat="45.330420357427016" lon="10.68432169064214"><ele>74.75</ele><time>2026-03-30T11:56:56.999Z</time></trkpt><trkpt lat="45.33037195801576" lon="10.684484984439608"><ele>74.5</ele><time>2026-03-30T11:56:57.999Z</time></trkpt><trkpt lat="45.33031070732171" lon="10.684610520068471"><ele>74.25</ele><time>2026-03-30T11:56:58.999Z</time></trkpt><trkpt lat="45.33028743921996" lon="10.68473870463493"><ele>74.0</ele><time>2026-03-30T11:56:59.999Z</time></trkpt><trkpt lat="45.330218713333984" lon="10.68490170268153"><ele>74.0</ele><time>2026-03-30T11:57:00.999Z</time></trkpt><trkpt lat="45.330148187652924" lon="10.685050776746106"><ele>74.0</ele><time>2026-03-30T11:57:01.999Z</time></trkpt><trkpt lat="45.33005254263561" lon="10.685180067978358"><ele>74.0</ele><time>2026-03-30T11:57:02.999Z</time></trkpt><trkpt lat="45.329941407086835" lon="10.685326691918684"><ele>74.0</ele><time>2026-03-30T11:57:03.999Z</time></trkpt><trkpt lat="45.329826634355896" lon="10.685461872923465"><ele>74.0</ele><time>2026-03-30T11:57:04.999Z</time></trkpt><trkpt lat="45.329733743244915" lon="10.685595472622147"><ele>74.0</ele><time>2026-03-30T11:57:05.999Z</time></trkpt><trkpt lat="45.32964761114694" lon="10.685726053871008"><ele>74.0</ele><time>2026-03-30T11:57:06.999Z</time></trkpt><trkpt lat="45.32956987593697" lon="10.685818400381017"><ele>74.0</ele><time>2026-03-30T11:57:07.999Z</time></trkpt><trkpt lat="45.329495725232356" lon="10.685910481461395"><ele>74.0</ele><time>2026-03-30T11:57:08.999Z</time></trkpt><trkpt lat="45.329431865206395" lon="10.685993081536258"><ele>74.0</ele><time>2026-03-30T11:57:09.999Z</time></trkpt><trkpt lat="45.3293806902287" lon="10.686070683245283"><ele>74.0</ele><time>2026-03-30T11:57:10.999Z</time></trkpt><trkpt lat="45.32930062504614" lon="10.686154930925559"><ele>74.0</ele><time>2026-03-30T11:57:12.999Z</time></trkpt><trkpt lat="45.329239065344915" lon="10.686108093115807"><ele>74.0</ele><time>2026-03-30T11:57:15.999Z</time></trkpt><trkpt lat="45.32919122261204" lon="10.685959406719375"><ele>74.0</ele><time>2026-03-30T11:57:17.999Z</time></trkpt><trkpt lat="45.3291614093691" lon="10.685826072038935"><ele>74.0</ele><time>2026-03-30T11:57:18.999Z</time></trkpt><trkpt lat="45.32911314139422" lon="10.68562983589062"><ele>74.0</ele><time>2026-03-30T11:57:19.999Z</time></trkpt><trkpt lat="45.32905659132455" lon="10.68542040290942"><ele>74.0</ele><time>2026-03-30T11:57:20.999Z</time></trkpt><trkpt lat="45.32899745057411" lon="10.685205475946335"><ele>74.0</ele><time>2026-03-30T11:57:21.999Z</time></trkpt><trkpt lat="45.328935707903916" lon="10.684987663740005"><ele>74.0</ele><time>2026-03-30T11:57:22.999Z</time></trkpt><trkpt lat="45.32887419282569" lon="10.684763347719123"><ele>74.0</ele><time>2026-03-30T11:57:23.999Z</time></trkpt><trkpt lat="45.32881389505367" lon="10.684540198077121"><ele>75.33333333333334</ele><time>2026-03-30T11:57:24.999Z</time></trkpt><trkpt lat="45.328753677834" lon="10.684328080694023"><ele>76.66666666666667</ele><time>2026-03-30T11:57:25.999Z</time></trkpt><trkpt lat="45.32869616082277" lon="10.684129219114395"><ele>78.0</ele><time>2026-03-30T11:57:26.999Z</time></trkpt><trkpt lat="45.328646331410646" lon="10.683936339245996"><ele>78.0</ele><time>2026-03-30T11:57:27.999Z</time></trkpt><trkpt lat="45.32860849432311" lon="10.683731563952056"><ele>78.0</ele><time>2026-03-30T11:57:28.999Z</time></trkpt><trkpt lat="45.32856067648685" lon="10.683519254904963"><ele>78.0</ele><time>2026-03-30T11:57:29.999Z</time></trkpt><trkpt lat="45.32851547713463" lon="10.683312308796898"><ele>79.0</ele><time>2026-03-30T11:57:30.999Z</time></trkpt><trkpt lat="45.32847979190268" lon="10.683111434288822"><ele>80.0</ele><time>2026-03-30T11:57:31.999Z</time></trkpt><trkpt lat="45.328436275059516" lon="10.682907765826315"><ele>81.0</ele><time>2026-03-30T11:57:32.999Z</time></trkpt><trkpt lat="45.328393349124724" lon="10.682726486772234"><ele>82.0</ele><time>2026-03-30T11:57:33.999Z</time></trkpt><trkpt lat="45.32835308124564" lon="10.682564332208882"><ele>82.39999999999999</ele><time>2026-03-30T11:57:34.999Z</time></trkpt><trkpt lat="45.32831780035884" lon="10.682417354238966"><ele>82.8</ele><time>2026-03-30T11:57:35.999Z</time></trkpt><trkpt lat="45.32827879205484" lon="10.682283766031546"><ele>83.2</ele><time>2026-03-30T11:57:36.999Z</time></trkpt><trkpt lat="45.32823981951902" lon="10.682170000538395"><ele>83.6</ele><time>2026-03-30T11:57:37.999Z</time></trkpt><trkpt lat="45.32818592165462" lon="10.682039972350278"><ele>84.0</ele><time>2026-03-30T11:57:38.999Z</time></trkpt><trkpt lat="45.32812387319074" lon="10.68189428396746"><ele>85.33333333333333</ele><time>2026-03-30T11:57:39.999Z</time></trkpt><trkpt lat="45.32804935679012" lon="10.681711679050569"><ele>86.66666666666666</ele><time>2026-03-30T11:57:40.999Z</time></trkpt><trkpt lat="45.32795936078806" lon="10.681484535972878"><ele>88.0</ele><time>2026-03-30T11:57:41.999Z</time></trkpt><trkpt lat="45.327863812136215" lon="10.68124438857231"><ele>87.33333333333333</ele><time>2026-03-30T11:57:42.999Z</time></trkpt><trkpt lat="45.327766141853125" lon="10.680999296032638"><ele>86.66666666666667</ele><time>2026-03-30T11:57:44Z</time></trkpt><trkpt lat="45.32766708895518" lon="10.680749347082559"><ele>86.0</ele><time>2026-03-30T11:57:45Z</time></trkpt><trkpt lat="45.32755232857713" lon="10.680471774474965"><ele>86.33333333333334</ele><time>2026-03-30T11:57:46Z</time></trkpt><trkpt lat="45.32741757771816" lon="10.680189505885274"><ele>86.66666666666667</ele><time>2026-03-30T11:57:47Z</time></trkpt><trkpt lat="45.32728969879113" lon="10.679957758455592"><ele>87.0</ele><time>2026-03-30T11:57:48Z</time></trkpt><trkpt lat="45.32716802885806" lon="10.679749771575992"><ele>88.66666666666667</ele><time>2026-03-30T11:57:49Z</time></trkpt><trkpt lat="45.3270564824117" lon="10.679537223690511"><ele>90.33333333333334</ele><time>2026-03-30T11:57:50Z</time></trkpt><trkpt lat="45.326948649428786" lon="10.679320611711049"><ele>92.0</ele><time>2026-03-30T11:57:51Z</time></trkpt><trkpt lat="45.326867872360666" lon="10.679108601454734"><ele>92.66666666666667</ele><time>2026-03-30T11:57:52Z</time></trkpt><trkpt lat="45.32680500063737" lon="10.678880150044682"><ele>93.33333333333333</ele><time>2026-03-30T11:57:53Z</time></trkpt><trkpt lat="45.326752140329525" lon="10.678659928785716"><ele>94.0</ele><time>2026-03-30T11:57:54Z</time></trkpt><trkpt lat="45.326702415491134" lon="10.678446443418038"><ele>94.66666666666666</ele><time>2026-03-30T11:57:55Z</time></trkpt><trkpt lat="45.32666661408872" lon="10.678234558163874"><ele>95.33333333333333</ele><time>2026-03-30T11:57:56Z</time></trkpt><trkpt lat="45.32662629456951" lon="10.678028186155009"><ele>96.0</ele><time>2026-03-30T11:57:57Z</time></trkpt><trkpt lat="45.32658891222257" lon="10.677807958658551"><ele>95.66666666666667</ele><time>2026-03-30T11:57:58Z</time></trkpt><trkpt lat="45.32656127006315" lon="10.677593637942703"><ele>95.33333333333334</ele><time>2026-03-30T11:57:59Z</time></trkpt><trkpt lat="45.32654496116555" lon="10.67737496275654"><ele>95.0</ele><time>2026-03-30T11:58:00Z</time></trkpt><trkpt lat="45.32653900571047" lon="10.677161437280228"><ele>95.0</ele><time>2026-03-30T11:58:01Z</time></trkpt><trkpt lat="45.32652346439802" lon="10.676950384307123"><ele>95.0</ele><time>2026-03-30T11:58:02Z</time></trkpt><trkpt lat="45.326506600001146" lon="10.676736475617817"><ele>95.0</ele><time>2026-03-30T11:58:03Z</time></trkpt><trkpt lat="45.32648996781078" lon="10.676523166547334"><ele>94.5</ele><time>2026-03-30T11:58:04Z</time></trkpt><trkpt lat="45.32646249113711" lon="10.67631621855571"><ele>94.0</ele><time>2026-03-30T11:58:05Z</time></trkpt><trkpt lat="45.32642428448453" lon="10.676125645439113"><ele>93.5</ele><time>2026-03-30T11:58:06Z</time></trkpt><trkpt lat="45.32637611237862" lon="10.675951103457763"><ele>93.0</ele><time>2026-03-30T11:58:07Z</time></trkpt><trkpt lat="45.326314198717" lon="10.675779177449039"><ele>92.75</ele><time>2026-03-30T11:58:08Z</time></trkpt><trkpt lat="45.32624142520048" lon="10.675621662352713"><ele>92.5</ele><time>2026-03-30T11:58:09Z</time></trkpt><trkpt lat="45.326162462501344" lon="10.675474903978674"><ele>92.25</ele><time>2026-03-30T11:58:10Z</time></trkpt><trkpt lat="45.32608073109153" lon="10.675329749546771"><ele>92.0</ele><time>2026-03-30T11:58:11Z</time></trkpt><trkpt lat="45.32599674495149" lon="10.675191581037426"><ele>91.75</ele><time>2026-03-30T11:58:12Z</time></trkpt><trkpt lat="45.32590766404671" lon="10.675055208413113"><ele>91.5</ele><time>2026-03-30T11:58:13Z</time></trkpt><trkpt lat="45.32581961344462" lon="10.674916735144134"><ele>91.25</ele><time>2026-03-30T11:58:14Z</time></trkpt><trkpt lat="45.32573396949782" lon="10.674772507329658"><ele>91.0</ele><time>2026-03-30T11:58:15Z</time></trkpt><trkpt lat="45.325645099611506" lon="10.67462630557123"><ele>90.75</ele><time>2026-03-30T11:58:16Z</time></trkpt><trkpt lat="45.32554875298283" lon="10.674474311182722"><ele>90.5</ele><time>2026-03-30T11:58:17Z</time></trkpt><trkpt lat="45.325448012478155" lon="10.674320254657056"><ele>90.25</ele><time>2026-03-30T11:58:18Z</time></trkpt><trkpt lat="45.32536110338564" lon="10.67417770503424"><ele>90.0</ele><time>2026-03-30T11:58:19Z</time></trkpt><trkpt lat="45.32529046986595" lon="10.674037981572866"><ele>89.8</ele><time>2026-03-30T11:58:20Z</time></trkpt><trkpt lat="45.325229909966374" lon="10.673901623850048"><ele>89.6</ele><time>2026-03-30T11:58:21Z</time></trkpt><trkpt lat="45.32518208349113" lon="10.673774786904978"><ele>89.4</ele><time>2026-03-30T11:58:22Z</time></trkpt><trkpt lat="45.32515110335872" lon="10.67365523868374"><ele>89.2</ele><time>2026-03-30T11:58:23Z</time></trkpt><trkpt lat="45.32513030124937" lon="10.673552840703717"><ele>89.0</ele><time>2026-03-30T11:58:24Z</time></trkpt><trkpt lat="45.325118920508004" lon="10.673448791874009"><ele>88.75</ele><time>2026-03-30T11:58:25Z</time></trkpt><trkpt lat="45.32510907362135" lon="10.673316385889981"><ele>88.5</ele><time>2026-03-30T11:58:26Z</time></trkpt><trkpt lat="45.325112848864485" lon="10.673163306918475"><ele>88.25</ele><time>2026-03-30T11:58:27Z</time></trkpt><trkpt lat="45.32511807954833" lon="10.672985144733808"><ele>88.0</ele><time>2026-03-30T11:58:28Z</time></trkpt><trkpt lat="45.325125558411614" lon="10.672800959857774"><ele>88.25</ele><time>2026-03-30T11:58:29Z</time></trkpt><trkpt lat="45.32513402441461" lon="10.672609440667706"><ele>88.5</ele><time>2026-03-30T11:58:30Z</time></trkpt><trkpt lat="45.32514623150318" lon="10.67242350163576"><ele>88.75</ele><time>2026-03-30T11:58:31Z</time></trkpt><trkpt lat="45.32515673908944" lon="10.672254743196502"><ele>89.0</ele><time>2026-03-30T11:58:32Z</time></trkpt><trkpt lat="45.325160871471404" lon="10.672103583622302"><ele>89.0</ele><time>2026-03-30T11:58:33Z</time></trkpt><trkpt lat="45.32516323034631" lon="10.671962677010631"><ele>89.0</ele><time>2026-03-30T11:58:34Z</time></trkpt><trkpt lat="45.32516583359709" lon="10.671837471335285"><ele>89.0</ele><time>2026-03-30T11:58:35Z</time></trkpt><trkpt lat="45.325173584388246" lon="10.67170720240798"><ele>89.0</ele><time>2026-03-30T11:58:36Z</time></trkpt><trkpt lat="45.325188066553885" lon="10.671566223992823"><ele>89.0</ele><time>2026-03-30T11:58:37Z</time></trkpt><trkpt lat="45.32519330872729" lon="10.671418232575775"><ele>89.6</ele><time>2026-03-30T11:58:38Z</time></trkpt><trkpt lat="45.325197112882584" lon="10.671267160667187"><ele>90.2</ele><time>2026-03-30T11:58:39Z</time></trkpt><trkpt lat="45.325226530845704" lon="10.671117630946862"><ele>90.8</ele><time>2026-03-30T11:58:40Z</time></trkpt><trkpt lat="45.32528862395996" lon="10.671000954190589"><ele>91.39999999999999</ele><time>2026-03-30T11:58:41Z</time></trkpt><trkpt lat="45.32536802336695" lon="10.670936105915464"><ele>92.0</ele><time>2026-03-30T11:58:42Z</time></trkpt><trkpt lat="45.325431230020506" lon="10.67082674883752"><ele>92.25</ele><time>2026-03-30T11:58:43Z</time></trkpt><trkpt lat="45.325479790274734" lon="10.67067807149906"><ele>92.5</ele><time>2026-03-30T11:58:43.999Z</time></trkpt><trkpt lat="45.32553270472859" lon="10.670509993307913"><ele>92.75</ele><time>2026-03-30T11:58:44.999Z</time></trkpt><trkpt lat="45.32557430949814" lon="10.670342438694489"><ele>93.0</ele><time>2026-03-30T11:58:45.999Z</time></trkpt><trkpt lat="45.32561014735055" lon="10.670174173734567"><ele>91.0</ele><time>2026-03-30T11:58:46.999Z</time></trkpt><trkpt lat="45.32565056614584" lon="10.670004031106721"><ele>89.0</ele><time>2026-03-30T11:58:47.999Z</time></trkpt><trkpt lat="45.32569427930513" lon="10.669834204171265"><ele>87.0</ele><time>2026-03-30T11:58:48.999Z</time></trkpt><trkpt lat="45.32573905254409" lon="10.669667263388494"><ele>85.0</ele><time>2026-03-30T11:58:49.999Z</time></trkpt><trkpt lat="45.32578573834605" lon="10.669506038966729"><ele>85.0</ele><time>2026-03-30T11:58:50.999Z</time></trkpt><trkpt lat="45.325832051877214" lon="10.669340984687503"><ele>85.0</ele><time>2026-03-30T11:58:51.999Z</time></trkpt><trkpt lat="45.325882741429794" lon="10.66917832995051"><ele>85.0</ele><time>2026-03-30T11:58:52.999Z</time></trkpt><trkpt lat="45.32593273249307" lon="10.669022748147936"><ele>85.0</ele><time>2026-03-30T11:58:53.999Z</time></trkpt><trkpt lat="45.32598444648086" lon="10.668866092606393"><ele>85.0</ele><time>2026-03-30T11:58:54.999Z</time></trkpt><trkpt lat="45.32604266858126" lon="10.668713898700798"><ele>85.0</ele><time>2026-03-30T11:58:55.999Z</time></trkpt><trkpt lat="45.326104612874786" lon="10.668548314644848"><ele>85.0</ele><time>2026-03-30T11:58:56.999Z</time></trkpt><trkpt lat="45.32616333069425" lon="10.668375836314079"><ele>85.0</ele><time>2026-03-30T11:58:57.999Z</time></trkpt><trkpt lat="45.32622302502697" lon="10.66820467840069"><ele>84.75</ele><time>2026-03-30T11:58:58.999Z</time></trkpt><trkpt lat="45.32628421451758" lon="10.668033761059942"><ele>84.5</ele><time>2026-03-30T11:58:59.999Z</time></trkpt><trkpt lat="45.32634346673326" lon="10.667859240345624"><ele>84.25</ele><time>2026-03-30T11:59:00.999Z</time></trkpt><trkpt lat="45.326388935281344" lon="10.66767711380298"><ele>84.0</ele><time>2026-03-30T11:59:01.999Z</time></trkpt><trkpt lat="45.326418628762994" lon="10.667467887331364"><ele>84.66666666666667</ele><time>2026-03-30T11:59:02.999Z</time></trkpt><trkpt lat="45.32643804307418" lon="10.667241220789787"><ele>85.33333333333334</ele><time>2026-03-30T11:59:03.999Z</time></trkpt><trkpt lat="45.32644622823594" lon="10.666991292515402"><ele>86.0</ele><time>2026-03-30T11:59:04.999Z</time></trkpt><trkpt lat="45.32644659839876" lon="10.666734737702031"><ele>86.0</ele><time>2026-03-30T11:59:05.999Z</time></trkpt><trkpt lat="45.32644261135676" lon="10.666472784080694"><ele>86.0</ele><time>2026-03-30T11:59:06.999Z</time></trkpt><trkpt lat="45.32643609732012" lon="10.666210237079325"><ele>86.0</ele><time>2026-03-30T11:59:07.999Z</time></trkpt><trkpt lat="45.32643328954837" lon="10.665978100317082"><ele>85.66666666666667</ele><time>2026-03-30T11:59:08.999Z</time></trkpt><trkpt lat="45.32642474791802" lon="10.665749809578866"><ele>85.33333333333333</ele><time>2026-03-30T11:59:09.999Z</time></trkpt><trkpt lat="45.32641108212685" lon="10.665527069804307"><ele>85.0</ele><time>2026-03-30T11:59:10.999Z</time></trkpt><trkpt lat="45.32639495264313" lon="10.665303099001918"><ele>85.33333333333333</ele><time>2026-03-30T11:59:11.999Z</time></trkpt><trkpt lat="45.32641836185236" lon="10.665089649345653"><ele>85.66666666666667</ele><time>2026-03-30T11:59:12.999Z</time></trkpt><trkpt lat="45.32641847471103" lon="10.664858952571468"><ele>86.0</ele><time>2026-03-30T11:59:13.999Z</time></trkpt><trkpt lat="45.32642182596059" lon="10.66461873111278"><ele>86.0</ele><time>2026-03-30T11:59:14.999Z</time></trkpt><trkpt lat="45.32643598144396" lon="10.664373114438737"><ele>86.0</ele><time>2026-03-30T11:59:15.999Z</time></trkpt><trkpt lat="45.32645975470746" lon="10.664128743600106"><ele>86.0</ele><time>2026-03-30T11:59:16.999Z</time></trkpt><trkpt lat="45.32649467902315" lon="10.66391428720522"><ele>86.0</ele><time>2026-03-30T11:59:17.999Z</time></trkpt><trkpt lat="45.32652722526983" lon="10.663713224119173"><ele>86.0</ele><time>2026-03-30T11:59:18.999Z</time></trkpt><trkpt lat="45.32655434108141" lon="10.663513533324227"><ele>86.0</ele><time>2026-03-30T11:59:19.999Z</time></trkpt><trkpt lat="45.326580805895304" lon="10.663333456737082"><ele>86.0</ele><time>2026-03-30T11:59:20.999Z</time></trkpt><trkpt lat="45.32660939488981" lon="10.663174507786689"><ele>86.33333333333334</ele><time>2026-03-30T11:59:21.999Z</time></trkpt><trkpt lat="45.326629663174515" lon="10.663031790192434"><ele>86.66666666666667</ele><time>2026-03-30T11:59:22.999Z</time></trkpt><trkpt lat="45.32665709822926" lon="10.6629099818578"><ele>87.0</ele><time>2026-03-30T11:59:23.999Z</time></trkpt><trkpt lat="45.326690654136165" lon="10.662811068559991"><ele>87.33333333333333</ele><time>2026-03-30T11:59:24.999Z</time></trkpt><trkpt lat="45.326753932558326" lon="10.662745689362568"><ele>87.66666666666666</ele><time>2026-03-30T11:59:25.999Z</time></trkpt><trkpt lat="45.32682370487702" lon="10.662699366891573"><ele>88.0</ele><time>2026-03-30T11:59:26.999Z</time></trkpt><trkpt lat="45.32684891814198" lon="10.662590457781375"><ele>88.25</ele><time>2026-03-30T11:59:27.999Z</time></trkpt><trkpt lat="45.32683110211607" lon="10.662458053081545"><ele>88.5</ele><time>2026-03-30T11:59:28.999Z</time></trkpt><trkpt lat="45.326800748105526" lon="10.662289270739292"><ele>88.75</ele><time>2026-03-30T11:59:29.999Z</time></trkpt><trkpt lat="45.326819560153595" lon="10.662090903119239"><ele>89.0</ele><time>2026-03-30T11:59:30.999Z</time></trkpt><trkpt lat="45.32684733581531" lon="10.66184895027005"><ele>89.0</ele><time>2026-03-30T11:59:31.999Z</time></trkpt><trkpt lat="45.326859958532744" lon="10.66159919691271"><ele>89.0</ele><time>2026-03-30T11:59:32.999Z</time></trkpt><trkpt lat="45.32685366974803" lon="10.661345569022208"><ele>89.0</ele><time>2026-03-30T11:59:33.999Z</time></trkpt><trkpt lat="45.32684060011596" lon="10.661104164221841"><ele>90.0</ele><time>2026-03-30T11:59:34.999Z</time></trkpt><trkpt lat="45.32680859094579" lon="10.66085318211754"><ele>91.0</ele><time>2026-03-30T11:59:35.999Z</time></trkpt><trkpt lat="45.32677918547352" lon="10.660630459210033"><ele>92.0</ele><time>2026-03-30T11:59:36.999Z</time></trkpt><trkpt lat="45.326748562964916" lon="10.660428349405896"><ele>92.6</ele><time>2026-03-30T11:59:37.999Z</time></trkpt><trkpt lat="45.32672145258188" lon="10.660261267587515"><ele>93.19999999999999</ele><time>2026-03-30T11:59:38.999Z</time></trkpt><trkpt lat="45.32670727670613" lon="10.660101301142193"><ele>93.8</ele><time>2026-03-30T11:59:39.999Z</time></trkpt><trkpt lat="45.326701347868" lon="10.659955433311875"><ele>94.4</ele><time>2026-03-30T11:59:40.999Z</time></trkpt><trkpt lat="45.32670936228804" lon="10.659826262703197"><ele>95.0</ele><time>2026-03-30T11:59:41.999Z</time></trkpt><trkpt lat="45.32671202067317" lon="10.659684476959768"><ele>95.0</ele><time>2026-03-30T11:59:42.999Z</time></trkpt><trkpt lat="45.3267157238687" lon="10.659507290576443"><ele>95.0</ele><time>2026-03-30T11:59:43.999Z</time></trkpt><trkpt lat="45.32674744675177" lon="10.659319534782009"><ele>95.0</ele><time>2026-03-30T11:59:44.999Z</time></trkpt><trkpt lat="45.32678660867411" lon="10.659086445899064"><ele>95.0</ele><time>2026-03-30T11:59:45.999Z</time></trkpt><trkpt lat="45.326808868536574" lon="10.658856280502057"><ele>95.4</ele><time>2026-03-30T11:59:46.999Z</time></trkpt><trkpt lat="45.3268067238339" lon="10.658669778576128"><ele>95.8</ele><time>2026-03-30T11:59:47.999Z</time></trkpt><trkpt lat="45.32679111101199" lon="10.658515842333074"><ele>96.19999999999999</ele><time>2026-03-30T11:59:49Z</time></trkpt><trkpt lat="45.32678041202686" lon="10.658386956252613"><ele>96.6</ele><time>2026-03-30T11:59:50Z</time></trkpt><trkpt lat="45.32678629964863" lon="10.658263893851373"><ele>97.0</ele><time>2026-03-30T11:59:51Z</time></trkpt><trkpt lat="45.32680465657996" lon="10.658140736998101"><ele>97.8</ele><time>2026-03-30T11:59:52Z</time></trkpt><trkpt lat="45.32682834408729" lon="10.658017090882922"><ele>98.6</ele><time>2026-03-30T11:59:53Z</time></trkpt><trkpt lat="45.32685813920131" lon="10.657903888967837"><ele>99.39999999999999</ele><time>2026-03-30T11:59:54Z</time></trkpt><trkpt lat="45.32690692811556" lon="10.65781678305103"><ele>100.19999999999999</ele><time>2026-03-30T11:59:55Z</time></trkpt><trkpt lat="45.326985216518786" lon="10.657757600640924"><ele>101.0</ele><time>2026-03-30T11:59:56Z</time></trkpt><trkpt lat="45.32709704310682" lon="10.657688224158955"><ele>102.33333333333333</ele><time>2026-03-30T11:59:57Z</time></trkpt><trkpt lat="45.32722438251289" lon="10.65758384618548"><ele>103.66666666666666</ele><time>2026-03-30T11:59:58Z</time></trkpt><trkpt lat="45.327365762284344" lon="10.65746401761421"><ele>105.0</ele><time>2026-03-30T11:59:59Z</time></trkpt><trkpt lat="45.327517962566276" lon="10.657331527994335"><ele>105.25</ele><time>2026-03-30T12:00:00Z</time></trkpt><trkpt lat="45.32764119912526" lon="10.657222821006316"><ele>105.5</ele><time>2026-03-30T12:00:01Z</time></trkpt><trkpt lat="45.327749473898386" lon="10.657128618589896"><ele>105.75</ele><time>2026-03-30T12:00:02Z</time></trkpt><trkpt lat="45.327857308211115" lon="10.657042056107672"><ele>106.0</ele><time>2026-03-30T12:00:03Z</time></trkpt><trkpt lat="45.327958321813476" lon="10.656946626830697"><ele>106.33333333333334</ele><time>2026-03-30T12:00:04Z</time></trkpt><trkpt lat="45.32806838269634" lon="10.656849967464739"><ele>106.66666666666666</ele><time>2026-03-30T12:00:05Z</time></trkpt><trkpt lat="45.32819684311691" lon="10.65675594543216"><ele>107.0</ele><time>2026-03-30T12:00:06Z</time></trkpt><trkpt lat="45.32836258685753" lon="10.656668313245854"><ele>107.0</ele><time>2026-03-30T12:00:07Z</time></trkpt><trkpt lat="45.32854783656434" lon="10.656577650939102"><ele>107.0</ele><time>2026-03-30T12:00:08Z</time></trkpt><trkpt lat="45.32873216755457" lon="10.656483202766955"><ele>107.0</ele><time>2026-03-30T12:00:09Z</time></trkpt><trkpt lat="45.32892869045805" lon="10.65635129473292"><ele>106.66666666666666</ele><time>2026-03-30T12:00:10Z</time></trkpt><trkpt lat="45.32912863299576" lon="10.656181043754092"><ele>106.33333333333334</ele><time>2026-03-30T12:00:11Z</time></trkpt><trkpt lat="45.32929905679443" lon="10.655998334978388"><ele>106.0</ele><time>2026-03-30T12:00:12Z</time></trkpt><trkpt lat="45.32945053258427" lon="10.65582817755434"><ele>106.0</ele><time>2026-03-30T12:00:13Z</time></trkpt><trkpt lat="45.3295927561591" lon="10.655675708717327"><ele>106.0</ele><time>2026-03-30T12:00:14Z</time></trkpt><trkpt lat="45.32972601819668" lon="10.65554461246713"><ele>106.0</ele><time>2026-03-30T12:00:15Z</time></trkpt><trkpt lat="45.32986072416736" lon="10.655424985680305"><ele>105.0</ele><time>2026-03-30T12:00:16Z</time></trkpt><trkpt lat="45.32998928450715" lon="10.655333024634439"><ele>104.0</ele><time>2026-03-30T12:00:17Z</time></trkpt><trkpt lat="45.33011058657258" lon="10.655276739826151"><ele>103.0</ele><time>2026-03-30T12:00:18Z</time></trkpt><trkpt lat="45.33021914374729" lon="10.655236467652175"><ele>102.0</ele><time>2026-03-30T12:00:19Z</time></trkpt><trkpt lat="45.33031070010009" lon="10.65520066999188"><ele>101.83333333333333</ele><time>2026-03-30T12:00:20Z</time></trkpt><trkpt lat="45.330391593266555" lon="10.655165054531931"><ele>101.66666666666666</ele><time>2026-03-30T12:00:21Z</time></trkpt><trkpt lat="45.33045707647492" lon="10.655145574928747"><ele>101.5</ele><time>2026-03-30T12:00:22Z</time></trkpt><trkpt lat="45.330536032877724" lon="10.655118176942693"><ele>101.33333333333333</ele><time>2026-03-30T12:00:23Z</time></trkpt><trkpt lat="45.330625850101995" lon="10.655079706005658"><ele>101.16666666666666</ele><time>2026-03-30T12:00:24Z</time></trkpt><trkpt lat="45.330735495760706" lon="10.655036783321219"><ele>101.0</ele><time>2026-03-30T12:00:25Z</time></trkpt><trkpt lat="45.3308577756416" lon="10.654987685233836"><ele>101.0</ele><time>2026-03-30T12:00:26Z</time></trkpt><trkpt lat="45.33097954166107" lon="10.654939403992667"><ele>101.0</ele><time>2026-03-30T12:00:27Z</time></trkpt><trkpt lat="45.33108199524936" lon="10.654897858961517"><ele>101.0</ele><time>2026-03-30T12:00:28Z</time></trkpt><trkpt lat="45.33117078211391" lon="10.654865377639643"><ele>101.0</ele><time>2026-03-30T12:00:29Z</time></trkpt><trkpt lat="45.331254020348084" lon="10.654837760078085"><ele>101.0</ele><time>2026-03-30T12:00:30Z</time></trkpt><trkpt lat="45.33131787574274" lon="10.654798671279254"><ele>101.0</ele><time>2026-03-30T12:00:31Z</time></trkpt><trkpt lat="45.33133632166127" lon="10.654605125940089"><ele>101.0</ele><time>2026-03-30T12:00:33Z</time></trkpt><trkpt lat="45.331317119155116" lon="10.65446544754731"><ele>101.0</ele><time>2026-03-30T12:00:34Z</time></trkpt><trkpt lat="45.331291071483214" lon="10.654285274032356"><ele>101.0</ele><time>2026-03-30T12:00:35Z</time></trkpt><trkpt lat="45.331284170854985" lon="10.654078958105917"><ele>101.0</ele><time>2026-03-30T12:00:36Z</time></trkpt><trkpt lat="45.33127260588626" lon="10.653856451161593"><ele>101.0</ele><time>2026-03-30T12:00:37Z</time></trkpt><trkpt lat="45.33126850468528" lon="10.653629845692407"><ele>101.0</ele><time>2026-03-30T12:00:38Z</time></trkpt><trkpt lat="45.33127199683729" lon="10.653394772567056"><ele>100.33333333333333</ele><time>2026-03-30T12:00:39Z</time></trkpt><trkpt lat="45.331281041629765" lon="10.65315866809366"><ele>99.66666666666666</ele><time>2026-03-30T12:00:40Z</time></trkpt><trkpt lat="45.33128080668855" lon="10.65293045034546"><ele>99.0</ele><time>2026-03-30T12:00:41Z</time></trkpt><trkpt lat="45.33128013843928" lon="10.652713308784156"><ele>98.5</ele><time>2026-03-30T12:00:42Z</time></trkpt><trkpt lat="45.33127747721881" lon="10.652509702981842"><ele>98.0</ele><time>2026-03-30T12:00:43Z</time></trkpt><trkpt lat="45.33128108760999" lon="10.65234439190858"><ele>97.5</ele><time>2026-03-30T12:00:44Z</time></trkpt><trkpt lat="45.331284865793094" lon="10.652188720711171"><ele>97.0</ele><time>2026-03-30T12:00:45Z</time></trkpt><trkpt lat="45.331283736962405" lon="10.652062496478905"><ele>97.0</ele><time>2026-03-30T12:00:46Z</time></trkpt><trkpt lat="45.33128264421635" lon="10.651962729175537"><ele>97.0</ele><time>2026-03-30T12:00:47Z</time></trkpt><trkpt lat="45.3312172145662" lon="10.651860869241105"><ele>97.0</ele><time>2026-03-30T12:00:49Z</time></trkpt><trkpt lat="45.33115403747937" lon="10.651840978324282"><ele>97.0</ele><time>2026-03-30T12:00:49.999Z</time></trkpt><trkpt lat="45.331089358629086" lon="10.651848031271014"><ele>97.0</ele><time>2026-03-30T12:00:50.999Z</time></trkpt><trkpt lat="45.33100880218473" lon="10.651814774296415"><ele>97.0</ele><time>2026-03-30T12:00:52.999Z</time></trkpt><trkpt lat="45.331000814998475" lon="10.651717615530146"><ele>97.0</ele><time>2026-03-30T12:00:54.999Z</time></trkpt><trkpt lat="45.33102590510507" lon="10.65160483058476"><ele>96.6</ele><time>2026-03-30T12:00:56.999Z</time></trkpt><trkpt lat="45.33097961610243" lon="10.651509466742167"><ele>96.19999999999999</ele><time>2026-03-30T12:00:58.999Z</time></trkpt><trkpt lat="45.33088946504436" lon="10.651467726266407"><ele>95.8</ele><time>2026-03-30T12:01:00.999Z</time></trkpt><trkpt lat="45.33078785732422" lon="10.651423116714547"><ele>95.4</ele><time>2026-03-30T12:01:02.999Z</time></trkpt><trkpt lat="45.33075195487413" lon="10.651306874814972"><ele>95.0</ele><time>2026-03-30T12:01:04.999Z</time></trkpt><trkpt lat="45.3307599881578" lon="10.651142141407423"><ele>95.2</ele><time>2026-03-30T12:01:06.999Z</time></trkpt><trkpt lat="45.330776507454836" lon="10.651035785635898"><ele>95.4</ele><time>2026-03-30T12:01:07.999Z</time></trkpt><trkpt lat="45.330785467643636" lon="10.650941479107974"><ele>95.6</ele><time>2026-03-30T12:01:08.999Z</time></trkpt><trkpt lat="45.33081481517461" lon="10.650823226551664"><ele>95.8</ele><time>2026-03-30T12:01:10.999Z</time></trkpt><trkpt lat="45.33091086128624" lon="10.65077587677683"><ele>96.0</ele><time>2026-03-30T12:01:12.999Z</time></trkpt><trkpt lat="45.33102910689377" lon="10.650725593522234"><ele>96.0</ele><time>2026-03-30T12:01:14.999Z</time></trkpt><trkpt lat="45.33113402549534" lon="10.650643795136574"><ele>96.0</ele><time>2026-03-30T12:01:16.999Z</time></trkpt><trkpt lat="45.33119653287717" lon="10.650621354981594"><ele>96.0</ele><time>2026-03-30T12:01:17.999Z</time></trkpt><trkpt lat="45.33127765324141" lon="10.650600291637401"><ele>96.0</ele><time>2026-03-30T12:01:18.999Z</time></trkpt><trkpt lat="45.331367472768655" lon="10.650596286563992"><ele>96.0</ele><time>2026-03-30T12:01:19.999Z</time></trkpt><trkpt lat="45.33143732590207" lon="10.650619528806578"><ele>96.0</ele><time>2026-03-30T12:01:20.999Z</time></trkpt><trkpt lat="45.33150199661713" lon="10.650627475514213"><ele>95.6</ele><time>2026-03-30T12:01:21.999Z</time></trkpt><trkpt lat="45.331601926413434" lon="10.650610125324693"><ele>95.19999999999999</ele><time>2026-03-30T12:01:23.999Z</time></trkpt><trkpt lat="45.331672137897236" lon="10.65049519394409"><ele>94.80000000000001</ele><time>2026-03-30T12:01:25.999Z</time></trkpt><trkpt lat="45.33169570030967" lon="10.650312398711282"><ele>94.4</ele><time>2026-03-30T12:01:27.999Z</time></trkpt><trkpt lat="45.33170087465563" lon="10.650205732926512"><ele>94.0</ele><time>2026-03-30T12:01:28.999Z</time></trkpt><trkpt lat="45.33171450474025" lon="10.650080731793219"><ele>94.0</ele><time>2026-03-30T12:01:29.999Z</time></trkpt><trkpt lat="45.33172040373045" lon="10.64995705784118"><ele>94.0</ele><time>2026-03-30T12:01:30.999Z</time></trkpt><trkpt lat="45.33173095657997" lon="10.64982790099848"><ele>94.0</ele><time>2026-03-30T12:01:31.999Z</time></trkpt><trkpt lat="45.33174256605274" lon="10.64969194816231"><ele>94.0</ele><time>2026-03-30T12:01:32.999Z</time></trkpt><trkpt lat="45.33175297619419" lon="10.649539445162604"><ele>94.0</ele><time>2026-03-30T12:01:33.999Z</time></trkpt><trkpt lat="45.33176709165445" lon="10.649384037189431"><ele>93.75</ele><time>2026-03-30T12:01:34.999Z</time></trkpt><trkpt lat="45.33177721839352" lon="10.649201506499395"><ele>93.5</ele><time>2026-03-30T12:01:35.999Z</time></trkpt><trkpt lat="45.33178766197467" lon="10.649039420065208"><ele>93.25</ele><time>2026-03-30T12:01:36.999Z</time></trkpt><trkpt lat="45.33179982754476" lon="10.648867820442794"><ele>93.0</ele><time>2026-03-30T12:01:37.999Z</time></trkpt><trkpt lat="45.3318091290561" lon="10.648704674456063"><ele>92.25</ele><time>2026-03-30T12:01:38.999Z</time></trkpt><trkpt lat="45.33183503551647" lon="10.64855788353311"><ele>91.5</ele><time>2026-03-30T12:01:39.999Z</time></trkpt><trkpt lat="45.33183803339108" lon="10.648397761816666"><ele>90.75</ele><time>2026-03-30T12:01:40.999Z</time></trkpt><trkpt lat="45.33184729663639" lon="10.648233924908785"><ele>90.0</ele><time>2026-03-30T12:01:41.999Z</time></trkpt><trkpt lat="45.33185695365216" lon="10.648066885339263"><ele>90.0</ele><time>2026-03-30T12:01:42.999Z</time></trkpt><trkpt lat="45.33186743742565" lon="10.647888737700939"><ele>90.0</ele><time>2026-03-30T12:01:43.999Z</time></trkpt><trkpt lat="45.33188133208897" lon="10.647707101999302"><ele>90.0</ele><time>2026-03-30T12:01:44.999Z</time></trkpt><trkpt lat="45.33189642142435" lon="10.647543220861252"><ele>90.0</ele><time>2026-03-30T12:01:45.999Z</time></trkpt><trkpt lat="45.33190821645135" lon="10.647390270627094"><ele>90.0</ele><time>2026-03-30T12:01:46.999Z</time></trkpt><trkpt lat="45.331915963186" lon="10.647251712616875"><ele>90.0</ele><time>2026-03-30T12:01:47.999Z</time></trkpt><trkpt lat="45.33193218461512" lon="10.64712335217558"><ele>90.0</ele><time>2026-03-30T12:01:48.999Z</time></trkpt><trkpt lat="45.33195387211202" lon="10.646997407088923"><ele>90.0</ele><time>2026-03-30T12:01:49.999Z</time></trkpt><trkpt lat="45.33198568543623" lon="10.646892548677275"><ele>90.0</ele><time>2026-03-30T12:01:50.999Z</time></trkpt><trkpt lat="45.33202920830126" lon="10.646796442170746"><ele>90.0</ele><time>2026-03-30T12:01:51.999Z</time></trkpt><trkpt lat="45.33208722351542" lon="10.646750422920828"><ele>90.16666666666667</ele><time>2026-03-30T12:01:52.999Z</time></trkpt><trkpt lat="45.33216066459845" lon="10.646683230389977"><ele>90.33333333333333</ele><time>2026-03-30T12:01:53.999Z</time></trkpt><trkpt lat="45.33222323032263" lon="10.646586786399276"><ele>90.5</ele><time>2026-03-30T12:01:55Z</time></trkpt><trkpt lat="45.33225715682448" lon="10.646474562945292"><ele>90.66666666666666</ele><time>2026-03-30T12:01:56Z</time></trkpt><trkpt lat="45.33228425004902" lon="10.646378452724793"><ele>90.83333333333333</ele><time>2026-03-30T12:01:57Z</time></trkpt><trkpt lat="45.332344262437516" lon="10.646270364480257"><ele>91.0</ele><time>2026-03-30T12:01:59Z</time></trkpt><trkpt lat="45.33240656386716" lon="10.646194481884518"><ele>92.25</ele><time>2026-03-30T12:02:01Z</time></trkpt><trkpt lat="45.33248258837562" lon="10.646133911210775"><ele>93.5</ele><time>2026-03-30T12:02:04Z</time></trkpt><trkpt lat="45.33260969642071" lon="10.646206182403814"><ele>94.75</ele><time>2026-03-30T12:02:06Z</time></trkpt><trkpt lat="45.33270034227742" lon="10.646288722513148"><ele>96.0</ele><time>2026-03-30T12:02:07Z</time></trkpt><trkpt lat="45.33279892698843" lon="10.646401809214463"><ele>96.0</ele><time>2026-03-30T12:02:08Z</time></trkpt><trkpt lat="45.33289504400026" lon="10.64650283411112"><ele>96.0</ele><time>2026-03-30T12:02:09Z</time></trkpt><trkpt lat="45.333003286490616" lon="10.646600676170634"><ele>96.0</ele><time>2026-03-30T12:02:10Z</time></trkpt><trkpt lat="45.33309686099735" lon="10.646681659221562"><ele>96.0</ele><time>2026-03-30T12:02:11Z</time></trkpt><trkpt lat="45.33317868865113" lon="10.646760593936397"><ele>95.66666666666667</ele><time>2026-03-30T12:02:12Z</time></trkpt><trkpt lat="45.33325145690294" lon="10.646833793501376"><ele>95.33333333333333</ele><time>2026-03-30T12:02:13Z</time></trkpt><trkpt lat="45.333319048481776" lon="10.6468781188297"><ele>95.0</ele><time>2026-03-30T12:02:14Z</time></trkpt><trkpt lat="45.33341168021914" lon="10.646804882526395"><ele>94.66666666666666</ele><time>2026-03-30T12:02:16Z</time></trkpt><trkpt lat="45.333448502186556" lon="10.646703323955618"><ele>94.33333333333333</ele><time>2026-03-30T12:02:17Z</time></trkpt><trkpt lat="45.333499217516426" lon="10.64658517891135"><ele>94.0</ele><time>2026-03-30T12:02:18Z</time></trkpt><trkpt lat="45.33357737165607" lon="10.646454118453004"><ele>94.0</ele><time>2026-03-30T12:02:19Z</time></trkpt><trkpt lat="45.33365907801758" lon="10.646300768813466"><ele>94.0</ele><time>2026-03-30T12:02:20Z</time></trkpt><trkpt lat="45.33372296957537" lon="10.64617005544526"><ele>94.0</ele><time>2026-03-30T12:02:21Z</time></trkpt><trkpt lat="45.3337512469366" lon="10.64605842760133"><ele>94.0</ele><time>2026-03-30T12:02:22Z</time></trkpt><trkpt lat="45.333775199648436" lon="10.645915683280723"><ele>94.0</ele><time>2026-03-30T12:02:23Z</time></trkpt><trkpt lat="45.33378205875244" lon="10.645797175774423"><ele>94.2</ele><time>2026-03-30T12:02:24Z</time></trkpt><trkpt lat="45.33375177817933" lon="10.645663875108646"><ele>94.4</ele><time>2026-03-30T12:02:25Z</time></trkpt><trkpt lat="45.333699166531986" lon="10.645522503699903"><ele>94.6</ele><time>2026-03-30T12:02:26Z</time></trkpt><trkpt lat="45.33365195230256" lon="10.64537582400392"><ele>94.8</ele><time>2026-03-30T12:02:27Z</time></trkpt><trkpt lat="45.33360329076841" lon="10.645236589593065"><ele>95.0</ele><time>2026-03-30T12:02:28Z</time></trkpt><trkpt lat="45.33356361428784" lon="10.645084094593443"><ele>96.0</ele><time>2026-03-30T12:02:29Z</time></trkpt><trkpt lat="45.33353886166718" lon="10.644936540253825"><ele>97.0</ele><time>2026-03-30T12:02:30Z</time></trkpt><trkpt lat="45.33353067278655" lon="10.644827139720746"><ele>98.0</ele><time>2026-03-30T12:02:31Z</time></trkpt><trkpt lat="45.333519231547044" lon="10.644706015252133"><ele>99.0</ele><time>2026-03-30T12:02:32Z</time></trkpt><trkpt lat="45.333482002257156" lon="10.644528295504024"><ele>100.0</ele><time>2026-03-30T12:02:34Z</time></trkpt><trkpt lat="45.33340760295004" lon="10.644463994527513"><ele>99.8</ele><time>2026-03-30T12:02:35Z</time></trkpt><trkpt lat="45.333310110024456" lon="10.644404170569699"><ele>99.6</ele><time>2026-03-30T12:02:36Z</time></trkpt><trkpt lat="45.333218413920626" lon="10.644325048156164"><ele>99.4</ele><time>2026-03-30T12:02:37Z</time></trkpt><trkpt lat="45.333136786698" lon="10.64425565980244"><ele>99.2</ele><time>2026-03-30T12:02:38Z</time></trkpt><trkpt lat="45.33306662563361" lon="10.644198523488702"><ele>99.0</ele><time>2026-03-30T12:02:39Z</time></trkpt><trkpt lat="45.33300969079575" lon="10.644157152536849"><ele>98.4</ele><time>2026-03-30T12:02:40Z</time></trkpt><trkpt lat="45.33293565618206" lon="10.644099413371501"><ele>97.80000000000001</ele><time>2026-03-30T12:02:42Z</time></trkpt><trkpt lat="45.33292764710636" lon="10.643972388799673"><ele>97.19999999999999</ele><time>2026-03-30T12:02:45Z</time></trkpt><trkpt lat="45.332974443993706" lon="10.643858723527464"><ele>96.6</ele><time>2026-03-30T12:02:46Z</time></trkpt><trkpt lat="45.333036572773004" lon="10.643690799948029"><ele>96.0</ele><time>2026-03-30T12:02:47Z</time></trkpt><trkpt lat="45.33309419047892" lon="10.643536126913187"><ele>96.0</ele><time>2026-03-30T12:02:48Z</time></trkpt><trkpt lat="45.333128477126614" lon="10.643414936095734"><ele>96.0</ele><time>2026-03-30T12:02:49Z</time></trkpt><trkpt lat="45.33316639536908" lon="10.64329895934973"><ele>96.0</ele><time>2026-03-30T12:02:50Z</time></trkpt><trkpt lat="45.33319823097516" lon="10.643199379498974"><ele>96.0</ele><time>2026-03-30T12:02:51Z</time></trkpt><trkpt lat="45.33323229028986" lon="10.643103182416052"><ele>96.0</ele><time>2026-03-30T12:02:52Z</time></trkpt><trkpt lat="45.33328576078171" lon="10.642971742304564"><ele>96.0</ele><time>2026-03-30T12:02:54Z</time></trkpt><trkpt lat="45.33324162975128" lon="10.6428395149089"><ele>95.19999999999999</ele><time>2026-03-30T12:02:56Z</time></trkpt><trkpt lat="45.333170956057415" lon="10.642762802760345"><ele>94.39999999999999</ele><time>2026-03-30T12:02:57Z</time></trkpt><trkpt lat="45.333097678988665" lon="10.642664558440055"><ele>93.6</ele><time>2026-03-30T12:02:57.999Z</time></trkpt><trkpt lat="45.333052292496156" lon="10.642541418876666"><ele>92.8</ele><time>2026-03-30T12:02:58.999Z</time></trkpt><trkpt lat="45.3330332005307" lon="10.642392071415408"><ele>92.0</ele><time>2026-03-30T12:02:59.999Z</time></trkpt><trkpt lat="45.33303164182504" lon="10.642235468855453"><ele>91.66666666666667</ele><time>2026-03-30T12:03:00.999Z</time></trkpt><trkpt lat="45.33302964175095" lon="10.64209647873872"><ele>91.33333333333334</ele><time>2026-03-30T12:03:01.999Z</time></trkpt><trkpt lat="45.33300829409935" lon="10.64198228122728"><ele>91.0</ele><time>2026-03-30T12:03:02.999Z</time></trkpt><trkpt lat="45.33297071708433" lon="10.64188169604084"><ele>90.66666666666667</ele><time>2026-03-30T12:03:03.999Z</time></trkpt><trkpt lat="45.33291040670029" lon="10.641780972251393"><ele>90.33333333333333</ele><time>2026-03-30T12:03:04.999Z</time></trkpt><trkpt lat="45.33285133013398" lon="10.641688706236446"><ele>90.0</ele><time>2026-03-30T12:03:05.999Z</time></trkpt><trkpt lat="45.33280053334033" lon="10.641603500458622"><ele>90.0</ele><time>2026-03-30T12:03:06.999Z</time></trkpt><trkpt lat="45.33274403478092" lon="10.641542932695625"><ele>90.0</ele><time>2026-03-30T12:03:07.999Z</time></trkpt><trkpt lat="45.33267599335137" lon="10.641536872135656"><ele>90.0</ele><time>2026-03-30T12:03:08.999Z</time></trkpt><trkpt lat="45.332552662367824" lon="10.641644805660098"><ele>90.0</ele><time>2026-03-30T12:03:10.999Z</time></trkpt><trkpt lat="45.33246835577286" lon="10.641757692725198"><ele>90.0</ele><time>2026-03-30T12:03:11.999Z</time></trkpt><trkpt lat="45.33240665431342" lon="10.641866990046688"><ele>90.0</ele><time>2026-03-30T12:03:12.999Z</time></trkpt><trkpt lat="45.332368010329944" lon="10.641967304786402"><ele>90.0</ele><time>2026-03-30T12:03:13.999Z</time></trkpt><trkpt lat="45.33230237423359" lon="10.642037138970014"><ele>90.0</ele><time>2026-03-30T12:03:14.999Z</time></trkpt><trkpt lat="45.33222557771427" lon="10.642107468815876"><ele>90.0</ele><time>2026-03-30T12:03:15.999Z</time></trkpt><trkpt lat="45.33216157530196" lon="10.642147247054103"><ele>90.0</ele><time>2026-03-30T12:03:16.999Z</time></trkpt><trkpt lat="45.33209166347454" lon="10.642177770042023"><ele>90.0</ele><time>2026-03-30T12:03:17.999Z</time></trkpt><trkpt lat="45.33202129726007" lon="10.642195490931654"><ele>89.6</ele><time>2026-03-30T12:03:18.999Z</time></trkpt><trkpt lat="45.33193692462796" lon="10.642184105933483"><ele>89.2</ele><time>2026-03-30T12:03:19.999Z</time></trkpt><trkpt lat="45.33182187734159" lon="10.642161404740271"><ele>88.80000000000001</ele><time>2026-03-30T12:03:20.999Z</time></trkpt><trkpt lat="45.33174964110197" lon="10.642127848266512"><ele>88.4</ele><time>2026-03-30T12:03:21.999Z</time></trkpt><trkpt lat="45.33168877680899" lon="10.642080740649517"><ele>88.0</ele><time>2026-03-30T12:03:22.999Z</time></trkpt><trkpt lat="45.33161903058473" lon="10.641943895255627"><ele>88.0</ele><time>2026-03-30T12:03:24.999Z</time></trkpt><trkpt lat="45.33162387561173" lon="10.64176774032728"><ele>88.0</ele><time>2026-03-30T12:03:26.999Z</time></trkpt><trkpt lat="45.33165087482435" lon="10.641629923821242"><ele>88.0</ele><time>2026-03-30T12:03:27.999Z</time></trkpt><trkpt lat="45.33168782349138" lon="10.641458369547019"><ele>88.0</ele><time>2026-03-30T12:03:28.999Z</time></trkpt><trkpt lat="45.33172086340977" lon="10.641288446955922"><ele>88.0</ele><time>2026-03-30T12:03:29.999Z</time></trkpt><trkpt lat="45.33173374453371" lon="10.641150121794423"><ele>88.0</ele><time>2026-03-30T12:03:30.999Z</time></trkpt><trkpt lat="45.3317165219999" lon="10.641035358045649"><ele>88.0</ele><time>2026-03-30T12:03:31.999Z</time></trkpt><trkpt lat="45.33169244912208" lon="10.640932155862671"><ele>88.0</ele><time>2026-03-30T12:03:32.999Z</time></trkpt><trkpt lat="45.33170792358295" lon="10.640767235426559"><ele>88.0</ele><time>2026-03-30T12:03:34.999Z</time></trkpt><trkpt lat="45.3317417100779" lon="10.640632645442722"><ele>87.80000000000001</ele><time>2026-03-30T12:03:36.999Z</time></trkpt><trkpt lat="45.3317216105224" lon="10.640471465206254"><ele>87.6</ele><time>2026-03-30T12:03:38.999Z</time></trkpt><trkpt lat="45.33166748090986" lon="10.640303136501123"><ele>87.4</ele><time>2026-03-30T12:03:40.999Z</time></trkpt><trkpt lat="45.33167122636232" lon="10.640209821747332"><ele>87.19999999999999</ele><time>2026-03-30T12:03:41.999Z</time></trkpt><trkpt lat="45.33168507180976" lon="10.640113679214972"><ele>87.0</ele><time>2026-03-30T12:03:42.999Z</time></trkpt><trkpt lat="45.33166913845586" lon="10.64001727271094"><ele>86.5</ele><time>2026-03-30T12:03:43.999Z</time></trkpt><trkpt lat="45.331620658491524" lon="10.639952158847585"><ele>86.0</ele><time>2026-03-30T12:03:44.999Z</time></trkpt><trkpt lat="45.33156891558259" lon="10.639826354000709"><ele>85.5</ele><time>2026-03-30T12:03:46.999Z</time></trkpt><trkpt lat="45.33158591780706" lon="10.63972874996921"><ele>85.0</ele><time>2026-03-30T12:03:47.999Z</time></trkpt><trkpt lat="45.331611616517584" lon="10.639610659839116"><ele>84.5</ele><time>2026-03-30T12:03:48.999Z</time></trkpt><trkpt lat="45.33164429067381" lon="10.639504480755855"><ele>84.0</ele><time>2026-03-30T12:03:49.999Z</time></trkpt><trkpt lat="45.3316965287181" lon="10.639424756514712"><ele>84.0</ele><time>2026-03-30T12:03:50.999Z</time></trkpt><trkpt lat="45.331776579241556" lon="10.63936129139309"><ele>84.0</ele><time>2026-03-30T12:03:51.999Z</time></trkpt><trkpt lat="45.33186545572435" lon="10.639308068827948"><ele>84.0</ele><time>2026-03-30T12:03:52.999Z</time></trkpt><trkpt lat="45.33194720047908" lon="10.639210101333338"><ele>84.0</ele><time>2026-03-30T12:03:53.999Z</time></trkpt><trkpt lat="45.33201580222754" lon="10.639085648306416"><ele>84.0</ele><time>2026-03-30T12:03:54.999Z</time></trkpt><trkpt lat="45.33206215241252" lon="10.638986356370133"><ele>84.0</ele><time>2026-03-30T12:03:55.999Z</time></trkpt><trkpt lat="45.332125509581864" lon="10.63890716098703"><ele>84.0</ele><time>2026-03-30T12:03:56.999Z</time></trkpt><trkpt lat="45.33223163394572" lon="10.638846981375846"><ele>84.0</ele><time>2026-03-30T12:03:57.999Z</time></trkpt><trkpt lat="45.33234313215974" lon="10.638785520296292"><ele>84.0</ele><time>2026-03-30T12:03:58.999Z</time></trkpt><trkpt lat="45.332453290383725" lon="10.638715841559119"><ele>84.0</ele><time>2026-03-30T12:04:00Z</time></trkpt><trkpt lat="45.33254973777107" lon="10.638624477036517"><ele>86.16666666666667</ele><time>2026-03-30T12:04:01Z</time></trkpt><trkpt lat="45.3326079293998" lon="10.638536488656925"><ele>88.33333333333334</ele><time>2026-03-30T12:04:02Z</time></trkpt><trkpt lat="45.33266051383946" lon="10.638468665600623"><ele>90.5</ele><time>2026-03-30T12:04:03Z</time></trkpt><trkpt lat="45.332703874721155" lon="10.638384538439503"><ele>92.66666666666667</ele><time>2026-03-30T12:04:04Z</time></trkpt><trkpt lat="45.33276075584049" lon="10.638278122822735"><ele>94.83333333333334</ele><time>2026-03-30T12:04:05Z</time></trkpt><trkpt lat="45.3328296126682" lon="10.638145667130422"><ele>97.0</ele><time>2026-03-30T12:04:06Z</time></trkpt><trkpt lat="45.33289523072808" lon="10.638009037786023"><ele>97.0</ele><time>2026-03-30T12:04:07Z</time></trkpt><trkpt lat="45.33296082115513" lon="10.637886026005178"><ele>97.0</ele><time>2026-03-30T12:04:08Z</time></trkpt><trkpt lat="45.33302624604263" lon="10.637751167898356"><ele>97.0</ele><time>2026-03-30T12:04:09Z</time></trkpt><trkpt lat="45.33308366451639" lon="10.637652449302852"><ele>97.0</ele><time>2026-03-30T12:04:10Z</time></trkpt><trkpt lat="45.33313196834338" lon="10.637576065753006"><ele>97.0</ele><time>2026-03-30T12:04:11Z</time></trkpt><trkpt lat="45.333148724233425" lon="10.637435763435098"><ele>97.16666666666667</ele><time>2026-03-30T12:04:13Z</time></trkpt><trkpt lat="45.333104013412914" lon="10.63733102707783"><ele>97.33333333333334</ele><time>2026-03-30T12:04:15Z</time></trkpt><trkpt lat="45.3331807121119" lon="10.637296654609601"><ele>97.5</ele><time>2026-03-30T12:04:19Z</time></trkpt><trkpt lat="45.333202783603745" lon="10.637394440565252"><ele>97.66666666666666</ele><time>2026-03-30T12:04:22Z</time></trkpt><trkpt lat="45.3331546254242" lon="10.63748368071619"><ele>97.83333333333333</ele><time>2026-03-30T12:04:24Z</time></trkpt><trkpt lat="45.333110732874566" lon="10.63762831515144"><ele>98.0</ele><time>2026-03-30T12:04:26Z</time></trkpt><trkpt lat="45.333032920386636" lon="10.637771088703479"><ele>97.75</ele><time>2026-03-30T12:04:28Z</time></trkpt><trkpt lat="45.33296546309082" lon="10.637896202789912"><ele>97.5</ele><time>2026-03-30T12:04:30Z</time></trkpt><trkpt lat="45.33289456338773" lon="10.638001274790676"><ele>97.25</ele><time>2026-03-30T12:04:32Z</time></trkpt><trkpt lat="45.33282777988722" lon="10.63814518038229"><ele>97.0</ele><time>2026-03-30T12:04:34Z</time></trkpt><trkpt lat="45.33275650949705" lon="10.638282469931392"><ele>97.0</ele><time>2026-03-30T12:04:36Z</time></trkpt><trkpt lat="45.33271375168318" lon="10.638359987075766"><ele>97.0</ele><time>2026-03-30T12:04:38Z</time></trkpt><trkpt lat="45.33284854858422" lon="10.638264077725713"><ele>97.0</ele><time>2026-03-30T12:04:46Z</time></trkpt><trkpt lat="45.332909467792604" lon="10.63820374386225"><ele>97.0</ele><time>2026-03-30T12:04:47Z</time></trkpt><trkpt lat="45.332980718305635" lon="10.638120753041635"><ele>97.0</ele><time>2026-03-30T12:04:48Z</time></trkpt><trkpt lat="45.33305673507209" lon="10.63802516910998"><ele>97.19999999999999</ele><time>2026-03-30T12:04:49Z</time></trkpt><trkpt lat="45.333130262702035" lon="10.637947637688724"><ele>97.4</ele><time>2026-03-30T12:04:50Z</time></trkpt><trkpt lat="45.33322516667811" lon="10.6378708499765"><ele>97.6</ele><time>2026-03-30T12:04:51Z</time></trkpt><trkpt lat="45.33331893461954" lon="10.637819697201609"><ele>97.80000000000001</ele><time>2026-03-30T12:04:52Z</time></trkpt><trkpt lat="45.333425037170755" lon="10.637770186958878"><ele>98.0</ele><time>2026-03-30T12:04:53Z</time></trkpt><trkpt lat="45.333529237661644" lon="10.637725830745355"><ele>98.0</ele><time>2026-03-30T12:04:54Z</time></trkpt><trkpt lat="45.3336368954144" lon="10.637675284912499"><ele>98.0</ele><time>2026-03-30T12:04:55Z</time></trkpt><trkpt lat="45.33373887209432" lon="10.637618963886505"><ele>98.0</ele><time>2026-03-30T12:04:56Z</time></trkpt><trkpt lat="45.33382210765163" lon="10.637578859519955"><ele>98.0</ele><time>2026-03-30T12:04:57Z</time></trkpt><trkpt lat="45.3338991669151" lon="10.637535009231303"><ele>98.0</ele><time>2026-03-30T12:04:58Z</time></trkpt><trkpt lat="45.33397062296333" lon="10.637489388739914"><ele>96.99999999999999</ele><time>2026-03-30T12:04:59Z</time></trkpt><trkpt lat="45.334037369192785" lon="10.637439257437022"><ele>96.0</ele><time>2026-03-30T12:05:00Z</time></trkpt><trkpt lat="45.334106054883094" lon="10.637384084797704"><ele>95.0</ele><time>2026-03-30T12:05:01Z</time></trkpt><trkpt lat="45.334178789131585" lon="10.637334477130395"><ele>94.0</ele><time>2026-03-30T12:05:02Z</time></trkpt><trkpt lat="45.334248328543794" lon="10.63722828833734"><ele>93.0</ele><time>2026-03-30T12:05:03Z</time></trkpt><trkpt lat="45.33430903471484" lon="10.637132564463686"><ele>92.0</ele><time>2026-03-30T12:05:03.999Z</time></trkpt><trkpt lat="45.33437866507855" lon="10.63700347778587"><ele>93.0</ele><time>2026-03-30T12:05:04.999Z</time></trkpt><trkpt lat="45.3344569348175" lon="10.636883484710433"><ele>94.0</ele><time>2026-03-30T12:05:05.999Z</time></trkpt><trkpt lat="45.334522884567555" lon="10.636756067352207"><ele>95.0</ele><time>2026-03-30T12:05:06.999Z</time></trkpt><trkpt lat="45.334576347157125" lon="10.636645059957793"><ele>96.0</ele><time>2026-03-30T12:05:07.999Z</time></trkpt><trkpt lat="45.3346423809793" lon="10.636545877908654"><ele>97.0</ele><time>2026-03-30T12:05:08.999Z</time></trkpt><trkpt lat="45.33472157773975" lon="10.636463016186427"><ele>97.0</ele><time>2026-03-30T12:05:09.999Z</time></trkpt><trkpt lat="45.33482716536056" lon="10.636363950316968"><ele>97.0</ele><time>2026-03-30T12:05:10.999Z</time></trkpt><trkpt lat="45.334938233131524" lon="10.636267089359924"><ele>97.0</ele><time>2026-03-30T12:05:11.999Z</time></trkpt><trkpt lat="45.335046028908955" lon="10.636171650306903"><ele>97.0</ele><time>2026-03-30T12:05:12.999Z</time></trkpt><trkpt lat="45.335143048429565" lon="10.636077294147656"><ele>97.0</ele><time>2026-03-30T12:05:13.999Z</time></trkpt><trkpt lat="45.33523513225297" lon="10.635996465551166"><ele>97.0</ele><time>2026-03-30T12:05:14.999Z</time></trkpt><trkpt lat="45.33530900008467" lon="10.635921461342496"><ele>97.0</ele><time>2026-03-30T12:05:15.999Z</time></trkpt><trkpt lat="45.33537368222287" lon="10.635819425618214"><ele>97.0</ele><time>2026-03-30T12:05:16.999Z</time></trkpt><trkpt lat="45.33544129079314" lon="10.635697888189808"><ele>97.0</ele><time>2026-03-30T12:05:17.999Z</time></trkpt><trkpt lat="45.335502345263926" lon="10.635597316860682"><ele>97.5</ele><time>2026-03-30T12:05:18.999Z</time></trkpt><trkpt lat="45.33557146156567" lon="10.63534645506182"><ele>98.0</ele><time>2026-03-30T12:05:19.999Z</time></trkpt><trkpt lat="45.33563110745759" lon="10.635198638505004"><ele>98.5</ele><time>2026-03-30T12:05:20.999Z</time></trkpt><trkpt lat="45.33569344107773" lon="10.635073373891093"><ele>99.0</ele><time>2026-03-30T12:05:21.999Z</time></trkpt><trkpt lat="45.33576006692243" lon="10.634940374528883"><ele>99.6</ele><time>2026-03-30T12:05:22.999Z</time></trkpt><trkpt lat="45.3358332185" lon="10.634833439369158"><ele>100.2</ele><time>2026-03-30T12:05:23.999Z</time></trkpt><trkpt lat="45.33590176843588" lon="10.634706626425707"><ele>100.8</ele><time>2026-03-30T12:05:24.999Z</time></trkpt><trkpt lat="45.335950498543305" lon="10.634603815152852"><ele>101.39999999999999</ele><time>2026-03-30T12:05:25.999Z</time></trkpt><trkpt lat="45.33601188128394" lon="10.634522443429072"><ele>102.0</ele><time>2026-03-30T12:05:26.999Z</time></trkpt><trkpt lat="45.33609893925864" lon="10.634465954072745"><ele>102.19999999999999</ele><time>2026-03-30T12:05:27.999Z</time></trkpt><trkpt lat="45.336207902376785" lon="10.634423514962222"><ele>102.4</ele><time>2026-03-30T12:05:28.999Z</time></trkpt><trkpt lat="45.336299606379875" lon="10.634395874046186"><ele>102.6</ele><time>2026-03-30T12:05:29.999Z</time></trkpt><trkpt lat="45.33637451379442" lon="10.63437702504021"><ele>102.80000000000001</ele><time>2026-03-30T12:05:30.999Z</time></trkpt><trkpt lat="45.33644761735859" lon="10.634351557202473"><ele>103.0</ele><time>2026-03-30T12:05:31.999Z</time></trkpt><trkpt lat="45.336564165946406" lon="10.634363155184328"><ele>103.4</ele><time>2026-03-30T12:05:33.999Z</time></trkpt><trkpt lat="45.33664844239099" lon="10.634524114966315"><ele>103.80000000000001</ele><time>2026-03-30T12:05:35.999Z</time></trkpt><trkpt lat="45.33669458910649" lon="10.63463565954097"><ele>104.2</ele><time>2026-03-30T12:05:36.999Z</time></trkpt><trkpt lat="45.33676069397965" lon="10.634730493438195"><ele>104.6</ele><time>2026-03-30T12:05:37.999Z</time></trkpt><trkpt lat="45.336824012766705" lon="10.634796646459456"><ele>105.0</ele><time>2026-03-30T12:05:38.999Z</time></trkpt><trkpt lat="45.336902146937234" lon="10.63485140413958"><ele>105.0</ele><time>2026-03-30T12:05:39.999Z</time></trkpt><trkpt lat="45.33698216895124" lon="10.634908137071198"><ele>105.0</ele><time>2026-03-30T12:05:40.999Z</time></trkpt><trkpt lat="45.33707583769154" lon="10.634984510101832"><ele>105.0</ele><time>2026-03-30T12:05:41.999Z</time></trkpt><trkpt lat="45.33716192064518" lon="10.635053868084109"><ele>105.0</ele><time>2026-03-30T12:05:42.999Z</time></trkpt><trkpt lat="45.337242910866344" lon="10.635128327635355"><ele>105.0</ele><time>2026-03-30T12:05:43.999Z</time></trkpt><trkpt lat="45.33732043711229" lon="10.635193699030406"><ele>106.4</ele><time>2026-03-30T12:05:44.999Z</time></trkpt><trkpt lat="45.3373740056355" lon="10.635267036721253"><ele>107.8</ele><time>2026-03-30T12:05:45.999Z</time></trkpt><trkpt lat="45.33747889189801" lon="10.635320290856761"><ele>109.19999999999999</ele><time>2026-03-30T12:05:47.999Z</time></trkpt><trkpt lat="45.33757258171539" lon="10.635207528395636"><ele>110.6</ele><time>2026-03-30T12:05:49.999Z</time></trkpt><trkpt lat="45.33762200257496" lon="10.635095290159473"><ele>112.0</ele><time>2026-03-30T12:05:50.999Z</time></trkpt><trkpt lat="45.33768373987015" lon="10.635025925137896"><ele>112.0</ele><time>2026-03-30T12:05:51.999Z</time></trkpt><trkpt lat="45.337784357578954" lon="10.634938604260316"><ele>112.0</ele><time>2026-03-30T12:05:52.999Z</time></trkpt><trkpt lat="45.33788713357769" lon="10.634860872836853"><ele>112.0</ele><time>2026-03-30T12:05:53.999Z</time></trkpt><trkpt lat="45.33800871736885" lon="10.634752987359564"><ele>112.0</ele><time>2026-03-30T12:05:54.999Z</time></trkpt><trkpt lat="45.33813414711761" lon="10.634628342587835"><ele>112.66666666666667</ele><time>2026-03-30T12:05:55.999Z</time></trkpt><trkpt lat="45.338256498928615" lon="10.634508620516957"><ele>113.33333333333334</ele><time>2026-03-30T12:05:56.999Z</time></trkpt><trkpt lat="45.33838829762196" lon="10.634387729047361"><ele>114.0</ele><time>2026-03-30T12:05:57.999Z</time></trkpt><trkpt lat="45.338516906114" lon="10.634284156228407"><ele>114.0</ele><time>2026-03-30T12:05:58.999Z</time></trkpt><trkpt lat="45.338645897834816" lon="10.63418518016873"><ele>114.0</ele><time>2026-03-30T12:05:59.999Z</time></trkpt><trkpt lat="45.338751675388295" lon="10.63410185796258"><ele>114.0</ele><time>2026-03-30T12:06:00.999Z</time></trkpt><trkpt lat="45.33883068649234" lon="10.63402936253948"><ele>114.0</ele><time>2026-03-30T12:06:01.999Z</time></trkpt><trkpt lat="45.338895516998875" lon="10.633973106263394"><ele>114.0</ele><time>2026-03-30T12:06:02.999Z</time></trkpt><trkpt lat="45.338953264129735" lon="10.633936731387951"><ele>114.83333333333333</ele><time>2026-03-30T12:06:03.999Z</time></trkpt><trkpt lat="45.33903042314719" lon="10.633962674787616"><ele>115.66666666666666</ele><time>2026-03-30T12:06:06Z</time></trkpt><trkpt lat="45.339086404061675" lon="10.634063536781696"><ele>116.5</ele><time>2026-03-30T12:06:08Z</time></trkpt><trkpt lat="45.33914069709169" lon="10.634182784437904"><ele>117.33333333333333</ele><time>2026-03-30T12:06:10Z</time></trkpt><trkpt lat="45.33923336747703" lon="10.63414795082754"><ele>118.16666666666666</ele><time>2026-03-30T12:06:12Z</time></trkpt><trkpt lat="45.3393020765374" lon="10.634123122993485"><ele>119.0</ele><time>2026-03-30T12:06:13Z</time></trkpt><trkpt lat="45.33938967956855" lon="10.634070752203172"><ele>119.0</ele><time>2026-03-30T12:06:14Z</time></trkpt><trkpt lat="45.33949101100654" lon="10.634044110950647"><ele>119.0</ele><time>2026-03-30T12:06:15Z</time></trkpt><trkpt lat="45.33960838605556" lon="10.633998259222306"><ele>119.0</ele><time>2026-03-30T12:06:16Z</time></trkpt><trkpt lat="45.339788706296694" lon="10.633920337985368"><ele>119.0</ele><time>2026-03-30T12:06:17Z</time></trkpt><trkpt lat="45.33993442154297" lon="10.633859097876664"><ele>120.0</ele><time>2026-03-30T12:06:18Z</time></trkpt><trkpt lat="45.34007232866343" lon="10.633798533269717"><ele>121.0</ele><time>2026-03-30T12:06:19Z</time></trkpt><trkpt lat="45.34020137963331" lon="10.633751245899122"><ele>122.0</ele><time>2026-03-30T12:06:20Z</time></trkpt><trkpt lat="45.340323590956636" lon="10.633701884337661"><ele>123.0</ele><time>2026-03-30T12:06:21Z</time></trkpt><trkpt lat="45.34043608631166" lon="10.633663949358672"><ele>123.25</ele><time>2026-03-30T12:06:22Z</time></trkpt><trkpt lat="45.340554887913804" lon="10.633604552706537"><ele>123.5</ele><time>2026-03-30T12:06:23Z</time></trkpt><trkpt lat="45.34066897123655" lon="10.633528640172603"><ele>123.75</ele><time>2026-03-30T12:06:24Z</time></trkpt><trkpt lat="45.340774976594425" lon="10.633463793181535"><ele>124.0</ele><time>2026-03-30T12:06:25Z</time></trkpt><trkpt lat="45.34088501817891" lon="10.633410172982302"><ele>124.0</ele><time>2026-03-30T12:06:26Z</time></trkpt><trkpt lat="45.34099770053739" lon="10.633376145058461"><ele>124.0</ele><time>2026-03-30T12:06:27Z</time></trkpt><trkpt lat="45.341128016084625" lon="10.633306302050855"><ele>124.0</ele><time>2026-03-30T12:06:28Z</time></trkpt><trkpt lat="45.341243305598404" lon="10.633226420775237"><ele>124.0</ele><time>2026-03-30T12:06:29Z</time></trkpt><trkpt lat="45.34134918471205" lon="10.633138108740939"><ele>124.66666666666667</ele><time>2026-03-30T12:06:30Z</time></trkpt><trkpt lat="45.341467064674404" lon="10.63300094934362"><ele>125.33333333333334</ele><time>2026-03-30T12:06:31Z</time></trkpt><trkpt lat="45.34157741296518" lon="10.632840298393354"><ele>126.0</ele><time>2026-03-30T12:06:32Z</time></trkpt><trkpt lat="45.34168960774389" lon="10.632668838612165"><ele>126.0</ele><time>2026-03-30T12:06:33Z</time></trkpt><trkpt lat="45.34180394082181" lon="10.63247442742933"><ele>126.0</ele><time>2026-03-30T12:06:34Z</time></trkpt><trkpt lat="45.341906549927074" lon="10.632242320572908"><ele>126.0</ele><time>2026-03-30T12:06:35Z</time></trkpt><trkpt lat="45.3419937719473" lon="10.631992016327539"><ele>126.0</ele><time>2026-03-30T12:06:36Z</time></trkpt><trkpt lat="45.34207617323305" lon="10.631771300500873"><ele>126.0</ele><time>2026-03-30T12:06:37Z</time></trkpt><trkpt lat="45.34215829400506" lon="10.631590908190137"><ele>126.0</ele><time>2026-03-30T12:06:38Z</time></trkpt><trkpt lat="45.342253256258516" lon="10.631450609949125"><ele>126.66666666666666</ele><time>2026-03-30T12:06:39Z</time></trkpt><trkpt lat="45.34238104361231" lon="10.631314515415621"><ele>127.33333333333333</ele><time>2026-03-30T12:06:40Z</time></trkpt><trkpt lat="45.342554724197385" lon="10.631175468724999"><ele>128.0</ele><time>2026-03-30T12:06:41Z</time></trkpt><trkpt lat="45.342767044327275" lon="10.631003706549308"><ele>128.0</ele><time>2026-03-30T12:06:42Z</time></trkpt><trkpt lat="45.34300431152752" lon="10.630801938219598"><ele>128.0</ele><time>2026-03-30T12:06:43Z</time></trkpt><trkpt lat="45.343200630352" lon="10.630627343587387"><ele>129.66666666666666</ele><time>2026-03-30T12:06:44Z</time></trkpt><trkpt lat="45.34336702011728" lon="10.63047937269719"><ele>131.33333333333334</ele><time>2026-03-30T12:06:45Z</time></trkpt><trkpt lat="45.34356445571102" lon="10.630305422479308"><ele>133.0</ele><time>2026-03-30T12:06:46Z</time></trkpt><trkpt lat="45.34374585279838" lon="10.630143407719892"><ele>133.0</ele><time>2026-03-30T12:06:47Z</time></trkpt><trkpt lat="45.34387743155691" lon="10.63000492544848"><ele>133.0</ele><time>2026-03-30T12:06:48Z</time></trkpt><trkpt lat="45.34398063845486" lon="10.62987888687788"><ele>133.0</ele><time>2026-03-30T12:06:49Z</time></trkpt><trkpt lat="45.34408321227324" lon="10.629764114306106"><ele>133.0</ele><time>2026-03-30T12:06:50Z</time></trkpt><trkpt lat="45.34422318056976" lon="10.629630857877522"><ele>133.25</ele><time>2026-03-30T12:06:51Z</time></trkpt><trkpt lat="45.34435213065495" lon="10.629530685988414"><ele>133.5</ele><time>2026-03-30T12:06:52Z</time></trkpt><trkpt lat="45.34446929826691" lon="10.629445890000843"><ele>133.75</ele><time>2026-03-30T12:06:53Z</time></trkpt><trkpt lat="45.34457362476882" lon="10.629366890917982"><ele>134.0</ele><time>2026-03-30T12:06:54Z</time></trkpt><trkpt lat="45.34464141149352" lon="10.629318270169794"><ele>133.5</ele><time>2026-03-30T12:06:55Z</time></trkpt><trkpt lat="45.344700642906695" lon="10.629278540732928"><ele>133.0</ele><time>2026-03-30T12:06:56Z</time></trkpt><trkpt lat="45.34479107219819" lon="10.629196549521794"><ele>132.5</ele><time>2026-03-30T12:06:57Z</time></trkpt><trkpt lat="45.34491557751574" lon="10.6290281848014"><ele>132.0</ele><time>2026-03-30T12:06:58Z</time></trkpt><trkpt lat="45.34506022940609" lon="10.628821823427533"><ele>131.75</ele><time>2026-03-30T12:06:59Z</time></trkpt><trkpt lat="45.345178139152395" lon="10.628670693564175"><ele>131.5</ele><time>2026-03-30T12:07:00Z</time></trkpt><trkpt lat="45.34528029502672" lon="10.628544076145696"><ele>131.25</ele><time>2026-03-30T12:07:01Z</time></trkpt><trkpt lat="45.34537120537232" lon="10.628429156950753"><ele>131.0</ele><time>2026-03-30T12:07:02Z</time></trkpt><trkpt lat="45.3454493999222" lon="10.628314369647109"><ele>130.75</ele><time>2026-03-30T12:07:03Z</time></trkpt><trkpt lat="45.34550499794838" lon="10.628174876959784"><ele>130.5</ele><time>2026-03-30T12:07:04Z</time></trkpt><trkpt lat="45.34553649178898" lon="10.627969136919086"><ele>130.25</ele><time>2026-03-30T12:07:05Z</time></trkpt><trkpt lat="45.34554900551375" lon="10.627705715388188"><ele>130.0</ele><time>2026-03-30T12:07:06Z</time></trkpt><trkpt lat="45.345538446671604" lon="10.627415784076591"><ele>128.33333333333334</ele><time>2026-03-30T12:07:07Z</time></trkpt><trkpt lat="45.345524253031826" lon="10.627102919438158"><ele>126.66666666666666</ele><time>2026-03-30T12:07:08Z</time></trkpt><trkpt lat="45.345500760867886" lon="10.626839251402522"><ele>125.0</ele><time>2026-03-30T12:07:09Z</time></trkpt><trkpt lat="45.345502803347784" lon="10.626586496101758"><ele>124.33333333333333</ele><time>2026-03-30T12:07:10Z</time></trkpt><trkpt lat="45.34551336688988" lon="10.626360264910613"><ele>123.66666666666666</ele><time>2026-03-30T12:07:11Z</time></trkpt><trkpt lat="45.34551786870515" lon="10.626115878790271"><ele>123.0</ele><time>2026-03-30T12:07:11.999Z</time></trkpt><trkpt lat="45.34551202173229" lon="10.625867764728882"><ele>121.0</ele><time>2026-03-30T12:07:12.999Z</time></trkpt><trkpt lat="45.345522884406336" lon="10.625647846032182"><ele>119.0</ele><time>2026-03-30T12:07:13.999Z</time></trkpt><trkpt lat="45.34550539367997" lon="10.625392523336942"><ele>117.0</ele><time>2026-03-30T12:07:14.999Z</time></trkpt><trkpt lat="45.34550906455111" lon="10.625128123348597"><ele>115.66666666666666</ele><time>2026-03-30T12:07:15.999Z</time></trkpt><trkpt lat="45.34548142066391" lon="10.62484460724798"><ele>114.33333333333333</ele><time>2026-03-30T12:07:16.999Z</time></trkpt><trkpt lat="45.34544885256898" lon="10.624578160873417"><ele>113.0</ele><time>2026-03-30T12:07:17.999Z</time></trkpt><trkpt lat="45.34541098434907" lon="10.624315534190995"><ele>111.33333333333333</ele><time>2026-03-30T12:07:18.999Z</time></trkpt><trkpt lat="45.3453853430596" lon="10.624082030227562"><ele>109.66666666666666</ele><time>2026-03-30T12:07:19.999Z</time></trkpt><trkpt lat="45.34535818967895" lon="10.623849890723168"><ele>108.0</ele><time>2026-03-30T12:07:20.999Z</time></trkpt><trkpt lat="45.34533424876363" lon="10.623610359550431"><ele>107.33333333333334</ele><time>2026-03-30T12:07:21.999Z</time></trkpt><trkpt lat="45.345291606409376" lon="10.623347916419249"><ele>106.66666666666667</ele><time>2026-03-30T12:07:22.999Z</time></trkpt><trkpt lat="45.34523765796072" lon="10.623093764733055"><ele>106.0</ele><time>2026-03-30T12:07:23.999Z</time></trkpt><trkpt lat="45.34518423179799" lon="10.62286484288109"><ele>107.33333333333334</ele><time>2026-03-30T12:07:24.999Z</time></trkpt><trkpt lat="45.345123160235985" lon="10.622667729480817"><ele>108.66666666666666</ele><time>2026-03-30T12:07:25.999Z</time></trkpt><trkpt lat="45.34507697542369" lon="10.62244710656117"><ele>110.0</ele><time>2026-03-30T12:07:26.999Z</time></trkpt><trkpt lat="45.34502838675789" lon="10.622244737350181"><ele>110.0</ele><time>2026-03-30T12:07:27.999Z</time></trkpt><trkpt lat="45.344986248784814" lon="10.622032008242128"><ele>110.0</ele><time>2026-03-30T12:07:28.999Z</time></trkpt><trkpt lat="45.344944598812496" lon="10.6218081925392"><ele>110.0</ele><time>2026-03-30T12:07:29.999Z</time></trkpt><trkpt lat="45.34490658205866" lon="10.6215746499505"><ele>111.25</ele><time>2026-03-30T12:07:30.999Z</time></trkpt><trkpt lat="45.34489164600645" lon="10.621351449457933"><ele>112.5</ele><time>2026-03-30T12:07:31.999Z</time></trkpt><trkpt lat="45.3448815675571" lon="10.621153929682068"><ele>113.75</ele><time>2026-03-30T12:07:32.999Z</time></trkpt><trkpt lat="45.34487777811858" lon="10.621004005413015"><ele>115.0</ele><time>2026-03-30T12:07:33.999Z</time></trkpt><trkpt lat="45.34489578039635" lon="10.620901257636715"><ele>115.5</ele><time>2026-03-30T12:07:34.999Z</time></trkpt><trkpt lat="45.3448692424966" lon="10.620773125374392"><ele>116.0</ele><time>2026-03-30T12:07:36.999Z</time></trkpt><trkpt lat="45.34471039085959" lon="10.620724649305252"><ele>116.5</ele><time>2026-03-30T12:07:38.999Z</time></trkpt><trkpt lat="45.344601415498325" lon="10.620693933526939"><ele>117.0</ele><time>2026-03-30T12:07:39.999Z</time></trkpt><trkpt lat="45.34448409084774" lon="10.620628432643727"><ele>114.39999999999999</ele><time>2026-03-30T12:07:40.999Z</time></trkpt><trkpt lat="45.34437614594123" lon="10.620543323181163"><ele>111.79999999999998</ele><time>2026-03-30T12:07:41.999Z</time></trkpt><trkpt lat="45.3442825458783" lon="10.620462575849926"><ele>109.2</ele><time>2026-03-30T12:07:42.999Z</time></trkpt><trkpt lat="45.34421289822097" lon="10.620371146676892"><ele>106.6</ele><time>2026-03-30T12:07:43.999Z</time></trkpt><trkpt lat="45.34415349230009" lon="10.620259887584156"><ele>104.0</ele><time>2026-03-30T12:07:44.999Z</time></trkpt><trkpt lat="45.34408412216803" lon="10.620134307380651"><ele>104.0</ele><time>2026-03-30T12:07:45.999Z</time></trkpt><trkpt lat="45.34399106952325" lon="10.619979212886205"><ele>104.0</ele><time>2026-03-30T12:07:46.999Z</time></trkpt><trkpt lat="45.34386039552547" lon="10.619771480914034"><ele>104.0</ele><time>2026-03-30T12:07:47.999Z</time></trkpt><trkpt lat="45.343695149613424" lon="10.619567117341674"><ele>102.66666666666666</ele><time>2026-03-30T12:07:48.999Z</time></trkpt><trkpt lat="45.343516235734114" lon="10.619360263743932"><ele>101.33333333333334</ele><time>2026-03-30T12:07:49.999Z</time></trkpt><trkpt lat="45.34335149356743" lon="10.619166682336829"><ele>100.0</ele><time>2026-03-30T12:07:50.999Z</time></trkpt><trkpt lat="45.3431928699078" lon="10.61897420961098"><ele>98.0</ele><time>2026-03-30T12:07:51.999Z</time></trkpt><trkpt lat="45.34303320165329" lon="10.618759876877771"><ele>96.0</ele><time>2026-03-30T12:07:52.999Z</time></trkpt><trkpt lat="45.342895636682194" lon="10.618556113496851"><ele>94.0</ele><time>2026-03-30T12:07:53.999Z</time></trkpt><trkpt lat="45.34277898057916" lon="10.618376769778227"><ele>94.0</ele><time>2026-03-30T12:07:54.999Z</time></trkpt><trkpt lat="45.34266994290279" lon="10.618199157528343"><ele>94.0</ele><time>2026-03-30T12:07:55.999Z</time></trkpt><trkpt lat="45.342581005409" lon="10.618038598405334"><ele>94.0</ele><time>2026-03-30T12:07:56.999Z</time></trkpt><trkpt lat="45.34251711461523" lon="10.617884016540103"><ele>94.0</ele><time>2026-03-30T12:07:57.999Z</time></trkpt><trkpt lat="45.34246306640301" lon="10.617728692619021"><ele>94.25</ele><time>2026-03-30T12:07:58.999Z</time></trkpt><trkpt lat="45.3423944115029" lon="10.617577727230882"><ele>94.5</ele><time>2026-03-30T12:07:59.999Z</time></trkpt><trkpt lat="45.342301361268234" lon="10.617419071164864"><ele>94.75</ele><time>2026-03-30T12:08:00.999Z</time></trkpt><trkpt lat="45.34220920260209" lon="10.617217956475502"><ele>95.0</ele><time>2026-03-30T12:08:01.999Z</time></trkpt><trkpt lat="45.34208784831268" lon="10.61697365456037"><ele>93.0</ele><time>2026-03-30T12:08:02.999Z</time></trkpt><trkpt lat="45.341963100161095" lon="10.616738137611419"><ele>91.0</ele><time>2026-03-30T12:08:03.999Z</time></trkpt><trkpt lat="45.34181929099239" lon="10.616358946465931"><ele>90.0</ele><time>2026-03-30T12:08:04.999Z</time></trkpt><trkpt lat="45.34167546923687" lon="10.616042260168953"><ele>89.0</ele><time>2026-03-30T12:08:05.999Z</time></trkpt><trkpt lat="45.341519676277294" lon="10.615703552300149"><ele>89.0</ele><time>2026-03-30T12:08:06.999Z</time></trkpt><trkpt lat="45.34135748048991" lon="10.615345455598279"><ele>89.0</ele><time>2026-03-30T12:08:07.999Z</time></trkpt><trkpt lat="45.34121527618826" lon="10.615017035780557"><ele>88.5</ele><time>2026-03-30T12:08:08.999Z</time></trkpt><trkpt lat="45.34107757843714" lon="10.614702777098628"><ele>88.0</ele><time>2026-03-30T12:08:09.999Z</time></trkpt><trkpt lat="45.34094893486244" lon="10.614409400767714"><ele>87.0</ele><time>2026-03-30T12:08:11Z</time></trkpt><trkpt lat="45.34081271777226" lon="10.61412261226875"><ele>86.0</ele><time>2026-03-30T12:08:12Z</time></trkpt><trkpt lat="45.340683650404046" lon="10.613852729420826"><ele>85.66666666666667</ele><time>2026-03-30T12:08:13Z</time></trkpt><trkpt lat="45.3405600754405" lon="10.613588285392707"><ele>85.33333333333333</ele><time>2026-03-30T12:08:14Z</time></trkpt><trkpt lat="45.34044101060287" lon="10.613315072525488"><ele>85.0</ele><time>2026-03-30T12:08:15Z</time></trkpt><trkpt lat="45.34030558999815" lon="10.613011407410651"><ele>84.5</ele><time>2026-03-30T12:08:16Z</time></trkpt><trkpt lat="45.34015435684673" lon="10.612719665881942"><ele>84.0</ele><time>2026-03-30T12:08:17Z</time></trkpt><trkpt lat="45.340005459782965" lon="10.61245184963214"><ele>84.0</ele><time>2026-03-30T12:08:18Z</time></trkpt><trkpt lat="45.33987848313301" lon="10.612218155142497"><ele>84.0</ele><time>2026-03-30T12:08:19Z</time></trkpt><trkpt lat="45.339756527085925" lon="10.612006135974518"><ele>84.0</ele><time>2026-03-30T12:08:20Z</time></trkpt><trkpt lat="45.339653801229424" lon="10.611815569516628"><ele>83.66666666666667</ele><time>2026-03-30T12:08:21Z</time></trkpt><trkpt lat="45.33956119675075" lon="10.611629236397857"><ele>83.33333333333334</ele><time>2026-03-30T12:08:22Z</time></trkpt><trkpt lat="45.3394821323112" lon="10.611403242170796"><ele>83.0</ele><time>2026-03-30T12:08:23Z</time></trkpt><trkpt lat="45.33941968502359" lon="10.611152224568817"><ele>82.0</ele><time>2026-03-30T12:08:24Z</time></trkpt><trkpt lat="45.33934481278634" lon="10.61091289548093"><ele>81.0</ele><time>2026-03-30T12:08:25Z</time></trkpt><trkpt lat="45.339237444795806" lon="10.610683840687756"><ele>80.0</ele><time>2026-03-30T12:08:26Z</time></trkpt><trkpt lat="45.33910328597884" lon="10.610478650822486"><ele>79.66666666666667</ele><time>2026-03-30T12:08:27Z</time></trkpt><trkpt lat="45.33894069585317" lon="10.61029355332159"><ele>79.33333333333333</ele><time>2026-03-30T12:08:28Z</time></trkpt><trkpt lat="45.3387512138961" lon="10.610145263523913"><ele>79.0</ele><time>2026-03-30T12:08:29Z</time></trkpt><trkpt lat="45.33851701483086" lon="10.60996220473375"><ele>78.5</ele><time>2026-03-30T12:08:30Z</time></trkpt><trkpt lat="45.33830184471065" lon="10.609786164651624"><ele>78.0</ele><time>2026-03-30T12:08:31Z</time></trkpt><trkpt lat="45.33810869604131" lon="10.609628445920237"><ele>77.33333333333333</ele><time>2026-03-30T12:08:32Z</time></trkpt><trkpt lat="45.337930391981345" lon="10.609483100791353"><ele>76.66666666666666</ele><time>2026-03-30T12:08:33Z</time></trkpt><trkpt lat="45.33777213623957" lon="10.609352629586004"><ele>76.0</ele><time>2026-03-30T12:08:34Z</time></trkpt><trkpt lat="45.33762388862476" lon="10.60922705410323"><ele>76.0</ele><time>2026-03-30T12:08:35Z</time></trkpt><trkpt lat="45.33749179354311" lon="10.609112652716682"><ele>76.0</ele><time>2026-03-30T12:08:36Z</time></trkpt><trkpt lat="45.33737084420651" lon="10.60901429455473"><ele>76.0</ele><time>2026-03-30T12:08:37Z</time></trkpt><trkpt lat="45.33726757837186" lon="10.608936215911177"><ele>76.0</ele><time>2026-03-30T12:08:38Z</time></trkpt><trkpt lat="45.33717280407908" lon="10.608866672390421"><ele>76.0</ele><time>2026-03-30T12:08:39Z</time></trkpt><trkpt lat="45.337089697575834" lon="10.608803765736566"><ele>76.0</ele><time>2026-03-30T12:08:40Z</time></trkpt><trkpt lat="45.337052137980336" lon="10.608712405271882"><ele>76.0</ele><time>2026-03-30T12:08:41Z</time></trkpt><trkpt lat="45.337006479315164" lon="10.608643298013398"><ele>76.0</ele><time>2026-03-30T12:08:44Z</time></trkpt><trkpt lat="45.33708417111587" lon="10.608509799469033"><ele>76.0</ele><time>2026-03-30T12:08:45Z</time></trkpt><trkpt lat="45.33714309911564" lon="10.608360468029106"><ele>76.0</ele><time>2026-03-30T12:08:46Z</time></trkpt><trkpt lat="45.33722466309514" lon="10.608153185311641"><ele>76.0</ele><time>2026-03-30T12:08:47Z</time></trkpt><trkpt lat="45.33732088911836" lon="10.60790864119094"><ele>76.0</ele><time>2026-03-30T12:08:48Z</time></trkpt><trkpt lat="45.33742945751067" lon="10.6076338049046"><ele>76.0</ele><time>2026-03-30T12:08:49Z</time></trkpt><trkpt lat="45.337533310076445" lon="10.607383852496904"><ele>76.0</ele><time>2026-03-30T12:08:50Z</time></trkpt><trkpt lat="45.337623797335624" lon="10.607142457390434"><ele>76.0</ele><time>2026-03-30T12:08:51Z</time></trkpt><trkpt lat="45.337725318642306" lon="10.60692063465405"><ele>76.0</ele><time>2026-03-30T12:08:52Z</time></trkpt><trkpt lat="45.33782351388463" lon="10.606729204545523"><ele>76.0</ele><time>2026-03-30T12:08:53Z</time></trkpt><trkpt lat="45.33790434125891" lon="10.606555589344413"><ele>76.0</ele><time>2026-03-30T12:08:54Z</time></trkpt><trkpt lat="45.33797374931817" lon="10.606412065019857"><ele>76.0</ele><time>2026-03-30T12:08:55Z</time></trkpt><trkpt lat="45.338029955040085" lon="10.606292063368139"><ele>76.0</ele><time>2026-03-30T12:08:56Z</time></trkpt><trkpt lat="45.33807067422031" lon="10.606204179950039"><ele>76.0</ele><time>2026-03-30T12:08:57Z</time></trkpt><trkpt lat="45.33811772223223" lon="10.606113963855826"><ele>76.0</ele><time>2026-03-30T12:08:59Z</time></trkpt><trkpt lat="45.33793461090325" lon="10.605955911804863"><ele>76.0</ele><time>2026-03-30T12:09:01Z</time></trkpt><trkpt lat="45.33785734167924" lon="10.605901788925548"><ele>75.75</ele><time>2026-03-30T12:09:02Z</time></trkpt><trkpt lat="45.33774817446615" lon="10.605936380544042"><ele>75.5</ele><time>2026-03-30T12:09:03Z</time></trkpt><trkpt lat="45.337624065807155" lon="10.605955688077737"><ele>75.25</ele><time>2026-03-30T12:09:04Z</time></trkpt><trkpt lat="45.33747302646211" lon="10.605946936965589"><ele>75.0</ele><time>2026-03-30T12:09:05Z</time></trkpt><trkpt lat="45.337305840807545" lon="10.605972829861306"><ele>75.0</ele><time>2026-03-30T12:09:06Z</time></trkpt><trkpt lat="45.3371267831713" lon="10.60604119777619"><ele>75.0</ele><time>2026-03-30T12:09:07Z</time></trkpt><trkpt lat="45.3369539440088" lon="10.60611882103156"><ele>75.0</ele><time>2026-03-30T12:09:08Z</time></trkpt><trkpt lat="45.33680502609622" lon="10.606210305104376"><ele>75.66666666666667</ele><time>2026-03-30T12:09:09Z</time></trkpt><trkpt lat="45.336656346347226" lon="10.606251674245733"><ele>76.33333333333334</ele><time>2026-03-30T12:09:10Z</time></trkpt><trkpt lat="45.336501341543965" lon="10.606284471654668"><ele>77.0</ele><time>2026-03-30T12:09:11Z</time></trkpt><trkpt lat="45.33635338523181" lon="10.606291923030748"><ele>76.0</ele><time>2026-03-30T12:09:12Z</time></trkpt><trkpt lat="45.33621953136948" lon="10.606294295874347"><ele>75.0</ele><time>2026-03-30T12:09:13Z</time></trkpt><trkpt lat="45.33610460522965" lon="10.606299164558314"><ele>74.0</ele><time>2026-03-30T12:09:14Z</time></trkpt><trkpt lat="45.335999493678386" lon="10.606338274407344"><ele>73.0</ele><time>2026-03-30T12:09:15Z</time></trkpt><trkpt lat="45.33588100823818" lon="10.606342226319486"><ele>73.0</ele><time>2026-03-30T12:09:16Z</time></trkpt><trkpt lat="45.335781316258" lon="10.606395066745623"><ele>73.0</ele><time>2026-03-30T12:09:16.999Z</time></trkpt><trkpt lat="45.33569936462186" lon="10.606384871222211"><ele>73.0</ele><time>2026-03-30T12:09:17.999Z</time></trkpt><trkpt lat="45.33559155116154" lon="10.606433716550578"><ele>73.0</ele><time>2026-03-30T12:09:19.999Z</time></trkpt><trkpt lat="45.33544621138798" lon="10.606075793217327"><ele>73.0</ele><time>2026-03-30T12:09:20.999Z</time></trkpt><trkpt lat="45.33535941656187" lon="10.605878460431649"><ele>73.0</ele><time>2026-03-30T12:09:21.999Z</time></trkpt><trkpt lat="45.3352881334679" lon="10.60564405675324"><ele>73.0</ele><time>2026-03-30T12:09:22.999Z</time></trkpt><trkpt lat="45.335248705414166" lon="10.605419503599457"><ele>72.33333333333333</ele><time>2026-03-30T12:09:23.999Z</time></trkpt><trkpt lat="45.335247145661235" lon="10.605210655441228"><ele>71.66666666666667</ele><time>2026-03-30T12:09:24.999Z</time></trkpt><trkpt lat="45.33524304572072" lon="10.604974085730024"><ele>71.0</ele><time>2026-03-30T12:09:25.999Z</time></trkpt><trkpt lat="45.335249802149946" lon="10.60470994854671"><ele>71.0</ele><time>2026-03-30T12:09:26.999Z</time></trkpt><trkpt lat="45.335277006745336" lon="10.604415629301421"><ele>71.0</ele><time>2026-03-30T12:09:27.999Z</time></trkpt><trkpt lat="45.33533405380251" lon="10.604115492866697"><ele>71.0</ele><time>2026-03-30T12:09:28.999Z</time></trkpt><trkpt lat="45.33541556821054" lon="10.60380494120432"><ele>71.5</ele><time>2026-03-30T12:09:29.999Z</time></trkpt><trkpt lat="45.335503180502194" lon="10.603464553121682"><ele>72.0</ele><time>2026-03-30T12:09:30.999Z</time></trkpt><trkpt lat="45.335598624924" lon="10.603085032067925"><ele>72.5</ele><time>2026-03-30T12:09:31.999Z</time></trkpt><trkpt lat="45.3356873650297" lon="10.602738709829348"><ele>73.0</ele><time>2026-03-30T12:09:32.999Z</time></trkpt><trkpt lat="45.335747592882306" lon="10.602393952977883"><ele>73.0</ele><time>2026-03-30T12:09:33.999Z</time></trkpt><trkpt lat="45.33582950632176" lon="10.6020920344852"><ele>73.0</ele><time>2026-03-30T12:09:34.999Z</time></trkpt><trkpt lat="45.33590574282375" lon="10.601800593162743"><ele>73.0</ele><time>2026-03-30T12:09:35.999Z</time></trkpt><trkpt lat="45.33598257494609" lon="10.601478012244211"><ele>74.0</ele><time>2026-03-30T12:09:36.999Z</time></trkpt><trkpt lat="45.33609100463494" lon="10.601177075261212"><ele>75.0</ele><time>2026-03-30T12:09:37.999Z</time></trkpt><trkpt lat="45.33617910715844" lon="10.600835515512035"><ele>75.0</ele><time>2026-03-30T12:09:38.999Z</time></trkpt><trkpt lat="45.33626814791571" lon="10.60047882739003"><ele>75.0</ele><time>2026-03-30T12:09:39.999Z</time></trkpt><trkpt lat="45.336348779847405" lon="10.60015522466147"><ele>74.66666666666667</ele><time>2026-03-30T12:09:40.999Z</time></trkpt><trkpt lat="45.33642451755683" lon="10.599860391156735"><ele>74.33333333333334</ele><time>2026-03-30T12:09:41.999Z</time></trkpt><trkpt lat="45.336493588017234" lon="10.599590770906202"><ele>74.0</ele><time>2026-03-30T12:09:42.999Z</time></trkpt><trkpt lat="45.33655083916014" lon="10.599370206557245"><ele>74.0</ele><time>2026-03-30T12:09:43.999Z</time></trkpt><trkpt lat="45.336598112084076" lon="10.59918995762148"><ele>74.0</ele><time>2026-03-30T12:09:44.999Z</time></trkpt><trkpt lat="45.33662912663079" lon="10.599067383024497"><ele>74.0</ele><time>2026-03-30T12:09:45.999Z</time></trkpt><trkpt lat="45.33664931014585" lon="10.598977661196322"><ele>74.0</ele><time>2026-03-30T12:09:46.999Z</time></trkpt><trkpt lat="45.33664209510363" lon="10.598870139848387"><ele>74.0</ele><time>2026-03-30T12:09:48.999Z</time></trkpt><trkpt lat="45.33658335511457" lon="10.598754783122256"><ele>74.0</ele><time>2026-03-30T12:09:49.999Z</time></trkpt><trkpt lat="45.336591507587144" lon="10.598626683123477"><ele>74.0</ele><time>2026-03-30T12:09:50.999Z</time></trkpt><trkpt lat="45.33660166715928" lon="10.598457891317809"><ele>74.0</ele><time>2026-03-30T12:09:51.999Z</time></trkpt><trkpt lat="45.33661334988455" lon="10.598227926614928"><ele>74.0</ele><time>2026-03-30T12:09:52.999Z</time></trkpt><trkpt lat="45.336627027958244" lon="10.597936068507137"><ele>74.33333333333334</ele><time>2026-03-30T12:09:53.999Z</time></trkpt><trkpt lat="45.33664172756083" lon="10.597622413372449"><ele>74.66666666666667</ele><time>2026-03-30T12:09:54.999Z</time></trkpt><trkpt lat="45.33665691792629" lon="10.597301743396471"><ele>75.0</ele><time>2026-03-30T12:09:55.999Z</time></trkpt><trkpt lat="45.33667299862153" lon="10.596969087625949"><ele>75.33333333333333</ele><time>2026-03-30T12:09:56.999Z</time></trkpt><trkpt lat="45.33668840715856" lon="10.59665033675179"><ele>75.66666666666666</ele><time>2026-03-30T12:09:57.999Z</time></trkpt><trkpt lat="45.33670274704684" lon="10.596364469578035"><ele>76.0</ele><time>2026-03-30T12:09:58.999Z</time></trkpt><trkpt lat="45.336716215456384" lon="10.596095904154744"><ele>76.66666666666666</ele><time>2026-03-30T12:09:59.999Z</time></trkpt><trkpt lat="45.33672822037847" lon="10.595848955516601"><ele>77.33333333333333</ele><time>2026-03-30T12:10:00.999Z</time></trkpt><trkpt lat="45.33672272601385" lon="10.59562672865466"><ele>78.0</ele><time>2026-03-30T12:10:01.999Z</time></trkpt><trkpt lat="45.336733966055796" lon="10.595413836404957"><ele>78.0</ele><time>2026-03-30T12:10:02.999Z</time></trkpt><trkpt lat="45.336757782158266" lon="10.595232208103528"><ele>78.0</ele><time>2026-03-30T12:10:03.999Z</time></trkpt><trkpt lat="45.33675013168952" lon="10.595062467032106"><ele>78.0</ele><time>2026-03-30T12:10:04.999Z</time></trkpt><trkpt lat="45.33676774020997" lon="10.594922460292262"><ele>78.0</ele><time>2026-03-30T12:10:05.999Z</time></trkpt><trkpt lat="45.33679649978069" lon="10.59481162499517"><ele>78.0</ele><time>2026-03-30T12:10:06.999Z</time></trkpt><trkpt lat="45.33682183322199" lon="10.59472622627951"><ele>78.0</ele><time>2026-03-30T12:10:07.999Z</time></trkpt><trkpt lat="45.336901874150975" lon="10.594704053025396"><ele>78.0</ele><time>2026-03-30T12:10:08.999Z</time></trkpt><trkpt lat="45.3369753707266" lon="10.594696891971546"><ele>78.0</ele><time>2026-03-30T12:10:09.999Z</time></trkpt><trkpt lat="45.33707555843575" lon="10.594743484153232"><ele>78.0</ele><time>2026-03-30T12:10:10.999Z</time></trkpt><trkpt lat="45.33719390005844" lon="10.594830639094765"><ele>78.0</ele><time>2026-03-30T12:10:11.999Z</time></trkpt><trkpt lat="45.337309557995994" lon="10.594966244089022"><ele>78.0</ele><time>2026-03-30T12:10:12.999Z</time></trkpt><trkpt lat="45.33740878455401" lon="10.595142275151366"><ele>78.0</ele><time>2026-03-30T12:10:13.999Z</time></trkpt><trkpt lat="45.33749680272146" lon="10.595337718400668"><ele>78.0</ele><time>2026-03-30T12:10:14.999Z</time></trkpt><trkpt lat="45.337586955403566" lon="10.59553021862912"><ele>77.66666666666667</ele><time>2026-03-30T12:10:15.999Z</time></trkpt><trkpt lat="45.33771987955536" lon="10.595718700349043"><ele>77.33333333333334</ele><time>2026-03-30T12:10:17Z</time></trkpt><trkpt lat="45.337882259265804" lon="10.595894885010132"><ele>77.0</ele><time>2026-03-30T12:10:18Z</time></trkpt><trkpt lat="45.33803261906891" lon="10.596018088948675"><ele>77.33333333333334</ele><time>2026-03-30T12:10:19Z</time></trkpt><trkpt lat="45.33820271778757" lon="10.596145407593967"><ele>77.66666666666667</ele><time>2026-03-30T12:10:20Z</time></trkpt><trkpt lat="45.33838477992775" lon="10.596255828740329"><ele>78.0</ele><time>2026-03-30T12:10:21Z</time></trkpt><trkpt lat="45.338574294048755" lon="10.596349103536111"><ele>78.33333333333333</ele><time>2026-03-30T12:10:22Z</time></trkpt><trkpt lat="45.33876199731836" lon="10.596434784432395"><ele>78.66666666666666</ele><time>2026-03-30T12:10:23Z</time></trkpt><trkpt lat="45.33895271292391" lon="10.596517231657387"><ele>79.0</ele><time>2026-03-30T12:10:24Z</time></trkpt><trkpt lat="45.33914993883324" lon="10.596593564435155"><ele>80.33333333333333</ele><time>2026-03-30T12:10:25Z</time></trkpt><trkpt lat="45.33935000609403" lon="10.596664319879864"><ele>81.66666666666667</ele><time>2026-03-30T12:10:26Z</time></trkpt><trkpt lat="45.33954893847266" lon="10.596726794803065"><ele>83.0</ele><time>2026-03-30T12:10:27Z</time></trkpt><trkpt lat="45.33974631259062" lon="10.596786954886458"><ele>84.0</ele><time>2026-03-30T12:10:28Z</time></trkpt><trkpt lat="45.33994451633282" lon="10.596847519662665"><ele>85.0</ele><time>2026-03-30T12:10:29Z</time></trkpt><trkpt lat="45.34014346256436" lon="10.596906961304573"><ele>86.0</ele><time>2026-03-30T12:10:30Z</time></trkpt><trkpt lat="45.34033644859231" lon="10.596965672840273"><ele>86.33333333333334</ele><time>2026-03-30T12:10:31Z</time></trkpt><trkpt lat="45.340532970184924" lon="10.597026519218415"><ele>86.66666666666667</ele><time>2026-03-30T12:10:32Z</time></trkpt><trkpt lat="45.34073653067067" lon="10.597083741726108"><ele>87.0</ele><time>2026-03-30T12:10:33Z</time></trkpt><trkpt lat="45.34092790812788" lon="10.597131709948746"><ele>87.66666666666667</ele><time>2026-03-30T12:10:34Z</time></trkpt><trkpt lat="45.34111504660542" lon="10.597174546565764"><ele>88.33333333333334</ele><time>2026-03-30T12:10:35Z</time></trkpt><trkpt lat="45.341309445824514" lon="10.597213323894916"><ele>89.0</ele><time>2026-03-30T12:10:36Z</time></trkpt><trkpt lat="45.34150287092179" lon="10.59724461725348"><ele>91.33333333333334</ele><time>2026-03-30T12:10:37Z</time></trkpt><trkpt lat="45.341710959740894" lon="10.597273781480684"><ele>93.66666666666667</ele><time>2026-03-30T12:10:38Z</time></trkpt><trkpt lat="45.341914298810735" lon="10.597307160851742"><ele>96.0</ele><time>2026-03-30T12:10:39Z</time></trkpt><trkpt lat="45.342096923234834" lon="10.597335318613673"><ele>97.66666666666666</ele><time>2026-03-30T12:10:40Z</time></trkpt><trkpt lat="45.34225745591911" lon="10.597361886754399"><ele>99.33333333333333</ele><time>2026-03-30T12:10:41Z</time></trkpt><trkpt lat="45.34242029060357" lon="10.597387544751673"><ele>101.0</ele><time>2026-03-30T12:10:42Z</time></trkpt><trkpt lat="45.34260191884247" lon="10.597414114055795"><ele>101.0</ele><time>2026-03-30T12:10:43Z</time></trkpt><trkpt lat="45.34279005712397" lon="10.597434761393442"><ele>101.0</ele><time>2026-03-30T12:10:44Z</time></trkpt><trkpt lat="45.34295147299613" lon="10.59745868056677"><ele>101.0</ele><time>2026-03-30T12:10:45Z</time></trkpt><trkpt lat="45.343111753711995" lon="10.597479670956263"><ele>103.0</ele><time>2026-03-30T12:10:46Z</time></trkpt><trkpt lat="45.343272955016815" lon="10.5975114815636"><ele>105.0</ele><time>2026-03-30T12:10:47Z</time></trkpt><trkpt lat="45.34343541626755" lon="10.59755285847026"><ele>107.0</ele><time>2026-03-30T12:10:48Z</time></trkpt><trkpt lat="45.343590790280984" lon="10.59760737519552"><ele>107.0</ele><time>2026-03-30T12:10:49Z</time></trkpt><trkpt lat="45.34375436728026" lon="10.597680133076384"><ele>107.0</ele><time>2026-03-30T12:10:50Z</time></trkpt><trkpt lat="45.34390631255223" lon="10.597758955989681"><ele>107.0</ele><time>2026-03-30T12:10:51Z</time></trkpt><trkpt lat="45.344054711657535" lon="10.597839159399278"><ele>108.66666666666666</ele><time>2026-03-30T12:10:52Z</time></trkpt><trkpt lat="45.34421033524732" lon="10.597912246839714"><ele>110.33333333333334</ele><time>2026-03-30T12:10:53Z</time></trkpt><trkpt lat="45.34436500199845" lon="10.597985299338328"><ele>112.0</ele><time>2026-03-30T12:10:54Z</time></trkpt><trkpt lat="45.34452647151606" lon="10.598062598921915"><ele>112.0</ele><time>2026-03-30T12:10:55Z</time></trkpt><trkpt lat="45.34468983588496" lon="10.598143367802926"><ele>112.0</ele><time>2026-03-30T12:10:56Z</time></trkpt><trkpt lat="45.344845023115624" lon="10.598225296004994"><ele>112.0</ele><time>2026-03-30T12:10:57Z</time></trkpt><trkpt lat="45.34498499742957" lon="10.598297128049222"><ele>113.75</ele><time>2026-03-30T12:10:58Z</time></trkpt><trkpt lat="45.34512675867538" lon="10.5983619665818"><ele>115.5</ele><time>2026-03-30T12:10:59Z</time></trkpt><trkpt lat="45.34527227829116" lon="10.598417928363839"><ele>117.25</ele><time>2026-03-30T12:11:00Z</time></trkpt><trkpt lat="45.345416760520315" lon="10.598445415319306"><ele>119.0</ele><time>2026-03-30T12:11:01Z</time></trkpt><trkpt lat="45.34555028848443" lon="10.598429033787573"><ele>121.25</ele><time>2026-03-30T12:11:02Z</time></trkpt><trkpt lat="45.34568140185671" lon="10.598381918462374"><ele>123.5</ele><time>2026-03-30T12:11:03Z</time></trkpt><trkpt lat="45.345802794572954" lon="10.59829566008901"><ele>125.75</ele><time>2026-03-30T12:11:04Z</time></trkpt><trkpt lat="45.34591579498173" lon="10.598188646950451"><ele>128.0</ele><time>2026-03-30T12:11:05Z</time></trkpt><trkpt lat="45.346028130108195" lon="10.598088470282327"><ele>128.0</ele><time>2026-03-30T12:11:06Z</time></trkpt><trkpt lat="45.34614066643628" lon="10.59801185803782"><ele>128.0</ele><time>2026-03-30T12:11:07Z</time></trkpt><trkpt lat="45.34625457064387" lon="10.597944358550393"><ele>128.0</ele><time>2026-03-30T12:11:08Z</time></trkpt><trkpt lat="45.3463628352474" lon="10.597907883369942"><ele>128.0</ele><time>2026-03-30T12:11:09Z</time></trkpt><trkpt lat="45.34647551451646" lon="10.597910676740069"><ele>130.5</ele><time>2026-03-30T12:11:10Z</time></trkpt><trkpt lat="45.34659216016803" lon="10.59794258802179"><ele>133.0</ele><time>2026-03-30T12:11:11Z</time></trkpt><trkpt lat="45.346713862520616" lon="10.597992677461816"><ele>135.5</ele><time>2026-03-30T12:11:12Z</time></trkpt><trkpt lat="45.34684537281259" lon="10.598060012023858"><ele>138.0</ele><time>2026-03-30T12:11:13Z</time></trkpt><trkpt lat="45.34698338674673" lon="10.598147083307182"><ele>138.0</ele><time>2026-03-30T12:11:14Z</time></trkpt><trkpt lat="45.347123804078066" lon="10.598227577057168"><ele>138.0</ele><time>2026-03-30T12:11:15Z</time></trkpt><trkpt lat="45.34725415096108" lon="10.59831459043886"><ele>138.0</ele><time>2026-03-30T12:11:16Z</time></trkpt><trkpt lat="45.347370688612486" lon="10.5983800612469"><ele>138.0</ele><time>2026-03-30T12:11:17Z</time></trkpt><trkpt lat="45.34748053251726" lon="10.598457485751329"><ele>138.0</ele><time>2026-03-30T12:11:18Z</time></trkpt><trkpt lat="45.34759089233854" lon="10.598533484601175"><ele>138.0</ele><time>2026-03-30T12:11:19Z</time></trkpt><trkpt lat="45.347716242829236" lon="10.598587121475592"><ele>138.0</ele><time>2026-03-30T12:11:20Z</time></trkpt><trkpt lat="45.347855704555016" lon="10.598594918852545"><ele>138.0</ele><time>2026-03-30T12:11:21Z</time></trkpt><trkpt lat="45.348011419505966" lon="10.598548850138972"><ele>138.33333333333334</ele><time>2026-03-30T12:11:22Z</time></trkpt><trkpt lat="45.34817082196619" lon="10.598498442167763"><ele>138.66666666666669</ele><time>2026-03-30T12:11:23Z</time></trkpt><trkpt lat="45.34832337758743" lon="10.598465109894649"><ele>139.0</ele><time>2026-03-30T12:11:23.999Z</time></trkpt><trkpt lat="45.34845871574856" lon="10.598444761613594"><ele>139.0</ele><time>2026-03-30T12:11:24.999Z</time></trkpt><trkpt lat="45.34857789628393" lon="10.598421711322363"><ele>139.0</ele><time>2026-03-30T12:11:25.999Z</time></trkpt><trkpt lat="45.348683570021414" lon="10.598384924863218"><ele>139.0</ele><time>2026-03-30T12:11:26.999Z</time></trkpt><trkpt lat="45.348782952565855" lon="10.59834529887208"><ele>139.0</ele><time>2026-03-30T12:11:27.999Z</time></trkpt><trkpt lat="45.34886689073776" lon="10.598306085760392"><ele>139.0</ele><time>2026-03-30T12:11:28.999Z</time></trkpt><trkpt lat="45.348958738534925" lon="10.598274100134768"><ele>140.0</ele><time>2026-03-30T12:11:29.999Z</time></trkpt><trkpt lat="45.349061100531046" lon="10.598234502881485"><ele>141.0</ele><time>2026-03-30T12:11:30.999Z</time></trkpt><trkpt lat="45.349159162962096" lon="10.598227050430712"><ele>142.0</ele><time>2026-03-30T12:11:31.999Z</time></trkpt><trkpt lat="45.3492345200529" lon="10.598195357792546"><ele>143.0</ele><time>2026-03-30T12:11:32.999Z</time></trkpt><trkpt lat="45.34931626330582" lon="10.598191991354899"><ele>144.0</ele><time>2026-03-30T12:11:33.999Z</time></trkpt><trkpt lat="45.34939943246257" lon="10.598156419198999"><ele>144.0</ele><time>2026-03-30T12:11:34.999Z</time></trkpt><trkpt lat="45.34946366829605" lon="10.598059890767152"><ele>144.0</ele><time>2026-03-30T12:11:35.999Z</time></trkpt><trkpt lat="45.34951297489228" lon="10.597959400161946"><ele>144.0</ele><time>2026-03-30T12:11:36.999Z</time></trkpt><trkpt lat="45.34956560805375" lon="10.597885265733412"><ele>144.0</ele><time>2026-03-30T12:11:37.999Z</time></trkpt><trkpt lat="45.34962669541961" lon="10.597826917743234"><ele>144.0</ele><time>2026-03-30T12:11:38.999Z</time></trkpt><trkpt lat="45.349724767173655" lon="10.597864106682351"><ele>144.0</ele><time>2026-03-30T12:11:39.999Z</time></trkpt><trkpt lat="45.349817678623836" lon="10.597870880933824"><ele>144.8</ele><time>2026-03-30T12:11:40.999Z</time></trkpt><trkpt lat="45.34990041689791" lon="10.597912368497303"><ele>145.60000000000002</ele><time>2026-03-30T12:11:41.999Z</time></trkpt><trkpt lat="45.34997585706999" lon="10.598003876553703"><ele>146.4</ele><time>2026-03-30T12:11:42.999Z</time></trkpt><trkpt lat="45.35004137717433" lon="10.598069823692043"><ele>147.20000000000002</ele><time>2026-03-30T12:11:43.999Z</time></trkpt><trkpt lat="45.35011527499999" lon="10.598161746487262"><ele>148.0</ele><time>2026-03-30T12:11:44.999Z</time></trkpt><trkpt lat="45.35019767660412" lon="10.59825850491918"><ele>148.0</ele><time>2026-03-30T12:11:45.999Z</time></trkpt><trkpt lat="45.35028078148794" lon="10.598342681606665"><ele>148.0</ele><time>2026-03-30T12:11:46.999Z</time></trkpt><trkpt lat="45.35035188291204" lon="10.598423192903685"><ele>148.0</ele><time>2026-03-30T12:11:47.999Z</time></trkpt><trkpt lat="45.35041345119632" lon="10.59849306559391"><ele>148.0</ele><time>2026-03-30T12:11:48.999Z</time></trkpt><trkpt lat="45.35046624815775" lon="10.598563939774484"><ele>148.0</ele><time>2026-03-30T12:11:49.999Z</time></trkpt><trkpt lat="45.35051471147491" lon="10.598636133101213"><ele>148.0</ele><time>2026-03-30T12:11:50.999Z</time></trkpt><trkpt lat="45.3505678031499" lon="10.598697461118283"><ele>149.5</ele><time>2026-03-30T12:11:51.999Z</time></trkpt><trkpt lat="45.35058752568808" lon="10.598800447795561"><ele>151.0</ele><time>2026-03-30T12:11:52.999Z</time></trkpt><trkpt lat="45.35061899887322" lon="10.598915496459869"><ele>152.5</ele><time>2026-03-30T12:11:53.999Z</time></trkpt><trkpt lat="45.35065910741908" lon="10.599032262764528"><ele>154.0</ele><time>2026-03-30T12:11:54.999Z</time></trkpt><trkpt lat="45.350708000988995" lon="10.599144803680426"><ele>155.5</ele><time>2026-03-30T12:11:55.999Z</time></trkpt><trkpt lat="45.35075723148618" lon="10.599272977459211"><ele>157.0</ele><time>2026-03-30T12:11:56.999Z</time></trkpt><trkpt lat="45.35080837224995" lon="10.599388496207759"><ele>157.0</ele><time>2026-03-30T12:11:57.999Z</time></trkpt><trkpt lat="45.350861240012485" lon="10.59949181165121"><ele>157.0</ele><time>2026-03-30T12:11:58.999Z</time></trkpt><trkpt lat="45.350903128243736" lon="10.599600870764274"><ele>157.0</ele><time>2026-03-30T12:11:59.999Z</time></trkpt><trkpt lat="45.35094596326198" lon="10.599714450595119"><ele>157.0</ele><time>2026-03-30T12:12:00.999Z</time></trkpt><trkpt lat="45.351001696038324" lon="10.599813507696645"><ele>157.0</ele><time>2026-03-30T12:12:01.999Z</time></trkpt><trkpt lat="45.351048326936734" lon="10.599937330787135"><ele>157.33333333333334</ele><time>2026-03-30T12:12:02.999Z</time></trkpt><trkpt lat="45.35108978826194" lon="10.600052173561476"><ele>157.66666666666669</ele><time>2026-03-30T12:12:03.999Z</time></trkpt><trkpt lat="45.35110931688143" lon="10.600169119924482"><ele>158.0</ele><time>2026-03-30T12:12:04.999Z</time></trkpt><trkpt lat="45.35114282036123" lon="10.600274569047059"><ele>158.33333333333334</ele><time>2026-03-30T12:12:05.999Z</time></trkpt><trkpt lat="45.35117251033495" lon="10.600366144372458"><ele>158.66666666666666</ele><time>2026-03-30T12:12:06.999Z</time></trkpt><trkpt lat="45.35120270287796" lon="10.600456901416914"><ele>159.0</ele><time>2026-03-30T12:12:07.999Z</time></trkpt><trkpt lat="45.351231626781995" lon="10.600543845001308"><ele>159.33333333333334</ele><time>2026-03-30T12:12:08.999Z</time></trkpt><trkpt lat="45.351260493991305" lon="10.600630618134783"><ele>159.66666666666666</ele><time>2026-03-30T12:12:09.999Z</time></trkpt><trkpt lat="45.35131093990392" lon="10.600771685135932"><ele>160.0</ele><time>2026-03-30T12:12:11.999Z</time></trkpt><trkpt lat="45.351360599265284" lon="10.600882077579623"><ele>160.33333333333331</ele><time>2026-03-30T12:12:13.999Z</time></trkpt><trkpt lat="45.35140044465115" lon="10.600980886880057"><ele>160.66666666666666</ele><time>2026-03-30T12:12:16.999Z</time></trkpt><trkpt lat="45.35143535615136" lon="10.60106809088068"><ele>161.0</ele><time>2026-03-30T12:12:19.999Z</time></trkpt><trkpt lat="45.35151533506055" lon="10.60110317731987"><ele>160.16666666666666</ele><time>2026-03-30T12:12:23Z</time></trkpt><trkpt lat="45.351629412646055" lon="10.601121811558968"><ele>159.33333333333331</ele><time>2026-03-30T12:12:25Z</time></trkpt><trkpt lat="45.351732411396476" lon="10.6011864116373"><ele>158.5</ele><time>2026-03-30T12:12:27Z</time></trkpt><trkpt lat="45.35179884710244" lon="10.601199441300826"><ele>157.66666666666666</ele><time>2026-03-30T12:12:28Z</time></trkpt><trkpt lat="45.35186543411813" lon="10.601208545740311"><ele>156.83333333333334</ele><time>2026-03-30T12:12:29Z</time></trkpt><trkpt lat="45.351931613273074" lon="10.601227123416553"><ele>156.0</ele><time>2026-03-30T12:12:30Z</time></trkpt><trkpt lat="45.352000850504055" lon="10.6012431186211"><ele>154.8</ele><time>2026-03-30T12:12:31Z</time></trkpt><trkpt lat="45.35211214811341" lon="10.601285777176056"><ele>153.6</ele><time>2026-03-30T12:12:33Z</time></trkpt><trkpt lat="45.35212667384926" lon="10.601451110239115"><ele>152.4</ele><time>2026-03-30T12:12:34Z</time></trkpt><trkpt lat="45.35215543353856" lon="10.601544956094815"><ele>151.2</ele><time>2026-03-30T12:12:35Z</time></trkpt><trkpt lat="45.352183327845836" lon="10.601650405004744"><ele>150.0</ele><time>2026-03-30T12:12:36Z</time></trkpt><trkpt lat="45.352189932520545" lon="10.601751844882221"><ele>150.0</ele><time>2026-03-30T12:12:37Z</time></trkpt><trkpt lat="45.3521484093565" lon="10.601840940670257"><ele>150.0</ele><time>2026-03-30T12:12:38Z</time></trkpt><trkpt lat="45.35211940431415" lon="10.601939066440107"><ele>150.0</ele><time>2026-03-30T12:12:39Z</time></trkpt><trkpt lat="45.35208471999906" lon="10.60206011213388"><ele>150.0</ele><time>2026-03-30T12:12:40Z</time></trkpt><trkpt lat="45.352051962809064" lon="10.602204726591411"><ele>150.0</ele><time>2026-03-30T12:12:41Z</time></trkpt><trkpt lat="45.35203343740622" lon="10.602348819168146"><ele>149.33333333333334</ele><time>2026-03-30T12:12:42Z</time></trkpt><trkpt lat="45.35199081788437" lon="10.602471732909077"><ele>148.66666666666666</ele><time>2026-03-30T12:12:43Z</time></trkpt><trkpt lat="45.351976314481966" lon="10.602594518460556"><ele>148.0</ele><time>2026-03-30T12:12:44Z</time></trkpt><trkpt lat="45.35193463423687" lon="10.60268935842436"><ele>147.33333333333331</ele><time>2026-03-30T12:12:45Z</time></trkpt><trkpt lat="45.35190347009481" lon="10.602813882455218"><ele>146.66666666666666</ele><time>2026-03-30T12:12:46Z</time></trkpt><trkpt lat="45.3518768213048" lon="10.602935719351422"><ele>146.0</ele><time>2026-03-30T12:12:47Z</time></trkpt><trkpt lat="45.351871016860706" lon="10.603089032814117"><ele>146.0</ele><time>2026-03-30T12:12:48Z</time></trkpt><trkpt lat="45.35184206785254" lon="10.603230197754614"><ele>146.0</ele><time>2026-03-30T12:12:49Z</time></trkpt><trkpt lat="45.35184291068439" lon="10.603384209751844"><ele>146.0</ele><time>2026-03-30T12:12:50Z</time></trkpt><trkpt lat="45.351811805593144" lon="10.603534112254927"><ele>146.0</ele><time>2026-03-30T12:12:51Z</time></trkpt><trkpt lat="45.351797175151056" lon="10.603673101441323"><ele>146.0</ele><time>2026-03-30T12:12:52Z</time></trkpt><trkpt lat="45.351799298148855" lon="10.603803490063314"><ele>146.0</ele><time>2026-03-30T12:12:53Z</time></trkpt><trkpt lat="45.351783742042365" lon="10.60391331297506"><ele>146.0</ele><time>2026-03-30T12:12:54Z</time></trkpt><trkpt lat="45.35178022917414" lon="10.604033187978663"><ele>146.0</ele><time>2026-03-30T12:12:55Z</time></trkpt><trkpt lat="45.35177666624507" lon="10.604137817902188"><ele>146.0</ele><time>2026-03-30T12:12:56Z</time></trkpt><trkpt lat="45.35178237024911" lon="10.604241995810177"><ele>146.0</ele><time>2026-03-30T12:12:57Z</time></trkpt><trkpt lat="45.35177889857873" lon="10.604333287696269"><ele>146.0</ele><time>2026-03-30T12:12:58Z</time></trkpt><trkpt lat="45.35179117681733" lon="10.604501620097265"><ele>146.2</ele><time>2026-03-30T12:13:00Z</time></trkpt><trkpt lat="45.351793569865464" lon="10.604676742621114"><ele>146.39999999999998</ele><time>2026-03-30T12:13:02Z</time></trkpt><trkpt lat="45.35179961640925" lon="10.604772700502286"><ele>146.6</ele><time>2026-03-30T12:13:03Z</time></trkpt><trkpt lat="45.351928862163604" lon="10.60486235520558"><ele>146.79999999999998</ele><time>2026-03-30T12:13:04Z</time></trkpt><trkpt lat="45.35198672259132" lon="10.604970266934362"><ele>147.0</ele><time>2026-03-30T12:13:05Z</time></trkpt><trkpt lat="45.35205903143339" lon="10.605100666962354"><ele>147.0</ele><time>2026-03-30T12:13:06Z</time></trkpt><trkpt lat="45.35212659493368" lon="10.605226282645852"><ele>147.0</ele><time>2026-03-30T12:13:07Z</time></trkpt><trkpt lat="45.35219601360382" lon="10.605348771271743"><ele>147.0</ele><time>2026-03-30T12:13:08Z</time></trkpt><trkpt lat="45.352257382114615" lon="10.605461362487768"><ele>147.0</ele><time>2026-03-30T12:13:09Z</time></trkpt><trkpt lat="45.352323310154006" lon="10.60558112520553"><ele>147.0</ele><time>2026-03-30T12:13:10Z</time></trkpt><trkpt lat="45.35238668220686" lon="10.60569904664025"><ele>144.79999999999998</ele><time>2026-03-30T12:13:11Z</time></trkpt><trkpt lat="45.3524548949072" lon="10.605827199351243"><ele>142.6</ele><time>2026-03-30T12:13:12Z</time></trkpt><trkpt lat="45.35252081412518" lon="10.605945005331895"><ele>140.39999999999998</ele><time>2026-03-30T12:13:13Z</time></trkpt><trkpt lat="45.35258814127579" lon="10.60607431201306"><ele>138.2</ele><time>2026-03-30T12:13:14Z</time></trkpt><trkpt lat="45.35264553694472" lon="10.606197335770416"><ele>136.0</ele><time>2026-03-30T12:13:15Z</time></trkpt><trkpt lat="45.352695499643346" lon="10.60633285106402"><ele>136.0</ele><time>2026-03-30T12:13:16Z</time></trkpt><trkpt lat="45.3527350504226" lon="10.606467505886906"><ele>136.0</ele><time>2026-03-30T12:13:17Z</time></trkpt><trkpt lat="45.35276487281127" lon="10.60660546757441"><ele>136.0</ele><time>2026-03-30T12:13:18Z</time></trkpt><trkpt lat="45.35278812770097" lon="10.606741248087898"><ele>136.0</ele><time>2026-03-30T12:13:19Z</time></trkpt><trkpt lat="45.35281144247247" lon="10.606885436259473"><ele>136.0</ele><time>2026-03-30T12:13:20Z</time></trkpt><trkpt lat="45.35283367686673" lon="10.607015510882295"><ele>135.8</ele><time>2026-03-30T12:13:21Z</time></trkpt><trkpt lat="45.352854072206235" lon="10.607145887931274"><ele>135.6</ele><time>2026-03-30T12:13:22Z</time></trkpt><trkpt lat="45.35287311825875" lon="10.607271998412658"><ele>135.4</ele><time>2026-03-30T12:13:23Z</time></trkpt><trkpt lat="45.35289917063393" lon="10.60740450494967"><ele>135.2</ele><time>2026-03-30T12:13:24Z</time></trkpt><trkpt lat="45.35293169829098" lon="10.607547214478743"><ele>135.0</ele><time>2026-03-30T12:13:25Z</time></trkpt><trkpt lat="45.35300079661925" lon="10.607652184217777"><ele>135.2</ele><time>2026-03-30T12:13:26Z</time></trkpt><trkpt lat="45.35297144270494" lon="10.607838976884295"><ele>135.4</ele><time>2026-03-30T12:13:27Z</time></trkpt><trkpt lat="45.352982237141845" lon="10.60798771438085"><ele>135.6</ele><time>2026-03-30T12:13:28Z</time></trkpt><trkpt lat="45.352984872318935" lon="10.608117592231704"><ele>135.8</ele><time>2026-03-30T12:13:29Z</time></trkpt><trkpt lat="45.35298210734479" lon="10.608241328065882"><ele>136.0</ele><time>2026-03-30T12:13:30Z</time></trkpt><trkpt lat="45.352972293970396" lon="10.608367180649683"><ele>136.0</ele><time>2026-03-30T12:13:31Z</time></trkpt><trkpt lat="45.352958424512714" lon="10.608491158021353"><ele>136.0</ele><time>2026-03-30T12:13:31.999Z</time></trkpt><trkpt lat="45.35293575290315" lon="10.608618440141239"><ele>136.0</ele><time>2026-03-30T12:13:32.999Z</time></trkpt><trkpt lat="45.35291123393765" lon="10.608746963133324"><ele>136.0</ele><time>2026-03-30T12:13:33.999Z</time></trkpt><trkpt lat="45.35288720861285" lon="10.608876899841407"><ele>136.0</ele><time>2026-03-30T12:13:34.999Z</time></trkpt><trkpt lat="45.35286473623888" lon="10.60901442783932"><ele>136.2</ele><time>2026-03-30T12:13:35.999Z</time></trkpt><trkpt lat="45.35284089164232" lon="10.609143846262668"><ele>136.39999999999998</ele><time>2026-03-30T12:13:36.999Z</time></trkpt><trkpt lat="45.352815182435265" lon="10.609283718887122"><ele>136.6</ele><time>2026-03-30T12:13:37.999Z</time></trkpt><trkpt lat="45.35279231215724" lon="10.60944767392391"><ele>136.79999999999998</ele><time>2026-03-30T12:13:38.999Z</time></trkpt><trkpt lat="45.35277595410997" lon="10.609612350691956"><ele>137.0</ele><time>2026-03-30T12:13:39.999Z</time></trkpt><trkpt lat="45.35276299332141" lon="10.609786380621735"><ele>137.4</ele><time>2026-03-30T12:13:40.999Z</time></trkpt><trkpt lat="45.3527535561923" lon="10.609953575406552"><ele>137.79999999999998</ele><time>2026-03-30T12:13:41.999Z</time></trkpt><trkpt lat="45.35275628579176" lon="10.610110343499757"><ele>138.2</ele><time>2026-03-30T12:13:42.999Z</time></trkpt><trkpt lat="45.3527682774292" lon="10.610252669108636"><ele>138.6</ele><time>2026-03-30T12:13:43.999Z</time></trkpt><trkpt lat="45.35278660974658" lon="10.610393274009533"><ele>139.0</ele><time>2026-03-30T12:13:44.999Z</time></trkpt><trkpt lat="45.35281259145459" lon="10.610537229949601"><ele>139.6</ele><time>2026-03-30T12:13:45.999Z</time></trkpt><trkpt lat="45.3528450121688" lon="10.610682117890347"><ele>140.2</ele><time>2026-03-30T12:13:46.999Z</time></trkpt><trkpt lat="45.35288504930634" lon="10.610826027997366"><ele>140.79999999999998</ele><time>2026-03-30T12:13:47.999Z</time></trkpt><trkpt lat="45.35292936372553" lon="10.61096683893523"><ele>141.4</ele><time>2026-03-30T12:13:48.999Z</time></trkpt><trkpt lat="45.35297235432216" lon="10.611091016702357"><ele>142.0</ele><time>2026-03-30T12:13:49.999Z</time></trkpt><trkpt lat="45.35301330408791" lon="10.611205048576586"><ele>139.4</ele><time>2026-03-30T12:13:50.999Z</time></trkpt><trkpt lat="45.353049085684454" lon="10.611313147454128"><ele>136.79999999999998</ele><time>2026-03-30T12:13:51.999Z</time></trkpt><trkpt lat="45.35307828411931" lon="10.61139808451283"><ele>134.2</ele><time>2026-03-30T12:13:52.999Z</time></trkpt><trkpt lat="45.35311703510132" lon="10.611509483489916"><ele>131.6</ele><time>2026-03-30T12:13:54.999Z</time></trkpt><trkpt lat="45.35325631411898" lon="10.611466770927876"><ele>129.0</ele><time>2026-03-30T12:13:55.999Z</time></trkpt><trkpt lat="45.35335754948342" lon="10.611434962497786"><ele>129.0</ele><time>2026-03-30T12:13:56.999Z</time></trkpt><trkpt lat="45.35347174592423" lon="10.61138484214825"><ele>129.0</ele><time>2026-03-30T12:13:57.999Z</time></trkpt><trkpt lat="45.35359848792596" lon="10.611311940269184"><ele>129.0</ele><time>2026-03-30T12:13:58.999Z</time></trkpt><trkpt lat="45.35373887411876" lon="10.611230055103496"><ele>129.0</ele><time>2026-03-30T12:13:59.999Z</time></trkpt><trkpt lat="45.35388939931642" lon="10.611147127161576"><ele>128.75</ele><time>2026-03-30T12:14:00.999Z</time></trkpt><trkpt lat="45.35402452754001" lon="10.611078014904392"><ele>128.5</ele><time>2026-03-30T12:14:01.999Z</time></trkpt><trkpt lat="45.354147037878235" lon="10.611015337002845"><ele>128.25</ele><time>2026-03-30T12:14:02.999Z</time></trkpt><trkpt lat="45.35425633321779" lon="10.610959493717758"><ele>128.0</ele><time>2026-03-30T12:14:03.999Z</time></trkpt><trkpt lat="45.35436917314408" lon="10.610906279738414"><ele>128.0</ele><time>2026-03-30T12:14:04.999Z</time></trkpt><trkpt lat="45.3544833967984" lon="10.610874303629556"><ele>128.0</ele><time>2026-03-30T12:14:05.999Z</time></trkpt><trkpt lat="45.354565971417514" lon="10.610835881530027"><ele>128.0</ele><time>2026-03-30T12:14:06.999Z</time></trkpt><trkpt lat="45.35463822279076" lon="10.610815024077986"><ele>128.0</ele><time>2026-03-30T12:14:13.999Z</time></trkpt><trkpt lat="45.35456230517471" lon="10.610830093158357"><ele>128.0</ele><time>2026-03-30T12:14:29Z</time></trkpt><trkpt lat="45.35467928348252" lon="10.610816465486405"><ele>128.42857142857142</ele><time>2026-03-30T12:14:33Z</time></trkpt><trkpt lat="45.35474802705111" lon="10.6108100084349"><ele>128.85714285714283</ele><time>2026-03-30T12:14:34Z</time></trkpt><trkpt lat="45.35481893861526" lon="10.610812651899513"><ele>129.28571428571428</ele><time>2026-03-30T12:14:35Z</time></trkpt><trkpt lat="45.35489620427417" lon="10.610822899691206"><ele>129.71428571428572</ele><time>2026-03-30T12:14:36Z</time></trkpt><trkpt lat="45.354969504641595" lon="10.610838886498522"><ele>130.14285714285717</ele><time>2026-03-30T12:14:37Z</time></trkpt><trkpt lat="45.35503429027951" lon="10.61085229662112"><ele>130.57142857142858</ele><time>2026-03-30T12:14:38Z</time></trkpt><trkpt lat="45.3551031339913" lon="10.610863311886504"><ele>131.0</ele><time>2026-03-30T12:14:39Z</time></trkpt><trkpt lat="45.35516680002974" lon="10.610857915607955"><ele>131.0</ele><time>2026-03-30T12:14:40Z</time></trkpt><trkpt lat="45.35529148602982" lon="10.61092442524947"><ele>131.0</ele><time>2026-03-30T12:14:41Z</time></trkpt><trkpt lat="45.35539582007275" lon="10.611019857694675"><ele>131.0</ele><time>2026-03-30T12:14:42Z</time></trkpt><trkpt lat="45.355488832099724" lon="10.611111382630533"><ele>131.0</ele><time>2026-03-30T12:14:43Z</time></trkpt><trkpt lat="45.35555213672188" lon="10.611174403517973"><ele>131.0</ele><time>2026-03-30T12:14:44Z</time></trkpt><trkpt lat="45.3556097599492" lon="10.61121550167032"><ele>130.33333333333331</ele><time>2026-03-30T12:14:45Z</time></trkpt><trkpt lat="45.35572077212552" lon="10.611267250837129"><ele>129.66666666666666</ele><time>2026-03-30T12:14:47Z</time></trkpt><trkpt lat="45.355810694625" lon="10.611292370432336"><ele>129.0</ele><time>2026-03-30T12:14:49Z</time></trkpt><trkpt lat="45.35599405786767" lon="10.61181112838479"><ele>129.0</ele><time>2026-03-30T12:14:53Z</time></trkpt><trkpt lat="45.35604591132058" lon="10.611883289231322"><ele>129.0</ele><time>2026-03-30T12:14:54Z</time></trkpt><trkpt lat="45.356098080323406" lon="10.61199131125578"><ele>129.0</ele><time>2026-03-30T12:14:55Z</time></trkpt><trkpt lat="45.35614485583534" lon="10.612108175397514"><ele>129.0</ele><time>2026-03-30T12:14:56Z</time></trkpt><trkpt lat="45.356196978709335" lon="10.6121980356127"><ele>129.0</ele><time>2026-03-30T12:14:57Z</time></trkpt><trkpt lat="45.356258087065605" lon="10.612275161897822"><ele>129.0</ele><time>2026-03-30T12:14:58Z</time></trkpt><trkpt lat="45.356320009396946" lon="10.612315996154791"><ele>129.2</ele><time>2026-03-30T12:14:59Z</time></trkpt><trkpt lat="45.35640351002779" lon="10.612373402314953"><ele>129.4</ele><time>2026-03-30T12:15:00Z</time></trkpt><trkpt lat="45.356484961555076" lon="10.612423871471425"><ele>129.6</ele><time>2026-03-30T12:15:01Z</time></trkpt><trkpt lat="45.3565745069673" lon="10.612470092036101"><ele>129.8</ele><time>2026-03-30T12:15:02Z</time></trkpt><trkpt lat="45.35667597456972" lon="10.612518030947788"><ele>130.0</ele><time>2026-03-30T12:15:03Z</time></trkpt><trkpt lat="45.35677167985946" lon="10.612562198281044"><ele>130.0</ele><time>2026-03-30T12:15:04Z</time></trkpt><trkpt lat="45.35685722513352" lon="10.612609415548892"><ele>130.0</ele><time>2026-03-30T12:15:05Z</time></trkpt><trkpt lat="45.35693950806313" lon="10.612664557577403"><ele>130.0</ele><time>2026-03-30T12:15:06Z</time></trkpt><trkpt lat="45.357011860507704" lon="10.612712367718787"><ele>130.0</ele><time>2026-03-30T12:15:07Z</time></trkpt><trkpt lat="45.35708867702579" lon="10.612769162176603"><ele>130.0</ele><time>2026-03-30T12:15:08Z</time></trkpt><trkpt lat="45.35716720145278" lon="10.612834366242097"><ele>130.0</ele><time>2026-03-30T12:15:09Z</time></trkpt><trkpt lat="45.35723939891874" lon="10.61290060171661"><ele>130.66666666666669</ele><time>2026-03-30T12:15:10Z</time></trkpt><trkpt lat="45.35731408737655" lon="10.612978373813887"><ele>131.33333333333334</ele><time>2026-03-30T12:15:11Z</time></trkpt><trkpt lat="45.3573868969474" lon="10.613054568877873"><ele>132.0</ele><time>2026-03-30T12:15:12Z</time></trkpt><trkpt lat="45.3574421660317" lon="10.613109540155316"><ele>132.66666666666666</ele><time>2026-03-30T12:15:13Z</time></trkpt><trkpt lat="45.35750835287168" lon="10.613180127216825"><ele>133.33333333333331</ele><time>2026-03-30T12:15:14Z</time></trkpt><trkpt lat="45.35757187113391" lon="10.613238584073828"><ele>134.0</ele><time>2026-03-30T12:15:15Z</time></trkpt><trkpt lat="45.357678523048946" lon="10.61333041326401"><ele>134.0</ele><time>2026-03-30T12:15:17Z</time></trkpt><trkpt lat="45.35778107982943" lon="10.613407033757708"><ele>134.0</ele><time>2026-03-30T12:15:19Z</time></trkpt><trkpt lat="45.357887263747784" lon="10.613473410702195"><ele>134.0</ele><time>2026-03-30T12:15:21Z</time></trkpt><trkpt lat="45.35795062148268" lon="10.61351450957775"><ele>134.0</ele><time>2026-03-30T12:15:22Z</time></trkpt><trkpt lat="45.358011563204194" lon="10.61354486978409"><ele>134.0</ele><time>2026-03-30T12:15:23Z</time></trkpt><trkpt lat="45.35812804973084" lon="10.61354055415234"><ele>133.6</ele><time>2026-03-30T12:15:25Z</time></trkpt><trkpt lat="45.358203770685094" lon="10.61353019518098"><ele>133.2</ele><time>2026-03-30T12:15:26Z</time></trkpt><trkpt lat="45.358320035766795" lon="10.613492764882867"><ele>132.79999999999998</ele><time>2026-03-30T12:15:27Z</time></trkpt><trkpt lat="45.358425408017396" lon="10.613467096733512"><ele>132.4</ele><time>2026-03-30T12:15:28Z</time></trkpt><trkpt lat="45.358513069850176" lon="10.613419089571945"><ele>132.0</ele><time>2026-03-30T12:15:29Z</time></trkpt><trkpt lat="45.35859338502158" lon="10.613378438279891"><ele>132.0</ele><time>2026-03-30T12:15:30Z</time></trkpt><trkpt lat="45.35865772145057" lon="10.613358103085442"><ele>132.0</ele><time>2026-03-30T12:15:31Z</time></trkpt><trkpt lat="45.35874876382642" lon="10.61334753467787"><ele>132.0</ele><time>2026-03-30T12:15:32Z</time></trkpt><trkpt lat="45.358890600713586" lon="10.61335108223995"><ele>132.0</ele><time>2026-03-30T12:15:33Z</time></trkpt><trkpt lat="45.35903543214881" lon="10.613360006367405"><ele>132.0</ele><time>2026-03-30T12:15:34Z</time></trkpt><trkpt lat="45.3591571674405" lon="10.613379500565541"><ele>132.0</ele><time>2026-03-30T12:15:35Z</time></trkpt><trkpt lat="45.359273394797675" lon="10.613401346669601"><ele>132.0</ele><time>2026-03-30T12:15:36Z</time></trkpt><trkpt lat="45.35937897518439" lon="10.613424108456538"><ele>132.0</ele><time>2026-03-30T12:15:37Z</time></trkpt><trkpt lat="45.3594763971865" lon="10.613464457941145"><ele>132.0</ele><time>2026-03-30T12:15:38Z</time></trkpt><trkpt lat="45.35957429201277" lon="10.613513975573554"><ele>132.0</ele><time>2026-03-30T12:15:39Z</time></trkpt><trkpt lat="45.359665475975554" lon="10.613564192428852"><ele>131.66666666666666</ele><time>2026-03-30T12:15:40Z</time></trkpt><trkpt lat="45.35974278558369" lon="10.613610543491859"><ele>131.33333333333334</ele><time>2026-03-30T12:15:41Z</time></trkpt><trkpt lat="45.359819086451175" lon="10.613662461767992"><ele>131.0</ele><time>2026-03-30T12:15:41.999Z</time></trkpt><trkpt lat="45.35989689814359" lon="10.613717567590932"><ele>130.66666666666669</ele><time>2026-03-30T12:15:42.999Z</time></trkpt><trkpt lat="45.35995295529055" lon="10.613770147959057"><ele>130.33333333333334</ele><time>2026-03-30T12:15:43.999Z</time></trkpt><trkpt lat="45.360004124667185" lon="10.6138461933403"><ele>130.0</ele><time>2026-03-30T12:15:44.999Z</time></trkpt><trkpt lat="45.360045962681234" lon="10.613953612340815"><ele>130.0</ele><time>2026-03-30T12:15:45.999Z</time></trkpt><trkpt lat="45.3600858210978" lon="10.61408411639743"><ele>130.0</ele><time>2026-03-30T12:15:46.999Z</time></trkpt><trkpt lat="45.36013631611697" lon="10.614208454741862"><ele>130.0</ele><time>2026-03-30T12:15:47.999Z</time></trkpt><trkpt lat="45.360212411316354" lon="10.614316259149302"><ele>130.0</ele><time>2026-03-30T12:15:48.999Z</time></trkpt><trkpt lat="45.3602934982637" lon="10.614408029102659"><ele>130.0</ele><time>2026-03-30T12:15:49.999Z</time></trkpt><trkpt lat="45.36039321390648" lon="10.614493924071194"><ele>130.5</ele><time>2026-03-30T12:15:50.999Z</time></trkpt><trkpt lat="45.36047992737364" lon="10.614553685761946"><ele>131.0</ele><time>2026-03-30T12:15:51.999Z</time></trkpt><trkpt lat="45.36055065555255" lon="10.614587811110269"><ele>131.5</ele><time>2026-03-30T12:15:52.999Z</time></trkpt><trkpt lat="45.36062277146214" lon="10.614621008661402"><ele>132.0</ele><time>2026-03-30T12:15:53.999Z</time></trkpt><trkpt lat="45.360685214238245" lon="10.614649242170394"><ele>132.5</ele><time>2026-03-30T12:15:54.999Z</time></trkpt><trkpt lat="45.36075683805362" lon="10.614667633896469"><ele>133.0</ele><time>2026-03-30T12:15:56.999Z</time></trkpt><trkpt lat="45.36085255105768" lon="10.614672404150525"><ele>133.83333333333334</ele><time>2026-03-30T12:15:59.999Z</time></trkpt><trkpt lat="45.360915155638615" lon="10.61470475784841"><ele>134.66666666666669</ele><time>2026-03-30T12:16:00.999Z</time></trkpt><trkpt lat="45.360969266927796" lon="10.614761952793899"><ele>135.5</ele><time>2026-03-30T12:16:01.999Z</time></trkpt><trkpt lat="45.3610282360497" lon="10.61482354103013"><ele>136.33333333333334</ele><time>2026-03-30T12:16:02.999Z</time></trkpt><trkpt lat="45.361081388360866" lon="10.614872823614318"><ele>137.16666666666666</ele><time>2026-03-30T12:16:03.999Z</time></trkpt><trkpt lat="45.36115840927922" lon="10.614930811017219"><ele>138.0</ele><time>2026-03-30T12:16:04.999Z</time></trkpt><trkpt lat="45.361245803295546" lon="10.614982889348827"><ele>138.0</ele><time>2026-03-30T12:16:05.999Z</time></trkpt><trkpt lat="45.36133106581769" lon="10.615033586218464"><ele>138.0</ele><time>2026-03-30T12:16:06.999Z</time></trkpt><trkpt lat="45.36143310251847" lon="10.615087573291236"><ele>138.0</ele><time>2026-03-30T12:16:07.999Z</time></trkpt><trkpt lat="45.36151343092919" lon="10.615164212733415"><ele>138.0</ele><time>2026-03-30T12:16:08.999Z</time></trkpt><trkpt lat="45.3615774053576" lon="10.615255276794407"><ele>138.0</ele><time>2026-03-30T12:16:09.999Z</time></trkpt><trkpt lat="45.36163697398437" lon="10.615343842552162"><ele>140.20000000000002</ele><time>2026-03-30T12:16:10.999Z</time></trkpt><trkpt lat="45.361718386970516" lon="10.615381298969092"><ele>142.4</ele><time>2026-03-30T12:16:11.999Z</time></trkpt><trkpt lat="45.36180724216719" lon="10.615410849282704"><ele>144.60000000000002</ele><time>2026-03-30T12:16:12.999Z</time></trkpt><trkpt lat="45.36188195970994" lon="10.615448080284395"><ele>146.8</ele><time>2026-03-30T12:16:13.999Z</time></trkpt><trkpt lat="45.36196830463567" lon="10.615514622553151"><ele>149.0</ele><time>2026-03-30T12:16:15.999Z</time></trkpt><trkpt lat="45.362015619723735" lon="10.615637465495443"><ele>149.0</ele><time>2026-03-30T12:16:17.999Z</time></trkpt><trkpt lat="45.36202861073362" lon="10.615728590842119"><ele>149.0</ele><time>2026-03-30T12:16:18.999Z</time></trkpt><trkpt lat="45.36205992484206" lon="10.615810504436217"><ele>149.0</ele><time>2026-03-30T12:16:19.999Z</time></trkpt><trkpt lat="45.36211600121001" lon="10.61588767868716"><ele>149.0</ele><time>2026-03-30T12:16:20.999Z</time></trkpt><trkpt lat="45.362188569059185" lon="10.61594579102239"><ele>149.0</ele><time>2026-03-30T12:16:21.999Z</time></trkpt><trkpt lat="45.36224681029199" lon="10.61598958547344"><ele>149.0</ele><time>2026-03-30T12:16:22.999Z</time></trkpt><trkpt lat="45.36230721695434" lon="10.616027936953252"><ele>149.0</ele><time>2026-03-30T12:16:23.999Z</time></trkpt><trkpt lat="45.36238523177678" lon="10.61610967378112"><ele>150.42857142857142</ele><time>2026-03-30T12:16:25.999Z</time></trkpt><trkpt lat="45.36244375532812" lon="10.616166457720961"><ele>151.85714285714283</ele><time>2026-03-30T12:16:27.999Z</time></trkpt><trkpt lat="45.36244857736562" lon="10.61625742856978"><ele>153.28571428571428</ele><time>2026-03-30T12:16:32.999Z</time></trkpt><trkpt lat="45.36237596830854" lon="10.616270503083095"><ele>154.71428571428572</ele><time>2026-03-30T12:16:46Z</time></trkpt><trkpt lat="45.362349143730384" lon="10.61617694745786"><ele>156.14285714285717</ele><time>2026-03-30T12:17:00Z</time></trkpt><trkpt lat="45.36241646139067" lon="10.61617447928228"><ele>157.57142857142856</ele><time>2026-03-30T12:17:03Z</time></trkpt><trkpt lat="45.362494725510835" lon="10.616237155147472"><ele>159.0</ele><time>2026-03-30T12:17:06Z</time></trkpt><trkpt lat="45.36256441516952" lon="10.616316174388215"><ele>159.0</ele><time>2026-03-30T12:17:08Z</time></trkpt><trkpt lat="45.36262972167642" lon="10.616327370348717"><ele>159.0</ele><time>2026-03-30T12:17:10Z</time></trkpt><trkpt lat="45.36271912673119" lon="10.616387035165525"><ele>159.0</ele><time>2026-03-30T12:17:14Z</time></trkpt><trkpt lat="45.362791671274266" lon="10.616441565500832"><ele>159.0</ele><time>2026-03-30T12:17:15Z</time></trkpt><trkpt lat="45.362877151263476" lon="10.61650525502065"><ele>159.0</ele><time>2026-03-30T12:17:16Z</time></trkpt><trkpt lat="45.362939124675236" lon="10.616568273085468"><ele>159.0</ele><time>2026-03-30T12:17:17Z</time></trkpt><trkpt lat="45.36300900479867" lon="10.616630089107854"><ele>158.5</ele><time>2026-03-30T12:17:18Z</time></trkpt><trkpt lat="45.36306686052536" lon="10.616682716969331"><ele>158.0</ele><time>2026-03-30T12:17:19Z</time></trkpt><trkpt lat="45.36313313296156" lon="10.61674017925078"><ele>157.5</ele><time>2026-03-30T12:17:21Z</time></trkpt><trkpt lat="45.363215234194364" lon="10.616698695824791"><ele>157.0</ele><time>2026-03-30T12:17:24Z</time></trkpt><trkpt lat="45.36326768155747" lon="10.61663691025342"><ele>156.5</ele><time>2026-03-30T12:17:26Z</time></trkpt><trkpt lat="45.363340775010236" lon="10.616552053012775"><ele>156.0</ele><time>2026-03-30T12:17:28Z</time></trkpt><trkpt lat="45.363429053154896" lon="10.616451186867765"><ele>156.0</ele><time>2026-03-30T12:17:30Z</time></trkpt><trkpt lat="45.363509295450015" lon="10.616317928044808"><ele>156.0</ele><time>2026-03-30T12:17:32Z</time></trkpt><trkpt lat="45.363560122474425" lon="10.616259621733334"><ele>156.0</ele><time>2026-03-30T12:17:33Z</time></trkpt><trkpt lat="45.363611721756165" lon="10.616201685034998"><ele>156.0</ele><time>2026-03-30T12:17:34Z</time></trkpt><trkpt lat="45.3636831478249" lon="10.61613508541265"><ele>156.0</ele><time>2026-03-30T12:17:35Z</time></trkpt><trkpt lat="45.36375353140815" lon="10.616084199121707"><ele>156.0</ele><time>2026-03-30T12:17:36Z</time></trkpt><trkpt lat="45.36383402603907" lon="10.616017305961957"><ele>155.16666666666666</ele><time>2026-03-30T12:17:37Z</time></trkpt><trkpt lat="45.36390006332561" lon="10.61596365509346"><ele>154.33333333333334</ele><time>2026-03-30T12:17:38Z</time></trkpt><trkpt lat="45.36396318587123" lon="10.615916803538815"><ele>153.5</ele><time>2026-03-30T12:17:39Z</time></trkpt><trkpt lat="45.364022140796756" lon="10.615881387748198"><ele>152.66666666666669</ele><time>2026-03-30T12:17:40Z</time></trkpt><trkpt lat="45.36413161996897" lon="10.615808246022835"><ele>151.83333333333334</ele><time>2026-03-30T12:17:42Z</time></trkpt><trkpt lat="45.36418918600507" lon="10.615682912258102"><ele>151.0</ele><time>2026-03-30T12:17:44Z</time></trkpt><trkpt lat="45.36420235637983" lon="10.615525362337788"><ele>151.0</ele><time>2026-03-30T12:17:46Z</time></trkpt><trkpt lat="45.364177061996116" lon="10.615388559631441"><ele>151.0</ele><time>2026-03-30T12:17:48Z</time></trkpt><trkpt lat="45.36424187163006" lon="10.61534278586549"><ele>151.0</ele><time>2026-03-30T12:17:51.999Z</time></trkpt><trkpt lat="45.36430210533499" lon="10.61543736861033"><ele>151.0</ele><time>2026-03-30T12:17:53.999Z</time></trkpt><trkpt lat="45.36432943768536" lon="10.615591956541852"><ele>151.0</ele><time>2026-03-30T12:17:55.999Z</time></trkpt><trkpt lat="45.364349726831165" lon="10.61575063338893"><ele>151.0</ele><time>2026-03-30T12:17:57.999Z</time></trkpt><trkpt lat="45.364400129973276" lon="10.615889202310598"><ele>151.0</ele><time>2026-03-30T12:17:59.999Z</time></trkpt><trkpt lat="45.364512591000235" lon="10.615945319009372"><ele>151.0</ele><time>2026-03-30T12:18:01.999Z</time></trkpt><trkpt lat="45.364579142720096" lon="10.615944204874545"><ele>151.0</ele><time>2026-03-30T12:18:02.999Z</time></trkpt><trkpt lat="45.36470476729721" lon="10.615959886413114"><ele>151.0</ele><time>2026-03-30T12:18:04.999Z</time></trkpt><trkpt lat="45.36477055191374" lon="10.615962035119972"><ele>148.83333333333334</ele><time>2026-03-30T12:18:05.999Z</time></trkpt><trkpt lat="45.36483819095318" lon="10.6159445238131"><ele>146.66666666666669</ele><time>2026-03-30T12:18:06.999Z</time></trkpt><trkpt lat="45.36490695516132" lon="10.615945070183997"><ele>144.5</ele><time>2026-03-30T12:18:07.999Z</time></trkpt><trkpt lat="45.364971262509485" lon="10.61593855984831"><ele>142.33333333333334</ele><time>2026-03-30T12:18:08.999Z</time></trkpt><trkpt lat="45.36506523833724" lon="10.6159031951621"><ele>140.16666666666666</ele><time>2026-03-30T12:18:10.999Z</time></trkpt><trkpt lat="45.36510664379822" lon="10.615764094056424"><ele>138.0</ele><time>2026-03-30T12:18:13.999Z</time></trkpt><trkpt lat="45.36507687414608" lon="10.615505726453845"><ele>138.0</ele><time>2026-03-30T12:18:15.999Z</time></trkpt><trkpt lat="45.3650496904047" lon="10.61535378123735"><ele>138.0</ele><time>2026-03-30T12:18:16.999Z</time></trkpt><trkpt lat="45.36503328143722" lon="10.615197783186428"><ele>138.0</ele><time>2026-03-30T12:18:17.999Z</time></trkpt><trkpt lat="45.36501950629418" lon="10.6150484571089"><ele>138.0</ele><time>2026-03-30T12:18:18.999Z</time></trkpt><trkpt lat="45.365025286294546" lon="10.614916894436336"><ele>138.0</ele><time>2026-03-30T12:18:19.999Z</time></trkpt><trkpt lat="45.3650177262276" lon="10.614772028572265"><ele>138.0</ele><time>2026-03-30T12:18:20.999Z</time></trkpt><trkpt lat="45.36501531932287" lon="10.614634234955599"><ele>138.0</ele><time>2026-03-30T12:18:21.999Z</time></trkpt><trkpt lat="45.36501731217626" lon="10.614503157244393"><ele>138.0</ele><time>2026-03-30T12:18:22.999Z</time></trkpt><trkpt lat="45.365009007595994" lon="10.614373869889407"><ele>138.0</ele><time>2026-03-30T12:18:23.999Z</time></trkpt><trkpt lat="45.36504135233106" lon="10.614269143344616"><ele>138.0</ele><time>2026-03-30T12:18:24.999Z</time></trkpt><trkpt lat="45.36504087686407" lon="10.614177218574966"><ele>138.0</ele><time>2026-03-30T12:18:25.999Z</time></trkpt><trkpt lat="45.365038620266354" lon="10.614004115134298"><ele>138.0</ele><time>2026-03-30T12:18:27.999Z</time></trkpt><trkpt lat="45.36504296642805" lon="10.613851009259056"><ele>138.0</ele><time>2026-03-30T12:18:29.999Z</time></trkpt><trkpt lat="45.36504809179972" lon="10.613680100938437"><ele>138.0</ele><time>2026-03-30T12:18:31.999Z</time></trkpt><trkpt lat="45.36508144472812" lon="10.613583263928088"><ele>138.0</ele><time>2026-03-30T12:18:32.999Z</time></trkpt><trkpt lat="45.36509841017975" lon="10.61345456671436"><ele>138.0</ele><time>2026-03-30T12:18:33.999Z</time></trkpt><trkpt lat="45.365107711027605" lon="10.613341593754424"><ele>138.4</ele><time>2026-03-30T12:18:34.999Z</time></trkpt><trkpt lat="45.36510360688589" lon="10.613228061387092"><ele>138.8</ele><time>2026-03-30T12:18:35.999Z</time></trkpt><trkpt lat="45.36508455077292" lon="10.613119092372619"><ele>139.2</ele><time>2026-03-30T12:18:36.999Z</time></trkpt><trkpt lat="45.365040589384066" lon="10.612992827643355"><ele>139.6</ele><time>2026-03-30T12:18:37.999Z</time></trkpt><trkpt lat="45.36499794244989" lon="10.61286095554422"><ele>140.0</ele><time>2026-03-30T12:18:38.999Z</time></trkpt><trkpt lat="45.364939617890634" lon="10.61270883536895"><ele>140.0</ele><time>2026-03-30T12:18:40Z</time></trkpt><trkpt lat="45.36487832395282" lon="10.612572148147196"><ele>140.0</ele><time>2026-03-30T12:18:41Z</time></trkpt><trkpt lat="45.36481819120646" lon="10.612449001582991"><ele>140.0</ele><time>2026-03-30T12:18:42Z</time></trkpt><trkpt lat="45.364762840869574" lon="10.612346945856874"><ele>140.0</ele><time>2026-03-30T12:18:43Z</time></trkpt><trkpt lat="45.364720372073364" lon="10.612243410706634"><ele>140.0</ele><time>2026-03-30T12:18:44Z</time></trkpt><trkpt lat="45.36466493494164" lon="10.612135787340312"><ele>141.0</ele><time>2026-03-30T12:18:45Z</time></trkpt><trkpt lat="45.364667776802264" lon="10.611988999780213"><ele>142.0</ele><time>2026-03-30T12:18:46Z</time></trkpt><trkpt lat="45.36464984536161" lon="10.61183474881226"><ele>143.0</ele><time>2026-03-30T12:18:47Z</time></trkpt><trkpt lat="45.36463063965211" lon="10.61166303548769"><ele>144.0</ele><time>2026-03-30T12:18:48Z</time></trkpt><trkpt lat="45.36459596172343" lon="10.611475428201661"><ele>144.0</ele><time>2026-03-30T12:18:49Z</time></trkpt><trkpt lat="45.36456403953545" lon="10.611279533903591"><ele>144.0</ele><time>2026-03-30T12:18:50Z</time></trkpt><trkpt lat="45.364533358476834" lon="10.611096404758975"><ele>144.0</ele><time>2026-03-30T12:18:51Z</time></trkpt><trkpt lat="45.364521030069824" lon="10.610921492861605"><ele>144.0</ele><time>2026-03-30T12:18:52Z</time></trkpt><trkpt lat="45.36449725111086" lon="10.610771227933139"><ele>143.0</ele><time>2026-03-30T12:18:53Z</time></trkpt><trkpt lat="45.36447884480165" lon="10.610656709196336"><ele>142.0</ele><time>2026-03-30T12:18:54Z</time></trkpt><trkpt lat="45.364476488879724" lon="10.610547963559636"><ele>141.0</ele><time>2026-03-30T12:18:56Z</time></trkpt><trkpt lat="45.36456247052102" lon="10.610560974474625"><ele>140.0</ele><time>2026-03-30T12:18:58Z</time></trkpt><trkpt lat="45.364643082398274" lon="10.61059002189459"><ele>139.0</ele><time>2026-03-30T12:18:59Z</time></trkpt><trkpt lat="45.3647367036256" lon="10.61062162643527"><ele>138.0</ele><time>2026-03-30T12:19:00Z</time></trkpt><trkpt lat="45.364855315042405" lon="10.610649151973952"><ele>137.0</ele><time>2026-03-30T12:19:01Z</time></trkpt><trkpt lat="45.36498816770419" lon="10.610673552384176"><ele>136.0</ele><time>2026-03-30T12:19:02Z</time></trkpt><trkpt lat="45.365147479534535" lon="10.61069954041492"><ele>135.0</ele><time>2026-03-30T12:19:03Z</time></trkpt><trkpt lat="45.36532095200361" lon="10.610729340824992"><ele>135.0</ele><time>2026-03-30T12:19:04Z</time></trkpt><trkpt lat="45.365508132981816" lon="10.610763409485573"><ele>135.0</ele><time>2026-03-30T12:19:05Z</time></trkpt><trkpt lat="45.36570000978397" lon="10.610793836248076"><ele>135.0</ele><time>2026-03-30T12:19:06Z</time></trkpt><trkpt lat="45.365904536934416" lon="10.610822568318289"><ele>136.33333333333334</ele><time>2026-03-30T12:19:07Z</time></trkpt><trkpt lat="45.36609366852714" lon="10.610844370511339"><ele>137.66666666666669</ele><time>2026-03-30T12:19:08Z</time></trkpt><trkpt lat="45.366260213709374" lon="10.610857291017192"><ele>139.0</ele><time>2026-03-30T12:19:09Z</time></trkpt><trkpt lat="45.36641215725618" lon="10.610859333507864"><ele>139.2</ele><time>2026-03-30T12:19:10Z</time></trkpt><trkpt lat="45.366547961602684" lon="10.610863022766875"><ele>139.4</ele><time>2026-03-30T12:19:11Z</time></trkpt><trkpt lat="45.36666057542807" lon="10.610872782554418"><ele>139.6</ele><time>2026-03-30T12:19:12Z</time></trkpt><trkpt lat="45.366749933121994" lon="10.61087902507588"><ele>139.8</ele><time>2026-03-30T12:19:13Z</time></trkpt><trkpt lat="45.36683590176522" lon="10.610883039726028"><ele>140.0</ele><time>2026-03-30T12:19:15Z</time></trkpt><trkpt lat="45.36687504623473" lon="10.610700754614406"><ele>140.0</ele><time>2026-03-30T12:19:16Z</time></trkpt><trkpt lat="45.366913223691476" lon="10.610580308639204"><ele>140.0</ele><time>2026-03-30T12:19:17Z</time></trkpt><trkpt lat="45.3669475773454" lon="10.61041940541287"><ele>140.0</ele><time>2026-03-30T12:19:18Z</time></trkpt><trkpt lat="45.36699130002657" lon="10.61020726840451"><ele>140.0</ele><time>2026-03-30T12:19:19Z</time></trkpt><trkpt lat="45.367024813048204" lon="10.60996451679116"><ele>139.66666666666666</ele><time>2026-03-30T12:19:20Z</time></trkpt><trkpt lat="45.367077202408126" lon="10.609711253931563"><ele>139.33333333333334</ele><time>2026-03-30T12:19:21Z</time></trkpt><trkpt lat="45.36713004971197" lon="10.609462355861424"><ele>139.0</ele><time>2026-03-30T12:19:22Z</time></trkpt><trkpt lat="45.36717866685951" lon="10.609219932908458"><ele>139.66666666666669</ele><time>2026-03-30T12:19:23Z</time></trkpt><trkpt lat="45.36724264323011" lon="10.608987118866688"><ele>140.33333333333334</ele><time>2026-03-30T12:19:24Z</time></trkpt><trkpt lat="45.36726792015537" lon="10.608776025252899"><ele>141.0</ele><time>2026-03-30T12:19:25Z</time></trkpt><trkpt lat="45.367324829761706" lon="10.608574854296164"><ele>141.25</ele><time>2026-03-30T12:19:26Z</time></trkpt><trkpt lat="45.36736149999707" lon="10.608389513216327"><ele>141.5</ele><time>2026-03-30T12:19:27Z</time></trkpt><trkpt lat="45.367396226892836" lon="10.608213994494188"><ele>141.75</ele><time>2026-03-30T12:19:28Z</time></trkpt><trkpt lat="45.36742729330411" lon="10.60805761138558"><ele>142.0</ele><time>2026-03-30T12:19:29Z</time></trkpt><trkpt lat="45.367455551503475" lon="10.60792829745319"><ele>142.0</ele><time>2026-03-30T12:19:30Z</time></trkpt><trkpt lat="45.367463134297665" lon="10.607831313024287"><ele>142.0</ele><time>2026-03-30T12:19:31Z</time></trkpt><trkpt lat="45.36748848794819" lon="10.607737156413565"><ele>142.0</ele><time>2026-03-30T12:19:32Z</time></trkpt><trkpt lat="45.367514187067094" lon="10.607650852360548"><ele>142.0</ele><time>2026-03-30T12:19:33Z</time></trkpt><trkpt lat="45.36754279992212" lon="10.607558560148599"><ele>142.0</ele><time>2026-03-30T12:19:34Z</time></trkpt><trkpt lat="45.36760516671251" lon="10.60744442414581"><ele>142.0</ele><time>2026-03-30T12:19:36Z</time></trkpt><trkpt lat="45.36750259791851" lon="10.607279645323143"><ele>141.79999999999998</ele><time>2026-03-30T12:19:38Z</time></trkpt><trkpt lat="45.36744102794748" lon="10.607238163111996"><ele>141.6</ele><time>2026-03-30T12:19:39Z</time></trkpt><trkpt lat="45.367368313211756" lon="10.607164364409073"><ele>141.39999999999998</ele><time>2026-03-30T12:19:41Z</time></trkpt><trkpt lat="45.367261667963454" lon="10.607074914290967"><ele>141.2</ele><time>2026-03-30T12:19:43Z</time></trkpt><trkpt lat="45.36716625912133" lon="10.606988444417679"><ele>141.0</ele><time>2026-03-30T12:19:44Z</time></trkpt><trkpt lat="45.36706461031432" lon="10.606895494264762"><ele>141.0</ele><time>2026-03-30T12:19:45Z</time></trkpt><trkpt lat="45.36696618680733" lon="10.606800136891819"><ele>141.0</ele><time>2026-03-30T12:19:46Z</time></trkpt><trkpt lat="45.36688507318764" lon="10.606733284019185"><ele>141.0</ele><time>2026-03-30T12:19:47Z</time></trkpt><trkpt lat="45.366794570729745" lon="10.606646312039599"><ele>141.0</ele><time>2026-03-30T12:19:48Z</time></trkpt><trkpt lat="45.3667290276154" lon="10.60658018375528"><ele>141.0</ele><time>2026-03-30T12:19:49Z</time></trkpt><trkpt lat="45.366667425467355" lon="10.606501207814182"><ele>141.0</ele><time>2026-03-30T12:19:50Z</time></trkpt><trkpt lat="45.366613477087846" lon="10.60642387973318"><ele>141.0</ele><time>2026-03-30T12:19:51Z</time></trkpt><trkpt lat="45.366539628640105" lon="10.606323800256176"><ele>141.0</ele><time>2026-03-30T12:19:52Z</time></trkpt><trkpt lat="45.36647317622825" lon="10.606232318582146"><ele>141.0</ele><time>2026-03-30T12:19:53Z</time></trkpt><trkpt lat="45.366405805999314" lon="10.606136997845098"><ele>141.0</ele><time>2026-03-30T12:19:54Z</time></trkpt><trkpt lat="45.36633776931954" lon="10.606057732130507"><ele>140.16666666666666</ele><time>2026-03-30T12:19:55Z</time></trkpt><trkpt lat="45.36627642704719" lon="10.605986509868346"><ele>139.33333333333334</ele><time>2026-03-30T12:19:56Z</time></trkpt><trkpt lat="45.366227747182016" lon="10.605928230527914"><ele>138.5</ele><time>2026-03-30T12:19:57Z</time></trkpt><trkpt lat="45.36617059617175" lon="10.60586508375747"><ele>137.66666666666669</ele><time>2026-03-30T12:19:57.999Z</time></trkpt><trkpt lat="45.36607387411163" lon="10.60575351776441"><ele>136.83333333333334</ele><time>2026-03-30T12:19:59.999Z</time></trkpt><trkpt lat="45.36601533473713" lon="10.605685917199708"><ele>136.0</ele><time>2026-03-30T12:20:00.999Z</time></trkpt><trkpt lat="45.36594652504721" lon="10.605629320513462"><ele>136.0</ele><time>2026-03-30T12:20:01.999Z</time></trkpt><trkpt lat="45.36586873525197" lon="10.605579703978483"><ele>136.0</ele><time>2026-03-30T12:20:02.999Z</time></trkpt><trkpt lat="45.36576287134343" lon="10.605521766583147"><ele>136.0</ele><time>2026-03-30T12:20:03.999Z</time></trkpt><trkpt lat="45.36564811765475" lon="10.605464014231474"><ele>136.0</ele><time>2026-03-30T12:20:04.999Z</time></trkpt><trkpt lat="45.36554496395112" lon="10.605410820479776"><ele>136.0</ele><time>2026-03-30T12:20:05.999Z</time></trkpt><trkpt lat="45.36544620592618" lon="10.605378862373332"><ele>135.83333333333334</ele><time>2026-03-30T12:20:06.999Z</time></trkpt><trkpt lat="45.365343017732975" lon="10.60535834451166"><ele>135.66666666666669</ele><time>2026-03-30T12:20:07.999Z</time></trkpt><trkpt lat="45.365249900362386" lon="10.605344782444647"><ele>135.5</ele><time>2026-03-30T12:20:08.999Z</time></trkpt><trkpt lat="45.36517098485439" lon="10.605344468928182"><ele>135.33333333333334</ele><time>2026-03-30T12:20:09.999Z</time></trkpt><trkpt lat="45.36509720997754" lon="10.605322089146874"><ele>135.16666666666666</ele><time>2026-03-30T12:20:10.999Z</time></trkpt><trkpt lat="45.365033521736564" lon="10.605261444258481"><ele>135.0</ele><time>2026-03-30T12:20:11.999Z</time></trkpt><trkpt lat="45.36495891103786" lon="10.605229459990214"><ele>134.8</ele><time>2026-03-30T12:20:12.999Z</time></trkpt><trkpt lat="45.36489589093408" lon="10.60514000724833"><ele>134.6</ele><time>2026-03-30T12:20:13.999Z</time></trkpt><trkpt lat="45.36484485644136" lon="10.60502251239619"><ele>134.4</ele><time>2026-03-30T12:20:14.999Z</time></trkpt><trkpt lat="45.36478181191132" lon="10.604950610790542"><ele>134.2</ele><time>2026-03-30T12:20:15.999Z</time></trkpt><trkpt lat="45.36469612976602" lon="10.604865228762439"><ele>134.0</ele><time>2026-03-30T12:20:16.999Z</time></trkpt><trkpt lat="45.36461846443277" lon="10.60479057200134"><ele>135.6</ele><time>2026-03-30T12:20:17.999Z</time></trkpt><trkpt lat="45.364509604477696" lon="10.604688605611384"><ele>137.2</ele><time>2026-03-30T12:20:19.999Z</time></trkpt><trkpt lat="45.364415222690475" lon="10.604605071886253"><ele>138.79999999999998</ele><time>2026-03-30T12:20:21.999Z</time></trkpt><trkpt lat="45.364332970898225" lon="10.604558668349439"><ele>140.4</ele><time>2026-03-30T12:20:23.999Z</time></trkpt><trkpt lat="45.36430159410489" lon="10.604471953758763"><ele>142.0</ele><time>2026-03-30T12:20:26.999Z</time></trkpt><trkpt lat="45.36436970955848" lon="10.60440058029458"><ele>141.79999999999998</ele><time>2026-03-30T12:20:28.999Z</time></trkpt><trkpt lat="45.364419479329534" lon="10.604340255774977"><ele>141.6</ele><time>2026-03-30T12:20:29.999Z</time></trkpt><trkpt lat="45.36447563154632" lon="10.604266221975166"><ele>141.39999999999998</ele><time>2026-03-30T12:20:30.999Z</time></trkpt><trkpt lat="45.364558327673656" lon="10.604146062494202"><ele>141.2</ele><time>2026-03-30T12:20:32.999Z</time></trkpt><trkpt lat="45.36463728756384" lon="10.604057685565664"><ele>141.0</ele><time>2026-03-30T12:20:34.999Z</time></trkpt><trkpt lat="45.36472242023404" lon="10.60397390180379"><ele>141.0</ele><time>2026-03-30T12:20:36.999Z</time></trkpt><trkpt lat="45.36478207431466" lon="10.603938407920051"><ele>141.0</ele><time>2026-03-30T12:20:37.999Z</time></trkpt><trkpt lat="45.36485168605669" lon="10.60390487354756"><ele>141.0</ele><time>2026-03-30T12:20:38.999Z</time></trkpt><trkpt lat="45.36492218198525" lon="10.603891253813517"><ele>141.0</ele><time>2026-03-30T12:20:39.999Z</time></trkpt><trkpt lat="45.36499834056618" lon="10.60387700356465"><ele>141.0</ele><time>2026-03-30T12:20:40.999Z</time></trkpt><trkpt lat="45.36506573652316" lon="10.60386134724121"><ele>141.0</ele><time>2026-03-30T12:20:41.999Z</time></trkpt><trkpt lat="45.36513370364947" lon="10.603837312893615"><ele>141.0</ele><time>2026-03-30T12:20:42.999Z</time></trkpt><trkpt lat="45.36518953704089" lon="10.60378845545942"><ele>141.0</ele><time>2026-03-30T12:20:43.999Z</time></trkpt><trkpt lat="45.36524091945405" lon="10.603730552559204"><ele>141.0</ele><time>2026-03-30T12:20:44.999Z</time></trkpt><trkpt lat="45.36529348512513" lon="10.60367541294924"><ele>141.0</ele><time>2026-03-30T12:20:46Z</time></trkpt><trkpt lat="45.36534849085349" lon="10.603614603578633"><ele>141.0</ele><time>2026-03-30T12:20:47Z</time></trkpt><trkpt lat="45.36543790928174" lon="10.60349893040148"><ele>141.0</ele><time>2026-03-30T12:20:49Z</time></trkpt><trkpt lat="45.36548018494095" lon="10.603432200397119"><ele>141.0</ele><time>2026-03-30T12:20:50Z</time></trkpt><trkpt lat="45.3655216488362" lon="10.60336051107354"><ele>141.33333333333334</ele><time>2026-03-30T12:20:51Z</time></trkpt><trkpt lat="45.36558588442085" lon="10.603226967140657"><ele>141.66666666666666</ele><time>2026-03-30T12:20:53Z</time></trkpt><trkpt lat="45.36562067626669" lon="10.60314866233475"><ele>142.0</ele><time>2026-03-30T12:20:54Z</time></trkpt><trkpt lat="45.3656928103888" lon="10.603001849706597"><ele>142.33333333333331</ele><time>2026-03-30T12:20:56Z</time></trkpt><trkpt lat="45.36572807426661" lon="10.602916627815308"><ele>142.66666666666666</ele><time>2026-03-30T12:20:57Z</time></trkpt><trkpt lat="45.36575913117835" lon="10.60283708622522"><ele>143.0</ele><time>2026-03-30T12:20:58Z</time></trkpt><trkpt lat="45.36582616638973" lon="10.602686911202854"><ele>142.99999999999997</ele><time>2026-03-30T12:21:00Z</time></trkpt><trkpt lat="45.36586287113489" lon="10.602605492461965"><ele>143.0</ele><time>2026-03-30T12:21:01Z</time></trkpt><trkpt lat="45.365895791195996" lon="10.602516668664887"><ele>143.0</ele><time>2026-03-30T12:21:02Z</time></trkpt><trkpt lat="45.36593004057782" lon="10.602431716237911"><ele>143.0</ele><time>2026-03-30T12:21:03Z</time></trkpt><trkpt lat="45.3659778418909" lon="10.602343591066058"><ele>143.0</ele><time>2026-03-30T12:21:04Z</time></trkpt><trkpt lat="45.3660267740554" lon="10.602256547012209"><ele>142.99999999999997</ele><time>2026-03-30T12:21:05Z</time></trkpt><trkpt lat="45.366074263468455" lon="10.602167824796103"><ele>143.0</ele><time>2026-03-30T12:21:06Z</time></trkpt><trkpt lat="45.36611866385391" lon="10.602070436460624"><ele>143.66666666666666</ele><time>2026-03-30T12:21:07Z</time></trkpt><trkpt lat="45.36615986343667" lon="10.60198299523584"><ele>144.33333333333331</ele><time>2026-03-30T12:21:08Z</time></trkpt><trkpt lat="45.36620700961644" lon="10.601887454102522"><ele>145.0</ele><time>2026-03-30T12:21:09Z</time></trkpt><trkpt lat="45.36625765283375" lon="10.601781960001471"><ele>145.66666666666666</ele><time>2026-03-30T12:21:10Z</time></trkpt><trkpt lat="45.366303661402554" lon="10.601684503535616"><ele>146.33333333333334</ele><time>2026-03-30T12:21:11Z</time></trkpt><trkpt lat="45.36635090693779" lon="10.601577007581767"><ele>147.0</ele><time>2026-03-30T12:21:12Z</time></trkpt><trkpt lat="45.36640361055743" lon="10.60146056150294"><ele>147.0</ele><time>2026-03-30T12:21:13Z</time></trkpt><trkpt lat="45.366449155595525" lon="10.601360916669197"><ele>147.0</ele><time>2026-03-30T12:21:14Z</time></trkpt><trkpt lat="45.36649631615596" lon="10.601259802431143"><ele>147.0</ele><time>2026-03-30T12:21:15Z</time></trkpt><trkpt lat="45.36654003537868" lon="10.601161912184153"><ele>147.0</ele><time>2026-03-30T12:21:16Z</time></trkpt><trkpt lat="45.366583678075486" lon="10.601068906837618"><ele>147.0</ele><time>2026-03-30T12:21:17Z</time></trkpt><trkpt lat="45.36662604359914" lon="10.600980361870958"><ele>147.0</ele><time>2026-03-30T12:21:18Z</time></trkpt><trkpt lat="45.36667659665412" lon="10.600875029665453"><ele>147.0</ele><time>2026-03-30T12:21:19Z</time></trkpt><trkpt lat="45.36672959085276" lon="10.600786478785455"><ele>147.0</ele><time>2026-03-30T12:21:20Z</time></trkpt><trkpt lat="45.36679865184532" lon="10.600696619914414"><ele>147.0</ele><time>2026-03-30T12:21:21Z</time></trkpt><trkpt lat="45.366865861469506" lon="10.600624270013673"><ele>147.0</ele><time>2026-03-30T12:21:22Z</time></trkpt><trkpt lat="45.36693972917497" lon="10.600541385320547"><ele>147.0</ele><time>2026-03-30T12:21:23Z</time></trkpt><trkpt lat="45.36702720393658" lon="10.600438457644385"><ele>147.0</ele><time>2026-03-30T12:21:24Z</time></trkpt><trkpt lat="45.367099717263905" lon="10.60034308461796"><ele>147.0</ele><time>2026-03-30T12:21:25Z</time></trkpt><trkpt lat="45.36717454259131" lon="10.600234012355482"><ele>147.0</ele><time>2026-03-30T12:21:26Z</time></trkpt><trkpt lat="45.36725110026169" lon="10.600129526819758"><ele>147.0</ele><time>2026-03-30T12:21:27Z</time></trkpt><trkpt lat="45.36731848604565" lon="10.60005925467477"><ele>147.0</ele><time>2026-03-30T12:21:28Z</time></trkpt><trkpt lat="45.36737996320811" lon="10.599995905236502"><ele>147.33333333333334</ele><time>2026-03-30T12:21:29Z</time></trkpt><trkpt lat="45.36743268915234" lon="10.59993966552566"><ele>147.66666666666666</ele><time>2026-03-30T12:21:30Z</time></trkpt><trkpt lat="45.36749402496563" lon="10.599872740345438"><ele>148.0</ele><time>2026-03-30T12:21:31Z</time></trkpt><trkpt lat="45.36755664396275" lon="10.599814993677546"><ele>148.33333333333331</ele><time>2026-03-30T12:21:32Z</time></trkpt><trkpt lat="45.36761450621224" lon="10.599757105282002"><ele>148.66666666666666</ele><time>2026-03-30T12:21:33Z</time></trkpt><trkpt lat="45.36767147365541" lon="10.599699271025255"><ele>149.0</ele><time>2026-03-30T12:21:34Z</time></trkpt><trkpt lat="45.36777953797488" lon="10.59958920021178"><ele>149.0</ele><time>2026-03-30T12:21:36Z</time></trkpt><trkpt lat="45.367832379529354" lon="10.599530075446333"><ele>149.0</ele><time>2026-03-30T12:21:37Z</time></trkpt><trkpt lat="45.36788805100558" lon="10.599448941556053"><ele>149.0</ele><time>2026-03-30T12:21:38Z</time></trkpt><trkpt lat="45.367944094327214" lon="10.599370617550258"><ele>149.0</ele><time>2026-03-30T12:21:39Z</time></trkpt><trkpt lat="45.367986012493716" lon="10.599296708262703"><ele>149.0</ele><time>2026-03-30T12:21:40Z</time></trkpt><trkpt lat="45.368050025913746" lon="10.599208506036884"><ele>149.0</ele><time>2026-03-30T12:21:41Z</time></trkpt><trkpt lat="45.36811504918332" lon="10.599123836642082"><ele>149.33333333333331</ele><time>2026-03-30T12:21:42Z</time></trkpt><trkpt lat="45.36817989560294" lon="10.59903981596827"><ele>149.66666666666666</ele><time>2026-03-30T12:21:43Z</time></trkpt><trkpt lat="45.36824011594843" lon="10.59895566265471"><ele>150.0</ele><time>2026-03-30T12:21:44Z</time></trkpt><trkpt lat="45.36831317838831" lon="10.598860118786295"><ele>150.33333333333334</ele><time>2026-03-30T12:21:45Z</time></trkpt><trkpt lat="45.36837795305169" lon="10.598797156982942"><ele>150.66666666666669</ele><time>2026-03-30T12:21:46Z</time></trkpt><trkpt lat="45.36845298381613" lon="10.598724792056919"><ele>151.0</ele><time>2026-03-30T12:21:47Z</time></trkpt><trkpt lat="45.368504303841796" lon="10.598648170474874"><ele>151.0</ele><time>2026-03-30T12:21:48Z</time></trkpt><trkpt lat="45.368552192318184" lon="10.598552044568125"><ele>151.0</ele><time>2026-03-30T12:21:49Z</time></trkpt><trkpt lat="45.36860766070022" lon="10.598432383862113"><ele>151.0</ele><time>2026-03-30T12:21:50Z</time></trkpt><trkpt lat="45.368644583428534" lon="10.598328835410857"><ele>151.0</ele><time>2026-03-30T12:21:51Z</time></trkpt><trkpt lat="45.368676511495046" lon="10.598227394495217"><ele>151.0</ele><time>2026-03-30T12:21:52Z</time></trkpt><trkpt lat="45.36870035935791" lon="10.598127198790104"><ele>151.0</ele><time>2026-03-30T12:21:53Z</time></trkpt><trkpt lat="45.368698318798685" lon="10.598000764103073"><ele>151.0</ele><time>2026-03-30T12:21:55Z</time></trkpt><trkpt lat="45.36869063816348" lon="10.597895127202241"><ele>151.0</ele><time>2026-03-30T12:21:56Z</time></trkpt><trkpt lat="45.36868003918871" lon="10.597753147347786"><ele>151.0</ele><time>2026-03-30T12:21:57Z</time></trkpt><trkpt lat="45.36865460002644" lon="10.597640697469664"><ele>151.0</ele><time>2026-03-30T12:21:58Z</time></trkpt><trkpt lat="45.36862926930605" lon="10.59753696807858"><ele>151.0</ele><time>2026-03-30T12:21:59Z</time></trkpt><trkpt lat="45.36859865727844" lon="10.59737994394637"><ele>150.0</ele><time>2026-03-30T12:22:01Z</time></trkpt><trkpt lat="45.36858346455314" lon="10.597229672276042"><ele>149.0</ele><time>2026-03-30T12:22:03Z</time></trkpt><trkpt lat="45.36858336884592" lon="10.597132374418022"><ele>148.0</ele><time>2026-03-30T12:22:05Z</time></trkpt><trkpt lat="45.36851161033174" lon="10.597041582304685"><ele>147.0</ele><time>2026-03-30T12:22:07Z</time></trkpt><trkpt lat="45.368443661560555" lon="10.596998329104"><ele>146.0</ele><time>2026-03-30T12:22:08Z</time></trkpt><trkpt lat="45.36836880485761" lon="10.596950057586577"><ele>145.0</ele><time>2026-03-30T12:22:09Z</time></trkpt><trkpt lat="45.3682735534209" lon="10.596897799915647"><ele>144.0</ele><time>2026-03-30T12:22:10Z</time></trkpt><trkpt lat="45.368185390550515" lon="10.596822519178666"><ele>143.0</ele><time>2026-03-30T12:22:10.999Z</time></trkpt><trkpt lat="45.368087619864475" lon="10.596740960370973"><ele>142.0</ele><time>2026-03-30T12:22:11.999Z</time></trkpt><trkpt lat="45.36798384111867" lon="10.596660770804517"><ele>141.0</ele><time>2026-03-30T12:22:12.999Z</time></trkpt><trkpt lat="45.36786867018729" lon="10.596585362606989"><ele>144.0</ele><time>2026-03-30T12:22:13.999Z</time></trkpt><trkpt lat="45.367753012246936" lon="10.59653479874889"><ele>147.0</ele><time>2026-03-30T12:22:14.999Z</time></trkpt><trkpt lat="45.3676457027707" lon="10.596490793953512"><ele>150.0</ele><time>2026-03-30T12:22:15.999Z</time></trkpt><trkpt lat="45.36752980960323" lon="10.596512576676377"><ele>153.0</ele><time>2026-03-30T12:22:16.999Z</time></trkpt><trkpt lat="45.36742553926673" lon="10.596584713241324"><ele>153.0</ele><time>2026-03-30T12:22:17.999Z</time></trkpt><trkpt lat="45.36731927924458" lon="10.596667794249145"><ele>153.0</ele><time>2026-03-30T12:22:18.999Z</time></trkpt><trkpt lat="45.36722555224468" lon="10.596732349085084"><ele>153.0</ele><time>2026-03-30T12:22:19.999Z</time></trkpt><trkpt lat="45.367128167164125" lon="10.596807972251064"><ele>153.0</ele><time>2026-03-30T12:22:20.999Z</time></trkpt><trkpt lat="45.367025916011514" lon="10.596892628647904"><ele>152.25</ele><time>2026-03-30T12:22:21.999Z</time></trkpt><trkpt lat="45.36691595148509" lon="10.596988868877693"><ele>151.5</ele><time>2026-03-30T12:22:22.999Z</time></trkpt><trkpt lat="45.366800050170426" lon="10.597091508838382"><ele>150.75</ele><time>2026-03-30T12:22:23.999Z</time></trkpt><trkpt lat="45.36667504172471" lon="10.597196057011958"><ele>150.0</ele><time>2026-03-30T12:22:24.999Z</time></trkpt><trkpt lat="45.36653983605404" lon="10.59731440517904"><ele>150.0</ele><time>2026-03-30T12:22:25.999Z</time></trkpt><trkpt lat="45.366397667731874" lon="10.597439179873316"><ele>150.0</ele><time>2026-03-30T12:22:26.999Z</time></trkpt><trkpt lat="45.36626769423925" lon="10.597548432588049"><ele>150.0</ele><time>2026-03-30T12:22:27.999Z</time></trkpt><trkpt lat="45.36614026366487" lon="10.597655596698223"><ele>149.5</ele><time>2026-03-30T12:22:28.999Z</time></trkpt><trkpt lat="45.36601501335043" lon="10.597759418356459"><ele>149.0</ele><time>2026-03-30T12:22:29.999Z</time></trkpt><trkpt lat="45.36589198668353" lon="10.597855960106624"><ele>148.5</ele><time>2026-03-30T12:22:30.999Z</time></trkpt><trkpt lat="45.365762426065515" lon="10.597946330657956"><ele>148.0</ele><time>2026-03-30T12:22:31.999Z</time></trkpt><trkpt lat="45.36561628704617" lon="10.598015398240157"><ele>147.0</ele><time>2026-03-30T12:22:32.999Z</time></trkpt><trkpt lat="45.365470192914636" lon="10.598040974748589"><ele>146.0</ele><time>2026-03-30T12:22:33.999Z</time></trkpt><trkpt lat="45.36533528425268" lon="10.598048323432938"><ele>145.0</ele><time>2026-03-30T12:22:34.999Z</time></trkpt><trkpt lat="45.365212955051526" lon="10.598051009361136"><ele>144.0</ele><time>2026-03-30T12:22:35.999Z</time></trkpt><trkpt lat="45.365108200367004" lon="10.598049764030252"><ele>144.0</ele><time>2026-03-30T12:22:36.999Z</time></trkpt><trkpt lat="45.36501587704145" lon="10.59801318700296"><ele>144.0</ele><time>2026-03-30T12:22:37.999Z</time></trkpt><trkpt lat="45.3649353235354" lon="10.597926587937666"><ele>144.0</ele><time>2026-03-30T12:22:38.999Z</time></trkpt><trkpt lat="45.36484854451953" lon="10.59786443772078"><ele>144.0</ele><time>2026-03-30T12:22:39.999Z</time></trkpt><trkpt lat="45.36476429891297" lon="10.597860008948688"><ele>144.0</ele><time>2026-03-30T12:22:40.999Z</time></trkpt><trkpt lat="45.3646858169789" lon="10.597891877307875"><ele>143.0</ele><time>2026-03-30T12:22:41.999Z</time></trkpt><trkpt lat="45.364628368945" lon="10.597971143242827"><ele>142.0</ele><time>2026-03-30T12:22:42.999Z</time></trkpt><trkpt lat="45.364600842532354" lon="10.59808338530633"><ele>141.0</ele><time>2026-03-30T12:22:43.999Z</time></trkpt><trkpt lat="45.36459853481181" lon="10.598218980643738"><ele>140.0</ele><time>2026-03-30T12:22:44.999Z</time></trkpt><trkpt lat="45.364603885643085" lon="10.598388719302445"><ele>139.0</ele><time>2026-03-30T12:22:45.999Z</time></trkpt><trkpt lat="45.36457681471641" lon="10.598568270761367"><ele>140.0</ele><time>2026-03-30T12:22:46.999Z</time></trkpt><trkpt lat="45.364506198665126" lon="10.598738654222887"><ele>141.0</ele><time>2026-03-30T12:22:47.999Z</time></trkpt><trkpt lat="45.36442596187166" lon="10.598922625331033"><ele>142.0</ele><time>2026-03-30T12:22:48.999Z</time></trkpt><trkpt lat="45.364343590179224" lon="10.599120708455024"><ele>142.0</ele><time>2026-03-30T12:22:49.999Z</time></trkpt><trkpt lat="45.36426227870802" lon="10.599320997209958"><ele>142.0</ele><time>2026-03-30T12:22:50.999Z</time></trkpt><trkpt lat="45.364179309408414" lon="10.599519405471428"><ele>142.0</ele><time>2026-03-30T12:22:51.999Z</time></trkpt><trkpt lat="45.36409414994597" lon="10.59972553365864"><ele>142.33333333333334</ele><time>2026-03-30T12:22:52.999Z</time></trkpt><trkpt lat="45.36400824146599" lon="10.599927442995131"><ele>142.66666666666666</ele><time>2026-03-30T12:22:53.999Z</time></trkpt><trkpt lat="45.36392321500712" lon="10.600132905855947"><ele>143.0</ele><time>2026-03-30T12:22:54.999Z</time></trkpt><trkpt lat="45.36383878694522" lon="10.600341146304864"><ele>143.0</ele><time>2026-03-30T12:22:55.999Z</time></trkpt><trkpt lat="45.36375260303106" lon="10.600556599789739"><ele>143.0</ele><time>2026-03-30T12:22:56.999Z</time></trkpt><trkpt lat="45.363658443582366" lon="10.600784105147708"><ele>143.0</ele><time>2026-03-30T12:22:57.999Z</time></trkpt><trkpt lat="45.363560534034086" lon="10.60102273922964"><ele>144.33333333333331</ele><time>2026-03-30T12:22:58.999Z</time></trkpt><trkpt lat="45.36346354469017" lon="10.601277524544907"><ele>145.66666666666666</ele><time>2026-03-30T12:22:59.999Z</time></trkpt><trkpt lat="45.36337099478714" lon="10.601544793694979"><ele>147.0</ele><time>2026-03-30T12:23:00.999Z</time></trkpt><trkpt lat="45.363270709715465" lon="10.601792673891062"><ele>148.66666666666666</ele><time>2026-03-30T12:23:01.999Z</time></trkpt><trkpt lat="45.3631799563667" lon="10.602048743647213"><ele>150.33333333333331</ele><time>2026-03-30T12:23:02.999Z</time></trkpt><trkpt lat="45.363081806757556" lon="10.602329375356266"><ele>152.0</ele><time>2026-03-30T12:23:03.999Z</time></trkpt><trkpt lat="45.36302615122451" lon="10.602415948541392"><ele>148.66666666666666</ele><time>2026-03-30T12:23:04.999Z</time></trkpt><trkpt lat="45.3629472939575" lon="10.602653180736786"><ele>145.33333333333334</ele><time>2026-03-30T12:23:05.999Z</time></trkpt><trkpt lat="45.36287354951064" lon="10.602869257657327"><ele>142.0</ele><time>2026-03-30T12:23:06.999Z</time></trkpt><trkpt lat="45.36280171459885" lon="10.60307779716199"><ele>142.0</ele><time>2026-03-30T12:23:07.999Z</time></trkpt><trkpt lat="45.36273090801313" lon="10.603289122402373"><ele>142.0</ele><time>2026-03-30T12:23:08.999Z</time></trkpt><trkpt lat="45.36266074332092" lon="10.603498000259775"><ele>142.0</ele><time>2026-03-30T12:23:09.999Z</time></trkpt><trkpt lat="45.36259385147776" lon="10.603694329856438"><ele>143.5</ele><time>2026-03-30T12:23:10.999Z</time></trkpt><trkpt lat="45.36251958790455" lon="10.603860440063766"><ele>145.0</ele><time>2026-03-30T12:23:11.999Z</time></trkpt><trkpt lat="45.36244572396192" lon="10.60400264332307"><ele>146.5</ele><time>2026-03-30T12:23:12.999Z</time></trkpt><trkpt lat="45.362378430628866" lon="10.604135813290736"><ele>148.0</ele><time>2026-03-30T12:23:13.999Z</time></trkpt><trkpt lat="45.362320997938326" lon="10.604251725000639"><ele>148.0</ele><time>2026-03-30T12:23:14.999Z</time></trkpt><trkpt lat="45.36226456487983" lon="10.604350826730057"><ele>148.0</ele><time>2026-03-30T12:23:15.999Z</time></trkpt><trkpt lat="45.362216256096964" lon="10.604439662464724"><ele>148.0</ele><time>2026-03-30T12:23:16.999Z</time></trkpt><trkpt lat="45.362123120450065" lon="10.604495195637577"><ele>148.0</ele><time>2026-03-30T12:23:18.999Z</time></trkpt><trkpt lat="45.362075102154925" lon="10.60436022763299"><ele>148.0</ele><time>2026-03-30T12:23:19.999Z</time></trkpt><trkpt lat="45.362006773039404" lon="10.604346919383417"><ele>148.0</ele><time>2026-03-30T12:23:20.999Z</time></trkpt><trkpt lat="45.36192144142845" lon="10.604343444613768"><ele>146.6</ele><time>2026-03-30T12:23:21.999Z</time></trkpt><trkpt lat="45.36183934035499" lon="10.604331133762626"><ele>145.20000000000002</ele><time>2026-03-30T12:23:22.999Z</time></trkpt><trkpt lat="45.361756200543354" lon="10.604310567673114"><ele>143.8</ele><time>2026-03-30T12:23:23.999Z</time></trkpt><trkpt lat="45.36165146278977" lon="10.604265927875925"><ele>142.4</ele><time>2026-03-30T12:23:24.999Z</time></trkpt><trkpt lat="45.361533142128884" lon="10.604192730791654"><ele>141.0</ele><time>2026-03-30T12:23:25.999Z</time></trkpt><trkpt lat="45.36141066890802" lon="10.604095092776484"><ele>140.5</ele><time>2026-03-30T12:23:26.999Z</time></trkpt><trkpt lat="45.361296595298484" lon="10.603995821959971"><ele>140.0</ele><time>2026-03-30T12:23:27.999Z</time></trkpt><trkpt lat="45.3611797840025" lon="10.603880991633332"><ele>139.5</ele><time>2026-03-30T12:23:28.999Z</time></trkpt><trkpt lat="45.36106389386947" lon="10.603747372190181"><ele>139.0</ele><time>2026-03-30T12:23:29.999Z</time></trkpt><trkpt lat="45.360943477165705" lon="10.603584855062248"><ele>138.33333333333334</ele><time>2026-03-30T12:23:30.999Z</time></trkpt><trkpt lat="45.36083753273083" lon="10.603420361905863"><ele>137.66666666666666</ele><time>2026-03-30T12:23:31.999Z</time></trkpt><trkpt lat="45.360738396259045" lon="10.603251177255174"><ele>137.0</ele><time>2026-03-30T12:23:32.999Z</time></trkpt><trkpt lat="45.360638087466555" lon="10.603052529252988"><ele>136.66666666666666</ele><time>2026-03-30T12:23:33.999Z</time></trkpt><trkpt lat="45.360522962626455" lon="10.602825055472282"><ele>136.33333333333334</ele><time>2026-03-30T12:23:34.999Z</time></trkpt><trkpt lat="45.36042599322637" lon="10.602631887914729"><ele>136.0</ele><time>2026-03-30T12:23:35.999Z</time></trkpt><trkpt lat="45.36034412235934" lon="10.602453329415273"><ele>136.0</ele><time>2026-03-30T12:23:36.999Z</time></trkpt><trkpt lat="45.36027669553258" lon="10.602248576105934"><ele>136.0</ele><time>2026-03-30T12:23:37.999Z</time></trkpt><trkpt lat="45.36021751002213" lon="10.602009079250761"><ele>136.0</ele><time>2026-03-30T12:23:38.999Z</time></trkpt><trkpt lat="45.360158288756296" lon="10.601772699126679"><ele>136.2</ele><time>2026-03-30T12:23:39.999Z</time></trkpt><trkpt lat="45.36011032198226" lon="10.601582971234453"><ele>136.39999999999998</ele><time>2026-03-30T12:23:40.999Z</time></trkpt><trkpt lat="45.360069791774485" lon="10.601441599888926"><ele>136.6</ele><time>2026-03-30T12:23:41.999Z</time></trkpt><trkpt lat="45.36003733656734" lon="10.601328395492747"><ele>136.79999999999998</ele><time>2026-03-30T12:23:42.999Z</time></trkpt><trkpt lat="45.359992553474925" lon="10.601218586621714"><ele>137.0</ele><time>2026-03-30T12:23:43.999Z</time></trkpt><trkpt lat="45.35992099899942" lon="10.601114989480818"><ele>137.0</ele><time>2026-03-30T12:23:44.999Z</time></trkpt><trkpt lat="45.35985237315269" lon="10.601009395643732"><ele>137.0</ele><time>2026-03-30T12:23:45.999Z</time></trkpt><trkpt lat="45.35977826135395" lon="10.600911185137615"><ele>137.0</ele><time>2026-03-30T12:23:46.999Z</time></trkpt><trkpt lat="45.35969008747315" lon="10.600782966637635"><ele>137.0</ele><time>2026-03-30T12:23:47.999Z</time></trkpt><trkpt lat="45.359606528187285" lon="10.600661622419976"><ele>137.0</ele><time>2026-03-30T12:23:48.999Z</time></trkpt><trkpt lat="45.359525832070524" lon="10.600531611678193"><ele>137.0</ele><time>2026-03-30T12:23:49.999Z</time></trkpt><trkpt lat="45.35943667046987" lon="10.600376399689944"><ele>137.0</ele><time>2026-03-30T12:23:50.999Z</time></trkpt><trkpt lat="45.35934809934324" lon="10.600211111543153"><ele>137.0</ele><time>2026-03-30T12:23:51.999Z</time></trkpt><trkpt lat="45.359278858043055" lon="10.60006348454072"><ele>137.0</ele><time>2026-03-30T12:23:52.999Z</time></trkpt><trkpt lat="45.35923478322212" lon="10.59992573068639"><ele>135.75</ele><time>2026-03-30T12:23:53.999Z</time></trkpt><trkpt lat="45.35919970967496" lon="10.599762169122664"><ele>134.5</ele><time>2026-03-30T12:23:54.999Z</time></trkpt><trkpt lat="45.359162379634554" lon="10.599610713174366"><ele>133.25</ele><time>2026-03-30T12:23:55.999Z</time></trkpt><trkpt lat="45.35911658946752" lon="10.599467864135995"><ele>132.0</ele><time>2026-03-30T12:23:56.999Z</time></trkpt><trkpt lat="45.35901810010077" lon="10.599348952973072"><ele>132.0</ele><time>2026-03-30T12:23:57.999Z</time></trkpt><trkpt lat="45.35891160731089" lon="10.599248610848559"><ele>132.0</ele><time>2026-03-30T12:23:58.999Z</time></trkpt><trkpt lat="45.35879533115395" lon="10.599160409343847"><ele>132.0</ele><time>2026-03-30T12:23:59.999Z</time></trkpt><trkpt lat="45.35867453698517" lon="10.599050965859314"><ele>132.0</ele><time>2026-03-30T12:24:00.999Z</time></trkpt><trkpt lat="45.35859004893745" lon="10.598936100475234"><ele>132.25</ele><time>2026-03-30T12:24:01.999Z</time></trkpt><trkpt lat="45.358518861740606" lon="10.598848678656893"><ele>132.5</ele><time>2026-03-30T12:24:02.999Z</time></trkpt><trkpt lat="45.358433240783945" lon="10.598732769409223"><ele>132.75</ele><time>2026-03-30T12:24:03.999Z</time></trkpt><trkpt lat="45.35832395976896" lon="10.598595577922854"><ele>133.0</ele><time>2026-03-30T12:24:04.999Z</time></trkpt><trkpt lat="45.35823670273108" lon="10.598471922360527"><ele>133.20000000000002</ele><time>2026-03-30T12:24:05.999Z</time></trkpt><trkpt lat="45.35817600736428" lon="10.59833132544384"><ele>133.4</ele><time>2026-03-30T12:24:06.999Z</time></trkpt><trkpt lat="45.35810689366883" lon="10.598237752900875"><ele>133.60000000000002</ele><time>2026-03-30T12:24:07.999Z</time></trkpt><trkpt lat="45.35807557567177" lon="10.598124352275223"><ele>133.8</ele><time>2026-03-30T12:24:08.999Z</time></trkpt><trkpt lat="45.35803419099654" lon="10.598003394901335"><ele>134.0</ele><time>2026-03-30T12:24:10.999Z</time></trkpt><trkpt lat="45.358121493571176" lon="10.597965575667782"><ele>134.0</ele><time>2026-03-30T12:24:14.999Z</time></trkpt><trkpt lat="45.35820344599315" lon="10.597941603325213"><ele>134.0</ele><time>2026-03-30T12:24:15.999Z</time></trkpt><trkpt lat="45.35832965757992" lon="10.597898105515899"><ele>134.0</ele><time>2026-03-30T12:24:16.999Z</time></trkpt><trkpt lat="45.3584830605304" lon="10.597827729468202"><ele>134.0</ele><time>2026-03-30T12:24:17.999Z</time></trkpt><trkpt lat="45.35861002188628" lon="10.597768667697473"><ele>135.66666666666666</ele><time>2026-03-30T12:24:18.999Z</time></trkpt><trkpt lat="45.35875795856514" lon="10.597699848317626"><ele>137.33333333333334</ele><time>2026-03-30T12:24:19.999Z</time></trkpt><trkpt lat="45.35892751566314" lon="10.597621918866109"><ele>139.0</ele><time>2026-03-30T12:24:20.999Z</time></trkpt><trkpt lat="45.35908708714248" lon="10.597550381835722"><ele>139.33333333333334</ele><time>2026-03-30T12:24:21.999Z</time></trkpt><trkpt lat="45.35925084415457" lon="10.59749400594996"><ele>139.66666666666666</ele><time>2026-03-30T12:24:22.999Z</time></trkpt><trkpt lat="45.35940523208365" lon="10.597493577754575"><ele>140.0</ele><time>2026-03-30T12:24:23.998Z</time></trkpt><trkpt lat="45.3595928550556" lon="10.597518831721079"><ele>140.0</ele><time>2026-03-30T12:24:24.998Z</time></trkpt><trkpt lat="45.35977019071149" lon="10.597603760709658"><ele>140.0</ele><time>2026-03-30T12:24:25.998Z</time></trkpt><trkpt lat="45.359947476469024" lon="10.597675483163243"><ele>140.0</ele><time>2026-03-30T12:24:26.998Z</time></trkpt><trkpt lat="45.360116571842276" lon="10.597728949892678"><ele>140.0</ele><time>2026-03-30T12:24:27.998Z</time></trkpt><trkpt lat="45.36026557018598" lon="10.59776021768883"><ele>140.0</ele><time>2026-03-30T12:24:28.998Z</time></trkpt><trkpt lat="45.360400607440155" lon="10.597772180309066"><ele>140.0</ele><time>2026-03-30T12:24:29.998Z</time></trkpt><trkpt lat="45.360517597797106" lon="10.597779315663999"><ele>140.0</ele><time>2026-03-30T12:24:30.998Z</time></trkpt><trkpt lat="45.36061538731541" lon="10.597793325339365"><ele>140.6</ele><time>2026-03-30T12:24:31.998Z</time></trkpt><trkpt lat="45.36069168444464" lon="10.597796402896448"><ele>141.2</ele><time>2026-03-30T12:24:32.998Z</time></trkpt><trkpt lat="45.3607575306866" lon="10.597806684034094"><ele>141.8</ele><time>2026-03-30T12:24:33.998Z</time></trkpt><trkpt lat="45.36082133101904" lon="10.597647780373789"><ele>142.4</ele><time>2026-03-30T12:24:34.998Z</time></trkpt><trkpt lat="45.36089036446194" lon="10.597516415749537"><ele>143.0</ele><time>2026-03-30T12:24:35.998Z</time></trkpt><trkpt lat="45.36097832141249" lon="10.597368797006634"><ele>143.0</ele><time>2026-03-30T12:24:36.998Z</time></trkpt><trkpt lat="45.36108730352729" lon="10.597211485558697"><ele>143.0</ele><time>2026-03-30T12:24:37.998Z</time></trkpt><trkpt lat="45.361182791817086" lon="10.597024779395898"><ele>143.0</ele><time>2026-03-30T12:24:38.998Z</time></trkpt><trkpt lat="45.3613006656956" lon="10.59686744507286"><ele>145.66666666666666</ele><time>2026-03-30T12:24:39.998Z</time></trkpt><trkpt lat="45.36141656066413" lon="10.5966802379503"><ele>148.33333333333334</ele><time>2026-03-30T12:24:40.998Z</time></trkpt><trkpt lat="45.36151745876743" lon="10.596513715953115"><ele>151.0</ele><time>2026-03-30T12:24:41.998Z</time></trkpt><trkpt lat="45.36160176999757" lon="10.596378768661426"><ele>151.0</ele><time>2026-03-30T12:24:42.998Z</time></trkpt><trkpt lat="45.361702607090365" lon="10.596244321419988"><ele>151.0</ele><time>2026-03-30T12:24:43.998Z</time></trkpt><trkpt lat="45.36180062018198" lon="10.59609910585273"><ele>151.0</ele><time>2026-03-30T12:24:44.998Z</time></trkpt><trkpt lat="45.361896059551825" lon="10.595971578986374"><ele>151.0</ele><time>2026-03-30T12:24:45.998Z</time></trkpt><trkpt lat="45.36197148840228" lon="10.595885686603618"><ele>151.16666666666669</ele><time>2026-03-30T12:24:46.998Z</time></trkpt><trkpt lat="45.362037159865324" lon="10.595803090094568"><ele>151.33333333333334</ele><time>2026-03-30T12:24:47.998Z</time></trkpt><trkpt lat="45.36211370333266" lon="10.595737337427073"><ele>151.5</ele><time>2026-03-30T12:24:48.998Z</time></trkpt><trkpt lat="45.362184484386" lon="10.595645488305209"><ele>151.66666666666666</ele><time>2026-03-30T12:24:49.998Z</time></trkpt><trkpt lat="45.36225444345477" lon="10.59556902471494"><ele>151.83333333333331</ele><time>2026-03-30T12:24:50.998Z</time></trkpt><trkpt lat="45.36230781646198" lon="10.595513548422755"><ele>152.0</ele><time>2026-03-30T12:24:51.998Z</time></trkpt><trkpt lat="45.36242429101825" lon="10.595406196713093"><ele>152.83333333333331</ele><time>2026-03-30T12:24:53.998Z</time></trkpt><trkpt lat="45.362480530779635" lon="10.595320798889531"><ele>153.66666666666666</ele><time>2026-03-30T12:24:54.998Z</time></trkpt><trkpt lat="45.36255676750481" lon="10.595262598670807"><ele>154.5</ele><time>2026-03-30T12:24:55.998Z</time></trkpt><trkpt lat="45.36262075309782" lon="10.595186702050112"><ele>155.33333333333334</ele><time>2026-03-30T12:24:56.998Z</time></trkpt><trkpt lat="45.36266698378369" lon="10.59511705598829"><ele>156.16666666666669</ele><time>2026-03-30T12:24:58Z</time></trkpt><trkpt lat="45.3627130904947" lon="10.59504572512743"><ele>157.0</ele><time>2026-03-30T12:24:59Z</time></trkpt><trkpt lat="45.362763450520674" lon="10.594960437085684"><ele>157.0</ele><time>2026-03-30T12:25:00Z</time></trkpt><trkpt lat="45.362797332499966" lon="10.59484519021669"><ele>157.0</ele><time>2026-03-30T12:25:01Z</time></trkpt><trkpt lat="45.362822548558974" lon="10.594726446512079"><ele>157.0</ele><time>2026-03-30T12:25:02Z</time></trkpt><trkpt lat="45.36283781622343" lon="10.594626970611738"><ele>157.0</ele><time>2026-03-30T12:25:03Z</time></trkpt><trkpt lat="45.36286880245616" lon="10.59454858991472"><ele>157.0</ele><time>2026-03-30T12:25:04Z</time></trkpt><trkpt lat="45.362871957478056" lon="10.59445520683227"><ele>157.0</ele><time>2026-03-30T12:25:05Z</time></trkpt><trkpt lat="45.3629183137532" lon="10.594323255600676"><ele>156.4</ele><time>2026-03-30T12:25:07Z</time></trkpt><trkpt lat="45.362947423503186" lon="10.594195409142905"><ele>155.79999999999998</ele><time>2026-03-30T12:25:09Z</time></trkpt><trkpt lat="45.36296816878781" lon="10.594105700631447"><ele>155.2</ele><time>2026-03-30T12:25:11Z</time></trkpt><trkpt lat="45.36298875938686" lon="10.594016661023966"><ele>154.6</ele><time>2026-03-30T12:25:14Z</time></trkpt><trkpt lat="45.363014854784865" lon="10.593903817100307"><ele>154.0</ele><time>2026-03-30T12:25:17Z</time></trkpt><trkpt lat="45.36320290660492" lon="10.593906746773843"><ele>153.66666666666669</ele><time>2026-03-30T12:25:18Z</time></trkpt><trkpt lat="45.36326396063763" lon="10.5937816736334"><ele>153.33333333333334</ele><time>2026-03-30T12:25:20Z</time></trkpt><trkpt lat="45.36328627746277" lon="10.593687541212352"><ele>153.0</ele><time>2026-03-30T12:25:21.999Z</time></trkpt><trkpt lat="45.36324717132534" lon="10.593588145371573"><ele>152.66666666666666</ele><time>2026-03-30T12:25:23.999Z</time></trkpt><trkpt lat="45.36318832372133" lon="10.593487031696704"><ele>152.33333333333331</ele><time>2026-03-30T12:25:25.999Z</time></trkpt><trkpt lat="45.36313273475005" lon="10.593391896538458"><ele>152.0</ele><time>2026-03-30T12:25:27.999Z</time></trkpt><trkpt lat="45.363068645560055" lon="10.593387430493337"><ele>152.66666666666666</ele><time>2026-03-30T12:25:29.999Z</time></trkpt><trkpt lat="45.36300794182622" lon="10.593425473267487"><ele>153.33333333333331</ele><time>2026-03-30T12:25:31.999Z</time></trkpt><trkpt lat="45.36293857081947" lon="10.593449784306152"><ele>154.0</ele><time>2026-03-30T12:25:34.999Z</time></trkpt><trkpt lat="45.36291077524494" lon="10.593324747091215"><ele>154.66666666666666</ele><time>2026-03-30T12:25:37.999Z</time></trkpt><trkpt lat="45.362962661861665" lon="10.593210762118327"><ele>155.33333333333334</ele><time>2026-03-30T12:25:39.999Z</time></trkpt><trkpt lat="45.36299523805573" lon="10.593120706222324"><ele>156.0</ele><time>2026-03-30T12:25:42.999Z</time></trkpt><trkpt lat="45.36299255105534" lon="10.593002284610987"><ele>156.0</ele><time>2026-03-30T12:25:45.999Z</time></trkpt><trkpt lat="45.36300327236787" lon="10.592904499773805"><ele>156.0</ele><time>2026-03-30T12:25:48.999Z</time></trkpt><trkpt lat="45.3630005270383" lon="10.592798663489297"><ele>156.0</ele><time>2026-03-30T12:25:58.999Z</time></trkpt><trkpt lat="45.36299990217736" lon="10.59269708632102"><ele>156.0</ele><time>2026-03-30T12:26:02.999Z</time></trkpt><trkpt lat="45.362933990745546" lon="10.592655409878587"><ele>156.0</ele><time>2026-03-30T12:26:07.999Z</time></trkpt><trkpt lat="45.362862503290735" lon="10.592703159672425"><ele>156.0</ele><time>2026-03-30T12:26:10.999Z</time></trkpt><trkpt lat="45.362823004344214" lon="10.592783446881828"><ele>156.0</ele><time>2026-03-30T12:26:13.999Z</time></trkpt><trkpt lat="45.362763915969026" lon="10.592942119199698"><ele>156.0</ele><time>2026-03-30T12:26:16.999Z</time></trkpt><trkpt lat="45.36271039523134" lon="10.59305104981078"><ele>156.0</ele><time>2026-03-30T12:26:18.999Z</time></trkpt><trkpt lat="45.36264224168331" lon="10.59311601205084"><ele>156.0</ele><time>2026-03-30T12:26:20.999Z</time></trkpt><trkpt lat="45.362598997981934" lon="10.593190072111264"><ele>156.0</ele><time>2026-03-30T12:26:22.999Z</time></trkpt><trkpt lat="45.362530158338416" lon="10.593264165055263"><ele>156.0</ele><time>2026-03-30T12:26:25.999Z</time></trkpt><trkpt lat="45.36245669609345" lon="10.593227613330907"><ele>156.0</ele><time>2026-03-30T12:26:28.999Z</time></trkpt><trkpt lat="45.36241951945745" lon="10.593140774259314"><ele>156.0</ele><time>2026-03-30T12:26:30.999Z</time></trkpt><trkpt lat="45.362353188020556" lon="10.593043240701336"><ele>156.0</ele><time>2026-03-30T12:26:32.999Z</time></trkpt><trkpt lat="45.362280360206356" lon="10.592940559142612"><ele>156.0</ele><time>2026-03-30T12:26:34.998Z</time></trkpt><trkpt lat="45.3622811318689" lon="10.59282860584484"><ele>156.0</ele><time>2026-03-30T12:26:36.998Z</time></trkpt><trkpt lat="45.36232028553671" lon="10.592703491302114"><ele>156.0</ele><time>2026-03-30T12:26:38.998Z</time></trkpt><trkpt lat="45.3623634193775" lon="10.592542429218517"><ele>156.2</ele><time>2026-03-30T12:26:40.998Z</time></trkpt><trkpt lat="45.3623909047806" lon="10.592386133324727"><ele>156.39999999999998</ele><time>2026-03-30T12:26:42.998Z</time></trkpt><trkpt lat="45.3623951531348" lon="10.59227500967155"><ele>156.6</ele><time>2026-03-30T12:26:44.998Z</time></trkpt><trkpt lat="45.362378181501846" lon="10.592158990092594"><ele>156.79999999999998</ele><time>2026-03-30T12:26:46.998Z</time></trkpt><trkpt lat="45.36231360698451" lon="10.592024059481545"><ele>157.0</ele><time>2026-03-30T12:26:48.998Z</time></trkpt><trkpt lat="45.36224286749596" lon="10.591907494889105"><ele>158.0</ele><time>2026-03-30T12:26:50.998Z</time></trkpt><trkpt lat="45.36217859427717" lon="10.591815640063755"><ele>159.0</ele><time>2026-03-30T12:26:52.998Z</time></trkpt><trkpt lat="45.36210873768024" lon="10.591744827723936"><ele>160.0</ele><time>2026-03-30T12:26:54.998Z</time></trkpt><trkpt lat="45.361988914302614" lon="10.591710363940411"><ele>161.0</ele><time>2026-03-30T12:26:56.998Z</time></trkpt><trkpt lat="45.36191751743101" lon="10.591711151178629"><ele>162.0</ele><time>2026-03-30T12:26:57.998Z</time></trkpt><trkpt lat="45.36185383348009" lon="10.591684195154754"><ele>163.0</ele><time>2026-03-30T12:26:58.998Z</time></trkpt><trkpt lat="45.361788729958086" lon="10.591663995376527"><ele>163.0</ele><time>2026-03-30T12:26:59.998Z</time></trkpt><trkpt lat="45.36164614487599" lon="10.591698546315513"><ele>163.0</ele><time>2026-03-30T12:27:01.998Z</time></trkpt><trkpt lat="45.36157211722494" lon="10.591731350060796"><ele>163.0</ele><time>2026-03-30T12:27:02.998Z</time></trkpt><trkpt lat="45.36149798069409" lon="10.591735841017053"><ele>163.0</ele><time>2026-03-30T12:27:04Z</time></trkpt><trkpt lat="45.361411090699725" lon="10.59168939266134"><ele>163.0</ele><time>2026-03-30T12:27:05Z</time></trkpt><trkpt lat="45.36134181810634" lon="10.591636741537888"><ele>163.33333333333334</ele><time>2026-03-30T12:27:06Z</time></trkpt><trkpt lat="45.361264857845434" lon="10.591570277165262"><ele>163.66666666666669</ele><time>2026-03-30T12:27:07Z</time></trkpt><trkpt lat="45.36119368806101" lon="10.591488240346415"><ele>164.0</ele><time>2026-03-30T12:27:08Z</time></trkpt><trkpt lat="45.36114674573073" lon="10.591399929284622"><ele>164.33333333333334</ele><time>2026-03-30T12:27:09Z</time></trkpt><trkpt lat="45.36110498705175" lon="10.591285221457097"><ele>164.66666666666666</ele><time>2026-03-30T12:27:10Z</time></trkpt><trkpt lat="45.36105984684327" lon="10.59120214458621"><ele>165.0</ele><time>2026-03-30T12:27:11Z</time></trkpt><trkpt lat="45.36099507631629" lon="10.591133348949931"><ele>163.83333333333334</ele><time>2026-03-30T12:27:12Z</time></trkpt><trkpt lat="45.360930058700355" lon="10.59110860858716"><ele>162.66666666666666</ele><time>2026-03-30T12:27:13Z</time></trkpt><trkpt lat="45.36082918892608" lon="10.591057456638179"><ele>161.5</ele><time>2026-03-30T12:27:15Z</time></trkpt><trkpt lat="45.360748988033016" lon="10.591007985678596"><ele>160.33333333333331</ele><time>2026-03-30T12:27:17Z</time></trkpt><trkpt lat="45.36071902143794" lon="10.590869127867753"><ele>159.16666666666666</ele><time>2026-03-30T12:27:20Z</time></trkpt><trkpt lat="45.36070769958506" lon="10.590766598409667"><ele>158.0</ele><time>2026-03-30T12:27:21Z</time></trkpt><trkpt lat="45.36072254881717" lon="10.590631514509543"><ele>158.0</ele><time>2026-03-30T12:27:22Z</time></trkpt><trkpt lat="45.36075016449873" lon="10.590458816876955"><ele>158.0</ele><time>2026-03-30T12:27:23Z</time></trkpt><trkpt lat="45.36078995881051" lon="10.5902968303326"><ele>158.0</ele><time>2026-03-30T12:27:24Z</time></trkpt><trkpt lat="45.360836250698114" lon="10.590141613144642"><ele>158.0</ele><time>2026-03-30T12:27:25Z</time></trkpt><trkpt lat="45.360889625136444" lon="10.590004076296267"><ele>156.75</ele><time>2026-03-30T12:27:26Z</time></trkpt><trkpt lat="45.36095710050966" lon="10.589876871050258"><ele>155.5</ele><time>2026-03-30T12:27:27Z</time></trkpt><trkpt lat="45.361038940283045" lon="10.589739384480183"><ele>154.25</ele><time>2026-03-30T12:27:28Z</time></trkpt><trkpt lat="45.3611298511171" lon="10.58958651158128"><ele>153.0</ele><time>2026-03-30T12:27:29Z</time></trkpt><trkpt lat="45.36121702202443" lon="10.58940740621832"><ele>153.25</ele><time>2026-03-30T12:27:30Z</time></trkpt><trkpt lat="45.36128533612826" lon="10.58921178620391"><ele>153.5</ele><time>2026-03-30T12:27:31Z</time></trkpt><trkpt lat="45.36133788621529" lon="10.58902588367644"><ele>153.75</ele><time>2026-03-30T12:27:32Z</time></trkpt><trkpt lat="45.36138506885142" lon="10.588849436681771"><ele>154.0</ele><time>2026-03-30T12:27:33Z</time></trkpt><trkpt lat="45.361435213564114" lon="10.588682380191072"><ele>154.5</ele><time>2026-03-30T12:27:33.999Z</time></trkpt><trkpt lat="45.361480527323025" lon="10.5885368309912"><ele>155.0</ele><time>2026-03-30T12:27:34.999Z</time></trkpt><trkpt lat="45.36152192950987" lon="10.588423110104086"><ele>155.5</ele><time>2026-03-30T12:27:35.999Z</time></trkpt><trkpt lat="45.36154622724531" lon="10.588323769822528"><ele>156.0</ele><time>2026-03-30T12:27:36.999Z</time></trkpt><trkpt lat="45.361571352134945" lon="10.588219942585873"><ele>156.5</ele><time>2026-03-30T12:27:37.999Z</time></trkpt><trkpt lat="45.36161265778912" lon="10.58810154203778"><ele>157.0</ele><time>2026-03-30T12:27:38.999Z</time></trkpt><trkpt lat="45.361665091740555" lon="10.588029721567903"><ele>157.0</ele><time>2026-03-30T12:27:39.999Z</time></trkpt><trkpt lat="45.36172530373248" lon="10.587957899976592"><ele>157.0</ele><time>2026-03-30T12:27:40.999Z</time></trkpt><trkpt lat="45.36178536583441" lon="10.58789802683751"><ele>157.0</ele><time>2026-03-30T12:27:41.999Z</time></trkpt><trkpt lat="45.36184982726688" lon="10.587843878689627"><ele>157.0</ele><time>2026-03-30T12:27:43.999Z</time></trkpt><trkpt lat="45.36176310317194" lon="10.587899972339425"><ele>157.0</ele><time>2026-03-30T12:27:54.999Z</time></trkpt><trkpt lat="45.36170716764331" lon="10.587982674709158"><ele>157.0</ele><time>2026-03-30T12:27:55.999Z</time></trkpt><trkpt lat="45.36164188205448" lon="10.588091296997657"><ele>157.0</ele><time>2026-03-30T12:27:56.999Z</time></trkpt><trkpt lat="45.36157877506391" lon="10.588187053968907"><ele>157.0</ele><time>2026-03-30T12:27:57.999Z</time></trkpt><trkpt lat="45.36154768582424" lon="10.588285956040643"><ele>157.0</ele><time>2026-03-30T12:27:58.999Z</time></trkpt><trkpt lat="45.3615208620721" lon="10.5884304805482"><ele>157.0</ele><time>2026-03-30T12:28:00.999Z</time></trkpt><trkpt lat="45.36148010632296" lon="10.588513278154622"><ele>157.0</ele><time>2026-03-30T12:28:03.999Z</time></trkpt><trkpt lat="45.3614180126795" lon="10.588447365963523"><ele>157.0</ele><time>2026-03-30T12:28:07.999Z</time></trkpt><trkpt lat="45.36138576349334" lon="10.588298691422159"><ele>157.0</ele><time>2026-03-30T12:28:09.999Z</time></trkpt><trkpt lat="45.36137262662826" lon="10.588188502896285"><ele>157.0</ele><time>2026-03-30T12:28:10.999Z</time></trkpt><trkpt lat="45.361335468737046" lon="10.588054497625315"><ele>157.0</ele><time>2026-03-30T12:28:11.999Z</time></trkpt><trkpt lat="45.361280010698444" lon="10.587920335575992"><ele>157.0</ele><time>2026-03-30T12:28:12.999Z</time></trkpt><trkpt lat="45.36122954529405" lon="10.587793249436583"><ele>157.0</ele><time>2026-03-30T12:28:13.999Z</time></trkpt><trkpt lat="45.36119621913628" lon="10.587646769288224"><ele>155.5</ele><time>2026-03-30T12:28:14.999Z</time></trkpt><trkpt lat="45.3611806816495" lon="10.587432346172331"><ele>154.0</ele><time>2026-03-30T12:28:15.999Z</time></trkpt><trkpt lat="45.36116479055964" lon="10.587221867723082"><ele>152.5</ele><time>2026-03-30T12:28:16.999Z</time></trkpt><trkpt lat="45.36114522680652" lon="10.587021183144614"><ele>151.0</ele><time>2026-03-30T12:28:17.999Z</time></trkpt><trkpt lat="45.361116161047015" lon="10.586850460229819"><ele>151.0</ele><time>2026-03-30T12:28:18.999Z</time></trkpt><trkpt lat="45.36109315078654" lon="10.586695856587596"><ele>151.0</ele><time>2026-03-30T12:28:19.999Z</time></trkpt><trkpt lat="45.36106666967777" lon="10.586552223866555"><ele>151.0</ele><time>2026-03-30T12:28:20.999Z</time></trkpt><trkpt lat="45.36105897792497" lon="10.586412167893531"><ele>151.0</ele><time>2026-03-30T12:28:21.999Z</time></trkpt><trkpt lat="45.36105826914122" lon="10.586265442707116"><ele>151.0</ele><time>2026-03-30T12:28:22.999Z</time></trkpt><trkpt lat="45.3610638389962" lon="10.586088340657753"><ele>152.0</ele><time>2026-03-30T12:28:23.999Z</time></trkpt><trkpt lat="45.36108104461128" lon="10.585907363635268"><ele>153.0</ele><time>2026-03-30T12:28:24.999Z</time></trkpt><trkpt lat="45.36109664417402" lon="10.585735408758419"><ele>154.0</ele><time>2026-03-30T12:28:25.999Z</time></trkpt><trkpt lat="45.36111763733564" lon="10.585586400610337"><ele>155.0</ele><time>2026-03-30T12:28:26.999Z</time></trkpt><trkpt lat="45.36114413250013" lon="10.585471228577283"><ele>156.0</ele><time>2026-03-30T12:28:27.999Z</time></trkpt><trkpt lat="45.361146190564796" lon="10.585370975867766"><ele>156.4</ele><time>2026-03-30T12:28:28.999Z</time></trkpt><trkpt lat="45.36111517901828" lon="10.585291537224323"><ele>156.8</ele><time>2026-03-30T12:28:29.999Z</time></trkpt><trkpt lat="45.36105668549782" lon="10.585239120893885"><ele>157.20000000000002</ele><time>2026-03-30T12:28:30.999Z</time></trkpt><trkpt lat="45.36097595394516" lon="10.585205665173593"><ele>157.6</ele><time>2026-03-30T12:28:31.999Z</time></trkpt><trkpt lat="45.3608657707696" lon="10.585172195905034"><ele>158.0</ele><time>2026-03-30T12:28:32.999Z</time></trkpt><trkpt lat="45.360747337404476" lon="10.585128672474035"><ele>158.0</ele><time>2026-03-30T12:28:33.999Z</time></trkpt><trkpt lat="45.36063014806536" lon="10.585106700996699"><ele>158.0</ele><time>2026-03-30T12:28:34.999Z</time></trkpt><trkpt lat="45.360571259693764" lon="10.585048452770941"><ele>158.0</ele><time>2026-03-30T12:28:36.999Z</time></trkpt><trkpt lat="45.36060146246201" lon="10.584918915507034"><ele>158.0</ele><time>2026-03-30T12:28:41.999Z</time></trkpt><trkpt lat="45.360648696634826" lon="10.58480205168601"><ele>158.0</ele><time>2026-03-30T12:28:43.999Z</time></trkpt><trkpt lat="45.36069239797402" lon="10.584672171731656"><ele>158.0</ele><time>2026-03-30T12:28:45.998Z</time></trkpt><trkpt lat="45.36073493050269" lon="10.58452340982396"><ele>158.0</ele><time>2026-03-30T12:28:47.998Z</time></trkpt><trkpt lat="45.36075004542337" lon="10.584434972088358"><ele>158.0</ele><time>2026-03-30T12:28:48.998Z</time></trkpt><trkpt lat="45.360763947894725" lon="10.584342833688787"><ele>158.0</ele><time>2026-03-30T12:28:49.998Z</time></trkpt><trkpt lat="45.360766339168045" lon="10.584242261372378"><ele>158.0</ele><time>2026-03-30T12:28:50.998Z</time></trkpt><trkpt lat="45.36076512641763" lon="10.584134279726186"><ele>158.0</ele><time>2026-03-30T12:28:51.998Z</time></trkpt><trkpt lat="45.360760546328294" lon="10.584019867610643"><ele>158.0</ele><time>2026-03-30T12:28:52.998Z</time></trkpt><trkpt lat="45.36075894131393" lon="10.58390671597863"><ele>158.0</ele><time>2026-03-30T12:28:53.998Z</time></trkpt><trkpt lat="45.36075975288799" lon="10.583800252580382"><ele>158.0</ele><time>2026-03-30T12:28:54.998Z</time></trkpt><trkpt lat="45.36076860500216" lon="10.583683171632988"><ele>158.0</ele><time>2026-03-30T12:28:55.998Z</time></trkpt><trkpt lat="45.36078856660307" lon="10.58356754198137"><ele>158.0</ele><time>2026-03-30T12:28:56.998Z</time></trkpt><trkpt lat="45.360803843689915" lon="10.58347259563499"><ele>158.0</ele><time>2026-03-30T12:28:57.998Z</time></trkpt><trkpt lat="45.360798029789585" lon="10.583371384414384"><ele>157.83333333333331</ele><time>2026-03-30T12:28:58.998Z</time></trkpt><trkpt lat="45.36078915215758" lon="10.583282224013352"><ele>157.66666666666666</ele><time>2026-03-30T12:28:59.998Z</time></trkpt><trkpt lat="45.36074932008203" lon="10.583206571012626"><ele>157.5</ele><time>2026-03-30T12:29:00.998Z</time></trkpt><trkpt lat="45.360680297873" lon="10.583141040772922"><ele>157.33333333333334</ele><time>2026-03-30T12:29:01.998Z</time></trkpt><trkpt lat="45.36057226448711" lon="10.58309467548918"><ele>157.16666666666669</ele><time>2026-03-30T12:29:02.998Z</time></trkpt><trkpt lat="45.36047544621321" lon="10.583048910776519"><ele>157.0</ele><time>2026-03-30T12:29:03.998Z</time></trkpt><trkpt lat="45.360397296029184" lon="10.583002526227029"><ele>155.16666666666669</ele><time>2026-03-30T12:29:04.998Z</time></trkpt><trkpt lat="45.36034450767565" lon="10.58294653647122"><ele>153.33333333333334</ele><time>2026-03-30T12:29:05.998Z</time></trkpt><trkpt lat="45.36030360665877" lon="10.58286473029846"><ele>151.5</ele><time>2026-03-30T12:29:06.998Z</time></trkpt><trkpt lat="45.36029670867009" lon="10.582758909702758"><ele>149.66666666666666</ele><time>2026-03-30T12:29:07.998Z</time></trkpt><trkpt lat="45.360285526193685" lon="10.58262546010208"><ele>147.83333333333331</ele><time>2026-03-30T12:29:08.998Z</time></trkpt><trkpt lat="45.3602970261502" lon="10.5825160213277"><ele>146.0</ele><time>2026-03-30T12:29:10Z</time></trkpt><trkpt lat="45.3603396769822" lon="10.582348810665216"><ele>146.0</ele><time>2026-03-30T12:29:12Z</time></trkpt><trkpt lat="45.3604178653579" lon="10.582185181940849"><ele>146.0</ele><time>2026-03-30T12:29:14Z</time></trkpt><trkpt lat="45.36050899030941" lon="10.58206253386954"><ele>146.0</ele><time>2026-03-30T12:29:15Z</time></trkpt><trkpt lat="45.36060757402415" lon="10.581924075500424"><ele>146.0</ele><time>2026-03-30T12:29:16Z</time></trkpt><trkpt lat="45.36070565252644" lon="10.581758102678197"><ele>146.0</ele><time>2026-03-30T12:29:17Z</time></trkpt><trkpt lat="45.36078021383005" lon="10.58161493793291"><ele>146.0</ele><time>2026-03-30T12:29:18Z</time></trkpt><trkpt lat="45.36082375699607" lon="10.581493752974692"><ele>146.0</ele><time>2026-03-30T12:29:19Z</time></trkpt><trkpt lat="45.360854665938895" lon="10.581385434382998"><ele>146.0</ele><time>2026-03-30T12:29:20Z</time></trkpt><trkpt lat="45.36086894395636" lon="10.58127366374116"><ele>146.0</ele><time>2026-03-30T12:29:21Z</time></trkpt><trkpt lat="45.360872074166465" lon="10.581181078377137"><ele>146.0</ele><time>2026-03-30T12:29:22Z</time></trkpt><trkpt lat="45.36088866403738" lon="10.580989803043416"><ele>146.0</ele><time>2026-03-30T12:29:24Z</time></trkpt><trkpt lat="45.36089931707351" lon="10.580889316736563"><ele>146.0</ele><time>2026-03-30T12:29:25Z</time></trkpt><trkpt lat="45.360890507132865" lon="10.580780223262074"><ele>146.0</ele><time>2026-03-30T12:29:26Z</time></trkpt><trkpt lat="45.360876265457755" lon="10.58064631378492"><ele>146.0</ele><time>2026-03-30T12:29:27Z</time></trkpt><trkpt lat="45.36085006681929" lon="10.580553207049965"><ele>146.0</ele><time>2026-03-30T12:29:28Z</time></trkpt><trkpt lat="45.3608178223328" lon="10.580466187889726"><ele>146.0</ele><time>2026-03-30T12:29:29Z</time></trkpt><trkpt lat="45.36084398176146" lon="10.580332471602167"><ele>146.33333333333331</ele><time>2026-03-30T12:29:31Z</time></trkpt><trkpt lat="45.360871680271636" lon="10.58023638781572"><ele>146.66666666666666</ele><time>2026-03-30T12:29:32Z</time></trkpt><trkpt lat="45.360908354725986" lon="10.580160650999085"><ele>147.0</ele><time>2026-03-30T12:29:33Z</time></trkpt><trkpt lat="45.360985714741574" lon="10.580115852292588"><ele>147.33333333333334</ele><time>2026-03-30T12:29:34Z</time></trkpt><trkpt lat="45.36103874642513" lon="10.58003162598736"><ele>147.66666666666669</ele><time>2026-03-30T12:29:35Z</time></trkpt><trkpt lat="45.36113623989404" lon="10.579997502280179"><ele>148.0</ele><time>2026-03-30T12:29:37Z</time></trkpt><trkpt lat="45.361242107319576" lon="10.580134893408944"><ele>148.0</ele><time>2026-03-30T12:29:39Z</time></trkpt><trkpt lat="45.36129260665153" lon="10.58024357753469"><ele>148.0</ele><time>2026-03-30T12:29:39.999Z</time></trkpt><trkpt lat="45.36138088121976" lon="10.580345725095395"><ele>148.0</ele><time>2026-03-30T12:29:40.999Z</time></trkpt><trkpt lat="45.361445844513476" lon="10.580399089241405"><ele>148.0</ele><time>2026-03-30T12:29:41.999Z</time></trkpt><trkpt lat="45.36151537082576" lon="10.580463031917693"><ele>148.0</ele><time>2026-03-30T12:29:42.999Z</time></trkpt><trkpt lat="45.361579754564545" lon="10.580526439684087"><ele>148.0</ele><time>2026-03-30T12:29:43.999Z</time></trkpt><trkpt lat="45.36168983539677" lon="10.58063485185893"><ele>149.0</ele><time>2026-03-30T12:29:44.999Z</time></trkpt><trkpt lat="45.361812286278756" lon="10.58074755760581"><ele>150.0</ele><time>2026-03-30T12:29:45.999Z</time></trkpt><trkpt lat="45.3619420211625" lon="10.580866546854873"><ele>151.0</ele><time>2026-03-30T12:29:46.999Z</time></trkpt><trkpt lat="45.36205201077758" lon="10.580969037177708"><ele>152.0</ele><time>2026-03-30T12:29:47.999Z</time></trkpt><trkpt lat="45.36215088466909" lon="10.58105576092263"><ele>150.75</ele><time>2026-03-30T12:29:48.999Z</time></trkpt><trkpt lat="45.36223199212702" lon="10.58112318821793"><ele>149.5</ele><time>2026-03-30T12:29:49.999Z</time></trkpt><trkpt lat="45.36229829145439" lon="10.581176308354689"><ele>148.25</ele><time>2026-03-30T12:29:50.999Z</time></trkpt><trkpt lat="45.36235055094767" lon="10.581228927845064"><ele>147.0</ele><time>2026-03-30T12:29:51.999Z</time></trkpt><trkpt lat="45.362178534186945" lon="10.582035486344054"><ele>147.75</ele><time>2026-03-30T12:29:53.999Z</time></trkpt><trkpt lat="45.36216369299746" lon="10.582245552456026"><ele>148.5</ele><time>2026-03-30T12:29:54.999Z</time></trkpt><trkpt lat="45.36216165163909" lon="10.582454625285719"><ele>149.25</ele><time>2026-03-30T12:29:55.999Z</time></trkpt><trkpt lat="45.362166143995964" lon="10.58266164355182"><ele>150.0</ele><time>2026-03-30T12:29:56.999Z</time></trkpt><trkpt lat="45.36220251814234" lon="10.582863691319329"><ele>150.0</ele><time>2026-03-30T12:29:57.999Z</time></trkpt><trkpt lat="45.36225203076286" lon="10.583092884663946"><ele>150.0</ele><time>2026-03-30T12:29:58.999Z</time></trkpt><trkpt lat="45.3622849070637" lon="10.583295655240335"><ele>150.0</ele><time>2026-03-30T12:29:59.999Z</time></trkpt><trkpt lat="45.36231574646303" lon="10.583501286747216"><ele>150.0</ele><time>2026-03-30T12:30:00.999Z</time></trkpt><trkpt lat="45.362350502428754" lon="10.58368019865698"><ele>150.0</ele><time>2026-03-30T12:30:01.999Z</time></trkpt><trkpt lat="45.3623706363585" lon="10.58386366683706"><ele>150.0</ele><time>2026-03-30T12:30:02.999Z</time></trkpt><trkpt lat="45.36238206457628" lon="10.58404778249197"><ele>150.0</ele><time>2026-03-30T12:30:03.999Z</time></trkpt><trkpt lat="45.362388860757235" lon="10.584207862377978"><ele>150.6</ele><time>2026-03-30T12:30:04.999Z</time></trkpt><trkpt lat="45.36239613760123" lon="10.584352239184092"><ele>151.2</ele><time>2026-03-30T12:30:05.999Z</time></trkpt><trkpt lat="45.36240517822395" lon="10.584467082801273"><ele>151.8</ele><time>2026-03-30T12:30:06.999Z</time></trkpt><trkpt lat="45.36244781470682" lon="10.584588418692789"><ele>152.4</ele><time>2026-03-30T12:30:07.999Z</time></trkpt><trkpt lat="45.362506837013626" lon="10.584713858119185"><ele>153.0</ele><time>2026-03-30T12:30:08.999Z</time></trkpt><trkpt lat="45.362576369990855" lon="10.58482014412273"><ele>153.0</ele><time>2026-03-30T12:30:09.999Z</time></trkpt><trkpt lat="45.362617851379774" lon="10.584936281759328"><ele>153.0</ele><time>2026-03-30T12:30:10.999Z</time></trkpt><trkpt lat="45.362620961714754" lon="10.58505074772274"><ele>153.0</ele><time>2026-03-30T12:30:11.999Z</time></trkpt><trkpt lat="45.36260475157682" lon="10.585172036742538"><ele>153.0</ele><time>2026-03-30T12:30:12.999Z</time></trkpt><trkpt lat="45.36255807970616" lon="10.585277199809708"><ele>153.0</ele><time>2026-03-30T12:30:13.999Z</time></trkpt><trkpt lat="45.36249788496827" lon="10.585395148382023"><ele>153.0</ele><time>2026-03-30T12:30:14.999Z</time></trkpt><trkpt lat="45.36245182020745" lon="10.58553289493079"><ele>153.0</ele><time>2026-03-30T12:30:15.999Z</time></trkpt><trkpt lat="45.36245689324784" lon="10.585677149227985"><ele>153.0</ele><time>2026-03-30T12:30:16.999Z</time></trkpt><trkpt lat="45.36248861367548" lon="10.58582704997725"><ele>153.0</ele><time>2026-03-30T12:30:17.999Z</time></trkpt><trkpt lat="45.36254704818743" lon="10.585958336551277"><ele>153.0</ele><time>2026-03-30T12:30:18.999Z</time></trkpt><trkpt lat="45.36257875170954" lon="10.586078355393083"><ele>153.0</ele><time>2026-03-30T12:30:19.999Z</time></trkpt><trkpt lat="45.362575358942415" lon="10.586207928399382"><ele>153.4</ele><time>2026-03-30T12:30:20.999Z</time></trkpt><trkpt lat="45.36257388646128" lon="10.58635091272148"><ele>153.8</ele><time>2026-03-30T12:30:21.999Z</time></trkpt><trkpt lat="45.362580186309344" lon="10.58648169410046"><ele>154.2</ele><time>2026-03-30T12:30:22.999Z</time></trkpt><trkpt lat="45.36258191472541" lon="10.586592328446491"><ele>154.6</ele><time>2026-03-30T12:30:23.999Z</time></trkpt><trkpt lat="45.36259720913781" lon="10.586706753870523"><ele>155.0</ele><time>2026-03-30T12:30:25.999Z</time></trkpt><trkpt lat="45.362704020246795" lon="10.586774347286433"><ele>155.0</ele><time>2026-03-30T12:30:27.999Z</time></trkpt><trkpt lat="45.3627832891164" lon="10.58680470736729"><ele>155.0</ele><time>2026-03-30T12:30:28.999Z</time></trkpt><trkpt lat="45.3628542759554" lon="10.586820430525194"><ele>155.0</ele><time>2026-03-30T12:30:29.999Z</time></trkpt><trkpt lat="45.36293261534712" lon="10.586837367220978"><ele>155.0</ele><time>2026-03-30T12:30:30.999Z</time></trkpt><trkpt lat="45.36302165820192" lon="10.586833204090258"><ele>155.0</ele><time>2026-03-30T12:30:31.999Z</time></trkpt><trkpt lat="45.36313490045107" lon="10.586806752646366"><ele>155.0</ele><time>2026-03-30T12:30:32.999Z</time></trkpt><trkpt lat="45.363231650028595" lon="10.58679285525606"><ele>154.33333333333331</ele><time>2026-03-30T12:30:33.999Z</time></trkpt><trkpt lat="45.363323244286214" lon="10.58679175330136"><ele>153.66666666666666</ele><time>2026-03-30T12:30:34.999Z</time></trkpt><trkpt lat="45.36339139304202" lon="10.586806050426114"><ele>153.0</ele><time>2026-03-30T12:30:35.999Z</time></trkpt><trkpt lat="45.363473484818996" lon="10.586867608762052"><ele>152.33333333333334</ele><time>2026-03-30T12:30:37.999Z</time></trkpt><trkpt lat="45.36352590950254" lon="10.5869480584121"><ele>151.66666666666669</ele><time>2026-03-30T12:30:39.999Z</time></trkpt><trkpt lat="45.36353631066949" lon="10.58703967519184"><ele>151.0</ele><time>2026-03-30T12:30:42.999Z</time></trkpt><trkpt lat="45.36354408905118" lon="10.587161213860393"><ele>151.0</ele><time>2026-03-30T12:30:44.999Z</time></trkpt><trkpt lat="45.36355626240357" lon="10.587344218167438"><ele>151.0</ele><time>2026-03-30T12:30:46.999Z</time></trkpt><trkpt lat="45.36354463910244" lon="10.587446528711222"><ele>151.0</ele><time>2026-03-30T12:30:47.999Z</time></trkpt><trkpt lat="45.36354613986251" lon="10.587565154365887"><ele>151.0</ele><time>2026-03-30T12:30:48.999Z</time></trkpt><trkpt lat="45.363569218261574" lon="10.587676071671142"><ele>151.0</ele><time>2026-03-30T12:30:49.999Z</time></trkpt><trkpt lat="45.363612267684964" lon="10.587766897406253"><ele>151.0</ele><time>2026-03-30T12:30:50.999Z</time></trkpt><trkpt lat="45.36368141951191" lon="10.587845533499856"><ele>150.5</ele><time>2026-03-30T12:30:51.998Z</time></trkpt><trkpt lat="45.36377220472485" lon="10.587905344855727"><ele>150.0</ele><time>2026-03-30T12:30:52.998Z</time></trkpt><trkpt lat="45.363891891896735" lon="10.587980487507222"><ele>149.5</ele><time>2026-03-30T12:30:53.998Z</time></trkpt><trkpt lat="45.364009553397345" lon="10.588054175149745"><ele>149.0</ele><time>2026-03-30T12:30:54.998Z</time></trkpt><trkpt lat="45.36414306759735" lon="10.588111098594599"><ele>146.25</ele><time>2026-03-30T12:30:55.998Z</time></trkpt><trkpt lat="45.36425920649401" lon="10.58816063826782"><ele>143.5</ele><time>2026-03-30T12:30:56.998Z</time></trkpt><trkpt lat="45.36436531662214" lon="10.588209022501882"><ele>140.75</ele><time>2026-03-30T12:30:57.998Z</time></trkpt><trkpt lat="45.36449182011889" lon="10.58826653201717"><ele>138.0</ele><time>2026-03-30T12:30:58.998Z</time></trkpt><trkpt lat="45.364660176600545" lon="10.588339528126928"><ele>138.5</ele><time>2026-03-30T12:30:59.998Z</time></trkpt><trkpt lat="45.36480997902018" lon="10.588405890505856"><ele>139.0</ele><time>2026-03-30T12:31:00.998Z</time></trkpt><trkpt lat="45.364947654365686" lon="10.588451087006288"><ele>139.5</ele><time>2026-03-30T12:31:01.998Z</time></trkpt><trkpt lat="45.36509075157799" lon="10.58848635950423"><ele>140.0</ele><time>2026-03-30T12:31:02.998Z</time></trkpt><trkpt lat="45.365241210937306" lon="10.588467818936337"><ele>140.0</ele><time>2026-03-30T12:31:03.998Z</time></trkpt><trkpt lat="45.365415059911996" lon="10.58843343350611"><ele>140.0</ele><time>2026-03-30T12:31:04.998Z</time></trkpt><trkpt lat="45.365572298198494" lon="10.588401886536095"><ele>140.0</ele><time>2026-03-30T12:31:05.998Z</time></trkpt><trkpt lat="45.36570146538536" lon="10.588386341394097"><ele>140.5</ele><time>2026-03-30T12:31:06.998Z</time></trkpt><trkpt lat="45.365814928621944" lon="10.588412944607546"><ele>141.0</ele><time>2026-03-30T12:31:07.998Z</time></trkpt><trkpt lat="45.36591557374938" lon="10.588472907887336"><ele>141.5</ele><time>2026-03-30T12:31:08.998Z</time></trkpt><trkpt lat="45.36599569056937" lon="10.588507685347063"><ele>142.0</ele><time>2026-03-30T12:31:09.998Z</time></trkpt><trkpt lat="45.36605972744367" lon="10.5885260311713"><ele>142.5</ele><time>2026-03-30T12:31:10.998Z</time></trkpt><trkpt lat="45.36612675626539" lon="10.588554791916934"><ele>143.0</ele><time>2026-03-30T12:31:12.998Z</time></trkpt><trkpt lat="45.36611696357072" lon="10.588671362100797"><ele>143.20000000000002</ele><time>2026-03-30T12:31:16Z</time></trkpt><trkpt lat="45.366082456743335" lon="10.588750448447344"><ele>143.4</ele><time>2026-03-30T12:31:17Z</time></trkpt><trkpt lat="45.36603794621057" lon="10.588851121353345"><ele>143.60000000000002</ele><time>2026-03-30T12:31:18Z</time></trkpt><trkpt lat="45.366003062934794" lon="10.589002086302493"><ele>143.8</ele><time>2026-03-30T12:31:19Z</time></trkpt><trkpt lat="45.36596102163516" lon="10.58921287915679"><ele>144.0</ele><time>2026-03-30T12:31:20Z</time></trkpt><trkpt lat="45.36592314200996" lon="10.5894403378959"><ele>144.0</ele><time>2026-03-30T12:31:21Z</time></trkpt><trkpt lat="45.36588358694308" lon="10.589687270338496"><ele>144.0</ele><time>2026-03-30T12:31:22Z</time></trkpt><trkpt lat="45.365842650491935" lon="10.58992542661086"><ele>144.0</ele><time>2026-03-30T12:31:23Z</time></trkpt><trkpt lat="45.36579911387154" lon="10.590190455312554"><ele>144.0</ele><time>2026-03-30T12:31:24Z</time></trkpt><trkpt lat="45.365760601470875" lon="10.590450585215324"><ele>144.0</ele><time>2026-03-30T12:31:25Z</time></trkpt><trkpt lat="45.365742606590125" lon="10.590644886978096"><ele>144.0</ele><time>2026-03-30T12:31:26Z</time></trkpt><trkpt lat="45.36571277335801" lon="10.590859135357944"><ele>144.0</ele><time>2026-03-30T12:31:27Z</time></trkpt><trkpt lat="45.36568286747687" lon="10.591086520640552"><ele>144.0</ele><time>2026-03-30T12:31:28Z</time></trkpt><trkpt lat="45.36565537522105" lon="10.591276109281399"><ele>144.0</ele><time>2026-03-30T12:31:29Z</time></trkpt><trkpt lat="45.36563570187112" lon="10.591423255796967"><ele>144.0</ele><time>2026-03-30T12:31:30Z</time></trkpt><trkpt lat="45.365599234001" lon="10.591584987742202"><ele>144.0</ele><time>2026-03-30T12:31:31Z</time></trkpt><trkpt lat="45.36558025489255" lon="10.591712198422366"><ele>144.0</ele><time>2026-03-30T12:31:32Z</time></trkpt><trkpt lat="45.36555747814646" lon="10.591819634185136"><ele>144.0</ele><time>2026-03-30T12:31:34Z</time></trkpt><trkpt lat="45.3655381360229" lon="10.591952804987267"><ele>144.0</ele><time>2026-03-30T12:31:37Z</time></trkpt><trkpt lat="45.36553356223459" lon="10.592117559973106"><ele>144.0</ele><time>2026-03-30T12:31:39Z</time></trkpt><trkpt lat="45.36554088919993" lon="10.592251597259335"><ele>144.0</ele><time>2026-03-30T12:31:41Z</time></trkpt><trkpt lat="45.36553975213368" lon="10.592381566116966"><ele>144.0</ele><time>2026-03-30T12:31:43Z</time></trkpt><trkpt lat="45.36553821255573" lon="10.592571973378629"><ele>144.0</ele><time>2026-03-30T12:31:45Z</time></trkpt><trkpt lat="45.3655332578182" lon="10.592690428588144"><ele>144.0</ele><time>2026-03-30T12:31:45.999Z</time></trkpt><trkpt lat="45.365520760490305" lon="10.59279523298939"><ele>144.0</ele><time>2026-03-30T12:31:46.999Z</time></trkpt><trkpt lat="45.36551079360839" lon="10.592922096517094"><ele>144.0</ele><time>2026-03-30T12:31:48.999Z</time></trkpt><trkpt lat="45.36559630473008" lon="10.592963492361754"><ele>144.0</ele><time>2026-03-30T12:31:51.999Z</time></trkpt><trkpt lat="45.365679740090975" lon="10.592827207908268"><ele>144.0</ele><time>2026-03-30T12:31:53.999Z</time></trkpt><trkpt lat="45.36571120230216" lon="10.592686653533482"><ele>144.0</ele><time>2026-03-30T12:31:54.999Z</time></trkpt><trkpt lat="45.36573267340556" lon="10.592527658751008"><ele>144.0</ele><time>2026-03-30T12:31:55.999Z</time></trkpt><trkpt lat="45.36575929957278" lon="10.592325382721125"><ele>144.0</ele><time>2026-03-30T12:31:56.999Z</time></trkpt><trkpt lat="45.36579706941326" lon="10.592109374250548"><ele>144.0</ele><time>2026-03-30T12:31:57.999Z</time></trkpt><trkpt lat="45.365830110796466" lon="10.591881782783052"><ele>144.0</ele><time>2026-03-30T12:31:58.999Z</time></trkpt><trkpt lat="45.36586940932093" lon="10.591601300086447"><ele>144.0</ele><time>2026-03-30T12:31:59.999Z</time></trkpt><trkpt lat="45.36590910411463" lon="10.591341744163806"><ele>144.0</ele><time>2026-03-30T12:32:00.999Z</time></trkpt><trkpt lat="45.36594050836972" lon="10.591111992782446"><ele>144.0</ele><time>2026-03-30T12:32:01.999Z</time></trkpt><trkpt lat="45.36596817007964" lon="10.59090356703034"><ele>144.0</ele><time>2026-03-30T12:32:02.999Z</time></trkpt><trkpt lat="45.365993227161674" lon="10.590718450587788"><ele>144.0</ele><time>2026-03-30T12:32:03.999Z</time></trkpt><trkpt lat="45.36601407734166" lon="10.590561696098321"><ele>144.0</ele><time>2026-03-30T12:32:04.999Z</time></trkpt><trkpt lat="45.366032356448926" lon="10.590442490540584"><ele>144.0</ele><time>2026-03-30T12:32:05.999Z</time></trkpt><trkpt lat="45.366094814669225" lon="10.590350698802498"><ele>144.0</ele><time>2026-03-30T12:32:07.999Z</time></trkpt><trkpt lat="45.366183977424825" lon="10.590298209035263"><ele>144.0</ele><time>2026-03-30T12:32:09.999Z</time></trkpt><trkpt lat="45.366213470210226" lon="10.590191850603142"><ele>144.0</ele><time>2026-03-30T12:32:10.999Z</time></trkpt><trkpt lat="45.36622414727523" lon="10.59010108297063"><ele>144.0</ele><time>2026-03-30T12:32:11.999Z</time></trkpt><trkpt lat="45.36624219055517" lon="10.590009126675437"><ele>144.0</ele><time>2026-03-30T12:32:12.999Z</time></trkpt><trkpt lat="45.36632994888251" lon="10.589914926238231"><ele>144.0</ele><time>2026-03-30T12:32:14.999Z</time></trkpt><trkpt lat="45.36645714158884" lon="10.58993895839604"><ele>144.6</ele><time>2026-03-30T12:32:16.999Z</time></trkpt><trkpt lat="45.36654013535566" lon="10.589961732657365"><ele>145.2</ele><time>2026-03-30T12:32:17.999Z</time></trkpt><trkpt lat="45.366625721440684" lon="10.589984853692789"><ele>145.79999999999998</ele><time>2026-03-30T12:32:18.999Z</time></trkpt><trkpt lat="45.3667226262809" lon="10.590012811770373"><ele>146.4</ele><time>2026-03-30T12:32:19.999Z</time></trkpt><trkpt lat="45.366832222011425" lon="10.590043535305407"><ele>147.0</ele><time>2026-03-30T12:32:20.999Z</time></trkpt><trkpt lat="45.36693611420284" lon="10.590077574212975"><ele>147.0</ele><time>2026-03-30T12:32:21.999Z</time></trkpt><trkpt lat="45.36703534942781" lon="10.590104688167122"><ele>147.0</ele><time>2026-03-30T12:32:22.999Z</time></trkpt><trkpt lat="45.36712416003486" lon="10.590134336199513"><ele>147.0</ele><time>2026-03-30T12:32:23.999Z</time></trkpt><trkpt lat="45.3672132182851" lon="10.590168977022161"><ele>147.0</ele><time>2026-03-30T12:32:24.999Z</time></trkpt><trkpt lat="45.36730932985457" lon="10.590200099551046"><ele>147.0</ele><time>2026-03-30T12:32:25.999Z</time></trkpt><trkpt lat="45.36739195964684" lon="10.590205155099694"><ele>147.4</ele><time>2026-03-30T12:32:26.999Z</time></trkpt><trkpt lat="45.36746449085439" lon="10.590214156007614"><ele>147.79999999999998</ele><time>2026-03-30T12:32:27.999Z</time></trkpt><trkpt lat="45.367533049487584" lon="10.590233316166882"><ele>148.2</ele><time>2026-03-30T12:32:28.999Z</time></trkpt><trkpt lat="45.367641334309866" lon="10.590290958405573"><ele>148.6</ele><time>2026-03-30T12:32:30.999Z</time></trkpt><trkpt lat="45.36771122570904" lon="10.590443835442215"><ele>149.0</ele><time>2026-03-30T12:32:32.999Z</time></trkpt><trkpt lat="45.36774812002833" lon="10.590521476481701"><ele>149.42857142857142</ele><time>2026-03-30T12:32:33.999Z</time></trkpt><trkpt lat="45.36781560981338" lon="10.590546546879843"><ele>149.85714285714283</ele><time>2026-03-30T12:32:34.999Z</time></trkpt><trkpt lat="45.36789321072802" lon="10.590530749168833"><ele>150.28571428571428</ele><time>2026-03-30T12:32:35.999Z</time></trkpt><trkpt lat="45.36796853178552" lon="10.590494433097824"><ele>150.71428571428572</ele><time>2026-03-30T12:32:36.999Z</time></trkpt><trkpt lat="45.36803896579562" lon="10.590470272646979"><ele>151.14285714285717</ele><time>2026-03-30T12:32:37.999Z</time></trkpt><trkpt lat="45.368106209011806" lon="10.59046650175033"><ele>151.57142857142856</ele><time>2026-03-30T12:32:38.999Z</time></trkpt><trkpt lat="45.36816867895277" lon="10.590479978901115"><ele>152.0</ele><time>2026-03-30T12:32:39.999Z</time></trkpt><trkpt lat="45.36826505727805" lon="10.590500839276576"><ele>151.0</ele><time>2026-03-30T12:32:41.999Z</time></trkpt><trkpt lat="45.368340559230724" lon="10.590506584050894"><ele>150.0</ele><time>2026-03-30T12:32:43.999Z</time></trkpt><trkpt lat="45.368399256242576" lon="10.59057394734841"><ele>149.0</ele><time>2026-03-30T12:32:46.999Z</time></trkpt><trkpt lat="45.368400349505166" lon="10.590718727227854"><ele>148.0</ele><time>2026-03-30T12:32:48.999Z</time></trkpt><trkpt lat="45.36837631916988" lon="10.59082951121427"><ele>147.0</ele><time>2026-03-30T12:32:49.999Z</time></trkpt><trkpt lat="45.36835504914963" lon="10.590944771592001"><ele>146.0</ele><time>2026-03-30T12:32:50.999Z</time></trkpt><trkpt lat="45.36833403532953" lon="10.59107069637959"><ele>146.25</ele><time>2026-03-30T12:32:51.999Z</time></trkpt><trkpt lat="45.36831557003989" lon="10.591215642846286"><ele>146.5</ele><time>2026-03-30T12:32:52.999Z</time></trkpt><trkpt lat="45.368294361959215" lon="10.591380909213157"><ele>146.75</ele><time>2026-03-30T12:32:53.999Z</time></trkpt><trkpt lat="45.36826881664213" lon="10.591554044498684"><ele>147.0</ele><time>2026-03-30T12:32:54.999Z</time></trkpt><trkpt lat="45.36823844070118" lon="10.59171609027254"><ele>147.0</ele><time>2026-03-30T12:32:55.999Z</time></trkpt><trkpt lat="45.3682215048475" lon="10.59186557837376"><ele>147.0</ele><time>2026-03-30T12:32:56.998Z</time></trkpt><trkpt lat="45.36820833881703" lon="10.592015192886178"><ele>147.0</ele><time>2026-03-30T12:32:57.998Z</time></trkpt><trkpt lat="45.36818435852878" lon="10.59216992726567"><ele>147.0</ele><time>2026-03-30T12:32:58.998Z</time></trkpt><trkpt lat="45.36815954475226" lon="10.592310691635467"><ele>147.0</ele><time>2026-03-30T12:32:59.998Z</time></trkpt><trkpt lat="45.368133613666814" lon="10.59244568642076"><ele>147.0</ele><time>2026-03-30T12:33:00.998Z</time></trkpt><trkpt lat="45.368116548030684" lon="10.592587346885955"><ele>147.0</ele><time>2026-03-30T12:33:01.998Z</time></trkpt><trkpt lat="45.368097374021026" lon="10.592733986591384"><ele>147.0</ele><time>2026-03-30T12:33:02.998Z</time></trkpt><trkpt lat="45.368094871192774" lon="10.592855107047958"><ele>147.0</ele><time>2026-03-30T12:33:03.998Z</time></trkpt><trkpt lat="45.368091814020225" lon="10.592946521145818"><ele>147.0</ele><time>2026-03-30T12:33:04.998Z</time></trkpt><trkpt lat="45.36808597145622" lon="10.593055330428376"><ele>147.0</ele><time>2026-03-30T12:33:05.998Z</time></trkpt><trkpt lat="45.36811435950838" lon="10.593179730536459"><ele>147.0</ele><time>2026-03-30T12:33:07.998Z</time></trkpt><trkpt lat="45.36820850275417" lon="10.59324511630452"><ele>147.0</ele><time>2026-03-30T12:33:09.998Z</time></trkpt><trkpt lat="45.36827517356443" lon="10.593249529161286"><ele>147.0</ele><time>2026-03-30T12:33:10.998Z</time></trkpt><trkpt lat="45.36838757443963" lon="10.593240621013912"><ele>147.0</ele><time>2026-03-30T12:33:12.998Z</time></trkpt><trkpt lat="45.36845170232459" lon="10.593249134357368"><ele>147.0</ele><time>2026-03-30T12:33:13.998Z</time></trkpt><trkpt lat="45.36856163822776" lon="10.59329216083765"><ele>147.0</ele><time>2026-03-30T12:33:15.998Z</time></trkpt><trkpt lat="45.36864414084077" lon="10.593433809566598"><ele>147.0</ele><time>2026-03-30T12:33:17.998Z</time></trkpt><trkpt lat="45.36867904934587" lon="10.593549246350918"><ele>147.0</ele><time>2026-03-30T12:33:18.998Z</time></trkpt><trkpt lat="45.36872474233071" lon="10.593671680076548"><ele>147.0</ele><time>2026-03-30T12:33:19.998Z</time></trkpt><trkpt lat="45.36877852871789" lon="10.593777459665732"><ele>147.0</ele><time>2026-03-30T12:33:21Z</time></trkpt><trkpt lat="45.368833842763244" lon="10.593886328140405"><ele>144.4</ele><time>2026-03-30T12:33:22Z</time></trkpt><trkpt lat="45.36889375630105" lon="10.593999637443241"><ele>141.79999999999998</ele><time>2026-03-30T12:33:23Z</time></trkpt><trkpt lat="45.36894434685316" lon="10.594104137056872"><ele>139.2</ele><time>2026-03-30T12:33:24Z</time></trkpt><trkpt lat="45.3689756956085" lon="10.594212161974676"><ele>136.6</ele><time>2026-03-30T12:33:25Z</time></trkpt><trkpt lat="45.36899883642998" lon="10.594345691036304"><ele>134.0</ele><time>2026-03-30T12:33:26Z</time></trkpt><trkpt lat="45.36900858361996" lon="10.594478717401723"><ele>133.6</ele><time>2026-03-30T12:33:27Z</time></trkpt><trkpt lat="45.369005531240774" lon="10.594631889423125"><ele>133.2</ele><time>2026-03-30T12:33:28Z</time></trkpt><trkpt lat="45.36899250308681" lon="10.594813258084839"><ele>132.79999999999998</ele><time>2026-03-30T12:33:29Z</time></trkpt><trkpt lat="45.36896160262379" lon="10.594958095064444"><ele>132.4</ele><time>2026-03-30T12:33:30Z</time></trkpt><trkpt lat="45.36894702277475" lon="10.595107976266515"><ele>132.0</ele><time>2026-03-30T12:33:31Z</time></trkpt><trkpt lat="45.368943444472734" lon="10.595262533043442"><ele>132.0</ele><time>2026-03-30T12:33:32Z</time></trkpt><trkpt lat="45.368947380024416" lon="10.595412426359713"><ele>132.0</ele><time>2026-03-30T12:33:33Z</time></trkpt><trkpt lat="45.36897311423043" lon="10.595555383735862"><ele>132.0</ele><time>2026-03-30T12:33:34Z</time></trkpt><trkpt lat="45.36901630510766" lon="10.59568750878058"><ele>132.0</ele><time>2026-03-30T12:33:35Z</time></trkpt><trkpt lat="45.369061404600544" lon="10.595796255242902"><ele>132.0</ele><time>2026-03-30T12:33:36Z</time></trkpt><trkpt lat="45.3691036601604" lon="10.595895849466833"><ele>132.0</ele><time>2026-03-30T12:33:37Z</time></trkpt><trkpt lat="45.369146974818236" lon="10.59599078556075"><ele>132.0</ele><time>2026-03-30T12:33:38Z</time></trkpt><trkpt lat="45.36917960173087" lon="10.596087821654162"><ele>132.0</ele><time>2026-03-30T12:33:39Z</time></trkpt><trkpt lat="45.36920598994776" lon="10.596172038379542"><ele>132.0</ele><time>2026-03-30T12:33:40Z</time></trkpt><trkpt lat="45.36922579540147" lon="10.596261525174528"><ele>132.0</ele><time>2026-03-30T12:33:41Z</time></trkpt><trkpt lat="45.369271770860976" lon="10.596378687546045"><ele>132.0</ele><time>2026-03-30T12:33:43Z</time></trkpt><trkpt lat="45.36934107929261" lon="10.596371802779364"><ele>131.2</ele><time>2026-03-30T12:33:45Z</time></trkpt><trkpt lat="45.36945146327798" lon="10.596350019533396"><ele>130.39999999999998</ele><time>2026-03-30T12:33:47Z</time></trkpt><trkpt lat="45.36956899793185" lon="10.596351055237426"><ele>129.60000000000002</ele><time>2026-03-30T12:33:48.999Z</time></trkpt><trkpt lat="45.36966145127065" lon="10.59633560597998"><ele>128.8</ele><time>2026-03-30T12:33:49.999Z</time></trkpt><trkpt lat="45.369780564102975" lon="10.59627904268198"><ele>128.0</ele><time>2026-03-30T12:33:50.999Z</time></trkpt><trkpt lat="45.36989320609041" lon="10.596212454848839"><ele>126.66666666666666</ele><time>2026-03-30T12:33:51.999Z</time></trkpt><trkpt lat="45.36998712725852" lon="10.596164673373638"><ele>125.33333333333333</ele><time>2026-03-30T12:33:52.999Z</time></trkpt><trkpt lat="45.370059059106566" lon="10.596123737982529"><ele>124.0</ele><time>2026-03-30T12:33:53.999Z</time></trkpt><trkpt lat="45.370109188114924" lon="10.596062841437586"><ele>122.66666666666666</ele><time>2026-03-30T12:33:54.999Z</time></trkpt><trkpt lat="45.370110433827904" lon="10.595890821908572"><ele>121.33333333333333</ele><time>2026-03-30T12:33:56.999Z</time></trkpt><trkpt lat="45.370104102111085" lon="10.595777084073"><ele>120.0</ele><time>2026-03-30T12:33:57.999Z</time></trkpt><trkpt lat="45.37011457658136" lon="10.59562361239339"><ele>120.0</ele><time>2026-03-30T12:33:58.999Z</time></trkpt><trkpt lat="45.370141294868" lon="10.5954126124935"><ele>120.0</ele><time>2026-03-30T12:33:59.999Z</time></trkpt><trkpt lat="45.37016295342222" lon="10.595196854428227"><ele>120.0</ele><time>2026-03-30T12:34:00.999Z</time></trkpt><trkpt lat="45.370170142115" lon="10.594944370351579"><ele>120.33333333333334</ele><time>2026-03-30T12:34:01.999Z</time></trkpt><trkpt lat="45.37016599446176" lon="10.594698005603533"><ele>120.66666666666667</ele><time>2026-03-30T12:34:02.999Z</time></trkpt><trkpt lat="45.370149650069145" lon="10.594484960700493"><ele>121.0</ele><time>2026-03-30T12:34:03.999Z</time></trkpt><trkpt lat="45.37013217202056" lon="10.594285052627011"><ele>121.5</ele><time>2026-03-30T12:34:04.999Z</time></trkpt><trkpt lat="45.370114040903594" lon="10.594106128951047"><ele>122.0</ele><time>2026-03-30T12:34:05.999Z</time></trkpt><trkpt lat="45.37009819507747" lon="10.593930775465706"><ele>122.5</ele><time>2026-03-30T12:34:06.999Z</time></trkpt><trkpt lat="45.37008329359694" lon="10.593757311732467"><ele>123.0</ele><time>2026-03-30T12:34:07.999Z</time></trkpt><trkpt lat="45.370073098664555" lon="10.593639191116967"><ele>123.2</ele><time>2026-03-30T12:34:08.999Z</time></trkpt><trkpt lat="45.370080078980976" lon="10.593510034809528"><ele>123.4</ele><time>2026-03-30T12:34:09.999Z</time></trkpt><trkpt lat="45.370099412604254" lon="10.593389629398342"><ele>123.60000000000001</ele><time>2026-03-30T12:34:10.999Z</time></trkpt><trkpt lat="45.37013434869854" lon="10.593274185010978"><ele>123.80000000000001</ele><time>2026-03-30T12:34:11.999Z</time></trkpt><trkpt lat="45.37017596426509" lon="10.593155772757525"><ele>124.0</ele><time>2026-03-30T12:34:12.999Z</time></trkpt><trkpt lat="45.37022576910913" lon="10.593011660913252"><ele>124.0</ele><time>2026-03-30T12:34:13.999Z</time></trkpt><trkpt lat="45.370278571405294" lon="10.592844575212919"><ele>124.0</ele><time>2026-03-30T12:34:14.999Z</time></trkpt><trkpt lat="45.370349976296595" lon="10.59268693253579"><ele>124.0</ele><time>2026-03-30T12:34:15.999Z</time></trkpt><trkpt lat="45.37042744198121" lon="10.59251820540566"><ele>124.0</ele><time>2026-03-30T12:34:16.999Z</time></trkpt><trkpt lat="45.370497332631466" lon="10.592340169468141"><ele>121.5</ele><time>2026-03-30T12:34:17.999Z</time></trkpt><trkpt lat="45.37056026586901" lon="10.59217190069106"><ele>119.0</ele><time>2026-03-30T12:34:18.999Z</time></trkpt><trkpt lat="45.37061863200374" lon="10.592004508965683"><ele>116.5</ele><time>2026-03-30T12:34:19.999Z</time></trkpt><trkpt lat="45.37066697211732" lon="10.591843451647247"><ele>114.0</ele><time>2026-03-30T12:34:20.999Z</time></trkpt><trkpt lat="45.37071186115381" lon="10.591667414624276"><ele>114.0</ele><time>2026-03-30T12:34:21.999Z</time></trkpt><trkpt lat="45.37074225836717" lon="10.591493657099"><ele>114.0</ele><time>2026-03-30T12:34:22.999Z</time></trkpt><trkpt lat="45.37076220718974" lon="10.591339063312827"><ele>114.0</ele><time>2026-03-30T12:34:23.999Z</time></trkpt><trkpt lat="45.370770893483034" lon="10.591191851349961"><ele>114.0</ele><time>2026-03-30T12:34:24.999Z</time></trkpt><trkpt lat="45.37077388325475" lon="10.591051260139292"><ele>114.0</ele><time>2026-03-30T12:34:25.999Z</time></trkpt><trkpt lat="45.370767294193286" lon="10.59090087026114"><ele>113.6</ele><time>2026-03-30T12:34:26.999Z</time></trkpt><trkpt lat="45.37073712685347" lon="10.590777451616237"><ele>113.2</ele><time>2026-03-30T12:34:27.999Z</time></trkpt><trkpt lat="45.37067431569574" lon="10.590654154053682"><ele>112.79999999999998</ele><time>2026-03-30T12:34:28.999Z</time></trkpt><trkpt lat="45.37059997865756" lon="10.590524098056017"><ele>112.39999999999999</ele><time>2026-03-30T12:34:29.999Z</time></trkpt><trkpt lat="45.37051876894766" lon="10.590403491563185"><ele>112.0</ele><time>2026-03-30T12:34:30.999Z</time></trkpt><trkpt lat="45.370421137001" lon="10.590292257489613"><ele>114.19999999999999</ele><time>2026-03-30T12:34:31.999Z</time></trkpt><trkpt lat="45.37033834848126" lon="10.59017243480164"><ele>116.39999999999999</ele><time>2026-03-30T12:34:32.999Z</time></trkpt><trkpt lat="45.37027980648349" lon="10.590039249517334"><ele>118.60000000000001</ele><time>2026-03-30T12:34:33.999Z</time></trkpt><trkpt lat="45.37026856786338" lon="10.589894841761314"><ele>120.80000000000001</ele><time>2026-03-30T12:34:34.999Z</time></trkpt><trkpt lat="45.37023554822838" lon="10.589768941504516"><ele>123.0</ele><time>2026-03-30T12:34:35.999Z</time></trkpt><trkpt lat="45.37017537395922" lon="10.589676167771021"><ele>123.0</ele><time>2026-03-30T12:34:36.999Z</time></trkpt><trkpt lat="45.37010759430591" lon="10.589601002255506"><ele>123.00000000000001</ele><time>2026-03-30T12:34:37.999Z</time></trkpt><trkpt lat="45.370016587911806" lon="10.58954234847494"><ele>123.00000000000001</ele><time>2026-03-30T12:34:38.999Z</time></trkpt><trkpt lat="45.369899751186246" lon="10.589474939419544"><ele>123.0</ele><time>2026-03-30T12:34:39.999Z</time></trkpt><trkpt lat="45.36980379788209" lon="10.589419535372608"><ele>123.0</ele><time>2026-03-30T12:34:40.999Z</time></trkpt><trkpt lat="45.369688422289826" lon="10.589352433946562"><ele>123.25</ele><time>2026-03-30T12:34:41.999Z</time></trkpt><trkpt lat="45.36959227954791" lon="10.589283816047947"><ele>123.5</ele><time>2026-03-30T12:34:42.999Z</time></trkpt><trkpt lat="45.369500444123865" lon="10.589196718643084"><ele>123.75</ele><time>2026-03-30T12:34:43.999Z</time></trkpt><trkpt lat="45.369426058809246" lon="10.589093124601826"><ele>124.0</ele><time>2026-03-30T12:34:44.999Z</time></trkpt><trkpt lat="45.36934789319461" lon="10.588940123529584"><ele>124.0</ele><time>2026-03-30T12:34:45.999Z</time></trkpt><trkpt lat="45.369275523337365" lon="10.588811307759586"><ele>124.0</ele><time>2026-03-30T12:34:46.999Z</time></trkpt><trkpt lat="45.3692034116616" lon="10.588657824387518"><ele>124.0</ele><time>2026-03-30T12:34:47.999Z</time></trkpt><trkpt lat="45.36914548433887" lon="10.588511339446562"><ele>124.0</ele><time>2026-03-30T12:34:48.999Z</time></trkpt><trkpt lat="45.369081998042425" lon="10.588371296263762"><ele>125.0</ele><time>2026-03-30T12:34:49.999Z</time></trkpt><trkpt lat="45.36902822815557" lon="10.58825425916044"><ele>126.0</ele><time>2026-03-30T12:34:50.999Z</time></trkpt><trkpt lat="45.36896162291943" lon="10.58817307045822"><ele>127.0</ele><time>2026-03-30T12:34:51.999Z</time></trkpt><trkpt lat="45.36888033056286" lon="10.588118481979926"><ele>128.0</ele><time>2026-03-30T12:34:52.999Z</time></trkpt><trkpt lat="45.36878997911599" lon="10.588089906950582"><ele>129.0</ele><time>2026-03-30T12:34:53.999Z</time></trkpt><trkpt lat="45.36871270748731" lon="10.588038881474166"><ele>129.0</ele><time>2026-03-30T12:34:54.999Z</time></trkpt><trkpt lat="45.36863864007375" lon="10.587970922271511"><ele>129.0</ele><time>2026-03-30T12:34:55.999Z</time></trkpt><trkpt lat="45.36856113709737" lon="10.587893442960127"><ele>129.0</ele><time>2026-03-30T12:34:56.999Z</time></trkpt><trkpt lat="45.36848947845258" lon="10.587799723715394"><ele>129.0</ele><time>2026-03-30T12:34:57.999Z</time></trkpt><trkpt lat="45.36843708437768" lon="10.587698758989836"><ele>129.0</ele><time>2026-03-30T12:34:58.999Z</time></trkpt><trkpt lat="45.36837867232992" lon="10.587608946079344"><ele>128.16666666666666</ele><time>2026-03-30T12:34:59.998Z</time></trkpt><trkpt lat="45.368326591912464" lon="10.587501413867258"><ele>127.33333333333334</ele><time>2026-03-30T12:35:00.998Z</time></trkpt><trkpt lat="45.36828682959005" lon="10.587398923412035"><ele>126.5</ele><time>2026-03-30T12:35:01.998Z</time></trkpt><trkpt lat="45.36826202482721" lon="10.587283799491631"><ele>125.66666666666667</ele><time>2026-03-30T12:35:02.998Z</time></trkpt><trkpt lat="45.3682105967352" lon="10.587192501482333"><ele>124.83333333333334</ele><time>2026-03-30T12:35:03.998Z</time></trkpt><trkpt lat="45.368136058283895" lon="10.587104485107233"><ele>124.0</ele><time>2026-03-30T12:35:04.998Z</time></trkpt><trkpt lat="45.368076631484335" lon="10.587053550602176"><ele>123.00000000000001</ele><time>2026-03-30T12:35:05.998Z</time></trkpt><trkpt lat="45.36802816889308" lon="10.586983160478436"><ele>122.0</ele><time>2026-03-30T12:35:06.998Z</time></trkpt><trkpt lat="45.367989678281525" lon="10.586890082807404"><ele>121.0</ele><time>2026-03-30T12:35:07.998Z</time></trkpt><trkpt lat="45.367954692138056" lon="10.586796315368948"><ele>120.0</ele><time>2026-03-30T12:35:08.998Z</time></trkpt><trkpt lat="45.367933909262625" lon="10.586687086817516"><ele>119.00000000000001</ele><time>2026-03-30T12:35:09.998Z</time></trkpt><trkpt lat="45.367895763976406" lon="10.586588373507047"><ele>118.0</ele><time>2026-03-30T12:35:10.998Z</time></trkpt><trkpt lat="45.3678421515817" lon="10.58649066582684"><ele>118.60000000000001</ele><time>2026-03-30T12:35:11.998Z</time></trkpt><trkpt lat="45.3677800072395" lon="10.58638058971329"><ele>119.20000000000002</ele><time>2026-03-30T12:35:12.998Z</time></trkpt><trkpt lat="45.36772009105264" lon="10.586274407845618"><ele>119.8</ele><time>2026-03-30T12:35:13.998Z</time></trkpt><trkpt lat="45.36766172738763" lon="10.58617703144994"><ele>120.4</ele><time>2026-03-30T12:35:14.998Z</time></trkpt><trkpt lat="45.36760203226277" lon="10.586082839990299"><ele>121.0</ele><time>2026-03-30T12:35:15.998Z</time></trkpt><trkpt lat="45.367553248049965" lon="10.585968962255508"><ele>121.00000000000001</ele><time>2026-03-30T12:35:16.998Z</time></trkpt><trkpt lat="45.36749641378226" lon="10.58586975923861"><ele>121.0</ele><time>2026-03-30T12:35:17.998Z</time></trkpt><trkpt lat="45.36744758985478" lon="10.58576612062097"><ele>121.0</ele><time>2026-03-30T12:35:18.998Z</time></trkpt><trkpt lat="45.36739851061786" lon="10.585661344659723"><ele>121.0</ele><time>2026-03-30T12:35:19.998Z</time></trkpt><trkpt lat="45.36735842774054" lon="10.585565367448725"><ele>121.00000000000001</ele><time>2026-03-30T12:35:20.998Z</time></trkpt><trkpt lat="45.3673143289779" lon="10.585484979693216"><ele>121.0</ele><time>2026-03-30T12:35:21.998Z</time></trkpt><trkpt lat="45.36724659627032" lon="10.585355279195781"><ele>121.16666666666667</ele><time>2026-03-30T12:35:23.998Z</time></trkpt><trkpt lat="45.36720875571864" lon="10.58522471577622"><ele>121.33333333333334</ele><time>2026-03-30T12:35:25.998Z</time></trkpt><trkpt lat="45.36720755450241" lon="10.585123883068285"><ele>121.5</ele><time>2026-03-30T12:35:27Z</time></trkpt><trkpt lat="45.367229787164945" lon="10.585021901712533"><ele>121.66666666666666</ele><time>2026-03-30T12:35:28Z</time></trkpt><trkpt lat="45.36727337188139" lon="10.584918392931323"><ele>121.83333333333333</ele><time>2026-03-30T12:35:29Z</time></trkpt><trkpt lat="45.367325809698364" lon="10.584788571606666"><ele>122.0</ele><time>2026-03-30T12:35:30Z</time></trkpt><trkpt lat="45.36738102658429" lon="10.584654069318615"><ele>122.0</ele><time>2026-03-30T12:35:31Z</time></trkpt><trkpt lat="45.36745299972563" lon="10.584513741445196"><ele>121.99999999999999</ele><time>2026-03-30T12:35:32Z</time></trkpt><trkpt lat="45.3675163331876" lon="10.584385356958721"><ele>121.99999999999999</ele><time>2026-03-30T12:35:33Z</time></trkpt><trkpt lat="45.367583385625316" lon="10.584262368391347"><ele>122.0</ele><time>2026-03-30T12:35:34Z</time></trkpt><trkpt lat="45.36763801989965" lon="10.584142385885693"><ele>122.0</ele><time>2026-03-30T12:35:35Z</time></trkpt><trkpt lat="45.36769009660534" lon="10.584006763676923"><ele>123.0</ele><time>2026-03-30T12:35:36Z</time></trkpt><trkpt lat="45.36774460356673" lon="10.583894228856941"><ele>123.99999999999999</ele><time>2026-03-30T12:35:37Z</time></trkpt><trkpt lat="45.367791853951424" lon="10.583776661573967"><ele>124.99999999999999</ele><time>2026-03-30T12:35:38Z</time></trkpt><trkpt lat="45.36784194926287" lon="10.583639484143482"><ele>126.0</ele><time>2026-03-30T12:35:39Z</time></trkpt><trkpt lat="45.367879003230634" lon="10.58349907823304"><ele>127.0</ele><time>2026-03-30T12:35:40Z</time></trkpt><trkpt lat="45.367899427755134" lon="10.58335929271355"><ele>127.39999999999999</ele><time>2026-03-30T12:35:41Z</time></trkpt><trkpt lat="45.367908425063185" lon="10.5832176227381"><ele>127.79999999999998</ele><time>2026-03-30T12:35:42Z</time></trkpt><trkpt lat="45.367916859418806" lon="10.583055337604145"><ele>128.2</ele><time>2026-03-30T12:35:43Z</time></trkpt><trkpt lat="45.36792760778022" lon="10.582903347177561"><ele>128.6</ele><time>2026-03-30T12:35:44Z</time></trkpt><trkpt lat="45.36795817964283" lon="10.582745660784234"><ele>129.0</ele><time>2026-03-30T12:35:45Z</time></trkpt><trkpt lat="45.3679848263399" lon="10.582600332715055"><ele>129.0</ele><time>2026-03-30T12:35:46Z</time></trkpt><trkpt lat="45.3680140256065" lon="10.582453583112024"><ele>129.0</ele><time>2026-03-30T12:35:47Z</time></trkpt><trkpt lat="45.368037752872674" lon="10.582333038888603"><ele>129.0</ele><time>2026-03-30T12:35:48Z</time></trkpt><trkpt lat="45.36806978442699" lon="10.5822156633205"><ele>129.0</ele><time>2026-03-30T12:35:49Z</time></trkpt><trkpt lat="45.368099688820024" lon="10.582122537803466"><ele>129.0</ele><time>2026-03-30T12:35:50Z</time></trkpt><trkpt lat="45.36813670444034" lon="10.582042946772004"><ele>129.0</ele><time>2026-03-30T12:35:51Z</time></trkpt><trkpt lat="45.368191482445994" lon="10.581948879935359"><ele>125.6</ele><time>2026-03-30T12:35:54Z</time></trkpt><trkpt lat="45.36825175355153" lon="10.581898131336684"><ele>122.2</ele><time>2026-03-30T12:35:56Z</time></trkpt><trkpt lat="45.368353775697045" lon="10.581878690067912"><ele>118.79999999999998</ele><time>2026-03-30T12:35:57.999Z</time></trkpt><trkpt lat="45.36845655292231" lon="10.581881557000006"><ele>115.39999999999999</ele><time>2026-03-30T12:35:59.999Z</time></trkpt><trkpt lat="45.36856980295403" lon="10.58183565793056"><ele>112.0</ele><time>2026-03-30T12:36:01.999Z</time></trkpt><trkpt lat="45.36868334535146" lon="10.581783276288212"><ele>112.0</ele><time>2026-03-30T12:36:03.999Z</time></trkpt><trkpt lat="45.36879583029254" lon="10.581740046499176"><ele>112.0</ele><time>2026-03-30T12:36:05.999Z</time></trkpt><trkpt lat="45.368900344613245" lon="10.581684745506548"><ele>112.0</ele><time>2026-03-30T12:36:07.999Z</time></trkpt><trkpt lat="45.36900413046184" lon="10.581611314297263"><ele>112.0</ele><time>2026-03-30T12:36:09.999Z</time></trkpt><trkpt lat="45.36911060854549" lon="10.581561656792521"><ele>111.83333333333334</ele><time>2026-03-30T12:36:11.999Z</time></trkpt><trkpt lat="45.3692139879168" lon="10.581515636597642"><ele>111.66666666666667</ele><time>2026-03-30T12:36:13.999Z</time></trkpt><trkpt lat="45.36930743901321" lon="10.581463586165048"><ele>111.5</ele><time>2026-03-30T12:36:15.999Z</time></trkpt><trkpt lat="45.369367744227375" lon="10.581397323016372"><ele>111.33333333333334</ele><time>2026-03-30T12:36:17.999Z</time></trkpt><trkpt lat="45.36939927332818" lon="10.581319128856656"><ele>111.16666666666667</ele><time>2026-03-30T12:36:19.999Z</time></trkpt><trkpt lat="45.369370037686465" lon="10.581207937309056"><ele>111.0</ele><time>2026-03-30T12:36:22.999Z</time></trkpt><trkpt lat="45.369289003481924" lon="10.581183863734466"><ele>111.0</ele><time>2026-03-30T12:36:24.999Z</time></trkpt><trkpt lat="45.36922537074056" lon="10.581201507936642"><ele>111.0</ele><time>2026-03-30T12:36:25.999Z</time></trkpt><trkpt lat="45.369152271131355" lon="10.581241490077923"><ele>111.0</ele><time>2026-03-30T12:36:26.999Z</time></trkpt><trkpt lat="45.36907640762087" lon="10.581288076653745"><ele>111.0</ele><time>2026-03-30T12:36:27.999Z</time></trkpt><trkpt lat="45.36900042535035" lon="10.581328787584145"><ele>111.0</ele><time>2026-03-30T12:36:28.999Z</time></trkpt><trkpt lat="45.368901383039756" lon="10.581373135485054"><ele>111.0</ele><time>2026-03-30T12:36:29.999Z</time></trkpt><trkpt lat="45.368803599848725" lon="10.581403423871661"><ele>111.19999999999999</ele><time>2026-03-30T12:36:30.999Z</time></trkpt><trkpt lat="45.36870070795374" lon="10.581424576319225"><ele>111.39999999999999</ele><time>2026-03-30T12:36:31.999Z</time></trkpt><trkpt lat="45.36858679138328" lon="10.581445022717041"><ele>111.6</ele><time>2026-03-30T12:36:32.999Z</time></trkpt><trkpt lat="45.368477870004284" lon="10.581468019263495"><ele>111.8</ele><time>2026-03-30T12:36:33.999Z</time></trkpt><trkpt lat="45.368364050092886" lon="10.581486148254232"><ele>112.0</ele><time>2026-03-30T12:36:34.999Z</time></trkpt><trkpt lat="45.368250822905885" lon="10.581496231028257"><ele>112.0</ele><time>2026-03-30T12:36:35.999Z</time></trkpt><trkpt lat="45.368136000464176" lon="10.581507424825146"><ele>112.0</ele><time>2026-03-30T12:36:36.999Z</time></trkpt><trkpt lat="45.3680198464035" lon="10.581518642274686"><ele>112.0</ele><time>2026-03-30T12:36:37.999Z</time></trkpt><trkpt lat="45.36790350331043" lon="10.581528479165538"><ele>112.0</ele><time>2026-03-30T12:36:38.999Z</time></trkpt><trkpt lat="45.367782458422006" lon="10.581536045469083"><ele>115.0</ele><time>2026-03-30T12:36:39.999Z</time></trkpt><trkpt lat="45.36765998374619" lon="10.581542191343189"><ele>118.0</ele><time>2026-03-30T12:36:40.999Z</time></trkpt><trkpt lat="45.36753790746439" lon="10.581553916975167"><ele>121.0</ele><time>2026-03-30T12:36:41.999Z</time></trkpt><trkpt lat="45.3674139408044" lon="10.581564692967714"><ele>124.0</ele><time>2026-03-30T12:36:42.999Z</time></trkpt><trkpt lat="45.36728327397756" lon="10.58158214300867"><ele>125.25</ele><time>2026-03-30T12:36:43.999Z</time></trkpt><trkpt lat="45.36715554346747" lon="10.581595624166704"><ele>126.5</ele><time>2026-03-30T12:36:44.999Z</time></trkpt><trkpt lat="45.36702276107124" lon="10.581605323337259"><ele>127.75</ele><time>2026-03-30T12:36:45.999Z</time></trkpt><trkpt lat="45.36689291389625" lon="10.581609766684576"><ele>129.0</ele><time>2026-03-30T12:36:46.999Z</time></trkpt><trkpt lat="45.36676922463801" lon="10.581614707901133"><ele>129.0</ele><time>2026-03-30T12:36:47.999Z</time></trkpt><trkpt lat="45.36666274792572" lon="10.58162428077675"><ele>129.0</ele><time>2026-03-30T12:36:48.999Z</time></trkpt><trkpt lat="45.366553873174816" lon="10.58163933127083"><ele>129.0</ele><time>2026-03-30T12:36:49.999Z</time></trkpt><trkpt lat="45.36644360525667" lon="10.581649861690627"><ele>129.0</ele><time>2026-03-30T12:36:50.999Z</time></trkpt><trkpt lat="45.36633922787957" lon="10.581653812358507"><ele>129.0</ele><time>2026-03-30T12:36:51.999Z</time></trkpt><trkpt lat="45.366239236604294" lon="10.581660763139272"><ele>129.6</ele><time>2026-03-30T12:36:52.999Z</time></trkpt><trkpt lat="45.366148370989386" lon="10.581662177291584"><ele>130.2</ele><time>2026-03-30T12:36:53.999Z</time></trkpt><trkpt lat="45.36606780102393" lon="10.581641749952256"><ele>130.79999999999998</ele><time>2026-03-30T12:36:54.999Z</time></trkpt><trkpt lat="45.365988446718994" lon="10.5816031469721"><ele>131.4</ele><time>2026-03-30T12:36:55.999Z</time></trkpt><trkpt lat="45.365904112156166" lon="10.581548570197226"><ele>132.0</ele><time>2026-03-30T12:36:56.999Z</time></trkpt><trkpt lat="45.36581447402025" lon="10.581469395907991"><ele>132.0</ele><time>2026-03-30T12:36:57.999Z</time></trkpt><trkpt lat="45.36573217540598" lon="10.58135736292918"><ele>132.0</ele><time>2026-03-30T12:36:58.999Z</time></trkpt><trkpt lat="45.365649440169406" lon="10.581220588280656"><ele>132.0</ele><time>2026-03-30T12:36:59.999Z</time></trkpt><trkpt lat="45.3655681307097" lon="10.581052674560539"><ele>132.0</ele><time>2026-03-30T12:37:00.999Z</time></trkpt><trkpt lat="45.365515170125754" lon="10.580864314169608"><ele>133.0</ele><time>2026-03-30T12:37:01.999Z</time></trkpt><trkpt lat="45.36546615203463" lon="10.58065687425385"><ele>134.0</ele><time>2026-03-30T12:37:02.999Z</time></trkpt><trkpt lat="45.36542327697187" lon="10.580433767014181"><ele>135.0</ele><time>2026-03-30T12:37:03.999Z</time></trkpt><trkpt lat="45.36537957078108" lon="10.580206559163559"><ele>135.0</ele><time>2026-03-30T12:37:04.999Z</time></trkpt><trkpt lat="45.36532830936378" lon="10.579972582857607"><ele>135.0</ele><time>2026-03-30T12:37:05.999Z</time></trkpt><trkpt lat="45.36528380065464" lon="10.579751829009918"><ele>135.0</ele><time>2026-03-30T12:37:06.999Z</time></trkpt><trkpt lat="45.36524367131222" lon="10.57953824961661"><ele>136.25</ele><time>2026-03-30T12:37:07.998Z</time></trkpt><trkpt lat="45.36521971001389" lon="10.579338355852583"><ele>137.5</ele><time>2026-03-30T12:37:08.998Z</time></trkpt><trkpt lat="45.36519591530916" lon="10.579149976348202"><ele>138.75</ele><time>2026-03-30T12:37:09.998Z</time></trkpt><trkpt lat="45.36517987640095" lon="10.578965837895105"><ele>140.0</ele><time>2026-03-30T12:37:10.998Z</time></trkpt><trkpt lat="45.36516708755324" lon="10.578778229643428"><ele>141.25</ele><time>2026-03-30T12:37:11.998Z</time></trkpt><trkpt lat="45.36515600136946" lon="10.578587507107292"><ele>142.5</ele><time>2026-03-30T12:37:12.998Z</time></trkpt><trkpt lat="45.3651509481824" lon="10.578388126614193"><ele>143.75</ele><time>2026-03-30T12:37:13.998Z</time></trkpt><trkpt lat="45.36515847473544" lon="10.578168253138418"><ele>145.0</ele><time>2026-03-30T12:37:14.998Z</time></trkpt><trkpt lat="45.36516251391306" lon="10.577942627672837"><ele>144.0</ele><time>2026-03-30T12:37:15.998Z</time></trkpt><trkpt lat="45.365184061356054" lon="10.57770816947377"><ele>143.0</ele><time>2026-03-30T12:37:16.998Z</time></trkpt><trkpt lat="45.36520363243155" lon="10.577474564225096"><ele>142.0</ele><time>2026-03-30T12:37:17.998Z</time></trkpt><trkpt lat="45.365227994688155" lon="10.57724198098438"><ele>141.66666666666669</ele><time>2026-03-30T12:37:18.998Z</time></trkpt><trkpt lat="45.36525669405127" lon="10.576998825796037"><ele>141.33333333333334</ele><time>2026-03-30T12:37:19.998Z</time></trkpt><trkpt lat="45.36528632831618" lon="10.57676551777232"><ele>141.0</ele><time>2026-03-30T12:37:20.998Z</time></trkpt><trkpt lat="45.365315197242595" lon="10.57652306402524"><ele>141.0</ele><time>2026-03-30T12:37:21.998Z</time></trkpt><trkpt lat="45.36534220906768" lon="10.576289411905275"><ele>141.0</ele><time>2026-03-30T12:37:22.998Z</time></trkpt><trkpt lat="45.36536439644994" lon="10.576065507320997"><ele>141.0</ele><time>2026-03-30T12:37:23.998Z</time></trkpt><trkpt lat="45.36539324849047" lon="10.575861975584395"><ele>140.25</ele><time>2026-03-30T12:37:24.998Z</time></trkpt><trkpt lat="45.3654224608043" lon="10.575653145639157"><ele>139.5</ele><time>2026-03-30T12:37:25.998Z</time></trkpt><trkpt lat="45.36544814143171" lon="10.575440806398149"><ele>138.75</ele><time>2026-03-30T12:37:26.998Z</time></trkpt><trkpt lat="45.36547349754012" lon="10.575233358186335"><ele>138.0</ele><time>2026-03-30T12:37:27.998Z</time></trkpt><trkpt lat="45.36550094226928" lon="10.575022269292878"><ele>137.75</ele><time>2026-03-30T12:37:28.998Z</time></trkpt><trkpt lat="45.365527829436104" lon="10.57482193524397"><ele>137.5</ele><time>2026-03-30T12:37:29.998Z</time></trkpt><trkpt lat="45.3655610939156" lon="10.574625928184679"><ele>137.25</ele><time>2026-03-30T12:37:30.998Z</time></trkpt><trkpt lat="45.36560712649105" lon="10.57443145159225"><ele>137.0</ele><time>2026-03-30T12:37:31.998Z</time></trkpt><trkpt lat="45.365670244956156" lon="10.57425830885616"><ele>135.25</ele><time>2026-03-30T12:37:33Z</time></trkpt><trkpt lat="45.36572865217897" lon="10.574087964487994"><ele>133.5</ele><time>2026-03-30T12:37:34Z</time></trkpt><trkpt lat="45.365767748705814" lon="10.573911633123428"><ele>131.75</ele><time>2026-03-30T12:37:35Z</time></trkpt><trkpt lat="45.36577953393783" lon="10.573726982784132"><ele>130.0</ele><time>2026-03-30T12:37:36Z</time></trkpt><trkpt lat="45.36576814808169" lon="10.573528569451042"><ele>130.0</ele><time>2026-03-30T12:37:37Z</time></trkpt><trkpt lat="45.36576358270816" lon="10.573316695278832"><ele>130.0</ele><time>2026-03-30T12:37:38Z</time></trkpt><trkpt lat="45.365780474129274" lon="10.573100928415728"><ele>130.0</ele><time>2026-03-30T12:37:39Z</time></trkpt><trkpt lat="45.3658224343712" lon="10.57290248869101"><ele>130.0</ele><time>2026-03-30T12:37:40Z</time></trkpt><trkpt lat="45.36586997003743" lon="10.572719387155304"><ele>130.25</ele><time>2026-03-30T12:37:41Z</time></trkpt><trkpt lat="45.36592057895476" lon="10.57253848120444"><ele>130.5</ele><time>2026-03-30T12:37:42Z</time></trkpt><trkpt lat="45.36596469909122" lon="10.5723918406066"><ele>130.75</ele><time>2026-03-30T12:37:43Z</time></trkpt><trkpt lat="45.36601353278223" lon="10.572255487676282"><ele>131.0</ele><time>2026-03-30T12:37:44Z</time></trkpt><trkpt lat="45.36607380539164" lon="10.572128584490144"><ele>132.25</ele><time>2026-03-30T12:37:45Z</time></trkpt><trkpt lat="45.36615004315352" lon="10.572007566485755"><ele>133.5</ele><time>2026-03-30T12:37:46Z</time></trkpt><trkpt lat="45.36624087182764" lon="10.571907907216916"><ele>134.75</ele><time>2026-03-30T12:37:47Z</time></trkpt><trkpt lat="45.36635216541616" lon="10.571814067255861"><ele>136.0</ele><time>2026-03-30T12:37:48Z</time></trkpt><trkpt lat="45.36646604211988" lon="10.571685237263099"><ele>136.4</ele><time>2026-03-30T12:37:49Z</time></trkpt><trkpt lat="45.36655927267884" lon="10.571549796443165"><ele>136.8</ele><time>2026-03-30T12:37:50Z</time></trkpt><trkpt lat="45.36663532207943" lon="10.571437871433664"><ele>137.20000000000002</ele><time>2026-03-30T12:37:51Z</time></trkpt><trkpt lat="45.36670059975027" lon="10.57132634582771"><ele>137.6</ele><time>2026-03-30T12:37:52Z</time></trkpt><trkpt lat="45.36676654585392" lon="10.571222953258333"><ele>138.0</ele><time>2026-03-30T12:37:53Z</time></trkpt><trkpt lat="45.366829042000035" lon="10.571113846454407"><ele>136.8</ele><time>2026-03-30T12:37:54Z</time></trkpt><trkpt lat="45.366880723923344" lon="10.570994466087079"><ele>135.60000000000002</ele><time>2026-03-30T12:37:55Z</time></trkpt><trkpt lat="45.366936633369484" lon="10.570859360758371"><ele>134.39999999999998</ele><time>2026-03-30T12:37:56Z</time></trkpt><trkpt lat="45.36700138760359" lon="10.570720416525827"><ele>133.2</ele><time>2026-03-30T12:37:57Z</time></trkpt><trkpt lat="45.36706734398599" lon="10.570582885178117"><ele>132.0</ele><time>2026-03-30T12:37:58Z</time></trkpt><trkpt lat="45.36713654480751" lon="10.570442479971069"><ele>132.25</ele><time>2026-03-30T12:37:59Z</time></trkpt><trkpt lat="45.36720725864365" lon="10.570309998630021"><ele>132.5</ele><time>2026-03-30T12:38:00Z</time></trkpt><trkpt lat="45.36728107161793" lon="10.5701728038356"><ele>132.75</ele><time>2026-03-30T12:38:01Z</time></trkpt><trkpt lat="45.367353526523495" lon="10.570029524236928"><ele>133.0</ele><time>2026-03-30T12:38:02Z</time></trkpt><trkpt lat="45.36741489641294" lon="10.569873244023041"><ele>133.0</ele><time>2026-03-30T12:38:03Z</time></trkpt><trkpt lat="45.36747101635892" lon="10.56971315759442"><ele>133.0</ele><time>2026-03-30T12:38:04Z</time></trkpt><trkpt lat="45.36753252767199" lon="10.569558675093326"><ele>133.0</ele><time>2026-03-30T12:38:05Z</time></trkpt><trkpt lat="45.36759997672571" lon="10.569403551000349"><ele>133.0</ele><time>2026-03-30T12:38:05.999Z</time></trkpt><trkpt lat="45.367671719000334" lon="10.569249057458466"><ele>132.5</ele><time>2026-03-30T12:38:06.999Z</time></trkpt><trkpt lat="45.36775170612806" lon="10.569099848134673"><ele>132.0</ele><time>2026-03-30T12:38:07.999Z</time></trkpt><trkpt lat="45.36783445007481" lon="10.568954036137914"><ele>131.5</ele><time>2026-03-30T12:38:08.999Z</time></trkpt><trkpt lat="45.367915614297885" lon="10.568807323610207"><ele>131.0</ele><time>2026-03-30T12:38:09.999Z</time></trkpt><trkpt lat="45.36798741155403" lon="10.568677224919432"><ele>129.8</ele><time>2026-03-30T12:38:10.999Z</time></trkpt><trkpt lat="45.36805200842677" lon="10.568565782333875"><ele>128.6</ele><time>2026-03-30T12:38:11.999Z</time></trkpt><trkpt lat="45.368105504686405" lon="10.568423675106647"><ele>127.4</ele><time>2026-03-30T12:38:12.999Z</time></trkpt><trkpt lat="45.36814988429696" lon="10.568268206491679"><ele>126.2</ele><time>2026-03-30T12:38:13.999Z</time></trkpt><trkpt lat="45.368174848791" lon="10.568115075799954"><ele>125.0</ele><time>2026-03-30T12:38:14.999Z</time></trkpt><trkpt lat="45.368198276917994" lon="10.567957404872601"><ele>124.6</ele><time>2026-03-30T12:38:15.999Z</time></trkpt><trkpt lat="45.36821823820082" lon="10.567823403205443"><ele>124.2</ele><time>2026-03-30T12:38:16.999Z</time></trkpt><trkpt lat="45.368229707189094" lon="10.56770325855255"><ele>123.80000000000001</ele><time>2026-03-30T12:38:17.999Z</time></trkpt><trkpt lat="45.36824610474511" lon="10.56755985054804"><ele>123.4</ele><time>2026-03-30T12:38:18.999Z</time></trkpt><trkpt lat="45.36827135681672" lon="10.567442634924614"><ele>123.0</ele><time>2026-03-30T12:38:19.999Z</time></trkpt><trkpt lat="45.36829644931534" lon="10.567320061550088"><ele>123.0</ele><time>2026-03-30T12:38:20.999Z</time></trkpt><trkpt lat="45.36832504922621" lon="10.567218170506312"><ele>123.0</ele><time>2026-03-30T12:38:21.999Z</time></trkpt><trkpt lat="45.36834709104876" lon="10.567125195243712"><ele>123.0</ele><time>2026-03-30T12:38:22.999Z</time></trkpt><trkpt lat="45.36837846342498" lon="10.567043918216463"><ele>123.0</ele><time>2026-03-30T12:38:23.999Z</time></trkpt><trkpt lat="45.36842256034869" lon="10.566930812264092"><ele>123.0</ele><time>2026-03-30T12:38:25.999Z</time></trkpt><trkpt lat="45.36842143117908" lon="10.566755075753546"><ele>123.0</ele><time>2026-03-30T12:38:27.999Z</time></trkpt><trkpt lat="45.36840349228738" lon="10.56664414706296"><ele>122.60000000000001</ele><time>2026-03-30T12:38:28.999Z</time></trkpt><trkpt lat="45.36837242340814" lon="10.56650988569147"><ele>122.20000000000002</ele><time>2026-03-30T12:38:29.999Z</time></trkpt><trkpt lat="45.36832362852034" lon="10.566365375659744"><ele>121.8</ele><time>2026-03-30T12:38:30.999Z</time></trkpt><trkpt lat="45.3682888957927" lon="10.566227060493869"><ele>121.4</ele><time>2026-03-30T12:38:31.999Z</time></trkpt><trkpt lat="45.368253866813106" lon="10.5660818869466"><ele>121.0</ele><time>2026-03-30T12:38:32.999Z</time></trkpt><trkpt lat="45.3682230956727" lon="10.565941776215258"><ele>120.8</ele><time>2026-03-30T12:38:33.999Z</time></trkpt><trkpt lat="45.3681784638563" lon="10.565810660829863"><ele>120.6</ele><time>2026-03-30T12:38:34.999Z</time></trkpt><trkpt lat="45.36814097322435" lon="10.565684277585651"><ele>120.4</ele><time>2026-03-30T12:38:35.999Z</time></trkpt><trkpt lat="45.36810499815221" lon="10.56554760799225"><ele>120.2</ele><time>2026-03-30T12:38:36.999Z</time></trkpt><trkpt lat="45.368075639436036" lon="10.565410897926471"><ele>120.0</ele><time>2026-03-30T12:38:37.999Z</time></trkpt><trkpt lat="45.36806222824758" lon="10.565272736517267"><ele>119.6</ele><time>2026-03-30T12:38:38.999Z</time></trkpt><trkpt lat="45.368066450564484" lon="10.565132863161997"><ele>119.2</ele><time>2026-03-30T12:38:39.999Z</time></trkpt><trkpt lat="45.368064579313405" lon="10.565008244812525"><ele>118.80000000000001</ele><time>2026-03-30T12:38:40.999Z</time></trkpt><trkpt lat="45.36806630282607" lon="10.56486756376923"><ele>118.4</ele><time>2026-03-30T12:38:41.999Z</time></trkpt><trkpt lat="45.368079098954084" lon="10.564729299304384"><ele>118.0</ele><time>2026-03-30T12:38:42.999Z</time></trkpt><trkpt lat="45.36808743567601" lon="10.564584660923005"><ele>118.0</ele><time>2026-03-30T12:38:43.999Z</time></trkpt><trkpt lat="45.368093502608126" lon="10.564438959680588"><ele>118.00000000000001</ele><time>2026-03-30T12:38:44.999Z</time></trkpt><trkpt lat="45.36810004629826" lon="10.564290090423617"><ele>118.00000000000001</ele><time>2026-03-30T12:38:45.999Z</time></trkpt><trkpt lat="45.36811062117226" lon="10.564137781521906"><ele>118.0</ele><time>2026-03-30T12:38:46.999Z</time></trkpt><trkpt lat="45.36812070888768" lon="10.563984818403103"><ele>118.0</ele><time>2026-03-30T12:38:47.999Z</time></trkpt><trkpt lat="45.368133493834726" lon="10.563833124129602"><ele>118.50000000000001</ele><time>2026-03-30T12:38:48.999Z</time></trkpt><trkpt lat="45.368145534318465" lon="10.563695857555269"><ele>119.0</ele><time>2026-03-30T12:38:49.999Z</time></trkpt><trkpt lat="45.36815333100072" lon="10.563570564321452"><ele>119.5</ele><time>2026-03-30T12:38:50.999Z</time></trkpt><trkpt lat="45.36816310609051" lon="10.563469491317926"><ele>120.0</ele><time>2026-03-30T12:38:51.999Z</time></trkpt><trkpt lat="45.368175535283974" lon="10.563314209173987"><ele>120.50000000000001</ele><time>2026-03-30T12:38:53.999Z</time></trkpt><trkpt lat="45.368230250424695" lon="10.56325291427828"><ele>121.0</ele><time>2026-03-30T12:38:55.999Z</time></trkpt><trkpt lat="45.36833471893618" lon="10.563321609368149"><ele>121.0</ele><time>2026-03-30T12:38:57.999Z</time></trkpt><trkpt lat="45.368386737946594" lon="10.563407290166761"><ele>121.0</ele><time>2026-03-30T12:38:58.999Z</time></trkpt><trkpt lat="45.36844987940029" lon="10.563500369944915"><ele>121.0</ele><time>2026-03-30T12:38:59.999Z</time></trkpt><trkpt lat="45.368520759962685" lon="10.563608879283004"><ele>121.0</ele><time>2026-03-30T12:39:00.999Z</time></trkpt><trkpt lat="45.36859697338919" lon="10.563723334901418"><ele>121.0</ele><time>2026-03-30T12:39:01.999Z</time></trkpt><trkpt lat="45.368679953724445" lon="10.563856018966595"><ele>120.25</ele><time>2026-03-30T12:39:02.999Z</time></trkpt><trkpt lat="45.368769513956906" lon="10.563992074571907"><ele>119.5</ele><time>2026-03-30T12:39:03.999Z</time></trkpt><trkpt lat="45.36886411515854" lon="10.564127365756015"><ele>118.75</ele><time>2026-03-30T12:39:04.999Z</time></trkpt><trkpt lat="45.36896108702883" lon="10.56426987256274"><ele>118.0</ele><time>2026-03-30T12:39:05.999Z</time></trkpt><trkpt lat="45.369052900546016" lon="10.564411925171532"><ele>119.25</ele><time>2026-03-30T12:39:06.999Z</time></trkpt><trkpt lat="45.36913802985723" lon="10.564545434039974"><ele>120.5</ele><time>2026-03-30T12:39:07.999Z</time></trkpt><trkpt lat="45.36921644191237" lon="10.564669033361138"><ele>121.75</ele><time>2026-03-30T12:39:08.999Z</time></trkpt><trkpt lat="45.36929848684046" lon="10.564785439958955"><ele>123.0</ele><time>2026-03-30T12:39:09.999Z</time></trkpt><trkpt lat="45.369378483933986" lon="10.56490278068852"><ele>123.0</ele><time>2026-03-30T12:39:10.999Z</time></trkpt><trkpt lat="45.369461798287205" lon="10.565032574237284"><ele>123.0</ele><time>2026-03-30T12:39:11.999Z</time></trkpt><trkpt lat="45.36954304146527" lon="10.565161908487488"><ele>123.0</ele><time>2026-03-30T12:39:12.999Z</time></trkpt><trkpt lat="45.36962117038745" lon="10.565281712725508"><ele>123.0</ele><time>2026-03-30T12:39:13.999Z</time></trkpt><trkpt lat="45.369700406818346" lon="10.565403430754486"><ele>123.2</ele><time>2026-03-30T12:39:14.998Z</time></trkpt><trkpt lat="45.36977685662239" lon="10.565516790570614"><ele>123.4</ele><time>2026-03-30T12:39:15.998Z</time></trkpt><trkpt lat="45.369845085794154" lon="10.565619142687195"><ele>123.60000000000001</ele><time>2026-03-30T12:39:16.998Z</time></trkpt><trkpt lat="45.369907470928595" lon="10.565711055722783"><ele>123.80000000000001</ele><time>2026-03-30T12:39:17.998Z</time></trkpt><trkpt lat="45.369964986520806" lon="10.565797424414024"><ele>124.0</ele><time>2026-03-30T12:39:18.998Z</time></trkpt><trkpt lat="45.370015951826815" lon="10.5658844444404"><ele>124.0</ele><time>2026-03-30T12:39:19.998Z</time></trkpt><trkpt lat="45.37006147658685" lon="10.56596941538967"><ele>124.0</ele><time>2026-03-30T12:39:20.998Z</time></trkpt><trkpt lat="45.37009764887308" lon="10.566047621747511"><ele>124.0</ele><time>2026-03-30T12:39:21.998Z</time></trkpt><trkpt lat="45.37016172923011" lon="10.566145125671465"><ele>124.0</ele><time>2026-03-30T12:39:23.998Z</time></trkpt><trkpt lat="45.37026126329736" lon="10.566168687373365"><ele>124.0</ele><time>2026-03-30T12:39:25.998Z</time></trkpt><trkpt lat="45.37038346694689" lon="10.566141188902607"><ele>124.0</ele><time>2026-03-30T12:39:27.998Z</time></trkpt><trkpt lat="45.37046467280246" lon="10.56611805983578"><ele>124.0</ele><time>2026-03-30T12:39:28.998Z</time></trkpt><trkpt lat="45.37054110479949" lon="10.566106186653126"><ele>124.0</ele><time>2026-03-30T12:39:29.998Z</time></trkpt><trkpt lat="45.370629289094616" lon="10.566086446864952"><ele>124.0</ele><time>2026-03-30T12:39:30.998Z</time></trkpt><trkpt lat="45.37073331770752" lon="10.566070072282805"><ele>124.0</ele><time>2026-03-30T12:39:31.998Z</time></trkpt><trkpt lat="45.370842532420674" lon="10.56605241664501"><ele>126.25</ele><time>2026-03-30T12:39:32.998Z</time></trkpt><trkpt lat="45.370958993222246" lon="10.566021705422388"><ele>128.5</ele><time>2026-03-30T12:39:33.998Z</time></trkpt><trkpt lat="45.37107370193035" lon="10.565981731469464"><ele>130.75</ele><time>2026-03-30T12:39:34.998Z</time></trkpt><trkpt lat="45.371190702009365" lon="10.565945193146515"><ele>133.0</ele><time>2026-03-30T12:39:35.998Z</time></trkpt><trkpt lat="45.37131677713172" lon="10.565897771198642"><ele>136.0</ele><time>2026-03-30T12:39:36.998Z</time></trkpt><trkpt lat="45.371451057567434" lon="10.56584510734894"><ele>139.0</ele><time>2026-03-30T12:39:37.998Z</time></trkpt><trkpt lat="45.371594363124544" lon="10.56581062333226"><ele>142.0</ele><time>2026-03-30T12:39:39Z</time></trkpt><trkpt lat="45.37171413835341" lon="10.565799944770696"><ele>145.0</ele><time>2026-03-30T12:39:40Z</time></trkpt><trkpt lat="45.37180305324379" lon="10.565795613415453"><ele>145.0</ele><time>2026-03-30T12:39:41Z</time></trkpt><trkpt lat="45.371868140213714" lon="10.565786264869006"><ele>145.0</ele><time>2026-03-30T12:39:42Z</time></trkpt><trkpt lat="45.37194754805999" lon="10.565777089529536"><ele>145.0</ele><time>2026-03-30T12:40:08Z</time></trkpt><trkpt lat="45.372017576330514" lon="10.565760180912354"><ele>145.0</ele><time>2026-03-30T12:40:09Z</time></trkpt><trkpt lat="45.372101645110256" lon="10.5657280234166"><ele>145.0</ele><time>2026-03-30T12:40:10Z</time></trkpt><trkpt lat="45.372192844969355" lon="10.565703243272237"><ele>145.0</ele><time>2026-03-30T12:40:11Z</time></trkpt><trkpt lat="45.37228908674984" lon="10.565682463783224"><ele>145.6</ele><time>2026-03-30T12:40:11.999Z</time></trkpt><trkpt lat="45.372373261613305" lon="10.565667253944584"><ele>146.2</ele><time>2026-03-30T12:40:12.999Z</time></trkpt><trkpt lat="45.37246745991286" lon="10.56566394980871"><ele>146.8</ele><time>2026-03-30T12:40:13.999Z</time></trkpt><trkpt lat="45.3725756551748" lon="10.565671589222253"><ele>147.4</ele><time>2026-03-30T12:40:14.999Z</time></trkpt><trkpt lat="45.37268009496568" lon="10.565691639838201"><ele>148.0</ele><time>2026-03-30T12:40:15.999Z</time></trkpt><trkpt lat="45.37278373885196" lon="10.565705599035226"><ele>148.0</ele><time>2026-03-30T12:40:16.999Z</time></trkpt><trkpt lat="45.37288346328702" lon="10.565692067060994"><ele>148.0</ele><time>2026-03-30T12:40:17.999Z</time></trkpt><trkpt lat="45.37297018403711" lon="10.565630671504316"><ele>148.0</ele><time>2026-03-30T12:40:18.999Z</time></trkpt><trkpt lat="45.373025452391076" lon="10.565542812496663"><ele>148.0</ele><time>2026-03-30T12:40:19.999Z</time></trkpt><trkpt lat="45.37306264289354" lon="10.565425901016372"><ele>148.0</ele><time>2026-03-30T12:40:20.999Z</time></trkpt><trkpt lat="45.373075716454686" lon="10.565292567775625"><ele>149.4</ele><time>2026-03-30T12:40:21.999Z</time></trkpt><trkpt lat="45.37307250133842" lon="10.565148877602274"><ele>150.8</ele><time>2026-03-30T12:40:22.999Z</time></trkpt><trkpt lat="45.37307706765117" lon="10.56500481595121"><ele>152.2</ele><time>2026-03-30T12:40:23.999Z</time></trkpt><trkpt lat="45.37308665819983" lon="10.56485207232655"><ele>153.6</ele><time>2026-03-30T12:40:24.999Z</time></trkpt><trkpt lat="45.37309286482246" lon="10.5646913767107"><ele>155.0</ele><time>2026-03-30T12:40:25.999Z</time></trkpt><trkpt lat="45.37309030032725" lon="10.564542424980848"><ele>157.2</ele><time>2026-03-30T12:40:26.999Z</time></trkpt><trkpt lat="45.373086701978416" lon="10.56440076904601"><ele>159.4</ele><time>2026-03-30T12:40:27.999Z</time></trkpt><trkpt lat="45.373102881726815" lon="10.564264852390629"><ele>161.60000000000002</ele><time>2026-03-30T12:40:28.999Z</time></trkpt><trkpt lat="45.37313885335805" lon="10.564135602799185"><ele>163.8</ele><time>2026-03-30T12:40:29.999Z</time></trkpt><trkpt lat="45.37319910925911" lon="10.564027326199232"><ele>166.0</ele><time>2026-03-30T12:40:30.999Z</time></trkpt><trkpt lat="45.37326713407155" lon="10.56393740752095"><ele>166.0</ele><time>2026-03-30T12:40:31.999Z</time></trkpt><trkpt lat="45.37333781236502" lon="10.5638362222876"><ele>166.0</ele><time>2026-03-30T12:40:32.999Z</time></trkpt><trkpt lat="45.37339454861625" lon="10.563708043715424"><ele>166.0</ele><time>2026-03-30T12:40:33.999Z</time></trkpt><trkpt lat="45.37345029536579" lon="10.563567107003392"><ele>166.0</ele><time>2026-03-30T12:40:34.999Z</time></trkpt><trkpt lat="45.37351508937963" lon="10.563418764006936"><ele>166.0</ele><time>2026-03-30T12:40:35.999Z</time></trkpt><trkpt lat="45.37359020072193" lon="10.563266586447709"><ele>166.5</ele><time>2026-03-30T12:40:36.999Z</time></trkpt><trkpt lat="45.373671985577865" lon="10.563117866194752"><ele>167.0</ele><time>2026-03-30T12:40:37.999Z</time></trkpt><trkpt lat="45.373762099314185" lon="10.562982574421898"><ele>167.5</ele><time>2026-03-30T12:40:38.999Z</time></trkpt><trkpt lat="45.37383877114542" lon="10.562872166347878"><ele>168.0</ele><time>2026-03-30T12:40:39.999Z</time></trkpt><trkpt lat="45.37389635969844" lon="10.562745439557117"><ele>168.0</ele><time>2026-03-30T12:40:40.999Z</time></trkpt><trkpt lat="45.37393838221762" lon="10.56262298817694"><ele>168.0</ele><time>2026-03-30T12:40:41.999Z</time></trkpt><trkpt lat="45.37395729713745" lon="10.562497041681052"><ele>168.0</ele><time>2026-03-30T12:40:42.999Z</time></trkpt><trkpt lat="45.373933183387344" lon="10.562400320243398"><ele>168.0</ele><time>2026-03-30T12:40:43.999Z</time></trkpt><trkpt lat="45.373877422570736" lon="10.562312110642525"><ele>168.0</ele><time>2026-03-30T12:40:44.999Z</time></trkpt><trkpt lat="45.37381913584508" lon="10.562235182972156"><ele>168.0</ele><time>2026-03-30T12:40:45.999Z</time></trkpt><trkpt lat="45.37376436884218" lon="10.562158149615954"><ele>168.8</ele><time>2026-03-30T12:40:46.999Z</time></trkpt><trkpt lat="45.37372030528722" lon="10.562069829291127"><ele>169.60000000000002</ele><time>2026-03-30T12:40:47.999Z</time></trkpt><trkpt lat="45.37370488737228" lon="10.561893802567544"><ele>170.39999999999998</ele><time>2026-03-30T12:40:49.999Z</time></trkpt><trkpt lat="45.373709670280384" lon="10.561793213634148"><ele>171.2</ele><time>2026-03-30T12:40:50.999Z</time></trkpt><trkpt lat="45.373713470113145" lon="10.561676763871603"><ele>172.0</ele><time>2026-03-30T12:40:51.999Z</time></trkpt><trkpt lat="45.3737158648033" lon="10.56152522457723"><ele>172.0</ele><time>2026-03-30T12:40:52.999Z</time></trkpt><trkpt lat="45.373710922280424" lon="10.561354274483476"><ele>172.0</ele><time>2026-03-30T12:40:53.999Z</time></trkpt><trkpt lat="45.373709980604026" lon="10.561196487338236"><ele>172.0</ele><time>2026-03-30T12:40:54.999Z</time></trkpt><trkpt lat="45.373708564868465" lon="10.561038962303915"><ele>172.0</ele><time>2026-03-30T12:40:55.999Z</time></trkpt><trkpt lat="45.37371230585654" lon="10.560892935797902"><ele>172.0</ele><time>2026-03-30T12:40:56.999Z</time></trkpt><trkpt lat="45.3737119262075" lon="10.560748014474708"><ele>170.6</ele><time>2026-03-30T12:40:57.999Z</time></trkpt><trkpt lat="45.37370936243114" lon="10.560605411532434"><ele>169.2</ele><time>2026-03-30T12:40:58.999Z</time></trkpt><trkpt lat="45.37370555080502" lon="10.560456166731006"><ele>167.8</ele><time>2026-03-30T12:40:59.999Z</time></trkpt><trkpt lat="45.373726529942545" lon="10.560307599493047"><ele>166.4</ele><time>2026-03-30T12:41:00.999Z</time></trkpt><trkpt lat="45.373767231792144" lon="10.560140407341343"><ele>165.0</ele><time>2026-03-30T12:41:01.999Z</time></trkpt><trkpt lat="45.37381225575279" lon="10.559988958986596"><ele>165.25</ele><time>2026-03-30T12:41:02.999Z</time></trkpt><trkpt lat="45.37385250316827" lon="10.559836472407865"><ele>165.5</ele><time>2026-03-30T12:41:03.999Z</time></trkpt><trkpt lat="45.37389226883327" lon="10.55969107046713"><ele>165.75</ele><time>2026-03-30T12:41:04.999Z</time></trkpt><trkpt lat="45.373933941364314" lon="10.55953761640491"><ele>166.0</ele><time>2026-03-30T12:41:05.999Z</time></trkpt><trkpt lat="45.37398250093144" lon="10.559383174919002"><ele>165.0</ele><time>2026-03-30T12:41:06.999Z</time></trkpt><trkpt lat="45.37403138282018" lon="10.559226812119102"><ele>164.0</ele><time>2026-03-30T12:41:07.999Z</time></trkpt><trkpt lat="45.37407075980775" lon="10.559086458251963"><ele>163.0</ele><time>2026-03-30T12:41:08.999Z</time></trkpt><trkpt lat="45.374101135579075" lon="10.5589455877813"><ele>162.0</ele><time>2026-03-30T12:41:09.999Z</time></trkpt><trkpt lat="45.37412744718456" lon="10.558815575526623"><ele>161.0</ele><time>2026-03-30T12:41:10.999Z</time></trkpt><trkpt lat="45.37414966967426" lon="10.558687770605838"><ele>160.60000000000002</ele><time>2026-03-30T12:41:11.999Z</time></trkpt><trkpt lat="45.374148149292246" lon="10.558568356266132"><ele>160.20000000000002</ele><time>2026-03-30T12:41:12.999Z</time></trkpt><trkpt lat="45.3741183841159" lon="10.5584545149114"><ele>159.8</ele><time>2026-03-30T12:41:13.999Z</time></trkpt><trkpt lat="45.37405125089441" lon="10.558365165529441"><ele>159.4</ele><time>2026-03-30T12:41:14.999Z</time></trkpt><trkpt lat="45.3739507191884" lon="10.558283123658393"><ele>159.0</ele><time>2026-03-30T12:41:15.999Z</time></trkpt><trkpt lat="45.373844310676056" lon="10.55821102213554"><ele>158.2</ele><time>2026-03-30T12:41:16.999Z</time></trkpt><trkpt lat="45.37374694248579" lon="10.5581554655178"><ele>157.4</ele><time>2026-03-30T12:41:17.999Z</time></trkpt><trkpt lat="45.37367549353475" lon="10.558102640823275"><ele>156.6</ele><time>2026-03-30T12:41:18.999Z</time></trkpt><trkpt lat="45.373584415142695" lon="10.55806776864514"><ele>155.8</ele><time>2026-03-30T12:41:19.999Z</time></trkpt><trkpt lat="45.3734966688692" lon="10.558063752417898"><ele>155.0</ele><time>2026-03-30T12:41:20.999Z</time></trkpt><trkpt lat="45.37341503876793" lon="10.558077045541316"><ele>155.0</ele><time>2026-03-30T12:41:21.998Z</time></trkpt><trkpt lat="45.37333438058299" lon="10.558090543729211"><ele>155.0</ele><time>2026-03-30T12:41:22.998Z</time></trkpt><trkpt lat="45.373263916051506" lon="10.558091161723816"><ele>155.0</ele><time>2026-03-30T12:41:23.998Z</time></trkpt><trkpt lat="45.37320287127785" lon="10.558062092113998"><ele>155.0</ele><time>2026-03-30T12:41:24.998Z</time></trkpt><trkpt lat="45.373150403888474" lon="10.557990788780376"><ele>155.0</ele><time>2026-03-30T12:41:25.998Z</time></trkpt><trkpt lat="45.373105638533026" lon="10.5578827158662"><ele>155.0</ele><time>2026-03-30T12:41:26.998Z</time></trkpt><trkpt lat="45.37307116958407" lon="10.557751284563528"><ele>154.8</ele><time>2026-03-30T12:41:27.998Z</time></trkpt><trkpt lat="45.373037516884075" lon="10.557603069613531"><ele>154.6</ele><time>2026-03-30T12:41:28.998Z</time></trkpt><trkpt lat="45.37300725129632" lon="10.55745941933617"><ele>154.4</ele><time>2026-03-30T12:41:29.998Z</time></trkpt><trkpt lat="45.37298182188284" lon="10.557324253624165"><ele>154.2</ele><time>2026-03-30T12:41:30.998Z</time></trkpt><trkpt lat="45.37295967990305" lon="10.557172899438015"><ele>154.0</ele><time>2026-03-30T12:41:31.998Z</time></trkpt><trkpt lat="45.3729569112997" lon="10.557019386877757"><ele>154.0</ele><time>2026-03-30T12:41:32.998Z</time></trkpt><trkpt lat="45.37297056627803" lon="10.556855312809434"><ele>154.0</ele><time>2026-03-30T12:41:33.998Z</time></trkpt><trkpt lat="45.37300607602908" lon="10.556708223110059"><ele>154.0</ele><time>2026-03-30T12:41:34.998Z</time></trkpt><trkpt lat="45.373039787573255" lon="10.55658057456815"><ele>154.0</ele><time>2026-03-30T12:41:35.998Z</time></trkpt><trkpt lat="45.37306974397206" lon="10.55645292836501"><ele>154.0</ele><time>2026-03-30T12:41:36.998Z</time></trkpt><trkpt lat="45.37309480064919" lon="10.556336721224918"><ele>153.33333333333334</ele><time>2026-03-30T12:41:37.998Z</time></trkpt><trkpt lat="45.37311402752056" lon="10.556221842351114"><ele>152.66666666666669</ele><time>2026-03-30T12:41:38.998Z</time></trkpt><trkpt lat="45.37311810408848" lon="10.556113738224377"><ele>152.0</ele><time>2026-03-30T12:41:39.998Z</time></trkpt><trkpt lat="45.37309479703635" lon="10.556000137773262"><ele>151.33333333333334</ele><time>2026-03-30T12:41:40.998Z</time></trkpt><trkpt lat="45.37304465709564" lon="10.555899845310494"><ele>150.66666666666666</ele><time>2026-03-30T12:41:41.998Z</time></trkpt><trkpt lat="45.37297315388143" lon="10.555804134699416"><ele>150.0</ele><time>2026-03-30T12:41:42.998Z</time></trkpt><trkpt lat="45.37288803223775" lon="10.555696516355113"><ele>149.75</ele><time>2026-03-30T12:41:43.998Z</time></trkpt><trkpt lat="45.37280712505025" lon="10.555581359956392"><ele>149.5</ele><time>2026-03-30T12:41:45Z</time></trkpt><trkpt lat="45.372726274095655" lon="10.555458395563031"><ele>149.25</ele><time>2026-03-30T12:41:46Z</time></trkpt><trkpt lat="45.37265135797621" lon="10.555333922042923"><ele>149.0</ele><time>2026-03-30T12:41:47Z</time></trkpt><trkpt lat="45.37256927466308" lon="10.555218103338998"><ele>148.4</ele><time>2026-03-30T12:41:48Z</time></trkpt><trkpt lat="45.372487554891855" lon="10.555116024207459"><ele>147.8</ele><time>2026-03-30T12:41:49Z</time></trkpt><trkpt lat="45.37241266666354" lon="10.555020800077362"><ele>147.2</ele><time>2026-03-30T12:41:50Z</time></trkpt><trkpt lat="45.37233839677602" lon="10.55492648638695"><ele>146.6</ele><time>2026-03-30T12:41:51Z</time></trkpt><trkpt lat="45.372261293991215" lon="10.554827494134734"><ele>146.0</ele><time>2026-03-30T12:41:52Z</time></trkpt><trkpt lat="45.37217907643427" lon="10.554720820015982"><ele>145.25</ele><time>2026-03-30T12:41:53Z</time></trkpt><trkpt lat="45.37209351482371" lon="10.554606343092956"><ele>144.5</ele><time>2026-03-30T12:41:54Z</time></trkpt><trkpt lat="45.37199535321267" lon="10.554471518923899"><ele>143.75</ele><time>2026-03-30T12:41:55Z</time></trkpt><trkpt lat="45.371905088913486" lon="10.554329295811847"><ele>143.0</ele><time>2026-03-30T12:41:56Z</time></trkpt><trkpt lat="45.37182769872632" lon="10.554196573429339"><ele>143.0</ele><time>2026-03-30T12:41:57Z</time></trkpt><trkpt lat="45.37176605852963" lon="10.554058358104117"><ele>143.0</ele><time>2026-03-30T12:41:58Z</time></trkpt><trkpt lat="45.371710551367855" lon="10.553915295544567"><ele>143.0</ele><time>2026-03-30T12:41:59Z</time></trkpt><trkpt lat="45.37165847705961" lon="10.553766582523348"><ele>143.0</ele><time>2026-03-30T12:42:00Z</time></trkpt><trkpt lat="45.371590459695476" lon="10.553618080221245"><ele>143.0</ele><time>2026-03-30T12:42:01Z</time></trkpt><trkpt lat="45.37149791560228" lon="10.553477060608003"><ele>143.0</ele><time>2026-03-30T12:42:02Z</time></trkpt><trkpt lat="45.37137858825263" lon="10.553341521974449"><ele>143.0</ele><time>2026-03-30T12:42:03Z</time></trkpt><trkpt lat="45.371249521865835" lon="10.553198025329971"><ele>141.75</ele><time>2026-03-30T12:42:04Z</time></trkpt><trkpt lat="45.3711269355296" lon="10.553055422080543"><ele>140.5</ele><time>2026-03-30T12:42:05Z</time></trkpt><trkpt lat="45.37101844062733" lon="10.552927465776033"><ele>139.25</ele><time>2026-03-30T12:42:06Z</time></trkpt><trkpt lat="45.370915712961576" lon="10.552809137457325"><ele>138.0</ele><time>2026-03-30T12:42:07Z</time></trkpt><trkpt lat="45.37081526026387" lon="10.552705550836622"><ele>138.0</ele><time>2026-03-30T12:42:08Z</time></trkpt><trkpt lat="45.37071298336775" lon="10.552621815299942"><ele>138.0</ele><time>2026-03-30T12:42:09Z</time></trkpt><trkpt lat="45.37060713200217" lon="10.552563245850255"><ele>138.0</ele><time>2026-03-30T12:42:10Z</time></trkpt><trkpt lat="45.370494352038996" lon="10.552542141030369"><ele>138.0</ele><time>2026-03-30T12:42:11Z</time></trkpt><trkpt lat="45.37040144326639" lon="10.552524831553727"><ele>138.0</ele><time>2026-03-30T12:42:12Z</time></trkpt><trkpt lat="45.370316159115326" lon="10.552501748366454"><ele>137.0</ele><time>2026-03-30T12:42:13Z</time></trkpt><trkpt lat="45.37026328117686" lon="10.552439876153008"><ele>136.0</ele><time>2026-03-30T12:42:14Z</time></trkpt><trkpt lat="45.370217057056905" lon="10.552265048489517"><ele>135.0</ele><time>2026-03-30T12:42:16Z</time></trkpt><trkpt lat="45.37020812000486" lon="10.552110037290515"><ele>134.0</ele><time>2026-03-30T12:42:17Z</time></trkpt><trkpt lat="45.37018970339082" lon="10.551939311140817"><ele>133.0</ele><time>2026-03-30T12:42:18Z</time></trkpt><trkpt lat="45.370173674884256" lon="10.551768833355245"><ele>133.0</ele><time>2026-03-30T12:42:18.999Z</time></trkpt><trkpt lat="45.370154831169145" lon="10.551617426112237"><ele>133.0</ele><time>2026-03-30T12:42:19.999Z</time></trkpt><trkpt lat="45.37013525867469" lon="10.551489157735155"><ele>133.0</ele><time>2026-03-30T12:42:20.999Z</time></trkpt><trkpt lat="45.370111079923426" lon="10.551369597598864"><ele>133.0</ele><time>2026-03-30T12:42:21.999Z</time></trkpt><trkpt lat="45.370089348191044" lon="10.55125304492077"><ele>133.0</ele><time>2026-03-30T12:42:22.999Z</time></trkpt><trkpt lat="45.37007102471198" lon="10.551150210929245"><ele>133.0</ele><time>2026-03-30T12:42:23.999Z</time></trkpt><trkpt lat="45.37004281695992" lon="10.55101838910853"><ele>133.33333333333334</ele><time>2026-03-30T12:42:24.999Z</time></trkpt><trkpt lat="45.37001356326717" lon="10.550902810335856"><ele>133.66666666666669</ele><time>2026-03-30T12:42:25.999Z</time></trkpt><trkpt lat="45.36998693484689" lon="10.550791965513934"><ele>134.0</ele><time>2026-03-30T12:42:26.999Z</time></trkpt><trkpt lat="45.36996575862058" lon="10.55069853025475"><ele>134.33333333333334</ele><time>2026-03-30T12:42:27.999Z</time></trkpt><trkpt lat="45.36992098001594" lon="10.550622974998843"><ele>134.66666666666666</ele><time>2026-03-30T12:42:28.999Z</time></trkpt><trkpt lat="45.3698758811152" lon="10.550535649151238"><ele>135.0</ele><time>2026-03-30T12:42:29.999Z</time></trkpt><trkpt lat="45.36982441606434" lon="10.550436509963879"><ele>134.5</ele><time>2026-03-30T12:42:30.999Z</time></trkpt><trkpt lat="45.369771925570674" lon="10.550338703133468"><ele>134.0</ele><time>2026-03-30T12:42:31.999Z</time></trkpt><trkpt lat="45.369724749294924" lon="10.550255116962076"><ele>133.5</ele><time>2026-03-30T12:42:32.999Z</time></trkpt><trkpt lat="45.36967980540643" lon="10.550160874232347"><ele>133.0</ele><time>2026-03-30T12:42:33.999Z</time></trkpt><trkpt lat="45.36963849496178" lon="10.550051133774126"><ele>132.5</ele><time>2026-03-30T12:42:34.999Z</time></trkpt><trkpt lat="45.36957633259685" lon="10.550000962554229"><ele>132.0</ele><time>2026-03-30T12:42:36.999Z</time></trkpt><trkpt lat="45.369516651481845" lon="10.549919876464013"><ele>131.16666666666666</ele><time>2026-03-30T12:42:38.999Z</time></trkpt><trkpt lat="45.36946128496829" lon="10.549833164612549"><ele>130.33333333333334</ele><time>2026-03-30T12:42:42.999Z</time></trkpt><trkpt lat="45.36941544407869" lon="10.549721833069997"><ele>129.5</ele><time>2026-03-30T12:42:45.999Z</time></trkpt><trkpt lat="45.36936602098577" lon="10.549644516427746"><ele>128.66666666666669</ele><time>2026-03-30T12:42:47.999Z</time></trkpt><trkpt lat="45.369339404942586" lon="10.549548750534257"><ele>127.83333333333334</ele><time>2026-03-30T12:42:49.999Z</time></trkpt><trkpt lat="45.36928631468989" lon="10.549459027106382"><ele>127.0</ele><time>2026-03-30T12:42:52.999Z</time></trkpt><trkpt lat="45.369226445042955" lon="10.549372081268054"><ele>126.8</ele><time>2026-03-30T12:42:54.999Z</time></trkpt><trkpt lat="45.3691682137899" lon="10.549267934420131"><ele>126.6</ele><time>2026-03-30T12:42:56.999Z</time></trkpt><trkpt lat="45.36911791341771" lon="10.549149903624617"><ele>126.39999999999999</ele><time>2026-03-30T12:42:58.999Z</time></trkpt><trkpt lat="45.36907788760341" lon="10.549048106475167"><ele>126.19999999999999</ele><time>2026-03-30T12:43:00.999Z</time></trkpt><trkpt lat="45.36901230765139" lon="10.548937300229653"><ele>126.0</ele><time>2026-03-30T12:43:02.999Z</time></trkpt><trkpt lat="45.36895349043161" lon="10.548850319823266"><ele>126.0</ele><time>2026-03-30T12:43:04.999Z</time></trkpt><trkpt lat="45.368903571350415" lon="10.548758477751942"><ele>126.0</ele><time>2026-03-30T12:43:06.999Z</time></trkpt><trkpt lat="45.36888519350191" lon="10.548627874474874"><ele>126.0</ele><time>2026-03-30T12:43:08.999Z</time></trkpt><trkpt lat="45.368855550414565" lon="10.548488906753253"><ele>126.0</ele><time>2026-03-30T12:43:10.999Z</time></trkpt><trkpt lat="45.36882938387266" lon="10.548357642158708"><ele>126.0</ele><time>2026-03-30T12:43:12.999Z</time></trkpt><trkpt lat="45.368849132227815" lon="10.548223910504985"><ele>125.19999999999999</ele><time>2026-03-30T12:43:14.999Z</time></trkpt><trkpt lat="45.36889570281224" lon="10.548124638140493"><ele>124.39999999999999</ele><time>2026-03-30T12:43:16.999Z</time></trkpt><trkpt lat="45.36898767238848" lon="10.548076989105983"><ele>123.6</ele><time>2026-03-30T12:43:18.999Z</time></trkpt><trkpt lat="45.36911487684519" lon="10.54805098320566"><ele>122.8</ele><time>2026-03-30T12:43:20.999Z</time></trkpt><trkpt lat="45.36919282208847" lon="10.548025692311583"><ele>122.0</ele><time>2026-03-30T12:43:21.999Z</time></trkpt><trkpt lat="45.3692611595351" lon="10.548012713467836"><ele>121.99999999999999</ele><time>2026-03-30T12:43:22.999Z</time></trkpt><trkpt lat="45.369335067817616" lon="10.547996192685135"><ele>122.0</ele><time>2026-03-30T12:43:23.999Z</time></trkpt><trkpt lat="45.36940714781177" lon="10.547988869817122"><ele>122.0</ele><time>2026-03-30T12:43:24.999Z</time></trkpt><trkpt lat="45.36948042071925" lon="10.547987615399318"><ele>122.0</ele><time>2026-03-30T12:43:25.999Z</time></trkpt><trkpt lat="45.36954880155477" lon="10.547977769205742"><ele>121.99999999999999</ele><time>2026-03-30T12:43:26.999Z</time></trkpt><trkpt lat="45.36961148998753" lon="10.54796914501417"><ele>122.0</ele><time>2026-03-30T12:43:27.998Z</time></trkpt><trkpt lat="45.36971644365985" lon="10.54795053435364"><ele>122.8</ele><time>2026-03-30T12:43:29.998Z</time></trkpt><trkpt lat="45.36980030799567" lon="10.547935783208288"><ele>123.6</ele><time>2026-03-30T12:43:31.998Z</time></trkpt><trkpt lat="45.36990895432261" lon="10.547924530164376"><ele>124.39999999999999</ele><time>2026-03-30T12:43:33.998Z</time></trkpt><trkpt lat="45.370032850997944" lon="10.547931416420386"><ele>125.19999999999999</ele><time>2026-03-30T12:43:35.998Z</time></trkpt><trkpt lat="45.37009552452114" lon="10.5479547830704"><ele>126.0</ele><time>2026-03-30T12:43:36.998Z</time></trkpt><trkpt lat="45.37016020969807" lon="10.547988075666524"><ele>126.0</ele><time>2026-03-30T12:43:37.998Z</time></trkpt><trkpt lat="45.370223567157694" lon="10.548023930682035"><ele>126.0</ele><time>2026-03-30T12:43:38.998Z</time></trkpt><trkpt lat="45.37029438284803" lon="10.548059177002045"><ele>126.0</ele><time>2026-03-30T12:43:39.998Z</time></trkpt><trkpt lat="45.37036152962943" lon="10.548099200049352"><ele>126.0</ele><time>2026-03-30T12:43:40.998Z</time></trkpt><trkpt lat="45.370434191306266" lon="10.548138665155692"><ele>126.0</ele><time>2026-03-30T12:43:41.998Z</time></trkpt><trkpt lat="45.37052233535969" lon="10.548179028595627"><ele>126.0</ele><time>2026-03-30T12:43:42.998Z</time></trkpt><trkpt lat="45.37060259370914" lon="10.548192165448716"><ele>126.16666666666667</ele><time>2026-03-30T12:43:43.998Z</time></trkpt><trkpt lat="45.370692288555766" lon="10.5481784451465"><ele>126.33333333333334</ele><time>2026-03-30T12:43:44.998Z</time></trkpt><trkpt lat="45.37078283385494" lon="10.548167066047048"><ele>126.5</ele><time>2026-03-30T12:43:45.998Z</time></trkpt><trkpt lat="45.370863516456325" lon="10.548170199962149"><ele>126.66666666666667</ele><time>2026-03-30T12:43:46.998Z</time></trkpt><trkpt lat="45.370955722441444" lon="10.548171435469413"><ele>126.83333333333334</ele><time>2026-03-30T12:43:47.998Z</time></trkpt><trkpt lat="45.37104670826112" lon="10.548171159935395"><ele>127.0</ele><time>2026-03-30T12:43:48.998Z</time></trkpt><trkpt lat="45.37114347053161" lon="10.548162449051494"><ele>127.0</ele><time>2026-03-30T12:43:49.998Z</time></trkpt><trkpt lat="45.37123746614892" lon="10.548152144616374"><ele>126.99999999999999</ele><time>2026-03-30T12:43:51Z</time></trkpt><trkpt lat="45.3713306389377" lon="10.548156163510967"><ele>126.99999999999999</ele><time>2026-03-30T12:43:52Z</time></trkpt><trkpt lat="45.37141627131456" lon="10.548172147067216"><ele>127.0</ele><time>2026-03-30T12:43:53Z</time></trkpt><trkpt lat="45.37150513937046" lon="10.548176504255009"><ele>127.0</ele><time>2026-03-30T12:43:54Z</time></trkpt><trkpt lat="45.37160354406353" lon="10.54818516322368"><ele>127.19999999999999</ele><time>2026-03-30T12:43:55Z</time></trkpt><trkpt lat="45.37170588245226" lon="10.548206737528595"><ele>127.39999999999999</ele><time>2026-03-30T12:43:56Z</time></trkpt><trkpt lat="45.37182042240103" lon="10.548164951424022"><ele>127.60000000000001</ele><time>2026-03-30T12:43:58Z</time></trkpt><trkpt lat="45.3719023769113" lon="10.548159382380181"><ele>127.80000000000001</ele><time>2026-03-30T12:43:59Z</time></trkpt><trkpt lat="45.37198172379597" lon="10.548153863980007"><ele>128.0</ele><time>2026-03-30T12:44:00Z</time></trkpt><trkpt lat="45.37205742772472" lon="10.548150672370669"><ele>128.0</ele><time>2026-03-30T12:44:01Z</time></trkpt><trkpt lat="45.37213773759544" lon="10.548127429093316"><ele>128.0</ele><time>2026-03-30T12:44:02Z</time></trkpt><trkpt lat="45.372208426993765" lon="10.548065212503987"><ele>128.0</ele><time>2026-03-30T12:44:03Z</time></trkpt><trkpt lat="45.37227467389625" lon="10.547972417510065"><ele>128.0</ele><time>2026-03-30T12:44:04Z</time></trkpt><trkpt lat="45.372354537915335" lon="10.547863127696381"><ele>128.0</ele><time>2026-03-30T12:44:04.999Z</time></trkpt><trkpt lat="45.3724410128964" lon="10.547773653291646"><ele>127.2</ele><time>2026-03-30T12:44:05.999Z</time></trkpt><trkpt lat="45.37253108112894" lon="10.547691982773058"><ele>126.4</ele><time>2026-03-30T12:44:06.999Z</time></trkpt><trkpt lat="45.37262262610821" lon="10.547602086380262"><ele>125.60000000000001</ele><time>2026-03-30T12:44:07.999Z</time></trkpt><trkpt lat="45.37270954685438" lon="10.54751662166185"><ele>124.80000000000001</ele><time>2026-03-30T12:44:08.999Z</time></trkpt><trkpt lat="45.37278820028544" lon="10.547449812527082"><ele>124.0</ele><time>2026-03-30T12:44:09.999Z</time></trkpt><trkpt lat="45.37286713817332" lon="10.547386950910974"><ele>124.0</ele><time>2026-03-30T12:44:10.999Z</time></trkpt><trkpt lat="45.37295173733974" lon="10.547293026553744"><ele>124.0</ele><time>2026-03-30T12:44:11.999Z</time></trkpt><trkpt lat="45.37303455357715" lon="10.54721625717553"><ele>124.0</ele><time>2026-03-30T12:44:12.999Z</time></trkpt><trkpt lat="45.37310874467012" lon="10.547141398477365"><ele>124.0</ele><time>2026-03-30T12:44:13.999Z</time></trkpt><trkpt lat="45.37318277045286" lon="10.54707367208067"><ele>124.0</ele><time>2026-03-30T12:44:14.999Z</time></trkpt><trkpt lat="45.37326345530004" lon="10.547001101039362"><ele>125.00000000000001</ele><time>2026-03-30T12:44:15.999Z</time></trkpt><trkpt lat="45.37334485002587" lon="10.54692649431401"><ele>126.0</ele><time>2026-03-30T12:44:16.999Z</time></trkpt><trkpt lat="45.37341471617475" lon="10.546854993874808"><ele>127.0</ele><time>2026-03-30T12:44:17.999Z</time></trkpt><trkpt lat="45.37347090559697" lon="10.546802465212705"><ele>128.0</ele><time>2026-03-30T12:44:18.999Z</time></trkpt><trkpt lat="45.3735488710949" lon="10.546690997087612"><ele>129.0</ele><time>2026-03-30T12:44:20.999Z</time></trkpt><trkpt lat="45.37354832717666" lon="10.546585472933272"><ele>130.0</ele><time>2026-03-30T12:44:22.999Z</time></trkpt><trkpt lat="45.37345084763506" lon="10.546480099117915"><ele>130.0</ele><time>2026-03-30T12:44:24.999Z</time></trkpt><trkpt lat="45.373395188508574" lon="10.54643337823919"><ele>130.0</ele><time>2026-03-30T12:44:25.999Z</time></trkpt><trkpt lat="45.37330257818747" lon="10.54636164871858"><ele>130.0</ele><time>2026-03-30T12:44:27.999Z</time></trkpt><trkpt lat="45.373236716101744" lon="10.54634182748024"><ele>130.0</ele><time>2026-03-30T12:44:29.999Z</time></trkpt><trkpt lat="45.37323214905893" lon="10.546222271335933"><ele>130.0</ele><time>2026-03-30T12:44:33.999Z</time></trkpt><trkpt lat="45.37332970352323" lon="10.546129730656268"><ele>130.0</ele><time>2026-03-30T12:44:35.999Z</time></trkpt><trkpt lat="45.37339580754365" lon="10.546066823169875"><ele>129.5</ele><time>2026-03-30T12:44:36.999Z</time></trkpt><trkpt lat="45.373455185148245" lon="10.546005290279187"><ele>129.0</ele><time>2026-03-30T12:44:37.999Z</time></trkpt><trkpt lat="45.37351163702025" lon="10.545937344421514"><ele>128.5</ele><time>2026-03-30T12:44:38.999Z</time></trkpt><trkpt lat="45.37356682955464" lon="10.545870684231513"><ele>128.0</ele><time>2026-03-30T12:44:39.999Z</time></trkpt><trkpt lat="45.37362639319675" lon="10.54580775603054"><ele>127.50000000000001</ele><time>2026-03-30T12:44:40.999Z</time></trkpt><trkpt lat="45.373684414910855" lon="10.545747218103683"><ele>127.0</ele><time>2026-03-30T12:44:41.999Z</time></trkpt><trkpt lat="45.373785179011044" lon="10.545631726378954"><ele>127.00000000000001</ele><time>2026-03-30T12:44:43.999Z</time></trkpt><trkpt lat="45.37383579822286" lon="10.545576161731512"><ele>127.0</ele><time>2026-03-30T12:44:44.999Z</time></trkpt><trkpt lat="45.373889016674326" lon="10.545500450716064"><ele>127.0</ele><time>2026-03-30T12:44:46.999Z</time></trkpt><trkpt lat="45.37385032251678" lon="10.545386886702355"><ele>127.0</ele><time>2026-03-30T12:44:49.999Z</time></trkpt><trkpt lat="45.373823259796154" lon="10.545234784693298"><ele>127.00000000000001</ele><time>2026-03-30T12:44:51.999Z</time></trkpt><trkpt lat="45.373868535255255" lon="10.545112396642281"><ele>127.0</ele><time>2026-03-30T12:44:53.999Z</time></trkpt><trkpt lat="45.37391974852626" lon="10.545042316299549"><ele>128.0</ele><time>2026-03-30T12:44:54.999Z</time></trkpt><trkpt lat="45.373973336836734" lon="10.54498554664495"><ele>129.0</ele><time>2026-03-30T12:44:55.999Z</time></trkpt><trkpt lat="45.374034014985355" lon="10.544937505809724"><ele>130.0</ele><time>2026-03-30T12:44:56.999Z</time></trkpt><trkpt lat="45.374098525367884" lon="10.54487203905798"><ele>131.0</ele><time>2026-03-30T12:44:57.999Z</time></trkpt><trkpt lat="45.374155152375" lon="10.54481920262257"><ele>132.0</ele><time>2026-03-30T12:44:58.999Z</time></trkpt><trkpt lat="45.374220407478234" lon="10.544748974619418"><ele>133.0</ele><time>2026-03-30T12:44:59.999Z</time></trkpt><trkpt lat="45.37428602564642" lon="10.544659277430972"><ele>133.0</ele><time>2026-03-30T12:45:00.999Z</time></trkpt><trkpt lat="45.374349958284014" lon="10.544591535774071"><ele>133.0</ele><time>2026-03-30T12:45:01.999Z</time></trkpt><trkpt lat="45.374412853301756" lon="10.544526109573988"><ele>133.0</ele><time>2026-03-30T12:45:02.999Z</time></trkpt><trkpt lat="45.37446855914053" lon="10.544469064418156"><ele>133.0</ele><time>2026-03-30T12:45:03.999Z</time></trkpt><trkpt lat="45.37453439305619" lon="10.544396242354262"><ele>133.0</ele><time>2026-03-30T12:45:04.999Z</time></trkpt><trkpt lat="45.37461128317641" lon="10.544319855904659"><ele>133.0</ele><time>2026-03-30T12:45:05.999Z</time></trkpt><trkpt lat="45.37468130793736" lon="10.544240918222513"><ele>132.5</ele><time>2026-03-30T12:45:06.999Z</time></trkpt><trkpt lat="45.37475400902086" lon="10.544180297114844"><ele>132.0</ele><time>2026-03-30T12:45:07.999Z</time></trkpt><trkpt lat="45.37482646491445" lon="10.544114325950876"><ele>131.5</ele><time>2026-03-30T12:45:08.999Z</time></trkpt><trkpt lat="45.37489500066171" lon="10.544068782054039"><ele>131.0</ele><time>2026-03-30T12:45:09.999Z</time></trkpt><trkpt lat="45.37495607072016" lon="10.543993412565738"><ele>130.5</ele><time>2026-03-30T12:45:10.999Z</time></trkpt><trkpt lat="45.37501846172371" lon="10.54390733742113"><ele>130.0</ele><time>2026-03-30T12:45:11.999Z</time></trkpt><trkpt lat="45.37507268356789" lon="10.543833600346844"><ele>130.0</ele><time>2026-03-30T12:45:12.999Z</time></trkpt><trkpt lat="45.37513897737163" lon="10.543767340080754"><ele>130.0</ele><time>2026-03-30T12:45:14.999Z</time></trkpt><trkpt lat="45.37523381635528" lon="10.543693069044345"><ele>130.0</ele><time>2026-03-30T12:45:17.999Z</time></trkpt><trkpt lat="45.3753384156102" lon="10.543636750675129"><ele>130.0</ele><time>2026-03-30T12:45:19.999Z</time></trkpt><trkpt lat="45.37542145080927" lon="10.543603578597132"><ele>130.0</ele><time>2026-03-30T12:45:21.999Z</time></trkpt><trkpt lat="45.375521567776424" lon="10.54356226295683"><ele>130.0</ele><time>2026-03-30T12:45:23.999Z</time></trkpt><trkpt lat="45.375603967229694" lon="10.54358194681119"><ele>130.0</ele><time>2026-03-30T12:45:25.998Z</time></trkpt><trkpt lat="45.375668155610164" lon="10.543721480021446"><ele>130.0</ele><time>2026-03-30T12:45:27.998Z</time></trkpt><trkpt lat="45.3756999004652" lon="10.543881840049167"><ele>130.0</ele><time>2026-03-30T12:45:29.998Z</time></trkpt><trkpt lat="45.37571067816949" lon="10.543978507567267"><ele>130.0</ele><time>2026-03-30T12:45:30.998Z</time></trkpt><trkpt lat="45.375720300820404" lon="10.54409166418678"><ele>130.0</ele><time>2026-03-30T12:45:31.998Z</time></trkpt><trkpt lat="45.375724511685995" lon="10.54420988189992"><ele>130.0</ele><time>2026-03-30T12:45:32.998Z</time></trkpt><trkpt lat="45.37572749148084" lon="10.54433029903152"><ele>130.0</ele><time>2026-03-30T12:45:33.998Z</time></trkpt><trkpt lat="45.37573428120502" lon="10.544455799837023"><ele>130.0</ele><time>2026-03-30T12:45:34.998Z</time></trkpt><trkpt lat="45.375736450772536" lon="10.544579803808753"><ele>130.0</ele><time>2026-03-30T12:45:35.998Z</time></trkpt><trkpt lat="45.375741001362755" lon="10.544707732939317"><ele>130.0</ele><time>2026-03-30T12:45:36.998Z</time></trkpt><trkpt lat="45.37574793800459" lon="10.544835977149695"><ele>131.2</ele><time>2026-03-30T12:45:37.998Z</time></trkpt><trkpt lat="45.37575160635184" lon="10.544981790819703"><ele>132.4</ele><time>2026-03-30T12:45:38.998Z</time></trkpt><trkpt lat="45.375752966844175" lon="10.545116622823798"><ele>133.6</ele><time>2026-03-30T12:45:39.998Z</time></trkpt><trkpt lat="45.37575674074558" lon="10.545271367583371"><ele>134.8</ele><time>2026-03-30T12:45:40.998Z</time></trkpt><trkpt lat="45.375758402258406" lon="10.54541878871018"><ele>136.0</ele><time>2026-03-30T12:45:41.998Z</time></trkpt><trkpt lat="45.37576120700665" lon="10.545565104403648"><ele>136.8</ele><time>2026-03-30T12:45:42.998Z</time></trkpt><trkpt lat="45.37576604664574" lon="10.54570769234564"><ele>137.6</ele><time>2026-03-30T12:45:43.998Z</time></trkpt><trkpt lat="45.37577570703478" lon="10.545836744452863"><ele>138.4</ele><time>2026-03-30T12:45:44.998Z</time></trkpt><trkpt lat="45.37578296161367" lon="10.545961565807081"><ele>139.2</ele><time>2026-03-30T12:45:45.998Z</time></trkpt><trkpt lat="45.375787502923934" lon="10.546080343302819"><ele>140.0</ele><time>2026-03-30T12:45:46.998Z</time></trkpt><trkpt lat="45.37578664771093" lon="10.546218810680397"><ele>140.6</ele><time>2026-03-30T12:45:47.998Z</time></trkpt><trkpt lat="45.37577456406694" lon="10.546367245233538"><ele>141.2</ele><time>2026-03-30T12:45:48.998Z</time></trkpt><trkpt lat="45.375769139785646" lon="10.546547953030467"><ele>141.8</ele><time>2026-03-30T12:45:49.998Z</time></trkpt><trkpt lat="45.37576561080208" lon="10.546672848174103"><ele>142.4</ele><time>2026-03-30T12:45:50.998Z</time></trkpt><trkpt lat="45.375769176438865" lon="10.546780681928011"><ele>143.0</ele><time>2026-03-30T12:45:51.998Z</time></trkpt><trkpt lat="45.37579448630058" lon="10.546941514917602"><ele>143.0</ele><time>2026-03-30T12:45:53.998Z</time></trkpt><trkpt lat="45.375887632016344" lon="10.54704017790132"><ele>143.0</ele><time>2026-03-30T12:45:55.998Z</time></trkpt><trkpt lat="45.375956346897716" lon="10.547041107506693"><ele>143.0</ele><time>2026-03-30T12:45:57Z</time></trkpt><trkpt lat="45.376019090582716" lon="10.547000183022382"><ele>143.0</ele><time>2026-03-30T12:45:58Z</time></trkpt><trkpt lat="45.37608372200952" lon="10.54691891916917"><ele>143.0</ele><time>2026-03-30T12:45:59Z</time></trkpt><trkpt lat="45.37616854220112" lon="10.546851500861631"><ele>143.0</ele><time>2026-03-30T12:46:00Z</time></trkpt><trkpt lat="45.37624786645661" lon="10.546798093731446"><ele>143.0</ele><time>2026-03-30T12:46:01Z</time></trkpt><trkpt lat="45.37632783137873" lon="10.546751827672416"><ele>143.0</ele><time>2026-03-30T12:46:02Z</time></trkpt><trkpt lat="45.37640872055631" lon="10.54670377701371"><ele>143.0</ele><time>2026-03-30T12:46:03Z</time></trkpt><trkpt lat="45.376505599620984" lon="10.546667838199351"><ele>143.0</ele><time>2026-03-30T12:46:04Z</time></trkpt><trkpt lat="45.37661402983268" lon="10.546629993199877"><ele>143.0</ele><time>2026-03-30T12:46:05Z</time></trkpt><trkpt lat="45.37672481405796" lon="10.54661046958101"><ele>142.6</ele><time>2026-03-30T12:46:06Z</time></trkpt><trkpt lat="45.37684003981593" lon="10.546572285256154"><ele>142.20000000000002</ele><time>2026-03-30T12:46:07Z</time></trkpt><trkpt lat="45.37694407780045" lon="10.546503017555876"><ele>141.8</ele><time>2026-03-30T12:46:08Z</time></trkpt><trkpt lat="45.377026876585035" lon="10.546428090440644"><ele>141.4</ele><time>2026-03-30T12:46:09Z</time></trkpt><trkpt lat="45.37709328854609" lon="10.546367821695412"><ele>141.0</ele><time>2026-03-30T12:46:10Z</time></trkpt><trkpt lat="45.37715165487318" lon="10.54631109561667"><ele>141.0</ele><time>2026-03-30T12:46:11Z</time></trkpt><trkpt lat="45.37720334667632" lon="10.546247660575114"><ele>141.0</ele><time>2026-03-30T12:46:12Z</time></trkpt><trkpt lat="45.377300552394935" lon="10.546177549349169"><ele>141.0</ele><time>2026-03-30T12:46:14Z</time></trkpt><trkpt lat="45.377364772601645" lon="10.546250945390582"><ele>141.0</ele><time>2026-03-30T12:46:17Z</time></trkpt><trkpt lat="45.377503691841746" lon="10.546301984663812"><ele>141.0</ele><time>2026-03-30T12:46:19Z</time></trkpt><trkpt lat="45.377594972873865" lon="10.546285245737447"><ele>141.0</ele><time>2026-03-30T12:46:20Z</time></trkpt><trkpt lat="45.37768399622303" lon="10.546262215949737"><ele>141.0</ele><time>2026-03-30T12:46:21Z</time></trkpt><trkpt lat="45.377778971590836" lon="10.546224774110177"><ele>141.0</ele><time>2026-03-30T12:46:22Z</time></trkpt><trkpt lat="45.37787696060928" lon="10.546172208548178"><ele>141.0</ele><time>2026-03-30T12:46:23Z</time></trkpt><trkpt lat="45.377977530534785" lon="10.546095382605486"><ele>141.0</ele><time>2026-03-30T12:46:24Z</time></trkpt><trkpt lat="45.37806914798652" lon="10.545999571313082"><ele>139.4</ele><time>2026-03-30T12:46:25Z</time></trkpt><trkpt lat="45.37815711103299" lon="10.545892413453336"><ele>137.8</ele><time>2026-03-30T12:46:26Z</time></trkpt><trkpt lat="45.37823635409125" lon="10.545783967263102"><ele>136.20000000000002</ele><time>2026-03-30T12:46:27Z</time></trkpt><trkpt lat="45.378314206174835" lon="10.545693018006304"><ele>134.6</ele><time>2026-03-30T12:46:28Z</time></trkpt><trkpt lat="45.37839531948317" lon="10.545610094011518"><ele>133.0</ele><time>2026-03-30T12:46:29Z</time></trkpt><trkpt lat="45.378478788877985" lon="10.545533930081636"><ele>133.0</ele><time>2026-03-30T12:46:30Z</time></trkpt><trkpt lat="45.378567227004616" lon="10.545453588011606"><ele>133.0</ele><time>2026-03-30T12:46:31Z</time></trkpt><trkpt lat="45.37866438227521" lon="10.545401890123383"><ele>133.0</ele><time>2026-03-30T12:46:32Z</time></trkpt><trkpt lat="45.378780335331676" lon="10.545378488208396"><ele>133.0</ele><time>2026-03-30T12:46:33Z</time></trkpt><trkpt lat="45.37889697933088" lon="10.545406550387582"><ele>133.0</ele><time>2026-03-30T12:46:33.999Z</time></trkpt><trkpt lat="45.37902632692288" lon="10.545485592248793"><ele>131.5</ele><time>2026-03-30T12:46:34.999Z</time></trkpt><trkpt lat="45.37915930972878" lon="10.545582255682762"><ele>130.0</ele><time>2026-03-30T12:46:35.999Z</time></trkpt><trkpt lat="45.37927816460841" lon="10.545687838311622"><ele>128.5</ele><time>2026-03-30T12:46:36.999Z</time></trkpt><trkpt lat="45.379384382068665" lon="10.545783076493281"><ele>127.0</ele><time>2026-03-30T12:46:37.999Z</time></trkpt><trkpt lat="45.37948338631969" lon="10.54586510541234"><ele>127.0</ele><time>2026-03-30T12:46:38.999Z</time></trkpt><trkpt lat="45.37957689514009" lon="10.545942211148432"><ele>126.99999999999999</ele><time>2026-03-30T12:46:39.999Z</time></trkpt><trkpt lat="45.37966101832942" lon="10.546010431365751"><ele>126.99999999999999</ele><time>2026-03-30T12:46:40.999Z</time></trkpt><trkpt lat="45.379739084680565" lon="10.546060006030983"><ele>127.0</ele><time>2026-03-30T12:46:41.999Z</time></trkpt><trkpt lat="45.3798085181329" lon="10.546093689380632"><ele>127.0</ele><time>2026-03-30T12:46:42.999Z</time></trkpt><trkpt lat="45.37989232931448" lon="10.546217911221335"><ele>126.83333333333334</ele><time>2026-03-30T12:46:44.999Z</time></trkpt><trkpt lat="45.37989805453177" lon="10.546324844105461"><ele>126.66666666666667</ele><time>2026-03-30T12:46:45.999Z</time></trkpt><trkpt lat="45.37986873181667" lon="10.546446026794404"><ele>126.5</ele><time>2026-03-30T12:46:46.999Z</time></trkpt><trkpt lat="45.37982517781867" lon="10.546568266755564"><ele>126.33333333333334</ele><time>2026-03-30T12:46:47.999Z</time></trkpt><trkpt lat="45.37977403037366" lon="10.546689088344614"><ele>126.16666666666667</ele><time>2026-03-30T12:46:48.999Z</time></trkpt><trkpt lat="45.379726786445644" lon="10.54678302869166"><ele>126.0</ele><time>2026-03-30T12:46:49.999Z</time></trkpt><trkpt lat="45.379660441312744" lon="10.546867302638404"><ele>126.0</ele><time>2026-03-30T12:46:50.999Z</time></trkpt><trkpt lat="45.37958800051686" lon="10.546969738803917"><ele>126.0</ele><time>2026-03-30T12:46:51.999Z</time></trkpt><trkpt lat="45.37952213502837" lon="10.547053748739192"><ele>126.0</ele><time>2026-03-30T12:46:52.999Z</time></trkpt><trkpt lat="45.37944999777579" lon="10.547152477662546"><ele>126.0</ele><time>2026-03-30T12:46:53.999Z</time></trkpt><trkpt lat="45.379382935424765" lon="10.547228265831874"><ele>126.0</ele><time>2026-03-30T12:46:54.999Z</time></trkpt><trkpt lat="45.37930318610676" lon="10.547297036123549"><ele>125.33333333333333</ele><time>2026-03-30T12:46:55.999Z</time></trkpt><trkpt lat="45.37922714807725" lon="10.547348272601207"><ele>124.66666666666666</ele><time>2026-03-30T12:46:56.999Z</time></trkpt><trkpt lat="45.37915454875611" lon="10.54739657645818"><ele>124.0</ele><time>2026-03-30T12:46:57.999Z</time></trkpt><trkpt lat="45.37909761453035" lon="10.547436957748062"><ele>123.33333333333333</ele><time>2026-03-30T12:46:58.999Z</time></trkpt><trkpt lat="45.37905322410428" lon="10.547511007810249"><ele>122.66666666666666</ele><time>2026-03-30T12:46:59.999Z</time></trkpt><trkpt lat="45.37903039359514" lon="10.547614301394015"><ele>122.0</ele><time>2026-03-30T12:47:00.999Z</time></trkpt><trkpt lat="45.37901502893408" lon="10.5477363860997"><ele>121.0</ele><time>2026-03-30T12:47:01.999Z</time></trkpt><trkpt lat="45.37900336100865" lon="10.547882291099812"><ele>119.99999999999999</ele><time>2026-03-30T12:47:02.999Z</time></trkpt><trkpt lat="45.37898809269397" lon="10.548030519922785"><ele>118.99999999999999</ele><time>2026-03-30T12:47:03.999Z</time></trkpt><trkpt lat="45.37898141027187" lon="10.54817465143604"><ele>118.0</ele><time>2026-03-30T12:47:04.999Z</time></trkpt><trkpt lat="45.37897503945524" lon="10.548301594333505"><ele>117.0</ele><time>2026-03-30T12:47:05.999Z</time></trkpt><trkpt lat="45.378962916591405" lon="10.54841723967132"><ele>117.0</ele><time>2026-03-30T12:47:06.999Z</time></trkpt><trkpt lat="45.37894845503241" lon="10.548522715784122"><ele>117.00000000000001</ele><time>2026-03-30T12:47:07.999Z</time></trkpt><trkpt lat="45.378936893702935" lon="10.548629787871855"><ele>117.0</ele><time>2026-03-30T12:47:08.999Z</time></trkpt><trkpt lat="45.378932660259125" lon="10.548734382026494"><ele>117.0</ele><time>2026-03-30T12:47:09.999Z</time></trkpt><trkpt lat="45.37893427235582" lon="10.548836395548127"><ele>117.00000000000001</ele><time>2026-03-30T12:47:10.999Z</time></trkpt><trkpt lat="45.37894509263692" lon="10.548930991388053"><ele>117.0</ele><time>2026-03-30T12:47:11.999Z</time></trkpt><trkpt lat="45.37896587738303" lon="10.549026887661862"><ele>117.0</ele><time>2026-03-30T12:47:12.999Z</time></trkpt><trkpt lat="45.37900035661857" lon="10.549179350465703"><ele>117.19999999999999</ele><time>2026-03-30T12:47:14.999Z</time></trkpt><trkpt lat="45.378990007489584" lon="10.54930703040541"><ele>117.39999999999999</ele><time>2026-03-30T12:47:16.999Z</time></trkpt><trkpt lat="45.37897261633562" lon="10.54945805374703"><ele>117.60000000000001</ele><time>2026-03-30T12:47:18.999Z</time></trkpt><trkpt lat="45.37893445131556" lon="10.54959217713297"><ele>117.80000000000001</ele><time>2026-03-30T12:47:20.999Z</time></trkpt><trkpt lat="45.37888335382401" lon="10.549773536820036"><ele>118.0</ele><time>2026-03-30T12:47:22.999Z</time></trkpt><trkpt lat="45.37885129731118" lon="10.549883449951317"><ele>119.2</ele><time>2026-03-30T12:47:23.999Z</time></trkpt><trkpt lat="45.37877246328289" lon="10.550099224482183"><ele>120.4</ele><time>2026-03-30T12:47:25.999Z</time></trkpt><trkpt lat="45.378737119362064" lon="10.55020764841414"><ele>121.60000000000001</ele><time>2026-03-30T12:47:26.999Z</time></trkpt><trkpt lat="45.378704042148826" lon="10.550308984240495"><ele>122.80000000000001</ele><time>2026-03-30T12:47:27.999Z</time></trkpt><trkpt lat="45.378678021545085" lon="10.550426423866744"><ele>124.0</ele><time>2026-03-30T12:47:28.999Z</time></trkpt><trkpt lat="45.37866309280996" lon="10.55055430079378"><ele>124.50000000000001</ele><time>2026-03-30T12:47:29.999Z</time></trkpt><trkpt lat="45.37866020894374" lon="10.55066589805187"><ele>125.0</ele><time>2026-03-30T12:47:30.999Z</time></trkpt><trkpt lat="45.3786572642011" lon="10.550788753764722"><ele>125.5</ele><time>2026-03-30T12:47:31.999Z</time></trkpt><trkpt lat="45.378646532249654" lon="10.550891072188604"><ele>126.0</ele><time>2026-03-30T12:47:32.999Z</time></trkpt><trkpt lat="45.37864401139388" lon="10.550987134429517"><ele>126.50000000000001</ele><time>2026-03-30T12:47:33.999Z</time></trkpt><trkpt lat="45.37863185691261" lon="10.551091464828907"><ele>127.0</ele><time>2026-03-30T12:47:34.999Z</time></trkpt><trkpt lat="45.378620692175225" lon="10.551192570322392"><ele>127.16666666666667</ele><time>2026-03-30T12:47:35.999Z</time></trkpt><trkpt lat="45.37861255326604" lon="10.551298919388804"><ele>127.33333333333334</ele><time>2026-03-30T12:47:36.999Z</time></trkpt><trkpt lat="45.378605562202644" lon="10.551401358760053"><ele>127.5</ele><time>2026-03-30T12:47:37.999Z</time></trkpt><trkpt lat="45.37859632516199" lon="10.551491962060277"><ele>127.66666666666666</ele><time>2026-03-30T12:47:38.999Z</time></trkpt><trkpt lat="45.37858879266426" lon="10.551582065049486"><ele>127.83333333333333</ele><time>2026-03-30T12:47:39.999Z</time></trkpt><trkpt lat="45.378576610241176" lon="10.551749518681326"><ele>128.0</ele><time>2026-03-30T12:47:41.999Z</time></trkpt><trkpt lat="45.37862998506837" lon="10.551898143699304"><ele>128.0</ele><time>2026-03-30T12:47:43.998Z</time></trkpt><trkpt lat="45.37869854714458" lon="10.551967821840904"><ele>128.0</ele><time>2026-03-30T12:47:44.998Z</time></trkpt><trkpt lat="45.378782760632305" lon="10.552043509120423"><ele>128.0</ele><time>2026-03-30T12:47:45.998Z</time></trkpt><trkpt lat="45.37887388280134" lon="10.552121464157784"><ele>128.0</ele><time>2026-03-30T12:47:46.998Z</time></trkpt><trkpt lat="45.378956492225505" lon="10.552211497946118"><ele>128.0</ele><time>2026-03-30T12:47:47.998Z</time></trkpt><trkpt lat="45.37903770379184" lon="10.55231324403205"><ele>126.0</ele><time>2026-03-30T12:47:48.998Z</time></trkpt><trkpt lat="45.37910389303362" lon="10.55242014492162"><ele>124.00000000000001</ele><time>2026-03-30T12:47:49.998Z</time></trkpt><trkpt lat="45.379165451883246" lon="10.552528040931099"><ele>122.00000000000001</ele><time>2026-03-30T12:47:50.998Z</time></trkpt><trkpt lat="45.37923200777276" lon="10.552641409729622"><ele>120.0</ele><time>2026-03-30T12:47:51.998Z</time></trkpt><trkpt lat="45.379322070305264" lon="10.552742946835679"><ele>118.0</ele><time>2026-03-30T12:47:52.998Z</time></trkpt><trkpt lat="45.37942069833605" lon="10.552828238391287"><ele>118.0</ele><time>2026-03-30T12:47:53.998Z</time></trkpt><trkpt lat="45.379541590236755" lon="10.55289708020837"><ele>118.0</ele><time>2026-03-30T12:47:54.998Z</time></trkpt><trkpt lat="45.37965651050505" lon="10.552935290389188"><ele>118.0</ele><time>2026-03-30T12:47:55.998Z</time></trkpt><trkpt lat="45.379770294464414" lon="10.55299195491639"><ele>118.0</ele><time>2026-03-30T12:47:56.998Z</time></trkpt><trkpt lat="45.37989534423156" lon="10.553061350961354"><ele>119.25</ele><time>2026-03-30T12:47:57.998Z</time></trkpt><trkpt lat="45.38001055030122" lon="10.553148576760748"><ele>120.5</ele><time>2026-03-30T12:47:58.998Z</time></trkpt><trkpt lat="45.38011723180762" lon="10.553225781390726"><ele>121.75</ele><time>2026-03-30T12:47:59.998Z</time></trkpt><trkpt lat="45.3802094487014" lon="10.553274991581354"><ele>123.0</ele><time>2026-03-30T12:48:00.998Z</time></trkpt><trkpt lat="45.38031837270534" lon="10.55331294612057"><ele>123.0</ele><time>2026-03-30T12:48:03Z</time></trkpt><trkpt lat="45.38037889164418" lon="10.553288009626392"><ele>123.00000000000001</ele><time>2026-03-30T12:48:05Z</time></trkpt><trkpt lat="45.380394574806" lon="10.553160111896425"><ele>123.00000000000001</ele><time>2026-03-30T12:48:07Z</time></trkpt><trkpt lat="45.380379087621485" lon="10.553036100487503"><ele>123.0</ele><time>2026-03-30T12:48:08Z</time></trkpt><trkpt lat="45.380371558994085" lon="10.552892336862506"><ele>123.0</ele><time>2026-03-30T12:48:09Z</time></trkpt><trkpt lat="45.380381465059955" lon="10.552742554045189"><ele>123.25</ele><time>2026-03-30T12:48:10Z</time></trkpt><trkpt lat="45.38042180488605" lon="10.552610455988429"><ele>123.5</ele><time>2026-03-30T12:48:11Z</time></trkpt><trkpt lat="45.380450581062625" lon="10.552516745388266"><ele>123.75</ele><time>2026-03-30T12:48:12Z</time></trkpt><trkpt lat="45.38056483828742" lon="10.552301455017794"><ele>124.0</ele><time>2026-03-30T12:48:14Z</time></trkpt><trkpt lat="45.380666623056044" lon="10.55221238423943"><ele>124.0</ele><time>2026-03-30T12:48:15Z</time></trkpt><trkpt lat="45.38078680628862" lon="10.552131017298981"><ele>124.0</ele><time>2026-03-30T12:48:16Z</time></trkpt><trkpt lat="45.38091561749408" lon="10.55203991727619"><ele>124.0</ele><time>2026-03-30T12:48:17Z</time></trkpt><trkpt lat="45.38102397181339" lon="10.55196854196498"><ele>124.0</ele><time>2026-03-30T12:48:18Z</time></trkpt><trkpt lat="45.38114813269688" lon="10.551883172460409"><ele>124.25</ele><time>2026-03-30T12:48:19Z</time></trkpt><trkpt lat="45.38127178510041" lon="10.551787841478255"><ele>124.5</ele><time>2026-03-30T12:48:20Z</time></trkpt><trkpt lat="45.38140266691252" lon="10.551683094846652"><ele>124.75</ele><time>2026-03-30T12:48:21Z</time></trkpt><trkpt lat="45.3815268853123" lon="10.5516015189506"><ele>125.0</ele><time>2026-03-30T12:48:22Z</time></trkpt><trkpt lat="45.38166710903798" lon="10.55151494461283"><ele>125.0</ele><time>2026-03-30T12:48:23Z</time></trkpt><trkpt lat="45.38180798576383" lon="10.551433438490433"><ele>125.0</ele><time>2026-03-30T12:48:24Z</time></trkpt><trkpt lat="45.38195479506392" lon="10.551357714152596"><ele>125.0</ele><time>2026-03-30T12:48:25Z</time></trkpt><trkpt lat="45.38211111581738" lon="10.551287009676958"><ele>125.0</ele><time>2026-03-30T12:48:26Z</time></trkpt><trkpt lat="45.38226752261836" lon="10.551229235309265"><ele>125.0</ele><time>2026-03-30T12:48:27Z</time></trkpt><trkpt lat="45.3824299489216" lon="10.551164127402687"><ele>125.0</ele><time>2026-03-30T12:48:28Z</time></trkpt><trkpt lat="45.382593826045344" lon="10.55108311537653"><ele>125.66666666666666</ele><time>2026-03-30T12:48:29Z</time></trkpt><trkpt lat="45.38275963216645" lon="10.550986765880632"><ele>126.33333333333334</ele><time>2026-03-30T12:48:30Z</time></trkpt><trkpt lat="45.3829094590199" lon="10.550895256048754"><ele>127.0</ele><time>2026-03-30T12:48:31Z</time></trkpt><trkpt lat="45.383046973256384" lon="10.550779565374132"><ele>127.25</ele><time>2026-03-30T12:48:32Z</time></trkpt><trkpt lat="45.383170574541346" lon="10.550652730318747"><ele>127.5</ele><time>2026-03-30T12:48:33Z</time></trkpt><trkpt lat="45.38327912088487" lon="10.550533843406116"><ele>127.75</ele><time>2026-03-30T12:48:34Z</time></trkpt><trkpt lat="45.38339516466426" lon="10.550430316394182"><ele>128.0</ele><time>2026-03-30T12:48:35Z</time></trkpt><trkpt lat="45.38351460248852" lon="10.550348681344257"><ele>128.0</ele><time>2026-03-30T12:48:36Z</time></trkpt><trkpt lat="45.38364468293885" lon="10.550248766661836"><ele>128.0</ele><time>2026-03-30T12:48:37Z</time></trkpt><trkpt lat="45.38376290284911" lon="10.550172206803214"><ele>128.0</ele><time>2026-03-30T12:48:38Z</time></trkpt><trkpt lat="45.38389057844174" lon="10.550105265145577"><ele>128.0</ele><time>2026-03-30T12:48:39Z</time></trkpt><trkpt lat="45.384005363029004" lon="10.550044337576551"><ele>129.5</ele><time>2026-03-30T12:48:40Z</time></trkpt><trkpt lat="45.384130815097556" lon="10.549968710416252"><ele>131.0</ele><time>2026-03-30T12:48:40.999Z</time></trkpt><trkpt lat="45.38425393048765" lon="10.549914665004712"><ele>132.5</ele><time>2026-03-30T12:48:41.999Z</time></trkpt><trkpt lat="45.38436836862042" lon="10.549859633311886"><ele>134.0</ele><time>2026-03-30T12:48:42.999Z</time></trkpt><trkpt lat="45.384472119224895" lon="10.549790287083045"><ele>134.0</ele><time>2026-03-30T12:48:43.999Z</time></trkpt><trkpt lat="45.38457517934472" lon="10.549735727537136"><ele>134.0</ele><time>2026-03-30T12:48:44.999Z</time></trkpt><trkpt lat="45.38466319543076" lon="10.549685888501847"><ele>134.0</ele><time>2026-03-30T12:48:45.999Z</time></trkpt><trkpt lat="45.38475829551397" lon="10.549621375518953"><ele>134.0</ele><time>2026-03-30T12:48:46.999Z</time></trkpt><trkpt lat="45.38484773607227" lon="10.549544226611134"><ele>134.0</ele><time>2026-03-30T12:48:47.999Z</time></trkpt><trkpt lat="45.38493732785294" lon="10.549461655282748"><ele>132.75</ele><time>2026-03-30T12:48:48.999Z</time></trkpt><trkpt lat="45.38502808387154" lon="10.549367858071129"><ele>131.5</ele><time>2026-03-30T12:48:49.999Z</time></trkpt><trkpt lat="45.385131840892114" lon="10.549250242404927"><ele>130.25</ele><time>2026-03-30T12:48:50.999Z</time></trkpt><trkpt lat="45.38523643822606" lon="10.54912784037195"><ele>129.0</ele><time>2026-03-30T12:48:51.999Z</time></trkpt><trkpt lat="45.38534906235734" lon="10.548986921415358"><ele>129.0</ele><time>2026-03-30T12:48:52.999Z</time></trkpt><trkpt lat="45.38545200938974" lon="10.548825753569757"><ele>129.0</ele><time>2026-03-30T12:48:53.999Z</time></trkpt><trkpt lat="45.38554402660777" lon="10.548675803539801"><ele>129.0</ele><time>2026-03-30T12:48:54.999Z</time></trkpt><trkpt lat="45.38563383715247" lon="10.548545791572515"><ele>129.0</ele><time>2026-03-30T12:48:55.999Z</time></trkpt><trkpt lat="45.38571594650678" lon="10.548426527179819"><ele>128.0</ele><time>2026-03-30T12:48:56.999Z</time></trkpt><trkpt lat="45.38579844283834" lon="10.54833871715223"><ele>127.0</ele><time>2026-03-30T12:48:57.999Z</time></trkpt><trkpt lat="45.38590011033341" lon="10.548267994077229"><ele>126.0</ele><time>2026-03-30T12:48:58.999Z</time></trkpt><trkpt lat="45.386017012622936" lon="10.54819551727233"><ele>125.0</ele><time>2026-03-30T12:48:59.999Z</time></trkpt><trkpt lat="45.386149407320644" lon="10.54810899949276"><ele>125.0</ele><time>2026-03-30T12:49:00.999Z</time></trkpt><trkpt lat="45.386277558176715" lon="10.547989845235698"><ele>125.0</ele><time>2026-03-30T12:49:01.999Z</time></trkpt><trkpt lat="45.38639623618304" lon="10.54786008347417"><ele>125.0</ele><time>2026-03-30T12:49:02.999Z</time></trkpt><trkpt lat="45.38650462212336" lon="10.547746665902348"><ele>125.0</ele><time>2026-03-30T12:49:03.999Z</time></trkpt><trkpt lat="45.386597168057264" lon="10.547651989327852"><ele>125.0</ele><time>2026-03-30T12:49:04.999Z</time></trkpt><trkpt lat="45.386676493666094" lon="10.547566094736942"><ele>125.0</ele><time>2026-03-30T12:49:05.999Z</time></trkpt><trkpt lat="45.38674426376578" lon="10.547490367981162"><ele>125.0</ele><time>2026-03-30T12:49:06.999Z</time></trkpt><trkpt lat="45.386815664686154" lon="10.547412856702401"><ele>125.0</ele><time>2026-03-30T12:49:07.999Z</time></trkpt><trkpt lat="45.38689924452683" lon="10.547332530468104"><ele>125.0</ele><time>2026-03-30T12:49:08.999Z</time></trkpt><trkpt lat="45.386985584471816" lon="10.547256969819873"><ele>125.0</ele><time>2026-03-30T12:49:09.999Z</time></trkpt><trkpt lat="45.38707200790054" lon="10.54716900702302"><ele>125.0</ele><time>2026-03-30T12:49:10.999Z</time></trkpt><trkpt lat="45.38716000973645" lon="10.547077335659454"><ele>125.0</ele><time>2026-03-30T12:49:11.999Z</time></trkpt><trkpt lat="45.38724138964958" lon="10.546996285340866"><ele>125.0</ele><time>2026-03-30T12:49:12.999Z</time></trkpt><trkpt lat="45.38731512847555" lon="10.546923461950925"><ele>125.0</ele><time>2026-03-30T12:49:13.999Z</time></trkpt><trkpt lat="45.387381241388724" lon="10.546865393767215"><ele>124.8</ele><time>2026-03-30T12:49:14.999Z</time></trkpt><trkpt lat="45.38743979941246" lon="10.546810927341651"><ele>124.6</ele><time>2026-03-30T12:49:15.999Z</time></trkpt><trkpt lat="45.38752946952099" lon="10.546713172874313"><ele>124.4</ele><time>2026-03-30T12:49:17.999Z</time></trkpt><trkpt lat="45.387529542512915" lon="10.546577013763358"><ele>124.2</ele><time>2026-03-30T12:49:19.999Z</time></trkpt><trkpt lat="45.3874508536232" lon="10.546426722118944"><ele>124.0</ele><time>2026-03-30T12:49:21.999Z</time></trkpt><trkpt lat="45.38741761552553" lon="10.546307341807214"><ele>123.80000000000001</ele><time>2026-03-30T12:49:22.999Z</time></trkpt><trkpt lat="45.387388679998864" lon="10.546184273041174"><ele>123.60000000000001</ele><time>2026-03-30T12:49:23.999Z</time></trkpt><trkpt lat="45.387337876354096" lon="10.546037411303885"><ele>123.4</ele><time>2026-03-30T12:49:24.999Z</time></trkpt><trkpt lat="45.38728386295039" lon="10.545915956261183"><ele>123.2</ele><time>2026-03-30T12:49:25.999Z</time></trkpt><trkpt lat="45.387219452515616" lon="10.545808518326544"><ele>123.0</ele><time>2026-03-30T12:49:26.999Z</time></trkpt><trkpt lat="45.387153458420336" lon="10.545721299966132"><ele>122.80000000000001</ele><time>2026-03-30T12:49:27.999Z</time></trkpt><trkpt lat="45.38708431942144" lon="10.545632897876517"><ele>122.60000000000001</ele><time>2026-03-30T12:49:28.999Z</time></trkpt><trkpt lat="45.38702328662711" lon="10.545546375570815"><ele>122.39999999999999</ele><time>2026-03-30T12:49:29.999Z</time></trkpt><trkpt lat="45.386953822906825" lon="10.545432113818693"><ele>122.19999999999999</ele><time>2026-03-30T12:49:30.999Z</time></trkpt><trkpt lat="45.38689021553404" lon="10.545310775031263"><ele>122.0</ele><time>2026-03-30T12:49:31.999Z</time></trkpt><trkpt lat="45.386836342675096" lon="10.5451954141334"><ele>122.0</ele><time>2026-03-30T12:49:32.999Z</time></trkpt><trkpt lat="45.38677462378254" lon="10.54509885621938"><ele>121.99999999999999</ele><time>2026-03-30T12:49:33.999Z</time></trkpt><trkpt lat="45.386696374890505" lon="10.545005648953497"><ele>121.99999999999999</ele><time>2026-03-30T12:49:34.999Z</time></trkpt><trkpt lat="45.38659850632303" lon="10.544921267162408"><ele>122.0</ele><time>2026-03-30T12:49:35.999Z</time></trkpt><trkpt lat="45.38651734808268" lon="10.544874426846766"><ele>122.0</ele><time>2026-03-30T12:49:36.999Z</time></trkpt><trkpt lat="45.3864358460633" lon="10.544827101426845"><ele>122.0</ele><time>2026-03-30T12:49:37.999Z</time></trkpt><trkpt lat="45.38635491427243" lon="10.5447565900732"><ele>121.99999999999999</ele><time>2026-03-30T12:49:38.999Z</time></trkpt><trkpt lat="45.38627579927988" lon="10.544676127160557"><ele>121.99999999999999</ele><time>2026-03-30T12:49:39.999Z</time></trkpt><trkpt lat="45.38618892901112" lon="10.54457930254369"><ele>122.0</ele><time>2026-03-30T12:49:40.999Z</time></trkpt><trkpt lat="45.38611517193073" lon="10.544475885416679"><ele>122.0</ele><time>2026-03-30T12:49:41.999Z</time></trkpt><trkpt lat="45.38606806760227" lon="10.54439056648581"><ele>121.19999999999999</ele><time>2026-03-30T12:49:42.999Z</time></trkpt><trkpt lat="45.386055396958945" lon="10.544225914388205"><ele>120.39999999999999</ele><time>2026-03-30T12:49:44.999Z</time></trkpt><trkpt lat="45.38609310520937" lon="10.54411481417936"><ele>119.60000000000001</ele><time>2026-03-30T12:49:45.999Z</time></trkpt><trkpt lat="45.3861428318402" lon="10.543984757211335"><ele>118.80000000000001</ele><time>2026-03-30T12:49:46.999Z</time></trkpt><trkpt lat="45.386179728072875" lon="10.543847758652355"><ele>118.0</ele><time>2026-03-30T12:49:47.999Z</time></trkpt><trkpt lat="45.38621340148116" lon="10.543716676681031"><ele>117.80000000000001</ele><time>2026-03-30T12:49:48.999Z</time></trkpt><trkpt lat="45.386252093957" lon="10.543588607617215"><ele>117.60000000000001</ele><time>2026-03-30T12:49:49.998Z</time></trkpt><trkpt lat="45.38628622241036" lon="10.543456451761847"><ele>117.39999999999999</ele><time>2026-03-30T12:49:50.998Z</time></trkpt><trkpt lat="45.38632305267571" lon="10.54333187601288"><ele>117.19999999999999</ele><time>2026-03-30T12:49:51.998Z</time></trkpt><trkpt lat="45.386356208386395" lon="10.54319203702438"><ele>117.0</ele><time>2026-03-30T12:49:52.998Z</time></trkpt><trkpt lat="45.38639830474047" lon="10.543033087842367"><ele>118.0</ele><time>2026-03-30T12:49:53.998Z</time></trkpt><trkpt lat="45.38643452527462" lon="10.542866108215126"><ele>118.99999999999999</ele><time>2026-03-30T12:49:54.998Z</time></trkpt><trkpt lat="45.38646864911527" lon="10.542716164961565"><ele>119.99999999999999</ele><time>2026-03-30T12:49:55.998Z</time></trkpt><trkpt lat="45.386498822890644" lon="10.54257009995825"><ele>121.0</ele><time>2026-03-30T12:49:56.998Z</time></trkpt><trkpt lat="45.38653390988059" lon="10.542442864233694"><ele>122.0</ele><time>2026-03-30T12:49:57.998Z</time></trkpt><trkpt lat="45.3865540498173" lon="10.542316783692053"><ele>121.99999999999999</ele><time>2026-03-30T12:49:58.998Z</time></trkpt><trkpt lat="45.386554897301515" lon="10.542190447844796"><ele>122.0</ele><time>2026-03-30T12:49:59.998Z</time></trkpt><trkpt lat="45.38653834135006" lon="10.542067676884116"><ele>122.0</ele><time>2026-03-30T12:50:00.998Z</time></trkpt><trkpt lat="45.3865180974523" lon="10.541950717560018"><ele>122.0</ele><time>2026-03-30T12:50:01.998Z</time></trkpt><trkpt lat="45.38651161698497" lon="10.541843058041524"><ele>121.99999999999999</ele><time>2026-03-30T12:50:02.998Z</time></trkpt><trkpt lat="45.38652983401539" lon="10.541727623261298"><ele>122.0</ele><time>2026-03-30T12:50:03.998Z</time></trkpt><trkpt lat="45.386555638227065" lon="10.541638416148498"><ele>122.25</ele><time>2026-03-30T12:50:04.998Z</time></trkpt><trkpt lat="45.38653917782553" lon="10.541496329124515"><ele>122.5</ele><time>2026-03-30T12:50:06.998Z</time></trkpt><trkpt lat="45.386430409129225" lon="10.54138606975143"><ele>122.75</ele><time>2026-03-30T12:50:09Z</time></trkpt><trkpt lat="45.38631983682427" lon="10.541312903751992"><ele>123.0</ele><time>2026-03-30T12:50:10Z</time></trkpt><trkpt lat="45.38621931065228" lon="10.541250908149891"><ele>122.2</ele><time>2026-03-30T12:50:11Z</time></trkpt><trkpt lat="45.38613922258378" lon="10.541195008178562"><ele>121.4</ele><time>2026-03-30T12:50:12Z</time></trkpt><trkpt lat="45.38605922694385" lon="10.54111544924333"><ele>120.60000000000001</ele><time>2026-03-30T12:50:13Z</time></trkpt><trkpt lat="45.385972415339054" lon="10.541043874316124"><ele>119.80000000000001</ele><time>2026-03-30T12:50:14Z</time></trkpt><trkpt lat="45.385873244796116" lon="10.540964958665015"><ele>119.0</ele><time>2026-03-30T12:50:15Z</time></trkpt><trkpt lat="45.38577601775962" lon="10.540900028119156"><ele>119.0</ele><time>2026-03-30T12:50:16Z</time></trkpt><trkpt lat="45.38568334983394" lon="10.540838421210916"><ele>119.0</ele><time>2026-03-30T12:50:17Z</time></trkpt><trkpt lat="45.385593664637106" lon="10.540766176756618"><ele>119.0</ele><time>2026-03-30T12:50:18Z</time></trkpt><trkpt lat="45.385499186112945" lon="10.540696831362926"><ele>119.0</ele><time>2026-03-30T12:50:19Z</time></trkpt><trkpt lat="45.38539714295682" lon="10.54063771001052"><ele>119.0</ele><time>2026-03-30T12:50:20Z</time></trkpt><trkpt lat="45.38530182536942" lon="10.54057656056612"><ele>118.75</ele><time>2026-03-30T12:50:21Z</time></trkpt><trkpt lat="45.38521124191124" lon="10.540507731970745"><ele>118.5</ele><time>2026-03-30T12:50:22Z</time></trkpt><trkpt lat="45.38509080057268" lon="10.540449942818109"><ele>118.25</ele><time>2026-03-30T12:50:23Z</time></trkpt><trkpt lat="45.38497446040934" lon="10.54040328888205"><ele>118.0</ele><time>2026-03-30T12:50:24Z</time></trkpt><trkpt lat="45.384870272398125" lon="10.540332005830864"><ele>118.60000000000001</ele><time>2026-03-30T12:50:25Z</time></trkpt><trkpt lat="45.38477054464283" lon="10.54027160130255"><ele>119.20000000000002</ele><time>2026-03-30T12:50:26Z</time></trkpt><trkpt lat="45.38465216028108" lon="10.54021340599944"><ele>119.8</ele><time>2026-03-30T12:50:27Z</time></trkpt><trkpt lat="45.38455656741104" lon="10.540148078243606"><ele>120.4</ele><time>2026-03-30T12:50:28Z</time></trkpt><trkpt lat="45.38445642903003" lon="10.540089495438087"><ele>121.0</ele><time>2026-03-30T12:50:29Z</time></trkpt><trkpt lat="45.38434465760224" lon="10.54005559315928"><ele>121.4</ele><time>2026-03-30T12:50:30Z</time></trkpt><trkpt lat="45.38423615068769" lon="10.540052502949102"><ele>121.8</ele><time>2026-03-30T12:50:31Z</time></trkpt><trkpt lat="45.38413153120715" lon="10.54007359910674"><ele>122.20000000000002</ele><time>2026-03-30T12:50:32Z</time></trkpt><trkpt lat="45.38404070697394" lon="10.54010896022307"><ele>122.60000000000001</ele><time>2026-03-30T12:50:33Z</time></trkpt><trkpt lat="45.38396770652539" lon="10.540193172391112"><ele>123.0</ele><time>2026-03-30T12:50:34Z</time></trkpt><trkpt lat="45.383919368242374" lon="10.540314277279787"><ele>122.4</ele><time>2026-03-30T12:50:35Z</time></trkpt><trkpt lat="45.383875765096754" lon="10.540440518576553"><ele>121.80000000000001</ele><time>2026-03-30T12:50:36Z</time></trkpt><trkpt lat="45.38382165959209" lon="10.54056682874359"><ele>121.2</ele><time>2026-03-30T12:50:37Z</time></trkpt><trkpt lat="45.38375735818942" lon="10.540680673518374"><ele>120.6</ele><time>2026-03-30T12:50:38Z</time></trkpt><trkpt lat="45.38368421575343" lon="10.540775681481467"><ele>120.0</ele><time>2026-03-30T12:50:39Z</time></trkpt><trkpt lat="45.38361082128964" lon="10.5408495800795"><ele>120.0</ele><time>2026-03-30T12:50:40Z</time></trkpt><trkpt lat="45.38351439978253" lon="10.540937306798444"><ele>120.0</ele><time>2026-03-30T12:50:41Z</time></trkpt><trkpt lat="45.383435328335715" lon="10.541007499261994"><ele>120.0</ele><time>2026-03-30T12:50:42Z</time></trkpt><trkpt lat="45.38336712224091" lon="10.541066659658304"><ele>120.0</ele><time>2026-03-30T12:50:43Z</time></trkpt><trkpt lat="45.38330356747898" lon="10.54111233847414"><ele>120.0</ele><time>2026-03-30T12:50:44Z</time></trkpt><trkpt lat="45.38321170191395" lon="10.54109465547107"><ele>120.0</ele><time>2026-03-30T12:50:46Z</time></trkpt><trkpt lat="45.38316367008488" lon="10.54096891785891"><ele>120.0</ele><time>2026-03-30T12:50:47.999Z</time></trkpt><trkpt lat="45.38314139882784" lon="10.540862963455938"><ele>120.0</ele><time>2026-03-30T12:50:48.999Z</time></trkpt><trkpt lat="45.383087744887646" lon="10.540763977836566"><ele>120.0</ele><time>2026-03-30T12:50:49.999Z</time></trkpt><trkpt lat="45.383028299105746" lon="10.540680135260082"><ele>120.0</ele><time>2026-03-30T12:50:50.999Z</time></trkpt><trkpt lat="45.38296353691882" lon="10.540619452045213"><ele>120.0</ele><time>2026-03-30T12:50:51.999Z</time></trkpt><trkpt lat="45.382874268696206" lon="10.540603899112995"><ele>120.83333333333333</ele><time>2026-03-30T12:50:52.999Z</time></trkpt><trkpt lat="45.38279925791425" lon="10.540593079247538"><ele>121.66666666666666</ele><time>2026-03-30T12:50:53.999Z</time></trkpt><trkpt lat="45.382730538926886" lon="10.540600181982983"><ele>122.5</ele><time>2026-03-30T12:50:54.999Z</time></trkpt><trkpt lat="45.38264752624046" lon="10.540589071924572"><ele>123.33333333333333</ele><time>2026-03-30T12:50:55.999Z</time></trkpt><trkpt lat="45.38256644190586" lon="10.540559041825501"><ele>124.16666666666666</ele><time>2026-03-30T12:50:56.999Z</time></trkpt><trkpt lat="45.38246806058786" lon="10.540520004022742"><ele>125.0</ele><time>2026-03-30T12:50:57.999Z</time></trkpt><trkpt lat="45.38236280265583" lon="10.540479073294513"><ele>125.0</ele><time>2026-03-30T12:50:58.999Z</time></trkpt><trkpt lat="45.38224979147934" lon="10.540444453367128"><ele>125.0</ele><time>2026-03-30T12:50:59.999Z</time></trkpt><trkpt lat="45.38214367219691" lon="10.540418141116634"><ele>125.0</ele><time>2026-03-30T12:51:00.999Z</time></trkpt><trkpt lat="45.382076267796556" lon="10.540410972294193"><ele>125.0</ele><time>2026-03-30T12:51:01.999Z</time></trkpt><trkpt lat="45.38199560991477" lon="10.540425516204191"><ele>125.0</ele><time>2026-03-30T12:51:02.999Z</time></trkpt><trkpt lat="45.381908685002706" lon="10.540440864310145"><ele>127.4</ele><time>2026-03-30T12:51:03.999Z</time></trkpt><trkpt lat="45.38183048506088" lon="10.540478856079366"><ele>129.8</ele><time>2026-03-30T12:51:04.999Z</time></trkpt><trkpt lat="45.38176855301427" lon="10.54053431737615"><ele>132.2</ele><time>2026-03-30T12:51:05.999Z</time></trkpt><trkpt lat="45.38171610310712" lon="10.540619444594139"><ele>134.6</ele><time>2026-03-30T12:51:06.999Z</time></trkpt><trkpt lat="45.38165223112446" lon="10.540739335819527"><ele>137.0</ele><time>2026-03-30T12:51:07.999Z</time></trkpt><trkpt lat="45.3815741370267" lon="10.540856084017282"><ele>137.0</ele><time>2026-03-30T12:51:08.999Z</time></trkpt><trkpt lat="45.381474448617155" lon="10.540940748726221"><ele>137.0</ele><time>2026-03-30T12:51:09.999Z</time></trkpt><trkpt lat="45.38137519812367" lon="10.540990023333165"><ele>137.0</ele><time>2026-03-30T12:51:10.999Z</time></trkpt><trkpt lat="45.38128754885746" lon="10.54102237778263"><ele>137.0</ele><time>2026-03-30T12:51:11.999Z</time></trkpt><trkpt lat="45.381221906029836" lon="10.541064031363799"><ele>137.0</ele><time>2026-03-30T12:51:12.999Z</time></trkpt><trkpt lat="45.38116033559434" lon="10.541120264988187"><ele>137.2</ele><time>2026-03-30T12:51:13.999Z</time></trkpt><trkpt lat="45.38109232377475" lon="10.541168545632157"><ele>137.39999999999998</ele><time>2026-03-30T12:51:14.999Z</time></trkpt><trkpt lat="45.38101047495015" lon="10.541190945474437"><ele>137.60000000000002</ele><time>2026-03-30T12:51:15.999Z</time></trkpt><trkpt lat="45.38091337237244" lon="10.541184920302815"><ele>137.8</ele><time>2026-03-30T12:51:16.999Z</time></trkpt><trkpt lat="45.38081173233894" lon="10.541162593187867"><ele>138.0</ele><time>2026-03-30T12:51:17.999Z</time></trkpt><trkpt lat="45.380718692840674" lon="10.541118602383486"><ele>138.0</ele><time>2026-03-30T12:51:18.999Z</time></trkpt><trkpt lat="45.38063488265218" lon="10.541049674071076"><ele>138.0</ele><time>2026-03-30T12:51:19.999Z</time></trkpt><trkpt lat="45.38058563061238" lon="10.540973398931019"><ele>138.0</ele><time>2026-03-30T12:51:20.999Z</time></trkpt><trkpt lat="45.38060034721498" lon="10.540854877417715"><ele>138.0</ele><time>2026-03-30T12:51:22.999Z</time></trkpt><trkpt lat="45.380704732413015" lon="10.5407576667924"><ele>138.0</ele><time>2026-03-30T12:51:24.999Z</time></trkpt><trkpt lat="45.380755114639086" lon="10.540693136250741"><ele>138.0</ele><time>2026-03-30T12:51:25.999Z</time></trkpt><trkpt lat="45.38083835768756" lon="10.540572590853658"><ele>138.0</ele><time>2026-03-30T12:51:27.999Z</time></trkpt><trkpt lat="45.38089072326965" lon="10.540496241814406"><ele>138.0</ele><time>2026-03-30T12:51:29.999Z</time></trkpt><trkpt lat="45.380861947718714" lon="10.540350868573274"><ele>138.0</ele><time>2026-03-30T12:51:31.999Z</time></trkpt><trkpt lat="45.380824713886085" lon="10.540252285300989"><ele>138.0</ele><time>2026-03-30T12:51:32.999Z</time></trkpt><trkpt lat="45.38079841643209" lon="10.540145686985056"><ele>138.0</ele><time>2026-03-30T12:51:33.999Z</time></trkpt><trkpt lat="45.380768052771465" lon="10.540052211474146"><ele>138.0</ele><time>2026-03-30T12:51:34.999Z</time></trkpt><trkpt lat="45.38070861856284" lon="10.53997695744983"><ele>138.0</ele><time>2026-03-30T12:51:35.999Z</time></trkpt><trkpt lat="45.38062072379147" lon="10.539937898327953"><ele>138.0</ele><time>2026-03-30T12:51:36.999Z</time></trkpt><trkpt lat="45.380513067746776" lon="10.539919468068936"><ele>138.0</ele><time>2026-03-30T12:51:37.999Z</time></trkpt><trkpt lat="45.38041127185496" lon="10.539909155447493"><ele>138.0</ele><time>2026-03-30T12:51:38.999Z</time></trkpt><trkpt lat="45.3802961868578" lon="10.539908811840322"><ele>138.0</ele><time>2026-03-30T12:51:39.999Z</time></trkpt><trkpt lat="45.38017706776337" lon="10.53992784178196"><ele>138.75</ele><time>2026-03-30T12:51:40.999Z</time></trkpt><trkpt lat="45.38004672209847" lon="10.53994742990837"><ele>139.5</ele><time>2026-03-30T12:51:41.999Z</time></trkpt><trkpt lat="45.37990261991931" lon="10.53997105919324"><ele>140.25</ele><time>2026-03-30T12:51:42.999Z</time></trkpt><trkpt lat="45.3797502343884" lon="10.540030275336088"><ele>141.0</ele><time>2026-03-30T12:51:43.999Z</time></trkpt><trkpt lat="45.379585659210505" lon="10.540125868939255"><ele>142.33333333333334</ele><time>2026-03-30T12:51:44.999Z</time></trkpt><trkpt lat="45.37941132891893" lon="10.54024873283762"><ele>143.66666666666669</ele><time>2026-03-30T12:51:45.999Z</time></trkpt><trkpt lat="45.37926299452433" lon="10.540363043788053"><ele>145.0</ele><time>2026-03-30T12:51:46.999Z</time></trkpt><trkpt lat="45.37914250547362" lon="10.540468988805655"><ele>145.0</ele><time>2026-03-30T12:51:47.999Z</time></trkpt><trkpt lat="45.37903923028515" lon="10.540565215948394"><ele>145.0</ele><time>2026-03-30T12:51:48.999Z</time></trkpt><trkpt lat="45.37892863156959" lon="10.540657135764809"><ele>145.0</ele><time>2026-03-30T12:51:49.999Z</time></trkpt><trkpt lat="45.37882492646521" lon="10.540750571033287"><ele>145.0</ele><time>2026-03-30T12:51:50.999Z</time></trkpt><trkpt lat="45.37873606750195" lon="10.540835690411248"><ele>145.33333333333334</ele><time>2026-03-30T12:51:51.999Z</time></trkpt><trkpt lat="45.378660148437596" lon="10.540928433406348"><ele>145.66666666666669</ele><time>2026-03-30T12:51:52.999Z</time></trkpt><trkpt lat="45.37859725093814" lon="10.541028701735474"><ele>146.0</ele><time>2026-03-30T12:51:53.999Z</time></trkpt><trkpt lat="45.37856223666357" lon="10.54113307725491"><ele>146.33333333333334</ele><time>2026-03-30T12:51:54.999Z</time></trkpt><trkpt lat="45.37854861453875" lon="10.54123130324148"><ele>146.66666666666666</ele><time>2026-03-30T12:51:55.999Z</time></trkpt><trkpt lat="45.37852417809271" lon="10.541323937488812"><ele>147.0</ele><time>2026-03-30T12:51:56.998Z</time></trkpt><trkpt lat="45.378479615033115" lon="10.541389451893055"><ele>147.0</ele><time>2026-03-30T12:51:59.998Z</time></trkpt><trkpt lat="45.37841238281545" lon="10.541330835890717"><ele>147.0</ele><time>2026-03-30T12:53:10.999Z</time></trkpt><trkpt lat="45.37841586017906" lon="10.541230792666811"><ele>147.0</ele><time>2026-03-30T12:53:11.999Z</time></trkpt><trkpt lat="45.37842914755398" lon="10.541133083716362"><ele>147.0</ele><time>2026-03-30T12:53:12.999Z</time></trkpt><trkpt lat="45.37843695658772" lon="10.541028498042168"><ele>147.0</ele><time>2026-03-30T12:53:13.999Z</time></trkpt><trkpt lat="45.378449879266356" lon="10.540918015212394"><ele>147.0</ele><time>2026-03-30T12:53:14.999Z</time></trkpt><trkpt lat="45.378471476783936" lon="10.540813910384419"><ele>147.0</ele><time>2026-03-30T12:53:15.999Z</time></trkpt><trkpt lat="45.37849866282681" lon="10.540707400098357"><ele>148.0</ele><time>2026-03-30T12:53:16.999Z</time></trkpt><trkpt lat="45.378537829342584" lon="10.540604461305353"><ele>149.0</ele><time>2026-03-30T12:53:17.999Z</time></trkpt><trkpt lat="45.37857746630274" lon="10.540499258581512"><ele>150.0</ele><time>2026-03-30T12:53:18.999Z</time></trkpt><trkpt lat="45.378621050171816" lon="10.540387923460667"><ele>151.0</ele><time>2026-03-30T12:53:19.999Z</time></trkpt><trkpt lat="45.37866432154591" lon="10.540281300744654"><ele>152.0</ele><time>2026-03-30T12:53:20.999Z</time></trkpt><trkpt lat="45.3787116746045" lon="10.540166526583343"><ele>153.0</ele><time>2026-03-30T12:53:21.999Z</time></trkpt><trkpt lat="45.3787557162777" lon="10.540053303725072"><ele>152.8</ele><time>2026-03-30T12:53:22.999Z</time></trkpt><trkpt lat="45.3788007124431" lon="10.539935351147347"><ele>152.60000000000002</ele><time>2026-03-30T12:53:23.999Z</time></trkpt><trkpt lat="45.378848396426314" lon="10.539808627665204"><ele>152.39999999999998</ele><time>2026-03-30T12:53:24.999Z</time></trkpt><trkpt lat="45.37890148159573" lon="10.539691426536919"><ele>152.2</ele><time>2026-03-30T12:53:25.999Z</time></trkpt><trkpt lat="45.37895331564583" lon="10.53958282103733"><ele>152.0</ele><time>2026-03-30T12:53:26.999Z</time></trkpt><trkpt lat="45.37899606892869" lon="10.53947415478179"><ele>152.66666666666666</ele><time>2026-03-30T12:53:27.999Z</time></trkpt><trkpt lat="45.37903383184629" lon="10.539373089250724"><ele>153.33333333333331</ele><time>2026-03-30T12:53:28.999Z</time></trkpt><trkpt lat="45.37907032615311" lon="10.539283539016843"><ele>154.0</ele><time>2026-03-30T12:53:29.999Z</time></trkpt><trkpt lat="45.379108611988975" lon="10.539190039643135"><ele>154.66666666666666</ele><time>2026-03-30T12:53:30.999Z</time></trkpt><trkpt lat="45.37915153534414" lon="10.539086952972717"><ele>155.33333333333334</ele><time>2026-03-30T12:53:31.999Z</time></trkpt><trkpt lat="45.3791969617636" lon="10.538973578640261"><ele>156.0</ele><time>2026-03-30T12:53:32.999Z</time></trkpt><trkpt lat="45.37924664206649" lon="10.538849207543945"><ele>156.0</ele><time>2026-03-30T12:53:33.999Z</time></trkpt><trkpt lat="45.379297377807085" lon="10.538718117869255"><ele>156.0</ele><time>2026-03-30T12:53:34.999Z</time></trkpt><trkpt lat="45.37934771538409" lon="10.538580573061163"><ele>156.0</ele><time>2026-03-30T12:53:35.999Z</time></trkpt><trkpt lat="45.37940552667789" lon="10.538443204301498"><ele>156.0</ele><time>2026-03-30T12:53:36.999Z</time></trkpt><trkpt lat="45.379463166683884" lon="10.538305232034665"><ele>156.0</ele><time>2026-03-30T12:53:37.999Z</time></trkpt><trkpt lat="45.379518447158034" lon="10.538163145014046"><ele>157.0</ele><time>2026-03-30T12:53:38.999Z</time></trkpt><trkpt lat="45.37957612225933" lon="10.538014440504082"><ele>158.0</ele><time>2026-03-30T12:53:39.999Z</time></trkpt><trkpt lat="45.37963676230733" lon="10.53786553262856"><ele>159.0</ele><time>2026-03-30T12:53:40.999Z</time></trkpt><trkpt lat="45.379695092249655" lon="10.537712047275667"><ele>160.0</ele><time>2026-03-30T12:53:41.999Z</time></trkpt><trkpt lat="45.37975530160784" lon="10.537557817076452"><ele>159.25</ele><time>2026-03-30T12:53:42.999Z</time></trkpt><trkpt lat="45.379813173938274" lon="10.537408325347377"><ele>158.5</ele><time>2026-03-30T12:53:43.999Z</time></trkpt><trkpt lat="45.37987242635176" lon="10.537258227508666"><ele>157.75</ele><time>2026-03-30T12:53:44.999Z</time></trkpt><trkpt lat="45.37993071073316" lon="10.537113947863936"><ele>157.0</ele><time>2026-03-30T12:53:45.999Z</time></trkpt><trkpt lat="45.37998519133352" lon="10.536968842335261"><ele>157.0</ele><time>2026-03-30T12:53:46.999Z</time></trkpt><trkpt lat="45.380035654376734" lon="10.536823359798785"><ele>157.0</ele><time>2026-03-30T12:53:47.999Z</time></trkpt><trkpt lat="45.38008561041016" lon="10.536680713600358"><ele>157.0</ele><time>2026-03-30T12:53:48.999Z</time></trkpt><trkpt lat="45.38013439749228" lon="10.536536259028539"><ele>157.0</ele><time>2026-03-30T12:53:49.999Z</time></trkpt><trkpt lat="45.380186801658866" lon="10.536396609275377"><ele>157.0</ele><time>2026-03-30T12:53:50.999Z</time></trkpt><trkpt lat="45.38024289986141" lon="10.53625699964566"><ele>157.0</ele><time>2026-03-30T12:53:51.999Z</time></trkpt><trkpt lat="45.3802976638338" lon="10.536119371127908"><ele>157.0</ele><time>2026-03-30T12:53:52.999Z</time></trkpt><trkpt lat="45.38035629117712" lon="10.535979893630488"><ele>157.0</ele><time>2026-03-30T12:53:53.999Z</time></trkpt><trkpt lat="45.38042074117431" lon="10.535841377018551"><ele>157.25</ele><time>2026-03-30T12:53:54.999Z</time></trkpt><trkpt lat="45.38049241115895" lon="10.535709334612115"><ele>157.5</ele><time>2026-03-30T12:53:55.999Z</time></trkpt><trkpt lat="45.380574109759245" lon="10.535589466846298"><ele>157.75</ele><time>2026-03-30T12:53:56.999Z</time></trkpt><trkpt lat="45.38065574818222" lon="10.535472934530743"><ele>158.0</ele><time>2026-03-30T12:53:57.999Z</time></trkpt><trkpt lat="45.38073355712962" lon="10.535358481740216"><ele>158.0</ele><time>2026-03-30T12:53:58.999Z</time></trkpt><trkpt lat="45.3808056540653" lon="10.535247101695036"><ele>158.0</ele><time>2026-03-30T12:53:59.999Z</time></trkpt><trkpt lat="45.380875145415715" lon="10.535132490670934"><ele>158.0</ele><time>2026-03-30T12:54:00.999Z</time></trkpt><trkpt lat="45.38093977292692" lon="10.53500587787043"><ele>158.0</ele><time>2026-03-30T12:54:01.999Z</time></trkpt><trkpt lat="45.38100813297837" lon="10.534865761944143"><ele>158.0</ele><time>2026-03-30T12:54:02.999Z</time></trkpt><trkpt lat="45.38107423039216" lon="10.53471654600754"><ele>158.0</ele><time>2026-03-30T12:54:03.998Z</time></trkpt><trkpt lat="45.381136965675765" lon="10.534563353175079"><ele>158.0</ele><time>2026-03-30T12:54:04.998Z</time></trkpt><trkpt lat="45.381201269743656" lon="10.534408162396039"><ele>158.0</ele><time>2026-03-30T12:54:05.998Z</time></trkpt><trkpt lat="45.381262434704624" lon="10.534256563527"><ele>158.0</ele><time>2026-03-30T12:54:06.998Z</time></trkpt><trkpt lat="45.38132783211173" lon="10.534103405937914"><ele>154.75</ele><time>2026-03-30T12:54:07.998Z</time></trkpt><trkpt lat="45.381392697287076" lon="10.533952097344871"><ele>151.5</ele><time>2026-03-30T12:54:08.998Z</time></trkpt><trkpt lat="45.38145891334973" lon="10.533794034821689"><ele>148.25</ele><time>2026-03-30T12:54:09.998Z</time></trkpt><trkpt lat="45.38152348652066" lon="10.533641097425491"><ele>145.0</ele><time>2026-03-30T12:54:10.998Z</time></trkpt><trkpt lat="45.381592568449626" lon="10.533485353205116"><ele>144.0</ele><time>2026-03-30T12:54:11.998Z</time></trkpt><trkpt lat="45.38166469694909" lon="10.533330774830361"><ele>143.0</ele><time>2026-03-30T12:54:12.998Z</time></trkpt><trkpt lat="45.38173951643722" lon="10.533181779063026"><ele>142.0</ele><time>2026-03-30T12:54:13.998Z</time></trkpt><trkpt lat="45.38182038184107" lon="10.533046286001904"><ele>141.0</ele><time>2026-03-30T12:54:14.998Z</time></trkpt><trkpt lat="45.38189953960846" lon="10.532913592552436"><ele>141.0</ele><time>2026-03-30T12:54:15.998Z</time></trkpt><trkpt lat="45.38197749100764" lon="10.53277759017418"><ele>141.0</ele><time>2026-03-30T12:54:16.998Z</time></trkpt><trkpt lat="45.38205238568804" lon="10.532640057300581"><ele>141.0</ele><time>2026-03-30T12:54:17.998Z</time></trkpt><trkpt lat="45.38211965335263" lon="10.532501946914289"><ele>141.0</ele><time>2026-03-30T12:54:18.998Z</time></trkpt><trkpt lat="45.38217760487705" lon="10.53237230269167"><ele>140.33333333333334</ele><time>2026-03-30T12:54:19.998Z</time></trkpt><trkpt lat="45.38222310076043" lon="10.532261800411224"><ele>139.66666666666666</ele><time>2026-03-30T12:54:20.999Z</time></trkpt><trkpt lat="45.38225560153795" lon="10.532181257204986"><ele>139.0</ele><time>2026-03-30T12:54:21.999Z</time></trkpt><trkpt lat="45.382328380457345" lon="10.532126700326932"><ele>138.33333333333331</ele><time>2026-03-30T12:54:24.999Z</time></trkpt><trkpt lat="45.382418551865314" lon="10.532178631761496"><ele>137.66666666666666</ele><time>2026-03-30T12:54:26.999Z</time></trkpt><trkpt lat="45.382480369736214" lon="10.532213986248609"><ele>137.0</ele><time>2026-03-30T12:54:27.999Z</time></trkpt><trkpt lat="45.3825515622263" lon="10.532238377796912"><ele>137.0</ele><time>2026-03-30T12:54:28.999Z</time></trkpt><trkpt lat="45.382628593649606" lon="10.53225306506999"><ele>137.0</ele><time>2026-03-30T12:54:29.999Z</time></trkpt><trkpt lat="45.382738325302526" lon="10.532290847450026"><ele>137.0</ele><time>2026-03-30T12:54:32Z</time></trkpt><trkpt lat="45.38279995254756" lon="10.532331976041709"><ele>137.0</ele><time>2026-03-30T12:54:34Z</time></trkpt><trkpt lat="45.382858405367045" lon="10.532418456793753"><ele>137.0</ele><time>2026-03-30T12:54:37Z</time></trkpt><trkpt lat="45.38285487814061" lon="10.53257030182888"><ele>137.0</ele><time>2026-03-30T12:54:40Z</time></trkpt><trkpt lat="45.382835399912196" lon="10.532734106466648"><ele>137.0</ele><time>2026-03-30T12:54:41.999Z</time></trkpt><trkpt lat="45.38282289055389" lon="10.532891814341461"><ele>137.0</ele><time>2026-03-30T12:54:43.999Z</time></trkpt><trkpt lat="45.38280149639666" lon="10.533032523702266"><ele>137.0</ele><time>2026-03-30T12:54:45.999Z</time></trkpt><trkpt lat="45.38275461536489" lon="10.533194294901671"><ele>137.0</ele><time>2026-03-30T12:54:47.999Z</time></trkpt><trkpt lat="45.38272082770173" lon="10.533275619884042"><ele>137.0</ele><time>2026-03-30T12:54:48.999Z</time></trkpt><trkpt lat="45.382683705388565" lon="10.53335314651428"><ele>137.0</ele><time>2026-03-30T12:54:49.999Z</time></trkpt><trkpt lat="45.38264288726166" lon="10.53342905880235"><ele>137.0</ele><time>2026-03-30T12:54:50.999Z</time></trkpt><trkpt lat="45.382570153479655" lon="10.533561707897587"><ele>137.0</ele><time>2026-03-30T12:54:52.999Z</time></trkpt><trkpt lat="45.38252826763923" lon="10.53367444476282"><ele>137.0</ele><time>2026-03-30T12:54:54.999Z</time></trkpt><trkpt lat="45.38249902219749" lon="10.53377304159107"><ele>137.4</ele><time>2026-03-30T12:54:56.999Z</time></trkpt><trkpt lat="45.38247559269199" lon="10.533895623599186"><ele>137.79999999999998</ele><time>2026-03-30T12:54:58.999Z</time></trkpt><trkpt lat="45.38243402881815" lon="10.534042126129197"><ele>138.2</ele><time>2026-03-30T12:55:00.999Z</time></trkpt><trkpt lat="45.38239355731955" lon="10.53416812373727"><ele>138.6</ele><time>2026-03-30T12:55:02.999Z</time></trkpt><trkpt lat="45.382356008386836" lon="10.534280747259638"><ele>139.0</ele><time>2026-03-30T12:55:04.999Z</time></trkpt><trkpt lat="45.38231686832998" lon="10.534381944004695"><ele>139.0</ele><time>2026-03-30T12:55:06.999Z</time></trkpt><trkpt lat="45.38227034504121" lon="10.534469817588205"><ele>139.0</ele><time>2026-03-30T12:55:08.999Z</time></trkpt><trkpt lat="45.38220960277952" lon="10.534564227026111"><ele>139.0</ele><time>2026-03-30T12:55:10.999Z</time></trkpt><trkpt lat="45.38215321716713" lon="10.534642639319523"><ele>139.0</ele><time>2026-03-30T12:55:12.999Z</time></trkpt><trkpt lat="45.38209700248698" lon="10.534713391455423"><ele>139.0</ele><time>2026-03-30T12:55:14.999Z</time></trkpt><trkpt lat="45.38205406296512" lon="10.534792436385398"><ele>139.0</ele><time>2026-03-30T12:55:16.999Z</time></trkpt><trkpt lat="45.38211737775475" lon="10.534717394929894"><ele>139.0</ele><time>2026-03-30T12:55:30.999Z</time></trkpt><trkpt lat="45.38215358377556" lon="10.53464143221417"><ele>139.0</ele><time>2026-03-30T12:57:39.999Z</time></trkpt><trkpt lat="45.38221120472592" lon="10.534584075704737"><ele>139.0</ele><time>2026-03-30T13:21:44Z</time></trkpt><trkpt lat="45.38227686901506" lon="10.534491831172604"><ele>139.0</ele><time>2026-03-30T13:21:46Z</time></trkpt><trkpt lat="45.38234609752382" lon="10.534364430933653"><ele>139.0</ele><time>2026-03-30T13:21:48Z</time></trkpt><trkpt lat="45.382385922070796" lon="10.534234890207525"><ele>139.0</ele><time>2026-03-30T13:21:50Z</time></trkpt><trkpt lat="45.38243277085055" lon="10.534069783233635"><ele>139.0</ele><time>2026-03-30T13:21:52Z</time></trkpt><trkpt lat="45.38247173974795" lon="10.533976779379321"><ele>139.0</ele><time>2026-03-30T13:21:53Z</time></trkpt><trkpt lat="45.382492784764395" lon="10.53389189473355"><ele>139.0</ele><time>2026-03-30T13:21:54Z</time></trkpt><trkpt lat="45.382512867481715" lon="10.53380410872333"><ele>139.0</ele><time>2026-03-30T13:21:55Z</time></trkpt><trkpt lat="45.38255122768012" lon="10.533636698340558"><ele>139.0</ele><time>2026-03-30T13:21:57Z</time></trkpt><trkpt lat="45.38262099828773" lon="10.533488524213862"><ele>138.71428571428572</ele><time>2026-03-30T13:21:59Z</time></trkpt><trkpt lat="45.38266336292402" lon="10.533413493810952"><ele>138.42857142857144</ele><time>2026-03-30T13:22:00Z</time></trkpt><trkpt lat="45.382707825742116" lon="10.533333489296508"><ele>138.14285714285717</ele><time>2026-03-30T13:22:01Z</time></trkpt><trkpt lat="45.382748860445666" lon="10.533252714065641"><ele>137.85714285714286</ele><time>2026-03-30T13:22:02Z</time></trkpt><trkpt lat="45.382788478011214" lon="10.533165170690653"><ele>137.57142857142858</ele><time>2026-03-30T13:22:03Z</time></trkpt><trkpt lat="45.382813792788234" lon="10.533077508455289"><ele>137.2857142857143</ele><time>2026-03-30T13:22:04Z</time></trkpt><trkpt lat="45.38283971241584" lon="10.532983238090843"><ele>137.0</ele><time>2026-03-30T13:22:05Z</time></trkpt><trkpt lat="45.38284740219766" lon="10.532888606758107"><ele>137.0</ele><time>2026-03-30T13:22:06Z</time></trkpt><trkpt lat="45.38285542340067" lon="10.532798719240715"><ele>137.0</ele><time>2026-03-30T13:22:07Z</time></trkpt><trkpt lat="45.38286457583758" lon="10.532664374653331"><ele>137.0</ele><time>2026-03-30T13:22:09Z</time></trkpt><trkpt lat="45.38288304093282" lon="10.532527856907722"><ele>137.0</ele><time>2026-03-30T13:22:11Z</time></trkpt><trkpt lat="45.38287146533548" lon="10.532411060161873"><ele>137.0</ele><time>2026-03-30T13:22:13Z</time></trkpt><trkpt lat="45.38282432260044" lon="10.532323043836909"><ele>137.0</ele><time>2026-03-30T13:22:15Z</time></trkpt><trkpt lat="45.382729251140624" lon="10.532263635791914"><ele>137.0</ele><time>2026-03-30T13:22:17Z</time></trkpt><trkpt lat="45.38266471088781" lon="10.532249332185874"><ele>137.0</ele><time>2026-03-30T13:22:18Z</time></trkpt><trkpt lat="45.38260046783836" lon="10.532228415863463"><ele>137.0</ele><time>2026-03-30T13:22:19Z</time></trkpt><trkpt lat="45.38250255270709" lon="10.532204494508205"><ele>137.0</ele><time>2026-03-30T13:22:21Z</time></trkpt><trkpt lat="45.38241876667007" lon="10.532173948175316"><ele>137.0</ele><time>2026-03-30T13:22:23Z</time></trkpt><trkpt lat="45.38235153166119" lon="10.532157547494258"><ele>137.0</ele><time>2026-03-30T13:22:25Z</time></trkpt><trkpt lat="45.38230238866646" lon="10.532059928448563"><ele>136.4</ele><time>2026-03-30T13:22:28Z</time></trkpt><trkpt lat="45.382358420341454" lon="10.531895810337053"><ele>135.79999999999998</ele><time>2026-03-30T13:22:30Z</time></trkpt><trkpt lat="45.38239269710831" lon="10.531788414128984"><ele>135.2</ele><time>2026-03-30T13:22:31Z</time></trkpt><trkpt lat="45.382427499679686" lon="10.531672632662906"><ele>134.6</ele><time>2026-03-30T13:22:32Z</time></trkpt><trkpt lat="45.38246239648972" lon="10.531541817142072"><ele>134.0</ele><time>2026-03-30T13:22:33Z</time></trkpt><trkpt lat="45.38249308940367" lon="10.531391356994813"><ele>134.0</ele><time>2026-03-30T13:22:34Z</time></trkpt><trkpt lat="45.382530643145" lon="10.531233934555393"><ele>134.0</ele><time>2026-03-30T13:22:35Z</time></trkpt><trkpt lat="45.382573551134385" lon="10.531056431518278"><ele>134.0</ele><time>2026-03-30T13:22:36Z</time></trkpt><trkpt lat="45.382621562000196" lon="10.530881149403935"><ele>134.0</ele><time>2026-03-30T13:22:37Z</time></trkpt><trkpt lat="45.38267278023802" lon="10.53070191579975"><ele>133.75</ele><time>2026-03-30T13:22:38Z</time></trkpt><trkpt lat="45.38272372932524" lon="10.530530000785827"><ele>133.5</ele><time>2026-03-30T13:22:39Z</time></trkpt><trkpt lat="45.38277463386033" lon="10.530368382231911"><ele>133.25</ele><time>2026-03-30T13:22:40Z</time></trkpt><trkpt lat="45.38282067622982" lon="10.530211108337369"><ele>133.0</ele><time>2026-03-30T13:22:41Z</time></trkpt><trkpt lat="45.38286504663782" lon="10.530068328269257"><ele>132.20000000000002</ele><time>2026-03-30T13:22:42Z</time></trkpt><trkpt lat="45.38291033318898" lon="10.529925834669642"><ele>131.4</ele><time>2026-03-30T13:22:43Z</time></trkpt><trkpt lat="45.382953104901304" lon="10.529792587529043"><ele>130.60000000000002</ele><time>2026-03-30T13:22:44Z</time></trkpt><trkpt lat="45.38299743649599" lon="10.529655624852463"><ele>129.8</ele><time>2026-03-30T13:22:45Z</time></trkpt><trkpt lat="45.38304031554846" lon="10.529521376410587"><ele>129.0</ele><time>2026-03-30T13:22:46Z</time></trkpt><trkpt lat="45.38308123528844" lon="10.529391521808005"><ele>129.0</ele><time>2026-03-30T13:22:47Z</time></trkpt><trkpt lat="45.38312266089455" lon="10.529261118965566"><ele>129.0</ele><time>2026-03-30T13:22:48Z</time></trkpt><trkpt lat="45.38316663244677" lon="10.529131791953787"><ele>129.0</ele><time>2026-03-30T13:22:49Z</time></trkpt><trkpt lat="45.383210752236884" lon="10.529001146564433"><ele>129.0</ele><time>2026-03-30T13:22:50Z</time></trkpt><trkpt lat="45.38325375261341" lon="10.52886856811647"><ele>129.0</ele><time>2026-03-30T13:22:51Z</time></trkpt><trkpt lat="45.38329255802746" lon="10.528746974357217"><ele>129.0</ele><time>2026-03-30T13:22:52Z</time></trkpt><trkpt lat="45.3833304452345" lon="10.52863192687115"><ele>129.0</ele><time>2026-03-30T13:22:53Z</time></trkpt><trkpt lat="45.38336582182743" lon="10.528523692205601"><ele>129.0</ele><time>2026-03-30T13:22:54Z</time></trkpt><trkpt lat="45.38339840289754" lon="10.528428055480791"><ele>129.0</ele><time>2026-03-30T13:22:55Z</time></trkpt><trkpt lat="45.38343352315519" lon="10.52835098693168"><ele>129.0</ele><time>2026-03-30T13:22:56Z</time></trkpt><trkpt lat="45.38347718840495" lon="10.5282008382491"><ele>129.0</ele><time>2026-03-30T13:22:58Z</time></trkpt><trkpt lat="45.38354238309486" lon="10.528096689539234"><ele>129.0</ele><time>2026-03-30T13:23:00.999Z</time></trkpt><trkpt lat="45.383810929917026" lon="10.528195259043517"><ele>129.0</ele><time>2026-03-30T13:23:02.999Z</time></trkpt><trkpt lat="45.38392452919652" lon="10.528205196806791"><ele>129.0</ele><time>2026-03-30T13:23:03.999Z</time></trkpt><trkpt lat="45.384042342839955" lon="10.52820822527268"><ele>129.4</ele><time>2026-03-30T13:23:04.999Z</time></trkpt><trkpt lat="45.38415750152288" lon="10.528211054618403"><ele>129.8</ele><time>2026-03-30T13:23:05.999Z</time></trkpt><trkpt lat="45.38426743093884" lon="10.528208242459907"><ele>130.2</ele><time>2026-03-30T13:23:06.999Z</time></trkpt><trkpt lat="45.384371345587" lon="10.528205180975409"><ele>130.6</ele><time>2026-03-30T13:23:07.999Z</time></trkpt><trkpt lat="45.38447405192982" lon="10.528213981821358"><ele>131.0</ele><time>2026-03-30T13:23:08.999Z</time></trkpt><trkpt lat="45.384580395694776" lon="10.528238752263325"><ele>130.75</ele><time>2026-03-30T13:23:09.999Z</time></trkpt><trkpt lat="45.3846921065439" lon="10.528267363775349"><ele>130.5</ele><time>2026-03-30T13:23:10.999Z</time></trkpt><trkpt lat="45.384808574426124" lon="10.528295660722176"><ele>130.25</ele><time>2026-03-30T13:23:11.999Z</time></trkpt><trkpt lat="45.384925954278906" lon="10.528323326170156"><ele>130.0</ele><time>2026-03-30T13:23:12.999Z</time></trkpt><trkpt lat="45.38503867644033" lon="10.528346977256827"><ele>130.0</ele><time>2026-03-30T13:23:13.999Z</time></trkpt><trkpt lat="45.38514845102196" lon="10.528369842547558"><ele>130.0</ele><time>2026-03-30T13:23:14.999Z</time></trkpt><trkpt lat="45.38525564696033" lon="10.528398430679994"><ele>130.0</ele><time>2026-03-30T13:23:15.999Z</time></trkpt><trkpt lat="45.38536263498418" lon="10.528429930652418"><ele>130.0</ele><time>2026-03-30T13:23:16.999Z</time></trkpt><trkpt lat="45.38546497743952" lon="10.528459368435797"><ele>130.0</ele><time>2026-03-30T13:23:17.999Z</time></trkpt><trkpt lat="45.38557056635258" lon="10.528479669605195"><ele>131.0</ele><time>2026-03-30T13:23:18.999Z</time></trkpt><trkpt lat="45.38567124875942" lon="10.528499695953167"><ele>132.0</ele><time>2026-03-30T13:23:19.999Z</time></trkpt><trkpt lat="45.38577346639438" lon="10.528524013601134"><ele>133.0</ele><time>2026-03-30T13:23:20.999Z</time></trkpt><trkpt lat="45.385881485172" lon="10.528548032597602"><ele>134.0</ele><time>2026-03-30T13:23:21.999Z</time></trkpt><trkpt lat="45.38599046315245" lon="10.528567116998524"><ele>135.0</ele><time>2026-03-30T13:23:22.999Z</time></trkpt><trkpt lat="45.38610320370604" lon="10.528585694753957"><ele>135.0</ele><time>2026-03-30T13:23:23.999Z</time></trkpt><trkpt lat="45.38621592066384" lon="10.528611476401247"><ele>135.0</ele><time>2026-03-30T13:23:24.999Z</time></trkpt><trkpt lat="45.3863279556639" lon="10.528643770530927"><ele>135.0</ele><time>2026-03-30T13:23:25.999Z</time></trkpt><trkpt lat="45.38643499659798" lon="10.528677133537455"><ele>135.0</ele><time>2026-03-30T13:23:26.999Z</time></trkpt><trkpt lat="45.38654785159806" lon="10.528716649765945"><ele>134.25</ele><time>2026-03-30T13:23:27.999Z</time></trkpt><trkpt lat="45.38665457738828" lon="10.52876530301898"><ele>133.5</ele><time>2026-03-30T13:23:28.999Z</time></trkpt><trkpt lat="45.386765252441826" lon="10.528817262680803"><ele>132.75</ele><time>2026-03-30T13:23:29.999Z</time></trkpt><trkpt lat="45.386873300483515" lon="10.52887103323938"><ele>132.0</ele><time>2026-03-30T13:23:30.999Z</time></trkpt><trkpt lat="45.386975299022524" lon="10.528926672491112"><ele>132.0</ele><time>2026-03-30T13:23:31.999Z</time></trkpt><trkpt lat="45.38707550167001" lon="10.528980674398943"><ele>132.0</ele><time>2026-03-30T13:23:32.999Z</time></trkpt><trkpt lat="45.38717447414794" lon="10.52903038213434"><ele>132.0</ele><time>2026-03-30T13:23:33.999Z</time></trkpt><trkpt lat="45.38727140676259" lon="10.529081010094144"><ele>132.0</ele><time>2026-03-30T13:23:34.999Z</time></trkpt><trkpt lat="45.387363999542536" lon="10.529133569119058"><ele>132.0</ele><time>2026-03-30T13:23:35.999Z</time></trkpt><trkpt lat="45.38745406831182" lon="10.529179837001879"><ele>132.4</ele><time>2026-03-30T13:23:36.999Z</time></trkpt><trkpt lat="45.38752424590682" lon="10.529220387830323"><ele>132.79999999999998</ele><time>2026-03-30T13:23:37.999Z</time></trkpt><trkpt lat="45.387593487457785" lon="10.529252521556076"><ele>133.2</ele><time>2026-03-30T13:23:38.999Z</time></trkpt><trkpt lat="45.38770261570509" lon="10.529294824572064"><ele>133.6</ele><time>2026-03-30T13:23:41Z</time></trkpt><trkpt lat="45.387837252793005" lon="10.529193807684777"><ele>134.0</ele><time>2026-03-30T13:23:43Z</time></trkpt><trkpt lat="45.38790478991943" lon="10.529102179429637"><ele>134.0</ele><time>2026-03-30T13:23:44Z</time></trkpt><trkpt lat="45.38798019134775" lon="10.528996139432767"><ele>134.0</ele><time>2026-03-30T13:23:45Z</time></trkpt><trkpt lat="45.38806496669363" lon="10.528881764162671"><ele>134.0</ele><time>2026-03-30T13:23:46Z</time></trkpt><trkpt lat="45.38815946238887" lon="10.528775843711912"><ele>134.0</ele><time>2026-03-30T13:23:47Z</time></trkpt><trkpt lat="45.388265132227424" lon="10.528666897592935"><ele>135.0</ele><time>2026-03-30T13:23:48Z</time></trkpt><trkpt lat="45.38837769170056" lon="10.528561930644253"><ele>136.0</ele><time>2026-03-30T13:23:49Z</time></trkpt><trkpt lat="45.38849149375486" lon="10.528457083148862"><ele>137.0</ele><time>2026-03-30T13:23:50Z</time></trkpt><trkpt lat="45.388613661094205" lon="10.528336494307784"><ele>138.0</ele><time>2026-03-30T13:23:51Z</time></trkpt><trkpt lat="45.38873609588398" lon="10.528221313986348"><ele>138.25</ele><time>2026-03-30T13:23:52Z</time></trkpt><trkpt lat="45.38885751142676" lon="10.528110604677652"><ele>138.5</ele><time>2026-03-30T13:23:53Z</time></trkpt><trkpt lat="45.38897097720115" lon="10.528009007241346"><ele>138.75</ele><time>2026-03-30T13:23:54Z</time></trkpt><trkpt lat="45.389074936509644" lon="10.527917507731388"><ele>139.0</ele><time>2026-03-30T13:23:55Z</time></trkpt><trkpt lat="45.3891753849797" lon="10.527830489442945"><ele>139.0</ele><time>2026-03-30T13:23:56Z</time></trkpt><trkpt lat="45.38927457167906" lon="10.527743589073467"><ele>139.0</ele><time>2026-03-30T13:23:57Z</time></trkpt><trkpt lat="45.38937218606459" lon="10.527653013593127"><ele>139.0</ele><time>2026-03-30T13:23:58Z</time></trkpt><trkpt lat="45.38947188607438" lon="10.527567006472925"><ele>139.0</ele><time>2026-03-30T13:23:59Z</time></trkpt><trkpt lat="45.38958155812344" lon="10.527486715595485"><ele>139.5</ele><time>2026-03-30T13:24:00Z</time></trkpt><trkpt lat="45.38969155560312" lon="10.52741028515741"><ele>140.0</ele><time>2026-03-30T13:24:01Z</time></trkpt><trkpt lat="45.38980634830641" lon="10.527329069775382"><ele>140.5</ele><time>2026-03-30T13:24:02Z</time></trkpt><trkpt lat="45.38991936639812" lon="10.527255391974577"><ele>141.0</ele><time>2026-03-30T13:24:03Z</time></trkpt><trkpt lat="45.39002887033907" lon="10.527183419381707"><ele>141.0</ele><time>2026-03-30T13:24:04Z</time></trkpt><trkpt lat="45.39014011198188" lon="10.527113034748758"><ele>141.0</ele><time>2026-03-30T13:24:05Z</time></trkpt><trkpt lat="45.39024760906587" lon="10.527053624958807"><ele>141.0</ele><time>2026-03-30T13:24:06Z</time></trkpt><trkpt lat="45.390357702720095" lon="10.526994943339725"><ele>141.0</ele><time>2026-03-30T13:24:07Z</time></trkpt><trkpt lat="45.39046642933053" lon="10.526946906036246"><ele>140.0</ele><time>2026-03-30T13:24:08Z</time></trkpt><trkpt lat="45.390579204363206" lon="10.526902931271339"><ele>139.0</ele><time>2026-03-30T13:24:09Z</time></trkpt><trkpt lat="45.39069273113006" lon="10.526867204034884"><ele>138.0</ele><time>2026-03-30T13:24:10Z</time></trkpt><trkpt lat="45.39080670193278" lon="10.52683589257275"><ele>137.0</ele><time>2026-03-30T13:24:11Z</time></trkpt><trkpt lat="45.390920846073854" lon="10.526805601389478"><ele>137.0</ele><time>2026-03-30T13:24:12Z</time></trkpt><trkpt lat="45.391037710070115" lon="10.526773157649279"><ele>137.0</ele><time>2026-03-30T13:24:13Z</time></trkpt><trkpt lat="45.39115547230755" lon="10.526745772631028"><ele>137.0</ele><time>2026-03-30T13:24:14Z</time></trkpt><trkpt lat="45.39127673727318" lon="10.526721628928488"><ele>137.0</ele><time>2026-03-30T13:24:15Z</time></trkpt><trkpt lat="45.39140926754469" lon="10.526694892841896"><ele>136.5</ele><time>2026-03-30T13:24:16Z</time></trkpt><trkpt lat="45.391546409635794" lon="10.526679195601224"><ele>136.0</ele><time>2026-03-30T13:24:17Z</time></trkpt><trkpt lat="45.39167977565701" lon="10.526676032544692"><ele>135.5</ele><time>2026-03-30T13:24:18Z</time></trkpt><trkpt lat="45.39181475467736" lon="10.526673512219014"><ele>135.0</ele><time>2026-03-30T13:24:19Z</time></trkpt><trkpt lat="45.39194055335331" lon="10.526680897921343"><ele>135.0</ele><time>2026-03-30T13:24:20Z</time></trkpt><trkpt lat="45.39206490585537" lon="10.526690890429022"><ele>135.0</ele><time>2026-03-30T13:24:21Z</time></trkpt><trkpt lat="45.39218694434714" lon="10.526682728272288"><ele>135.0</ele><time>2026-03-30T13:24:22Z</time></trkpt><trkpt lat="45.392308675862104" lon="10.526647158138886"><ele>135.0</ele><time>2026-03-30T13:24:23Z</time></trkpt><trkpt lat="45.392426368630765" lon="10.52658015129598"><ele>134.25</ele><time>2026-03-30T13:24:24Z</time></trkpt><trkpt lat="45.39253828865856" lon="10.52648229715804"><ele>133.5</ele><time>2026-03-30T13:24:25Z</time></trkpt><trkpt lat="45.392641076975636" lon="10.526359784857139"><ele>132.75</ele><time>2026-03-30T13:24:26Z</time></trkpt><trkpt lat="45.392737217958036" lon="10.526221911715561"><ele>132.0</ele><time>2026-03-30T13:24:27Z</time></trkpt><trkpt lat="45.39283385024083" lon="10.52607839345216"><ele>132.0</ele><time>2026-03-30T13:24:28Z</time></trkpt><trkpt lat="45.392929389380136" lon="10.525939136649528"><ele>132.0</ele><time>2026-03-30T13:24:29Z</time></trkpt><trkpt lat="45.39302539967809" lon="10.525799713723568"><ele>132.0</ele><time>2026-03-30T13:24:30Z</time></trkpt><trkpt lat="45.39312371240445" lon="10.525659372988557"><ele>132.0</ele><time>2026-03-30T13:24:31Z</time></trkpt><trkpt lat="45.39322380143951" lon="10.525521399474849"><ele>131.75</ele><time>2026-03-30T13:24:32Z</time></trkpt><trkpt lat="45.39332370322163" lon="10.525387405880897"><ele>131.5</ele><time>2026-03-30T13:24:33Z</time></trkpt><trkpt lat="45.3934240223655" lon="10.525263082827607"><ele>131.25</ele><time>2026-03-30T13:24:34Z</time></trkpt><trkpt lat="45.39352836397437" lon="10.525138611787291"><ele>131.0</ele><time>2026-03-30T13:24:35Z</time></trkpt><trkpt lat="45.39362918930334" lon="10.525019854988017"><ele>131.0</ele><time>2026-03-30T13:24:36Z</time></trkpt><trkpt lat="45.39372144343753" lon="10.524910179012103"><ele>131.0</ele><time>2026-03-30T13:24:37Z</time></trkpt><trkpt lat="45.393804685689" lon="10.524805109809806"><ele>131.0</ele><time>2026-03-30T13:24:38Z</time></trkpt><trkpt lat="45.39388248318689" lon="10.524709476785702"><ele>131.0</ele><time>2026-03-30T13:24:39Z</time></trkpt><trkpt lat="45.39395566133394" lon="10.524623152106836"><ele>131.0</ele><time>2026-03-30T13:24:40Z</time></trkpt><trkpt lat="45.394021121704064" lon="10.524539002109771"><ele>131.16666666666666</ele><time>2026-03-30T13:24:41Z</time></trkpt><trkpt lat="45.39408126938809" lon="10.524467015561742"><ele>131.33333333333331</ele><time>2026-03-30T13:24:42Z</time></trkpt><trkpt lat="45.394148716811515" lon="10.524437747998464"><ele>131.5</ele><time>2026-03-30T13:24:43Z</time></trkpt><trkpt lat="45.39421508611849" lon="10.524478041621258"><ele>131.66666666666666</ele><time>2026-03-30T13:24:44Z</time></trkpt><trkpt lat="45.39428790421851" lon="10.524574713300526"><ele>131.83333333333334</ele><time>2026-03-30T13:24:45Z</time></trkpt><trkpt lat="45.39435489733851" lon="10.524725231872283"><ele>132.0</ele><time>2026-03-30T13:24:46Z</time></trkpt><trkpt lat="45.39442458914346" lon="10.524886862149412"><ele>132.25</ele><time>2026-03-30T13:24:47Z</time></trkpt><trkpt lat="45.39450695695444" lon="10.525024128220558"><ele>132.5</ele><time>2026-03-30T13:24:48Z</time></trkpt><trkpt lat="45.39461786838656" lon="10.52515574174694"><ele>132.75</ele><time>2026-03-30T13:24:49Z</time></trkpt><trkpt lat="45.39473802871217" lon="10.525244593610365"><ele>133.0</ele><time>2026-03-30T13:24:50Z</time></trkpt><trkpt lat="45.394895898448794" lon="10.52529949304375"><ele>133.0</ele><time>2026-03-30T13:24:51Z</time></trkpt><trkpt lat="45.395082574864794" lon="10.525357869213448"><ele>133.0</ele><time>2026-03-30T13:24:52Z</time></trkpt><trkpt lat="45.39529971035986" lon="10.525442177068262"><ele>133.0</ele><time>2026-03-30T13:24:53Z</time></trkpt><trkpt lat="45.39550038220712" lon="10.525527283776256"><ele>129.33333333333334</ele><time>2026-03-30T13:24:54Z</time></trkpt><trkpt lat="45.395684691646906" lon="10.525622106902523"><ele>125.66666666666666</ele><time>2026-03-30T13:24:55Z</time></trkpt><trkpt lat="45.395858333368395" lon="10.525731696301097"><ele>122.0</ele><time>2026-03-30T13:24:55.999Z</time></trkpt><trkpt lat="45.39602628853681" lon="10.525858011937412"><ele>122.0</ele><time>2026-03-30T13:24:56.999Z</time></trkpt><trkpt lat="45.39617899798506" lon="10.525988570469194"><ele>122.0</ele><time>2026-03-30T13:24:57.999Z</time></trkpt><trkpt lat="45.39631334679371" lon="10.526112425451371"><ele>122.0</ele><time>2026-03-30T13:24:58.999Z</time></trkpt><trkpt lat="45.39645524925818" lon="10.526225496472748"><ele>121.5</ele><time>2026-03-30T13:24:59.999Z</time></trkpt><trkpt lat="45.39659441787023" lon="10.526302174415088"><ele>121.0</ele><time>2026-03-30T13:25:00.999Z</time></trkpt><trkpt lat="45.39672796791054" lon="10.526359692257317"><ele>120.5</ele><time>2026-03-30T13:25:01.999Z</time></trkpt><trkpt lat="45.39686470511652" lon="10.526414241550341"><ele>120.0</ele><time>2026-03-30T13:25:02.999Z</time></trkpt><trkpt lat="45.39695278172624" lon="10.526446569264044"><ele>120.0</ele><time>2026-03-30T13:25:03.999Z</time></trkpt><trkpt lat="45.39704286904361" lon="10.52648693394733"><ele>120.0</ele><time>2026-03-30T13:25:04.999Z</time></trkpt><trkpt lat="45.39710882254802" lon="10.526519984331687"><ele>120.0</ele><time>2026-03-30T13:25:05.999Z</time></trkpt><trkpt lat="45.39718466503457" lon="10.526490204847258"><ele>120.0</ele><time>2026-03-30T13:25:07.999Z</time></trkpt><trkpt lat="45.39724552358696" lon="10.52630655788151"><ele>120.0</ele><time>2026-03-30T13:25:09.999Z</time></trkpt><trkpt lat="45.39726995420444" lon="10.526183549821633"><ele>119.75</ele><time>2026-03-30T13:25:10.999Z</time></trkpt><trkpt lat="45.39730009219543" lon="10.526036824674456"><ele>119.5</ele><time>2026-03-30T13:25:11.999Z</time></trkpt><trkpt lat="45.397334687387726" lon="10.525874646753525"><ele>119.25</ele><time>2026-03-30T13:25:12.999Z</time></trkpt><trkpt lat="45.39737933219798" lon="10.5257092452973"><ele>119.0</ele><time>2026-03-30T13:25:13.999Z</time></trkpt><trkpt lat="45.39742762897086" lon="10.525535964364805"><ele>119.0</ele><time>2026-03-30T13:25:14.999Z</time></trkpt><trkpt lat="45.39747682858065" lon="10.52535526643484"><ele>119.0</ele><time>2026-03-30T13:25:15.999Z</time></trkpt><trkpt lat="45.39753270593413" lon="10.52518056987005"><ele>119.0</ele><time>2026-03-30T13:25:16.999Z</time></trkpt><trkpt lat="45.39759379025439" lon="10.524989079113405"><ele>119.0</ele><time>2026-03-30T13:25:17.999Z</time></trkpt><trkpt lat="45.39765089919433" lon="10.52476936011421"><ele>119.0</ele><time>2026-03-30T13:25:18.999Z</time></trkpt><trkpt lat="45.39768739481314" lon="10.524534126395391"><ele>119.0</ele><time>2026-03-30T13:25:19.999Z</time></trkpt><trkpt lat="45.39771186012298" lon="10.524277706302083"><ele>119.0</ele><time>2026-03-30T13:25:20.999Z</time></trkpt><trkpt lat="45.397720064698674" lon="10.524022332310295"><ele>119.0</ele><time>2026-03-30T13:25:21.999Z</time></trkpt><trkpt lat="45.3977253979895" lon="10.523770543001138"><ele>119.0</ele><time>2026-03-30T13:25:22.999Z</time></trkpt><trkpt lat="45.39773203013176" lon="10.523524186946524"><ele>119.0</ele><time>2026-03-30T13:25:23.999Z</time></trkpt><trkpt lat="45.397736520138196" lon="10.52330230704931"><ele>119.0</ele><time>2026-03-30T13:25:24.999Z</time></trkpt><trkpt lat="45.397744428199225" lon="10.52307701351659"><ele>119.0</ele><time>2026-03-30T13:25:25.999Z</time></trkpt><trkpt lat="45.397751908814335" lon="10.522866215629678"><ele>119.0</ele><time>2026-03-30T13:25:26.999Z</time></trkpt><trkpt lat="45.39776120347729" lon="10.522691547791345"><ele>119.0</ele><time>2026-03-30T13:25:27.999Z</time></trkpt><trkpt lat="45.397766364407936" lon="10.522543856243283"><ele>118.80000000000001</ele><time>2026-03-30T13:25:28.999Z</time></trkpt><trkpt lat="45.39777299899146" lon="10.522404687185837"><ele>118.60000000000001</ele><time>2026-03-30T13:25:29.999Z</time></trkpt><trkpt lat="45.397774026796995" lon="10.522285976218983"><ele>118.4</ele><time>2026-03-30T13:25:30.999Z</time></trkpt><trkpt lat="45.3977743670345" lon="10.52219044654773"><ele>118.2</ele><time>2026-03-30T13:25:31.999Z</time></trkpt><trkpt lat="45.3978315827901" lon="10.522106910804819"><ele>118.0</ele><time>2026-03-30T13:25:33.999Z</time></trkpt><trkpt lat="45.397969806966586" lon="10.522119892302111"><ele>118.0</ele><time>2026-03-30T13:25:35.999Z</time></trkpt><trkpt lat="45.39806949729086" lon="10.52211326069736"><ele>118.0</ele><time>2026-03-30T13:25:36.999Z</time></trkpt><trkpt lat="45.39818198571289" lon="10.522122003834529"><ele>118.0</ele><time>2026-03-30T13:25:37.999Z</time></trkpt><trkpt lat="45.39831090920336" lon="10.522126844965788"><ele>118.0</ele><time>2026-03-30T13:25:38.999Z</time></trkpt><trkpt lat="45.39844886226976" lon="10.522125783656733"><ele>118.0</ele><time>2026-03-30T13:25:39.999Z</time></trkpt><trkpt lat="45.398586451821906" lon="10.522127718079513"><ele>118.0</ele><time>2026-03-30T13:25:40.999Z</time></trkpt><trkpt lat="45.39871357267524" lon="10.52211850289659"><ele>118.0</ele><time>2026-03-30T13:25:41.999Z</time></trkpt><trkpt lat="45.398841754516404" lon="10.522069324456425"><ele>118.0</ele><time>2026-03-30T13:25:42.999Z</time></trkpt><trkpt lat="45.398971706131825" lon="10.521975645952073"><ele>117.66666666666667</ele><time>2026-03-30T13:25:43.999Z</time></trkpt><trkpt lat="45.39909407396699" lon="10.521838138676463"><ele>117.33333333333334</ele><time>2026-03-30T13:25:44.999Z</time></trkpt><trkpt lat="45.399226119732354" lon="10.521663969545376"><ele>117.0</ele><time>2026-03-30T13:25:45.999Z</time></trkpt><trkpt lat="45.39935461999267" lon="10.521483725348183"><ele>117.0</ele><time>2026-03-30T13:25:47Z</time></trkpt><trkpt lat="45.399466614850795" lon="10.521310870380463"><ele>117.0</ele><time>2026-03-30T13:25:48Z</time></trkpt><trkpt lat="45.39957301236429" lon="10.521141526804469"><ele>117.0</ele><time>2026-03-30T13:25:49Z</time></trkpt><trkpt lat="45.39969099851936" lon="10.521004835405162"><ele>117.75</ele><time>2026-03-30T13:25:50Z</time></trkpt><trkpt lat="45.39981126785366" lon="10.520860430267813"><ele>118.5</ele><time>2026-03-30T13:25:51Z</time></trkpt><trkpt lat="45.39993472559309" lon="10.52074878974653"><ele>119.25</ele><time>2026-03-30T13:25:52Z</time></trkpt><trkpt lat="45.400067890215524" lon="10.5206731764201"><ele>120.0</ele><time>2026-03-30T13:25:53Z</time></trkpt><trkpt lat="45.400215942600596" lon="10.520614651287744"><ele>120.0</ele><time>2026-03-30T13:25:54Z</time></trkpt><trkpt lat="45.40037543121693" lon="10.520543492739113"><ele>120.0</ele><time>2026-03-30T13:25:55Z</time></trkpt><trkpt lat="45.400534217115066" lon="10.520409367500271"><ele>120.0</ele><time>2026-03-30T13:25:56Z</time></trkpt><trkpt lat="45.40069354016972" lon="10.520268075647222"><ele>119.33333333333334</ele><time>2026-03-30T13:25:57Z</time></trkpt><trkpt lat="45.400855196072214" lon="10.520108977141568"><ele>118.66666666666667</ele><time>2026-03-30T13:25:58Z</time></trkpt><trkpt lat="45.4010300182826" lon="10.519977187138293"><ele>118.0</ele><time>2026-03-30T13:25:59Z</time></trkpt><trkpt lat="45.401181590333216" lon="10.51984302609695"><ele>117.66666666666667</ele><time>2026-03-30T13:26:00Z</time></trkpt><trkpt lat="45.40134082693951" lon="10.519704269709178"><ele>117.33333333333334</ele><time>2026-03-30T13:26:01Z</time></trkpt><trkpt lat="45.40149203307683" lon="10.519579156479123"><ele>117.0</ele><time>2026-03-30T13:26:02Z</time></trkpt><trkpt lat="45.40164458927" lon="10.519492483099997"><ele>116.66666666666666</ele><time>2026-03-30T13:26:03Z</time></trkpt><trkpt lat="45.40179301400951" lon="10.519412185625955"><ele>116.33333333333333</ele><time>2026-03-30T13:26:04Z</time></trkpt><trkpt lat="45.4019336614384" lon="10.519325026927445"><ele>116.0</ele><time>2026-03-30T13:26:05Z</time></trkpt><trkpt lat="45.4021132939804" lon="10.519188433741794"><ele>116.5</ele><time>2026-03-30T13:26:06Z</time></trkpt><trkpt lat="45.402329668314664" lon="10.519078161260833"><ele>117.0</ele><time>2026-03-30T13:26:07Z</time></trkpt><trkpt lat="45.402538867697196" lon="10.518949359593977"><ele>117.0</ele><time>2026-03-30T13:26:08Z</time></trkpt><trkpt lat="45.402747493324526" lon="10.518804752289004"><ele>117.0</ele><time>2026-03-30T13:26:09Z</time></trkpt><trkpt lat="45.40298611334376" lon="10.51865583733442"><ele>117.0</ele><time>2026-03-30T13:26:10Z</time></trkpt><trkpt lat="45.403249408024905" lon="10.518468935479897"><ele>117.0</ele><time>2026-03-30T13:26:11Z</time></trkpt><trkpt lat="45.40350572879187" lon="10.51827852257806"><ele>117.0</ele><time>2026-03-30T13:26:12Z</time></trkpt><trkpt lat="45.40374475508359" lon="10.518109710659461"><ele>117.0</ele><time>2026-03-30T13:26:13Z</time></trkpt><trkpt lat="45.4039691681674" lon="10.51794788268414"><ele>117.5</ele><time>2026-03-30T13:26:14Z</time></trkpt><trkpt lat="45.40418791961044" lon="10.5177883748889"><ele>118.0</ele><time>2026-03-30T13:26:15Z</time></trkpt><trkpt lat="45.404392139126514" lon="10.517662894056155"><ele>118.0</ele><time>2026-03-30T13:26:16Z</time></trkpt><trkpt lat="45.40458272586666" lon="10.51752389275562"><ele>118.0</ele><time>2026-03-30T13:26:17Z</time></trkpt><trkpt lat="45.40476170246187" lon="10.517368892957846"><ele>118.0</ele><time>2026-03-30T13:26:18Z</time></trkpt><trkpt lat="45.404935931779804" lon="10.517252632091564"><ele>118.0</ele><time>2026-03-30T13:26:19Z</time></trkpt><trkpt lat="45.40509323695318" lon="10.51714435166054"><ele>118.0</ele><time>2026-03-30T13:26:20Z</time></trkpt><trkpt lat="45.40524345863287" lon="10.517031721642885"><ele>118.0</ele><time>2026-03-30T13:26:21Z</time></trkpt><trkpt lat="45.405385390865916" lon="10.516917096590374"><ele>118.66666666666667</ele><time>2026-03-30T13:26:22Z</time></trkpt><trkpt lat="45.40551729260185" lon="10.516818173178482"><ele>119.33333333333334</ele><time>2026-03-30T13:26:23Z</time></trkpt><trkpt lat="45.40566027268114" lon="10.516751862372447"><ele>120.0</ele><time>2026-03-30T13:26:24Z</time></trkpt><trkpt lat="45.40580645505617" lon="10.516681258525445"><ele>120.0</ele><time>2026-03-30T13:26:25Z</time></trkpt><trkpt lat="45.40595231378835" lon="10.516611226893884"><ele>120.0</ele><time>2026-03-30T13:26:26Z</time></trkpt><trkpt lat="45.40608251235895" lon="10.516526974905794"><ele>120.0</ele><time>2026-03-30T13:26:27Z</time></trkpt><trkpt lat="45.40619859235063" lon="10.51647028896032"><ele>120.0</ele><time>2026-03-30T13:26:28Z</time></trkpt><trkpt lat="45.406282159515" lon="10.516417049889407"><ele>119.8</ele><time>2026-03-30T13:26:29Z</time></trkpt><trkpt lat="45.406344263837795" lon="10.516357009570935"><ele>119.6</ele><time>2026-03-30T13:26:30Z</time></trkpt><trkpt lat="45.40639719450229" lon="10.516261507962854"><ele>119.4</ele><time>2026-03-30T13:26:31Z</time></trkpt><trkpt lat="45.40643220728804" lon="10.516138872181946"><ele>119.2</ele><time>2026-03-30T13:26:32Z</time></trkpt><trkpt lat="45.406447293148105" lon="10.516003596758075"><ele>119.0</ele><time>2026-03-30T13:26:33Z</time></trkpt><trkpt lat="45.406443953015646" lon="10.515861009997735"><ele>118.99999999999999</ele><time>2026-03-30T13:26:34Z</time></trkpt><trkpt lat="45.406431050255804" lon="10.515735092181119"><ele>119.0</ele><time>2026-03-30T13:26:35Z</time></trkpt><trkpt lat="45.40642487694723" lon="10.515599571247964"><ele>119.0</ele><time>2026-03-30T13:26:36Z</time></trkpt><trkpt lat="45.40640758690787" lon="10.515469654442734"><ele>119.0</ele><time>2026-03-30T13:26:37Z</time></trkpt><trkpt lat="45.406407644428775" lon="10.515364648551893"><ele>118.99999999999999</ele><time>2026-03-30T13:26:38Z</time></trkpt><trkpt lat="45.40642171472467" lon="10.51526990775506"><ele>119.0</ele><time>2026-03-30T13:26:39Z</time></trkpt><trkpt lat="45.406459552974894" lon="10.515189691855854"><ele>119.0</ele><time>2026-03-30T13:26:40Z</time></trkpt><trkpt lat="45.4065319613245" lon="10.515173486009582"><ele>119.0</ele><time>2026-03-30T13:26:41Z</time></trkpt><trkpt lat="45.40660391054149" lon="10.515100439537887"><ele>119.0</ele><time>2026-03-30T13:26:42Z</time></trkpt><trkpt lat="45.4066660620848" lon="10.515006279850846"><ele>119.0</ele><time>2026-03-30T13:26:43Z</time></trkpt><trkpt lat="45.40674549248676" lon="10.51491379233616"><ele>119.0</ele><time>2026-03-30T13:26:44Z</time></trkpt><trkpt lat="45.406818750315864" lon="10.514799304005694"><ele>119.0</ele><time>2026-03-30T13:26:45Z</time></trkpt><trkpt lat="45.4068732311332" lon="10.51467316479006"><ele>119.0</ele><time>2026-03-30T13:26:46Z</time></trkpt><trkpt lat="45.40691405180612" lon="10.514544872624041"><ele>119.0</ele><time>2026-03-30T13:26:47Z</time></trkpt><trkpt lat="45.40695080520846" lon="10.514412541297515"><ele>119.0</ele><time>2026-03-30T13:26:48Z</time></trkpt><trkpt lat="45.40698197629111" lon="10.51429622028476"><ele>119.0</ele><time>2026-03-30T13:26:49Z</time></trkpt><trkpt lat="45.40700795496698" lon="10.514187202719961"><ele>118.83333333333333</ele><time>2026-03-30T13:26:50Z</time></trkpt><trkpt lat="45.40703593149477" lon="10.514095680522114"><ele>118.66666666666666</ele><time>2026-03-30T13:26:51Z</time></trkpt><trkpt lat="45.40706211157892" lon="10.513972346712595"><ele>118.5</ele><time>2026-03-30T13:26:53Z</time></trkpt><trkpt lat="45.40707655025937" lon="10.513856412889035"><ele>118.33333333333334</ele><time>2026-03-30T13:26:55Z</time></trkpt><trkpt lat="45.40708365895266" lon="10.51374483584052"><ele>118.16666666666667</ele><time>2026-03-30T13:26:56Z</time></trkpt><trkpt lat="45.40708253521628" lon="10.513611746258208"><ele>118.0</ele><time>2026-03-30T13:26:57Z</time></trkpt><trkpt lat="45.40707452896043" lon="10.513473535384183"><ele>117.80000000000001</ele><time>2026-03-30T13:26:58Z</time></trkpt><trkpt lat="45.40704817377788" lon="10.513330441056807"><ele>117.60000000000001</ele><time>2026-03-30T13:26:59Z</time></trkpt><trkpt lat="45.4070015305666" lon="10.51319336461922"><ele>117.39999999999999</ele><time>2026-03-30T13:26:59.999Z</time></trkpt><trkpt lat="45.40694787370076" lon="10.513076433324068"><ele>117.19999999999999</ele><time>2026-03-30T13:27:00.998Z</time></trkpt><trkpt lat="45.406903985245954" lon="10.512932073865095"><ele>117.0</ele><time>2026-03-30T13:27:01.998Z</time></trkpt><trkpt lat="45.406906464673334" lon="10.512789477345347"><ele>117.25</ele><time>2026-03-30T13:27:02.998Z</time></trkpt><trkpt lat="45.40693799426049" lon="10.512650943257569"><ele>117.5</ele><time>2026-03-30T13:27:03.998Z</time></trkpt><trkpt lat="45.406978101270646" lon="10.512424799648286"><ele>117.75</ele><time>2026-03-30T13:27:04.998Z</time></trkpt><trkpt lat="45.40703979215865" lon="10.512190379124897"><ele>118.0</ele><time>2026-03-30T13:27:05.998Z</time></trkpt><trkpt lat="45.40711164070568" lon="10.511951566144607"><ele>118.0</ele><time>2026-03-30T13:27:06.998Z</time></trkpt><trkpt lat="45.40719258890366" lon="10.511714318591306"><ele>118.0</ele><time>2026-03-30T13:27:07.998Z</time></trkpt><trkpt lat="45.40730507462447" lon="10.511529545070154"><ele>118.0</ele><time>2026-03-30T13:27:08.998Z</time></trkpt><trkpt lat="45.40741226377597" lon="10.511319803421424"><ele>119.33333333333334</ele><time>2026-03-30T13:27:09.998Z</time></trkpt><trkpt lat="45.40750433260687" lon="10.511062748999954"><ele>120.66666666666666</ele><time>2026-03-30T13:27:10.998Z</time></trkpt><trkpt lat="45.407594619540454" lon="10.51082620849778"><ele>122.0</ele><time>2026-03-30T13:27:11.998Z</time></trkpt><trkpt lat="45.40765859608813" lon="10.510631930709291"><ele>122.0</ele><time>2026-03-30T13:27:12.998Z</time></trkpt><trkpt lat="45.4077139448252" lon="10.510457460842137"><ele>121.99999999999999</ele><time>2026-03-30T13:27:13.998Z</time></trkpt><trkpt lat="45.40776324397247" lon="10.510315062957167"><ele>121.99999999999999</ele><time>2026-03-30T13:27:14.998Z</time></trkpt><trkpt lat="45.40780132983625" lon="10.51020339756029"><ele>122.0</ele><time>2026-03-30T13:27:15.998Z</time></trkpt><trkpt lat="45.40782693545083" lon="10.510097313771988"><ele>122.0</ele><time>2026-03-30T13:27:16.998Z</time></trkpt><trkpt lat="45.407832664811615" lon="10.509985496601425"><ele>122.0</ele><time>2026-03-30T13:27:17.998Z</time></trkpt><trkpt lat="45.40785647547143" lon="10.509868585305936"><ele>122.0</ele><time>2026-03-30T13:27:19.998Z</time></trkpt><trkpt lat="45.40798833218177" lon="10.509817807662571"><ele>122.0</ele><time>2026-03-30T13:27:21.998Z</time></trkpt><trkpt lat="45.40811983284291" lon="10.509761638696537"><ele>122.0</ele><time>2026-03-30T13:27:22.998Z</time></trkpt><trkpt lat="45.40827662579048" lon="10.509727159781649"><ele>122.0</ele><time>2026-03-30T13:27:23.998Z</time></trkpt><trkpt lat="45.40845471391408" lon="10.509675667369729"><ele>122.0</ele><time>2026-03-30T13:27:24.998Z</time></trkpt><trkpt lat="45.40865037083215" lon="10.509619015414607"><ele>122.0</ele><time>2026-03-30T13:27:25.998Z</time></trkpt><trkpt lat="45.408859353522296" lon="10.50955700492569"><ele>123.0</ele><time>2026-03-30T13:27:26.998Z</time></trkpt><trkpt lat="45.409082302502846" lon="10.509493352849098"><ele>124.0</ele><time>2026-03-30T13:27:27.998Z</time></trkpt><trkpt lat="45.409319710097634" lon="10.509429289930805"><ele>124.0</ele><time>2026-03-30T13:27:28.998Z</time></trkpt><trkpt lat="45.409563458805756" lon="10.50936286132002"><ele>124.0</ele><time>2026-03-30T13:27:29.998Z</time></trkpt><trkpt lat="45.40980499106228" lon="10.509292774284063"><ele>122.5</ele><time>2026-03-30T13:27:30.998Z</time></trkpt><trkpt lat="45.410043863697645" lon="10.509222228072693"><ele>121.0</ele><time>2026-03-30T13:27:31.998Z</time></trkpt><trkpt lat="45.41027231599886" lon="10.509153070402688"><ele>118.5</ele><time>2026-03-30T13:27:32.998Z</time></trkpt><trkpt lat="45.41049403167722" lon="10.509089521368297"><ele>116.0</ele><time>2026-03-30T13:27:33.998Z</time></trkpt><trkpt lat="45.41071565442785" lon="10.509036453290852"><ele>116.0</ele><time>2026-03-30T13:27:34.998Z</time></trkpt><trkpt lat="45.41094382372225" lon="10.509006003761215"><ele>116.0</ele><time>2026-03-30T13:27:35.998Z</time></trkpt><trkpt lat="45.41117226722727" lon="10.508994360272279"><ele>116.33333333333333</ele><time>2026-03-30T13:27:36.998Z</time></trkpt><trkpt lat="45.41140281579459" lon="10.508998696568545"><ele>116.66666666666666</ele><time>2026-03-30T13:27:37.998Z</time></trkpt><trkpt lat="45.41160824459813" lon="10.509019153553002"><ele>117.0</ele><time>2026-03-30T13:27:38.998Z</time></trkpt><trkpt lat="45.41180295026254" lon="10.509057266583133"><ele>117.0</ele><time>2026-03-30T13:27:39.998Z</time></trkpt><trkpt lat="45.41199783904601" lon="10.509105110377156"><ele>117.0</ele><time>2026-03-30T13:27:40.998Z</time></trkpt><trkpt lat="45.41219343333246" lon="10.5091618186895"><ele>117.0</ele><time>2026-03-30T13:27:41.998Z</time></trkpt><trkpt lat="45.41239417628579" lon="10.509221271866167"><ele>117.33333333333334</ele><time>2026-03-30T13:27:42.998Z</time></trkpt><trkpt lat="45.41258129197366" lon="10.509286181020745"><ele>117.66666666666667</ele><time>2026-03-30T13:27:43.998Z</time></trkpt><trkpt lat="45.41277983328769" lon="10.509347925332"><ele>118.0</ele><time>2026-03-30T13:27:44.998Z</time></trkpt><trkpt lat="45.41297246541883" lon="10.509411982628261"><ele>118.0</ele><time>2026-03-30T13:27:45.998Z</time></trkpt><trkpt lat="45.41317228601992" lon="10.50947788526662"><ele>118.0</ele><time>2026-03-30T13:27:46.998Z</time></trkpt><trkpt lat="45.41336597452207" lon="10.50954221719279"><ele>118.0</ele><time>2026-03-30T13:27:47.998Z</time></trkpt><trkpt lat="45.41356714344177" lon="10.509605555121375"><ele>118.33333333333334</ele><time>2026-03-30T13:27:48.998Z</time></trkpt><trkpt lat="45.41376140150573" lon="10.509668546920215"><ele>118.66666666666666</ele><time>2026-03-30T13:27:49.998Z</time></trkpt><trkpt lat="45.41395688965517" lon="10.509732754393651"><ele>119.0</ele><time>2026-03-30T13:27:50.998Z</time></trkpt><trkpt lat="45.414146619389676" lon="10.509800744056728"><ele>119.0</ele><time>2026-03-30T13:27:51.998Z</time></trkpt><trkpt lat="45.414346925017014" lon="10.509867057565513"><ele>119.0</ele><time>2026-03-30T13:27:52.999Z</time></trkpt><trkpt lat="45.41454092994022" lon="10.509931683757392"><ele>119.0</ele><time>2026-03-30T13:27:53.999Z</time></trkpt><trkpt lat="45.414739718630585" lon="10.509995924022826"><ele>118.0</ele><time>2026-03-30T13:27:54.999Z</time></trkpt><trkpt lat="45.41494250957759" lon="10.510057000940895"><ele>117.0</ele><time>2026-03-30T13:27:55.999Z</time></trkpt><trkpt lat="45.4151415039262" lon="10.51012276467509"><ele>116.0</ele><time>2026-03-30T13:27:56.999Z</time></trkpt><trkpt lat="45.41533798203776" lon="10.510186700084777"><ele>116.33333333333333</ele><time>2026-03-30T13:27:57.999Z</time></trkpt><trkpt lat="45.41553269261315" lon="10.510250167199763"><ele>116.66666666666666</ele><time>2026-03-30T13:27:58.999Z</time></trkpt><trkpt lat="45.415727181760644" lon="10.510313610895082"><ele>117.0</ele><time>2026-03-30T13:27:59.999Z</time></trkpt><trkpt lat="45.41592090753983" lon="10.510376973132058"><ele>116.66666666666666</ele><time>2026-03-30T13:28:00.999Z</time></trkpt><trkpt lat="45.41610980850045" lon="10.51043934744636"><ele>116.33333333333333</ele><time>2026-03-30T13:28:01.999Z</time></trkpt><trkpt lat="45.416299233010584" lon="10.510502649064776"><ele>116.0</ele><time>2026-03-30T13:28:02.999Z</time></trkpt><trkpt lat="45.4165001662483" lon="10.51056958288316"><ele>115.66666666666666</ele><time>2026-03-30T13:28:03.999Z</time></trkpt><trkpt lat="45.41669911264689" lon="10.510636016674665"><ele>115.33333333333334</ele><time>2026-03-30T13:28:04.999Z</time></trkpt><trkpt lat="45.41690109005664" lon="10.510700702607407"><ele>115.0</ele><time>2026-03-30T13:28:05.999Z</time></trkpt><trkpt lat="45.41710214066031" lon="10.510763383592963"><ele>115.0</ele><time>2026-03-30T13:28:06.999Z</time></trkpt><trkpt lat="45.41730127225682" lon="10.510829753059555"><ele>115.0</ele><time>2026-03-30T13:28:07.999Z</time></trkpt><trkpt lat="45.41750114837882" lon="10.51089678463481"><ele>115.0</ele><time>2026-03-30T13:28:08.999Z</time></trkpt><trkpt lat="45.41770244381823" lon="10.51096106212825"><ele>115.0</ele><time>2026-03-30T13:28:09.999Z</time></trkpt><trkpt lat="45.41790240858676" lon="10.511023559317973"><ele>115.0</ele><time>2026-03-30T13:28:10.999Z</time></trkpt><trkpt lat="45.41810164176884" lon="10.511085172558166"><ele>115.0</ele><time>2026-03-30T13:28:11.999Z</time></trkpt><trkpt lat="45.41829583720221" lon="10.511151640567693"><ele>115.0</ele><time>2026-03-30T13:28:12.999Z</time></trkpt><trkpt lat="45.41847846586975" lon="10.51121536468092"><ele>115.0</ele><time>2026-03-30T13:28:13.999Z</time></trkpt><trkpt lat="45.41864881657874" lon="10.511272231078406"><ele>115.0</ele><time>2026-03-30T13:28:14.999Z</time></trkpt><trkpt lat="45.41880645516591" lon="10.511321683073499"><ele>116.75</ele><time>2026-03-30T13:28:15.999Z</time></trkpt><trkpt lat="45.418954647963666" lon="10.511369878752527"><ele>118.5</ele><time>2026-03-30T13:28:16.999Z</time></trkpt><trkpt lat="45.419092392855035" lon="10.511411284643428"><ele>120.25</ele><time>2026-03-30T13:28:17.999Z</time></trkpt><trkpt lat="45.419222564529846" lon="10.511450685500277"><ele>122.0</ele><time>2026-03-30T13:28:18.999Z</time></trkpt><trkpt lat="45.41935095986276" lon="10.51149447023738"><ele>122.0</ele><time>2026-03-30T13:28:19.999Z</time></trkpt><trkpt lat="45.419479324443444" lon="10.511538017286341"><ele>122.0</ele><time>2026-03-30T13:28:20.999Z</time></trkpt><trkpt lat="45.41960712839233" lon="10.511579813390863"><ele>122.0</ele><time>2026-03-30T13:28:21.999Z</time></trkpt><trkpt lat="45.41973725759129" lon="10.511621785383134"><ele>122.0</ele><time>2026-03-30T13:28:22.999Z</time></trkpt><trkpt lat="45.41987019460476" lon="10.5116636571414"><ele>121.75</ele><time>2026-03-30T13:28:23.999Z</time></trkpt><trkpt lat="45.41999970981097" lon="10.511706611589423"><ele>121.5</ele><time>2026-03-30T13:28:24.999Z</time></trkpt><trkpt lat="45.42011894450571" lon="10.511746466793891"><ele>121.25</ele><time>2026-03-30T13:28:25.999Z</time></trkpt><trkpt lat="45.42023017844012" lon="10.511776368997381"><ele>121.0</ele><time>2026-03-30T13:28:26.999Z</time></trkpt><trkpt lat="45.420330063229265" lon="10.51178795344054"><ele>121.0</ele><time>2026-03-30T13:28:27.999Z</time></trkpt><trkpt lat="45.42042574323729" lon="10.511781640298695"><ele>121.0</ele><time>2026-03-30T13:28:28.999Z</time></trkpt><trkpt lat="45.42050990555793" lon="10.51176207335874"><ele>121.0</ele><time>2026-03-30T13:28:29.999Z</time></trkpt><trkpt lat="45.42058823581132" lon="10.511752562543979"><ele>121.0</ele><time>2026-03-30T13:28:30.999Z</time></trkpt><trkpt lat="45.42067973020611" lon="10.511779581448705"><ele>121.0</ele><time>2026-03-30T13:28:31.999Z</time></trkpt><trkpt lat="45.42076762190987" lon="10.511836515849538"><ele>121.0</ele><time>2026-03-30T13:28:32.999Z</time></trkpt><trkpt lat="45.42085739805383" lon="10.511900911297461"><ele>121.0</ele><time>2026-03-30T13:28:33.999Z</time></trkpt><trkpt lat="45.420948043379745" lon="10.511952051490976"><ele>121.0</ele><time>2026-03-30T13:28:34.999Z</time></trkpt><trkpt lat="45.42104093999637" lon="10.511979607321043"><ele>121.0</ele><time>2026-03-30T13:28:35.999Z</time></trkpt><trkpt lat="45.421136557354565" lon="10.511991726203773"><ele>121.0</ele><time>2026-03-30T13:28:36.999Z</time></trkpt><trkpt lat="45.421229633556656" lon="10.511987876206867"><ele>121.0</ele><time>2026-03-30T13:28:37.999Z</time></trkpt><trkpt lat="45.42131892368664" lon="10.511949746909764"><ele>121.0</ele><time>2026-03-30T13:28:38.999Z</time></trkpt><trkpt lat="45.42139940074411" lon="10.51188641549677"><ele>121.0</ele><time>2026-03-30T13:28:39.999Z</time></trkpt><trkpt lat="45.42147514477042" lon="10.511805946769377"><ele>121.0</ele><time>2026-03-30T13:28:40.999Z</time></trkpt><trkpt lat="45.421541701720464" lon="10.511710087882498"><ele>121.0</ele><time>2026-03-30T13:28:41.999Z</time></trkpt><trkpt lat="45.42159163024623" lon="10.5116004223746"><ele>121.00000000000001</ele><time>2026-03-30T13:28:42.999Z</time></trkpt><trkpt lat="45.42162575909169" lon="10.51148749246228"><ele>121.0</ele><time>2026-03-30T13:28:43.999Z</time></trkpt><trkpt lat="45.4216497437818" lon="10.511359200808249"><ele>121.0</ele><time>2026-03-30T13:28:44.999Z</time></trkpt><trkpt lat="45.42165863454612" lon="10.51123752054761"><ele>121.0</ele><time>2026-03-30T13:28:45.999Z</time></trkpt><trkpt lat="45.42165388075434" lon="10.511113130786056"><ele>121.00000000000001</ele><time>2026-03-30T13:28:46.999Z</time></trkpt><trkpt lat="45.42163348346211" lon="10.51099366047184"><ele>121.0</ele><time>2026-03-30T13:28:47.999Z</time></trkpt><trkpt lat="45.42159025456082" lon="10.51087978143546"><ele>120.8</ele><time>2026-03-30T13:28:48.999Z</time></trkpt><trkpt lat="45.42153536302813" lon="10.510768600327541"><ele>120.6</ele><time>2026-03-30T13:28:49.999Z</time></trkpt><trkpt lat="45.42147356841924" lon="10.510668795763577"><ele>120.4</ele><time>2026-03-30T13:28:50.999Z</time></trkpt><trkpt lat="45.421392951293406" lon="10.51058361502821"><ele>120.2</ele><time>2026-03-30T13:28:51.999Z</time></trkpt><trkpt lat="45.42129807210571" lon="10.510527507818031"><ele>120.0</ele><time>2026-03-30T13:28:52.999Z</time></trkpt><trkpt lat="45.42119225954154" lon="10.510498265294146"><ele>120.4</ele><time>2026-03-30T13:28:53.999Z</time></trkpt><trkpt lat="45.42108786069086" lon="10.510499290215154"><ele>120.8</ele><time>2026-03-30T13:28:54.999Z</time></trkpt><trkpt lat="45.42098587176828" lon="10.510526356884817"><ele>121.19999999999999</ele><time>2026-03-30T13:28:55.999Z</time></trkpt><trkpt lat="45.42088295801205" lon="10.510575669029881"><ele>121.6</ele><time>2026-03-30T13:28:56.999Z</time></trkpt><trkpt lat="45.42078782667263" lon="10.51064588583386"><ele>122.0</ele><time>2026-03-30T13:28:57.999Z</time></trkpt><trkpt lat="45.42071084187075" lon="10.510741149415518"><ele>122.0</ele><time>2026-03-30T13:28:58.999Z</time></trkpt><trkpt lat="45.42065617149406" lon="10.510844190277247"><ele>121.99999999999999</ele><time>2026-03-30T13:28:59.999Z</time></trkpt><trkpt lat="45.42062476937797" lon="10.510976523336842"><ele>121.99999999999999</ele><time>2026-03-30T13:29:00.999Z</time></trkpt><trkpt lat="45.42061266687684" lon="10.511119032356289"><ele>122.0</ele><time>2026-03-30T13:29:01.999Z</time></trkpt><trkpt lat="45.4206091134051" lon="10.51127162268761"><ele>122.0</ele><time>2026-03-30T13:29:02.999Z</time></trkpt><trkpt lat="45.42062955273105" lon="10.511436343595017"><ele>121.75</ele><time>2026-03-30T13:29:03.999Z</time></trkpt><trkpt lat="45.42068368132979" lon="10.511593919055588"><ele>121.5</ele><time>2026-03-30T13:29:04.999Z</time></trkpt><trkpt lat="45.420748218410424" lon="10.511740651719744"><ele>121.25</ele><time>2026-03-30T13:29:05.999Z</time></trkpt><trkpt lat="45.42082100146023" lon="10.511901995647975"><ele>121.0</ele><time>2026-03-30T13:29:06.999Z</time></trkpt><trkpt lat="45.42094992602011" lon="10.511990000723015"><ele>121.0</ele><time>2026-03-30T13:29:07.999Z</time></trkpt><trkpt lat="45.421093066880985" lon="10.512025066025336"><ele>121.0</ele><time>2026-03-30T13:29:08.999Z</time></trkpt><trkpt lat="45.42125493129972" lon="10.512046292180594"><ele>121.0</ele><time>2026-03-30T13:29:09.999Z</time></trkpt><trkpt lat="45.4214428764421" lon="10.512118493705762"><ele>120.66666666666667</ele><time>2026-03-30T13:29:10.999Z</time></trkpt><trkpt lat="45.42161763373944" lon="10.512258104750547"><ele>120.33333333333334</ele><time>2026-03-30T13:29:11.999Z</time></trkpt><trkpt lat="45.42181836119654" lon="10.512440620148544"><ele>120.0</ele><time>2026-03-30T13:29:12.999Z</time></trkpt><trkpt lat="45.4220648797159" lon="10.512622534721299"><ele>120.5</ele><time>2026-03-30T13:29:13.999Z</time></trkpt><trkpt lat="45.422283815504166" lon="10.512794384490322"><ele>121.0</ele><time>2026-03-30T13:29:14.999Z</time></trkpt><trkpt lat="45.42248243980692" lon="10.512935799920621"><ele>121.0</ele><time>2026-03-30T13:29:15.999Z</time></trkpt><trkpt lat="45.42266275541842" lon="10.513055786323722"><ele>121.0</ele><time>2026-03-30T13:29:16.999Z</time></trkpt><trkpt lat="45.42283262634291" lon="10.513167765977451"><ele>121.0</ele><time>2026-03-30T13:29:17.999Z</time></trkpt><trkpt lat="45.42300371910376" lon="10.513285029148777"><ele>120.66666666666667</ele><time>2026-03-30T13:29:18.999Z</time></trkpt><trkpt lat="45.42317402187696" lon="10.513413382802579"><ele>120.33333333333334</ele><time>2026-03-30T13:29:19.999Z</time></trkpt><trkpt lat="45.42334466702925" lon="10.513536809107437"><ele>120.0</ele><time>2026-03-30T13:29:20.999Z</time></trkpt><trkpt lat="45.423523574913766" lon="10.513645916577062"><ele>120.0</ele><time>2026-03-30T13:29:21.999Z</time></trkpt><trkpt lat="45.42369207282101" lon="10.51381353357224"><ele>120.0</ele><time>2026-03-30T13:29:22.999Z</time></trkpt><trkpt lat="45.42386368834886" lon="10.513962732760483"><ele>120.0</ele><time>2026-03-30T13:29:23.999Z</time></trkpt><trkpt lat="45.42403449682713" lon="10.514104940386128"><ele>120.0</ele><time>2026-03-30T13:29:24.999Z</time></trkpt><trkpt lat="45.424203416886954" lon="10.514242787883623"><ele>120.0</ele><time>2026-03-30T13:29:25.999Z</time></trkpt><trkpt lat="45.424376559677164" lon="10.51438698672682"><ele>120.0</ele><time>2026-03-30T13:29:26.999Z</time></trkpt><trkpt lat="45.42454724263251" lon="10.514534697892188"><ele>120.66666666666666</ele><time>2026-03-30T13:29:27.999Z</time></trkpt><trkpt lat="45.42471525240808" lon="10.514676676967525"><ele>121.33333333333333</ele><time>2026-03-30T13:29:28.999Z</time></trkpt><trkpt lat="45.42488436761509" lon="10.514810405740244"><ele>122.0</ele><time>2026-03-30T13:29:29.999Z</time></trkpt><trkpt lat="45.42505065895013" lon="10.514945286093585"><ele>122.0</ele><time>2026-03-30T13:29:30.999Z</time></trkpt><trkpt lat="45.42522209842214" lon="10.51507888855372"><ele>122.0</ele><time>2026-03-30T13:29:31.999Z</time></trkpt><trkpt lat="45.42539898738288" lon="10.515208699924285"><ele>122.0</ele><time>2026-03-30T13:29:32.999Z</time></trkpt><trkpt lat="45.42557921163211" lon="10.515331778382917"><ele>122.0</ele><time>2026-03-30T13:29:33.998Z</time></trkpt><trkpt lat="45.42576061089983" lon="10.515448511978757"><ele>122.0</ele><time>2026-03-30T13:29:34.998Z</time></trkpt><trkpt lat="45.42594128686214" lon="10.515556263162763"><ele>122.0</ele><time>2026-03-30T13:29:35.998Z</time></trkpt><trkpt lat="45.42612165342735" lon="10.515655057432085"><ele>122.0</ele><time>2026-03-30T13:29:36.998Z</time></trkpt><trkpt lat="45.42630703004401" lon="10.515761086655873"><ele>122.0</ele><time>2026-03-30T13:29:37.998Z</time></trkpt><trkpt lat="45.426489240984885" lon="10.51585495185224"><ele>122.0</ele><time>2026-03-30T13:29:38.998Z</time></trkpt><trkpt lat="45.42668038412468" lon="10.515946620878333"><ele>122.0</ele><time>2026-03-30T13:29:39.998Z</time></trkpt><trkpt lat="45.42687545664802" lon="10.516037463903835"><ele>122.0</ele><time>2026-03-30T13:29:40.998Z</time></trkpt><trkpt lat="45.42706793757474" lon="10.51611429267191"><ele>122.0</ele><time>2026-03-30T13:29:41.998Z</time></trkpt><trkpt lat="45.42726540524375" lon="10.51618390892971"><ele>122.33333333333333</ele><time>2026-03-30T13:29:42.998Z</time></trkpt><trkpt lat="45.427468398910094" lon="10.51625390141213"><ele>122.66666666666666</ele><time>2026-03-30T13:29:43.998Z</time></trkpt><trkpt lat="45.42766575544832" lon="10.516310291904237"><ele>123.0</ele><time>2026-03-30T13:29:44.998Z</time></trkpt><trkpt lat="45.427865443466764" lon="10.516363719031416"><ele>123.0</ele><time>2026-03-30T13:29:45.998Z</time></trkpt><trkpt lat="45.428067162156175" lon="10.516418969304034"><ele>123.0</ele><time>2026-03-30T13:29:46.998Z</time></trkpt><trkpt lat="45.42826626847943" lon="10.516469294370719"><ele>123.0</ele><time>2026-03-30T13:29:47.998Z</time></trkpt><trkpt lat="45.42846484134819" lon="10.516516145746357"><ele>123.0</ele><time>2026-03-30T13:29:48.998Z</time></trkpt><trkpt lat="45.42866571300826" lon="10.516567526558038"><ele>123.0</ele><time>2026-03-30T13:29:49.998Z</time></trkpt><trkpt lat="45.42886586608896" lon="10.516618117799183"><ele>123.0</ele><time>2026-03-30T13:29:50.998Z</time></trkpt><trkpt lat="45.429066220643705" lon="10.516667524904447"><ele>123.0</ele><time>2026-03-30T13:29:51.998Z</time></trkpt><trkpt lat="45.429266516039384" lon="10.516710575381266"><ele>123.0</ele><time>2026-03-30T13:29:52.998Z</time></trkpt><trkpt lat="45.42946817073602" lon="10.516755523934219"><ele>123.0</ele><time>2026-03-30T13:29:53.998Z</time></trkpt><trkpt lat="45.42966667100942" lon="10.516803510446383"><ele>123.0</ele><time>2026-03-30T13:29:54.998Z</time></trkpt><trkpt lat="45.42986872383133" lon="10.516850535004265"><ele>123.0</ele><time>2026-03-30T13:29:55.998Z</time></trkpt><trkpt lat="45.430066779703516" lon="10.516891877249856"><ele>123.0</ele><time>2026-03-30T13:29:56.998Z</time></trkpt><trkpt lat="45.43026750260961" lon="10.516929834447811"><ele>123.0</ele><time>2026-03-30T13:29:57.998Z</time></trkpt><trkpt lat="45.43046912378504" lon="10.516964915664254"><ele>123.0</ele><time>2026-03-30T13:29:59Z</time></trkpt><trkpt lat="45.430672531137276" lon="10.517000331672792"><ele>123.0</ele><time>2026-03-30T13:30:00Z</time></trkpt><trkpt lat="45.43087105683741" lon="10.517036046242204"><ele>123.0</ele><time>2026-03-30T13:30:01Z</time></trkpt><trkpt lat="45.43106424278533" lon="10.517075471385544"><ele>123.0</ele><time>2026-03-30T13:30:02Z</time></trkpt><trkpt lat="45.43125931867026" lon="10.51711953802923"><ele>123.0</ele><time>2026-03-30T13:30:03Z</time></trkpt><trkpt lat="45.43145209328431" lon="10.517162717193719"><ele>123.0</ele><time>2026-03-30T13:30:04Z</time></trkpt><trkpt lat="45.43164797397405" lon="10.51719914633793"><ele>123.0</ele><time>2026-03-30T13:30:05Z</time></trkpt><trkpt lat="45.43184616219512" lon="10.517218049266361"><ele>123.0</ele><time>2026-03-30T13:30:06Z</time></trkpt><trkpt lat="45.43204917528831" lon="10.517239068316334"><ele>123.33333333333334</ele><time>2026-03-30T13:30:07Z</time></trkpt><trkpt lat="45.43224961108276" lon="10.517265527841564"><ele>123.66666666666667</ele><time>2026-03-30T13:30:08Z</time></trkpt><trkpt lat="45.432457449843376" lon="10.517302453321346"><ele>124.0</ele><time>2026-03-30T13:30:09Z</time></trkpt><trkpt lat="45.43266290998075" lon="10.517348529875527"><ele>124.0</ele><time>2026-03-30T13:30:10Z</time></trkpt><trkpt lat="45.43287496672518" lon="10.517403230403255"><ele>124.0</ele><time>2026-03-30T13:30:11Z</time></trkpt><trkpt lat="45.43308197555756" lon="10.517452466742546"><ele>124.0</ele><time>2026-03-30T13:30:12Z</time></trkpt><trkpt lat="45.43328338669758" lon="10.517493856221005"><ele>124.33333333333334</ele><time>2026-03-30T13:30:13Z</time></trkpt><trkpt lat="45.43349336438087" lon="10.517540821346529"><ele>124.66666666666666</ele><time>2026-03-30T13:30:14Z</time></trkpt><trkpt lat="45.4336984702909" lon="10.517581475118297"><ele>125.0</ele><time>2026-03-30T13:30:15Z</time></trkpt><trkpt lat="45.43390091552903" lon="10.51762122813107"><ele>125.33333333333333</ele><time>2026-03-30T13:30:16Z</time></trkpt><trkpt lat="45.43410037413354" lon="10.517663745911246"><ele>125.66666666666666</ele><time>2026-03-30T13:30:17Z</time></trkpt><trkpt lat="45.43430466759993" lon="10.517706879613565"><ele>126.0</ele><time>2026-03-30T13:30:18Z</time></trkpt><trkpt lat="45.434503687833605" lon="10.517748254091245"><ele>126.66666666666666</ele><time>2026-03-30T13:30:19Z</time></trkpt><trkpt lat="45.43470692235726" lon="10.517788699469774"><ele>127.33333333333333</ele><time>2026-03-30T13:30:20Z</time></trkpt><trkpt lat="45.43491119823837" lon="10.517825199072684"><ele>128.0</ele><time>2026-03-30T13:30:20.999Z</time></trkpt><trkpt lat="45.435113356676844" lon="10.51785466338783"><ele>128.0</ele><time>2026-03-30T13:30:21.999Z</time></trkpt><trkpt lat="45.4353150265153" lon="10.517876546716172"><ele>128.0</ele><time>2026-03-30T13:30:22.999Z</time></trkpt><trkpt lat="45.4355210580516" lon="10.517890985947773"><ele>128.0</ele><time>2026-03-30T13:30:23.999Z</time></trkpt><trkpt lat="45.43573307866201" lon="10.517902390707217"><ele>127.33333333333333</ele><time>2026-03-30T13:30:24.999Z</time></trkpt><trkpt lat="45.43594000643629" lon="10.517908413035851"><ele>126.66666666666666</ele><time>2026-03-30T13:30:25.999Z</time></trkpt><trkpt lat="45.436146861117216" lon="10.517900640982086"><ele>126.0</ele><time>2026-03-30T13:30:26.999Z</time></trkpt><trkpt lat="45.436349029469866" lon="10.517891303484275"><ele>126.0</ele><time>2026-03-30T13:30:27.999Z</time></trkpt><trkpt lat="45.43655932115429" lon="10.51786898378048"><ele>126.0</ele><time>2026-03-30T13:30:28.999Z</time></trkpt><trkpt lat="45.4367682800057" lon="10.517844386630074"><ele>126.0</ele><time>2026-03-30T13:30:29.999Z</time></trkpt><trkpt lat="45.43697560549546" lon="10.517815434281824"><ele>126.66666666666666</ele><time>2026-03-30T13:30:30.999Z</time></trkpt><trkpt lat="45.43718649670316" lon="10.517784999851678"><ele>127.33333333333333</ele><time>2026-03-30T13:30:31.999Z</time></trkpt><trkpt lat="45.43740129015418" lon="10.517756142840083"><ele>128.0</ele><time>2026-03-30T13:30:32.999Z</time></trkpt><trkpt lat="45.43760933566204" lon="10.517729727561811"><ele>128.0</ele><time>2026-03-30T13:30:33.999Z</time></trkpt><trkpt lat="45.43782148968503" lon="10.517713403507878"><ele>128.0</ele><time>2026-03-30T13:30:34.999Z</time></trkpt><trkpt lat="45.43803547118823" lon="10.517705637452007"><ele>128.0</ele><time>2026-03-30T13:30:35.999Z</time></trkpt><trkpt lat="45.43825058833537" lon="10.51770596377221"><ele>128.0</ele><time>2026-03-30T13:30:36.999Z</time></trkpt><trkpt lat="45.43846394074816" lon="10.51771282668762"><ele>128.0</ele><time>2026-03-30T13:30:37.999Z</time></trkpt><trkpt lat="45.43867689672089" lon="10.517726500736401"><ele>128.0</ele><time>2026-03-30T13:30:38.999Z</time></trkpt><trkpt lat="45.43888973707678" lon="10.517743856033405"><ele>128.0</ele><time>2026-03-30T13:30:39.999Z</time></trkpt><trkpt lat="45.439102462635205" lon="10.51776892710746"><ele>128.0</ele><time>2026-03-30T13:30:40.999Z</time></trkpt><trkpt lat="45.439311273632455" lon="10.517801386131831"><ele>128.0</ele><time>2026-03-30T13:30:41.999Z</time></trkpt><trkpt lat="45.43951937169898" lon="10.517841094761486"><ele>128.0</ele><time>2026-03-30T13:30:42.999Z</time></trkpt><trkpt lat="45.439729002154" lon="10.517885687703416"><ele>128.0</ele><time>2026-03-30T13:30:43.999Z</time></trkpt><trkpt lat="45.439938654792314" lon="10.517941444297913"><ele>128.0</ele><time>2026-03-30T13:30:44.999Z</time></trkpt><trkpt lat="45.440148417644565" lon="10.518001294571226"><ele>128.33333333333331</ele><time>2026-03-30T13:30:45.999Z</time></trkpt><trkpt lat="45.440359780335086" lon="10.518064408433707"><ele>128.66666666666666</ele><time>2026-03-30T13:30:46.999Z</time></trkpt><trkpt lat="45.44056786588758" lon="10.518132705597948"><ele>129.0</ele><time>2026-03-30T13:30:47.999Z</time></trkpt><trkpt lat="45.44077657787503" lon="10.518210731531886"><ele>129.33333333333334</ele><time>2026-03-30T13:30:48.999Z</time></trkpt><trkpt lat="45.44098220196866" lon="10.518296636022368"><ele>129.66666666666669</ele><time>2026-03-30T13:30:49.999Z</time></trkpt><trkpt lat="45.44119611545561" lon="10.518379320006881"><ele>130.0</ele><time>2026-03-30T13:30:50.999Z</time></trkpt><trkpt lat="45.44140664332879" lon="10.518460727390575"><ele>130.66666666666669</ele><time>2026-03-30T13:30:51.999Z</time></trkpt><trkpt lat="45.44161811081516" lon="10.518539512825637"><ele>131.33333333333334</ele><time>2026-03-30T13:30:52.999Z</time></trkpt><trkpt lat="45.44183062889609" lon="10.51861740335812"><ele>132.0</ele><time>2026-03-30T13:30:53.999Z</time></trkpt><trkpt lat="45.44203916982264" lon="10.51869541214687"><ele>131.33333333333334</ele><time>2026-03-30T13:30:54.999Z</time></trkpt><trkpt lat="45.44224825592914" lon="10.518774984788172"><ele>130.66666666666669</ele><time>2026-03-30T13:30:55.999Z</time></trkpt><trkpt lat="45.44245557781727" lon="10.51885494561244"><ele>130.0</ele><time>2026-03-30T13:30:56.999Z</time></trkpt><trkpt lat="45.442656409672395" lon="10.518933627253606"><ele>130.0</ele><time>2026-03-30T13:30:57.999Z</time></trkpt><trkpt lat="45.44285669893612" lon="10.519009495484681"><ele>130.0</ele><time>2026-03-30T13:30:58.999Z</time></trkpt><trkpt lat="45.443054362634705" lon="10.519084238944279"><ele>130.0</ele><time>2026-03-30T13:30:59.999Z</time></trkpt><trkpt lat="45.443254093966836" lon="10.51915965836844"><ele>130.33333333333334</ele><time>2026-03-30T13:31:00.999Z</time></trkpt><trkpt lat="45.44344842630579" lon="10.51923313632232"><ele>130.66666666666666</ele><time>2026-03-30T13:31:01.999Z</time></trkpt><trkpt lat="45.443650022551246" lon="10.519301529050013"><ele>131.0</ele><time>2026-03-30T13:31:02.999Z</time></trkpt><trkpt lat="45.44385675521806" lon="10.51936410564705"><ele>131.66666666666666</ele><time>2026-03-30T13:31:03.999Z</time></trkpt><trkpt lat="45.44405638291616" lon="10.519434166925622"><ele>132.33333333333334</ele><time>2026-03-30T13:31:04.999Z</time></trkpt><trkpt lat="45.44425797686058" lon="10.51951119934836"><ele>133.0</ele><time>2026-03-30T13:31:05.999Z</time></trkpt><trkpt lat="45.44445535444365" lon="10.519586316613843"><ele>132.66666666666669</ele><time>2026-03-30T13:31:06.999Z</time></trkpt><trkpt lat="45.444647251124444" lon="10.519658869057997"><ele>132.33333333333334</ele><time>2026-03-30T13:31:07.999Z</time></trkpt><trkpt lat="45.444838517965415" lon="10.519736051918063"><ele>132.0</ele><time>2026-03-30T13:31:08.999Z</time></trkpt><trkpt lat="45.44503356600105" lon="10.519822377269472"><ele>132.0</ele><time>2026-03-30T13:31:09.999Z</time></trkpt><trkpt lat="45.44522259501698" lon="10.519903050427903"><ele>132.0</ele><time>2026-03-30T13:31:10.999Z</time></trkpt><trkpt lat="45.44541354310579" lon="10.519975937509857"><ele>132.0</ele><time>2026-03-30T13:31:11.999Z</time></trkpt><trkpt lat="45.44560664974531" lon="10.520049440989535"><ele>132.33333333333334</ele><time>2026-03-30T13:31:12.999Z</time></trkpt><trkpt lat="45.44579696805652" lon="10.520120902743038"><ele>132.66666666666669</ele><time>2026-03-30T13:31:13.999Z</time></trkpt><trkpt lat="45.4459857836581" lon="10.520194214792644"><ele>133.0</ele><time>2026-03-30T13:31:14.999Z</time></trkpt><trkpt lat="45.44617879471575" lon="10.52026540216043"><ele>133.33333333333334</ele><time>2026-03-30T13:31:15.999Z</time></trkpt><trkpt lat="45.44636700421538" lon="10.52033136096344"><ele>133.66666666666666</ele><time>2026-03-30T13:31:16.999Z</time></trkpt><trkpt lat="45.44655575541321" lon="10.520395818425296"><ele>134.0</ele><time>2026-03-30T13:31:17.999Z</time></trkpt><trkpt lat="45.446754154873474" lon="10.520455945295604"><ele>134.0</ele><time>2026-03-30T13:31:18.999Z</time></trkpt><trkpt lat="45.44694840063291" lon="10.520508088232416"><ele>134.0</ele><time>2026-03-30T13:31:19.999Z</time></trkpt><trkpt lat="45.44714792344674" lon="10.520555120501307"><ele>134.0</ele><time>2026-03-30T13:31:20.999Z</time></trkpt><trkpt lat="45.44734983627999" lon="10.520602418369327"><ele>134.33333333333331</ele><time>2026-03-30T13:31:21.999Z</time></trkpt><trkpt lat="45.44755080333481" lon="10.520642513618448"><ele>134.66666666666666</ele><time>2026-03-30T13:31:22.999Z</time></trkpt><trkpt lat="45.44774812233368" lon="10.52068124270466"><ele>135.0</ele><time>2026-03-30T13:31:23.999Z</time></trkpt><trkpt lat="45.447947442410694" lon="10.52071623574555"><ele>135.0</ele><time>2026-03-30T13:31:24.999Z</time></trkpt><trkpt lat="45.44815252488881" lon="10.520744424221913"><ele>135.0</ele><time>2026-03-30T13:31:25.999Z</time></trkpt><trkpt lat="45.448355981658366" lon="10.52076710997989"><ele>135.0</ele><time>2026-03-30T13:31:26.999Z</time></trkpt><trkpt lat="45.448555857570234" lon="10.520799284038777"><ele>135.0</ele><time>2026-03-30T13:31:27.999Z</time></trkpt><trkpt lat="45.448751410750226" lon="10.520836529290381"><ele>135.0</ele><time>2026-03-30T13:31:28.999Z</time></trkpt><trkpt lat="45.44894217751329" lon="10.520874582611912"><ele>135.0</ele><time>2026-03-30T13:31:29.999Z</time></trkpt><trkpt lat="45.44913652214038" lon="10.52090755471597"><ele>135.33333333333334</ele><time>2026-03-30T13:31:30.999Z</time></trkpt><trkpt lat="45.44932299599565" lon="10.520944305477917"><ele>135.66666666666669</ele><time>2026-03-30T13:31:31.999Z</time></trkpt><trkpt lat="45.44951496416417" lon="10.520981910029779"><ele>136.0</ele><time>2026-03-30T13:31:32.999Z</time></trkpt><trkpt lat="45.44969761791227" lon="10.521016663839745"><ele>136.0</ele><time>2026-03-30T13:31:33.999Z</time></trkpt><trkpt lat="45.449870425724086" lon="10.521049897883238"><ele>136.0</ele><time>2026-03-30T13:31:34.999Z</time></trkpt><trkpt lat="45.45004525283471" lon="10.52108129399429"><ele>136.0</ele><time>2026-03-30T13:31:35.999Z</time></trkpt><trkpt lat="45.450218624689896" lon="10.521108398657509"><ele>136.0</ele><time>2026-03-30T13:31:36.999Z</time></trkpt><trkpt lat="45.450382877196496" lon="10.521124683435918"><ele>136.0</ele><time>2026-03-30T13:31:37.999Z</time></trkpt><trkpt lat="45.45054938906708" lon="10.52111977497622"><ele>136.0</ele><time>2026-03-30T13:31:38.999Z</time></trkpt><trkpt lat="45.450719475292374" lon="10.521096728856053"><ele>135.66666666666669</ele><time>2026-03-30T13:31:39.999Z</time></trkpt><trkpt lat="45.45089292588577" lon="10.521063382817092"><ele>135.33333333333334</ele><time>2026-03-30T13:31:40.999Z</time></trkpt><trkpt lat="45.45107641026628" lon="10.521025108996938"><ele>135.0</ele><time>2026-03-30T13:31:41.999Z</time></trkpt><trkpt lat="45.451263317919825" lon="10.520984694412281"><ele>135.66666666666666</ele><time>2026-03-30T13:31:42.999Z</time></trkpt><trkpt lat="45.45144641456318" lon="10.520943240767249"><ele>136.33333333333331</ele><time>2026-03-30T13:31:43.999Z</time></trkpt><trkpt lat="45.451637043742615" lon="10.520900310948594"><ele>137.0</ele><time>2026-03-30T13:31:44.999Z</time></trkpt><trkpt lat="45.45182859082443" lon="10.520867402019867"><ele>137.0</ele><time>2026-03-30T13:31:45.999Z</time></trkpt><trkpt lat="45.452018158976784" lon="10.520846227825189"><ele>137.0</ele><time>2026-03-30T13:31:46.999Z</time></trkpt><trkpt lat="45.45221189254259" lon="10.520841880058178"><ele>137.0</ele><time>2026-03-30T13:31:47.999Z</time></trkpt><trkpt lat="45.45239690666996" lon="10.520872346182923"><ele>136.66666666666666</ele><time>2026-03-30T13:31:48.999Z</time></trkpt><trkpt lat="45.45257328966373" lon="10.520927128878899"><ele>136.33333333333334</ele><time>2026-03-30T13:31:49.999Z</time></trkpt><trkpt lat="45.452760798507164" lon="10.520970946486736"><ele>136.0</ele><time>2026-03-30T13:31:50.999Z</time></trkpt><trkpt lat="45.45292766513447" lon="10.521067040103006"><ele>136.33333333333334</ele><time>2026-03-30T13:31:51.999Z</time></trkpt><trkpt lat="45.4530949121728" lon="10.52117191109373"><ele>136.66666666666666</ele><time>2026-03-30T13:31:52.999Z</time></trkpt><trkpt lat="45.45325578330468" lon="10.52127216366496"><ele>137.0</ele><time>2026-03-30T13:31:53.999Z</time></trkpt><trkpt lat="45.45341820041402" lon="10.521391056461992"><ele>136.33333333333331</ele><time>2026-03-30T13:31:54.998Z</time></trkpt><trkpt lat="45.45357803627746" lon="10.521500240582508"><ele>135.66666666666666</ele><time>2026-03-30T13:31:55.998Z</time></trkpt><trkpt lat="45.45373535806853" lon="10.521611356239156"><ele>135.0</ele><time>2026-03-30T13:31:56.998Z</time></trkpt><trkpt lat="45.45389606511748" lon="10.521717751189229"><ele>135.0</ele><time>2026-03-30T13:31:57.998Z</time></trkpt><trkpt lat="45.454047321989066" lon="10.521814997057938"><ele>135.0</ele><time>2026-03-30T13:31:58.998Z</time></trkpt><trkpt lat="45.454198134203175" lon="10.521907638812385"><ele>135.0</ele><time>2026-03-30T13:31:59.998Z</time></trkpt><trkpt lat="45.454346057143525" lon="10.521992632858032"><ele>135.0</ele><time>2026-03-30T13:32:00.998Z</time></trkpt><trkpt lat="45.45449175727642" lon="10.52206999451294"><ele>135.0</ele><time>2026-03-30T13:32:01.998Z</time></trkpt><trkpt lat="45.45463157385845" lon="10.52213568846866"><ele>135.0</ele><time>2026-03-30T13:32:02.998Z</time></trkpt><trkpt lat="45.45476802373878" lon="10.522195273212947"><ele>135.0</ele><time>2026-03-30T13:32:03.998Z</time></trkpt><trkpt lat="45.45490173657712" lon="10.522253117812113"><ele>133.25</ele><time>2026-03-30T13:32:05Z</time></trkpt><trkpt lat="45.45503385598176" lon="10.52230591437271"><ele>131.5</ele><time>2026-03-30T13:32:06Z</time></trkpt><trkpt lat="45.45516262156627" lon="10.522362309514426"><ele>129.75</ele><time>2026-03-30T13:32:07Z</time></trkpt><trkpt lat="45.45528358172105" lon="10.522421207998319"><ele>128.0</ele><time>2026-03-30T13:32:08Z</time></trkpt><trkpt lat="45.45540178750653" lon="10.522469379405774"><ele>127.25</ele><time>2026-03-30T13:32:09Z</time></trkpt><trkpt lat="45.455519230747754" lon="10.522513209945046"><ele>126.5</ele><time>2026-03-30T13:32:10Z</time></trkpt><trkpt lat="45.4556346610387" lon="10.522557809580785"><ele>125.75</ele><time>2026-03-30T13:32:11Z</time></trkpt><trkpt lat="45.45574579393667" lon="10.522604554737107"><ele>125.0</ele><time>2026-03-30T13:32:12Z</time></trkpt><trkpt lat="45.45585200966774" lon="10.522659009820458"><ele>125.0</ele><time>2026-03-30T13:32:13Z</time></trkpt><trkpt lat="45.45595285432749" lon="10.522711857312748"><ele>125.0</ele><time>2026-03-30T13:32:14Z</time></trkpt><trkpt lat="45.45605211371113" lon="10.522756632073378"><ele>125.0</ele><time>2026-03-30T13:32:15Z</time></trkpt><trkpt lat="45.45615029013489" lon="10.52279790084653"><ele>125.0</ele><time>2026-03-30T13:32:16Z</time></trkpt><trkpt lat="45.45624595928855" lon="10.52283752181554"><ele>125.0</ele><time>2026-03-30T13:32:17Z</time></trkpt><trkpt lat="45.4563311421132" lon="10.522874831845884"><ele>124.49999999999999</ele><time>2026-03-30T13:32:18Z</time></trkpt><trkpt lat="45.45640840379533" lon="10.52290776203043"><ele>124.0</ele><time>2026-03-30T13:32:19Z</time></trkpt><trkpt lat="45.45648303795171" lon="10.522939851402164"><ele>123.5</ele><time>2026-03-30T13:32:20Z</time></trkpt><trkpt lat="45.456550556126246" lon="10.522980989865266"><ele>123.0</ele><time>2026-03-30T13:32:21Z</time></trkpt><trkpt lat="45.456623209108564" lon="10.523044946242692"><ele>122.49999999999999</ele><time>2026-03-30T13:32:22Z</time></trkpt><trkpt lat="45.456679081446424" lon="10.523109640923506"><ele>122.0</ele><time>2026-03-30T13:32:23Z</time></trkpt><trkpt lat="45.45671935314018" lon="10.523187793803361"><ele>122.0</ele><time>2026-03-30T13:32:24Z</time></trkpt><trkpt lat="45.456758026184254" lon="10.523302282685108"><ele>121.99999999999999</ele><time>2026-03-30T13:32:25Z</time></trkpt><trkpt lat="45.45679205278845" lon="10.52343512202763"><ele>121.99999999999999</ele><time>2026-03-30T13:32:26Z</time></trkpt><trkpt lat="45.45684841169944" lon="10.52354754362114"><ele>122.0</ele><time>2026-03-30T13:32:27Z</time></trkpt><trkpt lat="45.45692213109058" lon="10.523628042461974"><ele>122.0</ele><time>2026-03-30T13:32:28Z</time></trkpt><trkpt lat="45.45700577064023" lon="10.523681379750252"><ele>122.0</ele><time>2026-03-30T13:32:29Z</time></trkpt><trkpt lat="45.45710461072733" lon="10.523706318212573"><ele>121.99999999999999</ele><time>2026-03-30T13:32:30Z</time></trkpt><trkpt lat="45.45720062828373" lon="10.52369387790236"><ele>121.99999999999999</ele><time>2026-03-30T13:32:31Z</time></trkpt><trkpt lat="45.457289251188385" lon="10.523666863261314"><ele>122.0</ele><time>2026-03-30T13:32:32Z</time></trkpt><trkpt lat="45.45737700361496" lon="10.523606189446843"><ele>122.0</ele><time>2026-03-30T13:32:33Z</time></trkpt><trkpt lat="45.457455411831134" lon="10.5235112111363"><ele>121.8</ele><time>2026-03-30T13:32:34Z</time></trkpt><trkpt lat="45.45751594767155" lon="10.523386622275384"><ele>121.6</ele><time>2026-03-30T13:32:35Z</time></trkpt><trkpt lat="45.457544961164366" lon="10.523241709867818"><ele>121.39999999999999</ele><time>2026-03-30T13:32:36Z</time></trkpt><trkpt lat="45.4575497625264" lon="10.52310174181731"><ele>121.19999999999999</ele><time>2026-03-30T13:32:37Z</time></trkpt><trkpt lat="45.457526104357505" lon="10.522948070192248"><ele>121.0</ele><time>2026-03-30T13:32:38Z</time></trkpt><trkpt lat="45.457523047658626" lon="10.52279964513592"><ele>121.0</ele><time>2026-03-30T13:32:38.999Z</time></trkpt><trkpt lat="45.457553113721495" lon="10.522657301515231"><ele>121.0</ele><time>2026-03-30T13:32:39.999Z</time></trkpt><trkpt lat="45.45759725459054" lon="10.522508273768713"><ele>121.0</ele><time>2026-03-30T13:32:40.999Z</time></trkpt><trkpt lat="45.457653749295254" lon="10.5223590132871"><ele>121.0</ele><time>2026-03-30T13:32:41.999Z</time></trkpt><trkpt lat="45.45769852165528" lon="10.522194068178168"><ele>121.33333333333334</ele><time>2026-03-30T13:32:42.999Z</time></trkpt><trkpt lat="45.457754649670065" lon="10.522008662363922"><ele>121.66666666666666</ele><time>2026-03-30T13:32:43.999Z</time></trkpt><trkpt lat="45.45780597573108" lon="10.52183760991007"><ele>122.0</ele><time>2026-03-30T13:32:44.999Z</time></trkpt><trkpt lat="45.45788211348205" lon="10.521563482247787"><ele>122.0</ele><time>2026-03-30T13:32:45.999Z</time></trkpt><trkpt lat="45.45792931011653" lon="10.521353350295506"><ele>122.0</ele><time>2026-03-30T13:32:46.999Z</time></trkpt><trkpt lat="45.457963611161404" lon="10.521134388291822"><ele>122.0</ele><time>2026-03-30T13:32:47.999Z</time></trkpt><trkpt lat="45.45798618445805" lon="10.520904531663914"><ele>122.33333333333333</ele><time>2026-03-30T13:32:48.999Z</time></trkpt><trkpt lat="45.458006333336506" lon="10.520669469150578"><ele>122.66666666666666</ele><time>2026-03-30T13:32:49.999Z</time></trkpt><trkpt lat="45.458020188744825" lon="10.520430662090101"><ele>123.0</ele><time>2026-03-30T13:32:50.999Z</time></trkpt><trkpt lat="45.45802015433947" lon="10.52019413833441"><ele>123.33333333333334</ele><time>2026-03-30T13:32:51.999Z</time></trkpt><trkpt lat="45.458014252663745" lon="10.519955504839198"><ele>123.66666666666667</ele><time>2026-03-30T13:32:52.999Z</time></trkpt><trkpt lat="45.45801012882102" lon="10.519718006076978"><ele>124.0</ele><time>2026-03-30T13:32:53.999Z</time></trkpt><trkpt lat="45.45800713587516" lon="10.519487814436301"><ele>125.0</ele><time>2026-03-30T13:32:54.999Z</time></trkpt><trkpt lat="45.45800249439764" lon="10.519270890538184"><ele>126.0</ele><time>2026-03-30T13:32:55.999Z</time></trkpt><trkpt lat="45.45800021534697" lon="10.519056153241712"><ele>127.0</ele><time>2026-03-30T13:32:56.999Z</time></trkpt><trkpt lat="45.45800298297638" lon="10.518832621700914"><ele>128.0</ele><time>2026-03-30T13:32:57.999Z</time></trkpt><trkpt lat="45.45800790303975" lon="10.518594748720604"><ele>129.0</ele><time>2026-03-30T13:32:58.999Z</time></trkpt><trkpt lat="45.457990259259724" lon="10.51836105590279"><ele>130.0</ele><time>2026-03-30T13:32:59.999Z</time></trkpt><trkpt lat="45.45800585366968" lon="10.518115578225716"><ele>131.66666666666669</ele><time>2026-03-30T13:33:00.999Z</time></trkpt><trkpt lat="45.458005215104095" lon="10.517877779955873"><ele>133.33333333333334</ele><time>2026-03-30T13:33:01.999Z</time></trkpt><trkpt lat="45.458006374046576" lon="10.517639828623961"><ele>135.0</ele><time>2026-03-30T13:33:02.999Z</time></trkpt><trkpt lat="45.45800580418361" lon="10.51740777940831"><ele>135.0</ele><time>2026-03-30T13:33:03.999Z</time></trkpt><trkpt lat="45.45800316981006" lon="10.517182635610856"><ele>135.0</ele><time>2026-03-30T13:33:04.999Z</time></trkpt><trkpt lat="45.457997924308934" lon="10.516962337993885"><ele>135.0</ele><time>2026-03-30T13:33:05.999Z</time></trkpt><trkpt lat="45.457996122104696" lon="10.516752848545128"><ele>134.75</ele><time>2026-03-30T13:33:06.999Z</time></trkpt><trkpt lat="45.45800906223869" lon="10.516553188777577"><ele>134.5</ele><time>2026-03-30T13:33:07.999Z</time></trkpt><trkpt lat="45.45802682423029" lon="10.51634019808971"><ele>134.25</ele><time>2026-03-30T13:33:08.999Z</time></trkpt><trkpt lat="45.45805556256103" lon="10.516127512672734"><ele>134.0</ele><time>2026-03-30T13:33:09.999Z</time></trkpt><trkpt lat="45.45808062675048" lon="10.515920180672556"><ele>134.0</ele><time>2026-03-30T13:33:10.999Z</time></trkpt><trkpt lat="45.45810305753533" lon="10.515712258352577"><ele>134.0</ele><time>2026-03-30T13:33:11.999Z</time></trkpt><trkpt lat="45.4581276531873" lon="10.51549305526813"><ele>134.0</ele><time>2026-03-30T13:33:12.999Z</time></trkpt><trkpt lat="45.45815403322973" lon="10.515279383751059"><ele>134.25</ele><time>2026-03-30T13:33:13.999Z</time></trkpt><trkpt lat="45.458192185544924" lon="10.515060458537423"><ele>134.5</ele><time>2026-03-30T13:33:14.999Z</time></trkpt><trkpt lat="45.45823817962422" lon="10.5148611852013"><ele>134.75</ele><time>2026-03-30T13:33:15.999Z</time></trkpt><trkpt lat="45.45828619925583" lon="10.514668990985863"><ele>135.0</ele><time>2026-03-30T13:33:16.999Z</time></trkpt><trkpt lat="45.45834599575157" lon="10.514469721982465"><ele>135.0</ele><time>2026-03-30T13:33:17.999Z</time></trkpt><trkpt lat="45.458402794577886" lon="10.514274088566076"><ele>135.0</ele><time>2026-03-30T13:33:18.999Z</time></trkpt><trkpt lat="45.45847136182849" lon="10.514076683830066"><ele>135.0</ele><time>2026-03-30T13:33:19.999Z</time></trkpt><trkpt lat="45.45854298749811" lon="10.513884716565988"><ele>136.0</ele><time>2026-03-30T13:33:20.999Z</time></trkpt><trkpt lat="45.458624124421995" lon="10.51369430288428"><ele>137.0</ele><time>2026-03-30T13:33:21.999Z</time></trkpt><trkpt lat="45.458704275783894" lon="10.51349805424088"><ele>138.0</ele><time>2026-03-30T13:33:22.999Z</time></trkpt><trkpt lat="45.458794050423776" lon="10.51331429772133"><ele>138.0</ele><time>2026-03-30T13:33:23.999Z</time></trkpt><trkpt lat="45.45889833028897" lon="10.513120317322825"><ele>138.0</ele><time>2026-03-30T13:33:24.999Z</time></trkpt><trkpt lat="45.459002965353335" lon="10.512941791500165"><ele>138.0</ele><time>2026-03-30T13:33:25.999Z</time></trkpt><trkpt lat="45.4591122635784" lon="10.512760438676313"><ele>138.0</ele><time>2026-03-30T13:33:26.999Z</time></trkpt><trkpt lat="45.45922366922773" lon="10.512572824090954"><ele>138.0</ele><time>2026-03-30T13:33:27.999Z</time></trkpt><trkpt lat="45.459333169531426" lon="10.51239025959161"><ele>138.0</ele><time>2026-03-30T13:33:28.999Z</time></trkpt><trkpt lat="45.45945321662197" lon="10.512198955648932"><ele>139.0</ele><time>2026-03-30T13:33:29.999Z</time></trkpt><trkpt lat="45.459569311780335" lon="10.512010471670145"><ele>140.0</ele><time>2026-03-30T13:33:31Z</time></trkpt><trkpt lat="45.45968834834065" lon="10.511816090329095"><ele>141.0</ele><time>2026-03-30T13:33:31.999Z</time></trkpt><trkpt lat="45.45979965825487" lon="10.51162464423329"><ele>141.0</ele><time>2026-03-30T13:33:32.999Z</time></trkpt><trkpt lat="45.459917655914786" lon="10.511424736202326"><ele>141.0</ele><time>2026-03-30T13:33:33.999Z</time></trkpt><trkpt lat="45.46003222048293" lon="10.511232970773587"><ele>141.0</ele><time>2026-03-30T13:33:34.999Z</time></trkpt><trkpt lat="45.46015511103808" lon="10.51104261752449"><ele>141.66666666666666</ele><time>2026-03-30T13:33:35.999Z</time></trkpt><trkpt lat="45.46027480014841" lon="10.510844826585044"><ele>142.33333333333331</ele><time>2026-03-30T13:33:36.999Z</time></trkpt><trkpt lat="45.46038843973184" lon="10.510658965735393"><ele>143.0</ele><time>2026-03-30T13:33:37.999Z</time></trkpt><trkpt lat="45.460500015252556" lon="10.510475803011733"><ele>145.33333333333331</ele><time>2026-03-30T13:33:38.999Z</time></trkpt><trkpt lat="45.460617969335615" lon="10.510284313708144"><ele>147.66666666666666</ele><time>2026-03-30T13:33:39.999Z</time></trkpt><trkpt lat="45.46072782877601" lon="10.510106562372485"><ele>150.0</ele><time>2026-03-30T13:33:40.999Z</time></trkpt><trkpt lat="45.46084037005444" lon="10.509919463574995"><ele>150.0</ele><time>2026-03-30T13:33:41.999Z</time></trkpt><trkpt lat="45.46095169306982" lon="10.509735105751856"><ele>150.0</ele><time>2026-03-30T13:33:42.999Z</time></trkpt><trkpt lat="45.461058883239694" lon="10.509560270958431"><ele>150.0</ele><time>2026-03-30T13:33:43.999Z</time></trkpt><trkpt lat="45.46116862406535" lon="10.509377853322269"><ele>150.0</ele><time>2026-03-30T13:33:44.999Z</time></trkpt><trkpt lat="45.46127327024452" lon="10.5092088034941"><ele>150.0</ele><time>2026-03-30T13:33:45.999Z</time></trkpt><trkpt lat="45.461386354352506" lon="10.509025464601326"><ele>150.0</ele><time>2026-03-30T13:33:46.999Z</time></trkpt><trkpt lat="45.46148437289865" lon="10.50885173761699"><ele>152.66666666666666</ele><time>2026-03-30T13:33:47.999Z</time></trkpt><trkpt lat="45.46159879142106" lon="10.508674894942565"><ele>155.33333333333331</ele><time>2026-03-30T13:33:48.999Z</time></trkpt><trkpt lat="45.46170364110523" lon="10.50849863379187"><ele>158.0</ele><time>2026-03-30T13:33:49.999Z</time></trkpt><trkpt lat="45.4618133039328" lon="10.508322264939324"><ele>158.0</ele><time>2026-03-30T13:33:50.999Z</time></trkpt><trkpt lat="45.46192098233523" lon="10.508142307572008"><ele>158.0</ele><time>2026-03-30T13:33:51.999Z</time></trkpt><trkpt lat="45.462036271376334" lon="10.50796109067831"><ele>158.0</ele><time>2026-03-30T13:33:52.999Z</time></trkpt><trkpt lat="45.46214308399341" lon="10.507790148244426"><ele>155.0</ele><time>2026-03-30T13:33:53.999Z</time></trkpt><trkpt lat="45.46226279550849" lon="10.507599241162444"><ele>152.0</ele><time>2026-03-30T13:33:54.999Z</time></trkpt><trkpt lat="45.46237632848392" lon="10.507411064655475"><ele>149.0</ele><time>2026-03-30T13:33:55.999Z</time></trkpt><trkpt lat="45.462488678721115" lon="10.507216540342144"><ele>149.0</ele><time>2026-03-30T13:33:56.999Z</time></trkpt><trkpt lat="45.46260712367114" lon="10.507026240290946"><ele>149.0</ele><time>2026-03-30T13:33:57.999Z</time></trkpt><trkpt lat="45.4627255472508" lon="10.506836764483495"><ele>149.0</ele><time>2026-03-30T13:33:58.999Z</time></trkpt><trkpt lat="45.46284240658405" lon="10.506655620427392"><ele>149.33333333333331</ele><time>2026-03-30T13:33:59.999Z</time></trkpt><trkpt lat="45.46295857145992" lon="10.506464743029788"><ele>149.66666666666666</ele><time>2026-03-30T13:34:00.999Z</time></trkpt><trkpt lat="45.463075268260255" lon="10.50627560535212"><ele>150.0</ele><time>2026-03-30T13:34:01.999Z</time></trkpt><trkpt lat="45.46319402582988" lon="10.506091014832887"><ele>150.0</ele><time>2026-03-30T13:34:02.999Z</time></trkpt><trkpt lat="45.463315883392546" lon="10.505899014816665"><ele>150.0</ele><time>2026-03-30T13:34:03.999Z</time></trkpt><trkpt lat="45.46343527145886" lon="10.505713772825214"><ele>150.0</ele><time>2026-03-30T13:34:04.999Z</time></trkpt><trkpt lat="45.46355684664939" lon="10.505514173849196"><ele>150.0</ele><time>2026-03-30T13:34:05.999Z</time></trkpt><trkpt lat="45.463675531964554" lon="10.50532535859569"><ele>150.0</ele><time>2026-03-30T13:34:06.998Z</time></trkpt><trkpt lat="45.4637929437093" lon="10.505132380177855"><ele>150.0</ele><time>2026-03-30T13:34:07.998Z</time></trkpt><trkpt lat="45.46392712077049" lon="10.504920097027634"><ele>149.33333333333334</ele><time>2026-03-30T13:34:08.998Z</time></trkpt><trkpt lat="45.464066585762936" lon="10.504692943058627"><ele>148.66666666666669</ele><time>2026-03-30T13:34:09.998Z</time></trkpt><trkpt lat="45.4642047727468" lon="10.50446444376174"><ele>148.0</ele><time>2026-03-30T13:34:11Z</time></trkpt><trkpt lat="45.46434347232762" lon="10.504239429315753"><ele>148.0</ele><time>2026-03-30T13:34:12Z</time></trkpt><trkpt lat="45.46448554228819" lon="10.50401895118276"><ele>148.0</ele><time>2026-03-30T13:34:13Z</time></trkpt><trkpt lat="45.46462364929699" lon="10.503804245672617"><ele>148.0</ele><time>2026-03-30T13:34:14Z</time></trkpt><trkpt lat="45.46475501701913" lon="10.503592859544616"><ele>146.33333333333334</ele><time>2026-03-30T13:34:15Z</time></trkpt><trkpt lat="45.46487977710174" lon="10.503391053106492"><ele>144.66666666666666</ele><time>2026-03-30T13:34:16Z</time></trkpt><trkpt lat="45.46499904064671" lon="10.503201123717663"><ele>143.0</ele><time>2026-03-30T13:34:17Z</time></trkpt><trkpt lat="45.46511933830978" lon="10.503010025145334"><ele>143.66666666666666</ele><time>2026-03-30T13:34:18Z</time></trkpt><trkpt lat="45.46523334974262" lon="10.502833151266334"><ele>144.33333333333334</ele><time>2026-03-30T13:34:19Z</time></trkpt><trkpt lat="45.46535166044163" lon="10.50264943876093"><ele>145.0</ele><time>2026-03-30T13:34:20Z</time></trkpt><trkpt lat="45.46546678631656" lon="10.50246924650806"><ele>144.0</ele><time>2026-03-30T13:34:21Z</time></trkpt><trkpt lat="45.46558324297035" lon="10.502284400118596"><ele>143.0</ele><time>2026-03-30T13:34:22Z</time></trkpt><trkpt lat="45.46570207739292" lon="10.502086207236102"><ele>142.0</ele><time>2026-03-30T13:34:23Z</time></trkpt><trkpt lat="45.46582018435767" lon="10.50189078373514"><ele>142.0</ele><time>2026-03-30T13:34:24Z</time></trkpt><trkpt lat="45.465940803879114" lon="10.501688350349301"><ele>142.0</ele><time>2026-03-30T13:34:25Z</time></trkpt><trkpt lat="45.466057099449365" lon="10.501485323267982"><ele>142.0</ele><time>2026-03-30T13:34:26Z</time></trkpt><trkpt lat="45.46617566814626" lon="10.501268960101172"><ele>142.0</ele><time>2026-03-30T13:34:27Z</time></trkpt><trkpt lat="45.46628384093626" lon="10.501055965471236"><ele>142.0</ele><time>2026-03-30T13:34:28Z</time></trkpt><trkpt lat="45.466385642785596" lon="10.500839273431513"><ele>142.0</ele><time>2026-03-30T13:34:29Z</time></trkpt><trkpt lat="45.4664845528912" lon="10.500614446211669"><ele>141.66666666666669</ele><time>2026-03-30T13:34:30Z</time></trkpt><trkpt lat="45.46657396767515" lon="10.500390136667496"><ele>141.33333333333334</ele><time>2026-03-30T13:34:31Z</time></trkpt><trkpt lat="45.46665158231037" lon="10.500157601850646"><ele>141.0</ele><time>2026-03-30T13:34:32Z</time></trkpt><trkpt lat="45.4667257103874" lon="10.49993281455783"><ele>141.0</ele><time>2026-03-30T13:34:33Z</time></trkpt><trkpt lat="45.46679729533751" lon="10.499711839591988"><ele>141.0</ele><time>2026-03-30T13:34:34Z</time></trkpt><trkpt lat="45.46687224758212" lon="10.49949020499541"><ele>141.0</ele><time>2026-03-30T13:34:35Z</time></trkpt><trkpt lat="45.46694451367234" lon="10.499268872766514"><ele>141.66666666666666</ele><time>2026-03-30T13:34:36Z</time></trkpt><trkpt lat="45.46701436286054" lon="10.499045006785744"><ele>142.33333333333331</ele><time>2026-03-30T13:34:37Z</time></trkpt><trkpt lat="45.46708711341272" lon="10.49881186097139"><ele>143.0</ele><time>2026-03-30T13:34:37.999Z</time></trkpt><trkpt lat="45.46716064910683" lon="10.498588166018394"><ele>143.66666666666666</ele><time>2026-03-30T13:34:38.999Z</time></trkpt><trkpt lat="45.4672349228031" lon="10.498359559373753"><ele>144.33333333333334</ele><time>2026-03-30T13:34:39.999Z</time></trkpt><trkpt lat="45.467336306323205" lon="10.498104750099682"><ele>145.0</ele><time>2026-03-30T13:34:40.999Z</time></trkpt><trkpt lat="45.46743593224184" lon="10.497800888029833"><ele>145.0</ele><time>2026-03-30T13:34:41.999Z</time></trkpt><trkpt lat="45.46752480442516" lon="10.497529825484037"><ele>145.0</ele><time>2026-03-30T13:34:42.999Z</time></trkpt><trkpt lat="45.467606395991496" lon="10.497281502882734"><ele>145.0</ele><time>2026-03-30T13:34:43.999Z</time></trkpt><trkpt lat="45.46767812480449" lon="10.497010960196778"><ele>146.5</ele><time>2026-03-30T13:34:44.999Z</time></trkpt><trkpt lat="45.46779467144433" lon="10.496713388464414"><ele>148.0</ele><time>2026-03-30T13:34:45.999Z</time></trkpt><trkpt lat="45.46790536424287" lon="10.496388738724608"><ele>146.33333333333334</ele><time>2026-03-30T13:34:46.999Z</time></trkpt><trkpt lat="45.4680046321658" lon="10.49610556898239"><ele>144.66666666666666</ele><time>2026-03-30T13:34:47.999Z</time></trkpt><trkpt lat="45.4680959056026" lon="10.49585694312293"><ele>143.0</ele><time>2026-03-30T13:34:48.999Z</time></trkpt><trkpt lat="45.468167632640935" lon="10.49563187268994"><ele>143.0</ele><time>2026-03-30T13:34:49.999Z</time></trkpt><trkpt lat="45.46825488933637" lon="10.495441713168168"><ele>143.0</ele><time>2026-03-30T13:34:50.999Z</time></trkpt><trkpt lat="45.46833928865642" lon="10.495265377523397"><ele>143.0</ele><time>2026-03-30T13:34:51.999Z</time></trkpt><trkpt lat="45.46842787669966" lon="10.495083226767441"><ele>144.33333333333331</ele><time>2026-03-30T13:34:52.999Z</time></trkpt><trkpt lat="45.468521651666606" lon="10.494900562762998"><ele>145.66666666666666</ele><time>2026-03-30T13:34:53.999Z</time></trkpt><trkpt lat="45.46864519646367" lon="10.494721810033132"><ele>147.0</ele><time>2026-03-30T13:34:54.999Z</time></trkpt><trkpt lat="45.46878073706829" lon="10.494505366669916"><ele>149.0</ele><time>2026-03-30T13:34:55.999Z</time></trkpt><trkpt lat="45.46893987904197" lon="10.494266675074076"><ele>151.0</ele><time>2026-03-30T13:34:56.999Z</time></trkpt><trkpt lat="45.46910223008299" lon="10.494036677759649"><ele>151.0</ele><time>2026-03-30T13:34:57.999Z</time></trkpt><trkpt lat="45.4692579171602" lon="10.493820473870926"><ele>151.0</ele><time>2026-03-30T13:34:58.999Z</time></trkpt><trkpt lat="45.469398731792666" lon="10.493628574244365"><ele>151.0</ele><time>2026-03-30T13:34:59.999Z</time></trkpt><trkpt lat="45.46953179652078" lon="10.493447236479323"><ele>151.0</ele><time>2026-03-30T13:35:00.999Z</time></trkpt><trkpt lat="45.46965798025567" lon="10.493275275583551"><ele>151.0</ele><time>2026-03-30T13:35:01.999Z</time></trkpt><trkpt lat="45.46979655160307" lon="10.493085835681594"><ele>151.0</ele><time>2026-03-30T13:35:02.999Z</time></trkpt><trkpt lat="45.46995862801847" lon="10.492864110995171"><ele>151.0</ele><time>2026-03-30T13:35:03.999Z</time></trkpt><trkpt lat="45.47013368044078" lon="10.492624634798648"><ele>151.0</ele><time>2026-03-30T13:35:04.999Z</time></trkpt><trkpt lat="45.47030761258903" lon="10.492386691135566"><ele>151.0</ele><time>2026-03-30T13:35:05.999Z</time></trkpt><trkpt lat="45.47047914375766" lon="10.492152790270938"><ele>151.0</ele><time>2026-03-30T13:35:06.999Z</time></trkpt><trkpt lat="45.47064058108753" lon="10.491931412229023"><ele>151.33333333333334</ele><time>2026-03-30T13:35:07.999Z</time></trkpt><trkpt lat="45.47078385689707" lon="10.491704306493084"><ele>151.66666666666666</ele><time>2026-03-30T13:35:08.999Z</time></trkpt><trkpt lat="45.47093917290111" lon="10.49150744435213"><ele>152.0</ele><time>2026-03-30T13:35:09.999Z</time></trkpt><trkpt lat="45.47108692025063" lon="10.491312675472658"><ele>152.66666666666666</ele><time>2026-03-30T13:35:10.999Z</time></trkpt><trkpt lat="45.47122084127763" lon="10.491130915859587"><ele>153.33333333333334</ele><time>2026-03-30T13:35:11.999Z</time></trkpt><trkpt lat="45.471353700425375" lon="10.49094944165115"><ele>154.0</ele><time>2026-03-30T13:35:12.999Z</time></trkpt><trkpt lat="45.47148754276129" lon="10.490763994494747"><ele>154.0</ele><time>2026-03-30T13:35:13.999Z</time></trkpt><trkpt lat="45.47162665753" lon="10.490567177467025"><ele>154.0</ele><time>2026-03-30T13:35:14.999Z</time></trkpt><trkpt lat="45.47176199323823" lon="10.490375432438555"><ele>154.0</ele><time>2026-03-30T13:35:15.999Z</time></trkpt><trkpt lat="45.471896495445456" lon="10.490185628475563"><ele>156.5</ele><time>2026-03-30T13:35:16.999Z</time></trkpt><trkpt lat="45.47209090667195" lon="10.489999618212746"><ele>159.0</ele><time>2026-03-30T13:35:17.999Z</time></trkpt><trkpt lat="45.47226015502668" lon="10.489807428881814"><ele>159.33333333333334</ele><time>2026-03-30T13:35:19.076Z</time></trkpt><trkpt lat="45.47243390196418" lon="10.48959661261898"><ele>159.66666666666669</ele><time>2026-03-30T13:35:20.064Z</time></trkpt><trkpt lat="45.472541550165396" lon="10.489379607968317"><ele>160.0</ele><time>2026-03-30T13:35:21.062Z</time></trkpt><trkpt lat="45.47264567593431" lon="10.48917903766864"><ele>162.75</ele><time>2026-03-30T13:35:22.062Z</time></trkpt><trkpt lat="45.47274332007522" lon="10.488963987524105"><ele>165.5</ele><time>2026-03-30T13:35:23.062Z</time></trkpt><trkpt lat="45.472814779234405" lon="10.48879578885618"><ele>168.25</ele><time>2026-03-30T13:35:24.044Z</time></trkpt><trkpt lat="45.47287664237363" lon="10.488644441554957"><ele>171.0</ele><time>2026-03-30T13:35:25.034Z</time></trkpt><trkpt lat="45.47292677301941" lon="10.488515917373483"><ele>177.0</ele><time>2026-03-30T13:35:26.03Z</time></trkpt><trkpt lat="45.47297388972024" lon="10.488385491560033"><ele>183.0</ele><time>2026-03-30T13:35:27.03Z</time></trkpt><trkpt lat="45.47304787604689" lon="10.488150896487872"><ele>189.0</ele><time>2026-03-30T13:35:28.029Z</time></trkpt><trkpt lat="45.47316957091644" lon="10.487731707043855"><ele>194.25</ele><time>2026-03-30T13:35:29.028Z</time></trkpt><trkpt lat="45.473221621155815" lon="10.487529679597367"><ele>199.5</ele><time>2026-03-30T13:35:30.027Z</time></trkpt><trkpt lat="45.47326682234197" lon="10.487340546247474"><ele>204.75</ele><time>2026-03-30T13:35:31.027Z</time></trkpt><trkpt lat="45.47330830509033" lon="10.487149767599968"><ele>210.0</ele><time>2026-03-30T13:35:32.028Z</time></trkpt><trkpt lat="45.47361347673818" lon="10.484605302648603"><ele>217.5</ele><time>2026-03-30T13:35:35.697Z</time></trkpt><trkpt lat="45.47371274176186" lon="10.48398166736976"><ele>225.0</ele><time>2026-03-30T13:35:36.697Z</time></trkpt><trkpt lat="45.47381386492961" lon="10.483359161656107"><ele>224.0</ele><time>2026-03-30T13:35:37.696Z</time></trkpt><trkpt lat="45.47391371976639" lon="10.48273697613873"><ele>223.0</ele><time>2026-03-30T13:35:38.694Z</time></trkpt><trkpt lat="45.474012824410906" lon="10.482112492218327"><ele>220.5</ele><time>2026-03-30T13:35:39.695Z</time></trkpt><trkpt lat="45.474112784998624" lon="10.481488040566031"><ele>218.0</ele><time>2026-03-30T13:35:40.697Z</time></trkpt><trkpt lat="45.4742" lon="10.480957"><ele>170.0</ele><time>2026-03-30T13:35:41.696Z</time></trkpt><trkpt lat="45.47466739130551" lon="10.470864443199916"><ele>170.0</ele><time>2026-03-30T13:36:48.998Z</time></trkpt><trkpt lat="45.4746422416607" lon="10.470666904618717"><ele>170.0</ele><time>2026-03-30T13:36:49.998Z</time></trkpt><trkpt lat="45.474648444979" lon="10.470457259963963"><ele>170.0</ele><time>2026-03-30T13:36:50.998Z</time></trkpt><trkpt lat="45.47461435354916" lon="10.470190177713118"><ele>168.0</ele><time>2026-03-30T13:36:51.998Z</time></trkpt><trkpt lat="45.47457976318922" lon="10.469854596588743"><ele>166.0</ele><time>2026-03-30T13:36:52.998Z</time></trkpt><trkpt lat="45.4745374813447" lon="10.469488554989626"><ele>165.0</ele><time>2026-03-30T13:36:53.998Z</time></trkpt><trkpt lat="45.47449655472984" lon="10.469056270691738"><ele>164.0</ele><time>2026-03-30T13:36:55Z</time></trkpt><trkpt lat="45.47445169345086" lon="10.468659925721727"><ele>163.0</ele><time>2026-03-30T13:36:56Z</time></trkpt><trkpt lat="45.474397185103136" lon="10.468270630887746"><ele>162.0</ele><time>2026-03-30T13:36:57Z</time></trkpt><trkpt lat="45.47430972879892" lon="10.467842281830674"><ele>161.5</ele><time>2026-03-30T13:36:58Z</time></trkpt><trkpt lat="45.474209411681294" lon="10.467356635578717"><ele>161.0</ele><time>2026-03-30T13:36:59Z</time></trkpt><trkpt lat="45.4741139252436" lon="10.466940284797685"><ele>160.0</ele><time>2026-03-30T13:37:00Z</time></trkpt><trkpt lat="45.47403267922638" lon="10.466567814805334"><ele>159.0</ele><time>2026-03-30T13:37:01Z</time></trkpt><trkpt lat="45.4739480061299" lon="10.466209877063408"><ele>158.0</ele><time>2026-03-30T13:37:02Z</time></trkpt><trkpt lat="45.473858540049456" lon="10.465837416270425"><ele>157.0</ele><time>2026-03-30T13:37:03Z</time></trkpt><trkpt lat="45.473763013681285" lon="10.465462802590105"><ele>157.0</ele><time>2026-03-30T13:37:04Z</time></trkpt><trkpt lat="45.47366893429003" lon="10.465130730221778"><ele>157.0</ele><time>2026-03-30T13:37:05Z</time></trkpt><trkpt lat="45.473578713211396" lon="10.464803101128489"><ele>156.5</ele><time>2026-03-30T13:37:06Z</time></trkpt><trkpt lat="45.473479106412306" lon="10.464457587354696"><ele>156.0</ele><time>2026-03-30T13:37:07Z</time></trkpt><trkpt lat="45.473392968127506" lon="10.4641155865469"><ele>155.5</ele><time>2026-03-30T13:37:08Z</time></trkpt><trkpt lat="45.4732987674451" lon="10.463768435375165"><ele>155.0</ele><time>2026-03-30T13:37:09Z</time></trkpt><trkpt lat="45.47321170711721" lon="10.463431221709511"><ele>155.0</ele><time>2026-03-30T13:37:10Z</time></trkpt><trkpt lat="45.473124083736" lon="10.463089597040288"><ele>155.0</ele><time>2026-03-30T13:37:11Z</time></trkpt><trkpt lat="45.473032041149" lon="10.462749301278992"><ele>155.0</ele><time>2026-03-30T13:37:12Z</time></trkpt><trkpt lat="45.47294389547458" lon="10.462412119875403"><ele>155.0</ele><time>2026-03-30T13:37:13Z</time></trkpt><trkpt lat="45.472852842327065" lon="10.462071286321073"><ele>153.5</ele><time>2026-03-30T13:37:14Z</time></trkpt><trkpt lat="45.472773341054086" lon="10.46173087578208"><ele>152.0</ele><time>2026-03-30T13:37:15Z</time></trkpt><trkpt lat="45.4726901144947" lon="10.4613867985377"><ele>152.0</ele><time>2026-03-30T13:37:16Z</time></trkpt><trkpt lat="45.4726038376287" lon="10.461043477860233"><ele>152.0</ele><time>2026-03-30T13:37:17Z</time></trkpt><trkpt lat="45.472519267671245" lon="10.460702473516452"><ele>152.5</ele><time>2026-03-30T13:37:18Z</time></trkpt><trkpt lat="45.47243601695939" lon="10.460364595471274"><ele>153.0</ele><time>2026-03-30T13:37:19Z</time></trkpt><trkpt lat="45.472351960743694" lon="10.460036042246848"><ele>153.0</ele><time>2026-03-30T13:37:20Z</time></trkpt><trkpt lat="45.47226764376716" lon="10.459695807568712"><ele>153.0</ele><time>2026-03-30T13:37:21Z</time></trkpt><trkpt lat="45.47219082365126" lon="10.459364791895208"><ele>152.5</ele><time>2026-03-30T13:37:22Z</time></trkpt><trkpt lat="45.47211602458319" lon="10.459039760994736"><ele>152.0</ele><time>2026-03-30T13:37:23Z</time></trkpt><trkpt lat="45.472048044649945" lon="10.458707706197572"><ele>150.5</ele><time>2026-03-30T13:37:24Z</time></trkpt><trkpt lat="45.471992189394605" lon="10.45837350610328"><ele>149.0</ele><time>2026-03-30T13:37:25Z</time></trkpt><trkpt lat="45.47195216083527" lon="10.458040819890421"><ele>149.5</ele><time>2026-03-30T13:37:26Z</time></trkpt><trkpt lat="45.471918719808954" lon="10.457698805403783"><ele>150.0</ele><time>2026-03-30T13:37:27Z</time></trkpt><trkpt lat="45.47188324981008" lon="10.457367963763463"><ele>149.66666666666666</ele><time>2026-03-30T13:37:28Z</time></trkpt><trkpt lat="45.47185841586264" lon="10.457048058285086"><ele>149.33333333333331</ele><time>2026-03-30T13:37:29Z</time></trkpt><trkpt lat="45.47184098064125" lon="10.45674562809846"><ele>149.0</ele><time>2026-03-30T13:37:30Z</time></trkpt><trkpt lat="45.47183852822176" lon="10.456437540162295"><ele>148.33333333333331</ele><time>2026-03-30T13:37:31Z</time></trkpt><trkpt lat="45.47184256249434" lon="10.456129916909966"><ele>147.66666666666666</ele><time>2026-03-30T13:37:31.999Z</time></trkpt><trkpt lat="45.471850308393506" lon="10.455832317003335"><ele>147.0</ele><time>2026-03-30T13:37:32.999Z</time></trkpt><trkpt lat="45.47186765621463" lon="10.455546978735091"><ele>146.66666666666666</ele><time>2026-03-30T13:37:33.999Z</time></trkpt><trkpt lat="45.47188916207856" lon="10.455269251354713"><ele>146.33333333333331</ele><time>2026-03-30T13:37:34.999Z</time></trkpt><trkpt lat="45.4719169527905" lon="10.455001537140273"><ele>146.0</ele><time>2026-03-30T13:37:35.999Z</time></trkpt><trkpt lat="45.47195285890634" lon="10.454741921094273"><ele>146.33333333333331</ele><time>2026-03-30T13:37:36.999Z</time></trkpt><trkpt lat="45.47199673691391" lon="10.454475267775349"><ele>146.66666666666666</ele><time>2026-03-30T13:37:37.999Z</time></trkpt><trkpt lat="45.472042045925576" lon="10.454209543599758"><ele>147.0</ele><time>2026-03-30T13:37:38.999Z</time></trkpt><trkpt lat="45.47208826329354" lon="10.453943135810901"><ele>147.0</ele><time>2026-03-30T13:37:39.999Z</time></trkpt><trkpt lat="45.47214346981435" lon="10.45367035437673"><ele>147.0</ele><time>2026-03-30T13:37:40.999Z</time></trkpt><trkpt lat="45.472204564032104" lon="10.453394398686166"><ele>147.0</ele><time>2026-03-30T13:37:41.999Z</time></trkpt><trkpt lat="45.47227382265898" lon="10.453119879218667"><ele>146.66666666666666</ele><time>2026-03-30T13:37:42.999Z</time></trkpt><trkpt lat="45.47234752799626" lon="10.452842830301696"><ele>146.33333333333331</ele><time>2026-03-30T13:37:43.999Z</time></trkpt><trkpt lat="45.47241871936722" lon="10.452563726061811"><ele>146.0</ele><time>2026-03-30T13:37:44.999Z</time></trkpt><trkpt lat="45.47249292148795" lon="10.452283676022288"><ele>146.0</ele><time>2026-03-30T13:37:45.999Z</time></trkpt><trkpt lat="45.472565748368304" lon="10.452005670883533"><ele>146.0</ele><time>2026-03-30T13:37:46.999Z</time></trkpt><trkpt lat="45.4726413347867" lon="10.451728028005158"><ele>146.0</ele><time>2026-03-30T13:37:47.999Z</time></trkpt><trkpt lat="45.472743786574604" lon="10.45140662571852"><ele>146.0</ele><time>2026-03-30T13:37:48.999Z</time></trkpt><trkpt lat="45.47283861791632" lon="10.451056164969652"><ele>146.0</ele><time>2026-03-30T13:37:49.999Z</time></trkpt><trkpt lat="45.472939242981" lon="10.450678919229631"><ele>145.5</ele><time>2026-03-30T13:37:50.999Z</time></trkpt><trkpt lat="45.47303420379584" lon="10.450266146384271"><ele>145.0</ele><time>2026-03-30T13:37:51.999Z</time></trkpt><trkpt lat="45.47314633835837" lon="10.449903669193098"><ele>145.5</ele><time>2026-03-30T13:37:52.999Z</time></trkpt><trkpt lat="45.473243671875615" lon="10.449549492218578"><ele>146.0</ele><time>2026-03-30T13:37:53.999Z</time></trkpt><trkpt lat="45.47333695689145" lon="10.449203716144204"><ele>146.0</ele><time>2026-03-30T13:37:54.999Z</time></trkpt><trkpt lat="45.47343035724143" lon="10.448857516425086"><ele>146.0</ele><time>2026-03-30T13:37:55.999Z</time></trkpt><trkpt lat="45.473518927542365" lon="10.448514180092038"><ele>146.0</ele><time>2026-03-30T13:37:56.999Z</time></trkpt><trkpt lat="45.47360699712247" lon="10.448179049305923"><ele>146.0</ele><time>2026-03-30T13:37:57.999Z</time></trkpt><trkpt lat="45.473693615335414" lon="10.447850882630418"><ele>145.5</ele><time>2026-03-30T13:37:58.999Z</time></trkpt><trkpt lat="45.47378270745398" lon="10.44752045990334"><ele>145.0</ele><time>2026-03-30T13:37:59.999Z</time></trkpt><trkpt lat="45.473870402376114" lon="10.447194619532311"><ele>144.0</ele><time>2026-03-30T13:38:00.999Z</time></trkpt><trkpt lat="45.4739590401127" lon="10.446870007195196"><ele>143.0</ele><time>2026-03-30T13:38:01.999Z</time></trkpt><trkpt lat="45.47404640063759" lon="10.446547873050777"><ele>142.5</ele><time>2026-03-30T13:38:02.999Z</time></trkpt><trkpt lat="45.47413427818172" lon="10.446216823460237"><ele>142.0</ele><time>2026-03-30T13:38:03.999Z</time></trkpt><trkpt lat="45.474223190246136" lon="10.44588517832058"><ele>142.0</ele><time>2026-03-30T13:38:04.999Z</time></trkpt><trkpt lat="45.47430778653031" lon="10.445568515169493"><ele>142.0</ele><time>2026-03-30T13:38:05.999Z</time></trkpt><trkpt lat="45.474392562909465" lon="10.445251031920769"><ele>142.5</ele><time>2026-03-30T13:38:06.999Z</time></trkpt><trkpt lat="45.47447854449394" lon="10.44492958568754"><ele>143.0</ele><time>2026-03-30T13:38:07.999Z</time></trkpt><trkpt lat="45.474565300702885" lon="10.44461000163452"><ele>142.5</ele><time>2026-03-30T13:38:08.999Z</time></trkpt><trkpt lat="45.4746495482389" lon="10.444295577004684"><ele>142.0</ele><time>2026-03-30T13:38:09.999Z</time></trkpt><trkpt lat="45.47473348195048" lon="10.443989231545073"><ele>143.0</ele><time>2026-03-30T13:38:10.999Z</time></trkpt><trkpt lat="45.47481903631107" lon="10.443678850317559"><ele>144.0</ele><time>2026-03-30T13:38:11.999Z</time></trkpt><trkpt lat="45.474902203951736" lon="10.443367423120764"><ele>144.0</ele><time>2026-03-30T13:38:12.999Z</time></trkpt><trkpt lat="45.47498565454383" lon="10.443063188167546"><ele>144.0</ele><time>2026-03-30T13:38:13.999Z</time></trkpt><trkpt lat="45.475066547868074" lon="10.442749301602937"><ele>144.0</ele><time>2026-03-30T13:38:14.999Z</time></trkpt><trkpt lat="45.47514642212994" lon="10.442450388115654"><ele>144.0</ele><time>2026-03-30T13:38:15.999Z</time></trkpt><trkpt lat="45.47522896860523" lon="10.442143115911255"><ele>144.0</ele><time>2026-03-30T13:38:16.999Z</time></trkpt><trkpt lat="45.47530620458797" lon="10.441854484187495"><ele>144.0</ele><time>2026-03-30T13:38:17.999Z</time></trkpt><trkpt lat="45.475383664153746" lon="10.441567277344145"><ele>144.0</ele><time>2026-03-30T13:38:18.999Z</time></trkpt><trkpt lat="45.47546244070173" lon="10.441276205487734"><ele>144.0</ele><time>2026-03-30T13:38:19.999Z</time></trkpt><trkpt lat="45.47554233180451" lon="10.440990345736457"><ele>144.0</ele><time>2026-03-30T13:38:20.999Z</time></trkpt><trkpt lat="45.47562053506628" lon="10.44070553306997"><ele>144.0</ele><time>2026-03-30T13:38:21.999Z</time></trkpt><trkpt lat="45.47568966985278" lon="10.440420106805561"><ele>143.33333333333334</ele><time>2026-03-30T13:38:22.999Z</time></trkpt><trkpt lat="45.47576506321632" lon="10.4401588486724"><ele>142.66666666666669</ele><time>2026-03-30T13:38:23.999Z</time></trkpt><trkpt lat="45.47583832232043" lon="10.439898390307881"><ele>142.0</ele><time>2026-03-30T13:38:24.999Z</time></trkpt><trkpt lat="45.4759100074715" lon="10.439658014460443"><ele>141.66666666666669</ele><time>2026-03-30T13:38:25.999Z</time></trkpt><trkpt lat="45.4759784379953" lon="10.43942885686498"><ele>141.33333333333334</ele><time>2026-03-30T13:38:26.999Z</time></trkpt><trkpt lat="45.47604809065274" lon="10.439199874698987"><ele>141.0</ele><time>2026-03-30T13:38:27.999Z</time></trkpt><trkpt lat="45.4761171618859" lon="10.43896559733267"><ele>141.0</ele><time>2026-03-30T13:38:28.999Z</time></trkpt><trkpt lat="45.476187792122346" lon="10.438737116864903"><ele>141.0</ele><time>2026-03-30T13:38:29.999Z</time></trkpt><trkpt lat="45.47626393705427" lon="10.438497183765778"><ele>141.0</ele><time>2026-03-30T13:38:30.999Z</time></trkpt><trkpt lat="45.47633146726897" lon="10.438277472381866"><ele>141.66666666666666</ele><time>2026-03-30T13:38:31.999Z</time></trkpt><trkpt lat="45.476400577607826" lon="10.43805096134118"><ele>142.33333333333331</ele><time>2026-03-30T13:38:32.999Z</time></trkpt><trkpt lat="45.476469373337075" lon="10.43782907477537"><ele>143.0</ele><time>2026-03-30T13:38:33.999Z</time></trkpt><trkpt lat="45.47654021282234" lon="10.437602989928497"><ele>143.0</ele><time>2026-03-30T13:38:34.999Z</time></trkpt><trkpt lat="45.47660687027398" lon="10.437388113482793"><ele>143.0</ele><time>2026-03-30T13:38:35.999Z</time></trkpt><trkpt lat="45.47667272165621" lon="10.437167743208711"><ele>143.0</ele><time>2026-03-30T13:38:36.999Z</time></trkpt><trkpt lat="45.476742076757425" lon="10.436946389832928"><ele>143.0</ele><time>2026-03-30T13:38:37.999Z</time></trkpt><trkpt lat="45.47681349172529" lon="10.436710439698933"><ele>143.0</ele><time>2026-03-30T13:38:38.999Z</time></trkpt><trkpt lat="45.47688278119742" lon="10.436468629490468"><ele>143.0</ele><time>2026-03-30T13:38:39.999Z</time></trkpt><trkpt lat="45.47695487892316" lon="10.43622460529166"><ele>143.0</ele><time>2026-03-30T13:38:40.999Z</time></trkpt><trkpt lat="45.4770299613042" lon="10.43596709527206"><ele>143.0</ele><time>2026-03-30T13:38:41.999Z</time></trkpt><trkpt lat="45.47710447852028" lon="10.435721428116196"><ele>143.0</ele><time>2026-03-30T13:38:42.999Z</time></trkpt><trkpt lat="45.47717944946224" lon="10.435488326940014"><ele>143.33333333333331</ele><time>2026-03-30T13:38:43.999Z</time></trkpt><trkpt lat="45.4772503042551" lon="10.43526210238722"><ele>143.66666666666666</ele><time>2026-03-30T13:38:44.999Z</time></trkpt><trkpt lat="45.47732389477413" lon="10.435020584219087"><ele>144.0</ele><time>2026-03-30T13:38:45.999Z</time></trkpt><trkpt lat="45.47740598824594" lon="10.434736022873748"><ele>143.5</ele><time>2026-03-30T13:38:46.999Z</time></trkpt><trkpt lat="45.477495581179255" lon="10.434438375917729"><ele>143.0</ele><time>2026-03-30T13:38:47.999Z</time></trkpt><trkpt lat="45.47758818729592" lon="10.43414068833237"><ele>143.0</ele><time>2026-03-30T13:38:48.999Z</time></trkpt><trkpt lat="45.47767596693229" lon="10.433858478047881"><ele>143.0</ele><time>2026-03-30T13:38:49.999Z</time></trkpt><trkpt lat="45.47776691919701" lon="10.433587808441922"><ele>143.0</ele><time>2026-03-30T13:38:50.999Z</time></trkpt><trkpt lat="45.47785208707989" lon="10.433313979263946"><ele>142.66666666666666</ele><time>2026-03-30T13:38:51.999Z</time></trkpt><trkpt lat="45.4779329951697" lon="10.43304262200012"><ele>142.33333333333334</ele><time>2026-03-30T13:38:52.999Z</time></trkpt><trkpt lat="45.47801541250584" lon="10.432773597970497"><ele>142.0</ele><time>2026-03-30T13:38:53.999Z</time></trkpt><trkpt lat="45.47810168055919" lon="10.43250299847438"><ele>141.66666666666669</ele><time>2026-03-30T13:38:54.999Z</time></trkpt><trkpt lat="45.47818814778672" lon="10.43222849378919"><ele>141.33333333333334</ele><time>2026-03-30T13:38:55.998Z</time></trkpt><trkpt lat="45.47827294276662" lon="10.431934031995008"><ele>141.0</ele><time>2026-03-30T13:38:56.998Z</time></trkpt><trkpt lat="45.47837776596333" lon="10.431626575807453"><ele>141.5</ele><time>2026-03-30T13:38:57.998Z</time></trkpt><trkpt lat="45.47847654854727" lon="10.431305802166193"><ele>142.0</ele><time>2026-03-30T13:38:58.998Z</time></trkpt><trkpt lat="45.47857517512641" lon="10.430985534482323"><ele>142.0</ele><time>2026-03-30T13:39:00Z</time></trkpt><trkpt lat="45.478673888365805" lon="10.430664985364283"><ele>142.0</ele><time>2026-03-30T13:39:01Z</time></trkpt><trkpt lat="45.47877336770091" lon="10.430341942816577"><ele>141.5</ele><time>2026-03-30T13:39:02Z</time></trkpt><trkpt lat="45.4788753245873" lon="10.43001204708133"><ele>141.0</ele><time>2026-03-30T13:39:03Z</time></trkpt><trkpt lat="45.47896979334799" lon="10.429675740505118"><ele>141.5</ele><time>2026-03-30T13:39:04Z</time></trkpt><trkpt lat="45.47907597802652" lon="10.429349167756856"><ele>142.0</ele><time>2026-03-30T13:39:05Z</time></trkpt><trkpt lat="45.47917979947787" lon="10.429017638220058"><ele>142.5</ele><time>2026-03-30T13:39:06Z</time></trkpt><trkpt lat="45.4792821998794" lon="10.42868973157183"><ele>143.0</ele><time>2026-03-30T13:39:07Z</time></trkpt><trkpt lat="45.47938659248469" lon="10.428354531329878"><ele>143.0</ele><time>2026-03-30T13:39:08Z</time></trkpt><trkpt lat="45.47949007684994" lon="10.428023263471616"><ele>143.0</ele><time>2026-03-30T13:39:09Z</time></trkpt><trkpt lat="45.47959054505523" lon="10.427693107484489"><ele>142.5</ele><time>2026-03-30T13:39:10Z</time></trkpt><trkpt lat="45.47969244498335" lon="10.427359803079298"><ele>142.0</ele><time>2026-03-30T13:39:11Z</time></trkpt><trkpt lat="45.47979483896971" lon="10.427030649355148"><ele>142.0</ele><time>2026-03-30T13:39:12Z</time></trkpt><trkpt lat="45.47989651852971" lon="10.426703408724034"><ele>142.0</ele><time>2026-03-30T13:39:13Z</time></trkpt><trkpt lat="45.479994030100045" lon="10.426381083859697"><ele>143.0</ele><time>2026-03-30T13:39:14Z</time></trkpt><trkpt lat="45.48008423815568" lon="10.426077658104928"><ele>144.0</ele><time>2026-03-30T13:39:15Z</time></trkpt><trkpt lat="45.48017765765253" lon="10.425771337938734"><ele>144.0</ele><time>2026-03-30T13:39:16Z</time></trkpt><trkpt lat="45.48026665236769" lon="10.425481272967872"><ele>144.0</ele><time>2026-03-30T13:39:17Z</time></trkpt><trkpt lat="45.48035864272515" lon="10.425184148846608"><ele>145.5</ele><time>2026-03-30T13:39:18Z</time></trkpt><trkpt lat="45.480450899181285" lon="10.4248920198525"><ele>147.0</ele><time>2026-03-30T13:39:19Z</time></trkpt><trkpt lat="45.48054359583925" lon="10.424597668204372"><ele>147.33333333333334</ele><time>2026-03-30T13:39:20Z</time></trkpt><trkpt lat="45.480635530717926" lon="10.42430322005415"><ele>147.66666666666669</ele><time>2026-03-30T13:39:21Z</time></trkpt><trkpt lat="45.480722778546046" lon="10.424010360593943"><ele>148.0</ele><time>2026-03-30T13:39:22Z</time></trkpt><trkpt lat="45.48080888564387" lon="10.423722325490655"><ele>148.0</ele><time>2026-03-30T13:39:23Z</time></trkpt><trkpt lat="45.48089143027192" lon="10.423434964750536"><ele>148.0</ele><time>2026-03-30T13:39:24Z</time></trkpt><trkpt lat="45.480971032678134" lon="10.423149381226445"><ele>148.0</ele><time>2026-03-30T13:39:25Z</time></trkpt><trkpt lat="45.48104282594504" lon="10.422876931961616"><ele>148.33333333333334</ele><time>2026-03-30T13:39:26Z</time></trkpt><trkpt lat="45.48110486455775" lon="10.42262157887169"><ele>148.66666666666666</ele><time>2026-03-30T13:39:27Z</time></trkpt><trkpt lat="45.48115951455811" lon="10.422375768492982"><ele>149.0</ele><time>2026-03-30T13:39:28Z</time></trkpt><trkpt lat="45.481211793661735" lon="10.422141709725304"><ele>149.33333333333331</ele><time>2026-03-30T13:39:29Z</time></trkpt><trkpt lat="45.481257170646714" lon="10.42190880074996"><ele>149.66666666666666</ele><time>2026-03-30T13:39:30Z</time></trkpt><trkpt lat="45.48129693257948" lon="10.421672922316432"><ele>150.0</ele><time>2026-03-30T13:39:31Z</time></trkpt><trkpt lat="45.4813355463033" lon="10.421437132488999"><ele>151.33333333333334</ele><time>2026-03-30T13:39:32Z</time></trkpt><trkpt lat="45.48137525326397" lon="10.42121317931609"><ele>152.66666666666669</ele><time>2026-03-30T13:39:33Z</time></trkpt><trkpt lat="45.48140623110503" lon="10.420985681364987"><ele>154.0</ele><time>2026-03-30T13:39:34Z</time></trkpt><trkpt lat="45.481449814731214" lon="10.420761612795395"><ele>154.0</ele><time>2026-03-30T13:39:35Z</time></trkpt><trkpt lat="45.481498891505396" lon="10.42055454504867"><ele>154.0</ele><time>2026-03-30T13:39:36Z</time></trkpt><trkpt lat="45.481542752171414" lon="10.420308972192908"><ele>154.0</ele><time>2026-03-30T13:39:37Z</time></trkpt><trkpt lat="45.481591766687224" lon="10.420064732147296"><ele>155.0</ele><time>2026-03-30T13:39:38Z</time></trkpt><trkpt lat="45.481601341096635" lon="10.419754112843416"><ele>156.0</ele><time>2026-03-30T13:39:39.074Z</time></trkpt><trkpt lat="45.4816112402766" lon="10.419492429717476"><ele>157.0</ele><time>2026-03-30T13:39:40.067Z</time></trkpt><trkpt lat="45.48161645348649" lon="10.419262610123333"><ele>157.33333333333334</ele><time>2026-03-30T13:39:41.067Z</time></trkpt><trkpt lat="45.481618221845935" lon="10.418963490620522"><ele>157.66666666666666</ele><time>2026-03-30T13:39:42.068Z</time></trkpt><trkpt lat="45.48161647229936" lon="10.418730783267415"><ele>158.0</ele><time>2026-03-30T13:39:43.063Z</time></trkpt><trkpt lat="45.48161174462248" lon="10.418446531932176"><ele>155.0</ele><time>2026-03-30T13:39:44.052Z</time></trkpt><trkpt lat="45.48214435302389" lon="10.417970596216636"><ele>155.0</ele><time>2026-03-30T13:39:49.031Z</time></trkpt><trkpt lat="45.48215197679324" lon="10.417822792708893"><ele>155.0</ele><time>2026-03-30T13:39:50.029Z</time></trkpt><trkpt lat="45.48213575674169" lon="10.417712279848727"><ele>155.0</ele><time>2026-03-30T13:39:52.025Z</time></trkpt><trkpt lat="45.482102882328974" lon="10.41731578420026"><ele>134.0</ele><time>2026-03-30T13:39:53.028Z</time></trkpt><trkpt lat="45.48016970601736" lon="10.405168119210796"><ele>134.0</ele><time>2026-03-30T13:40:39.999Z</time></trkpt><trkpt lat="45.48021289306488" lon="10.404920059652097"><ele>134.0</ele><time>2026-03-30T13:40:40.999Z</time></trkpt><trkpt lat="45.48019418046403" lon="10.404612526125897"><ele>134.0</ele><time>2026-03-30T13:40:41.999Z</time></trkpt><trkpt lat="45.48020711835504" lon="10.404348057097843"><ele>134.33333333333331</ele><time>2026-03-30T13:40:42.999Z</time></trkpt><trkpt lat="45.48023072220676" lon="10.404101415139953"><ele>134.66666666666666</ele><time>2026-03-30T13:40:43.999Z</time></trkpt><trkpt lat="45.48027071454965" lon="10.403814254098622"><ele>135.0</ele><time>2026-03-30T13:40:44.999Z</time></trkpt><trkpt lat="45.48032219972662" lon="10.403529816553945"><ele>135.0</ele><time>2026-03-30T13:40:45.999Z</time></trkpt><trkpt lat="45.4803856564187" lon="10.403267395594625"><ele>135.0</ele><time>2026-03-30T13:40:46.999Z</time></trkpt><trkpt lat="45.48044926513687" lon="10.403030317063248"><ele>135.0</ele><time>2026-03-30T13:40:47.999Z</time></trkpt><trkpt lat="45.480503981559856" lon="10.402811372165411"><ele>135.66666666666666</ele><time>2026-03-30T13:40:48.999Z</time></trkpt><trkpt lat="45.48055653005653" lon="10.402597093316707"><ele>136.33333333333331</ele><time>2026-03-30T13:40:49.999Z</time></trkpt><trkpt lat="45.48061048514481" lon="10.402373957540219"><ele>137.0</ele><time>2026-03-30T13:40:50.999Z</time></trkpt><trkpt lat="45.4806782763411" lon="10.402152373723535"><ele>137.0</ele><time>2026-03-30T13:40:51.999Z</time></trkpt><trkpt lat="45.48073984733411" lon="10.401927391554297"><ele>137.0</ele><time>2026-03-30T13:40:52.999Z</time></trkpt><trkpt lat="45.4807913120619" lon="10.401702901978881"><ele>137.0</ele><time>2026-03-30T13:40:53.999Z</time></trkpt><trkpt lat="45.48084859924207" lon="10.401466569909475"><ele>136.66666666666666</ele><time>2026-03-30T13:40:54.999Z</time></trkpt><trkpt lat="45.48090667566963" lon="10.401244486510608"><ele>136.33333333333334</ele><time>2026-03-30T13:40:55.999Z</time></trkpt><trkpt lat="45.48096121243338" lon="10.401014268388986"><ele>136.0</ele><time>2026-03-30T13:40:56.999Z</time></trkpt><trkpt lat="45.48102347618865" lon="10.400778276573831"><ele>136.0</ele><time>2026-03-30T13:40:57.999Z</time></trkpt><trkpt lat="45.481083806471354" lon="10.40054671930024"><ele>136.0</ele><time>2026-03-30T13:40:58.999Z</time></trkpt><trkpt lat="45.481143311942496" lon="10.400310259174981"><ele>136.0</ele><time>2026-03-30T13:40:59.999Z</time></trkpt><trkpt lat="45.481208627601745" lon="10.400068076971861"><ele>135.66666666666669</ele><time>2026-03-30T13:41:00.999Z</time></trkpt><trkpt lat="45.48127202516229" lon="10.399828176675863"><ele>135.33333333333334</ele><time>2026-03-30T13:41:01.999Z</time></trkpt><trkpt lat="45.4813299377596" lon="10.399576085328642"><ele>135.0</ele><time>2026-03-30T13:41:02.999Z</time></trkpt><trkpt lat="45.48138977010197" lon="10.399328824550496"><ele>135.0</ele><time>2026-03-30T13:41:03.998Z</time></trkpt><trkpt lat="45.48145288917434" lon="10.399077151783555"><ele>135.0</ele><time>2026-03-30T13:41:04.998Z</time></trkpt><trkpt lat="45.481521090122385" lon="10.398826937734281"><ele>135.0</ele><time>2026-03-30T13:41:06Z</time></trkpt><trkpt lat="45.481582328386445" lon="10.398578971788083"><ele>135.0</ele><time>2026-03-30T13:41:07Z</time></trkpt><trkpt lat="45.48164366174449" lon="10.398337572877901"><ele>135.0</ele><time>2026-03-30T13:41:08Z</time></trkpt><trkpt lat="45.481710041510226" lon="10.398083879415594"><ele>135.0</ele><time>2026-03-30T13:41:09Z</time></trkpt><trkpt lat="45.48177138741525" lon="10.39782653975096"><ele>135.0</ele><time>2026-03-30T13:41:10Z</time></trkpt><trkpt lat="45.48183878478716" lon="10.397564460622581"><ele>135.0</ele><time>2026-03-30T13:41:11Z</time></trkpt><trkpt lat="45.48190354016703" lon="10.397311290605499"><ele>135.0</ele><time>2026-03-30T13:41:12Z</time></trkpt><trkpt lat="45.481965246769846" lon="10.397064047214021"><ele>135.0</ele><time>2026-03-30T13:41:13Z</time></trkpt><trkpt lat="45.48202700745483" lon="10.39681570480601"><ele>135.0</ele><time>2026-03-30T13:41:14Z</time></trkpt><trkpt lat="45.48209090094767" lon="10.396566913792537"><ele>135.0</ele><time>2026-03-30T13:41:15Z</time></trkpt><trkpt lat="45.48215442915924" lon="10.396313893288609"><ele>135.33333333333334</ele><time>2026-03-30T13:41:16Z</time></trkpt><trkpt lat="45.48221798341138" lon="10.396066488825966"><ele>135.66666666666669</ele><time>2026-03-30T13:41:17Z</time></trkpt><trkpt lat="45.482277218278405" lon="10.39582460464397"><ele>136.0</ele><time>2026-03-30T13:41:18Z</time></trkpt><trkpt lat="45.48234025402831" lon="10.395580439463934"><ele>136.33333333333334</ele><time>2026-03-30T13:41:19Z</time></trkpt><trkpt lat="45.48239865711958" lon="10.39534478409896"><ele>136.66666666666666</ele><time>2026-03-30T13:41:20Z</time></trkpt><trkpt lat="45.48245750249219" lon="10.395112025695564"><ele>137.0</ele><time>2026-03-30T13:41:21Z</time></trkpt><trkpt lat="45.48251294422114" lon="10.394901304024858"><ele>137.0</ele><time>2026-03-30T13:41:22Z</time></trkpt><trkpt lat="45.482566143351534" lon="10.39468703233026"><ele>137.0</ele><time>2026-03-30T13:41:23Z</time></trkpt><trkpt lat="45.482622582663765" lon="10.394471921272107"><ele>137.0</ele><time>2026-03-30T13:41:24Z</time></trkpt><trkpt lat="45.48268067691093" lon="10.394252195228098"><ele>137.33333333333331</ele><time>2026-03-30T13:41:25Z</time></trkpt><trkpt lat="45.48274174382204" lon="10.394018188666644"><ele>137.66666666666666</ele><time>2026-03-30T13:41:26Z</time></trkpt><trkpt lat="45.48280356159839" lon="10.393767497291208"><ele>138.0</ele><time>2026-03-30T13:41:27Z</time></trkpt><trkpt lat="45.48287042632629" lon="10.393511110378215"><ele>139.33333333333334</ele><time>2026-03-30T13:41:28Z</time></trkpt><trkpt lat="45.482936622373465" lon="10.393263601420394"><ele>140.66666666666669</ele><time>2026-03-30T13:41:29Z</time></trkpt><trkpt lat="45.48300189450252" lon="10.393012199176745"><ele>142.0</ele><time>2026-03-30T13:41:30Z</time></trkpt><trkpt lat="45.483063603240296" lon="10.392754827581994"><ele>142.0</ele><time>2026-03-30T13:41:31Z</time></trkpt><trkpt lat="45.48312726557803" lon="10.392501397316575"><ele>142.0</ele><time>2026-03-30T13:41:32Z</time></trkpt><trkpt lat="45.48318927459179" lon="10.392252485177913"><ele>142.0</ele><time>2026-03-30T13:41:33Z</time></trkpt><trkpt lat="45.48325335048384" lon="10.391996407923484"><ele>142.0</ele><time>2026-03-30T13:41:34Z</time></trkpt><trkpt lat="45.48331884952323" lon="10.391747883521251"><ele>142.0</ele><time>2026-03-30T13:41:35Z</time></trkpt><trkpt lat="45.48338372335752" lon="10.391500491612618"><ele>142.0</ele><time>2026-03-30T13:41:36Z</time></trkpt><trkpt lat="45.48345198286088" lon="10.391252699905555"><ele>141.66666666666669</ele><time>2026-03-30T13:41:37Z</time></trkpt><trkpt lat="45.48352276474505" lon="10.390999352375273"><ele>141.33333333333334</ele><time>2026-03-30T13:41:38Z</time></trkpt><trkpt lat="45.483594308630224" lon="10.390747629311516"><ele>141.0</ele><time>2026-03-30T13:41:39Z</time></trkpt><trkpt lat="45.48366653598716" lon="10.390497302925679"><ele>142.0</ele><time>2026-03-30T13:41:40Z</time></trkpt><trkpt lat="45.48373444439355" lon="10.390257699253478"><ele>143.0</ele><time>2026-03-30T13:41:41Z</time></trkpt><trkpt lat="45.48380062115463" lon="10.3900204620003"><ele>144.0</ele><time>2026-03-30T13:41:42Z</time></trkpt><trkpt lat="45.48387272860449" lon="10.389760865238767"><ele>144.66666666666666</ele><time>2026-03-30T13:41:43Z</time></trkpt><trkpt lat="45.48394667495267" lon="10.389505437446852"><ele>145.33333333333331</ele><time>2026-03-30T13:41:44Z</time></trkpt><trkpt lat="45.48401625021685" lon="10.389260812391186"><ele>146.0</ele><time>2026-03-30T13:41:45Z</time></trkpt><trkpt lat="45.48408335222466" lon="10.389013768361092"><ele>145.0</ele><time>2026-03-30T13:41:46Z</time></trkpt><trkpt lat="45.48414850981466" lon="10.38877510015952"><ele>144.0</ele><time>2026-03-30T13:41:47Z</time></trkpt><trkpt lat="45.4842157078738" lon="10.388539472811571"><ele>143.0</ele><time>2026-03-30T13:41:48Z</time></trkpt><trkpt lat="45.48428149640649" lon="10.388311643059316"><ele>143.0</ele><time>2026-03-30T13:41:49Z</time></trkpt><trkpt lat="45.48434648846486" lon="10.388066722241627"><ele>143.0</ele><time>2026-03-30T13:41:50Z</time></trkpt><trkpt lat="45.48441300446124" lon="10.387823352546267"><ele>143.0</ele><time>2026-03-30T13:41:51Z</time></trkpt><trkpt lat="45.48447849263439" lon="10.387580584560004"><ele>143.0</ele><time>2026-03-30T13:41:52Z</time></trkpt><trkpt lat="45.484542110413436" lon="10.387349233288656"><ele>143.0</ele><time>2026-03-30T13:41:53Z</time></trkpt><trkpt lat="45.48460439904987" lon="10.387129840195698"><ele>143.0</ele><time>2026-03-30T13:41:54Z</time></trkpt><trkpt lat="45.484669959838456" lon="10.386892231045675"><ele>143.0</ele><time>2026-03-30T13:41:55Z</time></trkpt><trkpt lat="45.48473388389033" lon="10.386669380910096"><ele>143.0</ele><time>2026-03-30T13:41:55.999Z</time></trkpt><trkpt lat="45.48480366124764" lon="10.386423184695111"><ele>143.0</ele><time>2026-03-30T13:41:56.999Z</time></trkpt><trkpt lat="45.48487016105361" lon="10.386183966584246"><ele>143.33333333333331</ele><time>2026-03-30T13:41:57.999Z</time></trkpt><trkpt lat="45.48494210096497" lon="10.385947995289065"><ele>143.66666666666666</ele><time>2026-03-30T13:41:58.999Z</time></trkpt><trkpt lat="45.48501297451511" lon="10.38571408015114"><ele>144.0</ele><time>2026-03-30T13:41:59.999Z</time></trkpt><trkpt lat="45.48507961047383" lon="10.385484940356918"><ele>144.0</ele><time>2026-03-30T13:42:00.999Z</time></trkpt><trkpt lat="45.48514027251482" lon="10.385250388812153"><ele>144.0</ele><time>2026-03-30T13:42:01.999Z</time></trkpt><trkpt lat="45.48519996346645" lon="10.38500690592411"><ele>144.0</ele><time>2026-03-30T13:42:02.999Z</time></trkpt><trkpt lat="45.48525552172983" lon="10.384767711088292"><ele>144.33333333333334</ele><time>2026-03-30T13:42:03.999Z</time></trkpt><trkpt lat="45.48530711830873" lon="10.384531931033376"><ele>144.66666666666669</ele><time>2026-03-30T13:42:04.999Z</time></trkpt><trkpt lat="45.48536065879021" lon="10.384275164349173"><ele>145.0</ele><time>2026-03-30T13:42:05.999Z</time></trkpt><trkpt lat="45.485405992397" lon="10.384039114447798"><ele>144.66666666666669</ele><time>2026-03-30T13:42:06.999Z</time></trkpt><trkpt lat="45.485447707803516" lon="10.383781840888979"><ele>144.33333333333334</ele><time>2026-03-30T13:42:07.999Z</time></trkpt><trkpt lat="45.485484425647556" lon="10.383531081899262"><ele>144.0</ele><time>2026-03-30T13:42:08.999Z</time></trkpt><trkpt lat="45.48551270743669" lon="10.383298202298342"><ele>144.0</ele><time>2026-03-30T13:42:09.999Z</time></trkpt><trkpt lat="45.485542489583466" lon="10.383060281542914"><ele>144.0</ele><time>2026-03-30T13:42:10.999Z</time></trkpt><trkpt lat="45.485565409342314" lon="10.382838812408025"><ele>144.0</ele><time>2026-03-30T13:42:11.999Z</time></trkpt><trkpt lat="45.48558320285626" lon="10.382604231965217"><ele>144.33333333333334</ele><time>2026-03-30T13:42:12.999Z</time></trkpt><trkpt lat="45.48559429600275" lon="10.382374515704635"><ele>144.66666666666669</ele><time>2026-03-30T13:42:13.999Z</time></trkpt><trkpt lat="45.48560506661112" lon="10.382114089531749"><ele>145.0</ele><time>2026-03-30T13:42:14.999Z</time></trkpt><trkpt lat="45.48561021843885" lon="10.381849260791242"><ele>145.0</ele><time>2026-03-30T13:42:15.999Z</time></trkpt><trkpt lat="45.48561698370062" lon="10.381579654651189"><ele>145.0</ele><time>2026-03-30T13:42:16.999Z</time></trkpt><trkpt lat="45.485618206789795" lon="10.381316350794853"><ele>145.0</ele><time>2026-03-30T13:42:17.999Z</time></trkpt><trkpt lat="45.48561394661876" lon="10.38105100621238"><ele>144.66666666666669</ele><time>2026-03-30T13:42:18.999Z</time></trkpt><trkpt lat="45.48560538499622" lon="10.380790198772338"><ele>144.33333333333334</ele><time>2026-03-30T13:42:19.999Z</time></trkpt><trkpt lat="45.485587956626176" lon="10.380532705077579"><ele>144.0</ele><time>2026-03-30T13:42:20.999Z</time></trkpt><trkpt lat="45.485565757696556" lon="10.380271896129537"><ele>144.0</ele><time>2026-03-30T13:42:21.999Z</time></trkpt><trkpt lat="45.48554055539341" lon="10.380029924221462"><ele>144.0</ele><time>2026-03-30T13:42:22.999Z</time></trkpt><trkpt lat="45.48550957124779" lon="10.379783718214936"><ele>144.0</ele><time>2026-03-30T13:42:23.999Z</time></trkpt><trkpt lat="45.485476429872115" lon="10.37954147180417"><ele>143.66666666666666</ele><time>2026-03-30T13:42:24.999Z</time></trkpt><trkpt lat="45.485441796367006" lon="10.379302798839907"><ele>143.33333333333331</ele><time>2026-03-30T13:42:25.999Z</time></trkpt><trkpt lat="45.485402194277704" lon="10.37905491604607"><ele>143.0</ele><time>2026-03-30T13:42:26.999Z</time></trkpt><trkpt lat="45.48535500970498" lon="10.378806074455735"><ele>144.0</ele><time>2026-03-30T13:42:27.999Z</time></trkpt><trkpt lat="45.485298772828166" lon="10.378561378760098"><ele>145.0</ele><time>2026-03-30T13:42:28.999Z</time></trkpt><trkpt lat="45.48524395187444" lon="10.378331380945855"><ele>146.0</ele><time>2026-03-30T13:42:29.999Z</time></trkpt><trkpt lat="45.485187908566495" lon="10.378110980621814"><ele>145.66666666666666</ele><time>2026-03-30T13:42:30.999Z</time></trkpt><trkpt lat="45.485135465931386" lon="10.37789488320923"><ele>145.33333333333334</ele><time>2026-03-30T13:42:31.999Z</time></trkpt><trkpt lat="45.485073432765894" lon="10.377669124766637"><ele>145.0</ele><time>2026-03-30T13:42:32.999Z</time></trkpt><trkpt lat="45.48501699803672" lon="10.377463888074812"><ele>145.0</ele><time>2026-03-30T13:42:33.999Z</time></trkpt><trkpt lat="45.48495542748713" lon="10.377258416752912"><ele>145.0</ele><time>2026-03-30T13:42:34.999Z</time></trkpt><trkpt lat="45.484893284353404" lon="10.377056759945237"><ele>145.0</ele><time>2026-03-30T13:42:35.999Z</time></trkpt><trkpt lat="45.48482704226359" lon="10.37684559477325"><ele>144.33333333333334</ele><time>2026-03-30T13:42:36.999Z</time></trkpt><trkpt lat="45.48476155216356" lon="10.376637928637857"><ele>143.66666666666666</ele><time>2026-03-30T13:42:37.999Z</time></trkpt><trkpt lat="45.4846882839415" lon="10.376417887709545"><ele>143.0</ele><time>2026-03-30T13:42:38.999Z</time></trkpt><trkpt lat="45.48461597321375" lon="10.37621026767411"><ele>143.0</ele><time>2026-03-30T13:42:39.999Z</time></trkpt><trkpt lat="45.48454363856997" lon="10.37597837674591"><ele>143.0</ele><time>2026-03-30T13:42:40.999Z</time></trkpt><trkpt lat="45.48446971384948" lon="10.375759005830542"><ele>143.0</ele><time>2026-03-30T13:42:41.999Z</time></trkpt><trkpt lat="45.484390456438064" lon="10.37551745669527"><ele>143.0</ele><time>2026-03-30T13:42:42.999Z</time></trkpt><trkpt lat="45.48431214783728" lon="10.375285988281313"><ele>143.0</ele><time>2026-03-30T13:42:43.999Z</time></trkpt><trkpt lat="45.48423184428411" lon="10.375054985628404"><ele>143.0</ele><time>2026-03-30T13:42:44.999Z</time></trkpt><trkpt lat="45.48416055286749" lon="10.374837490411876"><ele>143.33333333333331</ele><time>2026-03-30T13:42:45.999Z</time></trkpt><trkpt lat="45.4840891617812" lon="10.37462273413463"><ele>143.66666666666666</ele><time>2026-03-30T13:42:46.999Z</time></trkpt><trkpt lat="45.48401699053878" lon="10.374406227442146"><ele>144.0</ele><time>2026-03-30T13:42:47.999Z</time></trkpt><trkpt lat="45.483946349144716" lon="10.374191637177185"><ele>144.0</ele><time>2026-03-30T13:42:48.999Z</time></trkpt><trkpt lat="45.483872764889554" lon="10.373974243111883"><ele>144.0</ele><time>2026-03-30T13:42:49.999Z</time></trkpt><trkpt lat="45.48380643082329" lon="10.373773542629998"><ele>144.0</ele><time>2026-03-30T13:42:50.999Z</time></trkpt><trkpt lat="45.483737674610005" lon="10.37357316560811"><ele>144.0</ele><time>2026-03-30T13:42:51.999Z</time></trkpt><trkpt lat="45.483675951350975" lon="10.373385509703642"><ele>144.0</ele><time>2026-03-30T13:42:52.999Z</time></trkpt><trkpt lat="45.48361443734201" lon="10.373203124353193"><ele>144.0</ele><time>2026-03-30T13:42:53.999Z</time></trkpt><trkpt lat="45.48355749174175" lon="10.373025041860457"><ele>144.0</ele><time>2026-03-30T13:42:54.999Z</time></trkpt><trkpt lat="45.48349410618746" lon="10.372834134841357"><ele>144.0</ele><time>2026-03-30T13:42:55.999Z</time></trkpt><trkpt lat="45.483424799145126" lon="10.372635114786048"><ele>144.0</ele><time>2026-03-30T13:42:56.999Z</time></trkpt><trkpt lat="45.483358748968804" lon="10.37243941768807"><ele>144.0</ele><time>2026-03-30T13:42:57.999Z</time></trkpt><trkpt lat="45.483295701029" lon="10.37224534764972"><ele>143.66666666666666</ele><time>2026-03-30T13:42:58.999Z</time></trkpt><trkpt lat="45.48323050743263" lon="10.372045427108224"><ele>143.33333333333331</ele><time>2026-03-30T13:42:59.999Z</time></trkpt><trkpt lat="45.48316348044338" lon="10.37183332520362"><ele>143.0</ele><time>2026-03-30T13:43:00.999Z</time></trkpt><trkpt lat="45.48309307437723" lon="10.371620224672645"><ele>143.0</ele><time>2026-03-30T13:43:01.999Z</time></trkpt><trkpt lat="45.48301774682464" lon="10.371400794261378"><ele>143.0</ele><time>2026-03-30T13:43:02.999Z</time></trkpt><trkpt lat="45.48294305622575" lon="10.37118633861306"><ele>143.0</ele><time>2026-03-30T13:43:03.999Z</time></trkpt><trkpt lat="45.48287092300225" lon="10.370973639302832"><ele>142.66666666666666</ele><time>2026-03-30T13:43:04.999Z</time></trkpt><trkpt lat="45.48280448540252" lon="10.370763029932679"><ele>142.33333333333334</ele><time>2026-03-30T13:43:05.999Z</time></trkpt><trkpt lat="45.482730538471756" lon="10.370535224844497"><ele>142.0</ele><time>2026-03-30T13:43:06.999Z</time></trkpt><trkpt lat="45.482660655073055" lon="10.370322361727064"><ele>142.33333333333334</ele><time>2026-03-30T13:43:07.999Z</time></trkpt><trkpt lat="45.482592585881406" lon="10.37010359807545"><ele>142.66666666666666</ele><time>2026-03-30T13:43:08.999Z</time></trkpt><trkpt lat="45.48252205089473" lon="10.369888741665207"><ele>143.0</ele><time>2026-03-30T13:43:09.998Z</time></trkpt><trkpt lat="45.48244761436102" lon="10.36967097415679"><ele>143.0</ele><time>2026-03-30T13:43:10.998Z</time></trkpt><trkpt lat="45.48237920401861" lon="10.36945812188247"><ele>143.0</ele><time>2026-03-30T13:43:12Z</time></trkpt><trkpt lat="45.48230931883879" lon="10.369246101557152"><ele>143.0</ele><time>2026-03-30T13:43:13Z</time></trkpt><trkpt lat="45.48224165415057" lon="10.369033595620381"><ele>143.0</ele><time>2026-03-30T13:43:14Z</time></trkpt><trkpt lat="45.482170046437425" lon="10.368821427644216"><ele>143.0</ele><time>2026-03-30T13:43:15Z</time></trkpt><trkpt lat="45.482096687029745" lon="10.368603260356098"><ele>143.0</ele><time>2026-03-30T13:43:16Z</time></trkpt><trkpt lat="45.48202775642871" lon="10.368381983960337"><ele>143.0</ele><time>2026-03-30T13:43:17Z</time></trkpt><trkpt lat="45.48195800485633" lon="10.368169115216014"><ele>143.0</ele><time>2026-03-30T13:43:18Z</time></trkpt><trkpt lat="45.48188366325982" lon="10.367939829878626"><ele>143.0</ele><time>2026-03-30T13:43:19Z</time></trkpt><trkpt lat="45.48181028415449" lon="10.367718083604744"><ele>142.66666666666666</ele><time>2026-03-30T13:43:20Z</time></trkpt><trkpt lat="45.48173719849047" lon="10.367501989437793"><ele>142.33333333333334</ele><time>2026-03-30T13:43:21Z</time></trkpt><trkpt lat="45.48166467856788" lon="10.367277248057187"><ele>142.0</ele><time>2026-03-30T13:43:22Z</time></trkpt><trkpt lat="45.48159343101478" lon="10.367055025137082"><ele>142.0</ele><time>2026-03-30T13:43:23Z</time></trkpt><trkpt lat="45.48151830005887" lon="10.366833483826996"><ele>142.0</ele><time>2026-03-30T13:43:24Z</time></trkpt><trkpt lat="45.48144009901281" lon="10.366598318861241"><ele>142.0</ele><time>2026-03-30T13:43:25Z</time></trkpt><trkpt lat="45.481360764596126" lon="10.36635730538506"><ele>142.0</ele><time>2026-03-30T13:43:26Z</time></trkpt><trkpt lat="45.481291396413134" lon="10.36614453839096"><ele>142.0</ele><time>2026-03-30T13:43:27Z</time></trkpt><trkpt lat="45.48122396186605" lon="10.365931238416179"><ele>142.0</ele><time>2026-03-30T13:43:28Z</time></trkpt><trkpt lat="45.4811555482693" lon="10.365732855483245"><ele>141.33333333333334</ele><time>2026-03-30T13:43:29Z</time></trkpt><trkpt lat="45.48109291219242" lon="10.365533613698329"><ele>140.66666666666666</ele><time>2026-03-30T13:43:30Z</time></trkpt><trkpt lat="45.48103256121359" lon="10.365340163079635"><ele>140.0</ele><time>2026-03-30T13:43:31Z</time></trkpt><trkpt lat="45.48095819028227" lon="10.365152195982144"><ele>140.0</ele><time>2026-03-30T13:43:32Z</time></trkpt><trkpt lat="45.48091127294961" lon="10.364964981784109"><ele>140.0</ele><time>2026-03-30T13:43:33Z</time></trkpt><trkpt lat="45.480852519014775" lon="10.36478745599746"><ele>140.0</ele><time>2026-03-30T13:43:34Z</time></trkpt><trkpt lat="45.48079784791681" lon="10.36462226652627"><ele>140.0</ele><time>2026-03-30T13:43:35Z</time></trkpt><trkpt lat="45.48074327419104" lon="10.36445737130023"><ele>140.0</ele><time>2026-03-30T13:43:36Z</time></trkpt><trkpt lat="45.48068743425987" lon="10.364288649975379"><ele>140.0</ele><time>2026-03-30T13:43:37Z</time></trkpt><trkpt lat="45.48062981120351" lon="10.364113217511791"><ele>140.0</ele><time>2026-03-30T13:43:38Z</time></trkpt><trkpt lat="45.480569731830805" lon="10.36393019404394"><ele>140.0</ele><time>2026-03-30T13:43:39Z</time></trkpt><trkpt lat="45.480508569910434" lon="10.363744618585773"><ele>139.75</ele><time>2026-03-30T13:43:40Z</time></trkpt><trkpt lat="45.48044625521579" lon="10.363554905015931"><ele>139.5</ele><time>2026-03-30T13:43:41Z</time></trkpt><trkpt lat="45.480385007168714" lon="10.36336776855607"><ele>139.25</ele><time>2026-03-30T13:43:42Z</time></trkpt><trkpt lat="45.4803226606852" lon="10.363177512022004"><ele>139.0</ele><time>2026-03-30T13:43:43Z</time></trkpt><trkpt lat="45.48025966978649" lon="10.362985744801792"><ele>139.5</ele><time>2026-03-30T13:43:44Z</time></trkpt><trkpt lat="45.48019820005472" lon="10.362798811754137"><ele>140.0</ele><time>2026-03-30T13:43:45Z</time></trkpt><trkpt lat="45.480134593088856" lon="10.362603955510641"><ele>140.5</ele><time>2026-03-30T13:43:46Z</time></trkpt><trkpt lat="45.48007052389709" lon="10.362407682964301"><ele>141.0</ele><time>2026-03-30T13:43:47Z</time></trkpt><trkpt lat="45.48000597042215" lon="10.36220998993315"><ele>141.0</ele><time>2026-03-30T13:43:48Z</time></trkpt><trkpt lat="45.479939971421224" lon="10.362007892749212"><ele>141.0</ele><time>2026-03-30T13:43:49Z</time></trkpt><trkpt lat="45.47987186030569" lon="10.361809656505672"><ele>141.0</ele><time>2026-03-30T13:43:50Z</time></trkpt><trkpt lat="45.47981039190261" lon="10.361595216139245"><ele>141.0</ele><time>2026-03-30T13:43:51Z</time></trkpt><trkpt lat="45.47974554872122" lon="10.361379668366865"><ele>141.0</ele><time>2026-03-30T13:43:52Z</time></trkpt><trkpt lat="45.479679900170154" lon="10.361152769338542"><ele>141.0</ele><time>2026-03-30T13:43:53Z</time></trkpt><trkpt lat="45.479619836495104" lon="10.36092388992025"><ele>141.0</ele><time>2026-03-30T13:43:54Z</time></trkpt><trkpt lat="45.479561788808695" lon="10.360685594459417"><ele>141.0</ele><time>2026-03-30T13:43:55Z</time></trkpt><trkpt lat="45.47950254213332" lon="10.360434075014071"><ele>141.0</ele><time>2026-03-30T13:43:56Z</time></trkpt><trkpt lat="45.47944621291586" lon="10.3601740119921"><ele>141.0</ele><time>2026-03-30T13:43:57Z</time></trkpt><trkpt lat="45.47939422111465" lon="10.359915536594352"><ele>141.0</ele><time>2026-03-30T13:43:58Z</time></trkpt><trkpt lat="45.47934673868955" lon="10.35965888619466"><ele>141.0</ele><time>2026-03-30T13:43:59Z</time></trkpt><trkpt lat="45.47930287617378" lon="10.359404066719053"><ele>140.33333333333334</ele><time>2026-03-30T13:43:59.999Z</time></trkpt><trkpt lat="45.479265790443684" lon="10.359158097577101"><ele>139.66666666666669</ele><time>2026-03-30T13:44:00.999Z</time></trkpt><trkpt lat="45.479230421300485" lon="10.358910174951076"><ele>139.0</ele><time>2026-03-30T13:44:01.999Z</time></trkpt><trkpt lat="45.47919415448849" lon="10.358648526227181"><ele>138.66666666666669</ele><time>2026-03-30T13:44:02.999Z</time></trkpt><trkpt lat="45.4791655278503" lon="10.358383374857212"><ele>138.33333333333334</ele><time>2026-03-30T13:44:03.999Z</time></trkpt><trkpt lat="45.47913643579709" lon="10.358112907222717"><ele>138.0</ele><time>2026-03-30T13:44:04.999Z</time></trkpt><trkpt lat="45.47910794390396" lon="10.357843621589495"><ele>138.66666666666666</ele><time>2026-03-30T13:44:05.999Z</time></trkpt><trkpt lat="45.47909726960396" lon="10.357600514725005"><ele>139.33333333333331</ele><time>2026-03-30T13:44:06.999Z</time></trkpt><trkpt lat="45.47908759594398" lon="10.357351623165474"><ele>140.0</ele><time>2026-03-30T13:44:07.999Z</time></trkpt><trkpt lat="45.479079319420315" lon="10.35709434726747"><ele>140.0</ele><time>2026-03-30T13:44:08.999Z</time></trkpt><trkpt lat="45.47907371784939" lon="10.356847232546357"><ele>140.0</ele><time>2026-03-30T13:44:09.999Z</time></trkpt><trkpt lat="45.479063625459474" lon="10.356572923541318"><ele>140.0</ele><time>2026-03-30T13:44:10.999Z</time></trkpt><trkpt lat="45.47905634957023" lon="10.356316355282612"><ele>140.0</ele><time>2026-03-30T13:44:11.999Z</time></trkpt><trkpt lat="45.47904944289021" lon="10.356065741163539"><ele>140.0</ele><time>2026-03-30T13:44:12.999Z</time></trkpt><trkpt lat="45.479044153337064" lon="10.355815243483578"><ele>140.0</ele><time>2026-03-30T13:44:13.999Z</time></trkpt><trkpt lat="45.479040067833296" lon="10.35556468245038"><ele>140.66666666666666</ele><time>2026-03-30T13:44:14.999Z</time></trkpt><trkpt lat="45.47903403355168" lon="10.355316569584357"><ele>141.33333333333334</ele><time>2026-03-30T13:44:15.999Z</time></trkpt><trkpt lat="45.4790276874505" lon="10.355071559764067"><ele>142.0</ele><time>2026-03-30T13:44:16.999Z</time></trkpt><trkpt lat="45.479018927027376" lon="10.3548186945117"><ele>141.66666666666669</ele><time>2026-03-30T13:44:17.999Z</time></trkpt><trkpt lat="45.479014492190295" lon="10.35456089351461"><ele>141.33333333333334</ele><time>2026-03-30T13:44:18.999Z</time></trkpt><trkpt lat="45.47900701310382" lon="10.35430618872315"><ele>141.0</ele><time>2026-03-30T13:44:19.999Z</time></trkpt><trkpt lat="45.47899943089551" lon="10.354060990597858"><ele>140.33333333333334</ele><time>2026-03-30T13:44:20.999Z</time></trkpt><trkpt lat="45.47899240396717" lon="10.353813763878728"><ele>139.66666666666669</ele><time>2026-03-30T13:44:21.999Z</time></trkpt><trkpt lat="45.47898638549079" lon="10.353563258313333"><ele>139.0</ele><time>2026-03-30T13:44:22.999Z</time></trkpt><trkpt lat="45.47898368230874" lon="10.353312757459225"><ele>139.0</ele><time>2026-03-30T13:44:23.999Z</time></trkpt><trkpt lat="45.47897712793311" lon="10.353062315216638"><ele>139.0</ele><time>2026-03-30T13:44:24.999Z</time></trkpt><trkpt lat="45.47897177048643" lon="10.352808135502908"><ele>139.0</ele><time>2026-03-30T13:44:25.999Z</time></trkpt><trkpt lat="45.47896924549447" lon="10.352546584419626"><ele>139.0</ele><time>2026-03-30T13:44:26.999Z</time></trkpt><trkpt lat="45.478962448355595" lon="10.352283857932482"><ele>139.0</ele><time>2026-03-30T13:44:27.999Z</time></trkpt><trkpt lat="45.478951918431605" lon="10.352017852647101"><ele>139.0</ele><time>2026-03-30T13:44:28.999Z</time></trkpt><trkpt lat="45.47894347303252" lon="10.351760503801955"><ele>139.0</ele><time>2026-03-30T13:44:29.999Z</time></trkpt><trkpt lat="45.47893456700826" lon="10.351502436912792"><ele>139.0</ele><time>2026-03-30T13:44:30.999Z</time></trkpt><trkpt lat="45.478931875554956" lon="10.351245952462506"><ele>139.0</ele><time>2026-03-30T13:44:31.999Z</time></trkpt><trkpt lat="45.47892267030147" lon="10.350996569417317"><ele>139.33333333333334</ele><time>2026-03-30T13:44:32.999Z</time></trkpt><trkpt lat="45.47891446770304" lon="10.35073549615384"><ele>139.66666666666666</ele><time>2026-03-30T13:44:33.999Z</time></trkpt><trkpt lat="45.47890576087101" lon="10.35048041863831"><ele>140.0</ele><time>2026-03-30T13:44:34.999Z</time></trkpt><trkpt lat="45.478906943780906" lon="10.350191632699334"><ele>140.0</ele><time>2026-03-30T13:44:35.999Z</time></trkpt><trkpt lat="45.47889776677293" lon="10.349831606729225"><ele>140.0</ele><time>2026-03-30T13:44:36.999Z</time></trkpt><trkpt lat="45.47888788944809" lon="10.349444107145349"><ele>140.0</ele><time>2026-03-30T13:44:37.999Z</time></trkpt><trkpt lat="45.47886136975991" lon="10.349045133770417"><ele>140.0</ele><time>2026-03-30T13:44:38.999Z</time></trkpt><trkpt lat="45.478864174565416" lon="10.348693748463633"><ele>140.0</ele><time>2026-03-30T13:44:39.999Z</time></trkpt><trkpt lat="45.47885420048885" lon="10.348341123559166"><ele>140.0</ele><time>2026-03-30T13:44:40.999Z</time></trkpt><trkpt lat="45.47885483076736" lon="10.34798347108374"><ele>139.0</ele><time>2026-03-30T13:44:41.999Z</time></trkpt><trkpt lat="45.47885030925059" lon="10.347618669849414"><ele>138.0</ele><time>2026-03-30T13:44:42.999Z</time></trkpt><trkpt lat="45.47886518781291" lon="10.347262337569472"><ele>137.5</ele><time>2026-03-30T13:44:43.999Z</time></trkpt><trkpt lat="45.47889011755546" lon="10.346900779550836"><ele>137.0</ele><time>2026-03-30T13:44:44.999Z</time></trkpt><trkpt lat="45.478930923119" lon="10.346523637691087"><ele>137.0</ele><time>2026-03-30T13:44:45.999Z</time></trkpt><trkpt lat="45.47898311205377" lon="10.346136253785009"><ele>137.0</ele><time>2026-03-30T13:44:46.999Z</time></trkpt><trkpt lat="45.47904459802289" lon="10.345784698813485"><ele>138.0</ele><time>2026-03-30T13:44:47.999Z</time></trkpt><trkpt lat="45.47911605502056" lon="10.345455513964737"><ele>139.0</ele><time>2026-03-30T13:44:48.999Z</time></trkpt><trkpt lat="45.47919460539136" lon="10.345141681502032"><ele>139.0</ele><time>2026-03-30T13:44:49.999Z</time></trkpt><trkpt lat="45.47927924710377" lon="10.344850260069668"><ele>139.0</ele><time>2026-03-30T13:44:50.999Z</time></trkpt><trkpt lat="45.479361050302515" lon="10.34455932349493"><ele>139.0</ele><time>2026-03-30T13:44:51.999Z</time></trkpt><trkpt lat="45.47944135421929" lon="10.344291218983642"><ele>139.0</ele><time>2026-03-30T13:44:52.999Z</time></trkpt><trkpt lat="45.47952439417744" lon="10.344016223034648"><ele>139.0</ele><time>2026-03-30T13:44:53.999Z</time></trkpt><trkpt lat="45.47960679576371" lon="10.343747129367426"><ele>139.0</ele><time>2026-03-30T13:44:54.999Z</time></trkpt><trkpt lat="45.4796852328616" lon="10.343489126703165"><ele>139.66666666666669</ele><time>2026-03-30T13:44:55.999Z</time></trkpt><trkpt lat="45.479760445196895" lon="10.343237546480914"><ele>140.33333333333334</ele><time>2026-03-30T13:44:56.999Z</time></trkpt><trkpt lat="45.47983622062266" lon="10.342986535601469"><ele>141.0</ele><time>2026-03-30T13:44:57.999Z</time></trkpt><trkpt lat="45.47991490840066" lon="10.34273778858688"><ele>141.0</ele><time>2026-03-30T13:44:58.999Z</time></trkpt><trkpt lat="45.47999514387998" lon="10.342475728962317"><ele>141.0</ele><time>2026-03-30T13:44:59.999Z</time></trkpt><trkpt lat="45.4800754384217" lon="10.342210996885125"><ele>141.0</ele><time>2026-03-30T13:45:00.999Z</time></trkpt><trkpt lat="45.48015256605668" lon="10.341945045157729"><ele>140.0</ele><time>2026-03-30T13:45:01.999Z</time></trkpt><trkpt lat="45.48023210451156" lon="10.34167618813807"><ele>139.0</ele><time>2026-03-30T13:45:02.999Z</time></trkpt><trkpt lat="45.480322280269554" lon="10.34137876765661"><ele>138.0</ele><time>2026-03-30T13:45:03.999Z</time></trkpt><trkpt lat="45.48041137202582" lon="10.341082721682138"><ele>138.66666666666666</ele><time>2026-03-30T13:45:04.999Z</time></trkpt><trkpt lat="45.48049417723829" lon="10.340787963500711"><ele>139.33333333333331</ele><time>2026-03-30T13:45:05.999Z</time></trkpt><trkpt lat="45.48058180858117" lon="10.340508628919894"><ele>140.0</ele><time>2026-03-30T13:45:06.999Z</time></trkpt><trkpt lat="45.480675609369854" lon="10.340240852624973"><ele>140.0</ele><time>2026-03-30T13:45:07.999Z</time></trkpt><trkpt lat="45.48076882444016" lon="10.339996356305342"><ele>140.0</ele><time>2026-03-30T13:45:08.999Z</time></trkpt><trkpt lat="45.48086660931697" lon="10.339750343516746"><ele>140.0</ele><time>2026-03-30T13:45:09.998Z</time></trkpt><trkpt lat="45.48096689742913" lon="10.3395207968999"><ele>139.66666666666666</ele><time>2026-03-30T13:45:10.998Z</time></trkpt><trkpt lat="45.48107186832026" lon="10.339288061160413"><ele>139.33333333333334</ele><time>2026-03-30T13:45:11.998Z</time></trkpt><trkpt lat="45.48117850180945" lon="10.33905475827971"><ele>139.0</ele><time>2026-03-30T13:45:12.998Z</time></trkpt><trkpt lat="45.48128788583247" lon="10.33882194067507"><ele>139.0</ele><time>2026-03-30T13:45:13.998Z</time></trkpt><trkpt lat="45.48140696539837" lon="10.33860030807009"><ele>139.0</ele><time>2026-03-30T13:45:14.998Z</time></trkpt><trkpt lat="45.48153112113349" lon="10.338387124866882"><ele>139.0</ele><time>2026-03-30T13:45:15.998Z</time></trkpt><trkpt lat="45.48165695802292" lon="10.338178676320204"><ele>139.33333333333334</ele><time>2026-03-30T13:45:16.998Z</time></trkpt><trkpt lat="45.481781047849736" lon="10.337988208261487"><ele>139.66666666666666</ele><time>2026-03-30T13:45:18Z</time></trkpt><trkpt lat="45.48190856931072" lon="10.337792168397854"><ele>140.0</ele><time>2026-03-30T13:45:19Z</time></trkpt><trkpt lat="45.482037661685936" lon="10.337600305231582"><ele>139.66666666666666</ele><time>2026-03-30T13:45:20Z</time></trkpt><trkpt lat="45.48216564951399" lon="10.337416982548524"><ele>139.33333333333334</ele><time>2026-03-30T13:45:21Z</time></trkpt><trkpt lat="45.48229317987604" lon="10.33724679351698"><ele>139.0</ele><time>2026-03-30T13:45:22Z</time></trkpt><trkpt lat="45.48242804352966" lon="10.337055350745343"><ele>139.0</ele><time>2026-03-30T13:45:23Z</time></trkpt><trkpt lat="45.482565183601814" lon="10.336863170059614"><ele>139.0</ele><time>2026-03-30T13:45:24Z</time></trkpt><trkpt lat="45.48269985831889" lon="10.33666873757801"><ele>139.0</ele><time>2026-03-30T13:45:25Z</time></trkpt><trkpt lat="45.48283076885384" lon="10.336483776660016"><ele>138.33333333333334</ele><time>2026-03-30T13:45:26Z</time></trkpt><trkpt lat="45.48295669396306" lon="10.336318773044663"><ele>137.66666666666666</ele><time>2026-03-30T13:45:27Z</time></trkpt><trkpt lat="45.48307341037797" lon="10.336159077553829"><ele>137.0</ele><time>2026-03-30T13:45:28Z</time></trkpt><trkpt lat="45.48318773095315" lon="10.335998208754276"><ele>137.0</ele><time>2026-03-30T13:45:29Z</time></trkpt><trkpt lat="45.4833020352109" lon="10.33584108816466"><ele>137.0</ele><time>2026-03-30T13:45:30Z</time></trkpt><trkpt lat="45.48342179728467" lon="10.33567200713688"><ele>137.0</ele><time>2026-03-30T13:45:31Z</time></trkpt><trkpt lat="45.48354000400479" lon="10.335500558381508"><ele>137.66666666666666</ele><time>2026-03-30T13:45:32Z</time></trkpt><trkpt lat="45.483661155461256" lon="10.335328857273876"><ele>138.33333333333334</ele><time>2026-03-30T13:45:33Z</time></trkpt><trkpt lat="45.483782084232836" lon="10.335164755160271"><ele>139.0</ele><time>2026-03-30T13:45:34Z</time></trkpt><trkpt lat="45.48389720565293" lon="10.335001994116073"><ele>139.0</ele><time>2026-03-30T13:45:35Z</time></trkpt><trkpt lat="45.48400666955397" lon="10.33484838811803"><ele>139.0</ele><time>2026-03-30T13:45:36Z</time></trkpt><trkpt lat="45.48412400411367" lon="10.334685749284239"><ele>139.0</ele><time>2026-03-30T13:45:37Z</time></trkpt><trkpt lat="45.48423635167838" lon="10.334525949349878"><ele>139.33333333333334</ele><time>2026-03-30T13:45:38Z</time></trkpt><trkpt lat="45.484352896847426" lon="10.33436841672138"><ele>139.66666666666666</ele><time>2026-03-30T13:45:39Z</time></trkpt><trkpt lat="45.48446681212088" lon="10.334207505362997"><ele>140.0</ele><time>2026-03-30T13:45:40Z</time></trkpt><trkpt lat="45.484584735146015" lon="10.334045897964968"><ele>138.66666666666666</ele><time>2026-03-30T13:45:41Z</time></trkpt><trkpt lat="45.48470306472195" lon="10.333884136657312"><ele>137.33333333333334</ele><time>2026-03-30T13:45:42Z</time></trkpt><trkpt lat="45.48481791635456" lon="10.333726006846758"><ele>136.0</ele><time>2026-03-30T13:45:43Z</time></trkpt><trkpt lat="45.48492904191866" lon="10.333567569086002"><ele>136.0</ele><time>2026-03-30T13:45:44Z</time></trkpt><trkpt lat="45.48503442265009" lon="10.333424628158681"><ele>136.0</ele><time>2026-03-30T13:45:45Z</time></trkpt><trkpt lat="45.485143061841136" lon="10.333274979237718"><ele>136.0</ele><time>2026-03-30T13:45:46Z</time></trkpt><trkpt lat="45.48524429065295" lon="10.333133966366736"><ele>136.0</ele><time>2026-03-30T13:45:47Z</time></trkpt><trkpt lat="45.48534668600858" lon="10.332990782544986"><ele>136.75</ele><time>2026-03-30T13:45:48Z</time></trkpt><trkpt lat="45.48544592578532" lon="10.332850115421348"><ele>137.5</ele><time>2026-03-30T13:45:49Z</time></trkpt><trkpt lat="45.485549915264066" lon="10.332709345466396"><ele>138.25</ele><time>2026-03-30T13:45:50Z</time></trkpt><trkpt lat="45.48565205325316" lon="10.33256190330368"><ele>139.0</ele><time>2026-03-30T13:45:51Z</time></trkpt><trkpt lat="45.485755264861936" lon="10.332406480436932"><ele>139.0</ele><time>2026-03-30T13:45:52Z</time></trkpt><trkpt lat="45.48588184549987" lon="10.332262254615523"><ele>139.0</ele><time>2026-03-30T13:45:53Z</time></trkpt><trkpt lat="45.48599837504004" lon="10.33210020043282"><ele>139.0</ele><time>2026-03-30T13:45:54Z</time></trkpt><trkpt lat="45.486116245078584" lon="10.331936281736619"><ele>138.33333333333334</ele><time>2026-03-30T13:45:55Z</time></trkpt><trkpt lat="45.486222687467865" lon="10.33178825576654"><ele>137.66666666666666</ele><time>2026-03-30T13:45:56Z</time></trkpt><trkpt lat="45.48632631260996" lon="10.33161235863867"><ele>137.0</ele><time>2026-03-30T13:45:57Z</time></trkpt><trkpt lat="45.48643697116323" lon="10.33146498336144"><ele>137.0</ele><time>2026-03-30T13:45:58Z</time></trkpt><trkpt lat="45.486550415430855" lon="10.331310447146162"><ele>137.0</ele><time>2026-03-30T13:45:59Z</time></trkpt><trkpt lat="45.486651672314096" lon="10.331171628247747"><ele>137.0</ele><time>2026-03-30T13:46:00Z</time></trkpt><trkpt lat="45.486753140350366" lon="10.33103352960486"><ele>137.0</ele><time>2026-03-30T13:46:01Z</time></trkpt><trkpt lat="45.48685758704479" lon="10.33088985413245"><ele>137.0</ele><time>2026-03-30T13:46:02Z</time></trkpt><trkpt lat="45.486962150883315" lon="10.330734145650574"><ele>137.0</ele><time>2026-03-30T13:46:03Z</time></trkpt><trkpt lat="45.487072319774875" lon="10.330576331076847"><ele>137.0</ele><time>2026-03-30T13:46:03.999Z</time></trkpt><trkpt lat="45.48718323336877" lon="10.33042868367909"><ele>137.0</ele><time>2026-03-30T13:46:04.999Z</time></trkpt><trkpt lat="45.4872916210424" lon="10.330276272861612"><ele>137.0</ele><time>2026-03-30T13:46:05.999Z</time></trkpt><trkpt lat="45.48739930245576" lon="10.330123242703566"><ele>137.0</ele><time>2026-03-30T13:46:06.999Z</time></trkpt><trkpt lat="45.48750369334653" lon="10.329977533888668"><ele>137.0</ele><time>2026-03-30T13:46:07.999Z</time></trkpt><trkpt lat="45.48761103707473" lon="10.329834520600244"><ele>137.0</ele><time>2026-03-30T13:46:08.999Z</time></trkpt><trkpt lat="45.48771757387435" lon="10.329684223853402"><ele>137.0</ele><time>2026-03-30T13:46:09.999Z</time></trkpt><trkpt lat="45.487827539733836" lon="10.329526850491373"><ele>137.33333333333331</ele><time>2026-03-30T13:46:10.999Z</time></trkpt><trkpt lat="45.487946020163605" lon="10.329391667069984"><ele>137.66666666666666</ele><time>2026-03-30T13:46:11.999Z</time></trkpt><trkpt lat="45.48806477937967" lon="10.329226512309297"><ele>138.0</ele><time>2026-03-30T13:46:12.999Z</time></trkpt><trkpt lat="45.48817546724454" lon="10.329072582177146"><ele>138.0</ele><time>2026-03-30T13:46:13.999Z</time></trkpt><trkpt lat="45.48829901014276" lon="10.328900775838985"><ele>138.0</ele><time>2026-03-30T13:46:14.999Z</time></trkpt><trkpt lat="45.48840739047938" lon="10.32871815737562"><ele>138.0</ele><time>2026-03-30T13:46:15.999Z</time></trkpt><trkpt lat="45.48852045023575" lon="10.32856315953173"><ele>137.66666666666666</ele><time>2026-03-30T13:46:16.999Z</time></trkpt><trkpt lat="45.488632134537625" lon="10.32840852178287"><ele>137.33333333333331</ele><time>2026-03-30T13:46:17.999Z</time></trkpt><trkpt lat="45.48875091491469" lon="10.3282448073888"><ele>137.0</ele><time>2026-03-30T13:46:18.999Z</time></trkpt><trkpt lat="45.48886331703686" lon="10.328089397031862"><ele>137.33333333333331</ele><time>2026-03-30T13:46:19.999Z</time></trkpt><trkpt lat="45.48898220402403" lon="10.327927840906439"><ele>137.66666666666666</ele><time>2026-03-30T13:46:20.999Z</time></trkpt><trkpt lat="45.489093824979534" lon="10.327771063508878"><ele>138.0</ele><time>2026-03-30T13:46:21.999Z</time></trkpt><trkpt lat="45.48920937481493" lon="10.327607493610776"><ele>138.0</ele><time>2026-03-30T13:46:22.999Z</time></trkpt><trkpt lat="45.489333178342896" lon="10.327449833274466"><ele>138.0</ele><time>2026-03-30T13:46:23.999Z</time></trkpt><trkpt lat="45.48943914927716" lon="10.327298104454389"><ele>138.0</ele><time>2026-03-30T13:46:24.999Z</time></trkpt><trkpt lat="45.4895516840083" lon="10.327149600962153"><ele>138.33333333333334</ele><time>2026-03-30T13:46:25.999Z</time></trkpt><trkpt lat="45.48966585167204" lon="10.326989033662235"><ele>138.66666666666669</ele><time>2026-03-30T13:46:26.999Z</time></trkpt><trkpt lat="45.489780725919566" lon="10.326814599851895"><ele>139.0</ele><time>2026-03-30T13:46:27.999Z</time></trkpt><trkpt lat="45.48989853137066" lon="10.326642142044419"><ele>139.0</ele><time>2026-03-30T13:46:28.999Z</time></trkpt><trkpt lat="45.490032271474696" lon="10.326488728762078"><ele>139.0</ele><time>2026-03-30T13:46:29.999Z</time></trkpt><trkpt lat="45.49014380125863" lon="10.326318355530828"><ele>139.0</ele><time>2026-03-30T13:46:30.999Z</time></trkpt><trkpt lat="45.49025876675386" lon="10.326157773914831"><ele>138.66666666666669</ele><time>2026-03-30T13:46:31.999Z</time></trkpt><trkpt lat="45.49038437636062" lon="10.325997065085435"><ele>138.33333333333334</ele><time>2026-03-30T13:46:32.999Z</time></trkpt><trkpt lat="45.49051277355851" lon="10.325831051397508"><ele>138.0</ele><time>2026-03-30T13:46:33.999Z</time></trkpt><trkpt lat="45.4906291953573" lon="10.325674348677442"><ele>138.33333333333334</ele><time>2026-03-30T13:46:34.999Z</time></trkpt><trkpt lat="45.49074901078431" lon="10.325507854701495"><ele>138.66666666666669</ele><time>2026-03-30T13:46:35.999Z</time></trkpt><trkpt lat="45.49086626327714" lon="10.325338889208936"><ele>139.0</ele><time>2026-03-30T13:46:36.999Z</time></trkpt><trkpt lat="45.490992335513745" lon="10.325171402638166"><ele>139.0</ele><time>2026-03-30T13:46:37.999Z</time></trkpt><trkpt lat="45.49111022555446" lon="10.32499810482227"><ele>139.0</ele><time>2026-03-30T13:46:38.999Z</time></trkpt><trkpt lat="45.49123371884165" lon="10.324823765322476"><ele>139.0</ele><time>2026-03-30T13:46:39.999Z</time></trkpt><trkpt lat="45.491353965781144" lon="10.324652628776148"><ele>138.66666666666669</ele><time>2026-03-30T13:46:40.999Z</time></trkpt><trkpt lat="45.491480520278124" lon="10.324480390404396"><ele>138.33333333333334</ele><time>2026-03-30T13:46:41.999Z</time></trkpt><trkpt lat="45.491611798061754" lon="10.324293857886309"><ele>138.0</ele><time>2026-03-30T13:46:42.999Z</time></trkpt><trkpt lat="45.49172702230431" lon="10.324129078262477"><ele>138.0</ele><time>2026-03-30T13:46:43.999Z</time></trkpt><trkpt lat="45.491858666502075" lon="10.323946720043933"><ele>138.0</ele><time>2026-03-30T13:46:44.999Z</time></trkpt><trkpt lat="45.49199241640335" lon="10.323764502069837"><ele>138.0</ele><time>2026-03-30T13:46:45.999Z</time></trkpt><trkpt lat="45.49212149235385" lon="10.323583082673302"><ele>138.33333333333334</ele><time>2026-03-30T13:46:46.999Z</time></trkpt><trkpt lat="45.492255836688145" lon="10.323398185172184"><ele>138.66666666666669</ele><time>2026-03-30T13:46:47.999Z</time></trkpt><trkpt lat="45.49239556615132" lon="10.323206408814533"><ele>139.0</ele><time>2026-03-30T13:46:48.999Z</time></trkpt><trkpt lat="45.492539970707114" lon="10.323016746842233"><ele>139.0</ele><time>2026-03-30T13:46:49.999Z</time></trkpt><trkpt lat="45.49266608429358" lon="10.322828786581868"><ele>139.0</ele><time>2026-03-30T13:46:50.999Z</time></trkpt><trkpt lat="45.492795337484765" lon="10.322647470172274"><ele>139.0</ele><time>2026-03-30T13:46:51.999Z</time></trkpt><trkpt lat="45.49293201357304" lon="10.322460593794643"><ele>139.0</ele><time>2026-03-30T13:46:52.999Z</time></trkpt><trkpt lat="45.49306504275446" lon="10.322274591265014"><ele>139.0</ele><time>2026-03-30T13:46:53.999Z</time></trkpt><trkpt lat="45.4931952539568" lon="10.322089109594828"><ele>139.0</ele><time>2026-03-30T13:46:54.999Z</time></trkpt><trkpt lat="45.49332773279646" lon="10.321904563055849"><ele>139.0</ele><time>2026-03-30T13:46:55.999Z</time></trkpt><trkpt lat="45.493452366619806" lon="10.321726527900806"><ele>139.0</ele><time>2026-03-30T13:46:56.999Z</time></trkpt><trkpt lat="45.493576281954105" lon="10.321550768175406"><ele>139.0</ele><time>2026-03-30T13:46:57.999Z</time></trkpt><trkpt lat="45.49372286912865" lon="10.321344618725124"><ele>139.66666666666669</ele><time>2026-03-30T13:46:58.999Z</time></trkpt><trkpt lat="45.493858107488514" lon="10.321160351285062"><ele>140.33333333333334</ele><time>2026-03-30T13:46:59.999Z</time></trkpt><trkpt lat="45.49398959624866" lon="10.32097334525819"><ele>141.0</ele><time>2026-03-30T13:47:00.999Z</time></trkpt><trkpt lat="45.49411715899101" lon="10.320789737617774"><ele>141.0</ele><time>2026-03-30T13:47:01.999Z</time></trkpt><trkpt lat="45.49424330861875" lon="10.320606448807272"><ele>141.0</ele><time>2026-03-30T13:47:02.999Z</time></trkpt><trkpt lat="45.494370451936476" lon="10.320426177549082"><ele>141.0</ele><time>2026-03-30T13:47:03.999Z</time></trkpt><trkpt lat="45.494494912189644" lon="10.320241220487928"><ele>141.0</ele><time>2026-03-30T13:47:04.999Z</time></trkpt><trkpt lat="45.49462017407351" lon="10.320078274727672"><ele>141.0</ele><time>2026-03-30T13:47:05.999Z</time></trkpt><trkpt lat="45.49473961552128" lon="10.319912205645982"><ele>141.0</ele><time>2026-03-30T13:47:06.999Z</time></trkpt><trkpt lat="45.49485744864679" lon="10.319751911501605"><ele>140.66666666666666</ele><time>2026-03-30T13:47:07.999Z</time></trkpt><trkpt lat="45.494975590942175" lon="10.319597036040328"><ele>140.33333333333331</ele><time>2026-03-30T13:47:08.999Z</time></trkpt><trkpt lat="45.49509146996446" lon="10.319442549354944"><ele>140.0</ele><time>2026-03-30T13:47:09.999Z</time></trkpt><trkpt lat="45.4952119039183" lon="10.319280457495394"><ele>140.0</ele><time>2026-03-30T13:47:10.998Z</time></trkpt><trkpt lat="45.49533623386385" lon="10.319116230565674"><ele>140.0</ele><time>2026-03-30T13:47:11.998Z</time></trkpt><trkpt lat="45.49546276671246" lon="10.318941526754164"><ele>140.0</ele><time>2026-03-30T13:47:12.998Z</time></trkpt><trkpt lat="45.49559642683959" lon="10.318760591887848"><ele>140.0</ele><time>2026-03-30T13:47:13.998Z</time></trkpt><trkpt lat="45.495738539582554" lon="10.318565581903616"><ele>140.0</ele><time>2026-03-30T13:47:14.998Z</time></trkpt><trkpt lat="45.4958857198801" lon="10.318353966822983"><ele>140.0</ele><time>2026-03-30T13:47:15.998Z</time></trkpt><trkpt lat="45.49603196468885" lon="10.3181242293578"><ele>140.0</ele><time>2026-03-30T13:47:16.998Z</time></trkpt><trkpt lat="45.49617409757576" lon="10.317868118862824"><ele>140.0</ele><time>2026-03-30T13:47:17.998Z</time></trkpt><trkpt lat="45.49631068726653" lon="10.317591574754406"><ele>138.5</ele><time>2026-03-30T13:47:18.998Z</time></trkpt><trkpt lat="45.49644363067297" lon="10.31730025765034"><ele>137.0</ele><time>2026-03-30T13:47:19.998Z</time></trkpt><trkpt lat="45.49656936395495" lon="10.31695493938699"><ele>137.0</ele><time>2026-03-30T13:47:20.998Z</time></trkpt><trkpt lat="45.496691481283555" lon="10.316599297445693"><ele>137.0</ele><time>2026-03-30T13:47:21.998Z</time></trkpt><trkpt lat="45.49680034654411" lon="10.316224226329384"><ele>137.0</ele><time>2026-03-30T13:47:22.998Z</time></trkpt><trkpt lat="45.496888187897184" lon="10.31585503255014"><ele>137.0</ele><time>2026-03-30T13:47:24Z</time></trkpt><trkpt lat="45.496954471659286" lon="10.31546998007447"><ele>138.0</ele><time>2026-03-30T13:47:25Z</time></trkpt><trkpt lat="45.4970057250162" lon="10.315084953347734"><ele>139.0</ele><time>2026-03-30T13:47:26Z</time></trkpt><trkpt lat="45.497048297338736" lon="10.314694956180253"><ele>139.0</ele><time>2026-03-30T13:47:27Z</time></trkpt><trkpt lat="45.497089198986274" lon="10.31430311347175"><ele>139.0</ele><time>2026-03-30T13:47:28Z</time></trkpt><trkpt lat="45.49713428440912" lon="10.313928797398983"><ele>139.0</ele><time>2026-03-30T13:47:29Z</time></trkpt><trkpt lat="45.49718277752243" lon="10.313558502732553"><ele>139.0</ele><time>2026-03-30T13:47:30Z</time></trkpt><trkpt lat="45.49723170868885" lon="10.313184015975985"><ele>138.5</ele><time>2026-03-30T13:47:31Z</time></trkpt><trkpt lat="45.4972785094417" lon="10.312810756613759"><ele>138.0</ele><time>2026-03-30T13:47:32Z</time></trkpt><trkpt lat="45.49732464461107" lon="10.312442015958716"><ele>138.0</ele><time>2026-03-30T13:47:33Z</time></trkpt><trkpt lat="45.4973718063813" lon="10.312070732672364"><ele>138.0</ele><time>2026-03-30T13:47:34Z</time></trkpt><trkpt lat="45.497417774296" lon="10.311700293483739"><ele>138.0</ele><time>2026-03-30T13:47:35Z</time></trkpt><trkpt lat="45.49746389173198" lon="10.311333921545158"><ele>138.0</ele><time>2026-03-30T13:47:36Z</time></trkpt><trkpt lat="45.49750853086045" lon="10.310961851649669"><ele>138.0</ele><time>2026-03-30T13:47:37Z</time></trkpt><trkpt lat="45.49755133140605" lon="10.31060788742143"><ele>138.0</ele><time>2026-03-30T13:47:38Z</time></trkpt><trkpt lat="45.497593254172514" lon="10.310252757575883"><ele>138.0</ele><time>2026-03-30T13:47:39Z</time></trkpt><trkpt lat="45.49763813088936" lon="10.30989602637976"><ele>138.0</ele><time>2026-03-30T13:47:40Z</time></trkpt><trkpt lat="45.497681161001886" lon="10.309533357391823"><ele>138.0</ele><time>2026-03-30T13:47:41Z</time></trkpt><trkpt lat="45.49772544833991" lon="10.309173927628201"><ele>138.0</ele><time>2026-03-30T13:47:42Z</time></trkpt><trkpt lat="45.49777254641851" lon="10.308808083259963"><ele>138.5</ele><time>2026-03-30T13:47:43Z</time></trkpt><trkpt lat="45.49781886283047" lon="10.308441552219815"><ele>139.0</ele><time>2026-03-30T13:47:44Z</time></trkpt><trkpt lat="45.49786415130223" lon="10.30807525403484"><ele>138.5</ele><time>2026-03-30T13:47:45Z</time></trkpt><trkpt lat="45.49791110807964" lon="10.30770472376267"><ele>138.0</ele><time>2026-03-30T13:47:46Z</time></trkpt><trkpt lat="45.49795713003174" lon="10.307340205273395"><ele>138.5</ele><time>2026-03-30T13:47:47Z</time></trkpt><trkpt lat="45.498003777697264" lon="10.306964385868326"><ele>139.0</ele><time>2026-03-30T13:47:48Z</time></trkpt><trkpt lat="45.498051560850236" lon="10.306603188617506"><ele>138.0</ele><time>2026-03-30T13:47:49Z</time></trkpt><trkpt lat="45.49809726220777" lon="10.306245376801185"><ele>137.0</ele><time>2026-03-30T13:47:50Z</time></trkpt><trkpt lat="45.498139476838816" lon="10.305913824596042"><ele>137.0</ele><time>2026-03-30T13:47:51Z</time></trkpt><trkpt lat="45.498181496625286" lon="10.305588140109467"><ele>137.0</ele><time>2026-03-30T13:47:52Z</time></trkpt><trkpt lat="45.49822089414224" lon="10.305270309784346"><ele>137.33333333333331</ele><time>2026-03-30T13:47:53Z</time></trkpt><trkpt lat="45.49825926117626" lon="10.304957020396"><ele>137.66666666666666</ele><time>2026-03-30T13:47:54Z</time></trkpt><trkpt lat="45.498295641972085" lon="10.304643369995613"><ele>138.0</ele><time>2026-03-30T13:47:55Z</time></trkpt><trkpt lat="45.498334012241116" lon="10.304329795007392"><ele>138.0</ele><time>2026-03-30T13:47:56Z</time></trkpt><trkpt lat="45.49837301980271" lon="10.304016754340731"><ele>138.0</ele><time>2026-03-30T13:47:57Z</time></trkpt><trkpt lat="45.498410486157034" lon="10.30372533345993"><ele>138.0</ele><time>2026-03-30T13:47:58Z</time></trkpt><trkpt lat="45.49844544992183" lon="10.303427161088068"><ele>138.0</ele><time>2026-03-30T13:47:59Z</time></trkpt><trkpt lat="45.4984854102525" lon="10.303131454406907"><ele>138.0</ele><time>2026-03-30T13:48:00Z</time></trkpt><trkpt lat="45.49852347268981" lon="10.302820230547136"><ele>138.0</ele><time>2026-03-30T13:48:01Z</time></trkpt><trkpt lat="45.49856130972897" lon="10.302509593053589"><ele>137.0</ele><time>2026-03-30T13:48:02Z</time></trkpt><trkpt lat="45.49859753556271" lon="10.302201018125709"><ele>136.0</ele><time>2026-03-30T13:48:03Z</time></trkpt><trkpt lat="45.49863429775498" lon="10.301886928368074"><ele>135.0</ele><time>2026-03-30T13:48:04Z</time></trkpt><trkpt lat="45.498670773089195" lon="10.301574398080051"><ele>135.0</ele><time>2026-03-30T13:48:05Z</time></trkpt><trkpt lat="45.49870825315686" lon="10.301261236016957"><ele>135.0</ele><time>2026-03-30T13:48:06Z</time></trkpt><trkpt lat="45.49874892510422" lon="10.300951814848199"><ele>135.0</ele><time>2026-03-30T13:48:06.999Z</time></trkpt><trkpt lat="45.498790425893056" lon="10.300651317456774"><ele>135.0</ele><time>2026-03-30T13:48:07.999Z</time></trkpt><trkpt lat="45.49883111279434" lon="10.300343039342678"><ele>135.0</ele><time>2026-03-30T13:48:08.999Z</time></trkpt><trkpt lat="45.49886888357903" lon="10.300035542644977"><ele>135.0</ele><time>2026-03-30T13:48:09.999Z</time></trkpt><trkpt lat="45.498906522055314" lon="10.29973071476145"><ele>135.66666666666666</ele><time>2026-03-30T13:48:10.999Z</time></trkpt><trkpt lat="45.498942837311034" lon="10.29942028932334"><ele>136.33333333333331</ele><time>2026-03-30T13:48:11.999Z</time></trkpt><trkpt lat="45.498979934084524" lon="10.299118416088838"><ele>137.0</ele><time>2026-03-30T13:48:12.999Z</time></trkpt><trkpt lat="45.49901811078277" lon="10.298813465707184"><ele>137.0</ele><time>2026-03-30T13:48:13.999Z</time></trkpt><trkpt lat="45.49905772263935" lon="10.298509879703447"><ele>137.0</ele><time>2026-03-30T13:48:14.999Z</time></trkpt><trkpt lat="45.499096447080724" lon="10.298206180469954"><ele>137.0</ele><time>2026-03-30T13:48:15.999Z</time></trkpt><trkpt lat="45.499136432159155" lon="10.297895360070747"><ele>136.66666666666666</ele><time>2026-03-30T13:48:16.999Z</time></trkpt><trkpt lat="45.4991772153808" lon="10.297585540706834"><ele>136.33333333333334</ele><time>2026-03-30T13:48:17.999Z</time></trkpt><trkpt lat="45.49921716991107" lon="10.297277430537694"><ele>136.0</ele><time>2026-03-30T13:48:18.999Z</time></trkpt><trkpt lat="45.49925709109098" lon="10.296968244916886"><ele>136.0</ele><time>2026-03-30T13:48:19.999Z</time></trkpt><trkpt lat="45.49929583513703" lon="10.29666392215687"><ele>136.0</ele><time>2026-03-30T13:48:20.999Z</time></trkpt><trkpt lat="45.49933329335256" lon="10.2963561946104"><ele>136.0</ele><time>2026-03-30T13:48:21.999Z</time></trkpt><trkpt lat="45.49937072280785" lon="10.296041484556"><ele>136.0</ele><time>2026-03-30T13:48:22.999Z</time></trkpt><trkpt lat="45.499406419334186" lon="10.295733599374291"><ele>136.0</ele><time>2026-03-30T13:48:23.999Z</time></trkpt><trkpt lat="45.49944277681881" lon="10.29542646519699"><ele>136.0</ele><time>2026-03-30T13:48:24.999Z</time></trkpt><trkpt lat="45.49948036185356" lon="10.29511567139084"><ele>136.0</ele><time>2026-03-30T13:48:25.999Z</time></trkpt><trkpt lat="45.49951832338993" lon="10.294805847850691"><ele>136.0</ele><time>2026-03-30T13:48:26.999Z</time></trkpt><trkpt lat="45.49955479188349" lon="10.29449956572722"><ele>136.0</ele><time>2026-03-30T13:48:27.999Z</time></trkpt><trkpt lat="45.499593878549035" lon="10.294188537247106"><ele>136.0</ele><time>2026-03-30T13:48:28.999Z</time></trkpt><trkpt lat="45.49963018559178" lon="10.29388061350968"><ele>136.0</ele><time>2026-03-30T13:48:29.999Z</time></trkpt><trkpt lat="45.499672191077266" lon="10.293568081992776"><ele>136.0</ele><time>2026-03-30T13:48:30.999Z</time></trkpt><trkpt lat="45.49970896016074" lon="10.293259692192965"><ele>136.66666666666669</ele><time>2026-03-30T13:48:31.999Z</time></trkpt><trkpt lat="45.49974733911699" lon="10.292952837188713"><ele>137.33333333333334</ele><time>2026-03-30T13:48:32.999Z</time></trkpt><trkpt lat="45.49978836798927" lon="10.292644431986481"><ele>138.0</ele><time>2026-03-30T13:48:33.999Z</time></trkpt><trkpt lat="45.499830484628546" lon="10.292334774941615"><ele>137.33333333333334</ele><time>2026-03-30T13:48:34.999Z</time></trkpt><trkpt lat="45.49986732398465" lon="10.292031415478009"><ele>136.66666666666669</ele><time>2026-03-30T13:48:35.999Z</time></trkpt><trkpt lat="45.49990457846892" lon="10.291726395585854"><ele>136.0</ele><time>2026-03-30T13:48:36.999Z</time></trkpt><trkpt lat="45.49994122771139" lon="10.291422207110426"><ele>135.66666666666669</ele><time>2026-03-30T13:48:37.999Z</time></trkpt><trkpt lat="45.4999826449587" lon="10.291111645567538"><ele>135.33333333333334</ele><time>2026-03-30T13:48:38.999Z</time></trkpt><trkpt lat="45.50002259521857" lon="10.290806387444638"><ele>135.0</ele><time>2026-03-30T13:48:39.999Z</time></trkpt><trkpt lat="45.50006474045607" lon="10.290501136166217"><ele>134.66666666666666</ele><time>2026-03-30T13:48:40.999Z</time></trkpt><trkpt lat="45.50010834299547" lon="10.290193969186388"><ele>134.33333333333331</ele><time>2026-03-30T13:48:41.999Z</time></trkpt><trkpt lat="45.50014663142375" lon="10.289890594873636"><ele>134.0</ele><time>2026-03-30T13:48:42.999Z</time></trkpt><trkpt lat="45.50018333998489" lon="10.28957534902907"><ele>133.66666666666666</ele><time>2026-03-30T13:48:43.999Z</time></trkpt><trkpt lat="45.50021767560055" lon="10.289268388301084"><ele>133.33333333333334</ele><time>2026-03-30T13:48:44.999Z</time></trkpt><trkpt lat="45.50025465246911" lon="10.28895740662428"><ele>133.0</ele><time>2026-03-30T13:48:45.999Z</time></trkpt><trkpt lat="45.500292078048204" lon="10.288648147484482"><ele>133.0</ele><time>2026-03-30T13:48:46.999Z</time></trkpt><trkpt lat="45.500328865981466" lon="10.2883443598998"><ele>133.0</ele><time>2026-03-30T13:48:47.999Z</time></trkpt><trkpt lat="45.50036831377888" lon="10.288032632070424"><ele>133.0</ele><time>2026-03-30T13:48:48.999Z</time></trkpt><trkpt lat="45.50040045199852" lon="10.287723547317677"><ele>133.0</ele><time>2026-03-30T13:48:49.999Z</time></trkpt><trkpt lat="45.50044222343874" lon="10.28741526571359"><ele>133.0</ele><time>2026-03-30T13:48:50.999Z</time></trkpt><trkpt lat="45.5004827506431" lon="10.287107037897723"><ele>133.0</ele><time>2026-03-30T13:48:51.999Z</time></trkpt><trkpt lat="45.50051850985798" lon="10.286802127483433"><ele>133.0</ele><time>2026-03-30T13:48:52.999Z</time></trkpt><trkpt lat="45.500554540926565" lon="10.2864950937072"><ele>133.0</ele><time>2026-03-30T13:48:53.999Z</time></trkpt><trkpt lat="45.50059441102667" lon="10.286183066000527"><ele>133.0</ele><time>2026-03-30T13:48:54.999Z</time></trkpt><trkpt lat="45.500634271579166" lon="10.285876461602225"><ele>132.33333333333334</ele><time>2026-03-30T13:48:55.999Z</time></trkpt><trkpt lat="45.50067636148713" lon="10.28556727071251"><ele>131.66666666666666</ele><time>2026-03-30T13:48:56.999Z</time></trkpt><trkpt lat="45.50072100618324" lon="10.285258164741967"><ele>131.0</ele><time>2026-03-30T13:48:57.999Z</time></trkpt><trkpt lat="45.500756428814945" lon="10.284953600350446"><ele>131.0</ele><time>2026-03-30T13:48:58.999Z</time></trkpt><trkpt lat="45.50079190787392" lon="10.284643433035217"><ele>131.0</ele><time>2026-03-30T13:48:59.999Z</time></trkpt><trkpt lat="45.50082483785262" lon="10.28433705703303"><ele>131.0</ele><time>2026-03-30T13:49:00.999Z</time></trkpt><trkpt lat="45.50086167085926" lon="10.28402633968655"><ele>131.0</ele><time>2026-03-30T13:49:01.999Z</time></trkpt><trkpt lat="45.50090046743594" lon="10.283717684807511"><ele>131.0</ele><time>2026-03-30T13:49:02.999Z</time></trkpt><trkpt lat="45.50094052975418" lon="10.283410561255893"><ele>131.0</ele><time>2026-03-30T13:49:03.999Z</time></trkpt><trkpt lat="45.50097833750746" lon="10.283103659136504"><ele>130.33333333333331</ele><time>2026-03-30T13:49:04.999Z</time></trkpt><trkpt lat="45.501013906308906" lon="10.282794103318535"><ele>129.66666666666666</ele><time>2026-03-30T13:49:05.999Z</time></trkpt><trkpt lat="45.501047471739085" lon="10.28248551578659"><ele>129.0</ele><time>2026-03-30T13:49:06.999Z</time></trkpt><trkpt lat="45.50108278402578" lon="10.282178342968965"><ele>129.0</ele><time>2026-03-30T13:49:07.999Z</time></trkpt><trkpt lat="45.501121147989764" lon="10.281867765839083"><ele>129.0</ele><time>2026-03-30T13:49:08.999Z</time></trkpt><trkpt lat="45.50115072433281" lon="10.28156119678296"><ele>129.0</ele><time>2026-03-30T13:49:09.999Z</time></trkpt><trkpt lat="45.50118106098766" lon="10.28125055994469"><ele>128.66666666666666</ele><time>2026-03-30T13:49:10.999Z</time></trkpt><trkpt lat="45.50119962446932" lon="10.280942912424562"><ele>128.33333333333331</ele><time>2026-03-30T13:49:11.999Z</time></trkpt><trkpt lat="45.50121407578504" lon="10.280634827218613"><ele>128.0</ele><time>2026-03-30T13:49:12.998Z</time></trkpt><trkpt lat="45.50123288922997" lon="10.28031730933907"><ele>127.66666666666666</ele><time>2026-03-30T13:49:13.998Z</time></trkpt><trkpt lat="45.50124308964747" lon="10.28000937109685"><ele>127.33333333333334</ele><time>2026-03-30T13:49:14.998Z</time></trkpt><trkpt lat="45.5012507376338" lon="10.279698370824896"><ele>127.0</ele><time>2026-03-30T13:49:15.998Z</time></trkpt><trkpt lat="45.50125233837227" lon="10.279386167975554"><ele>127.0</ele><time>2026-03-30T13:49:16.998Z</time></trkpt><trkpt lat="45.50125662359167" lon="10.279069013985131"><ele>127.0</ele><time>2026-03-30T13:49:17.998Z</time></trkpt><trkpt lat="45.501249900610176" lon="10.278760926185027"><ele>127.0</ele><time>2026-03-30T13:49:18.998Z</time></trkpt><trkpt lat="45.501244693568694" lon="10.27845058373108"><ele>128.0</ele><time>2026-03-30T13:49:19.998Z</time></trkpt><trkpt lat="45.50123834426576" lon="10.278134045002064"><ele>129.0</ele><time>2026-03-30T13:49:20.998Z</time></trkpt><trkpt lat="45.501230337231114" lon="10.277822245863879"><ele>130.0</ele><time>2026-03-30T13:49:21.998Z</time></trkpt><trkpt lat="45.50121405026244" lon="10.277512121254851"><ele>130.0</ele><time>2026-03-30T13:49:22.998Z</time></trkpt><trkpt lat="45.50119558868147" lon="10.277199779346967"><ele>130.0</ele><time>2026-03-30T13:49:23.998Z</time></trkpt><trkpt lat="45.501175936658136" lon="10.276884769289083"><ele>130.0</ele><time>2026-03-30T13:49:24.998Z</time></trkpt><trkpt lat="45.50115775761869" lon="10.276571450930852"><ele>130.0</ele><time>2026-03-30T13:49:25.998Z</time></trkpt><trkpt lat="45.501140426232126" lon="10.276258237084033"><ele>130.0</ele><time>2026-03-30T13:49:26.998Z</time></trkpt><trkpt lat="45.501129289321646" lon="10.275949316566795"><ele>130.0</ele><time>2026-03-30T13:49:27.998Z</time></trkpt><trkpt lat="45.50111964671796" lon="10.275632946208974"><ele>129.33333333333334</ele><time>2026-03-30T13:49:29Z</time></trkpt><trkpt lat="45.50110580310404" lon="10.275324080757695"><ele>128.66666666666666</ele><time>2026-03-30T13:49:30Z</time></trkpt><trkpt lat="45.501091658691465" lon="10.275010492096959"><ele>128.0</ele><time>2026-03-30T13:49:31Z</time></trkpt><trkpt lat="45.50107870558588" lon="10.274700522662057"><ele>128.0</ele><time>2026-03-30T13:49:32Z</time></trkpt><trkpt lat="45.501063746541156" lon="10.27438913735096"><ele>128.0</ele><time>2026-03-30T13:49:33Z</time></trkpt><trkpt lat="45.501048557803" lon="10.274077332148181"><ele>128.0</ele><time>2026-03-30T13:49:34Z</time></trkpt><trkpt lat="45.50102975925264" lon="10.273766228055582"><ele>128.33333333333331</ele><time>2026-03-30T13:49:35Z</time></trkpt><trkpt lat="45.50101626126109" lon="10.273451731285666"><ele>128.66666666666666</ele><time>2026-03-30T13:49:36Z</time></trkpt><trkpt lat="45.50099344873887" lon="10.273138916137091"><ele>129.0</ele><time>2026-03-30T13:49:37Z</time></trkpt><trkpt lat="45.50097855380285" lon="10.272825473140909"><ele>129.0</ele><time>2026-03-30T13:49:38Z</time></trkpt><trkpt lat="45.50096307220641" lon="10.272513300855188"><ele>129.0</ele><time>2026-03-30T13:49:39Z</time></trkpt><trkpt lat="45.50094646053462" lon="10.27219954418932"><ele>129.0</ele><time>2026-03-30T13:49:40Z</time></trkpt><trkpt lat="45.50093069838997" lon="10.271886185884414"><ele>129.33333333333334</ele><time>2026-03-30T13:49:41Z</time></trkpt><trkpt lat="45.50091347679716" lon="10.271573125013411"><ele>129.66666666666669</ele><time>2026-03-30T13:49:42Z</time></trkpt><trkpt lat="45.50089727907336" lon="10.271261697614174"><ele>130.0</ele><time>2026-03-30T13:49:43Z</time></trkpt><trkpt lat="45.50088310421356" lon="10.2709492232335"><ele>129.0</ele><time>2026-03-30T13:49:44Z</time></trkpt><trkpt lat="45.50086312342811" lon="10.270636307624462"><ele>128.0</ele><time>2026-03-30T13:49:45Z</time></trkpt><trkpt lat="45.50084726538748" lon="10.270324123900522"><ele>127.0</ele><time>2026-03-30T13:49:46Z</time></trkpt><trkpt lat="45.500831476599956" lon="10.270012883747713"><ele>126.66666666666667</ele><time>2026-03-30T13:49:47Z</time></trkpt><trkpt lat="45.50081904418053" lon="10.269699611275103"><ele>126.33333333333334</ele><time>2026-03-30T13:49:48Z</time></trkpt><trkpt lat="45.500810632043745" lon="10.269385205309101"><ele>126.0</ele><time>2026-03-30T13:49:49Z</time></trkpt><trkpt lat="45.500798820889756" lon="10.269069369737467"><ele>125.33333333333334</ele><time>2026-03-30T13:49:50Z</time></trkpt><trkpt lat="45.50078285757769" lon="10.268757260185161"><ele>124.66666666666667</ele><time>2026-03-30T13:49:51Z</time></trkpt><trkpt lat="45.50077307743669" lon="10.268450007149905"><ele>124.0</ele><time>2026-03-30T13:49:52Z</time></trkpt><trkpt lat="45.50076204775185" lon="10.268141667897183"><ele>123.66666666666667</ele><time>2026-03-30T13:49:53Z</time></trkpt><trkpt lat="45.50075238244284" lon="10.2678288420703"><ele>123.33333333333334</ele><time>2026-03-30T13:49:54Z</time></trkpt><trkpt lat="45.50074549711856" lon="10.26751558999689"><ele>123.0</ele><time>2026-03-30T13:49:55Z</time></trkpt><trkpt lat="45.500744440257684" lon="10.267201816655053"><ele>123.0</ele><time>2026-03-30T13:49:56Z</time></trkpt><trkpt lat="45.50074956785603" lon="10.266889959240782"><ele>123.0</ele><time>2026-03-30T13:49:57Z</time></trkpt><trkpt lat="45.500752756083166" lon="10.266575601778943"><ele>123.0</ele><time>2026-03-30T13:49:58Z</time></trkpt><trkpt lat="45.50075704770522" lon="10.266264113467605"><ele>122.66666666666666</ele><time>2026-03-30T13:49:59Z</time></trkpt><trkpt lat="45.50076531296919" lon="10.26595157908074"><ele>122.33333333333333</ele><time>2026-03-30T13:50:00Z</time></trkpt><trkpt lat="45.50077444771457" lon="10.265644134392668"><ele>122.0</ele><time>2026-03-30T13:50:01Z</time></trkpt><trkpt lat="45.500788318139286" lon="10.265335683320131"><ele>122.0</ele><time>2026-03-30T13:50:02Z</time></trkpt><trkpt lat="45.500799031827825" lon="10.265023968209038"><ele>122.0</ele><time>2026-03-30T13:50:03Z</time></trkpt><trkpt lat="45.50081110221978" lon="10.264714495396717"><ele>122.0</ele><time>2026-03-30T13:50:04Z</time></trkpt><trkpt lat="45.50082669581817" lon="10.264404011581517"><ele>122.33333333333333</ele><time>2026-03-30T13:50:05Z</time></trkpt><trkpt lat="45.500842073981644" lon="10.264090694286844"><ele>122.66666666666666</ele><time>2026-03-30T13:50:06Z</time></trkpt><trkpt lat="45.50086445267638" lon="10.263777650171987"><ele>123.0</ele><time>2026-03-30T13:50:07Z</time></trkpt><trkpt lat="45.500884158638705" lon="10.263464768954748"><ele>123.0</ele><time>2026-03-30T13:50:08Z</time></trkpt><trkpt lat="45.500904236004956" lon="10.263151698145265"><ele>123.0</ele><time>2026-03-30T13:50:09Z</time></trkpt><trkpt lat="45.500920645777796" lon="10.262839979971883"><ele>123.0</ele><time>2026-03-30T13:50:10Z</time></trkpt><trkpt lat="45.50093499617023" lon="10.262530147131063"><ele>123.0</ele><time>2026-03-30T13:50:10.999Z</time></trkpt><trkpt lat="45.50095390836252" lon="10.262218348191668"><ele>123.0</ele><time>2026-03-30T13:50:11.999Z</time></trkpt><trkpt lat="45.50097306355276" lon="10.261905233069106"><ele>123.0</ele><time>2026-03-30T13:50:12.999Z</time></trkpt><trkpt lat="45.500996422681226" lon="10.261595740495316"><ele>122.66666666666666</ele><time>2026-03-30T13:50:13.999Z</time></trkpt><trkpt lat="45.50102059415899" lon="10.261284011365783"><ele>122.33333333333333</ele><time>2026-03-30T13:50:14.999Z</time></trkpt><trkpt lat="45.50104034636673" lon="10.260971391068365"><ele>122.0</ele><time>2026-03-30T13:50:15.999Z</time></trkpt><trkpt lat="45.50105763694566" lon="10.26065778250097"><ele>121.66666666666666</ele><time>2026-03-30T13:50:16.999Z</time></trkpt><trkpt lat="45.501070754283056" lon="10.260344439332666"><ele>121.33333333333334</ele><time>2026-03-30T13:50:17.999Z</time></trkpt><trkpt lat="45.50108562784313" lon="10.260030722012342"><ele>121.0</ele><time>2026-03-30T13:50:18.999Z</time></trkpt><trkpt lat="45.501102615918064" lon="10.259719127162578"><ele>121.0</ele><time>2026-03-30T13:50:19.999Z</time></trkpt><trkpt lat="45.50111965405114" lon="10.259403795885413"><ele>121.0</ele><time>2026-03-30T13:50:20.999Z</time></trkpt><trkpt lat="45.501135876489336" lon="10.259089996011475"><ele>121.0</ele><time>2026-03-30T13:50:21.999Z</time></trkpt><trkpt lat="45.50114938892268" lon="10.25877649484329"><ele>121.0</ele><time>2026-03-30T13:50:22.999Z</time></trkpt><trkpt lat="45.50116761171826" lon="10.258466787355333"><ele>121.0</ele><time>2026-03-30T13:50:23.999Z</time></trkpt><trkpt lat="45.50118884045989" lon="10.258153943104219"><ele>121.0</ele><time>2026-03-30T13:50:24.999Z</time></trkpt><trkpt lat="45.501213816217685" lon="10.257842548486355"><ele>121.33333333333334</ele><time>2026-03-30T13:50:25.999Z</time></trkpt><trkpt lat="45.501235269421535" lon="10.257532265431388"><ele>121.66666666666666</ele><time>2026-03-30T13:50:26.999Z</time></trkpt><trkpt lat="45.5012507347601" lon="10.257218969191285"><ele>122.0</ele><time>2026-03-30T13:50:27.999Z</time></trkpt><trkpt lat="45.501270818661695" lon="10.256908089437294"><ele>121.33333333333333</ele><time>2026-03-30T13:50:28.999Z</time></trkpt><trkpt lat="45.50128910826011" lon="10.256598386736876"><ele>120.66666666666666</ele><time>2026-03-30T13:50:29.999Z</time></trkpt><trkpt lat="45.50131039715878" lon="10.2562910744182"><ele>120.0</ele><time>2026-03-30T13:50:30.999Z</time></trkpt><trkpt lat="45.50133333612004" lon="10.255983706611277"><ele>120.0</ele><time>2026-03-30T13:50:31.999Z</time></trkpt><trkpt lat="45.501360004442525" lon="10.255676611247978"><ele>120.0</ele><time>2026-03-30T13:50:32.999Z</time></trkpt><trkpt lat="45.50139343365635" lon="10.255364403008352"><ele>120.0</ele><time>2026-03-30T13:50:33.999Z</time></trkpt><trkpt lat="45.501421961914296" lon="10.255065685737009"><ele>120.66666666666666</ele><time>2026-03-30T13:50:34.999Z</time></trkpt><trkpt lat="45.501487970375464" lon="10.254743367528075"><ele>121.33333333333333</ele><time>2026-03-30T13:50:35.999Z</time></trkpt><trkpt lat="45.501537358490715" lon="10.254447243840579"><ele>122.0</ele><time>2026-03-30T13:50:36.999Z</time></trkpt><trkpt lat="45.50159830635279" lon="10.254146769491236"><ele>121.33333333333333</ele><time>2026-03-30T13:50:37.999Z</time></trkpt><trkpt lat="45.501668389571385" lon="10.253848146364545"><ele>120.66666666666666</ele><time>2026-03-30T13:50:38.999Z</time></trkpt><trkpt lat="45.501738665580426" lon="10.253551838756586"><ele>120.0</ele><time>2026-03-30T13:50:39.999Z</time></trkpt><trkpt lat="45.50181442773356" lon="10.253258936284407"><ele>119.66666666666666</ele><time>2026-03-30T13:50:40.999Z</time></trkpt><trkpt lat="45.50189772030861" lon="10.252972404109013"><ele>119.33333333333333</ele><time>2026-03-30T13:50:41.999Z</time></trkpt><trkpt lat="45.50199030345383" lon="10.252686437588505"><ele>119.0</ele><time>2026-03-30T13:50:42.999Z</time></trkpt><trkpt lat="45.502088947329206" lon="10.252403970929521"><ele>119.33333333333333</ele><time>2026-03-30T13:50:43.999Z</time></trkpt><trkpt lat="45.50219545952764" lon="10.252128434668373"><ele>119.66666666666666</ele><time>2026-03-30T13:50:44.999Z</time></trkpt><trkpt lat="45.50229893094758" lon="10.251851913488556"><ele>120.0</ele><time>2026-03-30T13:50:45.999Z</time></trkpt><trkpt lat="45.5024096914056" lon="10.251578703489105"><ele>120.0</ele><time>2026-03-30T13:50:46.999Z</time></trkpt><trkpt lat="45.50252039826171" lon="10.251310952147604"><ele>120.0</ele><time>2026-03-30T13:50:47.999Z</time></trkpt><trkpt lat="45.50264606764835" lon="10.251053428868483"><ele>120.0</ele><time>2026-03-30T13:50:48.999Z</time></trkpt><trkpt lat="45.50277587158598" lon="10.25080299497913"><ele>120.33333333333334</ele><time>2026-03-30T13:50:49.999Z</time></trkpt><trkpt lat="45.50291424227447" lon="10.250556615024498"><ele>120.66666666666667</ele><time>2026-03-30T13:50:50.999Z</time></trkpt><trkpt lat="45.50306069529312" lon="10.25031604962857"><ele>121.0</ele><time>2026-03-30T13:50:51.999Z</time></trkpt><trkpt lat="45.503209458366726" lon="10.250086659206612"><ele>121.0</ele><time>2026-03-30T13:50:52.999Z</time></trkpt><trkpt lat="45.50335755613926" lon="10.249858211457902"><ele>121.0</ele><time>2026-03-30T13:50:53.999Z</time></trkpt><trkpt lat="45.50350474385475" lon="10.249628445691224"><ele>121.0</ele><time>2026-03-30T13:50:54.999Z</time></trkpt><trkpt lat="45.503650286530345" lon="10.249392905905204"><ele>121.0</ele><time>2026-03-30T13:50:55.999Z</time></trkpt><trkpt lat="45.50379428231728" lon="10.249156109232139"><ele>121.0</ele><time>2026-03-30T13:50:56.999Z</time></trkpt><trkpt lat="45.50393777383947" lon="10.248920000707702"><ele>121.0</ele><time>2026-03-30T13:50:57.999Z</time></trkpt><trkpt lat="45.50408091717005" lon="10.248683197983329"><ele>121.0</ele><time>2026-03-30T13:50:58.999Z</time></trkpt><trkpt lat="45.504222040444006" lon="10.248445369950923"><ele>121.0</ele><time>2026-03-30T13:50:59.999Z</time></trkpt><trkpt lat="45.50436696311152" lon="10.248209951544636"><ele>121.0</ele><time>2026-03-30T13:51:00.999Z</time></trkpt><trkpt lat="45.50451024088585" lon="10.247972782288622"><ele>120.66666666666667</ele><time>2026-03-30T13:51:01.999Z</time></trkpt><trkpt lat="45.50465638552627" lon="10.247737710283278"><ele>120.33333333333334</ele><time>2026-03-30T13:51:02.999Z</time></trkpt><trkpt lat="45.50480247800636" lon="10.24750235845461"><ele>120.0</ele><time>2026-03-30T13:51:03.999Z</time></trkpt><trkpt lat="45.50494809201738" lon="10.247269819207931"><ele>120.0</ele><time>2026-03-30T13:51:04.999Z</time></trkpt><trkpt lat="45.50509069534747" lon="10.247034768783715"><ele>120.0</ele><time>2026-03-30T13:51:05.999Z</time></trkpt><trkpt lat="45.5052341821827" lon="10.246796713464981"><ele>120.0</ele><time>2026-03-30T13:51:06.999Z</time></trkpt><trkpt lat="45.50537515811191" lon="10.246552161117643"><ele>120.0</ele><time>2026-03-30T13:51:07.999Z</time></trkpt><trkpt lat="45.505515689485456" lon="10.2463117649641"><ele>120.0</ele><time>2026-03-30T13:51:08.999Z</time></trkpt><trkpt lat="45.505654421297514" lon="10.246064121081071"><ele>120.0</ele><time>2026-03-30T13:51:09.999Z</time></trkpt><trkpt lat="45.505802890062974" lon="10.245828455259739"><ele>119.0</ele><time>2026-03-30T13:51:10.999Z</time></trkpt><trkpt lat="45.50594960897068" lon="10.245590391939661"><ele>118.0</ele><time>2026-03-30T13:51:11.999Z</time></trkpt><trkpt lat="45.50609564916624" lon="10.245353213904785"><ele>117.0</ele><time>2026-03-30T13:51:12.999Z</time></trkpt><trkpt lat="45.506239583346485" lon="10.24511663463573"><ele>117.0</ele><time>2026-03-30T13:51:13.999Z</time></trkpt><trkpt lat="45.50638635074167" lon="10.2448825591169"><ele>117.0</ele><time>2026-03-30T13:51:14.998Z</time></trkpt><trkpt lat="45.50652926152225" lon="10.244646906068969"><ele>117.0</ele><time>2026-03-30T13:51:15.998Z</time></trkpt><trkpt lat="45.50667569162213" lon="10.24441201278737"><ele>117.0</ele><time>2026-03-30T13:51:16.998Z</time></trkpt><trkpt lat="45.5068247965234" lon="10.244177813750975"><ele>117.0</ele><time>2026-03-30T13:51:17.998Z</time></trkpt><trkpt lat="45.506968965693446" lon="10.243943307660796"><ele>117.0</ele><time>2026-03-30T13:51:18.998Z</time></trkpt><trkpt lat="45.50711007495681" lon="10.243709713853777"><ele>117.0</ele><time>2026-03-30T13:51:19.998Z</time></trkpt><trkpt lat="45.5072561152821" lon="10.243472763554879"><ele>117.0</ele><time>2026-03-30T13:51:20.998Z</time></trkpt><trkpt lat="45.50739697289521" lon="10.243235422845117"><ele>117.0</ele><time>2026-03-30T13:51:21.998Z</time></trkpt><trkpt lat="45.50753693422372" lon="10.24299640233881"><ele>117.0</ele><time>2026-03-30T13:51:22.998Z</time></trkpt><trkpt lat="45.50767762041437" lon="10.24275306258646"><ele>117.0</ele><time>2026-03-30T13:51:23.998Z</time></trkpt><trkpt lat="45.507805216049604" lon="10.24250254087886"><ele>117.0</ele><time>2026-03-30T13:51:24.998Z</time></trkpt><trkpt lat="45.50792892770173" lon="10.242244505941622"><ele>117.0</ele><time>2026-03-30T13:51:25.998Z</time></trkpt><trkpt lat="45.50815544673074" lon="10.241709083663162"><ele>117.0</ele><time>2026-03-30T13:51:27.998Z</time></trkpt><trkpt lat="45.50826276025504" lon="10.241440198043174"><ele>117.33333333333334</ele><time>2026-03-30T13:51:28.998Z</time></trkpt><trkpt lat="45.508372586048225" lon="10.241167834697546"><ele>117.66666666666667</ele><time>2026-03-30T13:51:29.998Z</time></trkpt><trkpt lat="45.508480779588446" lon="10.240893110837295"><ele>118.0</ele><time>2026-03-30T13:51:30.998Z</time></trkpt><trkpt lat="45.50858686073726" lon="10.240620423688082"><ele>118.0</ele><time>2026-03-30T13:51:31.998Z</time></trkpt><trkpt lat="45.50868683347554" lon="10.240339288245137"><ele>118.0</ele><time>2026-03-30T13:51:32.998Z</time></trkpt><trkpt lat="45.50878290877557" lon="10.240056175608137"><ele>118.0</ele><time>2026-03-30T13:51:34Z</time></trkpt><trkpt lat="45.50887387626977" lon="10.239771856241989"><ele>117.33333333333334</ele><time>2026-03-30T13:51:35Z</time></trkpt><trkpt lat="45.50896150217657" lon="10.239483054819216"><ele>116.66666666666666</ele><time>2026-03-30T13:51:36Z</time></trkpt><trkpt lat="45.509039341226895" lon="10.239192874165681"><ele>116.0</ele><time>2026-03-30T13:51:37Z</time></trkpt><trkpt lat="45.50911821427694" lon="10.238898114935937"><ele>116.0</ele><time>2026-03-30T13:51:38Z</time></trkpt><trkpt lat="45.50919033573801" lon="10.238603350457987"><ele>116.0</ele><time>2026-03-30T13:51:39Z</time></trkpt><trkpt lat="45.509258800471585" lon="10.238307785870198"><ele>116.0</ele><time>2026-03-30T13:51:40Z</time></trkpt><trkpt lat="45.5093222100194" lon="10.238011422422757"><ele>116.0</ele><time>2026-03-30T13:51:41Z</time></trkpt><trkpt lat="45.509381260582735" lon="10.237711296774616"><ele>116.0</ele><time>2026-03-30T13:51:42Z</time></trkpt><trkpt lat="45.50944026809834" lon="10.237407708473727"><ele>116.0</ele><time>2026-03-30T13:51:43Z</time></trkpt><trkpt lat="45.509492029983065" lon="10.23710362509122"><ele>116.0</ele><time>2026-03-30T13:51:44Z</time></trkpt><trkpt lat="45.50954102726843" lon="10.236799038917162"><ele>116.0</ele><time>2026-03-30T13:51:45Z</time></trkpt><trkpt lat="45.50958710325379" lon="10.236493600103223"><ele>116.0</ele><time>2026-03-30T13:51:46Z</time></trkpt><trkpt lat="45.5096197663694" lon="10.236189528520564"><ele>116.33333333333333</ele><time>2026-03-30T13:51:47Z</time></trkpt><trkpt lat="45.50965576660302" lon="10.235878138394959"><ele>116.66666666666666</ele><time>2026-03-30T13:51:48Z</time></trkpt><trkpt lat="45.50968689360334" lon="10.235566421394333"><ele>117.0</ele><time>2026-03-30T13:51:49Z</time></trkpt><trkpt lat="45.50971069764171" lon="10.235256341292624"><ele>117.0</ele><time>2026-03-30T13:51:50Z</time></trkpt><trkpt lat="45.50973368845655" lon="10.234948103630567"><ele>117.0</ele><time>2026-03-30T13:51:51Z</time></trkpt><trkpt lat="45.50975565568624" lon="10.23463832423472"><ele>117.0</ele><time>2026-03-30T13:51:52Z</time></trkpt><trkpt lat="45.50977901956464" lon="10.234325811280685"><ele>117.0</ele><time>2026-03-30T13:51:53Z</time></trkpt><trkpt lat="45.5098027736794" lon="10.234017969221009"><ele>117.0</ele><time>2026-03-30T13:51:54Z</time></trkpt><trkpt lat="45.50982874828035" lon="10.233708750909667"><ele>117.0</ele><time>2026-03-30T13:51:55Z</time></trkpt><trkpt lat="45.509852303372625" lon="10.23340273011959"><ele>116.33333333333334</ele><time>2026-03-30T13:51:56Z</time></trkpt><trkpt lat="45.50987880037891" lon="10.23309427611397"><ele>115.66666666666667</ele><time>2026-03-30T13:51:57Z</time></trkpt><trkpt lat="45.509900264202045" lon="10.232786000262111"><ele>115.0</ele><time>2026-03-30T13:51:58Z</time></trkpt><trkpt lat="45.50992096971265" lon="10.232476175830948"><ele>116.0</ele><time>2026-03-30T13:51:59Z</time></trkpt><trkpt lat="45.509948441531954" lon="10.232164646967275"><ele>117.0</ele><time>2026-03-30T13:52:00Z</time></trkpt><trkpt lat="45.50996952770134" lon="10.231853636669618"><ele>118.0</ele><time>2026-03-30T13:52:01Z</time></trkpt><trkpt lat="45.509991242272" lon="10.231543497094203"><ele>118.0</ele><time>2026-03-30T13:52:02Z</time></trkpt><trkpt lat="45.5100138926334" lon="10.23123677253057"><ele>118.0</ele><time>2026-03-30T13:52:03Z</time></trkpt><trkpt lat="45.510042013403734" lon="10.230926320625105"><ele>118.0</ele><time>2026-03-30T13:52:04Z</time></trkpt><trkpt lat="45.51007624990734" lon="10.230584080712893"><ele>118.0</ele><time>2026-03-30T13:52:05Z</time></trkpt><trkpt lat="45.51008980581843" lon="10.230197586747511"><ele>118.0</ele><time>2026-03-30T13:52:06Z</time></trkpt><trkpt lat="45.51012033575584" lon="10.229804891878096"><ele>117.5</ele><time>2026-03-30T13:52:07Z</time></trkpt><trkpt lat="45.51014607296621" lon="10.229427829596203"><ele>117.0</ele><time>2026-03-30T13:52:08Z</time></trkpt><trkpt lat="45.51017123871029" lon="10.22906676593381"><ele>117.5</ele><time>2026-03-30T13:52:09Z</time></trkpt><trkpt lat="45.51019719478604" lon="10.22870660641973"><ele>118.0</ele><time>2026-03-30T13:52:10Z</time></trkpt><trkpt lat="45.51022742692555" lon="10.228338271036279"><ele>118.0</ele><time>2026-03-30T13:52:11Z</time></trkpt><trkpt lat="45.51025436285346" lon="10.227949138299103"><ele>118.0</ele><time>2026-03-30T13:52:12Z</time></trkpt><trkpt lat="45.51027487804083" lon="10.227531364104488"><ele>118.0</ele><time>2026-03-30T13:52:13Z</time></trkpt><trkpt lat="45.51027223709735" lon="10.227091135720976"><ele>118.0</ele><time>2026-03-30T13:52:14Z</time></trkpt><trkpt lat="45.51027251764077" lon="10.22669535023083"><ele>117.5</ele><time>2026-03-30T13:52:14.999Z</time></trkpt><trkpt lat="45.51028014864621" lon="10.226323477281674"><ele>117.0</ele><time>2026-03-30T13:52:15.999Z</time></trkpt><trkpt lat="45.51028940002819" lon="10.225969241245565"><ele>118.0</ele><time>2026-03-30T13:52:16.999Z</time></trkpt><trkpt lat="45.51030509819709" lon="10.225611940603741"><ele>119.0</ele><time>2026-03-30T13:52:17.999Z</time></trkpt><trkpt lat="45.51032956334068" lon="10.225253289576788"><ele>119.0</ele><time>2026-03-30T13:52:18.999Z</time></trkpt><trkpt lat="45.510362907862586" lon="10.224898415830582"><ele>119.0</ele><time>2026-03-30T13:52:19.999Z</time></trkpt><trkpt lat="45.5104038847282" lon="10.224541599366644"><ele>119.0</ele><time>2026-03-30T13:52:20.999Z</time></trkpt><trkpt lat="45.510453427692724" lon="10.224187742849864"><ele>119.0</ele><time>2026-03-30T13:52:21.999Z</time></trkpt><trkpt lat="45.510511397967214" lon="10.223837339885645"><ele>119.0</ele><time>2026-03-30T13:52:22.999Z</time></trkpt><trkpt lat="45.51057724899682" lon="10.223490989108035"><ele>119.0</ele><time>2026-03-30T13:52:23.999Z</time></trkpt><trkpt lat="45.51064974521536" lon="10.223140660557355"><ele>120.5</ele><time>2026-03-30T13:52:24.999Z</time></trkpt><trkpt lat="45.510725411411165" lon="10.222795911181906"><ele>122.0</ele><time>2026-03-30T13:52:25.999Z</time></trkpt><trkpt lat="45.51081052026418" lon="10.22244539115892"><ele>121.5</ele><time>2026-03-30T13:52:26.999Z</time></trkpt><trkpt lat="45.51089870134116" lon="10.222092008638418"><ele>121.0</ele><time>2026-03-30T13:52:27.999Z</time></trkpt><trkpt lat="45.51098263134006" lon="10.221735281728568"><ele>121.5</ele><time>2026-03-30T13:52:28.999Z</time></trkpt><trkpt lat="45.51106333625372" lon="10.221378777996241"><ele>122.0</ele><time>2026-03-30T13:52:29.999Z</time></trkpt><trkpt lat="45.51114342086949" lon="10.221023450891023"><ele>122.0</ele><time>2026-03-30T13:52:30.999Z</time></trkpt><trkpt lat="45.511223078648044" lon="10.22067175519563"><ele>122.0</ele><time>2026-03-30T13:52:31.999Z</time></trkpt><trkpt lat="45.51130356315846" lon="10.22032102648396"><ele>121.5</ele><time>2026-03-30T13:52:32.999Z</time></trkpt><trkpt lat="45.51138355830061" lon="10.219970420044868"><ele>121.0</ele><time>2026-03-30T13:52:33.999Z</time></trkpt><trkpt lat="45.5114670174155" lon="10.219623371984687"><ele>121.5</ele><time>2026-03-30T13:52:34.999Z</time></trkpt><trkpt lat="45.511547547340115" lon="10.21927589165412"><ele>122.0</ele><time>2026-03-30T13:52:35.999Z</time></trkpt><trkpt lat="45.51162942173098" lon="10.21893289179815"><ele>122.0</ele><time>2026-03-30T13:52:36.999Z</time></trkpt><trkpt lat="45.51171230265599" lon="10.218586978283748"><ele>122.0</ele><time>2026-03-30T13:52:37.999Z</time></trkpt><trkpt lat="45.5118048993798" lon="10.218186795709347"><ele>122.0</ele><time>2026-03-30T13:52:38.999Z</time></trkpt><trkpt lat="45.51189548721385" lon="10.217796920251368"><ele>122.0</ele><time>2026-03-30T13:52:39.999Z</time></trkpt><trkpt lat="45.51197392679364" lon="10.217439762363412"><ele>122.5</ele><time>2026-03-30T13:52:40.999Z</time></trkpt><trkpt lat="45.51205014975993" lon="10.217103716701477"><ele>123.0</ele><time>2026-03-30T13:52:41.999Z</time></trkpt><trkpt lat="45.51212829987865" lon="10.216768075217516"><ele>122.0</ele><time>2026-03-30T13:52:42.999Z</time></trkpt><trkpt lat="45.51220951329761" lon="10.21642566165086"><ele>121.0</ele><time>2026-03-30T13:52:43.999Z</time></trkpt><trkpt lat="45.512293155664054" lon="10.216077050008098"><ele>121.0</ele><time>2026-03-30T13:52:44.999Z</time></trkpt><trkpt lat="45.51237420853021" lon="10.21572090601086"><ele>121.0</ele><time>2026-03-30T13:52:45.999Z</time></trkpt><trkpt lat="45.51245646771853" lon="10.21537205859407"><ele>120.0</ele><time>2026-03-30T13:52:46.999Z</time></trkpt><trkpt lat="45.51253921042208" lon="10.215027427914961"><ele>119.0</ele><time>2026-03-30T13:52:47.999Z</time></trkpt><trkpt lat="45.512622305205845" lon="10.214680284855325"><ele>119.0</ele><time>2026-03-30T13:52:48.999Z</time></trkpt><trkpt lat="45.51270490092787" lon="10.214335953552887"><ele>119.0</ele><time>2026-03-30T13:52:49.999Z</time></trkpt><trkpt lat="45.512789572803" lon="10.213988199670682"><ele>119.0</ele><time>2026-03-30T13:52:50.999Z</time></trkpt><trkpt lat="45.51288089398654" lon="10.213642139054597"><ele>119.0</ele><time>2026-03-30T13:52:51.999Z</time></trkpt><trkpt lat="45.51298075677346" lon="10.21329786068104"><ele>120.5</ele><time>2026-03-30T13:52:52.999Z</time></trkpt><trkpt lat="45.51308398462567" lon="10.212961701460594"><ele>122.0</ele><time>2026-03-30T13:52:53.999Z</time></trkpt><trkpt lat="45.51319329369873" lon="10.212632925804382"><ele>122.0</ele><time>2026-03-30T13:52:54.999Z</time></trkpt><trkpt lat="45.51331283523603" lon="10.212300525809226"><ele>122.0</ele><time>2026-03-30T13:52:55.999Z</time></trkpt><trkpt lat="45.51343495565341" lon="10.211980236552684"><ele>122.0</ele><time>2026-03-30T13:52:56.999Z</time></trkpt><trkpt lat="45.51356924456824" lon="10.21165799180523"><ele>122.0</ele><time>2026-03-30T13:52:57.999Z</time></trkpt><trkpt lat="45.51370898202136" lon="10.211345860403497"><ele>121.5</ele><time>2026-03-30T13:52:58.999Z</time></trkpt><trkpt lat="45.51385012041413" lon="10.211045592367908"><ele>121.0</ele><time>2026-03-30T13:52:59.999Z</time></trkpt><trkpt lat="45.51400349905674" lon="10.21074995052352"><ele>120.5</ele><time>2026-03-30T13:53:00.999Z</time></trkpt><trkpt lat="45.51415698562331" lon="10.210466015750457"><ele>120.0</ele><time>2026-03-30T13:53:01.999Z</time></trkpt><trkpt lat="45.514316240797115" lon="10.210187372816856"><ele>120.0</ele><time>2026-03-30T13:53:02.999Z</time></trkpt><trkpt lat="45.514482623686185" lon="10.209909403424533"><ele>120.0</ele><time>2026-03-30T13:53:03.999Z</time></trkpt><trkpt lat="45.51464021007401" lon="10.209638887795363"><ele>120.0</ele><time>2026-03-30T13:53:04.999Z</time></trkpt><trkpt lat="45.5148059355766" lon="10.20936851347584"><ele>120.0</ele><time>2026-03-30T13:53:05.999Z</time></trkpt><trkpt lat="45.51497178357633" lon="10.20910005904899"><ele>119.0</ele><time>2026-03-30T13:53:06.999Z</time></trkpt><trkpt lat="45.51512742136546" lon="10.208830641242825"><ele>118.0</ele><time>2026-03-30T13:53:07.999Z</time></trkpt><trkpt lat="45.515301412775834" lon="10.208550336008251"><ele>118.5</ele><time>2026-03-30T13:53:08.999Z</time></trkpt><trkpt lat="45.515482250111745" lon="10.208232824641382"><ele>119.0</ele><time>2026-03-30T13:53:09.999Z</time></trkpt><trkpt lat="45.51567020351585" lon="10.207914965279427"><ele>119.5</ele><time>2026-03-30T13:53:10.999Z</time></trkpt><trkpt lat="45.5158403784486" lon="10.207635163936821"><ele>120.0</ele><time>2026-03-30T13:53:11.999Z</time></trkpt><trkpt lat="45.51600568973298" lon="10.20735989884157"><ele>121.0</ele><time>2026-03-30T13:53:12.999Z</time></trkpt><trkpt lat="45.51616800868518" lon="10.207083708967335"><ele>122.0</ele><time>2026-03-30T13:53:13.999Z</time></trkpt><trkpt lat="45.51632942425758" lon="10.206799163919156"><ele>122.5</ele><time>2026-03-30T13:53:14.999Z</time></trkpt><trkpt lat="45.516491830786634" lon="10.206524860294138"><ele>123.0</ele><time>2026-03-30T13:53:15.999Z</time></trkpt><trkpt lat="45.51665066256342" lon="10.206243460633234"><ele>122.0</ele><time>2026-03-30T13:53:16.999Z</time></trkpt><trkpt lat="45.51680317053015" lon="10.205960340674748"><ele>121.0</ele><time>2026-03-30T13:53:17.999Z</time></trkpt><trkpt lat="45.51695042409019" lon="10.205678782141627"><ele>122.5</ele><time>2026-03-30T13:53:18.998Z</time></trkpt><trkpt lat="45.51709625342253" lon="10.205384139489688"><ele>124.0</ele><time>2026-03-30T13:53:19.998Z</time></trkpt><trkpt lat="45.517233019876045" lon="10.205079223279672"><ele>122.5</ele><time>2026-03-30T13:53:20.998Z</time></trkpt><trkpt lat="45.51736463404636" lon="10.204776306825346"><ele>121.0</ele><time>2026-03-30T13:53:21.998Z</time></trkpt><trkpt lat="45.517490067780145" lon="10.204462047446233"><ele>121.0</ele><time>2026-03-30T13:53:22.998Z</time></trkpt><trkpt lat="45.51760888087734" lon="10.204149490198338"><ele>121.0</ele><time>2026-03-30T13:53:23.998Z</time></trkpt><trkpt lat="45.517719889635934" lon="10.203831265554838"><ele>121.0</ele><time>2026-03-30T13:53:24.998Z</time></trkpt><trkpt lat="45.517826118725985" lon="10.203506546971916"><ele>121.0</ele><time>2026-03-30T13:53:25.998Z</time></trkpt><trkpt lat="45.51792927407227" lon="10.20316915038078"><ele>122.0</ele><time>2026-03-30T13:53:26.998Z</time></trkpt><trkpt lat="45.51803070409855" lon="10.202827956347953"><ele>123.0</ele><time>2026-03-30T13:53:27.998Z</time></trkpt><trkpt lat="45.51813020488579" lon="10.202486125853355"><ele>122.5</ele><time>2026-03-30T13:53:28.998Z</time></trkpt><trkpt lat="45.518220436565926" lon="10.202137346752261"><ele>122.0</ele><time>2026-03-30T13:53:29.998Z</time></trkpt><trkpt lat="45.518309450185804" lon="10.201799813074562"><ele>123.0</ele><time>2026-03-30T13:53:30.998Z</time></trkpt><trkpt lat="45.518401011729004" lon="10.201463426748468"><ele>124.0</ele><time>2026-03-30T13:53:31.998Z</time></trkpt><trkpt lat="45.51850061356876" lon="10.201134194628136"><ele>124.0</ele><time>2026-03-30T13:53:32.998Z</time></trkpt><trkpt lat="45.518600663898404" lon="10.200793518739783"><ele>124.0</ele><time>2026-03-30T13:53:33.998Z</time></trkpt><trkpt lat="45.518694444254436" lon="10.200442192690842"><ele>124.0</ele><time>2026-03-30T13:53:34.998Z</time></trkpt><trkpt lat="45.51878028024435" lon="10.2000869480787"><ele>124.0</ele><time>2026-03-30T13:53:35.998Z</time></trkpt><trkpt lat="45.51886410278329" lon="10.19974115070633"><ele>123.0</ele><time>2026-03-30T13:53:36.998Z</time></trkpt><trkpt lat="45.51894387484574" lon="10.199400946114492"><ele>122.0</ele><time>2026-03-30T13:53:37.998Z</time></trkpt><trkpt lat="45.51902561840046" lon="10.199061183606059"><ele>122.0</ele><time>2026-03-30T13:53:38.998Z</time></trkpt><trkpt lat="45.519104104334104" lon="10.198733469393588"><ele>122.0</ele><time>2026-03-30T13:53:40Z</time></trkpt><trkpt lat="45.51918003500921" lon="10.19842482700273"><ele>122.33333333333333</ele><time>2026-03-30T13:53:41Z</time></trkpt><trkpt lat="45.51925511532824" lon="10.19812405633803"><ele>122.66666666666666</ele><time>2026-03-30T13:53:42Z</time></trkpt><trkpt lat="45.51932599397005" lon="10.197820444718216"><ele>123.0</ele><time>2026-03-30T13:53:43Z</time></trkpt><trkpt lat="45.51941402806365" lon="10.19752579051175"><ele>123.33333333333334</ele><time>2026-03-30T13:53:44Z</time></trkpt><trkpt lat="45.51949073235257" lon="10.197245124637181"><ele>123.66666666666667</ele><time>2026-03-30T13:53:45Z</time></trkpt><trkpt lat="45.51955950897043" lon="10.196980886766635"><ele>124.0</ele><time>2026-03-30T13:53:46Z</time></trkpt><trkpt lat="45.51961922121987" lon="10.196737885095564"><ele>124.33333333333334</ele><time>2026-03-30T13:53:47Z</time></trkpt><trkpt lat="45.51967692237053" lon="10.196504082485827"><ele>124.66666666666666</ele><time>2026-03-30T13:53:48Z</time></trkpt><trkpt lat="45.519735651384146" lon="10.196294333547986"><ele>125.0</ele><time>2026-03-30T13:53:49Z</time></trkpt><trkpt lat="45.519781081429805" lon="10.196093257904632"><ele>125.0</ele><time>2026-03-30T13:53:50Z</time></trkpt><trkpt lat="45.51982353022184" lon="10.195896307619417"><ele>125.0</ele><time>2026-03-30T13:53:51Z</time></trkpt><trkpt lat="45.51986887481183" lon="10.195705633326654"><ele>125.0</ele><time>2026-03-30T13:53:52Z</time></trkpt><trkpt lat="45.519921045723216" lon="10.195519630744654"><ele>125.0</ele><time>2026-03-30T13:53:53Z</time></trkpt><trkpt lat="45.51999123735522" lon="10.195346044994512"><ele>124.5</ele><time>2026-03-30T13:53:54Z</time></trkpt><trkpt lat="45.520081810548895" lon="10.195200501773469"><ele>124.0</ele><time>2026-03-30T13:53:55Z</time></trkpt><trkpt lat="45.52019630663695" lon="10.195097850803645"><ele>123.5</ele><time>2026-03-30T13:53:56Z</time></trkpt><trkpt lat="45.52031351811154" lon="10.195034975105825"><ele>123.0</ele><time>2026-03-30T13:53:57Z</time></trkpt><trkpt lat="45.520439708157255" lon="10.195018845797783"><ele>123.80000000000001</ele><time>2026-03-30T13:53:58Z</time></trkpt><trkpt lat="45.52057072530182" lon="10.195033806279744"><ele>124.60000000000001</ele><time>2026-03-30T13:53:59Z</time></trkpt><trkpt lat="45.5206739842689" lon="10.195067326471545"><ele>125.39999999999999</ele><time>2026-03-30T13:54:00Z</time></trkpt><trkpt lat="45.52077031640773" lon="10.195083557934895"><ele>126.19999999999999</ele><time>2026-03-30T13:54:01Z</time></trkpt><trkpt lat="45.52085801121381" lon="10.195097551278973"><ele>127.0</ele><time>2026-03-30T13:54:02Z</time></trkpt><trkpt lat="45.52093317561462" lon="10.195112956268616"><ele>127.0</ele><time>2026-03-30T13:54:03Z</time></trkpt><trkpt lat="45.521007021062495" lon="10.19512745230656"><ele>127.0</ele><time>2026-03-30T13:54:05Z</time></trkpt><trkpt lat="45.52107020084176" lon="10.195148228270684"><ele>127.0</ele><time>2026-03-30T13:54:11Z</time></trkpt><trkpt lat="45.521138641204075" lon="10.195201864091285"><ele>127.0</ele><time>2026-03-30T13:54:13Z</time></trkpt><trkpt lat="45.52118570662872" lon="10.195271749381186"><ele>127.0</ele><time>2026-03-30T13:54:14Z</time></trkpt><trkpt lat="45.52124048470541" lon="10.195346184126842"><ele>127.0</ele><time>2026-03-30T13:54:15Z</time></trkpt><trkpt lat="45.52130137753505" lon="10.195389599724548"><ele>127.0</ele><time>2026-03-30T13:54:16Z</time></trkpt><trkpt lat="45.52136469236018" lon="10.195429643372758"><ele>127.00000000000001</ele><time>2026-03-30T13:54:17Z</time></trkpt><trkpt lat="45.521416196983516" lon="10.195490268448376"><ele>127.0</ele><time>2026-03-30T13:54:18Z</time></trkpt><trkpt lat="45.521457301400964" lon="10.19556512362533"><ele>127.0</ele><time>2026-03-30T13:54:18.999Z</time></trkpt><trkpt lat="45.52149855178434" lon="10.195663775642236"><ele>127.0</ele><time>2026-03-30T13:54:19.999Z</time></trkpt><trkpt lat="45.521539814888655" lon="10.195777504688389"><ele>127.00000000000001</ele><time>2026-03-30T13:54:20.999Z</time></trkpt><trkpt lat="45.52159740256689" lon="10.19589759454649"><ele>127.0</ele><time>2026-03-30T13:54:21.999Z</time></trkpt><trkpt lat="45.52167361399206" lon="10.196028773824674"><ele>126.66666666666667</ele><time>2026-03-30T13:54:22.999Z</time></trkpt><trkpt lat="45.52177184738059" lon="10.196172749953933"><ele>126.33333333333334</ele><time>2026-03-30T13:54:23.999Z</time></trkpt><trkpt lat="45.52189036851572" lon="10.196321575820237"><ele>126.0</ele><time>2026-03-30T13:54:24.999Z</time></trkpt><trkpt lat="45.52201538156178" lon="10.196457720739328"><ele>127.0</ele><time>2026-03-30T13:54:25.999Z</time></trkpt><trkpt lat="45.52213190260965" lon="10.196560360815877"><ele>128.0</ele><time>2026-03-30T13:54:26.999Z</time></trkpt><trkpt lat="45.522245695307745" lon="10.19663880402422"><ele>129.0</ele><time>2026-03-30T13:54:27.999Z</time></trkpt><trkpt lat="45.52235149856451" lon="10.19670235192013"><ele>130.0</ele><time>2026-03-30T13:54:28.999Z</time></trkpt><trkpt lat="45.522451817489596" lon="10.1967518339332"><ele>130.0</ele><time>2026-03-30T13:54:29.999Z</time></trkpt><trkpt lat="45.522551772925766" lon="10.196795489754518"><ele>130.0</ele><time>2026-03-30T13:54:30.999Z</time></trkpt><trkpt lat="45.52264523825121" lon="10.196836840461389"><ele>130.0</ele><time>2026-03-30T13:54:31.999Z</time></trkpt><trkpt lat="45.522726976887554" lon="10.19687169243332"><ele>130.0</ele><time>2026-03-30T13:54:32.999Z</time></trkpt><trkpt lat="45.52280362429776" lon="10.19690109153815"><ele>130.0</ele><time>2026-03-30T13:54:33.999Z</time></trkpt><trkpt lat="45.52286783467126" lon="10.196925730680855"><ele>130.0</ele><time>2026-03-30T13:54:34.999Z</time></trkpt><trkpt lat="45.52295852128462" lon="10.196954958882372"><ele>129.5</ele><time>2026-03-30T13:54:36.999Z</time></trkpt><trkpt lat="45.52303333426873" lon="10.196987731237735"><ele>129.0</ele><time>2026-03-30T13:54:41.999Z</time></trkpt><trkpt lat="45.52310385530327" lon="10.197031319265506"><ele>128.5</ele><time>2026-03-30T13:54:43.999Z</time></trkpt><trkpt lat="45.52317755283551" lon="10.197060856399938"><ele>128.0</ele><time>2026-03-30T13:54:45.999Z</time></trkpt><trkpt lat="45.52329139602117" lon="10.197086042774146"><ele>127.50000000000001</ele><time>2026-03-30T13:54:47.999Z</time></trkpt><trkpt lat="45.523379259326234" lon="10.197134051591593"><ele>127.0</ele><time>2026-03-30T13:54:49.999Z</time></trkpt><trkpt lat="45.52343806449664" lon="10.197176850185395"><ele>127.00000000000001</ele><time>2026-03-30T13:54:51.999Z</time></trkpt><trkpt lat="45.52349701461799" lon="10.197209151998308"><ele>127.0</ele><time>2026-03-30T13:54:55.999Z</time></trkpt><trkpt lat="45.52356312652027" lon="10.19726737196665"><ele>127.0</ele><time>2026-03-30T13:54:58.999Z</time></trkpt><trkpt lat="45.52361779679265" lon="10.19733012816984"><ele>127.0</ele><time>2026-03-30T13:55:00.999Z</time></trkpt><trkpt lat="45.52372005632383" lon="10.197370647484474"><ele>127.00000000000001</ele><time>2026-03-30T13:55:02.999Z</time></trkpt><trkpt lat="45.52379129052872" lon="10.197337650615827"><ele>127.0</ele><time>2026-03-30T13:55:03.999Z</time></trkpt><trkpt lat="45.52387127838502" lon="10.197311557501472"><ele>127.8</ele><time>2026-03-30T13:55:04.999Z</time></trkpt><trkpt lat="45.52396400805078" lon="10.197353647818295"><ele>128.6</ele><time>2026-03-30T13:55:05.999Z</time></trkpt><trkpt lat="45.52406986370689" lon="10.197396995947734"><ele>129.39999999999998</ele><time>2026-03-30T13:55:06.999Z</time></trkpt><trkpt lat="45.524190155495916" lon="10.197425933628491"><ele>130.2</ele><time>2026-03-30T13:55:07.999Z</time></trkpt><trkpt lat="45.5242919174161" lon="10.197471677482563"><ele>131.0</ele><time>2026-03-30T13:55:08.999Z</time></trkpt><trkpt lat="45.524380363898146" lon="10.19750899022098"><ele>131.0</ele><time>2026-03-30T13:55:09.999Z</time></trkpt><trkpt lat="45.52446713724054" lon="10.197543934919295"><ele>131.0</ele><time>2026-03-30T13:55:10.999Z</time></trkpt><trkpt lat="45.524538546840574" lon="10.197585003244269"><ele>131.0</ele><time>2026-03-30T13:55:11.999Z</time></trkpt><trkpt lat="45.52460432289036" lon="10.19761123714939"><ele>131.0</ele><time>2026-03-30T13:55:12.999Z</time></trkpt><trkpt lat="45.52468501901928" lon="10.197653169733169"><ele>131.0</ele><time>2026-03-30T13:55:14.999Z</time></trkpt><trkpt lat="45.52477462302918" lon="10.197692303664994"><ele>131.0</ele><time>2026-03-30T13:55:17.999Z</time></trkpt><trkpt lat="45.5248674074371" lon="10.19774468213474"><ele>131.25</ele><time>2026-03-30T13:55:19.999Z</time></trkpt><trkpt lat="45.524967592489546" lon="10.197752054577782"><ele>131.5</ele><time>2026-03-30T13:55:21.999Z</time></trkpt><trkpt lat="45.52505678604765" lon="10.197747349965699"><ele>131.75</ele><time>2026-03-30T13:55:22.998Z</time></trkpt><trkpt lat="45.52516555996812" lon="10.19779780041619"><ele>132.0</ele><time>2026-03-30T13:55:23.998Z</time></trkpt><trkpt lat="45.52530754696826" lon="10.197861518724357"><ele>132.66666666666666</ele><time>2026-03-30T13:55:24.998Z</time></trkpt><trkpt lat="45.525475895677204" lon="10.197926161038637"><ele>133.33333333333331</ele><time>2026-03-30T13:55:25.998Z</time></trkpt><trkpt lat="45.525623683857845" lon="10.197990943971151"><ele>134.0</ele><time>2026-03-30T13:55:26.998Z</time></trkpt><trkpt lat="45.52575543300055" lon="10.198039373337224"><ele>134.0</ele><time>2026-03-30T13:55:27.998Z</time></trkpt><trkpt lat="45.525871119448496" lon="10.198084805144472"><ele>134.0</ele><time>2026-03-30T13:55:28.998Z</time></trkpt><trkpt lat="45.525975546145204" lon="10.198124319060177"><ele>134.0</ele><time>2026-03-30T13:55:29.998Z</time></trkpt><trkpt lat="45.526059160742086" lon="10.198159739091139"><ele>134.0</ele><time>2026-03-30T13:55:30.998Z</time></trkpt><trkpt lat="45.52613733613112" lon="10.198198855319978"><ele>134.0</ele><time>2026-03-30T13:55:31.998Z</time></trkpt><trkpt lat="45.52620687119057" lon="10.198253877464742"><ele>133.33333333333331</ele><time>2026-03-30T13:55:32.998Z</time></trkpt><trkpt lat="45.52627560934734" lon="10.198321078789027"><ele>132.66666666666666</ele><time>2026-03-30T13:55:33.998Z</time></trkpt><trkpt lat="45.52632658424864" lon="10.198398442126276"><ele>132.0</ele><time>2026-03-30T13:55:34.998Z</time></trkpt><trkpt lat="45.52637931407634" lon="10.198486223928722"><ele>131.33333333333334</ele><time>2026-03-30T13:55:35.998Z</time></trkpt><trkpt lat="45.52644757638775" lon="10.198544202677777"><ele>130.66666666666669</ele><time>2026-03-30T13:55:36.998Z</time></trkpt><trkpt lat="45.52652647710947" lon="10.198568489297054"><ele>130.0</ele><time>2026-03-30T13:55:37.998Z</time></trkpt><trkpt lat="45.52661001244381" lon="10.19847612267401"><ele>130.0</ele><time>2026-03-30T13:55:38.998Z</time></trkpt><trkpt lat="45.52668861328496" lon="10.198387562207657"><ele>130.0</ele><time>2026-03-30T13:55:39.998Z</time></trkpt><trkpt lat="45.52676206053047" lon="10.198310552381484"><ele>130.0</ele><time>2026-03-30T13:55:40.998Z</time></trkpt><trkpt lat="45.52684486990199" lon="10.198256255460034"><ele>130.0</ele><time>2026-03-30T13:55:41.998Z</time></trkpt><trkpt lat="45.52694715804368" lon="10.19823126929974"><ele>130.0</ele><time>2026-03-30T13:55:42.998Z</time></trkpt><trkpt lat="45.52705968051169" lon="10.198239535430892"><ele>130.25</ele><time>2026-03-30T13:55:43.998Z</time></trkpt><trkpt lat="45.52717491657812" lon="10.198246520910635"><ele>130.5</ele><time>2026-03-30T13:55:44.998Z</time></trkpt><trkpt lat="45.52729031106851" lon="10.1983949197236"><ele>130.75</ele><time>2026-03-30T13:55:46Z</time></trkpt><trkpt lat="45.52738751200617" lon="10.198526301068755"><ele>131.0</ele><time>2026-03-30T13:55:47Z</time></trkpt><trkpt lat="45.527490480405234" lon="10.19864237863048"><ele>131.0</ele><time>2026-03-30T13:55:48Z</time></trkpt><trkpt lat="45.52760419269011" lon="10.198739542447882"><ele>131.0</ele><time>2026-03-30T13:55:49Z</time></trkpt><trkpt lat="45.527734586466366" lon="10.198812270052999"><ele>131.0</ele><time>2026-03-30T13:55:50Z</time></trkpt><trkpt lat="45.52787718162464" lon="10.1988692908825"><ele>131.0</ele><time>2026-03-30T13:55:51Z</time></trkpt><trkpt lat="45.52802064363572" lon="10.198919214320206"><ele>130.5</ele><time>2026-03-30T13:55:52Z</time></trkpt><trkpt lat="45.528153054135885" lon="10.198964491436913"><ele>130.0</ele><time>2026-03-30T13:55:53Z</time></trkpt><trkpt lat="45.52828633893417" lon="10.199008846092383"><ele>129.5</ele><time>2026-03-30T13:55:54Z</time></trkpt><trkpt lat="45.52841531306876" lon="10.199058425886637"><ele>129.0</ele><time>2026-03-30T13:55:55Z</time></trkpt><trkpt lat="45.52854732991868" lon="10.199108738179127"><ele>129.75</ele><time>2026-03-30T13:55:56Z</time></trkpt><trkpt lat="45.52868136729516" lon="10.199158814598848"><ele>130.5</ele><time>2026-03-30T13:55:57Z</time></trkpt><trkpt lat="45.52881120535526" lon="10.199204600784363"><ele>131.25</ele><time>2026-03-30T13:55:58Z</time></trkpt><trkpt lat="45.528941766064555" lon="10.19925366029142"><ele>132.0</ele><time>2026-03-30T13:55:59Z</time></trkpt><trkpt lat="45.529071263635984" lon="10.19930980943775"><ele>132.0</ele><time>2026-03-30T13:56:00Z</time></trkpt><trkpt lat="45.529201841886845" lon="10.199364568241991"><ele>132.0</ele><time>2026-03-30T13:56:01Z</time></trkpt><trkpt lat="45.529337116110234" lon="10.199418378916327"><ele>132.0</ele><time>2026-03-30T13:56:02Z</time></trkpt><trkpt lat="45.52947285930164" lon="10.199479026175318"><ele>132.0</ele><time>2026-03-30T13:56:03Z</time></trkpt><trkpt lat="45.52961470177768" lon="10.199544657725454"><ele>132.0</ele><time>2026-03-30T13:56:04Z</time></trkpt><trkpt lat="45.529753762889186" lon="10.199605782733244"><ele>132.0</ele><time>2026-03-30T13:56:05Z</time></trkpt><trkpt lat="45.52988464918756" lon="10.199661312841537"><ele>132.0</ele><time>2026-03-30T13:56:06Z</time></trkpt><trkpt lat="45.530007447778786" lon="10.19971447296393"><ele>132.0</ele><time>2026-03-30T13:56:07Z</time></trkpt><trkpt lat="45.530120909709424" lon="10.199765606161074"><ele>132.0</ele><time>2026-03-30T13:56:08Z</time></trkpt><trkpt lat="45.53022782496211" lon="10.1998154929649"><ele>132.0</ele><time>2026-03-30T13:56:09Z</time></trkpt><trkpt lat="45.530325178635536" lon="10.199835550818134"><ele>132.0</ele><time>2026-03-30T13:56:10Z</time></trkpt><trkpt lat="45.530391638292585" lon="10.199938844175476"><ele>132.0</ele><time>2026-03-30T13:56:11Z</time></trkpt><trkpt lat="45.530453227394695" lon="10.200027684036225"><ele>132.0</ele><time>2026-03-30T13:56:12Z</time></trkpt><trkpt lat="45.53049824979689" lon="10.200122478492087"><ele>131.83333333333334</ele><time>2026-03-30T13:56:13Z</time></trkpt><trkpt lat="45.53054349510622" lon="10.200211339724392"><ele>131.66666666666666</ele><time>2026-03-30T13:56:14Z</time></trkpt><trkpt lat="45.530600154947194" lon="10.200272018668374"><ele>131.5</ele><time>2026-03-30T13:56:15Z</time></trkpt><trkpt lat="45.530664711194454" lon="10.200280600064241"><ele>131.33333333333331</ele><time>2026-03-30T13:56:16Z</time></trkpt><trkpt lat="45.53074737403413" lon="10.200231431318937"><ele>131.16666666666666</ele><time>2026-03-30T13:56:17Z</time></trkpt><trkpt lat="45.530828843677206" lon="10.200154292193233"><ele>131.0</ele><time>2026-03-30T13:56:18Z</time></trkpt><trkpt lat="45.53093893835449" lon="10.200115216521882"><ele>131.0</ele><time>2026-03-30T13:56:19Z</time></trkpt><trkpt lat="45.531062260304495" lon="10.200125834684387"><ele>131.0</ele><time>2026-03-30T13:56:20Z</time></trkpt><trkpt lat="45.53119843759415" lon="10.20017220996427"><ele>131.0</ele><time>2026-03-30T13:56:21Z</time></trkpt><trkpt lat="45.53133791947319" lon="10.20023217316798"><ele>131.0</ele><time>2026-03-30T13:56:22Z</time></trkpt><trkpt lat="45.531473431033774" lon="10.200285093967"><ele>131.25</ele><time>2026-03-30T13:56:23Z</time></trkpt><trkpt lat="45.53161332435108" lon="10.200333797290162"><ele>131.5</ele><time>2026-03-30T13:56:24Z</time></trkpt><trkpt lat="45.5317393449769" lon="10.200379695137604"><ele>131.75</ele><time>2026-03-30T13:56:24.999Z</time></trkpt><trkpt lat="45.531854632267375" lon="10.200426379581058"><ele>132.0</ele><time>2026-03-30T13:56:25.999Z</time></trkpt><trkpt lat="45.531969641940655" lon="10.200477993623704"><ele>132.5</ele><time>2026-03-30T13:56:26.999Z</time></trkpt><trkpt lat="45.53209652581065" lon="10.200526829030691"><ele>133.0</ele><time>2026-03-30T13:56:27.999Z</time></trkpt><trkpt lat="45.53221387576935" lon="10.200574925940382"><ele>133.5</ele><time>2026-03-30T13:56:28.999Z</time></trkpt><trkpt lat="45.53234621247076" lon="10.200620061613888"><ele>134.0</ele><time>2026-03-30T13:56:29.999Z</time></trkpt><trkpt lat="45.53249902079796" lon="10.200669338584444"><ele>134.25</ele><time>2026-03-30T13:56:30.999Z</time></trkpt><trkpt lat="45.532647878247545" lon="10.20072432145679"><ele>134.5</ele><time>2026-03-30T13:56:31.999Z</time></trkpt><trkpt lat="45.53278158928135" lon="10.200775458936715"><ele>134.75</ele><time>2026-03-30T13:56:32.999Z</time></trkpt><trkpt lat="45.53290596561504" lon="10.200819397477554"><ele>135.0</ele><time>2026-03-30T13:56:33.999Z</time></trkpt><trkpt lat="45.53301826495475" lon="10.200866137372152"><ele>135.2</ele><time>2026-03-30T13:56:34.999Z</time></trkpt><trkpt lat="45.5331229092198" lon="10.200908775204681"><ele>135.4</ele><time>2026-03-30T13:56:35.999Z</time></trkpt><trkpt lat="45.53321894526045" lon="10.200951771881604"><ele>135.6</ele><time>2026-03-30T13:56:36.999Z</time></trkpt><trkpt lat="45.533315365623686" lon="10.200989975122424"><ele>135.8</ele><time>2026-03-30T13:56:37.999Z</time></trkpt><trkpt lat="45.53340549492123" lon="10.201026019257537"><ele>136.0</ele><time>2026-03-30T13:56:38.999Z</time></trkpt><trkpt lat="45.533490602685006" lon="10.201056707656003"><ele>136.0</ele><time>2026-03-30T13:56:39.999Z</time></trkpt><trkpt lat="45.53357783797964" lon="10.201094969279731"><ele>136.0</ele><time>2026-03-30T13:56:40.999Z</time></trkpt><trkpt lat="45.53366115667379" lon="10.201135683394066"><ele>136.0</ele><time>2026-03-30T13:56:41.999Z</time></trkpt><trkpt lat="45.53374997849596" lon="10.201176089618732"><ele>136.0</ele><time>2026-03-30T13:56:42.999Z</time></trkpt><trkpt lat="45.53383327236123" lon="10.20121163788506"><ele>136.0</ele><time>2026-03-30T13:56:43.999Z</time></trkpt><trkpt lat="45.53391185921012" lon="10.201249787076172"><ele>136.0</ele><time>2026-03-30T13:56:44.999Z</time></trkpt><trkpt lat="45.533993829732964" lon="10.20128556743043"><ele>136.4</ele><time>2026-03-30T13:56:45.999Z</time></trkpt><trkpt lat="45.534080048719744" lon="10.201337918774707"><ele>136.8</ele><time>2026-03-30T13:56:46.999Z</time></trkpt><trkpt lat="45.53418838002386" lon="10.201376017493843"><ele>137.20000000000002</ele><time>2026-03-30T13:56:47.999Z</time></trkpt><trkpt lat="45.53428248844528" lon="10.201423970709792"><ele>137.6</ele><time>2026-03-30T13:56:48.999Z</time></trkpt><trkpt lat="45.534384899442024" lon="10.20146224465962"><ele>138.0</ele><time>2026-03-30T13:56:49.999Z</time></trkpt><trkpt lat="45.53449429893221" lon="10.201511576363238"><ele>138.0</ele><time>2026-03-30T13:56:50.999Z</time></trkpt><trkpt lat="45.53462243006764" lon="10.201551745989152"><ele>138.0</ele><time>2026-03-30T13:56:51.999Z</time></trkpt><trkpt lat="45.53474943478777" lon="10.201600988848567"><ele>138.0</ele><time>2026-03-30T13:56:52.999Z</time></trkpt><trkpt lat="45.53487096337698" lon="10.20164443318078"><ele>138.0</ele><time>2026-03-30T13:56:53.999Z</time></trkpt><trkpt lat="45.53499255712663" lon="10.201696574362238"><ele>138.0</ele><time>2026-03-30T13:56:54.999Z</time></trkpt><trkpt lat="45.535118449383944" lon="10.201747654751099"><ele>138.0</ele><time>2026-03-30T13:56:55.999Z</time></trkpt><trkpt lat="45.53524259940684" lon="10.201796454770136"><ele>138.0</ele><time>2026-03-30T13:56:56.999Z</time></trkpt><trkpt lat="45.535374540401996" lon="10.201854427637324"><ele>138.0</ele><time>2026-03-30T13:56:57.999Z</time></trkpt><trkpt lat="45.53551190826916" lon="10.201919680811866"><ele>138.0</ele><time>2026-03-30T13:56:58.999Z</time></trkpt><trkpt lat="45.535647586327116" lon="10.20199136072475"><ele>138.0</ele><time>2026-03-30T13:56:59.999Z</time></trkpt><trkpt lat="45.53577850331439" lon="10.202068459103828"><ele>138.0</ele><time>2026-03-30T13:57:00.999Z</time></trkpt><trkpt lat="45.53591390239635" lon="10.202162537695534"><ele>138.0</ele><time>2026-03-30T13:57:02.07Z</time></trkpt><trkpt lat="45.5360286374608" lon="10.202260715612232"><ele>138.0</ele><time>2026-03-30T13:57:03.066Z</time></trkpt><trkpt lat="45.536124217670206" lon="10.202347732299971"><ele>138.0</ele><time>2026-03-30T13:57:04.06Z</time></trkpt><trkpt lat="45.536202406701776" lon="10.202450198987592"><ele>138.0</ele><time>2026-03-30T13:57:05.061Z</time></trkpt><trkpt lat="45.53627313412413" lon="10.202560384250505"><ele>138.0</ele><time>2026-03-30T13:57:06.059Z</time></trkpt><trkpt lat="45.53635143877387" lon="10.202647864693068"><ele>138.0</ele><time>2026-03-30T13:57:07.052Z</time></trkpt><trkpt lat="45.53649285929228" lon="10.20247847101906"><ele>139.0</ele><time>2026-03-30T13:57:08.047Z</time></trkpt><trkpt lat="45.53666270226667" lon="10.202495228094298"><ele>140.0</ele><time>2026-03-30T13:57:08.999Z</time></trkpt><trkpt lat="45.536745524436455" lon="10.20253537354839"><ele>141.0</ele><time>2026-03-30T13:57:09.999Z</time></trkpt><trkpt lat="45.53680980339218" lon="10.202597275556183"><ele>142.0</ele><time>2026-03-30T13:57:10.999Z</time></trkpt><trkpt lat="45.53685469622719" lon="10.202662006734753"><ele>143.0</ele><time>2026-03-30T13:57:11.999Z</time></trkpt><trkpt lat="45.53688546263026" lon="10.20275644543838"><ele>143.0</ele><time>2026-03-30T13:57:12.999Z</time></trkpt><trkpt lat="45.53688504533141" lon="10.202849997636818"><ele>143.0</ele><time>2026-03-30T13:57:13.999Z</time></trkpt><trkpt lat="45.536869227687134" lon="10.202989537006179"><ele>143.0</ele><time>2026-03-30T13:57:15.999Z</time></trkpt><trkpt lat="45.53679212404802" lon="10.203112933993765"><ele>143.0</ele><time>2026-03-30T13:57:17.999Z</time></trkpt><trkpt lat="45.53674404664016" lon="10.203193225895257"><ele>143.0</ele><time>2026-03-30T13:57:18.999Z</time></trkpt><trkpt lat="45.536723199974745" lon="10.203303643600803"><ele>143.0</ele><time>2026-03-30T13:57:19.999Z</time></trkpt><trkpt lat="45.53672832789333" lon="10.203441713471571"><ele>142.8</ele><time>2026-03-30T13:57:20.999Z</time></trkpt><trkpt lat="45.53673586284094" lon="10.203590978410908"><ele>142.60000000000002</ele><time>2026-03-30T13:57:21.999Z</time></trkpt><trkpt lat="45.53672621248222" lon="10.203741362131778"><ele>142.39999999999998</ele><time>2026-03-30T13:57:22.999Z</time></trkpt><trkpt lat="45.53669230979704" lon="10.203902472853684"><ele>142.2</ele><time>2026-03-30T13:57:23.999Z</time></trkpt><trkpt lat="45.53668636760449" lon="10.204072694339239"><ele>142.0</ele><time>2026-03-30T13:57:24.999Z</time></trkpt><trkpt lat="45.536653187475224" lon="10.204235346630671"><ele>142.0</ele><time>2026-03-30T13:57:25.999Z</time></trkpt><trkpt lat="45.536618182256106" lon="10.204395656730044"><ele>142.0</ele><time>2026-03-30T13:57:26.999Z</time></trkpt><trkpt lat="45.53658265785769" lon="10.20456716487982"><ele>142.0</ele><time>2026-03-30T13:57:27.999Z</time></trkpt><trkpt lat="45.53654893144291" lon="10.204759711371345"><ele>142.0</ele><time>2026-03-30T13:57:28.998Z</time></trkpt><trkpt lat="45.53651506428899" lon="10.204952562283014"><ele>141.66666666666669</ele><time>2026-03-30T13:57:29.998Z</time></trkpt><trkpt lat="45.53647965150061" lon="10.2051715556005"><ele>141.33333333333334</ele><time>2026-03-30T13:57:30.998Z</time></trkpt><trkpt lat="45.53644424774488" lon="10.20540004074222"><ele>141.0</ele><time>2026-03-30T13:57:31.998Z</time></trkpt><trkpt lat="45.536403342473136" lon="10.20564271319481"><ele>141.0</ele><time>2026-03-30T13:57:32.998Z</time></trkpt><trkpt lat="45.536358956279294" lon="10.20590600634283"><ele>141.0</ele><time>2026-03-30T13:57:33.998Z</time></trkpt><trkpt lat="45.536315780314126" lon="10.206139870972105"><ele>141.0</ele><time>2026-03-30T13:57:34.998Z</time></trkpt><trkpt lat="45.53627942982664" lon="10.206348128543535"><ele>141.5</ele><time>2026-03-30T13:57:35.998Z</time></trkpt><trkpt lat="45.53624511227776" lon="10.206540485280954"><ele>142.0</ele><time>2026-03-30T13:57:36.998Z</time></trkpt><trkpt lat="45.536213428685734" lon="10.206726012608165"><ele>142.5</ele><time>2026-03-30T13:57:37.998Z</time></trkpt><trkpt lat="45.53618311457672" lon="10.206914188908678"><ele>143.0</ele><time>2026-03-30T13:57:38.998Z</time></trkpt><trkpt lat="45.536156483811695" lon="10.207081494720702"><ele>143.0</ele><time>2026-03-30T13:57:39.998Z</time></trkpt><trkpt lat="45.536134129846005" lon="10.207240150605205"><ele>143.0</ele><time>2026-03-30T13:57:40.998Z</time></trkpt><trkpt lat="45.53612315291348" lon="10.20737904170755"><ele>143.0</ele><time>2026-03-30T13:57:41.998Z</time></trkpt><trkpt lat="45.536126518078376" lon="10.207497871785511"><ele>143.0</ele><time>2026-03-30T13:57:42.998Z</time></trkpt><trkpt lat="45.536123427133745" lon="10.207604597207345"><ele>143.0</ele><time>2026-03-30T13:57:43.998Z</time></trkpt><trkpt lat="45.536139434335134" lon="10.207701705561414"><ele>143.0</ele><time>2026-03-30T13:57:44.998Z</time></trkpt><trkpt lat="45.536170175333304" lon="10.207831886973144"><ele>143.0</ele><time>2026-03-30T13:57:46.998Z</time></trkpt><trkpt lat="45.53633112071332" lon="10.207808781407069"><ele>143.0</ele><time>2026-03-30T13:57:47.998Z</time></trkpt><trkpt lat="45.53643535308671" lon="10.207815038871157"><ele>143.0</ele><time>2026-03-30T13:57:48.998Z</time></trkpt><trkpt lat="45.536563000441475" lon="10.207847219814122"><ele>143.0</ele><time>2026-03-30T13:57:49.998Z</time></trkpt><trkpt lat="45.53670434697799" lon="10.207898057272798"><ele>143.0</ele><time>2026-03-30T13:57:50.998Z</time></trkpt><trkpt lat="45.53684406788986" lon="10.207954451867028"><ele>143.0</ele><time>2026-03-30T13:57:52Z</time></trkpt><trkpt lat="45.53698993502969" lon="10.20800229732353"><ele>143.0</ele><time>2026-03-30T13:57:53Z</time></trkpt><trkpt lat="45.537128987358884" lon="10.20804604558412"><ele>143.0</ele><time>2026-03-30T13:57:54Z</time></trkpt><trkpt lat="45.537248808107776" lon="10.208086544019402"><ele>142.8</ele><time>2026-03-30T13:57:55Z</time></trkpt><trkpt lat="45.53735901452839" lon="10.208118557186776"><ele>142.60000000000002</ele><time>2026-03-30T13:57:56Z</time></trkpt><trkpt lat="45.53745682545154" lon="10.208146813290925"><ele>142.39999999999998</ele><time>2026-03-30T13:57:57Z</time></trkpt><trkpt lat="45.537538804286626" lon="10.20819835967719"><ele>142.2</ele><time>2026-03-30T13:57:58Z</time></trkpt><trkpt lat="45.537609284786704" lon="10.208224982723905"><ele>142.0</ele><time>2026-03-30T13:57:59Z</time></trkpt><trkpt lat="45.53768567706533" lon="10.208252770245686"><ele>142.0</ele><time>2026-03-30T13:58:00Z</time></trkpt><trkpt lat="45.53772877734437" lon="10.20837557031718"><ele>142.0</ele><time>2026-03-30T13:58:01Z</time></trkpt><trkpt lat="45.537760260727275" lon="10.208521654966649"><ele>142.0</ele><time>2026-03-30T13:58:02Z</time></trkpt><trkpt lat="45.53774434249168" lon="10.208690406817789"><ele>142.0</ele><time>2026-03-30T13:58:03Z</time></trkpt><trkpt lat="45.53773769418942" lon="10.20884243066825"><ele>142.0</ele><time>2026-03-30T13:58:04Z</time></trkpt><trkpt lat="45.5377163466288" lon="10.208973445559822"><ele>142.66666666666669</ele><time>2026-03-30T13:58:05Z</time></trkpt><trkpt lat="45.53769789999708" lon="10.209092384256484"><ele>143.33333333333334</ele><time>2026-03-30T13:58:06Z</time></trkpt><trkpt lat="45.537686615029834" lon="10.209202921600824"><ele>144.0</ele><time>2026-03-30T13:58:07Z</time></trkpt><trkpt lat="45.537668564356" lon="10.209300751595649"><ele>144.66666666666666</ele><time>2026-03-30T13:58:08Z</time></trkpt><trkpt lat="45.537665993039695" lon="10.20939236047614"><ele>145.33333333333331</ele><time>2026-03-30T13:58:09Z</time></trkpt><trkpt lat="45.537641511671616" lon="10.209517026293321"><ele>146.0</ele><time>2026-03-30T13:58:11Z</time></trkpt><trkpt lat="45.53762693191177" lon="10.209612321122572"><ele>146.0</ele><time>2026-03-30T13:58:14Z</time></trkpt><trkpt lat="45.53759701883328" lon="10.209789035536373"><ele>146.0</ele><time>2026-03-30T13:58:26Z</time></trkpt><trkpt lat="45.537587539731454" lon="10.209881543785746"><ele>146.0</ele><time>2026-03-30T13:58:27Z</time></trkpt><trkpt lat="45.53757619461597" lon="10.20998988972599"><ele>146.0</ele><time>2026-03-30T13:58:28Z</time></trkpt><trkpt lat="45.5375631629273" lon="10.210103180927359"><ele>146.0</ele><time>2026-03-30T13:58:29Z</time></trkpt><trkpt lat="45.53755173681987" lon="10.210204935011765"><ele>146.0</ele><time>2026-03-30T13:58:30Z</time></trkpt><trkpt lat="45.53753931039193" lon="10.21030093851266"><ele>146.0</ele><time>2026-03-30T13:58:31Z</time></trkpt><trkpt lat="45.53752428505701" lon="10.21038957640665"><ele>146.0</ele><time>2026-03-30T13:58:32Z</time></trkpt><trkpt lat="45.537500611259276" lon="10.21055217725846"><ele>146.0</ele><time>2026-03-30T13:58:33.999Z</time></trkpt><trkpt lat="45.537497796992625" lon="10.210692194619526"><ele>146.0</ele><time>2026-03-30T13:58:35.999Z</time></trkpt><trkpt lat="45.53746605518137" lon="10.210802906710407"><ele>146.0</ele><time>2026-03-30T13:58:37.999Z</time></trkpt><trkpt lat="45.5374516455872" lon="10.210905582485296"><ele>146.0</ele><time>2026-03-30T13:58:39.999Z</time></trkpt><trkpt lat="45.537443986087055" lon="10.211021695408796"><ele>146.16666666666666</ele><time>2026-03-30T13:58:43.999Z</time></trkpt><trkpt lat="45.537421929150675" lon="10.21112937779846"><ele>146.33333333333331</ele><time>2026-03-30T13:58:46.999Z</time></trkpt><trkpt lat="45.53740126121041" lon="10.21125239244861"><ele>146.5</ele><time>2026-03-30T13:58:49.999Z</time></trkpt><trkpt lat="45.53738178211193" lon="10.211375883770994"><ele>146.66666666666666</ele><time>2026-03-30T13:58:52.999Z</time></trkpt><trkpt lat="45.53736015885082" lon="10.211503235403423"><ele>146.83333333333334</ele><time>2026-03-30T13:58:55.999Z</time></trkpt><trkpt lat="45.53733984874255" lon="10.211618764021539"><ele>147.0</ele><time>2026-03-30T13:58:57.999Z</time></trkpt><trkpt lat="45.537332879716196" lon="10.2118017621214"><ele>147.2</ele><time>2026-03-30T13:58:59.999Z</time></trkpt><trkpt lat="45.537319417452" lon="10.211928631591038"><ele>147.39999999999998</ele><time>2026-03-30T13:59:00.999Z</time></trkpt><trkpt lat="45.53729983983644" lon="10.212096234720866"><ele>147.60000000000002</ele><time>2026-03-30T13:59:01.999Z</time></trkpt><trkpt lat="45.53727337420073" lon="10.212274892631548"><ele>147.8</ele><time>2026-03-30T13:59:02.999Z</time></trkpt><trkpt lat="45.537254158755246" lon="10.212413947491388"><ele>148.0</ele><time>2026-03-30T13:59:03.999Z</time></trkpt><trkpt lat="45.537239158360606" lon="10.212541691972497"><ele>148.16666666666669</ele><time>2026-03-30T13:59:04.999Z</time></trkpt><trkpt lat="45.53722890988284" lon="10.212654154996216"><ele>148.33333333333334</ele><time>2026-03-30T13:59:05.999Z</time></trkpt><trkpt lat="45.53721394056184" lon="10.212745376256501"><ele>148.5</ele><time>2026-03-30T13:59:06.999Z</time></trkpt><trkpt lat="45.53719759875623" lon="10.212862425716152"><ele>148.66666666666666</ele><time>2026-03-30T13:59:08.999Z</time></trkpt><trkpt lat="45.53727590398303" lon="10.212938330555115"><ele>148.83333333333331</ele><time>2026-03-30T13:59:12.999Z</time></trkpt><trkpt lat="45.53733537754516" lon="10.212985227158473"><ele>149.0</ele><time>2026-03-30T14:00:16Z</time></trkpt><trkpt lat="45.53732007054347" lon="10.212866424535141"><ele>149.0</ele><time>2026-03-30T14:00:44.835Z</time></trkpt><trkpt lat="45.53725252006559" lon="10.212873802443776"><ele>149.0</ele><time>2026-03-30T14:01:08.941Z</time></trkpt><trkpt lat="45.53732007054347" lon="10.212866424535141"><ele>149.0</ele><time>2026-03-30T14:01:32.507Z</time></trkpt><trkpt lat="45.53725286568638" lon="10.21278890803832"><ele>149.0</ele><time>2026-03-30T14:16:05.01Z</time></trkpt><trkpt lat="45.53732007054347" lon="10.212866424535141"><ele>149.0</ele><time>2026-03-30T14:16:32.014Z</time></trkpt></trkseg></trk></gpx>